<?xml version="1.0" encoding="UTF-8" standalone="no" ?>
<gpx xmlns="http://www.topografix.com/GPX/1/1" xmlns:xsi="http://www.w3.org/2001/XMLSchema-instance" xsi:schemaLocation="http://www.topografix.com/GPX/1/1 http://www.topografix.com/GPX/1/1/gpx.xsd" version="1.1" creator="VisuGPX - https://www.visugpx.com">
  <metadata>
    <name>GR® de Pays Scorff Blavet Océan - Boucle N°3</name>
  </metadata>
  <trk>
    <name><![CDATA[GR® de Pays Scorff Blavet Océan]]></name>
    <trkseg>
      <trkpt lat="48.06205" lon="-2.96612">
        <ele>63.4</ele>
        <time>2023-04-10T05:46:08Z</time>
      </trkpt>
      <trkpt lat="48.06204" lon="-2.96614">
        <ele>61.6</ele>
        <time>2023-04-10T05:46:09Z</time>
      </trkpt>
      <trkpt lat="48.06202" lon="-2.96626">
        <ele>61.4</ele>
        <time>2023-04-10T05:46:13Z</time>
      </trkpt>
      <trkpt lat="48.06201" lon="-2.96635">
        <ele>61.4</ele>
        <time>2023-04-10T05:46:15Z</time>
      </trkpt>
      <trkpt lat="48.06202" lon="-2.96644">
        <ele>61.2</ele>
        <time>2023-04-10T05:46:17Z</time>
      </trkpt>
      <trkpt lat="48.06203" lon="-2.96649">
        <ele>61</ele>
        <time>2023-04-10T05:46:18Z</time>
      </trkpt>
      <trkpt lat="48.06204" lon="-2.96654">
        <ele>61</ele>
        <time>2023-04-10T05:46:19Z</time>
      </trkpt>
      <trkpt lat="48.06205" lon="-2.9666">
        <ele>60.8</ele>
        <time>2023-04-10T05:46:20Z</time>
      </trkpt>
      <trkpt lat="48.06208" lon="-2.96671">
        <ele>61.2</ele>
        <time>2023-04-10T05:46:22Z</time>
      </trkpt>
      <trkpt lat="48.06209" lon="-2.96682">
        <ele>61.2</ele>
        <time>2023-04-10T05:46:24Z</time>
      </trkpt>
      <trkpt lat="48.06212" lon="-2.96694">
        <ele>61.2</ele>
        <time>2023-04-10T05:46:26Z</time>
      </trkpt>
      <trkpt lat="48.06214" lon="-2.96699">
        <ele>61</ele>
        <time>2023-04-10T05:46:27Z</time>
      </trkpt>
      <trkpt lat="48.06221" lon="-2.96703">
        <ele>60.8</ele>
        <time>2023-04-10T05:46:29Z</time>
      </trkpt>
      <trkpt lat="48.06225" lon="-2.96703">
        <ele>60.8</ele>
        <time>2023-04-10T05:46:30Z</time>
      </trkpt>
      <trkpt lat="48.06232" lon="-2.96701">
        <ele>60.8</ele>
        <time>2023-04-10T05:46:32Z</time>
      </trkpt>
      <trkpt lat="48.06235" lon="-2.96701">
        <ele>60.6</ele>
        <time>2023-04-10T05:46:33Z</time>
      </trkpt>
      <trkpt lat="48.06238" lon="-2.96699">
        <ele>60.6</ele>
        <time>2023-04-10T05:46:34Z</time>
      </trkpt>
      <trkpt lat="48.06242" lon="-2.96698">
        <ele>60.6</ele>
        <time>2023-04-10T05:46:35Z</time>
      </trkpt>
      <trkpt lat="48.06251" lon="-2.96703">
        <ele>60.6</ele>
        <time>2023-04-10T05:46:37Z</time>
      </trkpt>
      <trkpt lat="48.06254" lon="-2.96716">
        <ele>60.4</ele>
        <time>2023-04-10T05:46:39Z</time>
      </trkpt>
      <trkpt lat="48.06256" lon="-2.96724">
        <ele>60.4</ele>
        <time>2023-04-10T05:46:40Z</time>
      </trkpt>
      <trkpt lat="48.06256" lon="-2.96734">
        <ele>60.4</ele>
        <time>2023-04-10T05:46:41Z</time>
      </trkpt>
      <trkpt lat="48.06257" lon="-2.96742">
        <ele>60.4</ele>
        <time>2023-04-10T05:46:42Z</time>
      </trkpt>
      <trkpt lat="48.06264" lon="-2.96774">
        <ele>60.4</ele>
        <time>2023-04-10T05:46:46Z</time>
      </trkpt>
      <trkpt lat="48.06265" lon="-2.96782">
        <ele>60.4</ele>
        <time>2023-04-10T05:46:47Z</time>
      </trkpt>
      <trkpt lat="48.06267" lon="-2.96791">
        <ele>60.4</ele>
        <time>2023-04-10T05:46:48Z</time>
      </trkpt>
      <trkpt lat="48.06268" lon="-2.96799">
        <ele>60.4</ele>
        <time>2023-04-10T05:46:49Z</time>
      </trkpt>
      <trkpt lat="48.06268" lon="-2.96807">
        <ele>60.4</ele>
        <time>2023-04-10T05:46:50Z</time>
      </trkpt>
      <trkpt lat="48.06268" lon="-2.96815">
        <ele>60.4</ele>
        <time>2023-04-10T05:46:51Z</time>
      </trkpt>
      <trkpt lat="48.06268" lon="-2.96824">
        <ele>60.4</ele>
        <time>2023-04-10T05:46:52Z</time>
      </trkpt>
      <trkpt lat="48.06269" lon="-2.96831">
        <ele>60.4</ele>
        <time>2023-04-10T05:46:53Z</time>
      </trkpt>
      <trkpt lat="48.0627" lon="-2.96839">
        <ele>60.4</ele>
        <time>2023-04-10T05:46:54Z</time>
      </trkpt>
      <trkpt lat="48.06272" lon="-2.96847">
        <ele>60.4</ele>
        <time>2023-04-10T05:46:55Z</time>
      </trkpt>
      <trkpt lat="48.06273" lon="-2.96854">
        <ele>60.4</ele>
        <time>2023-04-10T05:46:56Z</time>
      </trkpt>
      <trkpt lat="48.06274" lon="-2.96859">
        <ele>60</ele>
        <time>2023-04-10T05:46:57Z</time>
      </trkpt>
      <trkpt lat="48.06276" lon="-2.96872">
        <ele>59.8</ele>
        <time>2023-04-10T05:46:59Z</time>
      </trkpt>
      <trkpt lat="48.06277" lon="-2.96878">
        <ele>59.6</ele>
        <time>2023-04-10T05:47:00Z</time>
      </trkpt>
      <trkpt lat="48.06284" lon="-2.96914">
        <ele>59.4</ele>
        <time>2023-04-10T05:47:05Z</time>
      </trkpt>
      <trkpt lat="48.06285" lon="-2.96923">
        <ele>59.4</ele>
        <time>2023-04-10T05:47:06Z</time>
      </trkpt>
      <trkpt lat="48.06286" lon="-2.9693">
        <ele>59.4</ele>
        <time>2023-04-10T05:47:07Z</time>
      </trkpt>
      <trkpt lat="48.06287" lon="-2.96937">
        <ele>59.4</ele>
        <time>2023-04-10T05:47:08Z</time>
      </trkpt>
      <trkpt lat="48.06287" lon="-2.96941">
        <ele>59.4</ele>
        <time>2023-04-10T05:47:09Z</time>
      </trkpt>
      <trkpt lat="48.06288" lon="-2.96943">
        <ele>59.2</ele>
        <time>2023-04-10T05:47:10Z</time>
      </trkpt>
      <trkpt lat="48.06289" lon="-2.96946">
        <ele>59.2</ele>
        <time>2023-04-10T05:47:11Z</time>
      </trkpt>
      <trkpt lat="48.06289" lon="-2.96949">
        <ele>59.2</ele>
        <time>2023-04-10T05:47:12Z</time>
      </trkpt>
      <trkpt lat="48.0629" lon="-2.96951">
        <ele>59</ele>
        <time>2023-04-10T05:47:13Z</time>
      </trkpt>
      <trkpt lat="48.06293" lon="-2.96957">
        <ele>58.8</ele>
        <time>2023-04-10T05:47:15Z</time>
      </trkpt>
      <trkpt lat="48.06295" lon="-2.96957">
        <ele>58.6</ele>
        <time>2023-04-10T05:47:16Z</time>
      </trkpt>
      <trkpt lat="48.06305" lon="-2.96955">
        <ele>58.4</ele>
        <time>2023-04-10T05:47:19Z</time>
      </trkpt>
      <trkpt lat="48.06309" lon="-2.96953">
        <ele>58.4</ele>
        <time>2023-04-10T05:47:20Z</time>
      </trkpt>
      <trkpt lat="48.06312" lon="-2.96952">
        <ele>58.2</ele>
        <time>2023-04-10T05:47:21Z</time>
      </trkpt>
      <trkpt lat="48.06329" lon="-2.96944">
        <ele>58.2</ele>
        <time>2023-04-10T05:47:25Z</time>
      </trkpt>
      <trkpt lat="48.06344" lon="-2.9694">
        <ele>58.4</ele>
        <time>2023-04-10T05:47:28Z</time>
      </trkpt>
      <trkpt lat="48.06368" lon="-2.96932">
        <ele>58.6</ele>
        <time>2023-04-10T05:47:33Z</time>
      </trkpt>
      <trkpt lat="48.06373" lon="-2.9693">
        <ele>58.6</ele>
        <time>2023-04-10T05:47:34Z</time>
      </trkpt>
      <trkpt lat="48.06404" lon="-2.96919">
        <ele>58.8</ele>
        <time>2023-04-10T05:47:40Z</time>
      </trkpt>
      <trkpt lat="48.06409" lon="-2.96918">
        <ele>58.8</ele>
        <time>2023-04-10T05:47:41Z</time>
      </trkpt>
      <trkpt lat="48.06434" lon="-2.96911">
        <ele>58.8</ele>
        <time>2023-04-10T05:47:46Z</time>
      </trkpt>
      <trkpt lat="48.06453" lon="-2.96905">
        <ele>59</ele>
        <time>2023-04-10T05:47:50Z</time>
      </trkpt>
      <trkpt lat="48.06458" lon="-2.96902">
        <ele>59</ele>
        <time>2023-04-10T05:47:51Z</time>
      </trkpt>
      <trkpt lat="48.06468" lon="-2.96897">
        <ele>59</ele>
        <time>2023-04-10T05:47:53Z</time>
      </trkpt>
      <trkpt lat="48.06485" lon="-2.96892">
        <ele>59</ele>
        <time>2023-04-10T05:47:56Z</time>
      </trkpt>
      <trkpt lat="48.0649" lon="-2.9689">
        <ele>59</ele>
        <time>2023-04-10T05:47:57Z</time>
      </trkpt>
      <trkpt lat="48.06495" lon="-2.96889">
        <ele>59</ele>
        <time>2023-04-10T05:47:58Z</time>
      </trkpt>
      <trkpt lat="48.06501" lon="-2.96888">
        <ele>59</ele>
        <time>2023-04-10T05:47:59Z</time>
      </trkpt>
      <trkpt lat="48.06506" lon="-2.96886">
        <ele>59</ele>
        <time>2023-04-10T05:48:00Z</time>
      </trkpt>
      <trkpt lat="48.06536" lon="-2.96876">
        <ele>59</ele>
        <time>2023-04-10T05:48:05Z</time>
      </trkpt>
      <trkpt lat="48.06542" lon="-2.96875">
        <ele>59</ele>
        <time>2023-04-10T05:48:06Z</time>
      </trkpt>
      <trkpt lat="48.06547" lon="-2.96875">
        <ele>59</ele>
        <time>2023-04-10T05:48:07Z</time>
      </trkpt>
      <trkpt lat="48.06552" lon="-2.96876">
        <ele>59</ele>
        <time>2023-04-10T05:48:08Z</time>
      </trkpt>
      <trkpt lat="48.06552" lon="-2.96876">
        <ele>58.8</ele>
        <time>2023-04-10T05:48:09Z</time>
      </trkpt>
      <trkpt lat="48.06552" lon="-2.96876">
        <ele>58.8</ele>
        <time>2023-04-10T05:48:10Z</time>
      </trkpt>
      <trkpt lat="48.06552" lon="-2.96876">
        <ele>58.8</ele>
        <time>2023-04-10T05:48:11Z</time>
      </trkpt>
      <trkpt lat="48.06568" lon="-2.96877">
        <ele>58.6</ele>
        <time>2023-04-10T05:48:12Z</time>
      </trkpt>
      <trkpt lat="48.06573" lon="-2.96874">
        <ele>58.6</ele>
        <time>2023-04-10T05:48:13Z</time>
      </trkpt>
      <trkpt lat="48.06585" lon="-2.96866">
        <ele>58.6</ele>
        <time>2023-04-10T05:48:15Z</time>
      </trkpt>
      <trkpt lat="48.0659" lon="-2.96863">
        <ele>58.4</ele>
        <time>2023-04-10T05:48:16Z</time>
      </trkpt>
      <trkpt lat="48.06596" lon="-2.96861">
        <ele>58.4</ele>
        <time>2023-04-10T05:48:17Z</time>
      </trkpt>
      <trkpt lat="48.066" lon="-2.96858">
        <ele>58.4</ele>
        <time>2023-04-10T05:48:18Z</time>
      </trkpt>
      <trkpt lat="48.06606" lon="-2.96856">
        <ele>58.4</ele>
        <time>2023-04-10T05:48:19Z</time>
      </trkpt>
      <trkpt lat="48.06638" lon="-2.96843">
        <ele>58.4</ele>
        <time>2023-04-10T05:48:25Z</time>
      </trkpt>
      <trkpt lat="48.06643" lon="-2.96841">
        <ele>58.4</ele>
        <time>2023-04-10T05:48:26Z</time>
      </trkpt>
      <trkpt lat="48.06647" lon="-2.96841">
        <ele>58.4</ele>
        <time>2023-04-10T05:48:27Z</time>
      </trkpt>
      <trkpt lat="48.06651" lon="-2.96841">
        <ele>58.4</ele>
        <time>2023-04-10T05:48:28Z</time>
      </trkpt>
      <trkpt lat="48.06671" lon="-2.96846">
        <ele>58.4</ele>
        <time>2023-04-10T05:48:32Z</time>
      </trkpt>
      <trkpt lat="48.06683" lon="-2.96848">
        <ele>58.2</ele>
        <time>2023-04-10T05:48:34Z</time>
      </trkpt>
      <trkpt lat="48.067" lon="-2.96852">
        <ele>58.2</ele>
        <time>2023-04-10T05:48:37Z</time>
      </trkpt>
      <trkpt lat="48.06706" lon="-2.96853">
        <ele>58.2</ele>
        <time>2023-04-10T05:48:38Z</time>
      </trkpt>
      <trkpt lat="48.06722" lon="-2.96858">
        <ele>58.2</ele>
        <time>2023-04-10T05:48:41Z</time>
      </trkpt>
      <trkpt lat="48.06728" lon="-2.9686">
        <ele>58.2</ele>
        <time>2023-04-10T05:48:42Z</time>
      </trkpt>
      <trkpt lat="48.06734" lon="-2.96861">
        <ele>58.2</ele>
        <time>2023-04-10T05:48:43Z</time>
      </trkpt>
      <trkpt lat="48.06744" lon="-2.96863">
        <ele>58.2</ele>
        <time>2023-04-10T05:48:45Z</time>
      </trkpt>
      <trkpt lat="48.06749" lon="-2.96863">
        <ele>58.2</ele>
        <time>2023-04-10T05:48:46Z</time>
      </trkpt>
      <trkpt lat="48.06754" lon="-2.96862">
        <ele>58.2</ele>
        <time>2023-04-10T05:48:47Z</time>
      </trkpt>
      <trkpt lat="48.06759" lon="-2.96862">
        <ele>58.2</ele>
        <time>2023-04-10T05:48:48Z</time>
      </trkpt>
      <trkpt lat="48.06764" lon="-2.96861">
        <ele>58.2</ele>
        <time>2023-04-10T05:48:49Z</time>
      </trkpt>
      <trkpt lat="48.06768" lon="-2.96859">
        <ele>58.2</ele>
        <time>2023-04-10T05:48:50Z</time>
      </trkpt>
      <trkpt lat="48.06773" lon="-2.96858">
        <ele>58.2</ele>
        <time>2023-04-10T05:48:51Z</time>
      </trkpt>
      <trkpt lat="48.06777" lon="-2.96857">
        <ele>58.2</ele>
        <time>2023-04-10T05:48:52Z</time>
      </trkpt>
      <trkpt lat="48.0678" lon="-2.96855">
        <ele>58.2</ele>
        <time>2023-04-10T05:48:53Z</time>
      </trkpt>
      <trkpt lat="48.068" lon="-2.96843">
        <ele>58.4</ele>
        <time>2023-04-10T05:48:57Z</time>
      </trkpt>
      <trkpt lat="48.0681" lon="-2.96839">
        <ele>58.8</ele>
        <time>2023-04-10T05:48:59Z</time>
      </trkpt>
      <trkpt lat="48.06835" lon="-2.96824">
        <ele>59.2</ele>
        <time>2023-04-10T05:49:04Z</time>
      </trkpt>
      <trkpt lat="48.0684" lon="-2.96821">
        <ele>59.4</ele>
        <time>2023-04-10T05:49:05Z</time>
      </trkpt>
      <trkpt lat="48.06849" lon="-2.96814">
        <ele>59.6</ele>
        <time>2023-04-10T05:49:07Z</time>
      </trkpt>
      <trkpt lat="48.06853" lon="-2.9681">
        <ele>59.6</ele>
        <time>2023-04-10T05:49:08Z</time>
      </trkpt>
      <trkpt lat="48.06857" lon="-2.96805">
        <ele>59.6</ele>
        <time>2023-04-10T05:49:09Z</time>
      </trkpt>
      <trkpt lat="48.06861" lon="-2.96801">
        <ele>59.6</ele>
        <time>2023-04-10T05:49:10Z</time>
      </trkpt>
      <trkpt lat="48.06864" lon="-2.96797">
        <ele>59.6</ele>
        <time>2023-04-10T05:49:11Z</time>
      </trkpt>
      <trkpt lat="48.06867" lon="-2.96792">
        <ele>59.6</ele>
        <time>2023-04-10T05:49:12Z</time>
      </trkpt>
      <trkpt lat="48.06869" lon="-2.96788">
        <ele>59.8</ele>
        <time>2023-04-10T05:49:13Z</time>
      </trkpt>
      <trkpt lat="48.06871" lon="-2.96783">
        <ele>59.8</ele>
        <time>2023-04-10T05:49:14Z</time>
      </trkpt>
      <trkpt lat="48.06874" lon="-2.96772">
        <ele>60</ele>
        <time>2023-04-10T05:49:16Z</time>
      </trkpt>
      <trkpt lat="48.06878" lon="-2.96761">
        <ele>60.4</ele>
        <time>2023-04-10T05:49:18Z</time>
      </trkpt>
      <trkpt lat="48.06881" lon="-2.96755">
        <ele>60.6</ele>
        <time>2023-04-10T05:49:19Z</time>
      </trkpt>
      <trkpt lat="48.06899" lon="-2.96723">
        <ele>61.2</ele>
        <time>2023-04-10T05:49:24Z</time>
      </trkpt>
      <trkpt lat="48.06915" lon="-2.96694">
        <ele>61.2</ele>
        <time>2023-04-10T05:49:28Z</time>
      </trkpt>
      <trkpt lat="48.0692" lon="-2.96687">
        <ele>61.2</ele>
        <time>2023-04-10T05:49:29Z</time>
      </trkpt>
      <trkpt lat="48.06925" lon="-2.96681">
        <ele>61.2</ele>
        <time>2023-04-10T05:49:30Z</time>
      </trkpt>
      <trkpt lat="48.06929" lon="-2.96676">
        <ele>61.2</ele>
        <time>2023-04-10T05:49:31Z</time>
      </trkpt>
      <trkpt lat="48.06934" lon="-2.96671">
        <ele>61.2</ele>
        <time>2023-04-10T05:49:32Z</time>
      </trkpt>
      <trkpt lat="48.06939" lon="-2.96666">
        <ele>61.2</ele>
        <time>2023-04-10T05:49:33Z</time>
      </trkpt>
      <trkpt lat="48.06945" lon="-2.96662">
        <ele>61.2</ele>
        <time>2023-04-10T05:49:34Z</time>
      </trkpt>
      <trkpt lat="48.06961" lon="-2.96649">
        <ele>60.4</ele>
        <time>2023-04-10T05:49:37Z</time>
      </trkpt>
      <trkpt lat="48.06966" lon="-2.96645">
        <ele>60.2</ele>
        <time>2023-04-10T05:49:38Z</time>
      </trkpt>
      <trkpt lat="48.06971" lon="-2.96642">
        <ele>60</ele>
        <time>2023-04-10T05:49:39Z</time>
      </trkpt>
      <trkpt lat="48.06976" lon="-2.96638">
        <ele>60</ele>
        <time>2023-04-10T05:49:40Z</time>
      </trkpt>
      <trkpt lat="48.06981" lon="-2.96635">
        <ele>60</ele>
        <time>2023-04-10T05:49:41Z</time>
      </trkpt>
      <trkpt lat="48.06986" lon="-2.96632">
        <ele>59.8</ele>
        <time>2023-04-10T05:49:42Z</time>
      </trkpt>
      <trkpt lat="48.06991" lon="-2.96628">
        <ele>59.8</ele>
        <time>2023-04-10T05:49:43Z</time>
      </trkpt>
      <trkpt lat="48.06995" lon="-2.96626">
        <ele>59.8</ele>
        <time>2023-04-10T05:49:44Z</time>
      </trkpt>
      <trkpt lat="48.06999" lon="-2.96623">
        <ele>59.8</ele>
        <time>2023-04-10T05:49:45Z</time>
      </trkpt>
      <trkpt lat="48.07004" lon="-2.9662">
        <ele>59.8</ele>
        <time>2023-04-10T05:49:46Z</time>
      </trkpt>
      <trkpt lat="48.07008" lon="-2.96618">
        <ele>59.8</ele>
        <time>2023-04-10T05:49:47Z</time>
      </trkpt>
      <trkpt lat="48.07012" lon="-2.96616">
        <ele>59.8</ele>
        <time>2023-04-10T05:49:48Z</time>
      </trkpt>
      <trkpt lat="48.07016" lon="-2.96616">
        <ele>59.8</ele>
        <time>2023-04-10T05:49:49Z</time>
      </trkpt>
      <trkpt lat="48.07021" lon="-2.96615">
        <ele>59.8</ele>
        <time>2023-04-10T05:49:50Z</time>
      </trkpt>
      <trkpt lat="48.07024" lon="-2.96618">
        <ele>59.8</ele>
        <time>2023-04-10T05:49:51Z</time>
      </trkpt>
      <trkpt lat="48.07028" lon="-2.96621">
        <ele>60</ele>
        <time>2023-04-10T05:49:52Z</time>
      </trkpt>
      <trkpt lat="48.0703" lon="-2.96627">
        <ele>60</ele>
        <time>2023-04-10T05:49:53Z</time>
      </trkpt>
      <trkpt lat="48.07032" lon="-2.96632">
        <ele>60</ele>
        <time>2023-04-10T05:49:54Z</time>
      </trkpt>
      <trkpt lat="48.07034" lon="-2.96637">
        <ele>60</ele>
        <time>2023-04-10T05:49:55Z</time>
      </trkpt>
      <trkpt lat="48.07041" lon="-2.96644">
        <ele>60</ele>
        <time>2023-04-10T05:49:57Z</time>
      </trkpt>
      <trkpt lat="48.07045" lon="-2.96643">
        <ele>60.2</ele>
        <time>2023-04-10T05:49:58Z</time>
      </trkpt>
      <trkpt lat="48.0705" lon="-2.9664">
        <ele>60.4</ele>
        <time>2023-04-10T05:49:59Z</time>
      </trkpt>
      <trkpt lat="48.0706" lon="-2.96632">
        <ele>60.6</ele>
        <time>2023-04-10T05:50:01Z</time>
      </trkpt>
      <trkpt lat="48.07065" lon="-2.96629">
        <ele>60.8</ele>
        <time>2023-04-10T05:50:02Z</time>
      </trkpt>
      <trkpt lat="48.07074" lon="-2.96621">
        <ele>60.8</ele>
        <time>2023-04-10T05:50:04Z</time>
      </trkpt>
      <trkpt lat="48.07084" lon="-2.96615">
        <ele>61</ele>
        <time>2023-04-10T05:50:06Z</time>
      </trkpt>
      <trkpt lat="48.07088" lon="-2.96612">
        <ele>61</ele>
        <time>2023-04-10T05:50:07Z</time>
      </trkpt>
      <trkpt lat="48.07098" lon="-2.96605">
        <ele>61</ele>
        <time>2023-04-10T05:50:09Z</time>
      </trkpt>
      <trkpt lat="48.07137" lon="-2.96586">
        <ele>61</ele>
        <time>2023-04-10T05:50:16Z</time>
      </trkpt>
      <trkpt lat="48.07142" lon="-2.96584">
        <ele>61</ele>
        <time>2023-04-10T05:50:17Z</time>
      </trkpt>
      <trkpt lat="48.07153" lon="-2.96586">
        <ele>61</ele>
        <time>2023-04-10T05:50:19Z</time>
      </trkpt>
      <trkpt lat="48.07158" lon="-2.96588">
        <ele>61</ele>
        <time>2023-04-10T05:50:20Z</time>
      </trkpt>
      <trkpt lat="48.07178" lon="-2.96599">
        <ele>61</ele>
        <time>2023-04-10T05:50:24Z</time>
      </trkpt>
      <trkpt lat="48.07187" lon="-2.96607">
        <ele>61</ele>
        <time>2023-04-10T05:50:26Z</time>
      </trkpt>
      <trkpt lat="48.07196" lon="-2.96615">
        <ele>61</ele>
        <time>2023-04-10T05:50:28Z</time>
      </trkpt>
      <trkpt lat="48.07199" lon="-2.9662">
        <ele>61</ele>
        <time>2023-04-10T05:50:29Z</time>
      </trkpt>
      <trkpt lat="48.07204" lon="-2.96627">
        <ele>61</ele>
        <time>2023-04-10T05:50:30Z</time>
      </trkpt>
      <trkpt lat="48.07206" lon="-2.96633">
        <ele>61</ele>
        <time>2023-04-10T05:50:31Z</time>
      </trkpt>
      <trkpt lat="48.07209" lon="-2.96639">
        <ele>61</ele>
        <time>2023-04-10T05:50:32Z</time>
      </trkpt>
      <trkpt lat="48.07211" lon="-2.96645">
        <ele>61.2</ele>
        <time>2023-04-10T05:50:33Z</time>
      </trkpt>
      <trkpt lat="48.07212" lon="-2.96651">
        <ele>61.2</ele>
        <time>2023-04-10T05:50:34Z</time>
      </trkpt>
      <trkpt lat="48.07215" lon="-2.96657">
        <ele>61.2</ele>
        <time>2023-04-10T05:50:35Z</time>
      </trkpt>
      <trkpt lat="48.07217" lon="-2.96663">
        <ele>61.2</ele>
        <time>2023-04-10T05:50:36Z</time>
      </trkpt>
      <trkpt lat="48.07219" lon="-2.96669">
        <ele>61.4</ele>
        <time>2023-04-10T05:50:37Z</time>
      </trkpt>
      <trkpt lat="48.07221" lon="-2.96675">
        <ele>61.4</ele>
        <time>2023-04-10T05:50:38Z</time>
      </trkpt>
      <trkpt lat="48.07223" lon="-2.9668">
        <ele>61.6</ele>
        <time>2023-04-10T05:50:39Z</time>
      </trkpt>
      <trkpt lat="48.07225" lon="-2.96685">
        <ele>61.8</ele>
        <time>2023-04-10T05:50:40Z</time>
      </trkpt>
      <trkpt lat="48.07243" lon="-2.96733">
        <ele>62.6</ele>
        <time>2023-04-10T05:50:47Z</time>
      </trkpt>
      <trkpt lat="48.07255" lon="-2.96764">
        <ele>62.8</ele>
        <time>2023-04-10T05:50:51Z</time>
      </trkpt>
      <trkpt lat="48.07256" lon="-2.96771">
        <ele>62.8</ele>
        <time>2023-04-10T05:50:52Z</time>
      </trkpt>
      <trkpt lat="48.07255" lon="-2.96779">
        <ele>62.8</ele>
        <time>2023-04-10T05:50:53Z</time>
      </trkpt>
      <trkpt lat="48.07253" lon="-2.96787">
        <ele>62.8</ele>
        <time>2023-04-10T05:50:54Z</time>
      </trkpt>
      <trkpt lat="48.07252" lon="-2.96795">
        <ele>62.8</ele>
        <time>2023-04-10T05:50:55Z</time>
      </trkpt>
      <trkpt lat="48.07251" lon="-2.96802">
        <ele>62.8</ele>
        <time>2023-04-10T05:50:56Z</time>
      </trkpt>
      <trkpt lat="48.07249" lon="-2.96808">
        <ele>62.6</ele>
        <time>2023-04-10T05:50:57Z</time>
      </trkpt>
      <trkpt lat="48.07248" lon="-2.96815">
        <ele>62.2</ele>
        <time>2023-04-10T05:50:58Z</time>
      </trkpt>
      <trkpt lat="48.07246" lon="-2.96821">
        <ele>62</ele>
        <time>2023-04-10T05:50:59Z</time>
      </trkpt>
      <trkpt lat="48.07245" lon="-2.96826">
        <ele>61.8</ele>
        <time>2023-04-10T05:51:00Z</time>
      </trkpt>
      <trkpt lat="48.07244" lon="-2.96832">
        <ele>61.8</ele>
        <time>2023-04-10T05:51:01Z</time>
      </trkpt>
      <trkpt lat="48.07243" lon="-2.96837">
        <ele>61.6</ele>
        <time>2023-04-10T05:51:02Z</time>
      </trkpt>
      <trkpt lat="48.07241" lon="-2.96843">
        <ele>61.6</ele>
        <time>2023-04-10T05:51:03Z</time>
      </trkpt>
      <trkpt lat="48.0724" lon="-2.96848">
        <ele>61.6</ele>
        <time>2023-04-10T05:51:04Z</time>
      </trkpt>
      <trkpt lat="48.07239" lon="-2.96854">
        <ele>61.6</ele>
        <time>2023-04-10T05:51:05Z</time>
      </trkpt>
      <trkpt lat="48.07237" lon="-2.9686">
        <ele>61.4</ele>
        <time>2023-04-10T05:51:06Z</time>
      </trkpt>
      <trkpt lat="48.0723" lon="-2.96893">
        <ele>61.4</ele>
        <time>2023-04-10T05:51:11Z</time>
      </trkpt>
      <trkpt lat="48.07226" lon="-2.96915">
        <ele>61.4</ele>
        <time>2023-04-10T05:51:14Z</time>
      </trkpt>
      <trkpt lat="48.07217" lon="-2.96959">
        <ele>61.4</ele>
        <time>2023-04-10T05:51:20Z</time>
      </trkpt>
      <trkpt lat="48.07216" lon="-2.96966">
        <ele>61.4</ele>
        <time>2023-04-10T05:51:21Z</time>
      </trkpt>
      <trkpt lat="48.07217" lon="-2.96973">
        <ele>61.4</ele>
        <time>2023-04-10T05:51:22Z</time>
      </trkpt>
      <trkpt lat="48.07218" lon="-2.9698">
        <ele>61.4</ele>
        <time>2023-04-10T05:51:23Z</time>
      </trkpt>
      <trkpt lat="48.07221" lon="-2.96987">
        <ele>61.4</ele>
        <time>2023-04-10T05:51:24Z</time>
      </trkpt>
      <trkpt lat="48.07229" lon="-2.96996">
        <ele>61.4</ele>
        <time>2023-04-10T05:51:26Z</time>
      </trkpt>
      <trkpt lat="48.07233" lon="-2.97001">
        <ele>61.4</ele>
        <time>2023-04-10T05:51:27Z</time>
      </trkpt>
      <trkpt lat="48.07246" lon="-2.97015">
        <ele>61.6</ele>
        <time>2023-04-10T05:51:30Z</time>
      </trkpt>
      <trkpt lat="48.07264" lon="-2.97035">
        <ele>61.8</ele>
        <time>2023-04-10T05:51:34Z</time>
      </trkpt>
      <trkpt lat="48.07282" lon="-2.97055">
        <ele>61.8</ele>
        <time>2023-04-10T05:51:38Z</time>
      </trkpt>
      <trkpt lat="48.07287" lon="-2.97061">
        <ele>61.8</ele>
        <time>2023-04-10T05:51:39Z</time>
      </trkpt>
      <trkpt lat="48.07314" lon="-2.97093">
        <ele>62</ele>
        <time>2023-04-10T05:51:45Z</time>
      </trkpt>
      <trkpt lat="48.07322" lon="-2.97106">
        <ele>62</ele>
        <time>2023-04-10T05:51:47Z</time>
      </trkpt>
      <trkpt lat="48.07341" lon="-2.97141">
        <ele>62</ele>
        <time>2023-04-10T05:51:52Z</time>
      </trkpt>
      <trkpt lat="48.07345" lon="-2.97148">
        <ele>62</ele>
        <time>2023-04-10T05:51:53Z</time>
      </trkpt>
      <trkpt lat="48.07348" lon="-2.97155">
        <ele>62</ele>
        <time>2023-04-10T05:51:54Z</time>
      </trkpt>
      <trkpt lat="48.07351" lon="-2.97162">
        <ele>61.8</ele>
        <time>2023-04-10T05:51:55Z</time>
      </trkpt>
      <trkpt lat="48.07355" lon="-2.97169">
        <ele>61.8</ele>
        <time>2023-04-10T05:51:56Z</time>
      </trkpt>
      <trkpt lat="48.07367" lon="-2.97199">
        <ele>61.8</ele>
        <time>2023-04-10T05:52:00Z</time>
      </trkpt>
      <trkpt lat="48.07376" lon="-2.97221">
        <ele>61.8</ele>
        <time>2023-04-10T05:52:03Z</time>
      </trkpt>
      <trkpt lat="48.07385" lon="-2.97245">
        <ele>61.6</ele>
        <time>2023-04-10T05:52:06Z</time>
      </trkpt>
      <trkpt lat="48.07394" lon="-2.97268">
        <ele>61.4</ele>
        <time>2023-04-10T05:52:09Z</time>
      </trkpt>
      <trkpt lat="48.07396" lon="-2.97276">
        <ele>61.4</ele>
        <time>2023-04-10T05:52:10Z</time>
      </trkpt>
      <trkpt lat="48.07408" lon="-2.97307">
        <ele>61.4</ele>
        <time>2023-04-10T05:52:14Z</time>
      </trkpt>
      <trkpt lat="48.07411" lon="-2.97315">
        <ele>61.2</ele>
        <time>2023-04-10T05:52:15Z</time>
      </trkpt>
      <trkpt lat="48.07432" lon="-2.97355">
        <ele>61.2</ele>
        <time>2023-04-10T05:52:21Z</time>
      </trkpt>
      <trkpt lat="48.07436" lon="-2.97362">
        <ele>61.2</ele>
        <time>2023-04-10T05:52:22Z</time>
      </trkpt>
      <trkpt lat="48.07451" lon="-2.974">
        <ele>61.2</ele>
        <time>2023-04-10T05:52:27Z</time>
      </trkpt>
      <trkpt lat="48.07454" lon="-2.97408">
        <ele>61.2</ele>
        <time>2023-04-10T05:52:28Z</time>
      </trkpt>
      <trkpt lat="48.07474" lon="-2.97464">
        <ele>61.4</ele>
        <time>2023-04-10T05:52:35Z</time>
      </trkpt>
      <trkpt lat="48.07478" lon="-2.97482">
        <ele>61.4</ele>
        <time>2023-04-10T05:52:37Z</time>
      </trkpt>
      <trkpt lat="48.0748" lon="-2.975">
        <ele>61.6</ele>
        <time>2023-04-10T05:52:39Z</time>
      </trkpt>
      <trkpt lat="48.07481" lon="-2.97508">
        <ele>61.6</ele>
        <time>2023-04-10T05:52:40Z</time>
      </trkpt>
      <trkpt lat="48.07481" lon="-2.97517">
        <ele>61.8</ele>
        <time>2023-04-10T05:52:41Z</time>
      </trkpt>
      <trkpt lat="48.07482" lon="-2.97526">
        <ele>61.8</ele>
        <time>2023-04-10T05:52:42Z</time>
      </trkpt>
      <trkpt lat="48.07483" lon="-2.97561">
        <ele>62</ele>
        <time>2023-04-10T05:52:46Z</time>
      </trkpt>
      <trkpt lat="48.07483" lon="-2.97641">
        <ele>62.2</ele>
        <time>2023-04-10T05:52:55Z</time>
      </trkpt>
      <trkpt lat="48.07482" lon="-2.97659">
        <ele>62.2</ele>
        <time>2023-04-10T05:52:57Z</time>
      </trkpt>
      <trkpt lat="48.07482" lon="-2.97678">
        <ele>62.2</ele>
        <time>2023-04-10T05:52:59Z</time>
      </trkpt>
      <trkpt lat="48.07481" lon="-2.97696">
        <ele>62.2</ele>
        <time>2023-04-10T05:53:01Z</time>
      </trkpt>
      <trkpt lat="48.0748" lon="-2.97705">
        <ele>62.2</ele>
        <time>2023-04-10T05:53:02Z</time>
      </trkpt>
      <trkpt lat="48.07481" lon="-2.97713">
        <ele>62.2</ele>
        <time>2023-04-10T05:53:03Z</time>
      </trkpt>
      <trkpt lat="48.07481" lon="-2.97721">
        <ele>62.2</ele>
        <time>2023-04-10T05:53:04Z</time>
      </trkpt>
      <trkpt lat="48.07481" lon="-2.97729">
        <ele>62</ele>
        <time>2023-04-10T05:53:05Z</time>
      </trkpt>
      <trkpt lat="48.07481" lon="-2.97736">
        <ele>62</ele>
        <time>2023-04-10T05:53:06Z</time>
      </trkpt>
      <trkpt lat="48.07481" lon="-2.97744">
        <ele>62</ele>
        <time>2023-04-10T05:53:07Z</time>
      </trkpt>
      <trkpt lat="48.07481" lon="-2.9775">
        <ele>62</ele>
        <time>2023-04-10T05:53:08Z</time>
      </trkpt>
      <trkpt lat="48.07481" lon="-2.97756">
        <ele>62</ele>
        <time>2023-04-10T05:53:09Z</time>
      </trkpt>
      <trkpt lat="48.0748" lon="-2.9776">
        <ele>62</ele>
        <time>2023-04-10T05:53:10Z</time>
      </trkpt>
      <trkpt lat="48.07479" lon="-2.97762">
        <ele>62</ele>
        <time>2023-04-10T05:53:11Z</time>
      </trkpt>
      <trkpt lat="48.07476" lon="-2.97763">
        <ele>61.8</ele>
        <time>2023-04-10T05:53:12Z</time>
      </trkpt>
      <trkpt lat="48.07474" lon="-2.97763">
        <ele>61.8</ele>
        <time>2023-04-10T05:53:13Z</time>
      </trkpt>
      <trkpt lat="48.07471" lon="-2.97763">
        <ele>61.8</ele>
        <time>2023-04-10T05:53:14Z</time>
      </trkpt>
      <trkpt lat="48.07469" lon="-2.97763">
        <ele>61.8</ele>
        <time>2023-04-10T05:53:15Z</time>
      </trkpt>
      <trkpt lat="48.07467" lon="-2.97764">
        <ele>61.8</ele>
        <time>2023-04-10T05:53:16Z</time>
      </trkpt>
      <trkpt lat="48.07462" lon="-2.97769">
        <ele>61.8</ele>
        <time>2023-04-10T05:53:18Z</time>
      </trkpt>
      <trkpt lat="48.07461" lon="-2.97773">
        <ele>61.8</ele>
        <time>2023-04-10T05:53:19Z</time>
      </trkpt>
      <trkpt lat="48.07459" lon="-2.97778">
        <ele>61.8</ele>
        <time>2023-04-10T05:53:20Z</time>
      </trkpt>
      <trkpt lat="48.07457" lon="-2.97783">
        <ele>61.8</ele>
        <time>2023-04-10T05:53:21Z</time>
      </trkpt>
      <trkpt lat="48.07448" lon="-2.97807">
        <ele>61.8</ele>
        <time>2023-04-10T05:53:25Z</time>
      </trkpt>
      <trkpt lat="48.07445" lon="-2.97813">
        <ele>61.8</ele>
        <time>2023-04-10T05:53:26Z</time>
      </trkpt>
      <trkpt lat="48.07443" lon="-2.97819">
        <ele>61.8</ele>
        <time>2023-04-10T05:53:27Z</time>
      </trkpt>
      <trkpt lat="48.07433" lon="-2.97833">
        <ele>62</ele>
        <time>2023-04-10T05:53:30Z</time>
      </trkpt>
      <trkpt lat="48.07426" lon="-2.97843">
        <ele>62.2</ele>
        <time>2023-04-10T05:53:32Z</time>
      </trkpt>
      <trkpt lat="48.07423" lon="-2.97848">
        <ele>62.4</ele>
        <time>2023-04-10T05:53:33Z</time>
      </trkpt>
      <trkpt lat="48.0742" lon="-2.97853">
        <ele>62.4</ele>
        <time>2023-04-10T05:53:34Z</time>
      </trkpt>
      <trkpt lat="48.07417" lon="-2.97857">
        <ele>62.6</ele>
        <time>2023-04-10T05:53:35Z</time>
      </trkpt>
      <trkpt lat="48.07415" lon="-2.97862">
        <ele>62.8</ele>
        <time>2023-04-10T05:53:36Z</time>
      </trkpt>
      <trkpt lat="48.07413" lon="-2.97867">
        <ele>63</ele>
        <time>2023-04-10T05:53:37Z</time>
      </trkpt>
      <trkpt lat="48.07412" lon="-2.97872">
        <ele>63.2</ele>
        <time>2023-04-10T05:53:38Z</time>
      </trkpt>
      <trkpt lat="48.07411" lon="-2.97877">
        <ele>63.2</ele>
        <time>2023-04-10T05:53:39Z</time>
      </trkpt>
      <trkpt lat="48.0741" lon="-2.97882">
        <ele>63.2</ele>
        <time>2023-04-10T05:53:40Z</time>
      </trkpt>
      <trkpt lat="48.07409" lon="-2.97888">
        <ele>63.4</ele>
        <time>2023-04-10T05:53:41Z</time>
      </trkpt>
      <trkpt lat="48.07408" lon="-2.97893">
        <ele>63.6</ele>
        <time>2023-04-10T05:53:42Z</time>
      </trkpt>
      <trkpt lat="48.07406" lon="-2.97912">
        <ele>64</ele>
        <time>2023-04-10T05:53:45Z</time>
      </trkpt>
      <trkpt lat="48.07404" lon="-2.97923">
        <ele>64.4</ele>
        <time>2023-04-10T05:53:47Z</time>
      </trkpt>
      <trkpt lat="48.07402" lon="-2.97927">
        <ele>64.6</ele>
        <time>2023-04-10T05:53:48Z</time>
      </trkpt>
      <trkpt lat="48.074" lon="-2.97936">
        <ele>65</ele>
        <time>2023-04-10T05:53:50Z</time>
      </trkpt>
      <trkpt lat="48.07397" lon="-2.9794">
        <ele>65.2</ele>
        <time>2023-04-10T05:53:51Z</time>
      </trkpt>
      <trkpt lat="48.07394" lon="-2.97946">
        <ele>65.4</ele>
        <time>2023-04-10T05:53:52Z</time>
      </trkpt>
      <trkpt lat="48.07391" lon="-2.97951">
        <ele>65.6</ele>
        <time>2023-04-10T05:53:53Z</time>
      </trkpt>
      <trkpt lat="48.07388" lon="-2.97955">
        <ele>65.8</ele>
        <time>2023-04-10T05:53:54Z</time>
      </trkpt>
      <trkpt lat="48.07385" lon="-2.9796">
        <ele>65.8</ele>
        <time>2023-04-10T05:53:55Z</time>
      </trkpt>
      <trkpt lat="48.07383" lon="-2.97965">
        <ele>66</ele>
        <time>2023-04-10T05:53:56Z</time>
      </trkpt>
      <trkpt lat="48.07381" lon="-2.9797">
        <ele>66.2</ele>
        <time>2023-04-10T05:53:57Z</time>
      </trkpt>
      <trkpt lat="48.0738" lon="-2.97974">
        <ele>66.4</ele>
        <time>2023-04-10T05:53:58Z</time>
      </trkpt>
      <trkpt lat="48.07379" lon="-2.97979">
        <ele>66.6</ele>
        <time>2023-04-10T05:53:59Z</time>
      </trkpt>
      <trkpt lat="48.07379" lon="-2.97985">
        <ele>67</ele>
        <time>2023-04-10T05:54:00Z</time>
      </trkpt>
      <trkpt lat="48.0738" lon="-2.97991">
        <ele>67</ele>
        <time>2023-04-10T05:54:01Z</time>
      </trkpt>
      <trkpt lat="48.07382" lon="-2.97997">
        <ele>67.2</ele>
        <time>2023-04-10T05:54:02Z</time>
      </trkpt>
      <trkpt lat="48.07385" lon="-2.98003">
        <ele>67.4</ele>
        <time>2023-04-10T05:54:03Z</time>
      </trkpt>
      <trkpt lat="48.07388" lon="-2.98011">
        <ele>67.4</ele>
        <time>2023-04-10T05:54:04Z</time>
      </trkpt>
      <trkpt lat="48.07391" lon="-2.98018">
        <ele>67.6</ele>
        <time>2023-04-10T05:54:05Z</time>
      </trkpt>
      <trkpt lat="48.07395" lon="-2.98026">
        <ele>67.6</ele>
        <time>2023-04-10T05:54:06Z</time>
      </trkpt>
      <trkpt lat="48.07398" lon="-2.98034">
        <ele>67.6</ele>
        <time>2023-04-10T05:54:07Z</time>
      </trkpt>
      <trkpt lat="48.07401" lon="-2.98042">
        <ele>67.8</ele>
        <time>2023-04-10T05:54:08Z</time>
      </trkpt>
      <trkpt lat="48.07405" lon="-2.9805">
        <ele>67.8</ele>
        <time>2023-04-10T05:54:09Z</time>
      </trkpt>
      <trkpt lat="48.07408" lon="-2.98059">
        <ele>67.8</ele>
        <time>2023-04-10T05:54:10Z</time>
      </trkpt>
      <trkpt lat="48.07411" lon="-2.98066">
        <ele>67.8</ele>
        <time>2023-04-10T05:54:11Z</time>
      </trkpt>
      <trkpt lat="48.07416" lon="-2.98076">
        <ele>67.8</ele>
        <time>2023-04-10T05:54:12Z</time>
      </trkpt>
      <trkpt lat="48.0742" lon="-2.98085">
        <ele>67.8</ele>
        <time>2023-04-10T05:54:13Z</time>
      </trkpt>
      <trkpt lat="48.07423" lon="-2.98093">
        <ele>67.6</ele>
        <time>2023-04-10T05:54:14Z</time>
      </trkpt>
      <trkpt lat="48.07428" lon="-2.98104">
        <ele>67.6</ele>
        <time>2023-04-10T05:54:15Z</time>
      </trkpt>
      <trkpt lat="48.07431" lon="-2.98114">
        <ele>67.6</ele>
        <time>2023-04-10T05:54:16Z</time>
      </trkpt>
      <trkpt lat="48.07436" lon="-2.98123">
        <ele>67.6</ele>
        <time>2023-04-10T05:54:17Z</time>
      </trkpt>
      <trkpt lat="48.0744" lon="-2.98132">
        <ele>67.4</ele>
        <time>2023-04-10T05:54:18Z</time>
      </trkpt>
      <trkpt lat="48.07444" lon="-2.98142">
        <ele>67.2</ele>
        <time>2023-04-10T05:54:19Z</time>
      </trkpt>
      <trkpt lat="48.0746" lon="-2.98178">
        <ele>66.6</ele>
        <time>2023-04-10T05:54:23Z</time>
      </trkpt>
      <trkpt lat="48.07464" lon="-2.98187">
        <ele>66.6</ele>
        <time>2023-04-10T05:54:24Z</time>
      </trkpt>
      <trkpt lat="48.07467" lon="-2.98196">
        <ele>66.4</ele>
        <time>2023-04-10T05:54:25Z</time>
      </trkpt>
      <trkpt lat="48.07471" lon="-2.98205">
        <ele>66.2</ele>
        <time>2023-04-10T05:54:26Z</time>
      </trkpt>
      <trkpt lat="48.07475" lon="-2.98214">
        <ele>66</ele>
        <time>2023-04-10T05:54:27Z</time>
      </trkpt>
      <trkpt lat="48.07478" lon="-2.98223">
        <ele>65.8</ele>
        <time>2023-04-10T05:54:28Z</time>
      </trkpt>
      <trkpt lat="48.07488" lon="-2.98249">
        <ele>65.2</ele>
        <time>2023-04-10T05:54:31Z</time>
      </trkpt>
      <trkpt lat="48.07491" lon="-2.98257">
        <ele>65</ele>
        <time>2023-04-10T05:54:32Z</time>
      </trkpt>
      <trkpt lat="48.07504" lon="-2.98288">
        <ele>64.2</ele>
        <time>2023-04-10T05:54:36Z</time>
      </trkpt>
      <trkpt lat="48.07507" lon="-2.98295">
        <ele>64.2</ele>
        <time>2023-04-10T05:54:37Z</time>
      </trkpt>
      <trkpt lat="48.07511" lon="-2.98303">
        <ele>64.2</ele>
        <time>2023-04-10T05:54:38Z</time>
      </trkpt>
      <trkpt lat="48.07515" lon="-2.9831">
        <ele>64</ele>
        <time>2023-04-10T05:54:39Z</time>
      </trkpt>
      <trkpt lat="48.0752" lon="-2.98319">
        <ele>64</ele>
        <time>2023-04-10T05:54:40Z</time>
      </trkpt>
      <trkpt lat="48.07525" lon="-2.98326">
        <ele>64</ele>
        <time>2023-04-10T05:54:41Z</time>
      </trkpt>
      <trkpt lat="48.07529" lon="-2.98333">
        <ele>64</ele>
        <time>2023-04-10T05:54:42Z</time>
      </trkpt>
      <trkpt lat="48.07548" lon="-2.98373">
        <ele>64</ele>
        <time>2023-04-10T05:54:47Z</time>
      </trkpt>
      <trkpt lat="48.07557" lon="-2.98391">
        <ele>64</ele>
        <time>2023-04-10T05:54:49Z</time>
      </trkpt>
      <trkpt lat="48.07575" lon="-2.98419">
        <ele>64.2</ele>
        <time>2023-04-10T05:54:53Z</time>
      </trkpt>
      <trkpt lat="48.0761" lon="-2.98467">
        <ele>64.4</ele>
        <time>2023-04-10T05:55:00Z</time>
      </trkpt>
      <trkpt lat="48.07615" lon="-2.98474">
        <ele>64.4</ele>
        <time>2023-04-10T05:55:01Z</time>
      </trkpt>
      <trkpt lat="48.0762" lon="-2.98481">
        <ele>64.4</ele>
        <time>2023-04-10T05:55:02Z</time>
      </trkpt>
      <trkpt lat="48.07625" lon="-2.98487">
        <ele>64.4</ele>
        <time>2023-04-10T05:55:03Z</time>
      </trkpt>
      <trkpt lat="48.07629" lon="-2.98495">
        <ele>64.4</ele>
        <time>2023-04-10T05:55:04Z</time>
      </trkpt>
      <trkpt lat="48.07633" lon="-2.98502">
        <ele>64.2</ele>
        <time>2023-04-10T05:55:05Z</time>
      </trkpt>
      <trkpt lat="48.07637" lon="-2.98508">
        <ele>64.2</ele>
        <time>2023-04-10T05:55:06Z</time>
      </trkpt>
      <trkpt lat="48.07646" lon="-2.98522">
        <ele>64.2</ele>
        <time>2023-04-10T05:55:08Z</time>
      </trkpt>
      <trkpt lat="48.07651" lon="-2.98531">
        <ele>64.2</ele>
        <time>2023-04-10T05:55:09Z</time>
      </trkpt>
      <trkpt lat="48.07655" lon="-2.98537">
        <ele>64.2</ele>
        <time>2023-04-10T05:55:10Z</time>
      </trkpt>
      <trkpt lat="48.07682" lon="-2.98576">
        <ele>64.2</ele>
        <time>2023-04-10T05:55:16Z</time>
      </trkpt>
      <trkpt lat="48.07687" lon="-2.98585">
        <ele>64.2</ele>
        <time>2023-04-10T05:55:17Z</time>
      </trkpt>
      <trkpt lat="48.07691" lon="-2.98592">
        <ele>64.2</ele>
        <time>2023-04-10T05:55:18Z</time>
      </trkpt>
      <trkpt lat="48.07694" lon="-2.98598">
        <ele>64.2</ele>
        <time>2023-04-10T05:55:19Z</time>
      </trkpt>
      <trkpt lat="48.07698" lon="-2.98605">
        <ele>64.2</ele>
        <time>2023-04-10T05:55:20Z</time>
      </trkpt>
      <trkpt lat="48.07702" lon="-2.98614">
        <ele>63.8</ele>
        <time>2023-04-10T05:55:21Z</time>
      </trkpt>
      <trkpt lat="48.07707" lon="-2.98621">
        <ele>63.8</ele>
        <time>2023-04-10T05:55:22Z</time>
      </trkpt>
      <trkpt lat="48.0771" lon="-2.98626">
        <ele>63.8</ele>
        <time>2023-04-10T05:55:23Z</time>
      </trkpt>
      <trkpt lat="48.07715" lon="-2.98634">
        <ele>63.6</ele>
        <time>2023-04-10T05:55:24Z</time>
      </trkpt>
      <trkpt lat="48.07719" lon="-2.98641">
        <ele>63.6</ele>
        <time>2023-04-10T05:55:25Z</time>
      </trkpt>
      <trkpt lat="48.07723" lon="-2.98648">
        <ele>63.6</ele>
        <time>2023-04-10T05:55:26Z</time>
      </trkpt>
      <trkpt lat="48.07727" lon="-2.98655">
        <ele>63.6</ele>
        <time>2023-04-10T05:55:27Z</time>
      </trkpt>
      <trkpt lat="48.0773" lon="-2.98662">
        <ele>63.6</ele>
        <time>2023-04-10T05:55:28Z</time>
      </trkpt>
      <trkpt lat="48.07734" lon="-2.98668">
        <ele>63.6</ele>
        <time>2023-04-10T05:55:29Z</time>
      </trkpt>
      <trkpt lat="48.07738" lon="-2.98675">
        <ele>63.6</ele>
        <time>2023-04-10T05:55:30Z</time>
      </trkpt>
      <trkpt lat="48.07742" lon="-2.98681">
        <ele>63.4</ele>
        <time>2023-04-10T05:55:31Z</time>
      </trkpt>
      <trkpt lat="48.07746" lon="-2.98687">
        <ele>63.4</ele>
        <time>2023-04-10T05:55:32Z</time>
      </trkpt>
      <trkpt lat="48.07751" lon="-2.98692">
        <ele>63.4</ele>
        <time>2023-04-10T05:55:33Z</time>
      </trkpt>
      <trkpt lat="48.0776" lon="-2.98701">
        <ele>63.6</ele>
        <time>2023-04-10T05:55:35Z</time>
      </trkpt>
      <trkpt lat="48.07774" lon="-2.98714">
        <ele>63.6</ele>
        <time>2023-04-10T05:55:38Z</time>
      </trkpt>
      <trkpt lat="48.07779" lon="-2.98718">
        <ele>63.6</ele>
        <time>2023-04-10T05:55:39Z</time>
      </trkpt>
      <trkpt lat="48.07784" lon="-2.98721">
        <ele>63.6</ele>
        <time>2023-04-10T05:55:40Z</time>
      </trkpt>
      <trkpt lat="48.07794" lon="-2.98727">
        <ele>63.8</ele>
        <time>2023-04-10T05:55:42Z</time>
      </trkpt>
      <trkpt lat="48.07799" lon="-2.9873">
        <ele>63.8</ele>
        <time>2023-04-10T05:55:43Z</time>
      </trkpt>
      <trkpt lat="48.07804" lon="-2.98733">
        <ele>63.8</ele>
        <time>2023-04-10T05:55:44Z</time>
      </trkpt>
      <trkpt lat="48.0781" lon="-2.98736">
        <ele>63.8</ele>
        <time>2023-04-10T05:55:45Z</time>
      </trkpt>
      <trkpt lat="48.07819" lon="-2.98741">
        <ele>63.8</ele>
        <time>2023-04-10T05:55:47Z</time>
      </trkpt>
      <trkpt lat="48.07823" lon="-2.98742">
        <ele>63.8</ele>
        <time>2023-04-10T05:55:48Z</time>
      </trkpt>
      <trkpt lat="48.07845" lon="-2.98748">
        <ele>64</ele>
        <time>2023-04-10T05:55:52Z</time>
      </trkpt>
      <trkpt lat="48.07855" lon="-2.98752">
        <ele>64</ele>
        <time>2023-04-10T05:55:54Z</time>
      </trkpt>
      <trkpt lat="48.07862" lon="-2.98754">
        <ele>64</ele>
        <time>2023-04-10T05:55:55Z</time>
      </trkpt>
      <trkpt lat="48.07867" lon="-2.98756">
        <ele>64</ele>
        <time>2023-04-10T05:55:56Z</time>
      </trkpt>
      <trkpt lat="48.07872" lon="-2.98757">
        <ele>64.2</ele>
        <time>2023-04-10T05:55:57Z</time>
      </trkpt>
      <trkpt lat="48.07884" lon="-2.9876">
        <ele>64.2</ele>
        <time>2023-04-10T05:55:59Z</time>
      </trkpt>
      <trkpt lat="48.07889" lon="-2.98762">
        <ele>64.2</ele>
        <time>2023-04-10T05:56:00Z</time>
      </trkpt>
      <trkpt lat="48.07895" lon="-2.98764">
        <ele>64.2</ele>
        <time>2023-04-10T05:56:01Z</time>
      </trkpt>
      <trkpt lat="48.07901" lon="-2.98764">
        <ele>64.2</ele>
        <time>2023-04-10T05:56:02Z</time>
      </trkpt>
      <trkpt lat="48.07934" lon="-2.98777">
        <ele>64.4</ele>
        <time>2023-04-10T05:56:08Z</time>
      </trkpt>
      <trkpt lat="48.07945" lon="-2.98781">
        <ele>64.4</ele>
        <time>2023-04-10T05:56:10Z</time>
      </trkpt>
      <trkpt lat="48.0795" lon="-2.98783">
        <ele>64.6</ele>
        <time>2023-04-10T05:56:11Z</time>
      </trkpt>
      <trkpt lat="48.07956" lon="-2.98785">
        <ele>64.6</ele>
        <time>2023-04-10T05:56:12Z</time>
      </trkpt>
      <trkpt lat="48.07962" lon="-2.98786">
        <ele>64.6</ele>
        <time>2023-04-10T05:56:13Z</time>
      </trkpt>
      <trkpt lat="48.07967" lon="-2.98787">
        <ele>64.6</ele>
        <time>2023-04-10T05:56:14Z</time>
      </trkpt>
      <trkpt lat="48.07973" lon="-2.98789">
        <ele>64.6</ele>
        <time>2023-04-10T05:56:15Z</time>
      </trkpt>
      <trkpt lat="48.07988" lon="-2.98794">
        <ele>65</ele>
        <time>2023-04-10T05:56:18Z</time>
      </trkpt>
      <trkpt lat="48.08017" lon="-2.98804">
        <ele>65.4</ele>
        <time>2023-04-10T05:56:24Z</time>
      </trkpt>
      <trkpt lat="48.08026" lon="-2.98809">
        <ele>65.4</ele>
        <time>2023-04-10T05:56:26Z</time>
      </trkpt>
      <trkpt lat="48.08053" lon="-2.98823">
        <ele>65.6</ele>
        <time>2023-04-10T05:56:31Z</time>
      </trkpt>
      <trkpt lat="48.08101" lon="-2.98837">
        <ele>65.8</ele>
        <time>2023-04-10T05:56:39Z</time>
      </trkpt>
      <trkpt lat="48.08107" lon="-2.98838">
        <ele>65.8</ele>
        <time>2023-04-10T05:56:40Z</time>
      </trkpt>
      <trkpt lat="48.08131" lon="-2.98846">
        <ele>65.8</ele>
        <time>2023-04-10T05:56:44Z</time>
      </trkpt>
      <trkpt lat="48.08142" lon="-2.98849">
        <ele>65.8</ele>
        <time>2023-04-10T05:56:46Z</time>
      </trkpt>
      <trkpt lat="48.08159" lon="-2.98854">
        <ele>66</ele>
        <time>2023-04-10T05:56:49Z</time>
      </trkpt>
      <trkpt lat="48.08193" lon="-2.98866">
        <ele>66</ele>
        <time>2023-04-10T05:56:55Z</time>
      </trkpt>
      <trkpt lat="48.08222" lon="-2.98874">
        <ele>66</ele>
        <time>2023-04-10T05:57:00Z</time>
      </trkpt>
      <trkpt lat="48.08233" lon="-2.98879">
        <ele>66</ele>
        <time>2023-04-10T05:57:02Z</time>
      </trkpt>
      <trkpt lat="48.08266" lon="-2.98889">
        <ele>66</ele>
        <time>2023-04-10T05:57:08Z</time>
      </trkpt>
      <trkpt lat="48.08271" lon="-2.98891">
        <ele>66</ele>
        <time>2023-04-10T05:57:09Z</time>
      </trkpt>
      <trkpt lat="48.08277" lon="-2.98894">
        <ele>66</ele>
        <time>2023-04-10T05:57:10Z</time>
      </trkpt>
      <trkpt lat="48.08288" lon="-2.98899">
        <ele>66</ele>
        <time>2023-04-10T05:57:12Z</time>
      </trkpt>
      <trkpt lat="48.08317" lon="-2.98909">
        <ele>65.8</ele>
        <time>2023-04-10T05:57:17Z</time>
      </trkpt>
      <trkpt lat="48.08346" lon="-2.98918">
        <ele>65.8</ele>
        <time>2023-04-10T05:57:22Z</time>
      </trkpt>
      <trkpt lat="48.08364" lon="-2.98924">
        <ele>65.8</ele>
        <time>2023-04-10T05:57:25Z</time>
      </trkpt>
      <trkpt lat="48.0837" lon="-2.98927">
        <ele>65.8</ele>
        <time>2023-04-10T05:57:26Z</time>
      </trkpt>
      <trkpt lat="48.08376" lon="-2.98929">
        <ele>65.8</ele>
        <time>2023-04-10T05:57:27Z</time>
      </trkpt>
      <trkpt lat="48.08382" lon="-2.98931">
        <ele>65.8</ele>
        <time>2023-04-10T05:57:28Z</time>
      </trkpt>
      <trkpt lat="48.08388" lon="-2.98933">
        <ele>66.2</ele>
        <time>2023-04-10T05:57:29Z</time>
      </trkpt>
      <trkpt lat="48.08412" lon="-2.9894">
        <ele>66.2</ele>
        <time>2023-04-10T05:57:33Z</time>
      </trkpt>
      <trkpt lat="48.08456" lon="-2.98952">
        <ele>66.2</ele>
        <time>2023-04-10T05:57:40Z</time>
      </trkpt>
      <trkpt lat="48.08462" lon="-2.98954">
        <ele>66.2</ele>
        <time>2023-04-10T05:57:41Z</time>
      </trkpt>
      <trkpt lat="48.0848" lon="-2.9896">
        <ele>65.8</ele>
        <time>2023-04-10T05:57:44Z</time>
      </trkpt>
      <trkpt lat="48.08491" lon="-2.98965">
        <ele>65.8</ele>
        <time>2023-04-10T05:57:46Z</time>
      </trkpt>
      <trkpt lat="48.08509" lon="-2.9897">
        <ele>65.8</ele>
        <time>2023-04-10T05:57:49Z</time>
      </trkpt>
      <trkpt lat="48.08515" lon="-2.98971">
        <ele>65.8</ele>
        <time>2023-04-10T05:57:50Z</time>
      </trkpt>
      <trkpt lat="48.08521" lon="-2.98973">
        <ele>65.8</ele>
        <time>2023-04-10T05:57:51Z</time>
      </trkpt>
      <trkpt lat="48.08526" lon="-2.98975">
        <ele>65.8</ele>
        <time>2023-04-10T05:57:52Z</time>
      </trkpt>
      <trkpt lat="48.08532" lon="-2.98976">
        <ele>66</ele>
        <time>2023-04-10T05:57:53Z</time>
      </trkpt>
      <trkpt lat="48.08538" lon="-2.98978">
        <ele>66</ele>
        <time>2023-04-10T05:57:54Z</time>
      </trkpt>
      <trkpt lat="48.08543" lon="-2.9898">
        <ele>66</ele>
        <time>2023-04-10T05:57:55Z</time>
      </trkpt>
      <trkpt lat="48.08548" lon="-2.98982">
        <ele>66</ele>
        <time>2023-04-10T05:57:56Z</time>
      </trkpt>
      <trkpt lat="48.08554" lon="-2.98985">
        <ele>66.2</ele>
        <time>2023-04-10T05:57:57Z</time>
      </trkpt>
      <trkpt lat="48.08559" lon="-2.98989">
        <ele>66.2</ele>
        <time>2023-04-10T05:57:58Z</time>
      </trkpt>
      <trkpt lat="48.08564" lon="-2.98993">
        <ele>66.4</ele>
        <time>2023-04-10T05:57:59Z</time>
      </trkpt>
      <trkpt lat="48.08567" lon="-2.98999">
        <ele>66.6</ele>
        <time>2023-04-10T05:58:00Z</time>
      </trkpt>
      <trkpt lat="48.08571" lon="-2.99005">
        <ele>66.6</ele>
        <time>2023-04-10T05:58:01Z</time>
      </trkpt>
      <trkpt lat="48.08583" lon="-2.99033">
        <ele>67</ele>
        <time>2023-04-10T05:58:05Z</time>
      </trkpt>
      <trkpt lat="48.08588" lon="-2.99048">
        <ele>67.2</ele>
        <time>2023-04-10T05:58:07Z</time>
      </trkpt>
      <trkpt lat="48.08589" lon="-2.99056">
        <ele>67.2</ele>
        <time>2023-04-10T05:58:08Z</time>
      </trkpt>
      <trkpt lat="48.08589" lon="-2.99063">
        <ele>67.2</ele>
        <time>2023-04-10T05:58:09Z</time>
      </trkpt>
      <trkpt lat="48.08587" lon="-2.99071">
        <ele>67.2</ele>
        <time>2023-04-10T05:58:10Z</time>
      </trkpt>
      <trkpt lat="48.08584" lon="-2.99078">
        <ele>67.2</ele>
        <time>2023-04-10T05:58:11Z</time>
      </trkpt>
      <trkpt lat="48.08581" lon="-2.99084">
        <ele>67.2</ele>
        <time>2023-04-10T05:58:12Z</time>
      </trkpt>
      <trkpt lat="48.08577" lon="-2.99091">
        <ele>67.2</ele>
        <time>2023-04-10T05:58:13Z</time>
      </trkpt>
      <trkpt lat="48.08573" lon="-2.99098">
        <ele>67.2</ele>
        <time>2023-04-10T05:58:14Z</time>
      </trkpt>
      <trkpt lat="48.08553" lon="-2.99134">
        <ele>67</ele>
        <time>2023-04-10T05:58:19Z</time>
      </trkpt>
      <trkpt lat="48.08545" lon="-2.99148">
        <ele>67</ele>
        <time>2023-04-10T05:58:21Z</time>
      </trkpt>
      <trkpt lat="48.08542" lon="-2.99155">
        <ele>66.8</ele>
        <time>2023-04-10T05:58:22Z</time>
      </trkpt>
      <trkpt lat="48.08539" lon="-2.99163">
        <ele>66.6</ele>
        <time>2023-04-10T05:58:23Z</time>
      </trkpt>
      <trkpt lat="48.08535" lon="-2.9917">
        <ele>66.6</ele>
        <time>2023-04-10T05:58:24Z</time>
      </trkpt>
      <trkpt lat="48.08532" lon="-2.99177">
        <ele>66.4</ele>
        <time>2023-04-10T05:58:25Z</time>
      </trkpt>
      <trkpt lat="48.08524" lon="-2.9919">
        <ele>66.4</ele>
        <time>2023-04-10T05:58:27Z</time>
      </trkpt>
      <trkpt lat="48.08517" lon="-2.99204">
        <ele>66.2</ele>
        <time>2023-04-10T05:58:29Z</time>
      </trkpt>
      <trkpt lat="48.08509" lon="-2.99218">
        <ele>66.2</ele>
        <time>2023-04-10T05:58:31Z</time>
      </trkpt>
      <trkpt lat="48.08506" lon="-2.99226">
        <ele>66.2</ele>
        <time>2023-04-10T05:58:32Z</time>
      </trkpt>
      <trkpt lat="48.08502" lon="-2.99233">
        <ele>66.2</ele>
        <time>2023-04-10T05:58:33Z</time>
      </trkpt>
      <trkpt lat="48.08498" lon="-2.9924">
        <ele>66.2</ele>
        <time>2023-04-10T05:58:34Z</time>
      </trkpt>
      <trkpt lat="48.08495" lon="-2.99247">
        <ele>66.2</ele>
        <time>2023-04-10T05:58:35Z</time>
      </trkpt>
      <trkpt lat="48.08492" lon="-2.99254">
        <ele>66.2</ele>
        <time>2023-04-10T05:58:36Z</time>
      </trkpt>
      <trkpt lat="48.08489" lon="-2.9926">
        <ele>66.2</ele>
        <time>2023-04-10T05:58:37Z</time>
      </trkpt>
      <trkpt lat="48.08485" lon="-2.99267">
        <ele>66.2</ele>
        <time>2023-04-10T05:58:38Z</time>
      </trkpt>
      <trkpt lat="48.08483" lon="-2.99274">
        <ele>66.2</ele>
        <time>2023-04-10T05:58:39Z</time>
      </trkpt>
      <trkpt lat="48.0848" lon="-2.99281">
        <ele>66.2</ele>
        <time>2023-04-10T05:58:40Z</time>
      </trkpt>
      <trkpt lat="48.08477" lon="-2.99287">
        <ele>66.2</ele>
        <time>2023-04-10T05:58:41Z</time>
      </trkpt>
      <trkpt lat="48.08474" lon="-2.99293">
        <ele>66.2</ele>
        <time>2023-04-10T05:58:42Z</time>
      </trkpt>
      <trkpt lat="48.08471" lon="-2.99298">
        <ele>66.4</ele>
        <time>2023-04-10T05:58:43Z</time>
      </trkpt>
      <trkpt lat="48.08468" lon="-2.99304">
        <ele>66.4</ele>
        <time>2023-04-10T05:58:44Z</time>
      </trkpt>
      <trkpt lat="48.08466" lon="-2.99309">
        <ele>66.4</ele>
        <time>2023-04-10T05:58:45Z</time>
      </trkpt>
      <trkpt lat="48.08465" lon="-2.99315">
        <ele>66.4</ele>
        <time>2023-04-10T05:58:46Z</time>
      </trkpt>
      <trkpt lat="48.08463" lon="-2.99321">
        <ele>66.6</ele>
        <time>2023-04-10T05:58:47Z</time>
      </trkpt>
      <trkpt lat="48.08463" lon="-2.99327">
        <ele>66.8</ele>
        <time>2023-04-10T05:58:48Z</time>
      </trkpt>
      <trkpt lat="48.08464" lon="-2.99331">
        <ele>66.8</ele>
        <time>2023-04-10T05:58:49Z</time>
      </trkpt>
      <trkpt lat="48.08467" lon="-2.99333">
        <ele>66.8</ele>
        <time>2023-04-10T05:58:50Z</time>
      </trkpt>
      <trkpt lat="48.0847" lon="-2.99334">
        <ele>66.8</ele>
        <time>2023-04-10T05:58:51Z</time>
      </trkpt>
      <trkpt lat="48.08478" lon="-2.99337">
        <ele>67</ele>
        <time>2023-04-10T05:58:53Z</time>
      </trkpt>
      <trkpt lat="48.08483" lon="-2.99339">
        <ele>67</ele>
        <time>2023-04-10T05:58:54Z</time>
      </trkpt>
      <trkpt lat="48.08486" lon="-2.9934">
        <ele>67.2</ele>
        <time>2023-04-10T05:58:55Z</time>
      </trkpt>
      <trkpt lat="48.08489" lon="-2.99342">
        <ele>67.2</ele>
        <time>2023-04-10T05:58:56Z</time>
      </trkpt>
      <trkpt lat="48.08491" lon="-2.99344">
        <ele>67.2</ele>
        <time>2023-04-10T05:58:57Z</time>
      </trkpt>
      <trkpt lat="48.08492" lon="-2.99346">
        <ele>67.2</ele>
        <time>2023-04-10T05:58:58Z</time>
      </trkpt>
      <trkpt lat="48.08492" lon="-2.99349">
        <ele>67.2</ele>
        <time>2023-04-10T05:58:59Z</time>
      </trkpt>
      <trkpt lat="48.08491" lon="-2.99351">
        <ele>67.2</ele>
        <time>2023-04-10T05:59:00Z</time>
      </trkpt>
      <trkpt lat="48.0849" lon="-2.99354">
        <ele>67.2</ele>
        <time>2023-04-10T05:59:01Z</time>
      </trkpt>
      <trkpt lat="48.08487" lon="-2.99367">
        <ele>67.2</ele>
        <time>2023-04-10T05:59:04Z</time>
      </trkpt>
      <trkpt lat="48.08485" lon="-2.99371">
        <ele>67.2</ele>
        <time>2023-04-10T05:59:05Z</time>
      </trkpt>
      <trkpt lat="48.08483" lon="-2.99374">
        <ele>67.4</ele>
        <time>2023-04-10T05:59:06Z</time>
      </trkpt>
      <trkpt lat="48.08483" lon="-2.99378">
        <ele>67.4</ele>
        <time>2023-04-10T05:59:07Z</time>
      </trkpt>
      <trkpt lat="48.08482" lon="-2.99382">
        <ele>67.4</ele>
        <time>2023-04-10T05:59:08Z</time>
      </trkpt>
      <trkpt lat="48.08481" lon="-2.99386">
        <ele>67.4</ele>
        <time>2023-04-10T05:59:09Z</time>
      </trkpt>
      <trkpt lat="48.0848" lon="-2.99389">
        <ele>67.6</ele>
        <time>2023-04-10T05:59:10Z</time>
      </trkpt>
      <trkpt lat="48.08478" lon="-2.99393">
        <ele>67.6</ele>
        <time>2023-04-10T05:59:11Z</time>
      </trkpt>
      <trkpt lat="48.08478" lon="-2.99396">
        <ele>67.6</ele>
        <time>2023-04-10T05:59:12Z</time>
      </trkpt>
      <trkpt lat="48.08478" lon="-2.99399">
        <ele>67.8</ele>
        <time>2023-04-10T05:59:13Z</time>
      </trkpt>
      <trkpt lat="48.08478" lon="-2.99401">
        <ele>68</ele>
        <time>2023-04-10T05:59:14Z</time>
      </trkpt>
      <trkpt lat="48.08478" lon="-2.99404">
        <ele>68.2</ele>
        <time>2023-04-10T05:59:15Z</time>
      </trkpt>
      <trkpt lat="48.08478" lon="-2.99406">
        <ele>68.4</ele>
        <time>2023-04-10T05:59:16Z</time>
      </trkpt>
      <trkpt lat="48.08479" lon="-2.99407">
        <ele>68.8</ele>
        <time>2023-04-10T05:59:17Z</time>
      </trkpt>
      <trkpt lat="48.08479" lon="-2.99409">
        <ele>69</ele>
        <time>2023-04-10T05:59:18Z</time>
      </trkpt>
      <trkpt lat="48.0848" lon="-2.99411">
        <ele>69.4</ele>
        <time>2023-04-10T05:59:19Z</time>
      </trkpt>
      <trkpt lat="48.0848" lon="-2.99414">
        <ele>69.6</ele>
        <time>2023-04-10T05:59:20Z</time>
      </trkpt>
      <trkpt lat="48.08481" lon="-2.99416">
        <ele>69.8</ele>
        <time>2023-04-10T05:59:21Z</time>
      </trkpt>
      <trkpt lat="48.08482" lon="-2.99418">
        <ele>70.2</ele>
        <time>2023-04-10T05:59:22Z</time>
      </trkpt>
      <trkpt lat="48.08483" lon="-2.99421">
        <ele>70.6</ele>
        <time>2023-04-10T05:59:23Z</time>
      </trkpt>
      <trkpt lat="48.08483" lon="-2.99423">
        <ele>71.2</ele>
        <time>2023-04-10T05:59:24Z</time>
      </trkpt>
      <trkpt lat="48.08484" lon="-2.99425">
        <ele>71.6</ele>
        <time>2023-04-10T05:59:25Z</time>
      </trkpt>
      <trkpt lat="48.08484" lon="-2.99427">
        <ele>72</ele>
        <time>2023-04-10T05:59:26Z</time>
      </trkpt>
      <trkpt lat="48.08484" lon="-2.99429">
        <ele>72.4</ele>
        <time>2023-04-10T05:59:27Z</time>
      </trkpt>
      <trkpt lat="48.08484" lon="-2.99431">
        <ele>72.8</ele>
        <time>2023-04-10T05:59:28Z</time>
      </trkpt>
      <trkpt lat="48.08484" lon="-2.99433">
        <ele>73.2</ele>
        <time>2023-04-10T05:59:29Z</time>
      </trkpt>
      <trkpt lat="48.08485" lon="-2.99435">
        <ele>73.6</ele>
        <time>2023-04-10T05:59:30Z</time>
      </trkpt>
      <trkpt lat="48.08486" lon="-2.99436">
        <ele>74.2</ele>
        <time>2023-04-10T05:59:31Z</time>
      </trkpt>
      <trkpt lat="48.08487" lon="-2.99436">
        <ele>74.6</ele>
        <time>2023-04-10T05:59:32Z</time>
      </trkpt>
      <trkpt lat="48.08488" lon="-2.99435">
        <ele>74.6</ele>
        <time>2023-04-10T05:59:33Z</time>
      </trkpt>
      <trkpt lat="48.0849" lon="-2.99434">
        <ele>75</ele>
        <time>2023-04-10T05:59:34Z</time>
      </trkpt>
      <trkpt lat="48.08492" lon="-2.99433">
        <ele>75.4</ele>
        <time>2023-04-10T05:59:35Z</time>
      </trkpt>
      <trkpt lat="48.08495" lon="-2.99433">
        <ele>75.6</ele>
        <time>2023-04-10T05:59:36Z</time>
      </trkpt>
      <trkpt lat="48.08498" lon="-2.99432">
        <ele>75.6</ele>
        <time>2023-04-10T05:59:37Z</time>
      </trkpt>
      <trkpt lat="48.08502" lon="-2.99431">
        <ele>75.6</ele>
        <time>2023-04-10T05:59:38Z</time>
      </trkpt>
      <trkpt lat="48.08507" lon="-2.9943">
        <ele>75.8</ele>
        <time>2023-04-10T05:59:39Z</time>
      </trkpt>
      <trkpt lat="48.08512" lon="-2.99428">
        <ele>75.8</ele>
        <time>2023-04-10T05:59:40Z</time>
      </trkpt>
      <trkpt lat="48.08518" lon="-2.99428">
        <ele>75.8</ele>
        <time>2023-04-10T05:59:41Z</time>
      </trkpt>
      <trkpt lat="48.08523" lon="-2.99428">
        <ele>75.8</ele>
        <time>2023-04-10T05:59:42Z</time>
      </trkpt>
      <trkpt lat="48.08529" lon="-2.99427">
        <ele>75.8</ele>
        <time>2023-04-10T05:59:43Z</time>
      </trkpt>
      <trkpt lat="48.08533" lon="-2.99427">
        <ele>75.8</ele>
        <time>2023-04-10T05:59:44Z</time>
      </trkpt>
      <trkpt lat="48.08537" lon="-2.99427">
        <ele>75.6</ele>
        <time>2023-04-10T05:59:45Z</time>
      </trkpt>
      <trkpt lat="48.08542" lon="-2.99426">
        <ele>75</ele>
        <time>2023-04-10T05:59:46Z</time>
      </trkpt>
      <trkpt lat="48.08547" lon="-2.99425">
        <ele>74.6</ele>
        <time>2023-04-10T05:59:47Z</time>
      </trkpt>
      <trkpt lat="48.08551" lon="-2.99426">
        <ele>74</ele>
        <time>2023-04-10T05:59:48Z</time>
      </trkpt>
      <trkpt lat="48.08555" lon="-2.99425">
        <ele>73.6</ele>
        <time>2023-04-10T05:59:49Z</time>
      </trkpt>
      <trkpt lat="48.0856" lon="-2.99426">
        <ele>73</ele>
        <time>2023-04-10T05:59:50Z</time>
      </trkpt>
      <trkpt lat="48.08562" lon="-2.99427">
        <ele>72.4</ele>
        <time>2023-04-10T05:59:51Z</time>
      </trkpt>
      <trkpt lat="48.08564" lon="-2.9943">
        <ele>72</ele>
        <time>2023-04-10T05:59:52Z</time>
      </trkpt>
      <trkpt lat="48.08564" lon="-2.99433">
        <ele>71.2</ele>
        <time>2023-04-10T05:59:53Z</time>
      </trkpt>
      <trkpt lat="48.08564" lon="-2.99436">
        <ele>70.8</ele>
        <time>2023-04-10T05:59:54Z</time>
      </trkpt>
      <trkpt lat="48.08564" lon="-2.99438">
        <ele>70</ele>
        <time>2023-04-10T05:59:55Z</time>
      </trkpt>
      <trkpt lat="48.08564" lon="-2.99441">
        <ele>69.4</ele>
        <time>2023-04-10T05:59:56Z</time>
      </trkpt>
      <trkpt lat="48.08564" lon="-2.99443">
        <ele>69.4</ele>
        <time>2023-04-10T05:59:57Z</time>
      </trkpt>
      <trkpt lat="48.08563" lon="-2.99446">
        <ele>69</ele>
        <time>2023-04-10T05:59:58Z</time>
      </trkpt>
      <trkpt lat="48.08563" lon="-2.99448">
        <ele>69</ele>
        <time>2023-04-10T05:59:59Z</time>
      </trkpt>
      <trkpt lat="48.08564" lon="-2.9945">
        <ele>68.8</ele>
        <time>2023-04-10T06:00:00Z</time>
      </trkpt>
      <trkpt lat="48.08563" lon="-2.99453">
        <ele>68.8</ele>
        <time>2023-04-10T06:00:01Z</time>
      </trkpt>
      <trkpt lat="48.08563" lon="-2.99455">
        <ele>68.8</ele>
        <time>2023-04-10T06:00:02Z</time>
      </trkpt>
      <trkpt lat="48.08559" lon="-2.9946">
        <ele>68.8</ele>
        <time>2023-04-10T06:00:05Z</time>
      </trkpt>
      <trkpt lat="48.08558" lon="-2.99461">
        <ele>68.8</ele>
        <time>2023-04-10T06:00:06Z</time>
      </trkpt>
      <trkpt lat="48.08553" lon="-2.9947">
        <ele>69.6</ele>
        <time>2023-04-10T06:00:11Z</time>
      </trkpt>
      <trkpt lat="48.08552" lon="-2.99472">
        <ele>70</ele>
        <time>2023-04-10T06:00:12Z</time>
      </trkpt>
      <trkpt lat="48.08552" lon="-2.99474">
        <ele>70.2</ele>
        <time>2023-04-10T06:00:13Z</time>
      </trkpt>
      <trkpt lat="48.08551" lon="-2.99476">
        <ele>70.4</ele>
        <time>2023-04-10T06:00:14Z</time>
      </trkpt>
      <trkpt lat="48.08548" lon="-2.99482">
        <ele>71.2</ele>
        <time>2023-04-10T06:00:17Z</time>
      </trkpt>
      <trkpt lat="48.08546" lon="-2.99484">
        <ele>71.4</ele>
        <time>2023-04-10T06:00:18Z</time>
      </trkpt>
      <trkpt lat="48.08541" lon="-2.99493">
        <ele>72.4</ele>
        <time>2023-04-10T06:00:22Z</time>
      </trkpt>
      <trkpt lat="48.0854" lon="-2.99496">
        <ele>72.8</ele>
        <time>2023-04-10T06:00:24Z</time>
      </trkpt>
      <trkpt lat="48.08539" lon="-2.99498">
        <ele>73.2</ele>
        <time>2023-04-10T06:00:25Z</time>
      </trkpt>
      <trkpt lat="48.08539" lon="-2.99499">
        <ele>73.4</ele>
        <time>2023-04-10T06:00:26Z</time>
      </trkpt>
      <trkpt lat="48.08539" lon="-2.99502">
        <ele>73.8</ele>
        <time>2023-04-10T06:00:27Z</time>
      </trkpt>
      <trkpt lat="48.08538" lon="-2.99504">
        <ele>74.2</ele>
        <time>2023-04-10T06:00:28Z</time>
      </trkpt>
      <trkpt lat="48.08539" lon="-2.99507">
        <ele>74.2</ele>
        <time>2023-04-10T06:00:29Z</time>
      </trkpt>
      <trkpt lat="48.08539" lon="-2.9951">
        <ele>74.6</ele>
        <time>2023-04-10T06:00:30Z</time>
      </trkpt>
      <trkpt lat="48.08539" lon="-2.99512">
        <ele>74.8</ele>
        <time>2023-04-10T06:00:31Z</time>
      </trkpt>
      <trkpt lat="48.08539" lon="-2.99515">
        <ele>75</ele>
        <time>2023-04-10T06:00:32Z</time>
      </trkpt>
      <trkpt lat="48.08539" lon="-2.99518">
        <ele>75.2</ele>
        <time>2023-04-10T06:00:33Z</time>
      </trkpt>
      <trkpt lat="48.08539" lon="-2.99521">
        <ele>75.4</ele>
        <time>2023-04-10T06:00:34Z</time>
      </trkpt>
      <trkpt lat="48.0854" lon="-2.99524">
        <ele>75.8</ele>
        <time>2023-04-10T06:00:35Z</time>
      </trkpt>
      <trkpt lat="48.0854" lon="-2.99528">
        <ele>76</ele>
        <time>2023-04-10T06:00:36Z</time>
      </trkpt>
      <trkpt lat="48.08539" lon="-2.99532">
        <ele>76.2</ele>
        <time>2023-04-10T06:00:37Z</time>
      </trkpt>
      <trkpt lat="48.08539" lon="-2.99534">
        <ele>76.4</ele>
        <time>2023-04-10T06:00:38Z</time>
      </trkpt>
      <trkpt lat="48.08538" lon="-2.99536">
        <ele>76.6</ele>
        <time>2023-04-10T06:00:39Z</time>
      </trkpt>
      <trkpt lat="48.08538" lon="-2.99541">
        <ele>76.8</ele>
        <time>2023-04-10T06:00:40Z</time>
      </trkpt>
      <trkpt lat="48.08537" lon="-2.99544">
        <ele>76.8</ele>
        <time>2023-04-10T06:00:41Z</time>
      </trkpt>
      <trkpt lat="48.08537" lon="-2.99547">
        <ele>77</ele>
        <time>2023-04-10T06:00:42Z</time>
      </trkpt>
      <trkpt lat="48.08536" lon="-2.99551">
        <ele>77.2</ele>
        <time>2023-04-10T06:00:43Z</time>
      </trkpt>
      <trkpt lat="48.08537" lon="-2.99555">
        <ele>77.4</ele>
        <time>2023-04-10T06:00:44Z</time>
      </trkpt>
      <trkpt lat="48.08537" lon="-2.99559">
        <ele>77.6</ele>
        <time>2023-04-10T06:00:45Z</time>
      </trkpt>
      <trkpt lat="48.08536" lon="-2.99563">
        <ele>78</ele>
        <time>2023-04-10T06:00:46Z</time>
      </trkpt>
      <trkpt lat="48.08534" lon="-2.99566">
        <ele>78.2</ele>
        <time>2023-04-10T06:00:47Z</time>
      </trkpt>
      <trkpt lat="48.0853" lon="-2.99571">
        <ele>78.4</ele>
        <time>2023-04-10T06:00:48Z</time>
      </trkpt>
      <trkpt lat="48.08529" lon="-2.99573">
        <ele>78.8</ele>
        <time>2023-04-10T06:00:49Z</time>
      </trkpt>
      <trkpt lat="48.08528" lon="-2.99575">
        <ele>79</ele>
        <time>2023-04-10T06:00:50Z</time>
      </trkpt>
      <trkpt lat="48.08528" lon="-2.99577">
        <ele>79.2</ele>
        <time>2023-04-10T06:00:51Z</time>
      </trkpt>
      <trkpt lat="48.08528" lon="-2.99579">
        <ele>79.6</ele>
        <time>2023-04-10T06:00:52Z</time>
      </trkpt>
      <trkpt lat="48.08527" lon="-2.99582">
        <ele>79.8</ele>
        <time>2023-04-10T06:00:53Z</time>
      </trkpt>
      <trkpt lat="48.08527" lon="-2.99584">
        <ele>80</ele>
        <time>2023-04-10T06:00:54Z</time>
      </trkpt>
      <trkpt lat="48.08526" lon="-2.99587">
        <ele>80.2</ele>
        <time>2023-04-10T06:00:55Z</time>
      </trkpt>
      <trkpt lat="48.08526" lon="-2.9959">
        <ele>80.4</ele>
        <time>2023-04-10T06:00:56Z</time>
      </trkpt>
      <trkpt lat="48.08525" lon="-2.99592">
        <ele>80.8</ele>
        <time>2023-04-10T06:00:57Z</time>
      </trkpt>
      <trkpt lat="48.08524" lon="-2.99595">
        <ele>81</ele>
        <time>2023-04-10T06:00:58Z</time>
      </trkpt>
      <trkpt lat="48.08524" lon="-2.99597">
        <ele>81.2</ele>
        <time>2023-04-10T06:00:59Z</time>
      </trkpt>
      <trkpt lat="48.08523" lon="-2.996">
        <ele>81.4</ele>
        <time>2023-04-10T06:01:00Z</time>
      </trkpt>
      <trkpt lat="48.08522" lon="-2.99602">
        <ele>81.8</ele>
        <time>2023-04-10T06:01:01Z</time>
      </trkpt>
      <trkpt lat="48.08522" lon="-2.99604">
        <ele>82</ele>
        <time>2023-04-10T06:01:02Z</time>
      </trkpt>
      <trkpt lat="48.08521" lon="-2.99606">
        <ele>82</ele>
        <time>2023-04-10T06:01:03Z</time>
      </trkpt>
      <trkpt lat="48.08521" lon="-2.99609">
        <ele>82.4</ele>
        <time>2023-04-10T06:01:04Z</time>
      </trkpt>
      <trkpt lat="48.0852" lon="-2.99612">
        <ele>82.6</ele>
        <time>2023-04-10T06:01:05Z</time>
      </trkpt>
      <trkpt lat="48.0852" lon="-2.99614">
        <ele>82.8</ele>
        <time>2023-04-10T06:01:06Z</time>
      </trkpt>
      <trkpt lat="48.08519" lon="-2.99617">
        <ele>83</ele>
        <time>2023-04-10T06:01:07Z</time>
      </trkpt>
      <trkpt lat="48.08519" lon="-2.9962">
        <ele>83.2</ele>
        <time>2023-04-10T06:01:08Z</time>
      </trkpt>
      <trkpt lat="48.08518" lon="-2.99622">
        <ele>83.4</ele>
        <time>2023-04-10T06:01:09Z</time>
      </trkpt>
      <trkpt lat="48.08517" lon="-2.99624">
        <ele>83.6</ele>
        <time>2023-04-10T06:01:10Z</time>
      </trkpt>
      <trkpt lat="48.08517" lon="-2.99627">
        <ele>83.8</ele>
        <time>2023-04-10T06:01:11Z</time>
      </trkpt>
      <trkpt lat="48.08516" lon="-2.9963">
        <ele>84</ele>
        <time>2023-04-10T06:01:12Z</time>
      </trkpt>
      <trkpt lat="48.08516" lon="-2.99633">
        <ele>84.2</ele>
        <time>2023-04-10T06:01:13Z</time>
      </trkpt>
      <trkpt lat="48.08515" lon="-2.99635">
        <ele>84.4</ele>
        <time>2023-04-10T06:01:14Z</time>
      </trkpt>
      <trkpt lat="48.08514" lon="-2.99638">
        <ele>84.6</ele>
        <time>2023-04-10T06:01:15Z</time>
      </trkpt>
      <trkpt lat="48.08513" lon="-2.99641">
        <ele>84.8</ele>
        <time>2023-04-10T06:01:16Z</time>
      </trkpt>
      <trkpt lat="48.08512" lon="-2.99643">
        <ele>85</ele>
        <time>2023-04-10T06:01:17Z</time>
      </trkpt>
      <trkpt lat="48.08512" lon="-2.99645">
        <ele>85.2</ele>
        <time>2023-04-10T06:01:18Z</time>
      </trkpt>
      <trkpt lat="48.08511" lon="-2.99647">
        <ele>85.4</ele>
        <time>2023-04-10T06:01:19Z</time>
      </trkpt>
      <trkpt lat="48.08511" lon="-2.9965">
        <ele>85.6</ele>
        <time>2023-04-10T06:01:20Z</time>
      </trkpt>
      <trkpt lat="48.0851" lon="-2.99653">
        <ele>85.8</ele>
        <time>2023-04-10T06:01:21Z</time>
      </trkpt>
      <trkpt lat="48.0851" lon="-2.99655">
        <ele>86</ele>
        <time>2023-04-10T06:01:22Z</time>
      </trkpt>
      <trkpt lat="48.08509" lon="-2.99657">
        <ele>86.2</ele>
        <time>2023-04-10T06:01:23Z</time>
      </trkpt>
      <trkpt lat="48.08508" lon="-2.9966">
        <ele>86.2</ele>
        <time>2023-04-10T06:01:24Z</time>
      </trkpt>
      <trkpt lat="48.08508" lon="-2.99662">
        <ele>86.4</ele>
        <time>2023-04-10T06:01:25Z</time>
      </trkpt>
      <trkpt lat="48.08507" lon="-2.99664">
        <ele>86.6</ele>
        <time>2023-04-10T06:01:26Z</time>
      </trkpt>
      <trkpt lat="48.08507" lon="-2.99667">
        <ele>86.8</ele>
        <time>2023-04-10T06:01:27Z</time>
      </trkpt>
      <trkpt lat="48.08507" lon="-2.99669">
        <ele>87</ele>
        <time>2023-04-10T06:01:28Z</time>
      </trkpt>
      <trkpt lat="48.08507" lon="-2.99671">
        <ele>87.2</ele>
        <time>2023-04-10T06:01:29Z</time>
      </trkpt>
      <trkpt lat="48.08506" lon="-2.99674">
        <ele>87.4</ele>
        <time>2023-04-10T06:01:30Z</time>
      </trkpt>
      <trkpt lat="48.08505" lon="-2.99676">
        <ele>87.6</ele>
        <time>2023-04-10T06:01:31Z</time>
      </trkpt>
      <trkpt lat="48.08504" lon="-2.99679">
        <ele>87.6</ele>
        <time>2023-04-10T06:01:32Z</time>
      </trkpt>
      <trkpt lat="48.08503" lon="-2.99681">
        <ele>87.8</ele>
        <time>2023-04-10T06:01:33Z</time>
      </trkpt>
      <trkpt lat="48.08502" lon="-2.99683">
        <ele>88</ele>
        <time>2023-04-10T06:01:34Z</time>
      </trkpt>
      <trkpt lat="48.08501" lon="-2.99686">
        <ele>88.2</ele>
        <time>2023-04-10T06:01:35Z</time>
      </trkpt>
      <trkpt lat="48.08501" lon="-2.99688">
        <ele>88.4</ele>
        <time>2023-04-10T06:01:36Z</time>
      </trkpt>
      <trkpt lat="48.085" lon="-2.99691">
        <ele>88.6</ele>
        <time>2023-04-10T06:01:37Z</time>
      </trkpt>
      <trkpt lat="48.085" lon="-2.99693">
        <ele>88.6</ele>
        <time>2023-04-10T06:01:38Z</time>
      </trkpt>
      <trkpt lat="48.08499" lon="-2.99695">
        <ele>89</ele>
        <time>2023-04-10T06:01:39Z</time>
      </trkpt>
      <trkpt lat="48.08498" lon="-2.99698">
        <ele>89.2</ele>
        <time>2023-04-10T06:01:40Z</time>
      </trkpt>
      <trkpt lat="48.08497" lon="-2.99701">
        <ele>89.4</ele>
        <time>2023-04-10T06:01:41Z</time>
      </trkpt>
      <trkpt lat="48.08497" lon="-2.99703">
        <ele>89.6</ele>
        <time>2023-04-10T06:01:42Z</time>
      </trkpt>
      <trkpt lat="48.08496" lon="-2.99705">
        <ele>89.8</ele>
        <time>2023-04-10T06:01:43Z</time>
      </trkpt>
      <trkpt lat="48.08495" lon="-2.99707">
        <ele>90</ele>
        <time>2023-04-10T06:01:44Z</time>
      </trkpt>
      <trkpt lat="48.08495" lon="-2.9971">
        <ele>90.2</ele>
        <time>2023-04-10T06:01:45Z</time>
      </trkpt>
      <trkpt lat="48.08495" lon="-2.99713">
        <ele>90.2</ele>
        <time>2023-04-10T06:01:46Z</time>
      </trkpt>
      <trkpt lat="48.08495" lon="-2.99717">
        <ele>90.4</ele>
        <time>2023-04-10T06:01:47Z</time>
      </trkpt>
      <trkpt lat="48.08495" lon="-2.9972">
        <ele>90.6</ele>
        <time>2023-04-10T06:01:48Z</time>
      </trkpt>
      <trkpt lat="48.08493" lon="-2.99724">
        <ele>91</ele>
        <time>2023-04-10T06:01:49Z</time>
      </trkpt>
      <trkpt lat="48.08492" lon="-2.99726">
        <ele>91.2</ele>
        <time>2023-04-10T06:01:50Z</time>
      </trkpt>
      <trkpt lat="48.08491" lon="-2.99728">
        <ele>91.4</ele>
        <time>2023-04-10T06:01:51Z</time>
      </trkpt>
      <trkpt lat="48.0849" lon="-2.99731">
        <ele>91.8</ele>
        <time>2023-04-10T06:01:52Z</time>
      </trkpt>
      <trkpt lat="48.0849" lon="-2.99734">
        <ele>92</ele>
        <time>2023-04-10T06:01:53Z</time>
      </trkpt>
      <trkpt lat="48.08489" lon="-2.99736">
        <ele>92.2</ele>
        <time>2023-04-10T06:01:54Z</time>
      </trkpt>
      <trkpt lat="48.08489" lon="-2.99738">
        <ele>92.4</ele>
        <time>2023-04-10T06:01:55Z</time>
      </trkpt>
      <trkpt lat="48.08488" lon="-2.9974">
        <ele>92.4</ele>
        <time>2023-04-10T06:01:56Z</time>
      </trkpt>
      <trkpt lat="48.08487" lon="-2.99742">
        <ele>92.8</ele>
        <time>2023-04-10T06:01:57Z</time>
      </trkpt>
      <trkpt lat="48.08487" lon="-2.99744">
        <ele>93</ele>
        <time>2023-04-10T06:01:58Z</time>
      </trkpt>
      <trkpt lat="48.08487" lon="-2.99747">
        <ele>93.2</ele>
        <time>2023-04-10T06:01:59Z</time>
      </trkpt>
      <trkpt lat="48.08486" lon="-2.99749">
        <ele>93.4</ele>
        <time>2023-04-10T06:02:00Z</time>
      </trkpt>
      <trkpt lat="48.08486" lon="-2.99752">
        <ele>93.6</ele>
        <time>2023-04-10T06:02:01Z</time>
      </trkpt>
      <trkpt lat="48.08485" lon="-2.99754">
        <ele>93.8</ele>
        <time>2023-04-10T06:02:02Z</time>
      </trkpt>
      <trkpt lat="48.08484" lon="-2.99757">
        <ele>94</ele>
        <time>2023-04-10T06:02:03Z</time>
      </trkpt>
      <trkpt lat="48.08483" lon="-2.9976">
        <ele>94.2</ele>
        <time>2023-04-10T06:02:04Z</time>
      </trkpt>
      <trkpt lat="48.08483" lon="-2.99761">
        <ele>94.2</ele>
        <time>2023-04-10T06:02:05Z</time>
      </trkpt>
      <trkpt lat="48.08483" lon="-2.99764">
        <ele>94.4</ele>
        <time>2023-04-10T06:02:06Z</time>
      </trkpt>
      <trkpt lat="48.08482" lon="-2.99767">
        <ele>94.6</ele>
        <time>2023-04-10T06:02:07Z</time>
      </trkpt>
      <trkpt lat="48.08482" lon="-2.99769">
        <ele>94.6</ele>
        <time>2023-04-10T06:02:08Z</time>
      </trkpt>
      <trkpt lat="48.08482" lon="-2.99771">
        <ele>94.8</ele>
        <time>2023-04-10T06:02:09Z</time>
      </trkpt>
      <trkpt lat="48.08481" lon="-2.99774">
        <ele>95</ele>
        <time>2023-04-10T06:02:10Z</time>
      </trkpt>
      <trkpt lat="48.08481" lon="-2.99776">
        <ele>95.2</ele>
        <time>2023-04-10T06:02:11Z</time>
      </trkpt>
      <trkpt lat="48.08481" lon="-2.99778">
        <ele>95.4</ele>
        <time>2023-04-10T06:02:12Z</time>
      </trkpt>
      <trkpt lat="48.0848" lon="-2.99782">
        <ele>95.6</ele>
        <time>2023-04-10T06:02:13Z</time>
      </trkpt>
      <trkpt lat="48.0848" lon="-2.99786">
        <ele>95.8</ele>
        <time>2023-04-10T06:02:14Z</time>
      </trkpt>
      <trkpt lat="48.08479" lon="-2.99789">
        <ele>96.2</ele>
        <time>2023-04-10T06:02:15Z</time>
      </trkpt>
      <trkpt lat="48.08478" lon="-2.99794">
        <ele>96.6</ele>
        <time>2023-04-10T06:02:16Z</time>
      </trkpt>
      <trkpt lat="48.08478" lon="-2.99797">
        <ele>96.8</ele>
        <time>2023-04-10T06:02:17Z</time>
      </trkpt>
      <trkpt lat="48.08476" lon="-2.99802">
        <ele>97</ele>
        <time>2023-04-10T06:02:18Z</time>
      </trkpt>
      <trkpt lat="48.08474" lon="-2.99807">
        <ele>97.4</ele>
        <time>2023-04-10T06:02:19Z</time>
      </trkpt>
      <trkpt lat="48.08473" lon="-2.9981">
        <ele>97.6</ele>
        <time>2023-04-10T06:02:20Z</time>
      </trkpt>
      <trkpt lat="48.08471" lon="-2.99815">
        <ele>97.8</ele>
        <time>2023-04-10T06:02:21Z</time>
      </trkpt>
      <trkpt lat="48.0847" lon="-2.99818">
        <ele>98</ele>
        <time>2023-04-10T06:02:22Z</time>
      </trkpt>
      <trkpt lat="48.08469" lon="-2.99823">
        <ele>98.2</ele>
        <time>2023-04-10T06:02:23Z</time>
      </trkpt>
      <trkpt lat="48.08468" lon="-2.99828">
        <ele>98.2</ele>
        <time>2023-04-10T06:02:24Z</time>
      </trkpt>
      <trkpt lat="48.08466" lon="-2.99832">
        <ele>98.2</ele>
        <time>2023-04-10T06:02:25Z</time>
      </trkpt>
      <trkpt lat="48.08464" lon="-2.99837">
        <ele>98.4</ele>
        <time>2023-04-10T06:02:26Z</time>
      </trkpt>
      <trkpt lat="48.08463" lon="-2.99841">
        <ele>98.4</ele>
        <time>2023-04-10T06:02:27Z</time>
      </trkpt>
      <trkpt lat="48.08461" lon="-2.99845">
        <ele>98.4</ele>
        <time>2023-04-10T06:02:28Z</time>
      </trkpt>
      <trkpt lat="48.0846" lon="-2.99849">
        <ele>98.4</ele>
        <time>2023-04-10T06:02:29Z</time>
      </trkpt>
      <trkpt lat="48.08458" lon="-2.99853">
        <ele>98.6</ele>
        <time>2023-04-10T06:02:30Z</time>
      </trkpt>
      <trkpt lat="48.08456" lon="-2.99858">
        <ele>98.6</ele>
        <time>2023-04-10T06:02:31Z</time>
      </trkpt>
      <trkpt lat="48.08455" lon="-2.99862">
        <ele>98.6</ele>
        <time>2023-04-10T06:02:32Z</time>
      </trkpt>
      <trkpt lat="48.08452" lon="-2.99866">
        <ele>98.6</ele>
        <time>2023-04-10T06:02:33Z</time>
      </trkpt>
      <trkpt lat="48.08451" lon="-2.99871">
        <ele>98.6</ele>
        <time>2023-04-10T06:02:34Z</time>
      </trkpt>
      <trkpt lat="48.08449" lon="-2.99875">
        <ele>98.6</ele>
        <time>2023-04-10T06:02:35Z</time>
      </trkpt>
      <trkpt lat="48.08448" lon="-2.9988">
        <ele>98.8</ele>
        <time>2023-04-10T06:02:36Z</time>
      </trkpt>
      <trkpt lat="48.08446" lon="-2.99885">
        <ele>98.8</ele>
        <time>2023-04-10T06:02:37Z</time>
      </trkpt>
      <trkpt lat="48.08445" lon="-2.9989">
        <ele>98.8</ele>
        <time>2023-04-10T06:02:38Z</time>
      </trkpt>
      <trkpt lat="48.08444" lon="-2.99894">
        <ele>99</ele>
        <time>2023-04-10T06:02:39Z</time>
      </trkpt>
      <trkpt lat="48.08443" lon="-2.99899">
        <ele>99</ele>
        <time>2023-04-10T06:02:40Z</time>
      </trkpt>
      <trkpt lat="48.08442" lon="-2.99904">
        <ele>99.2</ele>
        <time>2023-04-10T06:02:41Z</time>
      </trkpt>
      <trkpt lat="48.08441" lon="-2.99908">
        <ele>99.2</ele>
        <time>2023-04-10T06:02:42Z</time>
      </trkpt>
      <trkpt lat="48.0844" lon="-2.99913">
        <ele>99.2</ele>
        <time>2023-04-10T06:02:43Z</time>
      </trkpt>
      <trkpt lat="48.0844" lon="-2.99917">
        <ele>99.4</ele>
        <time>2023-04-10T06:02:44Z</time>
      </trkpt>
      <trkpt lat="48.08438" lon="-2.99922">
        <ele>99.4</ele>
        <time>2023-04-10T06:02:45Z</time>
      </trkpt>
      <trkpt lat="48.08437" lon="-2.99927">
        <ele>99.4</ele>
        <time>2023-04-10T06:02:46Z</time>
      </trkpt>
      <trkpt lat="48.08436" lon="-2.99931">
        <ele>99.6</ele>
        <time>2023-04-10T06:02:47Z</time>
      </trkpt>
      <trkpt lat="48.08434" lon="-2.99936">
        <ele>99.6</ele>
        <time>2023-04-10T06:02:48Z</time>
      </trkpt>
      <trkpt lat="48.08429" lon="-2.99954">
        <ele>100</ele>
        <time>2023-04-10T06:02:52Z</time>
      </trkpt>
      <trkpt lat="48.08425" lon="-2.99963">
        <ele>100</ele>
        <time>2023-04-10T06:02:54Z</time>
      </trkpt>
      <trkpt lat="48.0842" lon="-2.99981">
        <ele>100.2</ele>
        <time>2023-04-10T06:02:58Z</time>
      </trkpt>
      <trkpt lat="48.08419" lon="-2.99986">
        <ele>100.2</ele>
        <time>2023-04-10T06:02:59Z</time>
      </trkpt>
      <trkpt lat="48.08416" lon="-2.99996">
        <ele>100.4</ele>
        <time>2023-04-10T06:03:01Z</time>
      </trkpt>
      <trkpt lat="48.08413" lon="-3.00011">
        <ele>100.8</ele>
        <time>2023-04-10T06:03:04Z</time>
      </trkpt>
      <trkpt lat="48.0841" lon="-3.00034">
        <ele>100.8</ele>
        <time>2023-04-10T06:03:08Z</time>
      </trkpt>
      <trkpt lat="48.0841" lon="-3.00039">
        <ele>100.8</ele>
        <time>2023-04-10T06:03:09Z</time>
      </trkpt>
      <trkpt lat="48.08409" lon="-3.00044">
        <ele>100.8</ele>
        <time>2023-04-10T06:03:10Z</time>
      </trkpt>
      <trkpt lat="48.08409" lon="-3.0005">
        <ele>100.8</ele>
        <time>2023-04-10T06:03:11Z</time>
      </trkpt>
      <trkpt lat="48.08409" lon="-3.00054">
        <ele>100.8</ele>
        <time>2023-04-10T06:03:12Z</time>
      </trkpt>
      <trkpt lat="48.08409" lon="-3.00059">
        <ele>100.8</ele>
        <time>2023-04-10T06:03:13Z</time>
      </trkpt>
      <trkpt lat="48.08408" lon="-3.00064">
        <ele>100.8</ele>
        <time>2023-04-10T06:03:14Z</time>
      </trkpt>
      <trkpt lat="48.08407" lon="-3.00078">
        <ele>101</ele>
        <time>2023-04-10T06:03:17Z</time>
      </trkpt>
      <trkpt lat="48.08406" lon="-3.00088">
        <ele>101</ele>
        <time>2023-04-10T06:03:19Z</time>
      </trkpt>
      <trkpt lat="48.08405" lon="-3.00092">
        <ele>101</ele>
        <time>2023-04-10T06:03:20Z</time>
      </trkpt>
      <trkpt lat="48.08405" lon="-3.00096">
        <ele>101.2</ele>
        <time>2023-04-10T06:03:21Z</time>
      </trkpt>
      <trkpt lat="48.08404" lon="-3.001">
        <ele>101.2</ele>
        <time>2023-04-10T06:03:22Z</time>
      </trkpt>
      <trkpt lat="48.08403" lon="-3.00105">
        <ele>101.4</ele>
        <time>2023-04-10T06:03:23Z</time>
      </trkpt>
      <trkpt lat="48.08397" lon="-3.00146">
        <ele>102.4</ele>
        <time>2023-04-10T06:03:31Z</time>
      </trkpt>
      <trkpt lat="48.08395" lon="-3.00187">
        <ele>103</ele>
        <time>2023-04-10T06:03:38Z</time>
      </trkpt>
      <trkpt lat="48.08392" lon="-3.00221">
        <ele>103</ele>
        <time>2023-04-10T06:03:43Z</time>
      </trkpt>
      <trkpt lat="48.0839" lon="-3.00228">
        <ele>103</ele>
        <time>2023-04-10T06:03:44Z</time>
      </trkpt>
      <trkpt lat="48.08389" lon="-3.00236">
        <ele>103</ele>
        <time>2023-04-10T06:03:45Z</time>
      </trkpt>
      <trkpt lat="48.08389" lon="-3.00243">
        <ele>103</ele>
        <time>2023-04-10T06:03:46Z</time>
      </trkpt>
      <trkpt lat="48.08389" lon="-3.00249">
        <ele>103</ele>
        <time>2023-04-10T06:03:47Z</time>
      </trkpt>
      <trkpt lat="48.08388" lon="-3.00256">
        <ele>102.8</ele>
        <time>2023-04-10T06:03:48Z</time>
      </trkpt>
      <trkpt lat="48.08388" lon="-3.00263">
        <ele>102.8</ele>
        <time>2023-04-10T06:03:49Z</time>
      </trkpt>
      <trkpt lat="48.08387" lon="-3.00269">
        <ele>102.4</ele>
        <time>2023-04-10T06:03:50Z</time>
      </trkpt>
      <trkpt lat="48.08387" lon="-3.00276">
        <ele>102.2</ele>
        <time>2023-04-10T06:03:51Z</time>
      </trkpt>
      <trkpt lat="48.08386" lon="-3.00288">
        <ele>102</ele>
        <time>2023-04-10T06:03:53Z</time>
      </trkpt>
      <trkpt lat="48.08385" lon="-3.00307">
        <ele>101.8</ele>
        <time>2023-04-10T06:03:56Z</time>
      </trkpt>
      <trkpt lat="48.08384" lon="-3.00314">
        <ele>101.6</ele>
        <time>2023-04-10T06:03:57Z</time>
      </trkpt>
      <trkpt lat="48.08385" lon="-3.00327">
        <ele>101.6</ele>
        <time>2023-04-10T06:03:59Z</time>
      </trkpt>
      <trkpt lat="48.08385" lon="-3.00333">
        <ele>101.6</ele>
        <time>2023-04-10T06:04:00Z</time>
      </trkpt>
      <trkpt lat="48.08384" lon="-3.00339">
        <ele>101.6</ele>
        <time>2023-04-10T06:04:01Z</time>
      </trkpt>
      <trkpt lat="48.08384" lon="-3.00345">
        <ele>101.6</ele>
        <time>2023-04-10T06:04:02Z</time>
      </trkpt>
      <trkpt lat="48.08384" lon="-3.00351">
        <ele>101.4</ele>
        <time>2023-04-10T06:04:03Z</time>
      </trkpt>
      <trkpt lat="48.08383" lon="-3.00357">
        <ele>101.6</ele>
        <time>2023-04-10T06:04:04Z</time>
      </trkpt>
      <trkpt lat="48.08383" lon="-3.00363">
        <ele>101.6</ele>
        <time>2023-04-10T06:04:05Z</time>
      </trkpt>
      <trkpt lat="48.08383" lon="-3.00375">
        <ele>101.6</ele>
        <time>2023-04-10T06:04:07Z</time>
      </trkpt>
      <trkpt lat="48.08382" lon="-3.00381">
        <ele>101.6</ele>
        <time>2023-04-10T06:04:08Z</time>
      </trkpt>
      <trkpt lat="48.08382" lon="-3.00387">
        <ele>101.6</ele>
        <time>2023-04-10T06:04:09Z</time>
      </trkpt>
      <trkpt lat="48.08381" lon="-3.00391">
        <ele>101.6</ele>
        <time>2023-04-10T06:04:10Z</time>
      </trkpt>
      <trkpt lat="48.0838" lon="-3.00398">
        <ele>101.6</ele>
        <time>2023-04-10T06:04:11Z</time>
      </trkpt>
      <trkpt lat="48.08379" lon="-3.00405">
        <ele>101.6</ele>
        <time>2023-04-10T06:04:12Z</time>
      </trkpt>
      <trkpt lat="48.08377" lon="-3.00411">
        <ele>101.8</ele>
        <time>2023-04-10T06:04:13Z</time>
      </trkpt>
      <trkpt lat="48.08377" lon="-3.00416">
        <ele>101.8</ele>
        <time>2023-04-10T06:04:14Z</time>
      </trkpt>
      <trkpt lat="48.08376" lon="-3.0042">
        <ele>101.8</ele>
        <time>2023-04-10T06:04:15Z</time>
      </trkpt>
      <trkpt lat="48.08376" lon="-3.00424">
        <ele>101.8</ele>
        <time>2023-04-10T06:04:16Z</time>
      </trkpt>
      <trkpt lat="48.08375" lon="-3.00428">
        <ele>102</ele>
        <time>2023-04-10T06:04:17Z</time>
      </trkpt>
      <trkpt lat="48.08374" lon="-3.00433">
        <ele>102</ele>
        <time>2023-04-10T06:04:18Z</time>
      </trkpt>
      <trkpt lat="48.08373" lon="-3.00437">
        <ele>102</ele>
        <time>2023-04-10T06:04:19Z</time>
      </trkpt>
      <trkpt lat="48.08372" lon="-3.00442">
        <ele>102.2</ele>
        <time>2023-04-10T06:04:20Z</time>
      </trkpt>
      <trkpt lat="48.08372" lon="-3.00446">
        <ele>102.4</ele>
        <time>2023-04-10T06:04:21Z</time>
      </trkpt>
      <trkpt lat="48.08371" lon="-3.00449">
        <ele>102.4</ele>
        <time>2023-04-10T06:04:22Z</time>
      </trkpt>
      <trkpt lat="48.0837" lon="-3.00454">
        <ele>102.4</ele>
        <time>2023-04-10T06:04:23Z</time>
      </trkpt>
      <trkpt lat="48.08368" lon="-3.0046">
        <ele>102.6</ele>
        <time>2023-04-10T06:04:24Z</time>
      </trkpt>
      <trkpt lat="48.08368" lon="-3.00465">
        <ele>102.8</ele>
        <time>2023-04-10T06:04:25Z</time>
      </trkpt>
      <trkpt lat="48.08368" lon="-3.0047">
        <ele>103</ele>
        <time>2023-04-10T06:04:26Z</time>
      </trkpt>
      <trkpt lat="48.08366" lon="-3.00476">
        <ele>103.2</ele>
        <time>2023-04-10T06:04:27Z</time>
      </trkpt>
      <trkpt lat="48.08365" lon="-3.00481">
        <ele>103.2</ele>
        <time>2023-04-10T06:04:28Z</time>
      </trkpt>
      <trkpt lat="48.08364" lon="-3.00487">
        <ele>103.4</ele>
        <time>2023-04-10T06:04:29Z</time>
      </trkpt>
      <trkpt lat="48.08363" lon="-3.0049">
        <ele>103.6</ele>
        <time>2023-04-10T06:04:30Z</time>
      </trkpt>
      <trkpt lat="48.08362" lon="-3.00497">
        <ele>104</ele>
        <time>2023-04-10T06:04:33Z</time>
      </trkpt>
      <trkpt lat="48.08362" lon="-3.00501">
        <ele>104.2</ele>
        <time>2023-04-10T06:04:34Z</time>
      </trkpt>
      <trkpt lat="48.08361" lon="-3.00505">
        <ele>104.4</ele>
        <time>2023-04-10T06:04:35Z</time>
      </trkpt>
      <trkpt lat="48.08359" lon="-3.00514">
        <ele>104.8</ele>
        <time>2023-04-10T06:04:37Z</time>
      </trkpt>
      <trkpt lat="48.08357" lon="-3.00518">
        <ele>105</ele>
        <time>2023-04-10T06:04:38Z</time>
      </trkpt>
      <trkpt lat="48.08357" lon="-3.00519">
        <ele>105.2</ele>
        <time>2023-04-10T06:04:39Z</time>
      </trkpt>
      <trkpt lat="48.08356" lon="-3.00519">
        <ele>105.4</ele>
        <time>2023-04-10T06:04:40Z</time>
      </trkpt>
      <trkpt lat="48.08356" lon="-3.00521">
        <ele>105.6</ele>
        <time>2023-04-10T06:04:41Z</time>
      </trkpt>
      <trkpt lat="48.08356" lon="-3.00523">
        <ele>105.8</ele>
        <time>2023-04-10T06:04:42Z</time>
      </trkpt>
      <trkpt lat="48.08356" lon="-3.00526">
        <ele>106</ele>
        <time>2023-04-10T06:04:43Z</time>
      </trkpt>
      <trkpt lat="48.08356" lon="-3.00528">
        <ele>106.2</ele>
        <time>2023-04-10T06:04:44Z</time>
      </trkpt>
      <trkpt lat="48.08356" lon="-3.00531">
        <ele>106.2</ele>
        <time>2023-04-10T06:04:45Z</time>
      </trkpt>
      <trkpt lat="48.08356" lon="-3.00534">
        <ele>106.4</ele>
        <time>2023-04-10T06:04:46Z</time>
      </trkpt>
      <trkpt lat="48.08355" lon="-3.00537">
        <ele>106.8</ele>
        <time>2023-04-10T06:04:47Z</time>
      </trkpt>
      <trkpt lat="48.08354" lon="-3.00539">
        <ele>107</ele>
        <time>2023-04-10T06:04:48Z</time>
      </trkpt>
      <trkpt lat="48.08354" lon="-3.00541">
        <ele>107.2</ele>
        <time>2023-04-10T06:04:49Z</time>
      </trkpt>
      <trkpt lat="48.08354" lon="-3.00543">
        <ele>107.4</ele>
        <time>2023-04-10T06:04:50Z</time>
      </trkpt>
      <trkpt lat="48.08354" lon="-3.00547">
        <ele>107.6</ele>
        <time>2023-04-10T06:04:51Z</time>
      </trkpt>
      <trkpt lat="48.08354" lon="-3.00549">
        <ele>107.8</ele>
        <time>2023-04-10T06:04:52Z</time>
      </trkpt>
      <trkpt lat="48.08355" lon="-3.00553">
        <ele>108</ele>
        <time>2023-04-10T06:04:53Z</time>
      </trkpt>
      <trkpt lat="48.08355" lon="-3.00554">
        <ele>108.2</ele>
        <time>2023-04-10T06:04:54Z</time>
      </trkpt>
      <trkpt lat="48.08355" lon="-3.00555">
        <ele>108.4</ele>
        <time>2023-04-10T06:04:55Z</time>
      </trkpt>
      <trkpt lat="48.08355" lon="-3.00557">
        <ele>108.6</ele>
        <time>2023-04-10T06:04:56Z</time>
      </trkpt>
      <trkpt lat="48.08355" lon="-3.0056">
        <ele>108.6</ele>
        <time>2023-04-10T06:04:57Z</time>
      </trkpt>
      <trkpt lat="48.08356" lon="-3.00563">
        <ele>109</ele>
        <time>2023-04-10T06:04:58Z</time>
      </trkpt>
      <trkpt lat="48.08356" lon="-3.00567">
        <ele>109.2</ele>
        <time>2023-04-10T06:04:59Z</time>
      </trkpt>
      <trkpt lat="48.08356" lon="-3.0057">
        <ele>109.2</ele>
        <time>2023-04-10T06:05:00Z</time>
      </trkpt>
      <trkpt lat="48.08356" lon="-3.00573">
        <ele>109.6</ele>
        <time>2023-04-10T06:05:01Z</time>
      </trkpt>
      <trkpt lat="48.08356" lon="-3.00576">
        <ele>109.6</ele>
        <time>2023-04-10T06:05:02Z</time>
      </trkpt>
      <trkpt lat="48.08356" lon="-3.00579">
        <ele>109.8</ele>
        <time>2023-04-10T06:05:03Z</time>
      </trkpt>
      <trkpt lat="48.08356" lon="-3.00581">
        <ele>109.8</ele>
        <time>2023-04-10T06:05:04Z</time>
      </trkpt>
      <trkpt lat="48.08357" lon="-3.00583">
        <ele>110.2</ele>
        <time>2023-04-10T06:05:05Z</time>
      </trkpt>
      <trkpt lat="48.08357" lon="-3.00583">
        <ele>110.4</ele>
        <time>2023-04-10T06:05:06Z</time>
      </trkpt>
      <trkpt lat="48.08357" lon="-3.00584">
        <ele>110.4</ele>
        <time>2023-04-10T06:05:07Z</time>
      </trkpt>
      <trkpt lat="48.08356" lon="-3.00586">
        <ele>110.4</ele>
        <time>2023-04-10T06:05:08Z</time>
      </trkpt>
      <trkpt lat="48.08357" lon="-3.00589">
        <ele>110.6</ele>
        <time>2023-04-10T06:05:09Z</time>
      </trkpt>
      <trkpt lat="48.08357" lon="-3.00593">
        <ele>110.8</ele>
        <time>2023-04-10T06:05:10Z</time>
      </trkpt>
      <trkpt lat="48.08356" lon="-3.00598">
        <ele>111</ele>
        <time>2023-04-10T06:05:11Z</time>
      </trkpt>
      <trkpt lat="48.08357" lon="-3.00601">
        <ele>111.2</ele>
        <time>2023-04-10T06:05:12Z</time>
      </trkpt>
      <trkpt lat="48.08357" lon="-3.00603">
        <ele>111.4</ele>
        <time>2023-04-10T06:05:13Z</time>
      </trkpt>
      <trkpt lat="48.08357" lon="-3.00606">
        <ele>111.6</ele>
        <time>2023-04-10T06:05:14Z</time>
      </trkpt>
      <trkpt lat="48.08357" lon="-3.00608">
        <ele>111.8</ele>
        <time>2023-04-10T06:05:15Z</time>
      </trkpt>
      <trkpt lat="48.08357" lon="-3.00612">
        <ele>112</ele>
        <time>2023-04-10T06:05:16Z</time>
      </trkpt>
      <trkpt lat="48.08357" lon="-3.00617">
        <ele>112</ele>
        <time>2023-04-10T06:05:17Z</time>
      </trkpt>
      <trkpt lat="48.08356" lon="-3.00622">
        <ele>112.2</ele>
        <time>2023-04-10T06:05:18Z</time>
      </trkpt>
      <trkpt lat="48.08357" lon="-3.00629">
        <ele>112.2</ele>
        <time>2023-04-10T06:05:19Z</time>
      </trkpt>
      <trkpt lat="48.08359" lon="-3.00637">
        <ele>112.2</ele>
        <time>2023-04-10T06:05:20Z</time>
      </trkpt>
      <trkpt lat="48.08361" lon="-3.00646">
        <ele>112.4</ele>
        <time>2023-04-10T06:05:21Z</time>
      </trkpt>
      <trkpt lat="48.08362" lon="-3.00652">
        <ele>112.4</ele>
        <time>2023-04-10T06:05:22Z</time>
      </trkpt>
      <trkpt lat="48.08364" lon="-3.00657">
        <ele>112.4</ele>
        <time>2023-04-10T06:05:23Z</time>
      </trkpt>
      <trkpt lat="48.08364" lon="-3.00665">
        <ele>112.4</ele>
        <time>2023-04-10T06:05:24Z</time>
      </trkpt>
      <trkpt lat="48.08365" lon="-3.00674">
        <ele>112.4</ele>
        <time>2023-04-10T06:05:25Z</time>
      </trkpt>
      <trkpt lat="48.08365" lon="-3.00682">
        <ele>112.4</ele>
        <time>2023-04-10T06:05:26Z</time>
      </trkpt>
      <trkpt lat="48.08364" lon="-3.00689">
        <ele>112.4</ele>
        <time>2023-04-10T06:05:27Z</time>
      </trkpt>
      <trkpt lat="48.08364" lon="-3.00694">
        <ele>112.2</ele>
        <time>2023-04-10T06:05:28Z</time>
      </trkpt>
      <trkpt lat="48.08363" lon="-3.007">
        <ele>112.2</ele>
        <time>2023-04-10T06:05:29Z</time>
      </trkpt>
      <trkpt lat="48.08362" lon="-3.00709">
        <ele>112.2</ele>
        <time>2023-04-10T06:05:30Z</time>
      </trkpt>
      <trkpt lat="48.08361" lon="-3.00716">
        <ele>112</ele>
        <time>2023-04-10T06:05:31Z</time>
      </trkpt>
      <trkpt lat="48.0836" lon="-3.00722">
        <ele>111.6</ele>
        <time>2023-04-10T06:05:32Z</time>
      </trkpt>
      <trkpt lat="48.0836" lon="-3.00727">
        <ele>111.4</ele>
        <time>2023-04-10T06:05:33Z</time>
      </trkpt>
      <trkpt lat="48.08359" lon="-3.00733">
        <ele>111.2</ele>
        <time>2023-04-10T06:05:34Z</time>
      </trkpt>
      <trkpt lat="48.0836" lon="-3.0074">
        <ele>111</ele>
        <time>2023-04-10T06:05:35Z</time>
      </trkpt>
      <trkpt lat="48.0836" lon="-3.00746">
        <ele>111</ele>
        <time>2023-04-10T06:05:36Z</time>
      </trkpt>
      <trkpt lat="48.08358" lon="-3.00759">
        <ele>110.8</ele>
        <time>2023-04-10T06:05:38Z</time>
      </trkpt>
      <trkpt lat="48.08358" lon="-3.00773">
        <ele>110.4</ele>
        <time>2023-04-10T06:05:40Z</time>
      </trkpt>
      <trkpt lat="48.08358" lon="-3.00779">
        <ele>110.2</ele>
        <time>2023-04-10T06:05:41Z</time>
      </trkpt>
      <trkpt lat="48.08357" lon="-3.00785">
        <ele>110</ele>
        <time>2023-04-10T06:05:43Z</time>
      </trkpt>
      <trkpt lat="48.08356" lon="-3.00789">
        <ele>110</ele>
        <time>2023-04-10T06:05:44Z</time>
      </trkpt>
      <trkpt lat="48.08356" lon="-3.00792">
        <ele>110</ele>
        <time>2023-04-10T06:05:45Z</time>
      </trkpt>
      <trkpt lat="48.08356" lon="-3.00797">
        <ele>110</ele>
        <time>2023-04-10T06:05:46Z</time>
      </trkpt>
      <trkpt lat="48.08353" lon="-3.00799">
        <ele>110</ele>
        <time>2023-04-10T06:05:47Z</time>
      </trkpt>
      <trkpt lat="48.0835" lon="-3.008">
        <ele>110</ele>
        <time>2023-04-10T06:05:48Z</time>
      </trkpt>
      <trkpt lat="48.08345" lon="-3.00802">
        <ele>110</ele>
        <time>2023-04-10T06:05:50Z</time>
      </trkpt>
      <trkpt lat="48.08343" lon="-3.00804">
        <ele>110</ele>
        <time>2023-04-10T06:05:51Z</time>
      </trkpt>
      <trkpt lat="48.08341" lon="-3.00806">
        <ele>110</ele>
        <time>2023-04-10T06:05:52Z</time>
      </trkpt>
      <trkpt lat="48.08339" lon="-3.00809">
        <ele>110</ele>
        <time>2023-04-10T06:05:53Z</time>
      </trkpt>
      <trkpt lat="48.08338" lon="-3.00811">
        <ele>110</ele>
        <time>2023-04-10T06:05:54Z</time>
      </trkpt>
      <trkpt lat="48.08335" lon="-3.00814">
        <ele>110.2</ele>
        <time>2023-04-10T06:05:56Z</time>
      </trkpt>
      <trkpt lat="48.08333" lon="-3.00815">
        <ele>110.2</ele>
        <time>2023-04-10T06:05:57Z</time>
      </trkpt>
      <trkpt lat="48.08331" lon="-3.00817">
        <ele>110.4</ele>
        <time>2023-04-10T06:05:58Z</time>
      </trkpt>
      <trkpt lat="48.08329" lon="-3.00819">
        <ele>110.4</ele>
        <time>2023-04-10T06:05:59Z</time>
      </trkpt>
      <trkpt lat="48.08328" lon="-3.00822">
        <ele>110.4</ele>
        <time>2023-04-10T06:06:00Z</time>
      </trkpt>
      <trkpt lat="48.08326" lon="-3.00829">
        <ele>110.6</ele>
        <time>2023-04-10T06:06:01Z</time>
      </trkpt>
      <trkpt lat="48.08326" lon="-3.00835">
        <ele>110.8</ele>
        <time>2023-04-10T06:06:03Z</time>
      </trkpt>
      <trkpt lat="48.08326" lon="-3.00837">
        <ele>111</ele>
        <time>2023-04-10T06:06:04Z</time>
      </trkpt>
      <trkpt lat="48.08326" lon="-3.0084">
        <ele>111</ele>
        <time>2023-04-10T06:06:05Z</time>
      </trkpt>
      <trkpt lat="48.08325" lon="-3.00843">
        <ele>111</ele>
        <time>2023-04-10T06:06:06Z</time>
      </trkpt>
      <trkpt lat="48.08324" lon="-3.00846">
        <ele>111</ele>
        <time>2023-04-10T06:06:07Z</time>
      </trkpt>
      <trkpt lat="48.08322" lon="-3.00848">
        <ele>111.2</ele>
        <time>2023-04-10T06:06:08Z</time>
      </trkpt>
      <trkpt lat="48.0832" lon="-3.00851">
        <ele>111.2</ele>
        <time>2023-04-10T06:06:09Z</time>
      </trkpt>
      <trkpt lat="48.08317" lon="-3.00854">
        <ele>111.2</ele>
        <time>2023-04-10T06:06:10Z</time>
      </trkpt>
      <trkpt lat="48.08314" lon="-3.00855">
        <ele>111.4</ele>
        <time>2023-04-10T06:06:11Z</time>
      </trkpt>
      <trkpt lat="48.08312" lon="-3.00856">
        <ele>111.4</ele>
        <time>2023-04-10T06:06:12Z</time>
      </trkpt>
      <trkpt lat="48.08311" lon="-3.00856">
        <ele>111.4</ele>
        <time>2023-04-10T06:06:13Z</time>
      </trkpt>
      <trkpt lat="48.08309" lon="-3.00856">
        <ele>111.4</ele>
        <time>2023-04-10T06:06:14Z</time>
      </trkpt>
      <trkpt lat="48.08308" lon="-3.00857">
        <ele>111.4</ele>
        <time>2023-04-10T06:06:15Z</time>
      </trkpt>
      <trkpt lat="48.08305" lon="-3.00859">
        <ele>111.4</ele>
        <time>2023-04-10T06:06:16Z</time>
      </trkpt>
      <trkpt lat="48.083" lon="-3.00863">
        <ele>111.6</ele>
        <time>2023-04-10T06:06:17Z</time>
      </trkpt>
      <trkpt lat="48.08297" lon="-3.00865">
        <ele>111.8</ele>
        <time>2023-04-10T06:06:18Z</time>
      </trkpt>
      <trkpt lat="48.08295" lon="-3.00867">
        <ele>111.8</ele>
        <time>2023-04-10T06:06:19Z</time>
      </trkpt>
      <trkpt lat="48.08294" lon="-3.00868">
        <ele>112</ele>
        <time>2023-04-10T06:06:20Z</time>
      </trkpt>
      <trkpt lat="48.08294" lon="-3.00869">
        <ele>112.2</ele>
        <time>2023-04-10T06:06:21Z</time>
      </trkpt>
      <trkpt lat="48.08295" lon="-3.00873">
        <ele>112.4</ele>
        <time>2023-04-10T06:06:22Z</time>
      </trkpt>
      <trkpt lat="48.08296" lon="-3.00875">
        <ele>112.6</ele>
        <time>2023-04-10T06:06:23Z</time>
      </trkpt>
      <trkpt lat="48.08295" lon="-3.00878">
        <ele>112.8</ele>
        <time>2023-04-10T06:06:24Z</time>
      </trkpt>
      <trkpt lat="48.08296" lon="-3.0088">
        <ele>113</ele>
        <time>2023-04-10T06:06:25Z</time>
      </trkpt>
      <trkpt lat="48.08297" lon="-3.00882">
        <ele>113.4</ele>
        <time>2023-04-10T06:06:26Z</time>
      </trkpt>
      <trkpt lat="48.08299" lon="-3.00886">
        <ele>113.6</ele>
        <time>2023-04-10T06:06:27Z</time>
      </trkpt>
      <trkpt lat="48.08301" lon="-3.00889">
        <ele>113.8</ele>
        <time>2023-04-10T06:06:28Z</time>
      </trkpt>
      <trkpt lat="48.08302" lon="-3.0089">
        <ele>114.4</ele>
        <time>2023-04-10T06:06:29Z</time>
      </trkpt>
      <trkpt lat="48.08304" lon="-3.00891">
        <ele>114.6</ele>
        <time>2023-04-10T06:06:30Z</time>
      </trkpt>
      <trkpt lat="48.08305" lon="-3.00891">
        <ele>114.8</ele>
        <time>2023-04-10T06:06:31Z</time>
      </trkpt>
      <trkpt lat="48.08305" lon="-3.0089">
        <ele>115.2</ele>
        <time>2023-04-10T06:06:32Z</time>
      </trkpt>
      <trkpt lat="48.08306" lon="-3.00891">
        <ele>115.4</ele>
        <time>2023-04-10T06:06:33Z</time>
      </trkpt>
      <trkpt lat="48.08307" lon="-3.00892">
        <ele>115.6</ele>
        <time>2023-04-10T06:06:34Z</time>
      </trkpt>
      <trkpt lat="48.08309" lon="-3.00895">
        <ele>116</ele>
        <time>2023-04-10T06:06:35Z</time>
      </trkpt>
      <trkpt lat="48.0831" lon="-3.00895">
        <ele>116.2</ele>
        <time>2023-04-10T06:06:36Z</time>
      </trkpt>
      <trkpt lat="48.08311" lon="-3.00895">
        <ele>116.2</ele>
        <time>2023-04-10T06:06:37Z</time>
      </trkpt>
      <trkpt lat="48.08312" lon="-3.00896">
        <ele>116.4</ele>
        <time>2023-04-10T06:06:38Z</time>
      </trkpt>
      <trkpt lat="48.08313" lon="-3.00896">
        <ele>116.8</ele>
        <time>2023-04-10T06:06:39Z</time>
      </trkpt>
      <trkpt lat="48.08314" lon="-3.00896">
        <ele>117.2</ele>
        <time>2023-04-10T06:06:40Z</time>
      </trkpt>
      <trkpt lat="48.08315" lon="-3.00896">
        <ele>117.4</ele>
        <time>2023-04-10T06:06:41Z</time>
      </trkpt>
      <trkpt lat="48.08316" lon="-3.00897">
        <ele>117.8</ele>
        <time>2023-04-10T06:06:42Z</time>
      </trkpt>
      <trkpt lat="48.08318" lon="-3.00898">
        <ele>118.2</ele>
        <time>2023-04-10T06:06:43Z</time>
      </trkpt>
      <trkpt lat="48.0832" lon="-3.00899">
        <ele>118.6</ele>
        <time>2023-04-10T06:06:44Z</time>
      </trkpt>
      <trkpt lat="48.08321" lon="-3.009">
        <ele>119</ele>
        <time>2023-04-10T06:06:45Z</time>
      </trkpt>
      <trkpt lat="48.08322" lon="-3.00901">
        <ele>119.4</ele>
        <time>2023-04-10T06:06:46Z</time>
      </trkpt>
      <trkpt lat="48.08324" lon="-3.00902">
        <ele>119.6</ele>
        <time>2023-04-10T06:06:47Z</time>
      </trkpt>
      <trkpt lat="48.08326" lon="-3.00904">
        <ele>119.8</ele>
        <time>2023-04-10T06:06:48Z</time>
      </trkpt>
      <trkpt lat="48.08328" lon="-3.00906">
        <ele>120</ele>
        <time>2023-04-10T06:06:49Z</time>
      </trkpt>
      <trkpt lat="48.08329" lon="-3.00909">
        <ele>120.4</ele>
        <time>2023-04-10T06:06:50Z</time>
      </trkpt>
      <trkpt lat="48.0833" lon="-3.00911">
        <ele>120.6</ele>
        <time>2023-04-10T06:06:51Z</time>
      </trkpt>
      <trkpt lat="48.08331" lon="-3.00914">
        <ele>121</ele>
        <time>2023-04-10T06:06:52Z</time>
      </trkpt>
      <trkpt lat="48.08332" lon="-3.00915">
        <ele>121.2</ele>
        <time>2023-04-10T06:06:53Z</time>
      </trkpt>
      <trkpt lat="48.08332" lon="-3.00918">
        <ele>121.6</ele>
        <time>2023-04-10T06:06:54Z</time>
      </trkpt>
      <trkpt lat="48.08332" lon="-3.00921">
        <ele>122</ele>
        <time>2023-04-10T06:06:55Z</time>
      </trkpt>
      <trkpt lat="48.08333" lon="-3.00923">
        <ele>122.4</ele>
        <time>2023-04-10T06:06:56Z</time>
      </trkpt>
      <trkpt lat="48.08334" lon="-3.00925">
        <ele>122.6</ele>
        <time>2023-04-10T06:06:57Z</time>
      </trkpt>
      <trkpt lat="48.08334" lon="-3.00927">
        <ele>122.6</ele>
        <time>2023-04-10T06:06:58Z</time>
      </trkpt>
      <trkpt lat="48.08334" lon="-3.00929">
        <ele>122.8</ele>
        <time>2023-04-10T06:06:59Z</time>
      </trkpt>
      <trkpt lat="48.08335" lon="-3.0093">
        <ele>123.2</ele>
        <time>2023-04-10T06:07:00Z</time>
      </trkpt>
      <trkpt lat="48.08335" lon="-3.00932">
        <ele>123.4</ele>
        <time>2023-04-10T06:07:01Z</time>
      </trkpt>
      <trkpt lat="48.08335" lon="-3.00935">
        <ele>123.8</ele>
        <time>2023-04-10T06:07:02Z</time>
      </trkpt>
      <trkpt lat="48.08334" lon="-3.00939">
        <ele>124</ele>
        <time>2023-04-10T06:07:03Z</time>
      </trkpt>
      <trkpt lat="48.08334" lon="-3.00942">
        <ele>124.2</ele>
        <time>2023-04-10T06:07:04Z</time>
      </trkpt>
      <trkpt lat="48.08333" lon="-3.00945">
        <ele>124.4</ele>
        <time>2023-04-10T06:07:05Z</time>
      </trkpt>
      <trkpt lat="48.08333" lon="-3.00947">
        <ele>124.6</ele>
        <time>2023-04-10T06:07:06Z</time>
      </trkpt>
      <trkpt lat="48.08334" lon="-3.00949">
        <ele>124.8</ele>
        <time>2023-04-10T06:07:07Z</time>
      </trkpt>
      <trkpt lat="48.08333" lon="-3.00951">
        <ele>125</ele>
        <time>2023-04-10T06:07:08Z</time>
      </trkpt>
      <trkpt lat="48.08333" lon="-3.00953">
        <ele>125.2</ele>
        <time>2023-04-10T06:07:09Z</time>
      </trkpt>
      <trkpt lat="48.08333" lon="-3.00955">
        <ele>125.2</ele>
        <time>2023-04-10T06:07:10Z</time>
      </trkpt>
      <trkpt lat="48.08333" lon="-3.00956">
        <ele>125.4</ele>
        <time>2023-04-10T06:07:11Z</time>
      </trkpt>
      <trkpt lat="48.08332" lon="-3.00958">
        <ele>125.6</ele>
        <time>2023-04-10T06:07:12Z</time>
      </trkpt>
      <trkpt lat="48.08331" lon="-3.00959">
        <ele>125.8</ele>
        <time>2023-04-10T06:07:13Z</time>
      </trkpt>
      <trkpt lat="48.0833" lon="-3.0096">
        <ele>125.8</ele>
        <time>2023-04-10T06:07:14Z</time>
      </trkpt>
      <trkpt lat="48.08329" lon="-3.00962">
        <ele>126</ele>
        <time>2023-04-10T06:07:15Z</time>
      </trkpt>
      <trkpt lat="48.08329" lon="-3.00964">
        <ele>126</ele>
        <time>2023-04-10T06:07:16Z</time>
      </trkpt>
      <trkpt lat="48.08328" lon="-3.00966">
        <ele>126</ele>
        <time>2023-04-10T06:07:17Z</time>
      </trkpt>
      <trkpt lat="48.08328" lon="-3.00968">
        <ele>126.2</ele>
        <time>2023-04-10T06:07:18Z</time>
      </trkpt>
      <trkpt lat="48.08329" lon="-3.0097">
        <ele>126.2</ele>
        <time>2023-04-10T06:07:19Z</time>
      </trkpt>
      <trkpt lat="48.08329" lon="-3.00971">
        <ele>126.2</ele>
        <time>2023-04-10T06:07:20Z</time>
      </trkpt>
      <trkpt lat="48.08329" lon="-3.00973">
        <ele>126.4</ele>
        <time>2023-04-10T06:07:21Z</time>
      </trkpt>
      <trkpt lat="48.08329" lon="-3.00975">
        <ele>126.6</ele>
        <time>2023-04-10T06:07:22Z</time>
      </trkpt>
      <trkpt lat="48.08329" lon="-3.00977">
        <ele>126.6</ele>
        <time>2023-04-10T06:07:23Z</time>
      </trkpt>
      <trkpt lat="48.0833" lon="-3.00979">
        <ele>126.8</ele>
        <time>2023-04-10T06:07:24Z</time>
      </trkpt>
      <trkpt lat="48.0833" lon="-3.0098">
        <ele>127</ele>
        <time>2023-04-10T06:07:25Z</time>
      </trkpt>
      <trkpt lat="48.0833" lon="-3.00982">
        <ele>127.2</ele>
        <time>2023-04-10T06:07:26Z</time>
      </trkpt>
      <trkpt lat="48.0833" lon="-3.00982">
        <ele>127.2</ele>
        <time>2023-04-10T06:07:27Z</time>
      </trkpt>
      <trkpt lat="48.0833" lon="-3.00986">
        <ele>128.4</ele>
        <time>2023-04-10T06:07:32Z</time>
      </trkpt>
      <trkpt lat="48.0833" lon="-3.00987">
        <ele>128.6</ele>
        <time>2023-04-10T06:07:33Z</time>
      </trkpt>
      <trkpt lat="48.08329" lon="-3.00989">
        <ele>128.8</ele>
        <time>2023-04-10T06:07:34Z</time>
      </trkpt>
      <trkpt lat="48.08329" lon="-3.00991">
        <ele>128.8</ele>
        <time>2023-04-10T06:07:35Z</time>
      </trkpt>
      <trkpt lat="48.08329" lon="-3.00993">
        <ele>128.8</ele>
        <time>2023-04-10T06:07:36Z</time>
      </trkpt>
      <trkpt lat="48.08328" lon="-3.00995">
        <ele>129</ele>
        <time>2023-04-10T06:07:37Z</time>
      </trkpt>
      <trkpt lat="48.08328" lon="-3.00998">
        <ele>129</ele>
        <time>2023-04-10T06:07:38Z</time>
      </trkpt>
      <trkpt lat="48.08328" lon="-3.01001">
        <ele>129.2</ele>
        <time>2023-04-10T06:07:39Z</time>
      </trkpt>
      <trkpt lat="48.08328" lon="-3.01002">
        <ele>129.2</ele>
        <time>2023-04-10T06:07:40Z</time>
      </trkpt>
      <trkpt lat="48.08328" lon="-3.01005">
        <ele>129.2</ele>
        <time>2023-04-10T06:07:41Z</time>
      </trkpt>
      <trkpt lat="48.08329" lon="-3.01007">
        <ele>129.4</ele>
        <time>2023-04-10T06:07:42Z</time>
      </trkpt>
      <trkpt lat="48.08329" lon="-3.0101">
        <ele>129.4</ele>
        <time>2023-04-10T06:07:43Z</time>
      </trkpt>
      <trkpt lat="48.08329" lon="-3.01012">
        <ele>129.4</ele>
        <time>2023-04-10T06:07:44Z</time>
      </trkpt>
      <trkpt lat="48.08329" lon="-3.01014">
        <ele>129.6</ele>
        <time>2023-04-10T06:07:45Z</time>
      </trkpt>
      <trkpt lat="48.08329" lon="-3.01016">
        <ele>129.8</ele>
        <time>2023-04-10T06:07:46Z</time>
      </trkpt>
      <trkpt lat="48.08328" lon="-3.01019">
        <ele>130</ele>
        <time>2023-04-10T06:07:47Z</time>
      </trkpt>
      <trkpt lat="48.08328" lon="-3.01022">
        <ele>130</ele>
        <time>2023-04-10T06:07:48Z</time>
      </trkpt>
      <trkpt lat="48.08328" lon="-3.01026">
        <ele>130.2</ele>
        <time>2023-04-10T06:07:49Z</time>
      </trkpt>
      <trkpt lat="48.08327" lon="-3.01029">
        <ele>130.4</ele>
        <time>2023-04-10T06:07:50Z</time>
      </trkpt>
      <trkpt lat="48.08326" lon="-3.01031">
        <ele>130.6</ele>
        <time>2023-04-10T06:07:51Z</time>
      </trkpt>
      <trkpt lat="48.08326" lon="-3.01036">
        <ele>130.6</ele>
        <time>2023-04-10T06:07:52Z</time>
      </trkpt>
      <trkpt lat="48.08326" lon="-3.01039">
        <ele>130.8</ele>
        <time>2023-04-10T06:07:53Z</time>
      </trkpt>
      <trkpt lat="48.08325" lon="-3.01042">
        <ele>131</ele>
        <time>2023-04-10T06:07:54Z</time>
      </trkpt>
      <trkpt lat="48.08325" lon="-3.01045">
        <ele>131.2</ele>
        <time>2023-04-10T06:07:55Z</time>
      </trkpt>
      <trkpt lat="48.08325" lon="-3.01046">
        <ele>131.4</ele>
        <time>2023-04-10T06:07:56Z</time>
      </trkpt>
      <trkpt lat="48.08325" lon="-3.01049">
        <ele>131.4</ele>
        <time>2023-04-10T06:07:57Z</time>
      </trkpt>
      <trkpt lat="48.08325" lon="-3.01053">
        <ele>131.6</ele>
        <time>2023-04-10T06:07:58Z</time>
      </trkpt>
      <trkpt lat="48.08325" lon="-3.01054">
        <ele>131.8</ele>
        <time>2023-04-10T06:07:59Z</time>
      </trkpt>
      <trkpt lat="48.08324" lon="-3.01056">
        <ele>132</ele>
        <time>2023-04-10T06:08:00Z</time>
      </trkpt>
      <trkpt lat="48.08324" lon="-3.01059">
        <ele>132.2</ele>
        <time>2023-04-10T06:08:01Z</time>
      </trkpt>
      <trkpt lat="48.08324" lon="-3.01061">
        <ele>132.2</ele>
        <time>2023-04-10T06:08:02Z</time>
      </trkpt>
      <trkpt lat="48.08324" lon="-3.01062">
        <ele>132.4</ele>
        <time>2023-04-10T06:08:03Z</time>
      </trkpt>
      <trkpt lat="48.08324" lon="-3.01064">
        <ele>132.6</ele>
        <time>2023-04-10T06:08:04Z</time>
      </trkpt>
      <trkpt lat="48.08324" lon="-3.01065">
        <ele>132.6</ele>
        <time>2023-04-10T06:08:05Z</time>
      </trkpt>
      <trkpt lat="48.08324" lon="-3.01068">
        <ele>132.6</ele>
        <time>2023-04-10T06:08:06Z</time>
      </trkpt>
      <trkpt lat="48.08323" lon="-3.01071">
        <ele>132.8</ele>
        <time>2023-04-10T06:08:07Z</time>
      </trkpt>
      <trkpt lat="48.08322" lon="-3.01073">
        <ele>132.8</ele>
        <time>2023-04-10T06:08:08Z</time>
      </trkpt>
      <trkpt lat="48.08322" lon="-3.01075">
        <ele>133</ele>
        <time>2023-04-10T06:08:09Z</time>
      </trkpt>
      <trkpt lat="48.08323" lon="-3.01075">
        <ele>133.2</ele>
        <time>2023-04-10T06:08:10Z</time>
      </trkpt>
      <trkpt lat="48.08323" lon="-3.01076">
        <ele>133.4</ele>
        <time>2023-04-10T06:08:11Z</time>
      </trkpt>
      <trkpt lat="48.08322" lon="-3.01078">
        <ele>133.6</ele>
        <time>2023-04-10T06:08:12Z</time>
      </trkpt>
      <trkpt lat="48.08322" lon="-3.01079">
        <ele>133.8</ele>
        <time>2023-04-10T06:08:13Z</time>
      </trkpt>
      <trkpt lat="48.08321" lon="-3.01081">
        <ele>134</ele>
        <time>2023-04-10T06:08:14Z</time>
      </trkpt>
      <trkpt lat="48.0832" lon="-3.01083">
        <ele>134.2</ele>
        <time>2023-04-10T06:08:15Z</time>
      </trkpt>
      <trkpt lat="48.08319" lon="-3.01086">
        <ele>134.4</ele>
        <time>2023-04-10T06:08:16Z</time>
      </trkpt>
      <trkpt lat="48.08319" lon="-3.01089">
        <ele>134.6</ele>
        <time>2023-04-10T06:08:17Z</time>
      </trkpt>
      <trkpt lat="48.08319" lon="-3.01091">
        <ele>134.8</ele>
        <time>2023-04-10T06:08:18Z</time>
      </trkpt>
      <trkpt lat="48.08318" lon="-3.01093">
        <ele>135</ele>
        <time>2023-04-10T06:08:19Z</time>
      </trkpt>
      <trkpt lat="48.08318" lon="-3.01095">
        <ele>135.2</ele>
        <time>2023-04-10T06:08:20Z</time>
      </trkpt>
      <trkpt lat="48.08317" lon="-3.01098">
        <ele>135.4</ele>
        <time>2023-04-10T06:08:21Z</time>
      </trkpt>
      <trkpt lat="48.08316" lon="-3.011">
        <ele>135.6</ele>
        <time>2023-04-10T06:08:22Z</time>
      </trkpt>
      <trkpt lat="48.08316" lon="-3.01104">
        <ele>135.8</ele>
        <time>2023-04-10T06:08:23Z</time>
      </trkpt>
      <trkpt lat="48.08316" lon="-3.01106">
        <ele>135.8</ele>
        <time>2023-04-10T06:08:24Z</time>
      </trkpt>
      <trkpt lat="48.08317" lon="-3.01109">
        <ele>136</ele>
        <time>2023-04-10T06:08:25Z</time>
      </trkpt>
      <trkpt lat="48.08317" lon="-3.01112">
        <ele>136.2</ele>
        <time>2023-04-10T06:08:26Z</time>
      </trkpt>
      <trkpt lat="48.08317" lon="-3.01114">
        <ele>136.4</ele>
        <time>2023-04-10T06:08:27Z</time>
      </trkpt>
      <trkpt lat="48.08316" lon="-3.01115">
        <ele>136.4</ele>
        <time>2023-04-10T06:08:28Z</time>
      </trkpt>
      <trkpt lat="48.08317" lon="-3.01116">
        <ele>136.6</ele>
        <time>2023-04-10T06:08:29Z</time>
      </trkpt>
      <trkpt lat="48.08317" lon="-3.01117">
        <ele>136.8</ele>
        <time>2023-04-10T06:08:30Z</time>
      </trkpt>
      <trkpt lat="48.08316" lon="-3.01121">
        <ele>137</ele>
        <time>2023-04-10T06:08:31Z</time>
      </trkpt>
      <trkpt lat="48.08316" lon="-3.01124">
        <ele>137.2</ele>
        <time>2023-04-10T06:08:32Z</time>
      </trkpt>
      <trkpt lat="48.08317" lon="-3.01127">
        <ele>137.4</ele>
        <time>2023-04-10T06:08:33Z</time>
      </trkpt>
      <trkpt lat="48.08317" lon="-3.01129">
        <ele>137.8</ele>
        <time>2023-04-10T06:08:34Z</time>
      </trkpt>
      <trkpt lat="48.08318" lon="-3.01131">
        <ele>138</ele>
        <time>2023-04-10T06:08:35Z</time>
      </trkpt>
      <trkpt lat="48.08319" lon="-3.01133">
        <ele>138.2</ele>
        <time>2023-04-10T06:08:36Z</time>
      </trkpt>
      <trkpt lat="48.0832" lon="-3.01134">
        <ele>138.6</ele>
        <time>2023-04-10T06:08:37Z</time>
      </trkpt>
      <trkpt lat="48.08322" lon="-3.01135">
        <ele>138.8</ele>
        <time>2023-04-10T06:08:38Z</time>
      </trkpt>
      <trkpt lat="48.08324" lon="-3.01137">
        <ele>139</ele>
        <time>2023-04-10T06:08:39Z</time>
      </trkpt>
      <trkpt lat="48.08326" lon="-3.01138">
        <ele>139.2</ele>
        <time>2023-04-10T06:08:40Z</time>
      </trkpt>
      <trkpt lat="48.08329" lon="-3.0114">
        <ele>139.2</ele>
        <time>2023-04-10T06:08:41Z</time>
      </trkpt>
      <trkpt lat="48.08333" lon="-3.01142">
        <ele>139.2</ele>
        <time>2023-04-10T06:08:42Z</time>
      </trkpt>
      <trkpt lat="48.08338" lon="-3.01144">
        <ele>139.2</ele>
        <time>2023-04-10T06:08:43Z</time>
      </trkpt>
      <trkpt lat="48.08343" lon="-3.01148">
        <ele>139.2</ele>
        <time>2023-04-10T06:08:44Z</time>
      </trkpt>
      <trkpt lat="48.08347" lon="-3.01152">
        <ele>139.2</ele>
        <time>2023-04-10T06:08:45Z</time>
      </trkpt>
      <trkpt lat="48.08354" lon="-3.01156">
        <ele>139.2</ele>
        <time>2023-04-10T06:08:46Z</time>
      </trkpt>
      <trkpt lat="48.08359" lon="-3.0116">
        <ele>139.2</ele>
        <time>2023-04-10T06:08:47Z</time>
      </trkpt>
      <trkpt lat="48.08365" lon="-3.01165">
        <ele>139.2</ele>
        <time>2023-04-10T06:08:48Z</time>
      </trkpt>
      <trkpt lat="48.08371" lon="-3.0117">
        <ele>139.2</ele>
        <time>2023-04-10T06:08:49Z</time>
      </trkpt>
      <trkpt lat="48.08377" lon="-3.01176">
        <ele>139.2</ele>
        <time>2023-04-10T06:08:50Z</time>
      </trkpt>
      <trkpt lat="48.08385" lon="-3.01183">
        <ele>139</ele>
        <time>2023-04-10T06:08:51Z</time>
      </trkpt>
      <trkpt lat="48.08392" lon="-3.01188">
        <ele>138.8</ele>
        <time>2023-04-10T06:08:52Z</time>
      </trkpt>
      <trkpt lat="48.08403" lon="-3.01197">
        <ele>138.4</ele>
        <time>2023-04-10T06:08:53Z</time>
      </trkpt>
      <trkpt lat="48.0841" lon="-3.01202">
        <ele>138.2</ele>
        <time>2023-04-10T06:08:54Z</time>
      </trkpt>
      <trkpt lat="48.08421" lon="-3.01212">
        <ele>137.8</ele>
        <time>2023-04-10T06:08:55Z</time>
      </trkpt>
      <trkpt lat="48.08437" lon="-3.01225">
        <ele>136.4</ele>
        <time>2023-04-10T06:08:57Z</time>
      </trkpt>
      <trkpt lat="48.08448" lon="-3.01233">
        <ele>136</ele>
        <time>2023-04-10T06:08:58Z</time>
      </trkpt>
      <trkpt lat="48.08456" lon="-3.01237">
        <ele>135.4</ele>
        <time>2023-04-10T06:08:59Z</time>
      </trkpt>
      <trkpt lat="48.08464" lon="-3.0124">
        <ele>134.8</ele>
        <time>2023-04-10T06:09:00Z</time>
      </trkpt>
      <trkpt lat="48.0847" lon="-3.01241">
        <ele>134.2</ele>
        <time>2023-04-10T06:09:01Z</time>
      </trkpt>
      <trkpt lat="48.0849" lon="-3.01243">
        <ele>132.8</ele>
        <time>2023-04-10T06:09:03Z</time>
      </trkpt>
      <trkpt lat="48.08498" lon="-3.01246">
        <ele>131.6</ele>
        <time>2023-04-10T06:09:04Z</time>
      </trkpt>
      <trkpt lat="48.08504" lon="-3.01251">
        <ele>130.8</ele>
        <time>2023-04-10T06:09:05Z</time>
      </trkpt>
      <trkpt lat="48.08512" lon="-3.01259">
        <ele>129.6</ele>
        <time>2023-04-10T06:09:06Z</time>
      </trkpt>
      <trkpt lat="48.08518" lon="-3.01267">
        <ele>128.4</ele>
        <time>2023-04-10T06:09:07Z</time>
      </trkpt>
      <trkpt lat="48.08525" lon="-3.01275">
        <ele>127.6</ele>
        <time>2023-04-10T06:09:08Z</time>
      </trkpt>
      <trkpt lat="48.08532" lon="-3.01284">
        <ele>126.8</ele>
        <time>2023-04-10T06:09:09Z</time>
      </trkpt>
      <trkpt lat="48.08539" lon="-3.01293">
        <ele>126</ele>
        <time>2023-04-10T06:09:10Z</time>
      </trkpt>
      <trkpt lat="48.08546" lon="-3.01302">
        <ele>125.4</ele>
        <time>2023-04-10T06:09:11Z</time>
      </trkpt>
      <trkpt lat="48.0856" lon="-3.01324">
        <ele>124.8</ele>
        <time>2023-04-10T06:09:13Z</time>
      </trkpt>
      <trkpt lat="48.08573" lon="-3.01345">
        <ele>123.8</ele>
        <time>2023-04-10T06:09:15Z</time>
      </trkpt>
      <trkpt lat="48.08588" lon="-3.01367">
        <ele>122</ele>
        <time>2023-04-10T06:09:17Z</time>
      </trkpt>
      <trkpt lat="48.08596" lon="-3.01378">
        <ele>121.4</ele>
        <time>2023-04-10T06:09:18Z</time>
      </trkpt>
      <trkpt lat="48.08603" lon="-3.01387">
        <ele>120.8</ele>
        <time>2023-04-10T06:09:19Z</time>
      </trkpt>
      <trkpt lat="48.0861" lon="-3.01397">
        <ele>120.2</ele>
        <time>2023-04-10T06:09:20Z</time>
      </trkpt>
      <trkpt lat="48.08616" lon="-3.01406">
        <ele>119</ele>
        <time>2023-04-10T06:09:21Z</time>
      </trkpt>
      <trkpt lat="48.08622" lon="-3.01414">
        <ele>118</ele>
        <time>2023-04-10T06:09:22Z</time>
      </trkpt>
      <trkpt lat="48.08628" lon="-3.01422">
        <ele>117.2</ele>
        <time>2023-04-10T06:09:23Z</time>
      </trkpt>
      <trkpt lat="48.08634" lon="-3.0143">
        <ele>116.2</ele>
        <time>2023-04-10T06:09:24Z</time>
      </trkpt>
      <trkpt lat="48.08638" lon="-3.01441">
        <ele>115.2</ele>
        <time>2023-04-10T06:09:25Z</time>
      </trkpt>
      <trkpt lat="48.08639" lon="-3.01448">
        <ele>114.4</ele>
        <time>2023-04-10T06:09:26Z</time>
      </trkpt>
      <trkpt lat="48.08641" lon="-3.01457">
        <ele>113.8</ele>
        <time>2023-04-10T06:09:27Z</time>
      </trkpt>
      <trkpt lat="48.08642" lon="-3.01466">
        <ele>113</ele>
        <time>2023-04-10T06:09:28Z</time>
      </trkpt>
      <trkpt lat="48.08642" lon="-3.01475">
        <ele>112.4</ele>
        <time>2023-04-10T06:09:29Z</time>
      </trkpt>
      <trkpt lat="48.08642" lon="-3.01484">
        <ele>111.2</ele>
        <time>2023-04-10T06:09:30Z</time>
      </trkpt>
      <trkpt lat="48.08642" lon="-3.01494">
        <ele>110</ele>
        <time>2023-04-10T06:09:31Z</time>
      </trkpt>
      <trkpt lat="48.08641" lon="-3.01503">
        <ele>109</ele>
        <time>2023-04-10T06:09:32Z</time>
      </trkpt>
      <trkpt lat="48.0864" lon="-3.01511">
        <ele>107.8</ele>
        <time>2023-04-10T06:09:33Z</time>
      </trkpt>
      <trkpt lat="48.0864" lon="-3.01518">
        <ele>107.8</ele>
        <time>2023-04-10T06:09:34Z</time>
      </trkpt>
      <trkpt lat="48.08639" lon="-3.01525">
        <ele>107</ele>
        <time>2023-04-10T06:09:35Z</time>
      </trkpt>
      <trkpt lat="48.08638" lon="-3.01532">
        <ele>106.2</ele>
        <time>2023-04-10T06:09:36Z</time>
      </trkpt>
      <trkpt lat="48.08638" lon="-3.01538">
        <ele>105.8</ele>
        <time>2023-04-10T06:09:37Z</time>
      </trkpt>
      <trkpt lat="48.08637" lon="-3.01544">
        <ele>105.6</ele>
        <time>2023-04-10T06:09:38Z</time>
      </trkpt>
      <trkpt lat="48.08637" lon="-3.0155">
        <ele>105.4</ele>
        <time>2023-04-10T06:09:39Z</time>
      </trkpt>
      <trkpt lat="48.08637" lon="-3.01563">
        <ele>105.4</ele>
        <time>2023-04-10T06:09:41Z</time>
      </trkpt>
      <trkpt lat="48.08638" lon="-3.0157">
        <ele>105.4</ele>
        <time>2023-04-10T06:09:42Z</time>
      </trkpt>
      <trkpt lat="48.0864" lon="-3.01575">
        <ele>105.4</ele>
        <time>2023-04-10T06:09:43Z</time>
      </trkpt>
      <trkpt lat="48.08645" lon="-3.01588">
        <ele>105.2</ele>
        <time>2023-04-10T06:09:45Z</time>
      </trkpt>
      <trkpt lat="48.0865" lon="-3.01603">
        <ele>105.2</ele>
        <time>2023-04-10T06:09:47Z</time>
      </trkpt>
      <trkpt lat="48.08657" lon="-3.01628">
        <ele>105.2</ele>
        <time>2023-04-10T06:09:50Z</time>
      </trkpt>
      <trkpt lat="48.08671" lon="-3.01672">
        <ele>105.2</ele>
        <time>2023-04-10T06:09:55Z</time>
      </trkpt>
      <trkpt lat="48.08678" lon="-3.01689">
        <ele>104.8</ele>
        <time>2023-04-10T06:09:57Z</time>
      </trkpt>
      <trkpt lat="48.08682" lon="-3.01698">
        <ele>104.8</ele>
        <time>2023-04-10T06:09:58Z</time>
      </trkpt>
      <trkpt lat="48.08685" lon="-3.01706">
        <ele>104.6</ele>
        <time>2023-04-10T06:09:59Z</time>
      </trkpt>
      <trkpt lat="48.08686" lon="-3.01714">
        <ele>104.4</ele>
        <time>2023-04-10T06:10:00Z</time>
      </trkpt>
      <trkpt lat="48.08687" lon="-3.01721">
        <ele>104</ele>
        <time>2023-04-10T06:10:01Z</time>
      </trkpt>
      <trkpt lat="48.08688" lon="-3.01729">
        <ele>103.8</ele>
        <time>2023-04-10T06:10:02Z</time>
      </trkpt>
      <trkpt lat="48.08689" lon="-3.01735">
        <ele>103.6</ele>
        <time>2023-04-10T06:10:03Z</time>
      </trkpt>
      <trkpt lat="48.08689" lon="-3.01742">
        <ele>103.6</ele>
        <time>2023-04-10T06:10:04Z</time>
      </trkpt>
      <trkpt lat="48.08689" lon="-3.01749">
        <ele>103.6</ele>
        <time>2023-04-10T06:10:05Z</time>
      </trkpt>
      <trkpt lat="48.0869" lon="-3.01755">
        <ele>103.6</ele>
        <time>2023-04-10T06:10:06Z</time>
      </trkpt>
      <trkpt lat="48.0869" lon="-3.01762">
        <ele>103.6</ele>
        <time>2023-04-10T06:10:07Z</time>
      </trkpt>
      <trkpt lat="48.08691" lon="-3.01767">
        <ele>103.6</ele>
        <time>2023-04-10T06:10:08Z</time>
      </trkpt>
      <trkpt lat="48.08692" lon="-3.01773">
        <ele>103.6</ele>
        <time>2023-04-10T06:10:09Z</time>
      </trkpt>
      <trkpt lat="48.08693" lon="-3.01779">
        <ele>103.6</ele>
        <time>2023-04-10T06:10:10Z</time>
      </trkpt>
      <trkpt lat="48.08694" lon="-3.01784">
        <ele>103.6</ele>
        <time>2023-04-10T06:10:11Z</time>
      </trkpt>
      <trkpt lat="48.08695" lon="-3.01789">
        <ele>103.6</ele>
        <time>2023-04-10T06:10:12Z</time>
      </trkpt>
      <trkpt lat="48.08697" lon="-3.01793">
        <ele>103.6</ele>
        <time>2023-04-10T06:10:13Z</time>
      </trkpt>
      <trkpt lat="48.08699" lon="-3.01797">
        <ele>103.6</ele>
        <time>2023-04-10T06:10:14Z</time>
      </trkpt>
      <trkpt lat="48.08701" lon="-3.01801">
        <ele>104</ele>
        <time>2023-04-10T06:10:15Z</time>
      </trkpt>
      <trkpt lat="48.08703" lon="-3.01805">
        <ele>104.2</ele>
        <time>2023-04-10T06:10:16Z</time>
      </trkpt>
      <trkpt lat="48.08705" lon="-3.01808">
        <ele>104.4</ele>
        <time>2023-04-10T06:10:17Z</time>
      </trkpt>
      <trkpt lat="48.08707" lon="-3.01811">
        <ele>104.6</ele>
        <time>2023-04-10T06:10:18Z</time>
      </trkpt>
      <trkpt lat="48.0871" lon="-3.01814">
        <ele>104.8</ele>
        <time>2023-04-10T06:10:19Z</time>
      </trkpt>
      <trkpt lat="48.08715" lon="-3.01819">
        <ele>105.2</ele>
        <time>2023-04-10T06:10:21Z</time>
      </trkpt>
      <trkpt lat="48.08723" lon="-3.01825">
        <ele>106</ele>
        <time>2023-04-10T06:10:24Z</time>
      </trkpt>
      <trkpt lat="48.08726" lon="-3.01827">
        <ele>106.4</ele>
        <time>2023-04-10T06:10:25Z</time>
      </trkpt>
      <trkpt lat="48.08733" lon="-3.0183">
        <ele>107.2</ele>
        <time>2023-04-10T06:10:28Z</time>
      </trkpt>
      <trkpt lat="48.08735" lon="-3.01831">
        <ele>107.4</ele>
        <time>2023-04-10T06:10:29Z</time>
      </trkpt>
      <trkpt lat="48.08738" lon="-3.01832">
        <ele>107.6</ele>
        <time>2023-04-10T06:10:30Z</time>
      </trkpt>
      <trkpt lat="48.0874" lon="-3.01833">
        <ele>107.8</ele>
        <time>2023-04-10T06:10:31Z</time>
      </trkpt>
      <trkpt lat="48.08743" lon="-3.01835">
        <ele>108.2</ele>
        <time>2023-04-10T06:10:32Z</time>
      </trkpt>
      <trkpt lat="48.08745" lon="-3.01836">
        <ele>108.4</ele>
        <time>2023-04-10T06:10:33Z</time>
      </trkpt>
      <trkpt lat="48.08747" lon="-3.01839">
        <ele>108.6</ele>
        <time>2023-04-10T06:10:34Z</time>
      </trkpt>
      <trkpt lat="48.0875" lon="-3.01841">
        <ele>109</ele>
        <time>2023-04-10T06:10:35Z</time>
      </trkpt>
      <trkpt lat="48.08753" lon="-3.01843">
        <ele>109.2</ele>
        <time>2023-04-10T06:10:36Z</time>
      </trkpt>
      <trkpt lat="48.08756" lon="-3.01845">
        <ele>109.4</ele>
        <time>2023-04-10T06:10:37Z</time>
      </trkpt>
      <trkpt lat="48.08759" lon="-3.01847">
        <ele>109.6</ele>
        <time>2023-04-10T06:10:38Z</time>
      </trkpt>
      <trkpt lat="48.08762" lon="-3.01849">
        <ele>109.8</ele>
        <time>2023-04-10T06:10:39Z</time>
      </trkpt>
      <trkpt lat="48.08765" lon="-3.01852">
        <ele>110.2</ele>
        <time>2023-04-10T06:10:40Z</time>
      </trkpt>
      <trkpt lat="48.08767" lon="-3.01854">
        <ele>110.4</ele>
        <time>2023-04-10T06:10:41Z</time>
      </trkpt>
      <trkpt lat="48.08769" lon="-3.01856">
        <ele>110.4</ele>
        <time>2023-04-10T06:10:42Z</time>
      </trkpt>
      <trkpt lat="48.08772" lon="-3.01859">
        <ele>110.6</ele>
        <time>2023-04-10T06:10:43Z</time>
      </trkpt>
      <trkpt lat="48.08775" lon="-3.01863">
        <ele>110.8</ele>
        <time>2023-04-10T06:10:44Z</time>
      </trkpt>
      <trkpt lat="48.08776" lon="-3.01866">
        <ele>111</ele>
        <time>2023-04-10T06:10:45Z</time>
      </trkpt>
      <trkpt lat="48.08778" lon="-3.01869">
        <ele>111.2</ele>
        <time>2023-04-10T06:10:46Z</time>
      </trkpt>
      <trkpt lat="48.0878" lon="-3.01872">
        <ele>111.4</ele>
        <time>2023-04-10T06:10:47Z</time>
      </trkpt>
      <trkpt lat="48.08783" lon="-3.01877">
        <ele>111.8</ele>
        <time>2023-04-10T06:10:48Z</time>
      </trkpt>
      <trkpt lat="48.08784" lon="-3.0188">
        <ele>112</ele>
        <time>2023-04-10T06:10:49Z</time>
      </trkpt>
      <trkpt lat="48.08786" lon="-3.01884">
        <ele>112.2</ele>
        <time>2023-04-10T06:10:50Z</time>
      </trkpt>
      <trkpt lat="48.08788" lon="-3.01888">
        <ele>112.6</ele>
        <time>2023-04-10T06:10:51Z</time>
      </trkpt>
      <trkpt lat="48.0879" lon="-3.01893">
        <ele>112.8</ele>
        <time>2023-04-10T06:10:52Z</time>
      </trkpt>
      <trkpt lat="48.08792" lon="-3.01896">
        <ele>113</ele>
        <time>2023-04-10T06:10:53Z</time>
      </trkpt>
      <trkpt lat="48.08794" lon="-3.019">
        <ele>113.2</ele>
        <time>2023-04-10T06:10:54Z</time>
      </trkpt>
      <trkpt lat="48.08796" lon="-3.01905">
        <ele>113.4</ele>
        <time>2023-04-10T06:10:55Z</time>
      </trkpt>
      <trkpt lat="48.08798" lon="-3.01909">
        <ele>113.6</ele>
        <time>2023-04-10T06:10:56Z</time>
      </trkpt>
      <trkpt lat="48.08799" lon="-3.01913">
        <ele>114</ele>
        <time>2023-04-10T06:10:57Z</time>
      </trkpt>
      <trkpt lat="48.088" lon="-3.01917">
        <ele>114.2</ele>
        <time>2023-04-10T06:10:58Z</time>
      </trkpt>
      <trkpt lat="48.08801" lon="-3.01921">
        <ele>114.4</ele>
        <time>2023-04-10T06:10:59Z</time>
      </trkpt>
      <trkpt lat="48.08802" lon="-3.01925">
        <ele>114.8</ele>
        <time>2023-04-10T06:11:00Z</time>
      </trkpt>
      <trkpt lat="48.08804" lon="-3.01929">
        <ele>115</ele>
        <time>2023-04-10T06:11:01Z</time>
      </trkpt>
      <trkpt lat="48.08805" lon="-3.01933">
        <ele>115.2</ele>
        <time>2023-04-10T06:11:02Z</time>
      </trkpt>
      <trkpt lat="48.08807" lon="-3.01938">
        <ele>115.6</ele>
        <time>2023-04-10T06:11:03Z</time>
      </trkpt>
      <trkpt lat="48.08808" lon="-3.01941">
        <ele>115.8</ele>
        <time>2023-04-10T06:11:04Z</time>
      </trkpt>
      <trkpt lat="48.0881" lon="-3.01945">
        <ele>116</ele>
        <time>2023-04-10T06:11:05Z</time>
      </trkpt>
      <trkpt lat="48.08812" lon="-3.01949">
        <ele>116</ele>
        <time>2023-04-10T06:11:06Z</time>
      </trkpt>
      <trkpt lat="48.08813" lon="-3.01953">
        <ele>116.2</ele>
        <time>2023-04-10T06:11:07Z</time>
      </trkpt>
      <trkpt lat="48.08814" lon="-3.01957">
        <ele>116.6</ele>
        <time>2023-04-10T06:11:08Z</time>
      </trkpt>
      <trkpt lat="48.08816" lon="-3.01962">
        <ele>116.6</ele>
        <time>2023-04-10T06:11:09Z</time>
      </trkpt>
      <trkpt lat="48.08817" lon="-3.01966">
        <ele>117</ele>
        <time>2023-04-10T06:11:10Z</time>
      </trkpt>
      <trkpt lat="48.08818" lon="-3.0197">
        <ele>117.2</ele>
        <time>2023-04-10T06:11:11Z</time>
      </trkpt>
      <trkpt lat="48.0882" lon="-3.01974">
        <ele>117.4</ele>
        <time>2023-04-10T06:11:12Z</time>
      </trkpt>
      <trkpt lat="48.08821" lon="-3.01979">
        <ele>117.6</ele>
        <time>2023-04-10T06:11:13Z</time>
      </trkpt>
      <trkpt lat="48.08823" lon="-3.01983">
        <ele>117.8</ele>
        <time>2023-04-10T06:11:14Z</time>
      </trkpt>
      <trkpt lat="48.08825" lon="-3.01986">
        <ele>118.2</ele>
        <time>2023-04-10T06:11:15Z</time>
      </trkpt>
      <trkpt lat="48.08827" lon="-3.0199">
        <ele>118.2</ele>
        <time>2023-04-10T06:11:16Z</time>
      </trkpt>
      <trkpt lat="48.08829" lon="-3.01993">
        <ele>118.6</ele>
        <time>2023-04-10T06:11:17Z</time>
      </trkpt>
      <trkpt lat="48.08831" lon="-3.01997">
        <ele>118.8</ele>
        <time>2023-04-10T06:11:18Z</time>
      </trkpt>
      <trkpt lat="48.08833" lon="-3.02">
        <ele>119</ele>
        <time>2023-04-10T06:11:19Z</time>
      </trkpt>
      <trkpt lat="48.08835" lon="-3.02004">
        <ele>119</ele>
        <time>2023-04-10T06:11:20Z</time>
      </trkpt>
      <trkpt lat="48.08837" lon="-3.02007">
        <ele>119.2</ele>
        <time>2023-04-10T06:11:21Z</time>
      </trkpt>
      <trkpt lat="48.0884" lon="-3.0201">
        <ele>119.2</ele>
        <time>2023-04-10T06:11:22Z</time>
      </trkpt>
      <trkpt lat="48.08842" lon="-3.02013">
        <ele>119.4</ele>
        <time>2023-04-10T06:11:23Z</time>
      </trkpt>
      <trkpt lat="48.08845" lon="-3.02016">
        <ele>119.6</ele>
        <time>2023-04-10T06:11:24Z</time>
      </trkpt>
      <trkpt lat="48.08847" lon="-3.02019">
        <ele>119.8</ele>
        <time>2023-04-10T06:11:25Z</time>
      </trkpt>
      <trkpt lat="48.08849" lon="-3.02022">
        <ele>120</ele>
        <time>2023-04-10T06:11:26Z</time>
      </trkpt>
      <trkpt lat="48.08852" lon="-3.02026">
        <ele>120.2</ele>
        <time>2023-04-10T06:11:27Z</time>
      </trkpt>
      <trkpt lat="48.08854" lon="-3.02029">
        <ele>120.2</ele>
        <time>2023-04-10T06:11:28Z</time>
      </trkpt>
      <trkpt lat="48.08857" lon="-3.02032">
        <ele>120.2</ele>
        <time>2023-04-10T06:11:29Z</time>
      </trkpt>
      <trkpt lat="48.0886" lon="-3.02035">
        <ele>120.4</ele>
        <time>2023-04-10T06:11:30Z</time>
      </trkpt>
      <trkpt lat="48.08862" lon="-3.02037">
        <ele>120.6</ele>
        <time>2023-04-10T06:11:31Z</time>
      </trkpt>
      <trkpt lat="48.08865" lon="-3.0204">
        <ele>120.8</ele>
        <time>2023-04-10T06:11:32Z</time>
      </trkpt>
      <trkpt lat="48.08867" lon="-3.02044">
        <ele>121</ele>
        <time>2023-04-10T06:11:33Z</time>
      </trkpt>
      <trkpt lat="48.08869" lon="-3.02047">
        <ele>121.2</ele>
        <time>2023-04-10T06:11:34Z</time>
      </trkpt>
      <trkpt lat="48.08872" lon="-3.0205">
        <ele>121.2</ele>
        <time>2023-04-10T06:11:35Z</time>
      </trkpt>
      <trkpt lat="48.08874" lon="-3.02053">
        <ele>121.4</ele>
        <time>2023-04-10T06:11:36Z</time>
      </trkpt>
      <trkpt lat="48.08877" lon="-3.02056">
        <ele>121.4</ele>
        <time>2023-04-10T06:11:37Z</time>
      </trkpt>
      <trkpt lat="48.08878" lon="-3.0206">
        <ele>121.6</ele>
        <time>2023-04-10T06:11:38Z</time>
      </trkpt>
      <trkpt lat="48.0888" lon="-3.02063">
        <ele>121.8</ele>
        <time>2023-04-10T06:11:39Z</time>
      </trkpt>
      <trkpt lat="48.08882" lon="-3.02066">
        <ele>121.8</ele>
        <time>2023-04-10T06:11:40Z</time>
      </trkpt>
      <trkpt lat="48.08884" lon="-3.0207">
        <ele>122</ele>
        <time>2023-04-10T06:11:41Z</time>
      </trkpt>
      <trkpt lat="48.08886" lon="-3.02074">
        <ele>122.2</ele>
        <time>2023-04-10T06:11:42Z</time>
      </trkpt>
      <trkpt lat="48.08887" lon="-3.02078">
        <ele>122.4</ele>
        <time>2023-04-10T06:11:43Z</time>
      </trkpt>
      <trkpt lat="48.08889" lon="-3.02082">
        <ele>122.6</ele>
        <time>2023-04-10T06:11:44Z</time>
      </trkpt>
      <trkpt lat="48.0889" lon="-3.02086">
        <ele>123</ele>
        <time>2023-04-10T06:11:45Z</time>
      </trkpt>
      <trkpt lat="48.08892" lon="-3.0209">
        <ele>123.2</ele>
        <time>2023-04-10T06:11:46Z</time>
      </trkpt>
      <trkpt lat="48.08893" lon="-3.02094">
        <ele>123.4</ele>
        <time>2023-04-10T06:11:47Z</time>
      </trkpt>
      <trkpt lat="48.08895" lon="-3.02099">
        <ele>123.8</ele>
        <time>2023-04-10T06:11:48Z</time>
      </trkpt>
      <trkpt lat="48.08896" lon="-3.02103">
        <ele>124</ele>
        <time>2023-04-10T06:11:49Z</time>
      </trkpt>
      <trkpt lat="48.08897" lon="-3.02108">
        <ele>124</ele>
        <time>2023-04-10T06:11:50Z</time>
      </trkpt>
      <trkpt lat="48.08898" lon="-3.02112">
        <ele>124.2</ele>
        <time>2023-04-10T06:11:51Z</time>
      </trkpt>
      <trkpt lat="48.089" lon="-3.02117">
        <ele>124.4</ele>
        <time>2023-04-10T06:11:52Z</time>
      </trkpt>
      <trkpt lat="48.08901" lon="-3.02121">
        <ele>124.6</ele>
        <time>2023-04-10T06:11:53Z</time>
      </trkpt>
      <trkpt lat="48.08903" lon="-3.02125">
        <ele>124.8</ele>
        <time>2023-04-10T06:11:54Z</time>
      </trkpt>
      <trkpt lat="48.08904" lon="-3.0213">
        <ele>125.2</ele>
        <time>2023-04-10T06:11:55Z</time>
      </trkpt>
      <trkpt lat="48.08905" lon="-3.02134">
        <ele>125.4</ele>
        <time>2023-04-10T06:11:56Z</time>
      </trkpt>
      <trkpt lat="48.08906" lon="-3.02138">
        <ele>125.6</ele>
        <time>2023-04-10T06:11:57Z</time>
      </trkpt>
      <trkpt lat="48.08908" lon="-3.02143">
        <ele>126</ele>
        <time>2023-04-10T06:11:58Z</time>
      </trkpt>
      <trkpt lat="48.08909" lon="-3.02148">
        <ele>126</ele>
        <time>2023-04-10T06:11:59Z</time>
      </trkpt>
      <trkpt lat="48.0891" lon="-3.02152">
        <ele>126.4</ele>
        <time>2023-04-10T06:12:00Z</time>
      </trkpt>
      <trkpt lat="48.08912" lon="-3.02157">
        <ele>126.6</ele>
        <time>2023-04-10T06:12:01Z</time>
      </trkpt>
      <trkpt lat="48.08914" lon="-3.0216">
        <ele>126.8</ele>
        <time>2023-04-10T06:12:02Z</time>
      </trkpt>
      <trkpt lat="48.08916" lon="-3.02164">
        <ele>127</ele>
        <time>2023-04-10T06:12:03Z</time>
      </trkpt>
      <trkpt lat="48.08917" lon="-3.02168">
        <ele>127.2</ele>
        <time>2023-04-10T06:12:04Z</time>
      </trkpt>
      <trkpt lat="48.08919" lon="-3.02171">
        <ele>127.2</ele>
        <time>2023-04-10T06:12:05Z</time>
      </trkpt>
      <trkpt lat="48.08922" lon="-3.02175">
        <ele>127.4</ele>
        <time>2023-04-10T06:12:06Z</time>
      </trkpt>
      <trkpt lat="48.08924" lon="-3.02178">
        <ele>127.6</ele>
        <time>2023-04-10T06:12:07Z</time>
      </trkpt>
      <trkpt lat="48.08926" lon="-3.02182">
        <ele>127.8</ele>
        <time>2023-04-10T06:12:08Z</time>
      </trkpt>
      <trkpt lat="48.08929" lon="-3.02185">
        <ele>127.8</ele>
        <time>2023-04-10T06:12:09Z</time>
      </trkpt>
      <trkpt lat="48.08931" lon="-3.02189">
        <ele>128</ele>
        <time>2023-04-10T06:12:10Z</time>
      </trkpt>
      <trkpt lat="48.08933" lon="-3.02193">
        <ele>128.2</ele>
        <time>2023-04-10T06:12:11Z</time>
      </trkpt>
      <trkpt lat="48.08935" lon="-3.02198">
        <ele>128.2</ele>
        <time>2023-04-10T06:12:12Z</time>
      </trkpt>
      <trkpt lat="48.08937" lon="-3.02202">
        <ele>128.4</ele>
        <time>2023-04-10T06:12:13Z</time>
      </trkpt>
      <trkpt lat="48.08939" lon="-3.02207">
        <ele>128.6</ele>
        <time>2023-04-10T06:12:14Z</time>
      </trkpt>
      <trkpt lat="48.08941" lon="-3.02212">
        <ele>128.8</ele>
        <time>2023-04-10T06:12:15Z</time>
      </trkpt>
      <trkpt lat="48.08943" lon="-3.02218">
        <ele>129.2</ele>
        <time>2023-04-10T06:12:16Z</time>
      </trkpt>
      <trkpt lat="48.08944" lon="-3.02224">
        <ele>129.4</ele>
        <time>2023-04-10T06:12:17Z</time>
      </trkpt>
      <trkpt lat="48.08945" lon="-3.0223">
        <ele>129.6</ele>
        <time>2023-04-10T06:12:18Z</time>
      </trkpt>
      <trkpt lat="48.08946" lon="-3.02237">
        <ele>129.8</ele>
        <time>2023-04-10T06:12:19Z</time>
      </trkpt>
      <trkpt lat="48.08947" lon="-3.02243">
        <ele>129.8</ele>
        <time>2023-04-10T06:12:20Z</time>
      </trkpt>
      <trkpt lat="48.08948" lon="-3.0225">
        <ele>130</ele>
        <time>2023-04-10T06:12:21Z</time>
      </trkpt>
      <trkpt lat="48.08949" lon="-3.02257">
        <ele>130.2</ele>
        <time>2023-04-10T06:12:22Z</time>
      </trkpt>
      <trkpt lat="48.0895" lon="-3.02263">
        <ele>130.4</ele>
        <time>2023-04-10T06:12:23Z</time>
      </trkpt>
      <trkpt lat="48.08951" lon="-3.0227">
        <ele>130.4</ele>
        <time>2023-04-10T06:12:24Z</time>
      </trkpt>
      <trkpt lat="48.08952" lon="-3.02277">
        <ele>130.6</ele>
        <time>2023-04-10T06:12:25Z</time>
      </trkpt>
      <trkpt lat="48.08953" lon="-3.02284">
        <ele>130.6</ele>
        <time>2023-04-10T06:12:26Z</time>
      </trkpt>
      <trkpt lat="48.08955" lon="-3.02291">
        <ele>130.6</ele>
        <time>2023-04-10T06:12:27Z</time>
      </trkpt>
      <trkpt lat="48.08957" lon="-3.02298">
        <ele>130.6</ele>
        <time>2023-04-10T06:12:28Z</time>
      </trkpt>
      <trkpt lat="48.08959" lon="-3.02304">
        <ele>130.6</ele>
        <time>2023-04-10T06:12:29Z</time>
      </trkpt>
      <trkpt lat="48.08961" lon="-3.0231">
        <ele>130.6</ele>
        <time>2023-04-10T06:12:30Z</time>
      </trkpt>
      <trkpt lat="48.08963" lon="-3.02317">
        <ele>130.6</ele>
        <time>2023-04-10T06:12:31Z</time>
      </trkpt>
      <trkpt lat="48.08966" lon="-3.02324">
        <ele>130.6</ele>
        <time>2023-04-10T06:12:32Z</time>
      </trkpt>
      <trkpt lat="48.08968" lon="-3.02331">
        <ele>130.6</ele>
        <time>2023-04-10T06:12:33Z</time>
      </trkpt>
      <trkpt lat="48.08971" lon="-3.02339">
        <ele>130.6</ele>
        <time>2023-04-10T06:12:34Z</time>
      </trkpt>
      <trkpt lat="48.08973" lon="-3.02346">
        <ele>130.6</ele>
        <time>2023-04-10T06:12:35Z</time>
      </trkpt>
      <trkpt lat="48.08975" lon="-3.02354">
        <ele>130.6</ele>
        <time>2023-04-10T06:12:36Z</time>
      </trkpt>
      <trkpt lat="48.08978" lon="-3.02362">
        <ele>130.6</ele>
        <time>2023-04-10T06:12:37Z</time>
      </trkpt>
      <trkpt lat="48.08981" lon="-3.02369">
        <ele>130.6</ele>
        <time>2023-04-10T06:12:38Z</time>
      </trkpt>
      <trkpt lat="48.08983" lon="-3.02377">
        <ele>130.4</ele>
        <time>2023-04-10T06:12:39Z</time>
      </trkpt>
      <trkpt lat="48.08986" lon="-3.02384">
        <ele>130.2</ele>
        <time>2023-04-10T06:12:40Z</time>
      </trkpt>
      <trkpt lat="48.08989" lon="-3.02392">
        <ele>130</ele>
        <time>2023-04-10T06:12:41Z</time>
      </trkpt>
      <trkpt lat="48.08992" lon="-3.024">
        <ele>130</ele>
        <time>2023-04-10T06:12:42Z</time>
      </trkpt>
      <trkpt lat="48.08994" lon="-3.02408">
        <ele>130</ele>
        <time>2023-04-10T06:12:43Z</time>
      </trkpt>
      <trkpt lat="48.08997" lon="-3.02416">
        <ele>130</ele>
        <time>2023-04-10T06:12:44Z</time>
      </trkpt>
      <trkpt lat="48.09" lon="-3.02424">
        <ele>130</ele>
        <time>2023-04-10T06:12:45Z</time>
      </trkpt>
      <trkpt lat="48.09003" lon="-3.02431">
        <ele>129.8</ele>
        <time>2023-04-10T06:12:46Z</time>
      </trkpt>
      <trkpt lat="48.09005" lon="-3.02438">
        <ele>129.8</ele>
        <time>2023-04-10T06:12:47Z</time>
      </trkpt>
      <trkpt lat="48.09006" lon="-3.02445">
        <ele>129.8</ele>
        <time>2023-04-10T06:12:48Z</time>
      </trkpt>
      <trkpt lat="48.09008" lon="-3.02453">
        <ele>129.8</ele>
        <time>2023-04-10T06:12:49Z</time>
      </trkpt>
      <trkpt lat="48.0901" lon="-3.0246">
        <ele>129.8</ele>
        <time>2023-04-10T06:12:50Z</time>
      </trkpt>
      <trkpt lat="48.09011" lon="-3.02467">
        <ele>129.8</ele>
        <time>2023-04-10T06:12:51Z</time>
      </trkpt>
      <trkpt lat="48.09012" lon="-3.02476">
        <ele>130.2</ele>
        <time>2023-04-10T06:12:52Z</time>
      </trkpt>
      <trkpt lat="48.09013" lon="-3.02483">
        <ele>130.2</ele>
        <time>2023-04-10T06:12:53Z</time>
      </trkpt>
      <trkpt lat="48.09015" lon="-3.02491">
        <ele>130.4</ele>
        <time>2023-04-10T06:12:54Z</time>
      </trkpt>
      <trkpt lat="48.09023" lon="-3.02522">
        <ele>131.2</ele>
        <time>2023-04-10T06:12:59Z</time>
      </trkpt>
      <trkpt lat="48.09029" lon="-3.02547">
        <ele>131.8</ele>
        <time>2023-04-10T06:13:03Z</time>
      </trkpt>
      <trkpt lat="48.09033" lon="-3.02569">
        <ele>132.4</ele>
        <time>2023-04-10T06:13:07Z</time>
      </trkpt>
      <trkpt lat="48.09034" lon="-3.02577">
        <ele>132.4</ele>
        <time>2023-04-10T06:13:08Z</time>
      </trkpt>
      <trkpt lat="48.09034" lon="-3.02585">
        <ele>132.6</ele>
        <time>2023-04-10T06:13:09Z</time>
      </trkpt>
      <trkpt lat="48.09036" lon="-3.02592">
        <ele>132.8</ele>
        <time>2023-04-10T06:13:10Z</time>
      </trkpt>
      <trkpt lat="48.09036" lon="-3.02598">
        <ele>133</ele>
        <time>2023-04-10T06:13:11Z</time>
      </trkpt>
      <trkpt lat="48.09037" lon="-3.02604">
        <ele>133.2</ele>
        <time>2023-04-10T06:13:12Z</time>
      </trkpt>
      <trkpt lat="48.09039" lon="-3.0261">
        <ele>133.4</ele>
        <time>2023-04-10T06:13:13Z</time>
      </trkpt>
      <trkpt lat="48.09039" lon="-3.02616">
        <ele>133.6</ele>
        <time>2023-04-10T06:13:14Z</time>
      </trkpt>
      <trkpt lat="48.09041" lon="-3.02621">
        <ele>133.8</ele>
        <time>2023-04-10T06:13:15Z</time>
      </trkpt>
      <trkpt lat="48.09041" lon="-3.02627">
        <ele>134</ele>
        <time>2023-04-10T06:13:16Z</time>
      </trkpt>
      <trkpt lat="48.09041" lon="-3.02633">
        <ele>134</ele>
        <time>2023-04-10T06:13:17Z</time>
      </trkpt>
      <trkpt lat="48.09042" lon="-3.0264">
        <ele>134.2</ele>
        <time>2023-04-10T06:13:18Z</time>
      </trkpt>
      <trkpt lat="48.09042" lon="-3.02645">
        <ele>134.2</ele>
        <time>2023-04-10T06:13:19Z</time>
      </trkpt>
      <trkpt lat="48.09043" lon="-3.02651">
        <ele>134.4</ele>
        <time>2023-04-10T06:13:20Z</time>
      </trkpt>
      <trkpt lat="48.09042" lon="-3.02658">
        <ele>134.4</ele>
        <time>2023-04-10T06:13:21Z</time>
      </trkpt>
      <trkpt lat="48.09043" lon="-3.02665">
        <ele>134.6</ele>
        <time>2023-04-10T06:13:22Z</time>
      </trkpt>
      <trkpt lat="48.09044" lon="-3.02671">
        <ele>134.8</ele>
        <time>2023-04-10T06:13:23Z</time>
      </trkpt>
      <trkpt lat="48.09045" lon="-3.02677">
        <ele>134.8</ele>
        <time>2023-04-10T06:13:24Z</time>
      </trkpt>
      <trkpt lat="48.09045" lon="-3.02686">
        <ele>135</ele>
        <time>2023-04-10T06:13:25Z</time>
      </trkpt>
      <trkpt lat="48.09047" lon="-3.02696">
        <ele>135.2</ele>
        <time>2023-04-10T06:13:26Z</time>
      </trkpt>
      <trkpt lat="48.09048" lon="-3.02705">
        <ele>135.4</ele>
        <time>2023-04-10T06:13:27Z</time>
      </trkpt>
      <trkpt lat="48.09049" lon="-3.02712">
        <ele>135.4</ele>
        <time>2023-04-10T06:13:28Z</time>
      </trkpt>
      <trkpt lat="48.0905" lon="-3.0272">
        <ele>135.6</ele>
        <time>2023-04-10T06:13:29Z</time>
      </trkpt>
      <trkpt lat="48.09052" lon="-3.02729">
        <ele>135.6</ele>
        <time>2023-04-10T06:13:30Z</time>
      </trkpt>
      <trkpt lat="48.09053" lon="-3.02737">
        <ele>135.8</ele>
        <time>2023-04-10T06:13:31Z</time>
      </trkpt>
      <trkpt lat="48.09054" lon="-3.02744">
        <ele>136</ele>
        <time>2023-04-10T06:13:32Z</time>
      </trkpt>
      <trkpt lat="48.09055" lon="-3.02751">
        <ele>136.4</ele>
        <time>2023-04-10T06:13:33Z</time>
      </trkpt>
      <trkpt lat="48.09056" lon="-3.02761">
        <ele>136.4</ele>
        <time>2023-04-10T06:13:34Z</time>
      </trkpt>
      <trkpt lat="48.09057" lon="-3.02768">
        <ele>136.6</ele>
        <time>2023-04-10T06:13:35Z</time>
      </trkpt>
      <trkpt lat="48.09057" lon="-3.02776">
        <ele>136.6</ele>
        <time>2023-04-10T06:13:36Z</time>
      </trkpt>
      <trkpt lat="48.09057" lon="-3.02785">
        <ele>136.8</ele>
        <time>2023-04-10T06:13:37Z</time>
      </trkpt>
      <trkpt lat="48.09056" lon="-3.02794">
        <ele>136.8</ele>
        <time>2023-04-10T06:13:38Z</time>
      </trkpt>
      <trkpt lat="48.09057" lon="-3.02802">
        <ele>137</ele>
        <time>2023-04-10T06:13:39Z</time>
      </trkpt>
      <trkpt lat="48.09058" lon="-3.02809">
        <ele>137</ele>
        <time>2023-04-10T06:13:40Z</time>
      </trkpt>
      <trkpt lat="48.09059" lon="-3.02816">
        <ele>137</ele>
        <time>2023-04-10T06:13:41Z</time>
      </trkpt>
      <trkpt lat="48.0906" lon="-3.02822">
        <ele>137</ele>
        <time>2023-04-10T06:13:42Z</time>
      </trkpt>
      <trkpt lat="48.09061" lon="-3.02828">
        <ele>137</ele>
        <time>2023-04-10T06:13:43Z</time>
      </trkpt>
      <trkpt lat="48.09062" lon="-3.02834">
        <ele>137.4</ele>
        <time>2023-04-10T06:13:44Z</time>
      </trkpt>
      <trkpt lat="48.09063" lon="-3.0284">
        <ele>137.4</ele>
        <time>2023-04-10T06:13:45Z</time>
      </trkpt>
      <trkpt lat="48.09064" lon="-3.02846">
        <ele>137.8</ele>
        <time>2023-04-10T06:13:46Z</time>
      </trkpt>
      <trkpt lat="48.09065" lon="-3.02851">
        <ele>138</ele>
        <time>2023-04-10T06:13:47Z</time>
      </trkpt>
      <trkpt lat="48.09066" lon="-3.02857">
        <ele>138.2</ele>
        <time>2023-04-10T06:13:48Z</time>
      </trkpt>
      <trkpt lat="48.09067" lon="-3.02863">
        <ele>138.4</ele>
        <time>2023-04-10T06:13:49Z</time>
      </trkpt>
      <trkpt lat="48.09068" lon="-3.02869">
        <ele>138.6</ele>
        <time>2023-04-10T06:13:50Z</time>
      </trkpt>
      <trkpt lat="48.09069" lon="-3.02874">
        <ele>138.8</ele>
        <time>2023-04-10T06:13:51Z</time>
      </trkpt>
      <trkpt lat="48.0907" lon="-3.0288">
        <ele>138.8</ele>
        <time>2023-04-10T06:13:52Z</time>
      </trkpt>
      <trkpt lat="48.09071" lon="-3.02886">
        <ele>139</ele>
        <time>2023-04-10T06:13:53Z</time>
      </trkpt>
      <trkpt lat="48.09071" lon="-3.02892">
        <ele>139.2</ele>
        <time>2023-04-10T06:13:54Z</time>
      </trkpt>
      <trkpt lat="48.09072" lon="-3.02898">
        <ele>139.4</ele>
        <time>2023-04-10T06:13:55Z</time>
      </trkpt>
      <trkpt lat="48.09072" lon="-3.02903">
        <ele>139.6</ele>
        <time>2023-04-10T06:13:56Z</time>
      </trkpt>
      <trkpt lat="48.09072" lon="-3.0291">
        <ele>139.8</ele>
        <time>2023-04-10T06:13:57Z</time>
      </trkpt>
      <trkpt lat="48.09073" lon="-3.02916">
        <ele>140</ele>
        <time>2023-04-10T06:13:58Z</time>
      </trkpt>
      <trkpt lat="48.09074" lon="-3.02923">
        <ele>140.2</ele>
        <time>2023-04-10T06:13:59Z</time>
      </trkpt>
      <trkpt lat="48.09074" lon="-3.02929">
        <ele>140.4</ele>
        <time>2023-04-10T06:14:00Z</time>
      </trkpt>
      <trkpt lat="48.09075" lon="-3.02936">
        <ele>140.6</ele>
        <time>2023-04-10T06:14:01Z</time>
      </trkpt>
      <trkpt lat="48.09075" lon="-3.02942">
        <ele>140.6</ele>
        <time>2023-04-10T06:14:02Z</time>
      </trkpt>
      <trkpt lat="48.09075" lon="-3.02948">
        <ele>140.8</ele>
        <time>2023-04-10T06:14:03Z</time>
      </trkpt>
      <trkpt lat="48.09075" lon="-3.02955">
        <ele>140.8</ele>
        <time>2023-04-10T06:14:04Z</time>
      </trkpt>
      <trkpt lat="48.09076" lon="-3.02961">
        <ele>141</ele>
        <time>2023-04-10T06:14:05Z</time>
      </trkpt>
      <trkpt lat="48.09076" lon="-3.02967">
        <ele>141.2</ele>
        <time>2023-04-10T06:14:06Z</time>
      </trkpt>
      <trkpt lat="48.09077" lon="-3.02974">
        <ele>141.2</ele>
        <time>2023-04-10T06:14:07Z</time>
      </trkpt>
      <trkpt lat="48.09079" lon="-3.02982">
        <ele>141.4</ele>
        <time>2023-04-10T06:14:08Z</time>
      </trkpt>
      <trkpt lat="48.0908" lon="-3.02987">
        <ele>141.4</ele>
        <time>2023-04-10T06:14:09Z</time>
      </trkpt>
      <trkpt lat="48.0908" lon="-3.02993">
        <ele>141.6</ele>
        <time>2023-04-10T06:14:10Z</time>
      </trkpt>
      <trkpt lat="48.09081" lon="-3.03001">
        <ele>141.8</ele>
        <time>2023-04-10T06:14:11Z</time>
      </trkpt>
      <trkpt lat="48.09082" lon="-3.03006">
        <ele>141.8</ele>
        <time>2023-04-10T06:14:12Z</time>
      </trkpt>
      <trkpt lat="48.09082" lon="-3.03013">
        <ele>142</ele>
        <time>2023-04-10T06:14:13Z</time>
      </trkpt>
      <trkpt lat="48.09082" lon="-3.03019">
        <ele>142.2</ele>
        <time>2023-04-10T06:14:14Z</time>
      </trkpt>
      <trkpt lat="48.09083" lon="-3.03026">
        <ele>142.4</ele>
        <time>2023-04-10T06:14:15Z</time>
      </trkpt>
      <trkpt lat="48.09084" lon="-3.03033">
        <ele>142.6</ele>
        <time>2023-04-10T06:14:16Z</time>
      </trkpt>
      <trkpt lat="48.09084" lon="-3.0304">
        <ele>142.6</ele>
        <time>2023-04-10T06:14:17Z</time>
      </trkpt>
      <trkpt lat="48.09085" lon="-3.03045">
        <ele>142.8</ele>
        <time>2023-04-10T06:14:18Z</time>
      </trkpt>
      <trkpt lat="48.09085" lon="-3.03052">
        <ele>142.8</ele>
        <time>2023-04-10T06:14:19Z</time>
      </trkpt>
      <trkpt lat="48.09084" lon="-3.03059">
        <ele>142.8</ele>
        <time>2023-04-10T06:14:20Z</time>
      </trkpt>
      <trkpt lat="48.09083" lon="-3.03066">
        <ele>143</ele>
        <time>2023-04-10T06:14:21Z</time>
      </trkpt>
      <trkpt lat="48.09083" lon="-3.03073">
        <ele>143</ele>
        <time>2023-04-10T06:14:22Z</time>
      </trkpt>
      <trkpt lat="48.09082" lon="-3.0308">
        <ele>143.2</ele>
        <time>2023-04-10T06:14:23Z</time>
      </trkpt>
      <trkpt lat="48.0908" lon="-3.03088">
        <ele>143.4</ele>
        <time>2023-04-10T06:14:24Z</time>
      </trkpt>
      <trkpt lat="48.09079" lon="-3.03094">
        <ele>143.4</ele>
        <time>2023-04-10T06:14:25Z</time>
      </trkpt>
      <trkpt lat="48.09078" lon="-3.031">
        <ele>143.4</ele>
        <time>2023-04-10T06:14:26Z</time>
      </trkpt>
      <trkpt lat="48.09077" lon="-3.03106">
        <ele>143.6</ele>
        <time>2023-04-10T06:14:27Z</time>
      </trkpt>
      <trkpt lat="48.09076" lon="-3.03111">
        <ele>143.8</ele>
        <time>2023-04-10T06:14:28Z</time>
      </trkpt>
      <trkpt lat="48.09076" lon="-3.03117">
        <ele>143.8</ele>
        <time>2023-04-10T06:14:29Z</time>
      </trkpt>
      <trkpt lat="48.09075" lon="-3.03124">
        <ele>144</ele>
        <time>2023-04-10T06:14:30Z</time>
      </trkpt>
      <trkpt lat="48.09072" lon="-3.03131">
        <ele>144</ele>
        <time>2023-04-10T06:14:31Z</time>
      </trkpt>
      <trkpt lat="48.09069" lon="-3.03138">
        <ele>144.2</ele>
        <time>2023-04-10T06:14:32Z</time>
      </trkpt>
      <trkpt lat="48.09068" lon="-3.03145">
        <ele>144.4</ele>
        <time>2023-04-10T06:14:33Z</time>
      </trkpt>
      <trkpt lat="48.09068" lon="-3.0315">
        <ele>144.6</ele>
        <time>2023-04-10T06:14:34Z</time>
      </trkpt>
      <trkpt lat="48.09067" lon="-3.03155">
        <ele>144.6</ele>
        <time>2023-04-10T06:14:35Z</time>
      </trkpt>
      <trkpt lat="48.09066" lon="-3.0316">
        <ele>144.8</ele>
        <time>2023-04-10T06:14:36Z</time>
      </trkpt>
      <trkpt lat="48.09067" lon="-3.03166">
        <ele>145</ele>
        <time>2023-04-10T06:14:37Z</time>
      </trkpt>
      <trkpt lat="48.09066" lon="-3.03171">
        <ele>145.2</ele>
        <time>2023-04-10T06:14:38Z</time>
      </trkpt>
      <trkpt lat="48.09066" lon="-3.03178">
        <ele>145.6</ele>
        <time>2023-04-10T06:14:39Z</time>
      </trkpt>
      <trkpt lat="48.09066" lon="-3.03184">
        <ele>145.6</ele>
        <time>2023-04-10T06:14:40Z</time>
      </trkpt>
      <trkpt lat="48.09066" lon="-3.03191">
        <ele>145.8</ele>
        <time>2023-04-10T06:14:41Z</time>
      </trkpt>
      <trkpt lat="48.09065" lon="-3.03197">
        <ele>146</ele>
        <time>2023-04-10T06:14:42Z</time>
      </trkpt>
      <trkpt lat="48.09065" lon="-3.03203">
        <ele>146.2</ele>
        <time>2023-04-10T06:14:43Z</time>
      </trkpt>
      <trkpt lat="48.09065" lon="-3.03209">
        <ele>146.4</ele>
        <time>2023-04-10T06:14:44Z</time>
      </trkpt>
      <trkpt lat="48.09064" lon="-3.03216">
        <ele>146.6</ele>
        <time>2023-04-10T06:14:45Z</time>
      </trkpt>
      <trkpt lat="48.09065" lon="-3.03222">
        <ele>146.8</ele>
        <time>2023-04-10T06:14:46Z</time>
      </trkpt>
      <trkpt lat="48.09065" lon="-3.03228">
        <ele>146.8</ele>
        <time>2023-04-10T06:14:47Z</time>
      </trkpt>
      <trkpt lat="48.09066" lon="-3.03234">
        <ele>146.8</ele>
        <time>2023-04-10T06:14:48Z</time>
      </trkpt>
      <trkpt lat="48.09067" lon="-3.0324">
        <ele>147</ele>
        <time>2023-04-10T06:14:49Z</time>
      </trkpt>
      <trkpt lat="48.09068" lon="-3.03248">
        <ele>147.2</ele>
        <time>2023-04-10T06:14:50Z</time>
      </trkpt>
      <trkpt lat="48.09069" lon="-3.03253">
        <ele>147.4</ele>
        <time>2023-04-10T06:14:51Z</time>
      </trkpt>
      <trkpt lat="48.0907" lon="-3.03259">
        <ele>147.4</ele>
        <time>2023-04-10T06:14:52Z</time>
      </trkpt>
      <trkpt lat="48.09071" lon="-3.03265">
        <ele>147.6</ele>
        <time>2023-04-10T06:14:53Z</time>
      </trkpt>
      <trkpt lat="48.09071" lon="-3.03271">
        <ele>147.8</ele>
        <time>2023-04-10T06:14:54Z</time>
      </trkpt>
      <trkpt lat="48.09072" lon="-3.03278">
        <ele>147.8</ele>
        <time>2023-04-10T06:14:55Z</time>
      </trkpt>
      <trkpt lat="48.09073" lon="-3.03284">
        <ele>148</ele>
        <time>2023-04-10T06:14:56Z</time>
      </trkpt>
      <trkpt lat="48.09073" lon="-3.0329">
        <ele>148.2</ele>
        <time>2023-04-10T06:14:57Z</time>
      </trkpt>
      <trkpt lat="48.09074" lon="-3.03296">
        <ele>148.2</ele>
        <time>2023-04-10T06:14:58Z</time>
      </trkpt>
      <trkpt lat="48.09075" lon="-3.03303">
        <ele>148.4</ele>
        <time>2023-04-10T06:14:59Z</time>
      </trkpt>
      <trkpt lat="48.09075" lon="-3.03309">
        <ele>148.4</ele>
        <time>2023-04-10T06:15:00Z</time>
      </trkpt>
      <trkpt lat="48.09076" lon="-3.03315">
        <ele>148.6</ele>
        <time>2023-04-10T06:15:01Z</time>
      </trkpt>
      <trkpt lat="48.09077" lon="-3.03321">
        <ele>148.8</ele>
        <time>2023-04-10T06:15:02Z</time>
      </trkpt>
      <trkpt lat="48.09077" lon="-3.03329">
        <ele>148.8</ele>
        <time>2023-04-10T06:15:03Z</time>
      </trkpt>
      <trkpt lat="48.09076" lon="-3.03336">
        <ele>149</ele>
        <time>2023-04-10T06:15:04Z</time>
      </trkpt>
      <trkpt lat="48.09075" lon="-3.03341">
        <ele>149.2</ele>
        <time>2023-04-10T06:15:05Z</time>
      </trkpt>
      <trkpt lat="48.09074" lon="-3.03346">
        <ele>149.4</ele>
        <time>2023-04-10T06:15:06Z</time>
      </trkpt>
      <trkpt lat="48.09074" lon="-3.0335">
        <ele>149.4</ele>
        <time>2023-04-10T06:15:07Z</time>
      </trkpt>
      <trkpt lat="48.09073" lon="-3.03354">
        <ele>149.6</ele>
        <time>2023-04-10T06:15:08Z</time>
      </trkpt>
      <trkpt lat="48.09073" lon="-3.03358">
        <ele>149.8</ele>
        <time>2023-04-10T06:15:09Z</time>
      </trkpt>
      <trkpt lat="48.09071" lon="-3.03362">
        <ele>149.8</ele>
        <time>2023-04-10T06:15:10Z</time>
      </trkpt>
      <trkpt lat="48.09067" lon="-3.03368">
        <ele>150</ele>
        <time>2023-04-10T06:15:11Z</time>
      </trkpt>
      <trkpt lat="48.09064" lon="-3.03373">
        <ele>150.2</ele>
        <time>2023-04-10T06:15:12Z</time>
      </trkpt>
      <trkpt lat="48.09063" lon="-3.03377">
        <ele>150.4</ele>
        <time>2023-04-10T06:15:13Z</time>
      </trkpt>
      <trkpt lat="48.09062" lon="-3.03381">
        <ele>150.6</ele>
        <time>2023-04-10T06:15:14Z</time>
      </trkpt>
      <trkpt lat="48.0906" lon="-3.03387">
        <ele>150.8</ele>
        <time>2023-04-10T06:15:15Z</time>
      </trkpt>
      <trkpt lat="48.09058" lon="-3.03395">
        <ele>151</ele>
        <time>2023-04-10T06:15:16Z</time>
      </trkpt>
      <trkpt lat="48.09056" lon="-3.034">
        <ele>151.4</ele>
        <time>2023-04-10T06:15:17Z</time>
      </trkpt>
      <trkpt lat="48.09053" lon="-3.03403">
        <ele>151.6</ele>
        <time>2023-04-10T06:15:18Z</time>
      </trkpt>
      <trkpt lat="48.0905" lon="-3.03405">
        <ele>151.8</ele>
        <time>2023-04-10T06:15:19Z</time>
      </trkpt>
      <trkpt lat="48.09047" lon="-3.03406">
        <ele>152.2</ele>
        <time>2023-04-10T06:15:20Z</time>
      </trkpt>
      <trkpt lat="48.09043" lon="-3.03407">
        <ele>152.4</ele>
        <time>2023-04-10T06:15:21Z</time>
      </trkpt>
      <trkpt lat="48.0904" lon="-3.03408">
        <ele>152.6</ele>
        <time>2023-04-10T06:15:22Z</time>
      </trkpt>
      <trkpt lat="48.09036" lon="-3.03409">
        <ele>152.8</ele>
        <time>2023-04-10T06:15:23Z</time>
      </trkpt>
      <trkpt lat="48.09032" lon="-3.0341">
        <ele>153</ele>
        <time>2023-04-10T06:15:24Z</time>
      </trkpt>
      <trkpt lat="48.09028" lon="-3.03411">
        <ele>153.2</ele>
        <time>2023-04-10T06:15:25Z</time>
      </trkpt>
      <trkpt lat="48.09024" lon="-3.03412">
        <ele>153.4</ele>
        <time>2023-04-10T06:15:26Z</time>
      </trkpt>
      <trkpt lat="48.09021" lon="-3.03414">
        <ele>153.8</ele>
        <time>2023-04-10T06:15:27Z</time>
      </trkpt>
      <trkpt lat="48.09018" lon="-3.03415">
        <ele>154</ele>
        <time>2023-04-10T06:15:28Z</time>
      </trkpt>
      <trkpt lat="48.09015" lon="-3.03416">
        <ele>154</ele>
        <time>2023-04-10T06:15:29Z</time>
      </trkpt>
      <trkpt lat="48.09012" lon="-3.03416">
        <ele>154.2</ele>
        <time>2023-04-10T06:15:30Z</time>
      </trkpt>
      <trkpt lat="48.0901" lon="-3.03417">
        <ele>154.4</ele>
        <time>2023-04-10T06:15:31Z</time>
      </trkpt>
      <trkpt lat="48.09007" lon="-3.03418">
        <ele>154.4</ele>
        <time>2023-04-10T06:15:32Z</time>
      </trkpt>
      <trkpt lat="48.09003" lon="-3.03418">
        <ele>154.6</ele>
        <time>2023-04-10T06:15:33Z</time>
      </trkpt>
      <trkpt lat="48.08999" lon="-3.03418">
        <ele>154.8</ele>
        <time>2023-04-10T06:15:34Z</time>
      </trkpt>
      <trkpt lat="48.08995" lon="-3.03419">
        <ele>154.8</ele>
        <time>2023-04-10T06:15:35Z</time>
      </trkpt>
      <trkpt lat="48.08991" lon="-3.0342">
        <ele>155</ele>
        <time>2023-04-10T06:15:36Z</time>
      </trkpt>
      <trkpt lat="48.08987" lon="-3.03421">
        <ele>155.2</ele>
        <time>2023-04-10T06:15:37Z</time>
      </trkpt>
      <trkpt lat="48.08982" lon="-3.03422">
        <ele>155.4</ele>
        <time>2023-04-10T06:15:38Z</time>
      </trkpt>
      <trkpt lat="48.08978" lon="-3.03423">
        <ele>155.4</ele>
        <time>2023-04-10T06:15:39Z</time>
      </trkpt>
      <trkpt lat="48.08973" lon="-3.03424">
        <ele>155.6</ele>
        <time>2023-04-10T06:15:40Z</time>
      </trkpt>
      <trkpt lat="48.08969" lon="-3.03424">
        <ele>155.8</ele>
        <time>2023-04-10T06:15:41Z</time>
      </trkpt>
      <trkpt lat="48.08965" lon="-3.03426">
        <ele>156</ele>
        <time>2023-04-10T06:15:42Z</time>
      </trkpt>
      <trkpt lat="48.08961" lon="-3.03427">
        <ele>156</ele>
        <time>2023-04-10T06:15:43Z</time>
      </trkpt>
      <trkpt lat="48.08958" lon="-3.03428">
        <ele>156.2</ele>
        <time>2023-04-10T06:15:44Z</time>
      </trkpt>
      <trkpt lat="48.08954" lon="-3.03429">
        <ele>156.2</ele>
        <time>2023-04-10T06:15:45Z</time>
      </trkpt>
      <trkpt lat="48.0895" lon="-3.0343">
        <ele>156.4</ele>
        <time>2023-04-10T06:15:46Z</time>
      </trkpt>
      <trkpt lat="48.08946" lon="-3.03431">
        <ele>156.4</ele>
        <time>2023-04-10T06:15:47Z</time>
      </trkpt>
      <trkpt lat="48.08942" lon="-3.03434">
        <ele>156.4</ele>
        <time>2023-04-10T06:15:48Z</time>
      </trkpt>
      <trkpt lat="48.08937" lon="-3.03438">
        <ele>156.4</ele>
        <time>2023-04-10T06:15:49Z</time>
      </trkpt>
      <trkpt lat="48.08932" lon="-3.03441">
        <ele>156.6</ele>
        <time>2023-04-10T06:15:50Z</time>
      </trkpt>
      <trkpt lat="48.08927" lon="-3.03444">
        <ele>156.6</ele>
        <time>2023-04-10T06:15:51Z</time>
      </trkpt>
      <trkpt lat="48.08922" lon="-3.03447">
        <ele>156.6</ele>
        <time>2023-04-10T06:15:52Z</time>
      </trkpt>
      <trkpt lat="48.08918" lon="-3.03449">
        <ele>156.6</ele>
        <time>2023-04-10T06:15:53Z</time>
      </trkpt>
      <trkpt lat="48.08913" lon="-3.03451">
        <ele>156.6</ele>
        <time>2023-04-10T06:15:54Z</time>
      </trkpt>
      <trkpt lat="48.08909" lon="-3.03453">
        <ele>156.6</ele>
        <time>2023-04-10T06:15:55Z</time>
      </trkpt>
      <trkpt lat="48.08905" lon="-3.03454">
        <ele>156.6</ele>
        <time>2023-04-10T06:15:56Z</time>
      </trkpt>
      <trkpt lat="48.08902" lon="-3.03455">
        <ele>156.6</ele>
        <time>2023-04-10T06:15:57Z</time>
      </trkpt>
      <trkpt lat="48.089" lon="-3.03455">
        <ele>156.8</ele>
        <time>2023-04-10T06:15:58Z</time>
      </trkpt>
      <trkpt lat="48.08897" lon="-3.03456">
        <ele>156.8</ele>
        <time>2023-04-10T06:15:59Z</time>
      </trkpt>
      <trkpt lat="48.08894" lon="-3.03457">
        <ele>156.8</ele>
        <time>2023-04-10T06:16:00Z</time>
      </trkpt>
      <trkpt lat="48.08891" lon="-3.03458">
        <ele>157</ele>
        <time>2023-04-10T06:16:01Z</time>
      </trkpt>
      <trkpt lat="48.08887" lon="-3.03459">
        <ele>157</ele>
        <time>2023-04-10T06:16:02Z</time>
      </trkpt>
      <trkpt lat="48.08883" lon="-3.0346">
        <ele>157.2</ele>
        <time>2023-04-10T06:16:03Z</time>
      </trkpt>
      <trkpt lat="48.08876" lon="-3.03463">
        <ele>157.8</ele>
        <time>2023-04-10T06:16:05Z</time>
      </trkpt>
      <trkpt lat="48.08866" lon="-3.03467">
        <ele>158.8</ele>
        <time>2023-04-10T06:16:08Z</time>
      </trkpt>
      <trkpt lat="48.0886" lon="-3.03465">
        <ele>159.2</ele>
        <time>2023-04-10T06:16:10Z</time>
      </trkpt>
      <trkpt lat="48.08856" lon="-3.03465">
        <ele>159.4</ele>
        <time>2023-04-10T06:16:11Z</time>
      </trkpt>
      <trkpt lat="48.08853" lon="-3.03465">
        <ele>159.8</ele>
        <time>2023-04-10T06:16:12Z</time>
      </trkpt>
      <trkpt lat="48.08851" lon="-3.03463">
        <ele>160</ele>
        <time>2023-04-10T06:16:13Z</time>
      </trkpt>
      <trkpt lat="48.08849" lon="-3.0346">
        <ele>160.2</ele>
        <time>2023-04-10T06:16:14Z</time>
      </trkpt>
      <trkpt lat="48.08847" lon="-3.03462">
        <ele>160.6</ele>
        <time>2023-04-10T06:16:15Z</time>
      </trkpt>
      <trkpt lat="48.08843" lon="-3.03462">
        <ele>160.6</ele>
        <time>2023-04-10T06:16:16Z</time>
      </trkpt>
      <trkpt lat="48.08841" lon="-3.03462">
        <ele>160.8</ele>
        <time>2023-04-10T06:16:17Z</time>
      </trkpt>
      <trkpt lat="48.08837" lon="-3.03463">
        <ele>161</ele>
        <time>2023-04-10T06:16:18Z</time>
      </trkpt>
      <trkpt lat="48.08835" lon="-3.03463">
        <ele>161.2</ele>
        <time>2023-04-10T06:16:19Z</time>
      </trkpt>
      <trkpt lat="48.08832" lon="-3.03463">
        <ele>161.4</ele>
        <time>2023-04-10T06:16:20Z</time>
      </trkpt>
      <trkpt lat="48.0883" lon="-3.03464">
        <ele>161.6</ele>
        <time>2023-04-10T06:16:21Z</time>
      </trkpt>
      <trkpt lat="48.08827" lon="-3.03464">
        <ele>161.8</ele>
        <time>2023-04-10T06:16:22Z</time>
      </trkpt>
      <trkpt lat="48.08824" lon="-3.03464">
        <ele>162</ele>
        <time>2023-04-10T06:16:23Z</time>
      </trkpt>
      <trkpt lat="48.08821" lon="-3.03464">
        <ele>162.2</ele>
        <time>2023-04-10T06:16:24Z</time>
      </trkpt>
      <trkpt lat="48.08817" lon="-3.03464">
        <ele>162.6</ele>
        <time>2023-04-10T06:16:25Z</time>
      </trkpt>
      <trkpt lat="48.08814" lon="-3.03464">
        <ele>162.8</ele>
        <time>2023-04-10T06:16:26Z</time>
      </trkpt>
      <trkpt lat="48.08811" lon="-3.03465">
        <ele>163</ele>
        <time>2023-04-10T06:16:27Z</time>
      </trkpt>
      <trkpt lat="48.08808" lon="-3.03466">
        <ele>163.4</ele>
        <time>2023-04-10T06:16:28Z</time>
      </trkpt>
      <trkpt lat="48.08805" lon="-3.03468">
        <ele>163.6</ele>
        <time>2023-04-10T06:16:29Z</time>
      </trkpt>
      <trkpt lat="48.08802" lon="-3.03467">
        <ele>163.8</ele>
        <time>2023-04-10T06:16:30Z</time>
      </trkpt>
      <trkpt lat="48.08798" lon="-3.03467">
        <ele>164</ele>
        <time>2023-04-10T06:16:31Z</time>
      </trkpt>
      <trkpt lat="48.08795" lon="-3.03467">
        <ele>164.2</ele>
        <time>2023-04-10T06:16:32Z</time>
      </trkpt>
      <trkpt lat="48.08791" lon="-3.03467">
        <ele>164.2</ele>
        <time>2023-04-10T06:16:33Z</time>
      </trkpt>
      <trkpt lat="48.08788" lon="-3.03466">
        <ele>164.6</ele>
        <time>2023-04-10T06:16:34Z</time>
      </trkpt>
      <trkpt lat="48.08785" lon="-3.03467">
        <ele>164.8</ele>
        <time>2023-04-10T06:16:35Z</time>
      </trkpt>
      <trkpt lat="48.08783" lon="-3.03468">
        <ele>165</ele>
        <time>2023-04-10T06:16:36Z</time>
      </trkpt>
      <trkpt lat="48.0878" lon="-3.03469">
        <ele>165.2</ele>
        <time>2023-04-10T06:16:37Z</time>
      </trkpt>
      <trkpt lat="48.08776" lon="-3.03469">
        <ele>165.2</ele>
        <time>2023-04-10T06:16:38Z</time>
      </trkpt>
      <trkpt lat="48.08773" lon="-3.03469">
        <ele>165.2</ele>
        <time>2023-04-10T06:16:39Z</time>
      </trkpt>
      <trkpt lat="48.08769" lon="-3.03467">
        <ele>165.4</ele>
        <time>2023-04-10T06:16:40Z</time>
      </trkpt>
      <trkpt lat="48.08765" lon="-3.03465">
        <ele>165.6</ele>
        <time>2023-04-10T06:16:41Z</time>
      </trkpt>
      <trkpt lat="48.0876" lon="-3.03464">
        <ele>165.8</ele>
        <time>2023-04-10T06:16:42Z</time>
      </trkpt>
      <trkpt lat="48.08756" lon="-3.03463">
        <ele>166</ele>
        <time>2023-04-10T06:16:43Z</time>
      </trkpt>
      <trkpt lat="48.08753" lon="-3.03463">
        <ele>166.2</ele>
        <time>2023-04-10T06:16:44Z</time>
      </trkpt>
      <trkpt lat="48.08749" lon="-3.03462">
        <ele>166.6</ele>
        <time>2023-04-10T06:16:45Z</time>
      </trkpt>
      <trkpt lat="48.08745" lon="-3.03461">
        <ele>166.8</ele>
        <time>2023-04-10T06:16:46Z</time>
      </trkpt>
      <trkpt lat="48.08742" lon="-3.03459">
        <ele>167</ele>
        <time>2023-04-10T06:16:47Z</time>
      </trkpt>
      <trkpt lat="48.08739" lon="-3.03457">
        <ele>167.2</ele>
        <time>2023-04-10T06:16:48Z</time>
      </trkpt>
      <trkpt lat="48.08736" lon="-3.03453">
        <ele>167.4</ele>
        <time>2023-04-10T06:16:49Z</time>
      </trkpt>
      <trkpt lat="48.08732" lon="-3.03451">
        <ele>167.6</ele>
        <time>2023-04-10T06:16:50Z</time>
      </trkpt>
      <trkpt lat="48.08728" lon="-3.03448">
        <ele>168</ele>
        <time>2023-04-10T06:16:51Z</time>
      </trkpt>
      <trkpt lat="48.08726" lon="-3.03445">
        <ele>168.2</ele>
        <time>2023-04-10T06:16:52Z</time>
      </trkpt>
      <trkpt lat="48.08723" lon="-3.03445">
        <ele>168.2</ele>
        <time>2023-04-10T06:16:53Z</time>
      </trkpt>
      <trkpt lat="48.08721" lon="-3.03443">
        <ele>168.6</ele>
        <time>2023-04-10T06:16:54Z</time>
      </trkpt>
      <trkpt lat="48.08718" lon="-3.03441">
        <ele>168.6</ele>
        <time>2023-04-10T06:16:55Z</time>
      </trkpt>
      <trkpt lat="48.08716" lon="-3.03439">
        <ele>168.8</ele>
        <time>2023-04-10T06:16:56Z</time>
      </trkpt>
      <trkpt lat="48.08713" lon="-3.03437">
        <ele>169</ele>
        <time>2023-04-10T06:16:57Z</time>
      </trkpt>
      <trkpt lat="48.08711" lon="-3.03436">
        <ele>169.2</ele>
        <time>2023-04-10T06:16:58Z</time>
      </trkpt>
      <trkpt lat="48.08708" lon="-3.03433">
        <ele>169.2</ele>
        <time>2023-04-10T06:16:59Z</time>
      </trkpt>
      <trkpt lat="48.08705" lon="-3.03431">
        <ele>169.4</ele>
        <time>2023-04-10T06:17:00Z</time>
      </trkpt>
      <trkpt lat="48.08703" lon="-3.03429">
        <ele>169.6</ele>
        <time>2023-04-10T06:17:01Z</time>
      </trkpt>
      <trkpt lat="48.087" lon="-3.03427">
        <ele>170</ele>
        <time>2023-04-10T06:17:02Z</time>
      </trkpt>
      <trkpt lat="48.08697" lon="-3.03425">
        <ele>170.2</ele>
        <time>2023-04-10T06:17:03Z</time>
      </trkpt>
      <trkpt lat="48.08695" lon="-3.03423">
        <ele>170.6</ele>
        <time>2023-04-10T06:17:04Z</time>
      </trkpt>
      <trkpt lat="48.08692" lon="-3.0342">
        <ele>170.6</ele>
        <time>2023-04-10T06:17:05Z</time>
      </trkpt>
      <trkpt lat="48.08689" lon="-3.03418">
        <ele>171</ele>
        <time>2023-04-10T06:17:06Z</time>
      </trkpt>
      <trkpt lat="48.08686" lon="-3.03416">
        <ele>171.2</ele>
        <time>2023-04-10T06:17:07Z</time>
      </trkpt>
      <trkpt lat="48.08683" lon="-3.03413">
        <ele>171.4</ele>
        <time>2023-04-10T06:17:08Z</time>
      </trkpt>
      <trkpt lat="48.0868" lon="-3.0341">
        <ele>171.6</ele>
        <time>2023-04-10T06:17:09Z</time>
      </trkpt>
      <trkpt lat="48.08676" lon="-3.03408">
        <ele>171.8</ele>
        <time>2023-04-10T06:17:10Z</time>
      </trkpt>
      <trkpt lat="48.08672" lon="-3.03408">
        <ele>171.8</ele>
        <time>2023-04-10T06:17:11Z</time>
      </trkpt>
      <trkpt lat="48.08669" lon="-3.03407">
        <ele>172</ele>
        <time>2023-04-10T06:17:12Z</time>
      </trkpt>
      <trkpt lat="48.08666" lon="-3.03405">
        <ele>172.4</ele>
        <time>2023-04-10T06:17:13Z</time>
      </trkpt>
      <trkpt lat="48.08663" lon="-3.03403">
        <ele>172.8</ele>
        <time>2023-04-10T06:17:14Z</time>
      </trkpt>
      <trkpt lat="48.08659" lon="-3.03401">
        <ele>173</ele>
        <time>2023-04-10T06:17:15Z</time>
      </trkpt>
      <trkpt lat="48.08655" lon="-3.03398">
        <ele>173.2</ele>
        <time>2023-04-10T06:17:16Z</time>
      </trkpt>
      <trkpt lat="48.08652" lon="-3.03396">
        <ele>173.4</ele>
        <time>2023-04-10T06:17:17Z</time>
      </trkpt>
      <trkpt lat="48.08648" lon="-3.03395">
        <ele>173.6</ele>
        <time>2023-04-10T06:17:18Z</time>
      </trkpt>
      <trkpt lat="48.08644" lon="-3.03394">
        <ele>173.8</ele>
        <time>2023-04-10T06:17:19Z</time>
      </trkpt>
      <trkpt lat="48.0864" lon="-3.03392">
        <ele>173.8</ele>
        <time>2023-04-10T06:17:20Z</time>
      </trkpt>
      <trkpt lat="48.08636" lon="-3.03391">
        <ele>174</ele>
        <time>2023-04-10T06:17:21Z</time>
      </trkpt>
      <trkpt lat="48.08632" lon="-3.03389">
        <ele>174</ele>
        <time>2023-04-10T06:17:22Z</time>
      </trkpt>
      <trkpt lat="48.08629" lon="-3.03388">
        <ele>174.2</ele>
        <time>2023-04-10T06:17:23Z</time>
      </trkpt>
      <trkpt lat="48.08625" lon="-3.03388">
        <ele>174.4</ele>
        <time>2023-04-10T06:17:24Z</time>
      </trkpt>
      <trkpt lat="48.08622" lon="-3.0339">
        <ele>174.4</ele>
        <time>2023-04-10T06:17:25Z</time>
      </trkpt>
      <trkpt lat="48.08618" lon="-3.03391">
        <ele>174.4</ele>
        <time>2023-04-10T06:17:26Z</time>
      </trkpt>
      <trkpt lat="48.08614" lon="-3.03391">
        <ele>174.6</ele>
        <time>2023-04-10T06:17:27Z</time>
      </trkpt>
      <trkpt lat="48.08611" lon="-3.03392">
        <ele>174.6</ele>
        <time>2023-04-10T06:17:28Z</time>
      </trkpt>
      <trkpt lat="48.08607" lon="-3.03392">
        <ele>174.6</ele>
        <time>2023-04-10T06:17:29Z</time>
      </trkpt>
      <trkpt lat="48.08604" lon="-3.03392">
        <ele>174.6</ele>
        <time>2023-04-10T06:17:30Z</time>
      </trkpt>
      <trkpt lat="48.086" lon="-3.03393">
        <ele>175</ele>
        <time>2023-04-10T06:17:31Z</time>
      </trkpt>
      <trkpt lat="48.08596" lon="-3.03393">
        <ele>175</ele>
        <time>2023-04-10T06:17:32Z</time>
      </trkpt>
      <trkpt lat="48.08593" lon="-3.03393">
        <ele>175</ele>
        <time>2023-04-10T06:17:33Z</time>
      </trkpt>
      <trkpt lat="48.08589" lon="-3.03393">
        <ele>175</ele>
        <time>2023-04-10T06:17:34Z</time>
      </trkpt>
      <trkpt lat="48.08586" lon="-3.03394">
        <ele>175</ele>
        <time>2023-04-10T06:17:35Z</time>
      </trkpt>
      <trkpt lat="48.08582" lon="-3.03394">
        <ele>175</ele>
        <time>2023-04-10T06:17:36Z</time>
      </trkpt>
      <trkpt lat="48.08578" lon="-3.03395">
        <ele>175.2</ele>
        <time>2023-04-10T06:17:37Z</time>
      </trkpt>
      <trkpt lat="48.08575" lon="-3.03396">
        <ele>175.2</ele>
        <time>2023-04-10T06:17:38Z</time>
      </trkpt>
      <trkpt lat="48.08571" lon="-3.03396">
        <ele>175.4</ele>
        <time>2023-04-10T06:17:39Z</time>
      </trkpt>
      <trkpt lat="48.08568" lon="-3.03397">
        <ele>175.8</ele>
        <time>2023-04-10T06:17:40Z</time>
      </trkpt>
      <trkpt lat="48.08564" lon="-3.03397">
        <ele>175.8</ele>
        <time>2023-04-10T06:17:41Z</time>
      </trkpt>
      <trkpt lat="48.0856" lon="-3.03396">
        <ele>175.8</ele>
        <time>2023-04-10T06:17:42Z</time>
      </trkpt>
      <trkpt lat="48.08556" lon="-3.03396">
        <ele>176</ele>
        <time>2023-04-10T06:17:43Z</time>
      </trkpt>
      <trkpt lat="48.08552" lon="-3.03396">
        <ele>176</ele>
        <time>2023-04-10T06:17:44Z</time>
      </trkpt>
      <trkpt lat="48.08548" lon="-3.03397">
        <ele>176</ele>
        <time>2023-04-10T06:17:45Z</time>
      </trkpt>
      <trkpt lat="48.08544" lon="-3.03399">
        <ele>176.2</ele>
        <time>2023-04-10T06:17:46Z</time>
      </trkpt>
      <trkpt lat="48.08541" lon="-3.03399">
        <ele>176.2</ele>
        <time>2023-04-10T06:17:47Z</time>
      </trkpt>
      <trkpt lat="48.08538" lon="-3.034">
        <ele>176.4</ele>
        <time>2023-04-10T06:17:48Z</time>
      </trkpt>
      <trkpt lat="48.08535" lon="-3.03401">
        <ele>176.4</ele>
        <time>2023-04-10T06:17:49Z</time>
      </trkpt>
      <trkpt lat="48.08532" lon="-3.03402">
        <ele>176.6</ele>
        <time>2023-04-10T06:17:50Z</time>
      </trkpt>
      <trkpt lat="48.08529" lon="-3.03403">
        <ele>176.6</ele>
        <time>2023-04-10T06:17:51Z</time>
      </trkpt>
      <trkpt lat="48.08526" lon="-3.03404">
        <ele>177</ele>
        <time>2023-04-10T06:17:52Z</time>
      </trkpt>
      <trkpt lat="48.08522" lon="-3.03404">
        <ele>177</ele>
        <time>2023-04-10T06:17:53Z</time>
      </trkpt>
      <trkpt lat="48.08519" lon="-3.03404">
        <ele>177.2</ele>
        <time>2023-04-10T06:17:54Z</time>
      </trkpt>
      <trkpt lat="48.08515" lon="-3.03404">
        <ele>177.4</ele>
        <time>2023-04-10T06:17:55Z</time>
      </trkpt>
      <trkpt lat="48.08512" lon="-3.03404">
        <ele>177.8</ele>
        <time>2023-04-10T06:17:56Z</time>
      </trkpt>
      <trkpt lat="48.08508" lon="-3.03404">
        <ele>178</ele>
        <time>2023-04-10T06:17:57Z</time>
      </trkpt>
      <trkpt lat="48.08505" lon="-3.03404">
        <ele>178.2</ele>
        <time>2023-04-10T06:17:58Z</time>
      </trkpt>
      <trkpt lat="48.08501" lon="-3.03405">
        <ele>178.4</ele>
        <time>2023-04-10T06:17:59Z</time>
      </trkpt>
      <trkpt lat="48.08496" lon="-3.03405">
        <ele>178.6</ele>
        <time>2023-04-10T06:18:00Z</time>
      </trkpt>
      <trkpt lat="48.08493" lon="-3.03405">
        <ele>179</ele>
        <time>2023-04-10T06:18:01Z</time>
      </trkpt>
      <trkpt lat="48.08488" lon="-3.03407">
        <ele>179.4</ele>
        <time>2023-04-10T06:18:02Z</time>
      </trkpt>
      <trkpt lat="48.08484" lon="-3.03408">
        <ele>179.4</ele>
        <time>2023-04-10T06:18:03Z</time>
      </trkpt>
      <trkpt lat="48.0848" lon="-3.0341">
        <ele>179.6</ele>
        <time>2023-04-10T06:18:04Z</time>
      </trkpt>
      <trkpt lat="48.08475" lon="-3.03411">
        <ele>179.8</ele>
        <time>2023-04-10T06:18:05Z</time>
      </trkpt>
      <trkpt lat="48.0847" lon="-3.03413">
        <ele>179.8</ele>
        <time>2023-04-10T06:18:06Z</time>
      </trkpt>
      <trkpt lat="48.08464" lon="-3.03414">
        <ele>179.8</ele>
        <time>2023-04-10T06:18:07Z</time>
      </trkpt>
      <trkpt lat="48.08459" lon="-3.03415">
        <ele>179.8</ele>
        <time>2023-04-10T06:18:08Z</time>
      </trkpt>
      <trkpt lat="48.08454" lon="-3.03413">
        <ele>179.8</ele>
        <time>2023-04-10T06:18:09Z</time>
      </trkpt>
      <trkpt lat="48.0845" lon="-3.03408">
        <ele>179.8</ele>
        <time>2023-04-10T06:18:10Z</time>
      </trkpt>
      <trkpt lat="48.08446" lon="-3.034">
        <ele>179.8</ele>
        <time>2023-04-10T06:18:11Z</time>
      </trkpt>
      <trkpt lat="48.08444" lon="-3.03391">
        <ele>179.8</ele>
        <time>2023-04-10T06:18:12Z</time>
      </trkpt>
      <trkpt lat="48.08442" lon="-3.03382">
        <ele>179.8</ele>
        <time>2023-04-10T06:18:13Z</time>
      </trkpt>
      <trkpt lat="48.0844" lon="-3.03373">
        <ele>179.8</ele>
        <time>2023-04-10T06:18:14Z</time>
      </trkpt>
      <trkpt lat="48.08438" lon="-3.03363">
        <ele>179.8</ele>
        <time>2023-04-10T06:18:15Z</time>
      </trkpt>
      <trkpt lat="48.08436" lon="-3.03354">
        <ele>179.6</ele>
        <time>2023-04-10T06:18:16Z</time>
      </trkpt>
      <trkpt lat="48.08434" lon="-3.03344">
        <ele>179.4</ele>
        <time>2023-04-10T06:18:17Z</time>
      </trkpt>
      <trkpt lat="48.08431" lon="-3.03336">
        <ele>179.2</ele>
        <time>2023-04-10T06:18:18Z</time>
      </trkpt>
      <trkpt lat="48.08427" lon="-3.0333">
        <ele>178.6</ele>
        <time>2023-04-10T06:18:19Z</time>
      </trkpt>
      <trkpt lat="48.08422" lon="-3.03327">
        <ele>178</ele>
        <time>2023-04-10T06:18:20Z</time>
      </trkpt>
      <trkpt lat="48.08416" lon="-3.03326">
        <ele>177.4</ele>
        <time>2023-04-10T06:18:21Z</time>
      </trkpt>
      <trkpt lat="48.08412" lon="-3.03328">
        <ele>177</ele>
        <time>2023-04-10T06:18:22Z</time>
      </trkpt>
      <trkpt lat="48.08407" lon="-3.03331">
        <ele>176.8</ele>
        <time>2023-04-10T06:18:23Z</time>
      </trkpt>
      <trkpt lat="48.08403" lon="-3.03334">
        <ele>176.6</ele>
        <time>2023-04-10T06:18:24Z</time>
      </trkpt>
      <trkpt lat="48.08398" lon="-3.03337">
        <ele>176.6</ele>
        <time>2023-04-10T06:18:25Z</time>
      </trkpt>
      <trkpt lat="48.08394" lon="-3.0334">
        <ele>176.6</ele>
        <time>2023-04-10T06:18:26Z</time>
      </trkpt>
      <trkpt lat="48.0839" lon="-3.03344">
        <ele>176.6</ele>
        <time>2023-04-10T06:18:27Z</time>
      </trkpt>
      <trkpt lat="48.08386" lon="-3.03349">
        <ele>176.6</ele>
        <time>2023-04-10T06:18:28Z</time>
      </trkpt>
      <trkpt lat="48.08382" lon="-3.03353">
        <ele>176.6</ele>
        <time>2023-04-10T06:18:29Z</time>
      </trkpt>
      <trkpt lat="48.08364" lon="-3.03373">
        <ele>176.6</ele>
        <time>2023-04-10T06:18:34Z</time>
      </trkpt>
      <trkpt lat="48.08352" lon="-3.03383">
        <ele>176.8</ele>
        <time>2023-04-10T06:18:37Z</time>
      </trkpt>
      <trkpt lat="48.08348" lon="-3.03386">
        <ele>176.8</ele>
        <time>2023-04-10T06:18:38Z</time>
      </trkpt>
      <trkpt lat="48.0833" lon="-3.03392">
        <ele>176.8</ele>
        <time>2023-04-10T06:18:42Z</time>
      </trkpt>
      <trkpt lat="48.08316" lon="-3.03394">
        <ele>177.2</ele>
        <time>2023-04-10T06:18:45Z</time>
      </trkpt>
      <trkpt lat="48.08312" lon="-3.03395">
        <ele>177.2</ele>
        <time>2023-04-10T06:18:46Z</time>
      </trkpt>
      <trkpt lat="48.08308" lon="-3.03396">
        <ele>177.4</ele>
        <time>2023-04-10T06:18:47Z</time>
      </trkpt>
      <trkpt lat="48.08305" lon="-3.03396">
        <ele>177.4</ele>
        <time>2023-04-10T06:18:48Z</time>
      </trkpt>
      <trkpt lat="48.08301" lon="-3.03397">
        <ele>177.6</ele>
        <time>2023-04-10T06:18:49Z</time>
      </trkpt>
      <trkpt lat="48.08298" lon="-3.03397">
        <ele>177.6</ele>
        <time>2023-04-10T06:18:50Z</time>
      </trkpt>
      <trkpt lat="48.08294" lon="-3.03397">
        <ele>177.6</ele>
        <time>2023-04-10T06:18:51Z</time>
      </trkpt>
      <trkpt lat="48.08291" lon="-3.03397">
        <ele>177.6</ele>
        <time>2023-04-10T06:18:52Z</time>
      </trkpt>
      <trkpt lat="48.08287" lon="-3.03397">
        <ele>177.6</ele>
        <time>2023-04-10T06:18:53Z</time>
      </trkpt>
      <trkpt lat="48.08283" lon="-3.03397">
        <ele>177.6</ele>
        <time>2023-04-10T06:18:54Z</time>
      </trkpt>
      <trkpt lat="48.08279" lon="-3.03397">
        <ele>177.6</ele>
        <time>2023-04-10T06:18:55Z</time>
      </trkpt>
      <trkpt lat="48.08276" lon="-3.03396">
        <ele>177.8</ele>
        <time>2023-04-10T06:18:56Z</time>
      </trkpt>
      <trkpt lat="48.08272" lon="-3.03395">
        <ele>178</ele>
        <time>2023-04-10T06:18:57Z</time>
      </trkpt>
      <trkpt lat="48.08269" lon="-3.03395">
        <ele>178.2</ele>
        <time>2023-04-10T06:18:58Z</time>
      </trkpt>
      <trkpt lat="48.08266" lon="-3.03394">
        <ele>178.4</ele>
        <time>2023-04-10T06:18:59Z</time>
      </trkpt>
      <trkpt lat="48.08262" lon="-3.03393">
        <ele>178.8</ele>
        <time>2023-04-10T06:19:00Z</time>
      </trkpt>
      <trkpt lat="48.08259" lon="-3.03391">
        <ele>179</ele>
        <time>2023-04-10T06:19:01Z</time>
      </trkpt>
      <trkpt lat="48.08256" lon="-3.0339">
        <ele>179</ele>
        <time>2023-04-10T06:19:02Z</time>
      </trkpt>
      <trkpt lat="48.08253" lon="-3.03389">
        <ele>179.2</ele>
        <time>2023-04-10T06:19:03Z</time>
      </trkpt>
      <trkpt lat="48.0825" lon="-3.03389">
        <ele>179.4</ele>
        <time>2023-04-10T06:19:04Z</time>
      </trkpt>
      <trkpt lat="48.08247" lon="-3.03388">
        <ele>179.6</ele>
        <time>2023-04-10T06:19:05Z</time>
      </trkpt>
      <trkpt lat="48.08245" lon="-3.03387">
        <ele>179.8</ele>
        <time>2023-04-10T06:19:06Z</time>
      </trkpt>
      <trkpt lat="48.08242" lon="-3.03386">
        <ele>180.2</ele>
        <time>2023-04-10T06:19:07Z</time>
      </trkpt>
      <trkpt lat="48.08236" lon="-3.03384">
        <ele>181</ele>
        <time>2023-04-10T06:19:09Z</time>
      </trkpt>
      <trkpt lat="48.08233" lon="-3.03383">
        <ele>181.2</ele>
        <time>2023-04-10T06:19:10Z</time>
      </trkpt>
      <trkpt lat="48.0823" lon="-3.03382">
        <ele>181.4</ele>
        <time>2023-04-10T06:19:11Z</time>
      </trkpt>
      <trkpt lat="48.08228" lon="-3.03381">
        <ele>181.6</ele>
        <time>2023-04-10T06:19:12Z</time>
      </trkpt>
      <trkpt lat="48.08225" lon="-3.03379">
        <ele>181.6</ele>
        <time>2023-04-10T06:19:13Z</time>
      </trkpt>
      <trkpt lat="48.08222" lon="-3.03378">
        <ele>181.8</ele>
        <time>2023-04-10T06:19:14Z</time>
      </trkpt>
      <trkpt lat="48.0822" lon="-3.03377">
        <ele>182.2</ele>
        <time>2023-04-10T06:19:15Z</time>
      </trkpt>
      <trkpt lat="48.08217" lon="-3.03375">
        <ele>182.4</ele>
        <time>2023-04-10T06:19:16Z</time>
      </trkpt>
      <trkpt lat="48.08215" lon="-3.03374">
        <ele>182.6</ele>
        <time>2023-04-10T06:19:17Z</time>
      </trkpt>
      <trkpt lat="48.08213" lon="-3.03372">
        <ele>182.8</ele>
        <time>2023-04-10T06:19:18Z</time>
      </trkpt>
      <trkpt lat="48.08211" lon="-3.03371">
        <ele>183</ele>
        <time>2023-04-10T06:19:19Z</time>
      </trkpt>
      <trkpt lat="48.08209" lon="-3.03369">
        <ele>183.2</ele>
        <time>2023-04-10T06:19:20Z</time>
      </trkpt>
      <trkpt lat="48.08206" lon="-3.03367">
        <ele>183.6</ele>
        <time>2023-04-10T06:19:21Z</time>
      </trkpt>
      <trkpt lat="48.08205" lon="-3.03365">
        <ele>184</ele>
        <time>2023-04-10T06:19:22Z</time>
      </trkpt>
      <trkpt lat="48.08203" lon="-3.03362">
        <ele>184.2</ele>
        <time>2023-04-10T06:19:23Z</time>
      </trkpt>
      <trkpt lat="48.08201" lon="-3.03359">
        <ele>184.6</ele>
        <time>2023-04-10T06:19:24Z</time>
      </trkpt>
      <trkpt lat="48.08199" lon="-3.03357">
        <ele>185</ele>
        <time>2023-04-10T06:19:25Z</time>
      </trkpt>
      <trkpt lat="48.08198" lon="-3.03354">
        <ele>185.2</ele>
        <time>2023-04-10T06:19:26Z</time>
      </trkpt>
      <trkpt lat="48.08196" lon="-3.03351">
        <ele>185.4</ele>
        <time>2023-04-10T06:19:27Z</time>
      </trkpt>
      <trkpt lat="48.08194" lon="-3.03348">
        <ele>185.8</ele>
        <time>2023-04-10T06:19:28Z</time>
      </trkpt>
      <trkpt lat="48.08192" lon="-3.03345">
        <ele>186</ele>
        <time>2023-04-10T06:19:29Z</time>
      </trkpt>
      <trkpt lat="48.0819" lon="-3.03341">
        <ele>186.2</ele>
        <time>2023-04-10T06:19:30Z</time>
      </trkpt>
      <trkpt lat="48.08189" lon="-3.03338">
        <ele>186.4</ele>
        <time>2023-04-10T06:19:31Z</time>
      </trkpt>
      <trkpt lat="48.08188" lon="-3.03334">
        <ele>186.8</ele>
        <time>2023-04-10T06:19:32Z</time>
      </trkpt>
      <trkpt lat="48.08187" lon="-3.03331">
        <ele>187</ele>
        <time>2023-04-10T06:19:33Z</time>
      </trkpt>
      <trkpt lat="48.08186" lon="-3.03327">
        <ele>187.4</ele>
        <time>2023-04-10T06:19:34Z</time>
      </trkpt>
      <trkpt lat="48.08184" lon="-3.03323">
        <ele>187.4</ele>
        <time>2023-04-10T06:19:35Z</time>
      </trkpt>
      <trkpt lat="48.08182" lon="-3.0332">
        <ele>187.6</ele>
        <time>2023-04-10T06:19:36Z</time>
      </trkpt>
      <trkpt lat="48.08179" lon="-3.03317">
        <ele>188</ele>
        <time>2023-04-10T06:19:37Z</time>
      </trkpt>
      <trkpt lat="48.08176" lon="-3.03315">
        <ele>188.2</ele>
        <time>2023-04-10T06:19:38Z</time>
      </trkpt>
      <trkpt lat="48.08173" lon="-3.03314">
        <ele>188.4</ele>
        <time>2023-04-10T06:19:39Z</time>
      </trkpt>
      <trkpt lat="48.0817" lon="-3.03314">
        <ele>188.8</ele>
        <time>2023-04-10T06:19:40Z</time>
      </trkpt>
      <trkpt lat="48.08167" lon="-3.03315">
        <ele>189</ele>
        <time>2023-04-10T06:19:41Z</time>
      </trkpt>
      <trkpt lat="48.08164" lon="-3.03316">
        <ele>189.2</ele>
        <time>2023-04-10T06:19:42Z</time>
      </trkpt>
      <trkpt lat="48.08162" lon="-3.03317">
        <ele>189.4</ele>
        <time>2023-04-10T06:19:43Z</time>
      </trkpt>
      <trkpt lat="48.08158" lon="-3.03319">
        <ele>189.6</ele>
        <time>2023-04-10T06:19:44Z</time>
      </trkpt>
      <trkpt lat="48.08154" lon="-3.0332">
        <ele>189.8</ele>
        <time>2023-04-10T06:19:45Z</time>
      </trkpt>
      <trkpt lat="48.0815" lon="-3.03323">
        <ele>190</ele>
        <time>2023-04-10T06:19:46Z</time>
      </trkpt>
      <trkpt lat="48.08147" lon="-3.03324">
        <ele>190.4</ele>
        <time>2023-04-10T06:19:47Z</time>
      </trkpt>
      <trkpt lat="48.08144" lon="-3.03326">
        <ele>190.6</ele>
        <time>2023-04-10T06:19:48Z</time>
      </trkpt>
      <trkpt lat="48.0814" lon="-3.03328">
        <ele>190.8</ele>
        <time>2023-04-10T06:19:49Z</time>
      </trkpt>
      <trkpt lat="48.08136" lon="-3.03329">
        <ele>191</ele>
        <time>2023-04-10T06:19:50Z</time>
      </trkpt>
      <trkpt lat="48.08133" lon="-3.03331">
        <ele>191.2</ele>
        <time>2023-04-10T06:19:51Z</time>
      </trkpt>
      <trkpt lat="48.08129" lon="-3.03334">
        <ele>191.2</ele>
        <time>2023-04-10T06:19:52Z</time>
      </trkpt>
      <trkpt lat="48.08125" lon="-3.03336">
        <ele>191.2</ele>
        <time>2023-04-10T06:19:53Z</time>
      </trkpt>
      <trkpt lat="48.08121" lon="-3.03337">
        <ele>191.2</ele>
        <time>2023-04-10T06:19:54Z</time>
      </trkpt>
      <trkpt lat="48.08117" lon="-3.03339">
        <ele>191.4</ele>
        <time>2023-04-10T06:19:55Z</time>
      </trkpt>
      <trkpt lat="48.08113" lon="-3.0334">
        <ele>191.4</ele>
        <time>2023-04-10T06:19:56Z</time>
      </trkpt>
      <trkpt lat="48.0811" lon="-3.03342">
        <ele>191.4</ele>
        <time>2023-04-10T06:19:57Z</time>
      </trkpt>
      <trkpt lat="48.08106" lon="-3.03344">
        <ele>191.4</ele>
        <time>2023-04-10T06:19:58Z</time>
      </trkpt>
      <trkpt lat="48.08102" lon="-3.03346">
        <ele>191.4</ele>
        <time>2023-04-10T06:19:59Z</time>
      </trkpt>
      <trkpt lat="48.08099" lon="-3.03348">
        <ele>191.4</ele>
        <time>2023-04-10T06:20:00Z</time>
      </trkpt>
      <trkpt lat="48.08095" lon="-3.0335">
        <ele>191.4</ele>
        <time>2023-04-10T06:20:01Z</time>
      </trkpt>
      <trkpt lat="48.08092" lon="-3.03352">
        <ele>191.4</ele>
        <time>2023-04-10T06:20:02Z</time>
      </trkpt>
      <trkpt lat="48.08088" lon="-3.03354">
        <ele>191.4</ele>
        <time>2023-04-10T06:20:03Z</time>
      </trkpt>
      <trkpt lat="48.08085" lon="-3.03356">
        <ele>191.4</ele>
        <time>2023-04-10T06:20:04Z</time>
      </trkpt>
      <trkpt lat="48.08081" lon="-3.03358">
        <ele>191.4</ele>
        <time>2023-04-10T06:20:05Z</time>
      </trkpt>
      <trkpt lat="48.08077" lon="-3.0336">
        <ele>191.6</ele>
        <time>2023-04-10T06:20:06Z</time>
      </trkpt>
      <trkpt lat="48.08075" lon="-3.03362">
        <ele>191.6</ele>
        <time>2023-04-10T06:20:07Z</time>
      </trkpt>
      <trkpt lat="48.0807" lon="-3.03365">
        <ele>191.6</ele>
        <time>2023-04-10T06:20:08Z</time>
      </trkpt>
      <trkpt lat="48.08068" lon="-3.03366">
        <ele>191.6</ele>
        <time>2023-04-10T06:20:09Z</time>
      </trkpt>
      <trkpt lat="48.08064" lon="-3.03369">
        <ele>191.6</ele>
        <time>2023-04-10T06:20:10Z</time>
      </trkpt>
      <trkpt lat="48.0806" lon="-3.0337">
        <ele>191.6</ele>
        <time>2023-04-10T06:20:11Z</time>
      </trkpt>
      <trkpt lat="48.08053" lon="-3.03373">
        <ele>191.8</ele>
        <time>2023-04-10T06:20:13Z</time>
      </trkpt>
      <trkpt lat="48.08047" lon="-3.03375">
        <ele>191.8</ele>
        <time>2023-04-10T06:20:15Z</time>
      </trkpt>
      <trkpt lat="48.0802" lon="-3.03382">
        <ele>191.8</ele>
        <time>2023-04-10T06:20:23Z</time>
      </trkpt>
      <trkpt lat="48.08017" lon="-3.03383">
        <ele>191.8</ele>
        <time>2023-04-10T06:20:24Z</time>
      </trkpt>
      <trkpt lat="48.08" lon="-3.03386">
        <ele>192</ele>
        <time>2023-04-10T06:20:29Z</time>
      </trkpt>
      <trkpt lat="48.07997" lon="-3.03387">
        <ele>192</ele>
        <time>2023-04-10T06:20:30Z</time>
      </trkpt>
      <trkpt lat="48.0799" lon="-3.03389">
        <ele>192.2</ele>
        <time>2023-04-10T06:20:32Z</time>
      </trkpt>
      <trkpt lat="48.07982" lon="-3.0339">
        <ele>192.2</ele>
        <time>2023-04-10T06:20:34Z</time>
      </trkpt>
      <trkpt lat="48.07979" lon="-3.03391">
        <ele>192.4</ele>
        <time>2023-04-10T06:20:35Z</time>
      </trkpt>
      <trkpt lat="48.07976" lon="-3.03392">
        <ele>192.6</ele>
        <time>2023-04-10T06:20:36Z</time>
      </trkpt>
      <trkpt lat="48.07971" lon="-3.03393">
        <ele>192.6</ele>
        <time>2023-04-10T06:20:37Z</time>
      </trkpt>
      <trkpt lat="48.07965" lon="-3.03395">
        <ele>192.8</ele>
        <time>2023-04-10T06:20:39Z</time>
      </trkpt>
      <trkpt lat="48.07961" lon="-3.03396">
        <ele>192.8</ele>
        <time>2023-04-10T06:20:40Z</time>
      </trkpt>
      <trkpt lat="48.07957" lon="-3.03396">
        <ele>192.8</ele>
        <time>2023-04-10T06:20:41Z</time>
      </trkpt>
      <trkpt lat="48.07954" lon="-3.03396">
        <ele>192.8</ele>
        <time>2023-04-10T06:20:42Z</time>
      </trkpt>
      <trkpt lat="48.0795" lon="-3.03394">
        <ele>193</ele>
        <time>2023-04-10T06:20:43Z</time>
      </trkpt>
      <trkpt lat="48.07947" lon="-3.03392">
        <ele>193</ele>
        <time>2023-04-10T06:20:44Z</time>
      </trkpt>
      <trkpt lat="48.07945" lon="-3.03387">
        <ele>193.2</ele>
        <time>2023-04-10T06:20:45Z</time>
      </trkpt>
      <trkpt lat="48.07944" lon="-3.03382">
        <ele>193.2</ele>
        <time>2023-04-10T06:20:46Z</time>
      </trkpt>
      <trkpt lat="48.07942" lon="-3.03376">
        <ele>193.4</ele>
        <time>2023-04-10T06:20:47Z</time>
      </trkpt>
      <trkpt lat="48.07941" lon="-3.03371">
        <ele>193.4</ele>
        <time>2023-04-10T06:20:48Z</time>
      </trkpt>
      <trkpt lat="48.0794" lon="-3.03365">
        <ele>193.4</ele>
        <time>2023-04-10T06:20:49Z</time>
      </trkpt>
      <trkpt lat="48.07939" lon="-3.0336">
        <ele>193.4</ele>
        <time>2023-04-10T06:20:50Z</time>
      </trkpt>
      <trkpt lat="48.07938" lon="-3.03355">
        <ele>193.4</ele>
        <time>2023-04-10T06:20:51Z</time>
      </trkpt>
      <trkpt lat="48.07935" lon="-3.03351">
        <ele>193.6</ele>
        <time>2023-04-10T06:20:52Z</time>
      </trkpt>
      <trkpt lat="48.07931" lon="-3.03347">
        <ele>193.6</ele>
        <time>2023-04-10T06:20:53Z</time>
      </trkpt>
      <trkpt lat="48.07927" lon="-3.03346">
        <ele>193.8</ele>
        <time>2023-04-10T06:20:54Z</time>
      </trkpt>
      <trkpt lat="48.07924" lon="-3.03347">
        <ele>193.8</ele>
        <time>2023-04-10T06:20:55Z</time>
      </trkpt>
      <trkpt lat="48.07921" lon="-3.03348">
        <ele>194</ele>
        <time>2023-04-10T06:20:56Z</time>
      </trkpt>
      <trkpt lat="48.07918" lon="-3.03351">
        <ele>194</ele>
        <time>2023-04-10T06:20:57Z</time>
      </trkpt>
      <trkpt lat="48.07915" lon="-3.03353">
        <ele>194</ele>
        <time>2023-04-10T06:20:58Z</time>
      </trkpt>
      <trkpt lat="48.07905" lon="-3.0336">
        <ele>194.4</ele>
        <time>2023-04-10T06:21:01Z</time>
      </trkpt>
      <trkpt lat="48.07892" lon="-3.03366">
        <ele>195</ele>
        <time>2023-04-10T06:21:05Z</time>
      </trkpt>
      <trkpt lat="48.07885" lon="-3.03369">
        <ele>195.2</ele>
        <time>2023-04-10T06:21:07Z</time>
      </trkpt>
      <trkpt lat="48.07882" lon="-3.0337">
        <ele>195.4</ele>
        <time>2023-04-10T06:21:08Z</time>
      </trkpt>
      <trkpt lat="48.07868" lon="-3.03374">
        <ele>196.2</ele>
        <time>2023-04-10T06:21:12Z</time>
      </trkpt>
      <trkpt lat="48.07864" lon="-3.03375">
        <ele>196.2</ele>
        <time>2023-04-10T06:21:13Z</time>
      </trkpt>
      <trkpt lat="48.0786" lon="-3.03375">
        <ele>196.4</ele>
        <time>2023-04-10T06:21:14Z</time>
      </trkpt>
      <trkpt lat="48.07857" lon="-3.03376">
        <ele>196.6</ele>
        <time>2023-04-10T06:21:15Z</time>
      </trkpt>
      <trkpt lat="48.07853" lon="-3.03376">
        <ele>196.6</ele>
        <time>2023-04-10T06:21:16Z</time>
      </trkpt>
      <trkpt lat="48.0785" lon="-3.03376">
        <ele>196.8</ele>
        <time>2023-04-10T06:21:17Z</time>
      </trkpt>
      <trkpt lat="48.07846" lon="-3.03377">
        <ele>196.8</ele>
        <time>2023-04-10T06:21:18Z</time>
      </trkpt>
      <trkpt lat="48.07843" lon="-3.03378">
        <ele>196.8</ele>
        <time>2023-04-10T06:21:19Z</time>
      </trkpt>
      <trkpt lat="48.07839" lon="-3.03378">
        <ele>196.8</ele>
        <time>2023-04-10T06:21:20Z</time>
      </trkpt>
      <trkpt lat="48.07835" lon="-3.03378">
        <ele>196.8</ele>
        <time>2023-04-10T06:21:21Z</time>
      </trkpt>
      <trkpt lat="48.07832" lon="-3.03378">
        <ele>197</ele>
        <time>2023-04-10T06:21:22Z</time>
      </trkpt>
      <trkpt lat="48.07828" lon="-3.03379">
        <ele>197.2</ele>
        <time>2023-04-10T06:21:23Z</time>
      </trkpt>
      <trkpt lat="48.07825" lon="-3.03379">
        <ele>197.2</ele>
        <time>2023-04-10T06:21:24Z</time>
      </trkpt>
      <trkpt lat="48.07821" lon="-3.03379">
        <ele>197.4</ele>
        <time>2023-04-10T06:21:25Z</time>
      </trkpt>
      <trkpt lat="48.07817" lon="-3.0338">
        <ele>197.4</ele>
        <time>2023-04-10T06:21:26Z</time>
      </trkpt>
      <trkpt lat="48.07814" lon="-3.0338">
        <ele>197.4</ele>
        <time>2023-04-10T06:21:27Z</time>
      </trkpt>
      <trkpt lat="48.0781" lon="-3.0338">
        <ele>197.6</ele>
        <time>2023-04-10T06:21:28Z</time>
      </trkpt>
      <trkpt lat="48.07807" lon="-3.0338">
        <ele>197.8</ele>
        <time>2023-04-10T06:21:29Z</time>
      </trkpt>
      <trkpt lat="48.07803" lon="-3.0338">
        <ele>197.8</ele>
        <time>2023-04-10T06:21:30Z</time>
      </trkpt>
      <trkpt lat="48.07798" lon="-3.03381">
        <ele>198</ele>
        <time>2023-04-10T06:21:31Z</time>
      </trkpt>
      <trkpt lat="48.07794" lon="-3.03381">
        <ele>198</ele>
        <time>2023-04-10T06:21:32Z</time>
      </trkpt>
      <trkpt lat="48.0779" lon="-3.03381">
        <ele>198</ele>
        <time>2023-04-10T06:21:33Z</time>
      </trkpt>
      <trkpt lat="48.07786" lon="-3.03381">
        <ele>198.2</ele>
        <time>2023-04-10T06:21:34Z</time>
      </trkpt>
      <trkpt lat="48.07782" lon="-3.0338">
        <ele>198.4</ele>
        <time>2023-04-10T06:21:35Z</time>
      </trkpt>
      <trkpt lat="48.07778" lon="-3.0338">
        <ele>198.4</ele>
        <time>2023-04-10T06:21:36Z</time>
      </trkpt>
      <trkpt lat="48.07774" lon="-3.0338">
        <ele>198.6</ele>
        <time>2023-04-10T06:21:37Z</time>
      </trkpt>
      <trkpt lat="48.0777" lon="-3.0338">
        <ele>198.6</ele>
        <time>2023-04-10T06:21:38Z</time>
      </trkpt>
      <trkpt lat="48.07766" lon="-3.03381">
        <ele>198.6</ele>
        <time>2023-04-10T06:21:39Z</time>
      </trkpt>
      <trkpt lat="48.07762" lon="-3.03381">
        <ele>198.6</ele>
        <time>2023-04-10T06:21:40Z</time>
      </trkpt>
      <trkpt lat="48.07757" lon="-3.03381">
        <ele>198.6</ele>
        <time>2023-04-10T06:21:41Z</time>
      </trkpt>
      <trkpt lat="48.07753" lon="-3.03381">
        <ele>198.6</ele>
        <time>2023-04-10T06:21:42Z</time>
      </trkpt>
      <trkpt lat="48.0775" lon="-3.03382">
        <ele>198.6</ele>
        <time>2023-04-10T06:21:43Z</time>
      </trkpt>
      <trkpt lat="48.07746" lon="-3.03383">
        <ele>198.6</ele>
        <time>2023-04-10T06:21:44Z</time>
      </trkpt>
      <trkpt lat="48.07734" lon="-3.03386">
        <ele>198.6</ele>
        <time>2023-04-10T06:21:47Z</time>
      </trkpt>
      <trkpt lat="48.0773" lon="-3.03388">
        <ele>198.6</ele>
        <time>2023-04-10T06:21:48Z</time>
      </trkpt>
      <trkpt lat="48.07726" lon="-3.0339">
        <ele>198.6</ele>
        <time>2023-04-10T06:21:49Z</time>
      </trkpt>
      <trkpt lat="48.07722" lon="-3.03393">
        <ele>198.6</ele>
        <time>2023-04-10T06:21:50Z</time>
      </trkpt>
      <trkpt lat="48.07704" lon="-3.03403">
        <ele>198.4</ele>
        <time>2023-04-10T06:21:54Z</time>
      </trkpt>
      <trkpt lat="48.07682" lon="-3.03411">
        <ele>198.2</ele>
        <time>2023-04-10T06:21:58Z</time>
      </trkpt>
      <trkpt lat="48.07675" lon="-3.03412">
        <ele>198</ele>
        <time>2023-04-10T06:21:59Z</time>
      </trkpt>
      <trkpt lat="48.07667" lon="-3.03412">
        <ele>198</ele>
        <time>2023-04-10T06:22:00Z</time>
      </trkpt>
      <trkpt lat="48.07653" lon="-3.03407">
        <ele>197.4</ele>
        <time>2023-04-10T06:22:02Z</time>
      </trkpt>
      <trkpt lat="48.07646" lon="-3.03404">
        <ele>197</ele>
        <time>2023-04-10T06:22:03Z</time>
      </trkpt>
      <trkpt lat="48.07632" lon="-3.03395">
        <ele>196.6</ele>
        <time>2023-04-10T06:22:05Z</time>
      </trkpt>
      <trkpt lat="48.07626" lon="-3.0339">
        <ele>196</ele>
        <time>2023-04-10T06:22:06Z</time>
      </trkpt>
      <trkpt lat="48.0762" lon="-3.03385">
        <ele>195.8</ele>
        <time>2023-04-10T06:22:07Z</time>
      </trkpt>
      <trkpt lat="48.07615" lon="-3.0338">
        <ele>194.8</ele>
        <time>2023-04-10T06:22:08Z</time>
      </trkpt>
      <trkpt lat="48.0761" lon="-3.03377">
        <ele>194.2</ele>
        <time>2023-04-10T06:22:09Z</time>
      </trkpt>
      <trkpt lat="48.07605" lon="-3.03377">
        <ele>193.8</ele>
        <time>2023-04-10T06:22:10Z</time>
      </trkpt>
      <trkpt lat="48.076" lon="-3.0338">
        <ele>193.4</ele>
        <time>2023-04-10T06:22:11Z</time>
      </trkpt>
      <trkpt lat="48.07597" lon="-3.03395">
        <ele>192.6</ele>
        <time>2023-04-10T06:22:13Z</time>
      </trkpt>
      <trkpt lat="48.07596" lon="-3.03403">
        <ele>192</ele>
        <time>2023-04-10T06:22:14Z</time>
      </trkpt>
      <trkpt lat="48.07595" lon="-3.03422">
        <ele>190.6</ele>
        <time>2023-04-10T06:22:16Z</time>
      </trkpt>
      <trkpt lat="48.07594" lon="-3.03438">
        <ele>189.8</ele>
        <time>2023-04-10T06:22:18Z</time>
      </trkpt>
      <trkpt lat="48.07594" lon="-3.03447">
        <ele>189.6</ele>
        <time>2023-04-10T06:22:19Z</time>
      </trkpt>
      <trkpt lat="48.07592" lon="-3.03474">
        <ele>188.4</ele>
        <time>2023-04-10T06:22:22Z</time>
      </trkpt>
      <trkpt lat="48.07592" lon="-3.03483">
        <ele>188.2</ele>
        <time>2023-04-10T06:22:23Z</time>
      </trkpt>
      <trkpt lat="48.07592" lon="-3.03492">
        <ele>188</ele>
        <time>2023-04-10T06:22:24Z</time>
      </trkpt>
      <trkpt lat="48.07591" lon="-3.03501">
        <ele>188</ele>
        <time>2023-04-10T06:22:25Z</time>
      </trkpt>
      <trkpt lat="48.0759" lon="-3.0351">
        <ele>187.8</ele>
        <time>2023-04-10T06:22:26Z</time>
      </trkpt>
      <trkpt lat="48.07589" lon="-3.03519">
        <ele>187.4</ele>
        <time>2023-04-10T06:22:27Z</time>
      </trkpt>
      <trkpt lat="48.07585" lon="-3.03535">
        <ele>187</ele>
        <time>2023-04-10T06:22:29Z</time>
      </trkpt>
      <trkpt lat="48.07584" lon="-3.03543">
        <ele>186.8</ele>
        <time>2023-04-10T06:22:30Z</time>
      </trkpt>
      <trkpt lat="48.07582" lon="-3.03552">
        <ele>186.6</ele>
        <time>2023-04-10T06:22:31Z</time>
      </trkpt>
      <trkpt lat="48.07577" lon="-3.03572">
        <ele>186.6</ele>
        <time>2023-04-10T06:22:34Z</time>
      </trkpt>
      <trkpt lat="48.07575" lon="-3.03579">
        <ele>186.4</ele>
        <time>2023-04-10T06:22:35Z</time>
      </trkpt>
      <trkpt lat="48.07572" lon="-3.03587">
        <ele>186.2</ele>
        <time>2023-04-10T06:22:36Z</time>
      </trkpt>
      <trkpt lat="48.07565" lon="-3.03603">
        <ele>186.2</ele>
        <time>2023-04-10T06:22:38Z</time>
      </trkpt>
      <trkpt lat="48.07558" lon="-3.03627">
        <ele>186.2</ele>
        <time>2023-04-10T06:22:41Z</time>
      </trkpt>
      <trkpt lat="48.07556" lon="-3.03636">
        <ele>186.2</ele>
        <time>2023-04-10T06:22:42Z</time>
      </trkpt>
      <trkpt lat="48.07557" lon="-3.03664">
        <ele>186</ele>
        <time>2023-04-10T06:22:45Z</time>
      </trkpt>
      <trkpt lat="48.07558" lon="-3.03673">
        <ele>186</ele>
        <time>2023-04-10T06:22:46Z</time>
      </trkpt>
      <trkpt lat="48.07559" lon="-3.03682">
        <ele>186</ele>
        <time>2023-04-10T06:22:47Z</time>
      </trkpt>
      <trkpt lat="48.07562" lon="-3.03692">
        <ele>186</ele>
        <time>2023-04-10T06:22:48Z</time>
      </trkpt>
      <trkpt lat="48.07564" lon="-3.037">
        <ele>185.6</ele>
        <time>2023-04-10T06:22:49Z</time>
      </trkpt>
      <trkpt lat="48.07567" lon="-3.03707">
        <ele>185.6</ele>
        <time>2023-04-10T06:22:50Z</time>
      </trkpt>
      <trkpt lat="48.0757" lon="-3.03712">
        <ele>185.4</ele>
        <time>2023-04-10T06:22:51Z</time>
      </trkpt>
      <trkpt lat="48.07573" lon="-3.03716">
        <ele>185.4</ele>
        <time>2023-04-10T06:22:52Z</time>
      </trkpt>
      <trkpt lat="48.07575" lon="-3.03722">
        <ele>185</ele>
        <time>2023-04-10T06:22:53Z</time>
      </trkpt>
      <trkpt lat="48.07576" lon="-3.03729">
        <ele>185</ele>
        <time>2023-04-10T06:22:54Z</time>
      </trkpt>
      <trkpt lat="48.07577" lon="-3.03735">
        <ele>184.8</ele>
        <time>2023-04-10T06:22:55Z</time>
      </trkpt>
      <trkpt lat="48.07578" lon="-3.03742">
        <ele>184.8</ele>
        <time>2023-04-10T06:22:56Z</time>
      </trkpt>
      <trkpt lat="48.07581" lon="-3.03755">
        <ele>184.6</ele>
        <time>2023-04-10T06:22:58Z</time>
      </trkpt>
      <trkpt lat="48.07583" lon="-3.03762">
        <ele>184.6</ele>
        <time>2023-04-10T06:22:59Z</time>
      </trkpt>
      <trkpt lat="48.07585" lon="-3.03773">
        <ele>184.6</ele>
        <time>2023-04-10T06:23:01Z</time>
      </trkpt>
      <trkpt lat="48.07586" lon="-3.03779">
        <ele>184.4</ele>
        <time>2023-04-10T06:23:02Z</time>
      </trkpt>
      <trkpt lat="48.07587" lon="-3.03787">
        <ele>184.4</ele>
        <time>2023-04-10T06:23:03Z</time>
      </trkpt>
      <trkpt lat="48.07591" lon="-3.03802">
        <ele>184.2</ele>
        <time>2023-04-10T06:23:05Z</time>
      </trkpt>
      <trkpt lat="48.07594" lon="-3.03809">
        <ele>184</ele>
        <time>2023-04-10T06:23:06Z</time>
      </trkpt>
      <trkpt lat="48.07599" lon="-3.03819">
        <ele>184</ele>
        <time>2023-04-10T06:23:08Z</time>
      </trkpt>
      <trkpt lat="48.07611" lon="-3.03848">
        <ele>183.6</ele>
        <time>2023-04-10T06:23:13Z</time>
      </trkpt>
      <trkpt lat="48.07615" lon="-3.03853">
        <ele>183.6</ele>
        <time>2023-04-10T06:23:14Z</time>
      </trkpt>
      <trkpt lat="48.07618" lon="-3.03858">
        <ele>183.6</ele>
        <time>2023-04-10T06:23:15Z</time>
      </trkpt>
      <trkpt lat="48.07622" lon="-3.03864">
        <ele>183.6</ele>
        <time>2023-04-10T06:23:16Z</time>
      </trkpt>
      <trkpt lat="48.07623" lon="-3.03869">
        <ele>183.2</ele>
        <time>2023-04-10T06:23:17Z</time>
      </trkpt>
      <trkpt lat="48.07625" lon="-3.03875">
        <ele>183.2</ele>
        <time>2023-04-10T06:23:18Z</time>
      </trkpt>
      <trkpt lat="48.07627" lon="-3.03881">
        <ele>183.2</ele>
        <time>2023-04-10T06:23:19Z</time>
      </trkpt>
      <trkpt lat="48.07626" lon="-3.03887">
        <ele>183</ele>
        <time>2023-04-10T06:23:20Z</time>
      </trkpt>
      <trkpt lat="48.07624" lon="-3.03892">
        <ele>183</ele>
        <time>2023-04-10T06:23:21Z</time>
      </trkpt>
      <trkpt lat="48.07621" lon="-3.03897">
        <ele>183</ele>
        <time>2023-04-10T06:23:22Z</time>
      </trkpt>
      <trkpt lat="48.07617" lon="-3.039">
        <ele>182.8</ele>
        <time>2023-04-10T06:23:23Z</time>
      </trkpt>
      <trkpt lat="48.07614" lon="-3.03904">
        <ele>182.8</ele>
        <time>2023-04-10T06:23:24Z</time>
      </trkpt>
      <trkpt lat="48.07611" lon="-3.03907">
        <ele>182.8</ele>
        <time>2023-04-10T06:23:25Z</time>
      </trkpt>
      <trkpt lat="48.07608" lon="-3.0391">
        <ele>182.8</ele>
        <time>2023-04-10T06:23:26Z</time>
      </trkpt>
      <trkpt lat="48.07604" lon="-3.03912">
        <ele>182.8</ele>
        <time>2023-04-10T06:23:27Z</time>
      </trkpt>
      <trkpt lat="48.07601" lon="-3.03913">
        <ele>182.8</ele>
        <time>2023-04-10T06:23:28Z</time>
      </trkpt>
      <trkpt lat="48.07597" lon="-3.03915">
        <ele>182.6</ele>
        <time>2023-04-10T06:23:29Z</time>
      </trkpt>
      <trkpt lat="48.07594" lon="-3.03917">
        <ele>182.6</ele>
        <time>2023-04-10T06:23:30Z</time>
      </trkpt>
      <trkpt lat="48.07592" lon="-3.03918">
        <ele>182.6</ele>
        <time>2023-04-10T06:23:31Z</time>
      </trkpt>
      <trkpt lat="48.07589" lon="-3.03919">
        <ele>182.6</ele>
        <time>2023-04-10T06:23:32Z</time>
      </trkpt>
      <trkpt lat="48.07583" lon="-3.03923">
        <ele>182.8</ele>
        <time>2023-04-10T06:23:34Z</time>
      </trkpt>
      <trkpt lat="48.07566" lon="-3.03934">
        <ele>183</ele>
        <time>2023-04-10T06:23:38Z</time>
      </trkpt>
      <trkpt lat="48.07561" lon="-3.03936">
        <ele>183.2</ele>
        <time>2023-04-10T06:23:39Z</time>
      </trkpt>
      <trkpt lat="48.07557" lon="-3.03939">
        <ele>183.2</ele>
        <time>2023-04-10T06:23:40Z</time>
      </trkpt>
      <trkpt lat="48.07555" lon="-3.03942">
        <ele>183.4</ele>
        <time>2023-04-10T06:23:41Z</time>
      </trkpt>
      <trkpt lat="48.07552" lon="-3.03944">
        <ele>183.4</ele>
        <time>2023-04-10T06:23:42Z</time>
      </trkpt>
      <trkpt lat="48.0755" lon="-3.03945">
        <ele>183.6</ele>
        <time>2023-04-10T06:23:43Z</time>
      </trkpt>
      <trkpt lat="48.07547" lon="-3.03946">
        <ele>183.8</ele>
        <time>2023-04-10T06:23:44Z</time>
      </trkpt>
      <trkpt lat="48.07544" lon="-3.03948">
        <ele>183.8</ele>
        <time>2023-04-10T06:23:45Z</time>
      </trkpt>
      <trkpt lat="48.07542" lon="-3.0395">
        <ele>184</ele>
        <time>2023-04-10T06:23:46Z</time>
      </trkpt>
      <trkpt lat="48.07541" lon="-3.03952">
        <ele>184.2</ele>
        <time>2023-04-10T06:23:47Z</time>
      </trkpt>
      <trkpt lat="48.07529" lon="-3.03963">
        <ele>184.4</ele>
        <time>2023-04-10T06:23:50Z</time>
      </trkpt>
      <trkpt lat="48.07526" lon="-3.03965">
        <ele>184.6</ele>
        <time>2023-04-10T06:23:51Z</time>
      </trkpt>
      <trkpt lat="48.07525" lon="-3.03967">
        <ele>184.8</ele>
        <time>2023-04-10T06:23:52Z</time>
      </trkpt>
      <trkpt lat="48.07523" lon="-3.03969">
        <ele>185</ele>
        <time>2023-04-10T06:23:53Z</time>
      </trkpt>
      <trkpt lat="48.07522" lon="-3.03971">
        <ele>185.2</ele>
        <time>2023-04-10T06:23:54Z</time>
      </trkpt>
      <trkpt lat="48.0752" lon="-3.03972">
        <ele>185.4</ele>
        <time>2023-04-10T06:23:55Z</time>
      </trkpt>
      <trkpt lat="48.07519" lon="-3.03974">
        <ele>185.6</ele>
        <time>2023-04-10T06:23:56Z</time>
      </trkpt>
      <trkpt lat="48.07517" lon="-3.03975">
        <ele>185.8</ele>
        <time>2023-04-10T06:23:57Z</time>
      </trkpt>
      <trkpt lat="48.07516" lon="-3.03977">
        <ele>186.2</ele>
        <time>2023-04-10T06:23:58Z</time>
      </trkpt>
      <trkpt lat="48.07515" lon="-3.03978">
        <ele>186.4</ele>
        <time>2023-04-10T06:23:59Z</time>
      </trkpt>
      <trkpt lat="48.07513" lon="-3.0398">
        <ele>186.8</ele>
        <time>2023-04-10T06:24:00Z</time>
      </trkpt>
      <trkpt lat="48.07512" lon="-3.03983">
        <ele>187</ele>
        <time>2023-04-10T06:24:01Z</time>
      </trkpt>
      <trkpt lat="48.0751" lon="-3.03984">
        <ele>187</ele>
        <time>2023-04-10T06:24:02Z</time>
      </trkpt>
      <trkpt lat="48.07509" lon="-3.03986">
        <ele>187.4</ele>
        <time>2023-04-10T06:24:03Z</time>
      </trkpt>
      <trkpt lat="48.07508" lon="-3.03987">
        <ele>187.6</ele>
        <time>2023-04-10T06:24:04Z</time>
      </trkpt>
      <trkpt lat="48.07507" lon="-3.03988">
        <ele>188</ele>
        <time>2023-04-10T06:24:05Z</time>
      </trkpt>
      <trkpt lat="48.07505" lon="-3.0399">
        <ele>188.2</ele>
        <time>2023-04-10T06:24:06Z</time>
      </trkpt>
      <trkpt lat="48.07504" lon="-3.03992">
        <ele>188.4</ele>
        <time>2023-04-10T06:24:07Z</time>
      </trkpt>
      <trkpt lat="48.07503" lon="-3.03994">
        <ele>188.6</ele>
        <time>2023-04-10T06:24:08Z</time>
      </trkpt>
      <trkpt lat="48.07502" lon="-3.03996">
        <ele>188.8</ele>
        <time>2023-04-10T06:24:09Z</time>
      </trkpt>
      <trkpt lat="48.07499" lon="-3.03997">
        <ele>189</ele>
        <time>2023-04-10T06:24:10Z</time>
      </trkpt>
      <trkpt lat="48.07498" lon="-3.03999">
        <ele>189.4</ele>
        <time>2023-04-10T06:24:11Z</time>
      </trkpt>
      <trkpt lat="48.07497" lon="-3.04001">
        <ele>189.8</ele>
        <time>2023-04-10T06:24:12Z</time>
      </trkpt>
      <trkpt lat="48.07497" lon="-3.04003">
        <ele>190</ele>
        <time>2023-04-10T06:24:13Z</time>
      </trkpt>
      <trkpt lat="48.07497" lon="-3.04004">
        <ele>190.4</ele>
        <time>2023-04-10T06:24:14Z</time>
      </trkpt>
      <trkpt lat="48.07497" lon="-3.04005">
        <ele>190.6</ele>
        <time>2023-04-10T06:24:15Z</time>
      </trkpt>
      <trkpt lat="48.07498" lon="-3.04006">
        <ele>191</ele>
        <time>2023-04-10T06:24:16Z</time>
      </trkpt>
      <trkpt lat="48.07499" lon="-3.04008">
        <ele>191.4</ele>
        <time>2023-04-10T06:24:17Z</time>
      </trkpt>
      <trkpt lat="48.07499" lon="-3.04009">
        <ele>191.8</ele>
        <time>2023-04-10T06:24:18Z</time>
      </trkpt>
      <trkpt lat="48.075" lon="-3.0401">
        <ele>192.4</ele>
        <time>2023-04-10T06:24:19Z</time>
      </trkpt>
      <trkpt lat="48.075" lon="-3.04011">
        <ele>192.8</ele>
        <time>2023-04-10T06:24:20Z</time>
      </trkpt>
      <trkpt lat="48.075" lon="-3.04012">
        <ele>193.2</ele>
        <time>2023-04-10T06:24:21Z</time>
      </trkpt>
      <trkpt lat="48.07501" lon="-3.04014">
        <ele>193.4</ele>
        <time>2023-04-10T06:24:22Z</time>
      </trkpt>
      <trkpt lat="48.07502" lon="-3.04017">
        <ele>193.8</ele>
        <time>2023-04-10T06:24:23Z</time>
      </trkpt>
      <trkpt lat="48.07503" lon="-3.04019">
        <ele>193.8</ele>
        <time>2023-04-10T06:24:24Z</time>
      </trkpt>
      <trkpt lat="48.07504" lon="-3.04021">
        <ele>194</ele>
        <time>2023-04-10T06:24:25Z</time>
      </trkpt>
      <trkpt lat="48.07505" lon="-3.04023">
        <ele>194.2</ele>
        <time>2023-04-10T06:24:26Z</time>
      </trkpt>
      <trkpt lat="48.07506" lon="-3.04026">
        <ele>194.4</ele>
        <time>2023-04-10T06:24:27Z</time>
      </trkpt>
      <trkpt lat="48.07508" lon="-3.04029">
        <ele>194.6</ele>
        <time>2023-04-10T06:24:28Z</time>
      </trkpt>
      <trkpt lat="48.07509" lon="-3.04032">
        <ele>194.8</ele>
        <time>2023-04-10T06:24:29Z</time>
      </trkpt>
      <trkpt lat="48.07511" lon="-3.04034">
        <ele>195</ele>
        <time>2023-04-10T06:24:30Z</time>
      </trkpt>
      <trkpt lat="48.07512" lon="-3.04037">
        <ele>195.2</ele>
        <time>2023-04-10T06:24:31Z</time>
      </trkpt>
      <trkpt lat="48.07513" lon="-3.0404">
        <ele>195.4</ele>
        <time>2023-04-10T06:24:32Z</time>
      </trkpt>
      <trkpt lat="48.07514" lon="-3.04042">
        <ele>195.6</ele>
        <time>2023-04-10T06:24:33Z</time>
      </trkpt>
      <trkpt lat="48.07514" lon="-3.04044">
        <ele>195.8</ele>
        <time>2023-04-10T06:24:34Z</time>
      </trkpt>
      <trkpt lat="48.07515" lon="-3.04046">
        <ele>195.8</ele>
        <time>2023-04-10T06:24:35Z</time>
      </trkpt>
      <trkpt lat="48.07516" lon="-3.04049">
        <ele>195.8</ele>
        <time>2023-04-10T06:24:36Z</time>
      </trkpt>
      <trkpt lat="48.07517" lon="-3.04052">
        <ele>196</ele>
        <time>2023-04-10T06:24:37Z</time>
      </trkpt>
      <trkpt lat="48.07518" lon="-3.04055">
        <ele>196</ele>
        <time>2023-04-10T06:24:38Z</time>
      </trkpt>
      <trkpt lat="48.07519" lon="-3.04057">
        <ele>196.2</ele>
        <time>2023-04-10T06:24:39Z</time>
      </trkpt>
      <trkpt lat="48.0752" lon="-3.0406">
        <ele>196.2</ele>
        <time>2023-04-10T06:24:40Z</time>
      </trkpt>
      <trkpt lat="48.07523" lon="-3.04064">
        <ele>196.4</ele>
        <time>2023-04-10T06:24:41Z</time>
      </trkpt>
      <trkpt lat="48.07525" lon="-3.04068">
        <ele>196.6</ele>
        <time>2023-04-10T06:24:42Z</time>
      </trkpt>
      <trkpt lat="48.07526" lon="-3.04071">
        <ele>196.6</ele>
        <time>2023-04-10T06:24:43Z</time>
      </trkpt>
      <trkpt lat="48.07528" lon="-3.04075">
        <ele>196.8</ele>
        <time>2023-04-10T06:24:44Z</time>
      </trkpt>
      <trkpt lat="48.07529" lon="-3.04078">
        <ele>197</ele>
        <time>2023-04-10T06:24:45Z</time>
      </trkpt>
      <trkpt lat="48.0753" lon="-3.04081">
        <ele>197.2</ele>
        <time>2023-04-10T06:24:46Z</time>
      </trkpt>
      <trkpt lat="48.07532" lon="-3.04085">
        <ele>197.2</ele>
        <time>2023-04-10T06:24:47Z</time>
      </trkpt>
      <trkpt lat="48.07534" lon="-3.0409">
        <ele>197.2</ele>
        <time>2023-04-10T06:24:48Z</time>
      </trkpt>
      <trkpt lat="48.07536" lon="-3.04092">
        <ele>197.4</ele>
        <time>2023-04-10T06:24:49Z</time>
      </trkpt>
      <trkpt lat="48.07537" lon="-3.04094">
        <ele>197.6</ele>
        <time>2023-04-10T06:24:50Z</time>
      </trkpt>
      <trkpt lat="48.07536" lon="-3.04099">
        <ele>197.6</ele>
        <time>2023-04-10T06:24:51Z</time>
      </trkpt>
      <trkpt lat="48.07539" lon="-3.04104">
        <ele>197.8</ele>
        <time>2023-04-10T06:24:52Z</time>
      </trkpt>
      <trkpt lat="48.07541" lon="-3.04107">
        <ele>198</ele>
        <time>2023-04-10T06:24:53Z</time>
      </trkpt>
      <trkpt lat="48.07544" lon="-3.04111">
        <ele>198.2</ele>
        <time>2023-04-10T06:24:54Z</time>
      </trkpt>
      <trkpt lat="48.07547" lon="-3.04113">
        <ele>198.4</ele>
        <time>2023-04-10T06:24:55Z</time>
      </trkpt>
      <trkpt lat="48.0755" lon="-3.04117">
        <ele>198.4</ele>
        <time>2023-04-10T06:24:56Z</time>
      </trkpt>
      <trkpt lat="48.07552" lon="-3.04121">
        <ele>198.6</ele>
        <time>2023-04-10T06:24:57Z</time>
      </trkpt>
      <trkpt lat="48.07555" lon="-3.04125">
        <ele>198.6</ele>
        <time>2023-04-10T06:24:58Z</time>
      </trkpt>
      <trkpt lat="48.07557" lon="-3.04128">
        <ele>198.8</ele>
        <time>2023-04-10T06:24:59Z</time>
      </trkpt>
      <trkpt lat="48.07559" lon="-3.04132">
        <ele>199</ele>
        <time>2023-04-10T06:25:00Z</time>
      </trkpt>
      <trkpt lat="48.07561" lon="-3.04136">
        <ele>199.2</ele>
        <time>2023-04-10T06:25:01Z</time>
      </trkpt>
      <trkpt lat="48.07563" lon="-3.04139">
        <ele>199.2</ele>
        <time>2023-04-10T06:25:02Z</time>
      </trkpt>
      <trkpt lat="48.07565" lon="-3.04143">
        <ele>199.4</ele>
        <time>2023-04-10T06:25:03Z</time>
      </trkpt>
      <trkpt lat="48.07567" lon="-3.04147">
        <ele>199.4</ele>
        <time>2023-04-10T06:25:04Z</time>
      </trkpt>
      <trkpt lat="48.0757" lon="-3.04151">
        <ele>199.4</ele>
        <time>2023-04-10T06:25:05Z</time>
      </trkpt>
      <trkpt lat="48.07573" lon="-3.04155">
        <ele>199.6</ele>
        <time>2023-04-10T06:25:06Z</time>
      </trkpt>
      <trkpt lat="48.07577" lon="-3.04159">
        <ele>199.6</ele>
        <time>2023-04-10T06:25:07Z</time>
      </trkpt>
      <trkpt lat="48.07578" lon="-3.04164">
        <ele>199.6</ele>
        <time>2023-04-10T06:25:08Z</time>
      </trkpt>
      <trkpt lat="48.0758" lon="-3.04169">
        <ele>199.6</ele>
        <time>2023-04-10T06:25:09Z</time>
      </trkpt>
      <trkpt lat="48.07582" lon="-3.04173">
        <ele>199.6</ele>
        <time>2023-04-10T06:25:10Z</time>
      </trkpt>
      <trkpt lat="48.07585" lon="-3.04177">
        <ele>199.6</ele>
        <time>2023-04-10T06:25:11Z</time>
      </trkpt>
      <trkpt lat="48.07587" lon="-3.04182">
        <ele>199.6</ele>
        <time>2023-04-10T06:25:12Z</time>
      </trkpt>
      <trkpt lat="48.0759" lon="-3.04187">
        <ele>199.6</ele>
        <time>2023-04-10T06:25:13Z</time>
      </trkpt>
      <trkpt lat="48.07591" lon="-3.04191">
        <ele>199.6</ele>
        <time>2023-04-10T06:25:14Z</time>
      </trkpt>
      <trkpt lat="48.07594" lon="-3.04196">
        <ele>199.6</ele>
        <time>2023-04-10T06:25:15Z</time>
      </trkpt>
      <trkpt lat="48.07596" lon="-3.042">
        <ele>199.6</ele>
        <time>2023-04-10T06:25:16Z</time>
      </trkpt>
      <trkpt lat="48.07602" lon="-3.0421">
        <ele>199.6</ele>
        <time>2023-04-10T06:25:18Z</time>
      </trkpt>
      <trkpt lat="48.07604" lon="-3.04211">
        <ele>199.6</ele>
        <time>2023-04-10T06:25:19Z</time>
      </trkpt>
      <trkpt lat="48.07608" lon="-3.04213">
        <ele>199.6</ele>
        <time>2023-04-10T06:25:20Z</time>
      </trkpt>
      <trkpt lat="48.07612" lon="-3.04214">
        <ele>199.8</ele>
        <time>2023-04-10T06:25:21Z</time>
      </trkpt>
      <trkpt lat="48.07616" lon="-3.04216">
        <ele>199.8</ele>
        <time>2023-04-10T06:25:22Z</time>
      </trkpt>
      <trkpt lat="48.07619" lon="-3.04216">
        <ele>199.8</ele>
        <time>2023-04-10T06:25:23Z</time>
      </trkpt>
      <trkpt lat="48.07622" lon="-3.04215">
        <ele>199.8</ele>
        <time>2023-04-10T06:25:24Z</time>
      </trkpt>
      <trkpt lat="48.07627" lon="-3.04215">
        <ele>200</ele>
        <time>2023-04-10T06:25:26Z</time>
      </trkpt>
      <trkpt lat="48.07628" lon="-3.04214">
        <ele>200.2</ele>
        <time>2023-04-10T06:25:27Z</time>
      </trkpt>
      <trkpt lat="48.07631" lon="-3.04212">
        <ele>200.2</ele>
        <time>2023-04-10T06:25:28Z</time>
      </trkpt>
      <trkpt lat="48.07634" lon="-3.04209">
        <ele>200.2</ele>
        <time>2023-04-10T06:25:29Z</time>
      </trkpt>
      <trkpt lat="48.07639" lon="-3.04209">
        <ele>200.2</ele>
        <time>2023-04-10T06:25:30Z</time>
      </trkpt>
      <trkpt lat="48.0765" lon="-3.04214">
        <ele>200.4</ele>
        <time>2023-04-10T06:25:32Z</time>
      </trkpt>
      <trkpt lat="48.07654" lon="-3.04215">
        <ele>200.4</ele>
        <time>2023-04-10T06:25:33Z</time>
      </trkpt>
      <trkpt lat="48.07658" lon="-3.04215">
        <ele>200.4</ele>
        <time>2023-04-10T06:25:34Z</time>
      </trkpt>
      <trkpt lat="48.07661" lon="-3.04214">
        <ele>200.6</ele>
        <time>2023-04-10T06:25:35Z</time>
      </trkpt>
      <trkpt lat="48.07664" lon="-3.04213">
        <ele>200.8</ele>
        <time>2023-04-10T06:25:36Z</time>
      </trkpt>
      <trkpt lat="48.07667" lon="-3.04213">
        <ele>200.8</ele>
        <time>2023-04-10T06:25:37Z</time>
      </trkpt>
      <trkpt lat="48.07686" lon="-3.04213">
        <ele>201.6</ele>
        <time>2023-04-10T06:25:42Z</time>
      </trkpt>
      <trkpt lat="48.07693" lon="-3.04212">
        <ele>202</ele>
        <time>2023-04-10T06:25:44Z</time>
      </trkpt>
      <trkpt lat="48.07707" lon="-3.04209">
        <ele>202.4</ele>
        <time>2023-04-10T06:25:47Z</time>
      </trkpt>
      <trkpt lat="48.07717" lon="-3.04208">
        <ele>202.4</ele>
        <time>2023-04-10T06:25:49Z</time>
      </trkpt>
      <trkpt lat="48.07721" lon="-3.04208">
        <ele>202.6</ele>
        <time>2023-04-10T06:25:50Z</time>
      </trkpt>
      <trkpt lat="48.07726" lon="-3.04207">
        <ele>202.6</ele>
        <time>2023-04-10T06:25:51Z</time>
      </trkpt>
      <trkpt lat="48.0773" lon="-3.04207">
        <ele>202.6</ele>
        <time>2023-04-10T06:25:52Z</time>
      </trkpt>
      <trkpt lat="48.07734" lon="-3.04206">
        <ele>202.6</ele>
        <time>2023-04-10T06:25:53Z</time>
      </trkpt>
      <trkpt lat="48.07737" lon="-3.04206">
        <ele>202.6</ele>
        <time>2023-04-10T06:25:54Z</time>
      </trkpt>
      <trkpt lat="48.0774" lon="-3.04205">
        <ele>202.6</ele>
        <time>2023-04-10T06:25:55Z</time>
      </trkpt>
      <trkpt lat="48.07751" lon="-3.04205">
        <ele>202.6</ele>
        <time>2023-04-10T06:25:58Z</time>
      </trkpt>
      <trkpt lat="48.07754" lon="-3.04205">
        <ele>202.6</ele>
        <time>2023-04-10T06:25:59Z</time>
      </trkpt>
      <trkpt lat="48.07757" lon="-3.04205">
        <ele>202.6</ele>
        <time>2023-04-10T06:26:00Z</time>
      </trkpt>
      <trkpt lat="48.07761" lon="-3.04204">
        <ele>202.6</ele>
        <time>2023-04-10T06:26:01Z</time>
      </trkpt>
      <trkpt lat="48.07764" lon="-3.04201">
        <ele>202.6</ele>
        <time>2023-04-10T06:26:02Z</time>
      </trkpt>
      <trkpt lat="48.07766" lon="-3.04198">
        <ele>202.6</ele>
        <time>2023-04-10T06:26:03Z</time>
      </trkpt>
      <trkpt lat="48.07768" lon="-3.04195">
        <ele>202.4</ele>
        <time>2023-04-10T06:26:04Z</time>
      </trkpt>
      <trkpt lat="48.07773" lon="-3.04196">
        <ele>202.4</ele>
        <time>2023-04-10T06:26:06Z</time>
      </trkpt>
      <trkpt lat="48.07776" lon="-3.04197">
        <ele>202.4</ele>
        <time>2023-04-10T06:26:07Z</time>
      </trkpt>
      <trkpt lat="48.07779" lon="-3.04198">
        <ele>202.2</ele>
        <time>2023-04-10T06:26:08Z</time>
      </trkpt>
      <trkpt lat="48.07783" lon="-3.04199">
        <ele>202</ele>
        <time>2023-04-10T06:26:09Z</time>
      </trkpt>
      <trkpt lat="48.07785" lon="-3.042">
        <ele>201.8</ele>
        <time>2023-04-10T06:26:10Z</time>
      </trkpt>
      <trkpt lat="48.07794" lon="-3.04198">
        <ele>201</ele>
        <time>2023-04-10T06:26:12Z</time>
      </trkpt>
      <trkpt lat="48.07796" lon="-3.04194">
        <ele>200.8</ele>
        <time>2023-04-10T06:26:13Z</time>
      </trkpt>
      <trkpt lat="48.07799" lon="-3.04188">
        <ele>200.4</ele>
        <time>2023-04-10T06:26:14Z</time>
      </trkpt>
      <trkpt lat="48.07802" lon="-3.04182">
        <ele>200.2</ele>
        <time>2023-04-10T06:26:15Z</time>
      </trkpt>
      <trkpt lat="48.07802" lon="-3.04178">
        <ele>200.2</ele>
        <time>2023-04-10T06:26:16Z</time>
      </trkpt>
      <trkpt lat="48.07801" lon="-3.04174">
        <ele>199.8</ele>
        <time>2023-04-10T06:26:17Z</time>
      </trkpt>
      <trkpt lat="48.078" lon="-3.0417">
        <ele>199.8</ele>
        <time>2023-04-10T06:26:18Z</time>
      </trkpt>
      <trkpt lat="48.078" lon="-3.04164">
        <ele>199.4</ele>
        <time>2023-04-10T06:26:19Z</time>
      </trkpt>
      <trkpt lat="48.07801" lon="-3.04158">
        <ele>199</ele>
        <time>2023-04-10T06:26:20Z</time>
      </trkpt>
      <trkpt lat="48.07802" lon="-3.04152">
        <ele>198.6</ele>
        <time>2023-04-10T06:26:21Z</time>
      </trkpt>
      <trkpt lat="48.07804" lon="-3.04147">
        <ele>197.8</ele>
        <time>2023-04-10T06:26:22Z</time>
      </trkpt>
      <trkpt lat="48.07807" lon="-3.04141">
        <ele>197</ele>
        <time>2023-04-10T06:26:23Z</time>
      </trkpt>
      <trkpt lat="48.0781" lon="-3.04135">
        <ele>196.4</ele>
        <time>2023-04-10T06:26:24Z</time>
      </trkpt>
      <trkpt lat="48.07817" lon="-3.04122">
        <ele>195.8</ele>
        <time>2023-04-10T06:26:26Z</time>
      </trkpt>
      <trkpt lat="48.07821" lon="-3.04117">
        <ele>195.4</ele>
        <time>2023-04-10T06:26:27Z</time>
      </trkpt>
      <trkpt lat="48.07824" lon="-3.04114">
        <ele>195.2</ele>
        <time>2023-04-10T06:26:28Z</time>
      </trkpt>
      <trkpt lat="48.0784" lon="-3.04098">
        <ele>194.6</ele>
        <time>2023-04-10T06:26:31Z</time>
      </trkpt>
      <trkpt lat="48.07857" lon="-3.04078">
        <ele>194</ele>
        <time>2023-04-10T06:26:34Z</time>
      </trkpt>
      <trkpt lat="48.0786" lon="-3.04074">
        <ele>193.6</ele>
        <time>2023-04-10T06:26:35Z</time>
      </trkpt>
      <trkpt lat="48.07864" lon="-3.04071">
        <ele>193.4</ele>
        <time>2023-04-10T06:26:36Z</time>
      </trkpt>
      <trkpt lat="48.07868" lon="-3.04068">
        <ele>193.2</ele>
        <time>2023-04-10T06:26:37Z</time>
      </trkpt>
      <trkpt lat="48.07873" lon="-3.04065">
        <ele>193</ele>
        <time>2023-04-10T06:26:38Z</time>
      </trkpt>
      <trkpt lat="48.07878" lon="-3.0406">
        <ele>192.6</ele>
        <time>2023-04-10T06:26:39Z</time>
      </trkpt>
      <trkpt lat="48.07882" lon="-3.04056">
        <ele>192.6</ele>
        <time>2023-04-10T06:26:40Z</time>
      </trkpt>
      <trkpt lat="48.07885" lon="-3.04052">
        <ele>192.4</ele>
        <time>2023-04-10T06:26:41Z</time>
      </trkpt>
      <trkpt lat="48.07889" lon="-3.04048">
        <ele>192.4</ele>
        <time>2023-04-10T06:26:42Z</time>
      </trkpt>
      <trkpt lat="48.07893" lon="-3.04044">
        <ele>192.2</ele>
        <time>2023-04-10T06:26:43Z</time>
      </trkpt>
      <trkpt lat="48.07896" lon="-3.04042">
        <ele>192</ele>
        <time>2023-04-10T06:26:44Z</time>
      </trkpt>
      <trkpt lat="48.07899" lon="-3.04044">
        <ele>192</ele>
        <time>2023-04-10T06:26:45Z</time>
      </trkpt>
      <trkpt lat="48.07905" lon="-3.04052">
        <ele>191.8</ele>
        <time>2023-04-10T06:26:47Z</time>
      </trkpt>
      <trkpt lat="48.07909" lon="-3.04056">
        <ele>191.8</ele>
        <time>2023-04-10T06:26:48Z</time>
      </trkpt>
      <trkpt lat="48.07913" lon="-3.04061">
        <ele>191.6</ele>
        <time>2023-04-10T06:26:49Z</time>
      </trkpt>
      <trkpt lat="48.07917" lon="-3.04065">
        <ele>191.6</ele>
        <time>2023-04-10T06:26:50Z</time>
      </trkpt>
      <trkpt lat="48.07925" lon="-3.04076">
        <ele>191.4</ele>
        <time>2023-04-10T06:26:52Z</time>
      </trkpt>
      <trkpt lat="48.07937" lon="-3.04089">
        <ele>190.8</ele>
        <time>2023-04-10T06:26:54Z</time>
      </trkpt>
      <trkpt lat="48.07944" lon="-3.04096">
        <ele>190.4</ele>
        <time>2023-04-10T06:26:55Z</time>
      </trkpt>
      <trkpt lat="48.07951" lon="-3.041">
        <ele>190</ele>
        <time>2023-04-10T06:26:56Z</time>
      </trkpt>
      <trkpt lat="48.07959" lon="-3.04104">
        <ele>189.6</ele>
        <time>2023-04-10T06:26:57Z</time>
      </trkpt>
      <trkpt lat="48.07966" lon="-3.04108">
        <ele>189.2</ele>
        <time>2023-04-10T06:26:58Z</time>
      </trkpt>
      <trkpt lat="48.07974" lon="-3.04113">
        <ele>188.6</ele>
        <time>2023-04-10T06:26:59Z</time>
      </trkpt>
      <trkpt lat="48.07983" lon="-3.04119">
        <ele>188.2</ele>
        <time>2023-04-10T06:27:00Z</time>
      </trkpt>
      <trkpt lat="48.0799" lon="-3.04124">
        <ele>187</ele>
        <time>2023-04-10T06:27:01Z</time>
      </trkpt>
      <trkpt lat="48.07999" lon="-3.04133">
        <ele>187</ele>
        <time>2023-04-10T06:27:02Z</time>
      </trkpt>
      <trkpt lat="48.08005" lon="-3.0414">
        <ele>186.4</ele>
        <time>2023-04-10T06:27:03Z</time>
      </trkpt>
      <trkpt lat="48.08012" lon="-3.04148">
        <ele>185.6</ele>
        <time>2023-04-10T06:27:04Z</time>
      </trkpt>
      <trkpt lat="48.08017" lon="-3.04156">
        <ele>184</ele>
        <time>2023-04-10T06:27:05Z</time>
      </trkpt>
      <trkpt lat="48.08023" lon="-3.04164">
        <ele>183.2</ele>
        <time>2023-04-10T06:27:06Z</time>
      </trkpt>
      <trkpt lat="48.08027" lon="-3.04172">
        <ele>182.6</ele>
        <time>2023-04-10T06:27:07Z</time>
      </trkpt>
      <trkpt lat="48.0803" lon="-3.0418">
        <ele>182</ele>
        <time>2023-04-10T06:27:08Z</time>
      </trkpt>
      <trkpt lat="48.08034" lon="-3.04186">
        <ele>181.4</ele>
        <time>2023-04-10T06:27:09Z</time>
      </trkpt>
      <trkpt lat="48.08037" lon="-3.04193">
        <ele>181</ele>
        <time>2023-04-10T06:27:10Z</time>
      </trkpt>
      <trkpt lat="48.0804" lon="-3.04199">
        <ele>181</ele>
        <time>2023-04-10T06:27:11Z</time>
      </trkpt>
      <trkpt lat="48.08043" lon="-3.04204">
        <ele>180.8</ele>
        <time>2023-04-10T06:27:12Z</time>
      </trkpt>
      <trkpt lat="48.08046" lon="-3.0421">
        <ele>180.8</ele>
        <time>2023-04-10T06:27:13Z</time>
      </trkpt>
      <trkpt lat="48.08048" lon="-3.04216">
        <ele>180.8</ele>
        <time>2023-04-10T06:27:14Z</time>
      </trkpt>
      <trkpt lat="48.08051" lon="-3.04222">
        <ele>180.8</ele>
        <time>2023-04-10T06:27:15Z</time>
      </trkpt>
      <trkpt lat="48.08054" lon="-3.04228">
        <ele>180.8</ele>
        <time>2023-04-10T06:27:16Z</time>
      </trkpt>
      <trkpt lat="48.08055" lon="-3.04234">
        <ele>180.8</ele>
        <time>2023-04-10T06:27:17Z</time>
      </trkpt>
      <trkpt lat="48.08056" lon="-3.04238">
        <ele>180.8</ele>
        <time>2023-04-10T06:27:18Z</time>
      </trkpt>
      <trkpt lat="48.08057" lon="-3.04242">
        <ele>180.8</ele>
        <time>2023-04-10T06:27:19Z</time>
      </trkpt>
      <trkpt lat="48.08058" lon="-3.04245">
        <ele>181</ele>
        <time>2023-04-10T06:27:20Z</time>
      </trkpt>
      <trkpt lat="48.0806" lon="-3.04251">
        <ele>181</ele>
        <time>2023-04-10T06:27:21Z</time>
      </trkpt>
      <trkpt lat="48.08063" lon="-3.04256">
        <ele>181.2</ele>
        <time>2023-04-10T06:27:22Z</time>
      </trkpt>
      <trkpt lat="48.08065" lon="-3.0426">
        <ele>181.4</ele>
        <time>2023-04-10T06:27:23Z</time>
      </trkpt>
      <trkpt lat="48.08067" lon="-3.04264">
        <ele>181.4</ele>
        <time>2023-04-10T06:27:24Z</time>
      </trkpt>
      <trkpt lat="48.08068" lon="-3.04267">
        <ele>181.6</ele>
        <time>2023-04-10T06:27:25Z</time>
      </trkpt>
      <trkpt lat="48.08069" lon="-3.04271">
        <ele>182</ele>
        <time>2023-04-10T06:27:26Z</time>
      </trkpt>
      <trkpt lat="48.08071" lon="-3.04273">
        <ele>182.2</ele>
        <time>2023-04-10T06:27:27Z</time>
      </trkpt>
      <trkpt lat="48.08071" lon="-3.04277">
        <ele>182.4</ele>
        <time>2023-04-10T06:27:28Z</time>
      </trkpt>
      <trkpt lat="48.08074" lon="-3.04281">
        <ele>182.8</ele>
        <time>2023-04-10T06:27:29Z</time>
      </trkpt>
      <trkpt lat="48.08076" lon="-3.04285">
        <ele>183</ele>
        <time>2023-04-10T06:27:30Z</time>
      </trkpt>
      <trkpt lat="48.08078" lon="-3.04289">
        <ele>183.4</ele>
        <time>2023-04-10T06:27:31Z</time>
      </trkpt>
      <trkpt lat="48.0808" lon="-3.04292">
        <ele>183.6</ele>
        <time>2023-04-10T06:27:32Z</time>
      </trkpt>
      <trkpt lat="48.08083" lon="-3.04305">
        <ele>184.6</ele>
        <time>2023-04-10T06:27:36Z</time>
      </trkpt>
      <trkpt lat="48.08084" lon="-3.04309">
        <ele>185</ele>
        <time>2023-04-10T06:27:37Z</time>
      </trkpt>
      <trkpt lat="48.08085" lon="-3.04312">
        <ele>185.4</ele>
        <time>2023-04-10T06:27:38Z</time>
      </trkpt>
      <trkpt lat="48.08087" lon="-3.04315">
        <ele>185.6</ele>
        <time>2023-04-10T06:27:39Z</time>
      </trkpt>
      <trkpt lat="48.08089" lon="-3.04321">
        <ele>185.8</ele>
        <time>2023-04-10T06:27:40Z</time>
      </trkpt>
      <trkpt lat="48.0809" lon="-3.04326">
        <ele>186</ele>
        <time>2023-04-10T06:27:41Z</time>
      </trkpt>
      <trkpt lat="48.08092" lon="-3.04331">
        <ele>186.4</ele>
        <time>2023-04-10T06:27:42Z</time>
      </trkpt>
      <trkpt lat="48.08094" lon="-3.04334">
        <ele>187</ele>
        <time>2023-04-10T06:27:43Z</time>
      </trkpt>
      <trkpt lat="48.08096" lon="-3.04337">
        <ele>187.4</ele>
        <time>2023-04-10T06:27:44Z</time>
      </trkpt>
      <trkpt lat="48.08098" lon="-3.0434">
        <ele>187.8</ele>
        <time>2023-04-10T06:27:45Z</time>
      </trkpt>
      <trkpt lat="48.08098" lon="-3.04344">
        <ele>187.8</ele>
        <time>2023-04-10T06:27:46Z</time>
      </trkpt>
      <trkpt lat="48.08099" lon="-3.04347">
        <ele>188</ele>
        <time>2023-04-10T06:27:47Z</time>
      </trkpt>
      <trkpt lat="48.08101" lon="-3.04351">
        <ele>188.2</ele>
        <time>2023-04-10T06:27:48Z</time>
      </trkpt>
      <trkpt lat="48.08102" lon="-3.04355">
        <ele>188.4</ele>
        <time>2023-04-10T06:27:49Z</time>
      </trkpt>
      <trkpt lat="48.08102" lon="-3.04357">
        <ele>188.8</ele>
        <time>2023-04-10T06:27:50Z</time>
      </trkpt>
      <trkpt lat="48.08103" lon="-3.04359">
        <ele>189.2</ele>
        <time>2023-04-10T06:27:51Z</time>
      </trkpt>
      <trkpt lat="48.08104" lon="-3.04362">
        <ele>189.4</ele>
        <time>2023-04-10T06:27:52Z</time>
      </trkpt>
      <trkpt lat="48.08104" lon="-3.04364">
        <ele>189.6</ele>
        <time>2023-04-10T06:27:53Z</time>
      </trkpt>
      <trkpt lat="48.08104" lon="-3.04366">
        <ele>189.8</ele>
        <time>2023-04-10T06:27:54Z</time>
      </trkpt>
      <trkpt lat="48.08101" lon="-3.0437">
        <ele>190.2</ele>
        <time>2023-04-10T06:27:55Z</time>
      </trkpt>
      <trkpt lat="48.08102" lon="-3.04372">
        <ele>190.4</ele>
        <time>2023-04-10T06:27:56Z</time>
      </trkpt>
      <trkpt lat="48.08103" lon="-3.04374">
        <ele>190.6</ele>
        <time>2023-04-10T06:27:57Z</time>
      </trkpt>
      <trkpt lat="48.08102" lon="-3.04375">
        <ele>191</ele>
        <time>2023-04-10T06:27:58Z</time>
      </trkpt>
      <trkpt lat="48.08103" lon="-3.04379">
        <ele>191.2</ele>
        <time>2023-04-10T06:27:59Z</time>
      </trkpt>
      <trkpt lat="48.08104" lon="-3.04383">
        <ele>191.6</ele>
        <time>2023-04-10T06:28:00Z</time>
      </trkpt>
      <trkpt lat="48.08106" lon="-3.04386">
        <ele>192</ele>
        <time>2023-04-10T06:28:01Z</time>
      </trkpt>
      <trkpt lat="48.08108" lon="-3.04389">
        <ele>192.4</ele>
        <time>2023-04-10T06:28:02Z</time>
      </trkpt>
      <trkpt lat="48.08109" lon="-3.04391">
        <ele>192.8</ele>
        <time>2023-04-10T06:28:03Z</time>
      </trkpt>
      <trkpt lat="48.08111" lon="-3.04394">
        <ele>193</ele>
        <time>2023-04-10T06:28:04Z</time>
      </trkpt>
      <trkpt lat="48.08113" lon="-3.04398">
        <ele>193.4</ele>
        <time>2023-04-10T06:28:05Z</time>
      </trkpt>
      <trkpt lat="48.08114" lon="-3.04401">
        <ele>193.8</ele>
        <time>2023-04-10T06:28:06Z</time>
      </trkpt>
      <trkpt lat="48.08114" lon="-3.04403">
        <ele>194</ele>
        <time>2023-04-10T06:28:07Z</time>
      </trkpt>
      <trkpt lat="48.08116" lon="-3.04405">
        <ele>194.2</ele>
        <time>2023-04-10T06:28:08Z</time>
      </trkpt>
      <trkpt lat="48.08117" lon="-3.04408">
        <ele>194.2</ele>
        <time>2023-04-10T06:28:09Z</time>
      </trkpt>
      <trkpt lat="48.08118" lon="-3.04411">
        <ele>194.4</ele>
        <time>2023-04-10T06:28:10Z</time>
      </trkpt>
      <trkpt lat="48.08119" lon="-3.04412">
        <ele>194.6</ele>
        <time>2023-04-10T06:28:11Z</time>
      </trkpt>
      <trkpt lat="48.0812" lon="-3.04416">
        <ele>195</ele>
        <time>2023-04-10T06:28:12Z</time>
      </trkpt>
      <trkpt lat="48.08122" lon="-3.04419">
        <ele>195.2</ele>
        <time>2023-04-10T06:28:13Z</time>
      </trkpt>
      <trkpt lat="48.08123" lon="-3.04422">
        <ele>195.4</ele>
        <time>2023-04-10T06:28:14Z</time>
      </trkpt>
      <trkpt lat="48.08126" lon="-3.04424">
        <ele>195.8</ele>
        <time>2023-04-10T06:28:15Z</time>
      </trkpt>
      <trkpt lat="48.08128" lon="-3.04427">
        <ele>196</ele>
        <time>2023-04-10T06:28:16Z</time>
      </trkpt>
      <trkpt lat="48.0813" lon="-3.0443">
        <ele>196.2</ele>
        <time>2023-04-10T06:28:17Z</time>
      </trkpt>
      <trkpt lat="48.08131" lon="-3.04433">
        <ele>196.6</ele>
        <time>2023-04-10T06:28:18Z</time>
      </trkpt>
      <trkpt lat="48.08132" lon="-3.04435">
        <ele>196.8</ele>
        <time>2023-04-10T06:28:19Z</time>
      </trkpt>
      <trkpt lat="48.08134" lon="-3.04436">
        <ele>197</ele>
        <time>2023-04-10T06:28:20Z</time>
      </trkpt>
      <trkpt lat="48.08137" lon="-3.04439">
        <ele>197.2</ele>
        <time>2023-04-10T06:28:21Z</time>
      </trkpt>
      <trkpt lat="48.0814" lon="-3.04442">
        <ele>197.4</ele>
        <time>2023-04-10T06:28:22Z</time>
      </trkpt>
      <trkpt lat="48.08142" lon="-3.04445">
        <ele>197.8</ele>
        <time>2023-04-10T06:28:23Z</time>
      </trkpt>
      <trkpt lat="48.08143" lon="-3.04447">
        <ele>198</ele>
        <time>2023-04-10T06:28:24Z</time>
      </trkpt>
      <trkpt lat="48.08147" lon="-3.04451">
        <ele>198</ele>
        <time>2023-04-10T06:28:25Z</time>
      </trkpt>
      <trkpt lat="48.08149" lon="-3.04453">
        <ele>198.2</ele>
        <time>2023-04-10T06:28:26Z</time>
      </trkpt>
      <trkpt lat="48.08152" lon="-3.04457">
        <ele>198.4</ele>
        <time>2023-04-10T06:28:27Z</time>
      </trkpt>
      <trkpt lat="48.08154" lon="-3.04457">
        <ele>198.6</ele>
        <time>2023-04-10T06:28:28Z</time>
      </trkpt>
      <trkpt lat="48.08157" lon="-3.04457">
        <ele>199</ele>
        <time>2023-04-10T06:28:29Z</time>
      </trkpt>
      <trkpt lat="48.0816" lon="-3.04457">
        <ele>199</ele>
        <time>2023-04-10T06:28:30Z</time>
      </trkpt>
      <trkpt lat="48.08161" lon="-3.04457">
        <ele>199</ele>
        <time>2023-04-10T06:28:31Z</time>
      </trkpt>
      <trkpt lat="48.08163" lon="-3.04458">
        <ele>199.2</ele>
        <time>2023-04-10T06:28:32Z</time>
      </trkpt>
      <trkpt lat="48.08166" lon="-3.04459">
        <ele>199.4</ele>
        <time>2023-04-10T06:28:33Z</time>
      </trkpt>
      <trkpt lat="48.08168" lon="-3.0446">
        <ele>199.4</ele>
        <time>2023-04-10T06:28:34Z</time>
      </trkpt>
      <trkpt lat="48.08171" lon="-3.04462">
        <ele>199.6</ele>
        <time>2023-04-10T06:28:35Z</time>
      </trkpt>
      <trkpt lat="48.08173" lon="-3.04467">
        <ele>199.6</ele>
        <time>2023-04-10T06:28:36Z</time>
      </trkpt>
      <trkpt lat="48.08175" lon="-3.04471">
        <ele>199.6</ele>
        <time>2023-04-10T06:28:37Z</time>
      </trkpt>
      <trkpt lat="48.08177" lon="-3.04475">
        <ele>199.6</ele>
        <time>2023-04-10T06:28:38Z</time>
      </trkpt>
      <trkpt lat="48.08179" lon="-3.04479">
        <ele>199.6</ele>
        <time>2023-04-10T06:28:39Z</time>
      </trkpt>
      <trkpt lat="48.0818" lon="-3.04483">
        <ele>199.6</ele>
        <time>2023-04-10T06:28:40Z</time>
      </trkpt>
      <trkpt lat="48.08181" lon="-3.04487">
        <ele>199.6</ele>
        <time>2023-04-10T06:28:41Z</time>
      </trkpt>
      <trkpt lat="48.08182" lon="-3.04494">
        <ele>199.6</ele>
        <time>2023-04-10T06:28:42Z</time>
      </trkpt>
      <trkpt lat="48.08182" lon="-3.04499">
        <ele>199.6</ele>
        <time>2023-04-10T06:28:43Z</time>
      </trkpt>
      <trkpt lat="48.08181" lon="-3.04505">
        <ele>199.6</ele>
        <time>2023-04-10T06:28:44Z</time>
      </trkpt>
      <trkpt lat="48.0818" lon="-3.04509">
        <ele>199.6</ele>
        <time>2023-04-10T06:28:45Z</time>
      </trkpt>
      <trkpt lat="48.08179" lon="-3.04512">
        <ele>199.6</ele>
        <time>2023-04-10T06:28:46Z</time>
      </trkpt>
      <trkpt lat="48.08178" lon="-3.04515">
        <ele>199.6</ele>
        <time>2023-04-10T06:28:47Z</time>
      </trkpt>
      <trkpt lat="48.08177" lon="-3.04517">
        <ele>199.6</ele>
        <time>2023-04-10T06:28:48Z</time>
      </trkpt>
      <trkpt lat="48.08175" lon="-3.04521">
        <ele>199.6</ele>
        <time>2023-04-10T06:28:49Z</time>
      </trkpt>
      <trkpt lat="48.08173" lon="-3.04523">
        <ele>199.6</ele>
        <time>2023-04-10T06:28:50Z</time>
      </trkpt>
      <trkpt lat="48.08171" lon="-3.04525">
        <ele>199.6</ele>
        <time>2023-04-10T06:28:51Z</time>
      </trkpt>
      <trkpt lat="48.08169" lon="-3.04527">
        <ele>199.6</ele>
        <time>2023-04-10T06:28:52Z</time>
      </trkpt>
      <trkpt lat="48.08162" lon="-3.0454">
        <ele>200.2</ele>
        <time>2023-04-10T06:28:57Z</time>
      </trkpt>
      <trkpt lat="48.08158" lon="-3.04549">
        <ele>201</ele>
        <time>2023-04-10T06:29:00Z</time>
      </trkpt>
      <trkpt lat="48.08157" lon="-3.04551">
        <ele>201.2</ele>
        <time>2023-04-10T06:29:01Z</time>
      </trkpt>
      <trkpt lat="48.08154" lon="-3.04559">
        <ele>202</ele>
        <time>2023-04-10T06:29:05Z</time>
      </trkpt>
      <trkpt lat="48.08152" lon="-3.04562">
        <ele>202.2</ele>
        <time>2023-04-10T06:29:06Z</time>
      </trkpt>
      <trkpt lat="48.08151" lon="-3.04566">
        <ele>202.2</ele>
        <time>2023-04-10T06:29:07Z</time>
      </trkpt>
      <trkpt lat="48.08149" lon="-3.04569">
        <ele>202.4</ele>
        <time>2023-04-10T06:29:08Z</time>
      </trkpt>
      <trkpt lat="48.08147" lon="-3.04572">
        <ele>202.6</ele>
        <time>2023-04-10T06:29:09Z</time>
      </trkpt>
      <trkpt lat="48.08145" lon="-3.04574">
        <ele>202.8</ele>
        <time>2023-04-10T06:29:10Z</time>
      </trkpt>
      <trkpt lat="48.08143" lon="-3.04577">
        <ele>202.8</ele>
        <time>2023-04-10T06:29:11Z</time>
      </trkpt>
      <trkpt lat="48.0814" lon="-3.04579">
        <ele>203</ele>
        <time>2023-04-10T06:29:12Z</time>
      </trkpt>
      <trkpt lat="48.08138" lon="-3.04581">
        <ele>203.2</ele>
        <time>2023-04-10T06:29:13Z</time>
      </trkpt>
      <trkpt lat="48.08134" lon="-3.04584">
        <ele>203.2</ele>
        <time>2023-04-10T06:29:14Z</time>
      </trkpt>
      <trkpt lat="48.08132" lon="-3.04586">
        <ele>203.2</ele>
        <time>2023-04-10T06:29:15Z</time>
      </trkpt>
      <trkpt lat="48.0813" lon="-3.04588">
        <ele>203.4</ele>
        <time>2023-04-10T06:29:16Z</time>
      </trkpt>
      <trkpt lat="48.08128" lon="-3.0459">
        <ele>203.4</ele>
        <time>2023-04-10T06:29:17Z</time>
      </trkpt>
      <trkpt lat="48.08125" lon="-3.04592">
        <ele>203.6</ele>
        <time>2023-04-10T06:29:18Z</time>
      </trkpt>
      <trkpt lat="48.08123" lon="-3.04594">
        <ele>203.6</ele>
        <time>2023-04-10T06:29:19Z</time>
      </trkpt>
      <trkpt lat="48.0812" lon="-3.04597">
        <ele>203.6</ele>
        <time>2023-04-10T06:29:20Z</time>
      </trkpt>
      <trkpt lat="48.08117" lon="-3.046">
        <ele>203.6</ele>
        <time>2023-04-10T06:29:21Z</time>
      </trkpt>
      <trkpt lat="48.08114" lon="-3.04603">
        <ele>203.6</ele>
        <time>2023-04-10T06:29:22Z</time>
      </trkpt>
      <trkpt lat="48.0811" lon="-3.04607">
        <ele>203.6</ele>
        <time>2023-04-10T06:29:23Z</time>
      </trkpt>
      <trkpt lat="48.08106" lon="-3.04609">
        <ele>203.6</ele>
        <time>2023-04-10T06:29:24Z</time>
      </trkpt>
      <trkpt lat="48.08102" lon="-3.04612">
        <ele>203.6</ele>
        <time>2023-04-10T06:29:25Z</time>
      </trkpt>
      <trkpt lat="48.08097" lon="-3.04615">
        <ele>203.6</ele>
        <time>2023-04-10T06:29:26Z</time>
      </trkpt>
      <trkpt lat="48.08094" lon="-3.04618">
        <ele>203.6</ele>
        <time>2023-04-10T06:29:27Z</time>
      </trkpt>
      <trkpt lat="48.0809" lon="-3.04621">
        <ele>203.8</ele>
        <time>2023-04-10T06:29:28Z</time>
      </trkpt>
      <trkpt lat="48.08087" lon="-3.04625">
        <ele>203.8</ele>
        <time>2023-04-10T06:29:29Z</time>
      </trkpt>
      <trkpt lat="48.08084" lon="-3.04628">
        <ele>203.8</ele>
        <time>2023-04-10T06:29:30Z</time>
      </trkpt>
      <trkpt lat="48.08074" lon="-3.0464">
        <ele>203.8</ele>
        <time>2023-04-10T06:29:33Z</time>
      </trkpt>
      <trkpt lat="48.08069" lon="-3.04644">
        <ele>203.8</ele>
        <time>2023-04-10T06:29:34Z</time>
      </trkpt>
      <trkpt lat="48.08065" lon="-3.04647">
        <ele>203.8</ele>
        <time>2023-04-10T06:29:35Z</time>
      </trkpt>
      <trkpt lat="48.08053" lon="-3.04657">
        <ele>203.8</ele>
        <time>2023-04-10T06:29:39Z</time>
      </trkpt>
      <trkpt lat="48.08036" lon="-3.04672">
        <ele>204.2</ele>
        <time>2023-04-10T06:29:44Z</time>
      </trkpt>
      <trkpt lat="48.08029" lon="-3.04679">
        <ele>204.4</ele>
        <time>2023-04-10T06:29:46Z</time>
      </trkpt>
      <trkpt lat="48.08022" lon="-3.04685">
        <ele>204.4</ele>
        <time>2023-04-10T06:29:48Z</time>
      </trkpt>
      <trkpt lat="48.08018" lon="-3.04687">
        <ele>204.4</ele>
        <time>2023-04-10T06:29:49Z</time>
      </trkpt>
      <trkpt lat="48.08004" lon="-3.04701">
        <ele>204.4</ele>
        <time>2023-04-10T06:29:53Z</time>
      </trkpt>
      <trkpt lat="48.07998" lon="-3.04708">
        <ele>204.4</ele>
        <time>2023-04-10T06:29:55Z</time>
      </trkpt>
      <trkpt lat="48.07996" lon="-3.04711">
        <ele>204.6</ele>
        <time>2023-04-10T06:29:56Z</time>
      </trkpt>
      <trkpt lat="48.07994" lon="-3.04713">
        <ele>204.6</ele>
        <time>2023-04-10T06:29:57Z</time>
      </trkpt>
      <trkpt lat="48.0799" lon="-3.04716">
        <ele>204.6</ele>
        <time>2023-04-10T06:29:58Z</time>
      </trkpt>
      <trkpt lat="48.07987" lon="-3.04718">
        <ele>204.6</ele>
        <time>2023-04-10T06:29:59Z</time>
      </trkpt>
      <trkpt lat="48.07984" lon="-3.04721">
        <ele>204.6</ele>
        <time>2023-04-10T06:30:00Z</time>
      </trkpt>
      <trkpt lat="48.07981" lon="-3.04724">
        <ele>204.6</ele>
        <time>2023-04-10T06:30:01Z</time>
      </trkpt>
      <trkpt lat="48.07975" lon="-3.04732">
        <ele>204.8</ele>
        <time>2023-04-10T06:30:03Z</time>
      </trkpt>
      <trkpt lat="48.07975" lon="-3.04737">
        <ele>204.8</ele>
        <time>2023-04-10T06:30:04Z</time>
      </trkpt>
      <trkpt lat="48.07976" lon="-3.04743">
        <ele>204.8</ele>
        <time>2023-04-10T06:30:05Z</time>
      </trkpt>
      <trkpt lat="48.07979" lon="-3.04754">
        <ele>205</ele>
        <time>2023-04-10T06:30:07Z</time>
      </trkpt>
      <trkpt lat="48.07979" lon="-3.04761">
        <ele>205</ele>
        <time>2023-04-10T06:30:08Z</time>
      </trkpt>
      <trkpt lat="48.07979" lon="-3.04767">
        <ele>205</ele>
        <time>2023-04-10T06:30:09Z</time>
      </trkpt>
      <trkpt lat="48.07978" lon="-3.04773">
        <ele>205</ele>
        <time>2023-04-10T06:30:10Z</time>
      </trkpt>
      <trkpt lat="48.07976" lon="-3.04777">
        <ele>205</ele>
        <time>2023-04-10T06:30:11Z</time>
      </trkpt>
      <trkpt lat="48.07974" lon="-3.04782">
        <ele>205</ele>
        <time>2023-04-10T06:30:12Z</time>
      </trkpt>
      <trkpt lat="48.07971" lon="-3.04786">
        <ele>205</ele>
        <time>2023-04-10T06:30:13Z</time>
      </trkpt>
      <trkpt lat="48.07971" lon="-3.04791">
        <ele>205</ele>
        <time>2023-04-10T06:30:14Z</time>
      </trkpt>
      <trkpt lat="48.07973" lon="-3.04797">
        <ele>205</ele>
        <time>2023-04-10T06:30:15Z</time>
      </trkpt>
      <trkpt lat="48.07976" lon="-3.04802">
        <ele>205</ele>
        <time>2023-04-10T06:30:16Z</time>
      </trkpt>
      <trkpt lat="48.07983" lon="-3.04813">
        <ele>204.8</ele>
        <time>2023-04-10T06:30:18Z</time>
      </trkpt>
      <trkpt lat="48.07987" lon="-3.04819">
        <ele>204.8</ele>
        <time>2023-04-10T06:30:19Z</time>
      </trkpt>
      <trkpt lat="48.0799" lon="-3.04825">
        <ele>204.8</ele>
        <time>2023-04-10T06:30:20Z</time>
      </trkpt>
      <trkpt lat="48.08" lon="-3.04855">
        <ele>204.6</ele>
        <time>2023-04-10T06:30:24Z</time>
      </trkpt>
      <trkpt lat="48.08002" lon="-3.04862">
        <ele>204.6</ele>
        <time>2023-04-10T06:30:25Z</time>
      </trkpt>
      <trkpt lat="48.08005" lon="-3.04869">
        <ele>204.6</ele>
        <time>2023-04-10T06:30:26Z</time>
      </trkpt>
      <trkpt lat="48.08018" lon="-3.04914">
        <ele>203.6</ele>
        <time>2023-04-10T06:30:32Z</time>
      </trkpt>
      <trkpt lat="48.0802" lon="-3.04921">
        <ele>203.6</ele>
        <time>2023-04-10T06:30:33Z</time>
      </trkpt>
      <trkpt lat="48.08023" lon="-3.04927">
        <ele>203.4</ele>
        <time>2023-04-10T06:30:34Z</time>
      </trkpt>
      <trkpt lat="48.08025" lon="-3.04934">
        <ele>203.2</ele>
        <time>2023-04-10T06:30:35Z</time>
      </trkpt>
      <trkpt lat="48.0803" lon="-3.04956">
        <ele>202.8</ele>
        <time>2023-04-10T06:30:38Z</time>
      </trkpt>
      <trkpt lat="48.0803" lon="-3.04964">
        <ele>202.8</ele>
        <time>2023-04-10T06:30:39Z</time>
      </trkpt>
      <trkpt lat="48.0803" lon="-3.04972">
        <ele>202.6</ele>
        <time>2023-04-10T06:30:40Z</time>
      </trkpt>
      <trkpt lat="48.08028" lon="-3.04981">
        <ele>202.4</ele>
        <time>2023-04-10T06:30:41Z</time>
      </trkpt>
      <trkpt lat="48.08027" lon="-3.0499">
        <ele>202.4</ele>
        <time>2023-04-10T06:30:42Z</time>
      </trkpt>
      <trkpt lat="48.08025" lon="-3.04998">
        <ele>202.4</ele>
        <time>2023-04-10T06:30:43Z</time>
      </trkpt>
      <trkpt lat="48.08023" lon="-3.05003">
        <ele>202.4</ele>
        <time>2023-04-10T06:30:44Z</time>
      </trkpt>
      <trkpt lat="48.08019" lon="-3.05009">
        <ele>202.2</ele>
        <time>2023-04-10T06:30:45Z</time>
      </trkpt>
      <trkpt lat="48.08014" lon="-3.05015">
        <ele>202.2</ele>
        <time>2023-04-10T06:30:46Z</time>
      </trkpt>
      <trkpt lat="48.0801" lon="-3.0502">
        <ele>202</ele>
        <time>2023-04-10T06:30:47Z</time>
      </trkpt>
      <trkpt lat="48.08007" lon="-3.05026">
        <ele>202</ele>
        <time>2023-04-10T06:30:48Z</time>
      </trkpt>
      <trkpt lat="48.08006" lon="-3.05034">
        <ele>202</ele>
        <time>2023-04-10T06:30:49Z</time>
      </trkpt>
      <trkpt lat="48.08004" lon="-3.05042">
        <ele>202</ele>
        <time>2023-04-10T06:30:50Z</time>
      </trkpt>
      <trkpt lat="48.08003" lon="-3.0505">
        <ele>202</ele>
        <time>2023-04-10T06:30:51Z</time>
      </trkpt>
      <trkpt lat="48.08002" lon="-3.05058">
        <ele>202</ele>
        <time>2023-04-10T06:30:52Z</time>
      </trkpt>
      <trkpt lat="48.08" lon="-3.05065">
        <ele>201.8</ele>
        <time>2023-04-10T06:30:53Z</time>
      </trkpt>
      <trkpt lat="48.07998" lon="-3.05072">
        <ele>201.8</ele>
        <time>2023-04-10T06:30:54Z</time>
      </trkpt>
      <trkpt lat="48.07997" lon="-3.05079">
        <ele>201.8</ele>
        <time>2023-04-10T06:30:55Z</time>
      </trkpt>
      <trkpt lat="48.07996" lon="-3.05085">
        <ele>201.8</ele>
        <time>2023-04-10T06:30:56Z</time>
      </trkpt>
      <trkpt lat="48.07994" lon="-3.05089">
        <ele>201.8</ele>
        <time>2023-04-10T06:30:57Z</time>
      </trkpt>
      <trkpt lat="48.07991" lon="-3.05093">
        <ele>201.8</ele>
        <time>2023-04-10T06:30:58Z</time>
      </trkpt>
      <trkpt lat="48.07987" lon="-3.05095">
        <ele>201.8</ele>
        <time>2023-04-10T06:30:59Z</time>
      </trkpt>
      <trkpt lat="48.0798" lon="-3.051">
        <ele>201.8</ele>
        <time>2023-04-10T06:31:01Z</time>
      </trkpt>
      <trkpt lat="48.07976" lon="-3.05105">
        <ele>201.8</ele>
        <time>2023-04-10T06:31:02Z</time>
      </trkpt>
      <trkpt lat="48.07973" lon="-3.05111">
        <ele>201.8</ele>
        <time>2023-04-10T06:31:03Z</time>
      </trkpt>
      <trkpt lat="48.07971" lon="-3.05117">
        <ele>201.8</ele>
        <time>2023-04-10T06:31:04Z</time>
      </trkpt>
      <trkpt lat="48.07969" lon="-3.05124">
        <ele>201.8</ele>
        <time>2023-04-10T06:31:05Z</time>
      </trkpt>
      <trkpt lat="48.07967" lon="-3.0513">
        <ele>201.6</ele>
        <time>2023-04-10T06:31:06Z</time>
      </trkpt>
      <trkpt lat="48.07966" lon="-3.05138">
        <ele>201.6</ele>
        <time>2023-04-10T06:31:07Z</time>
      </trkpt>
      <trkpt lat="48.07964" lon="-3.05152">
        <ele>201.6</ele>
        <time>2023-04-10T06:31:09Z</time>
      </trkpt>
      <trkpt lat="48.07964" lon="-3.0516">
        <ele>201.4</ele>
        <time>2023-04-10T06:31:10Z</time>
      </trkpt>
      <trkpt lat="48.07965" lon="-3.05168">
        <ele>201.4</ele>
        <time>2023-04-10T06:31:11Z</time>
      </trkpt>
      <trkpt lat="48.07966" lon="-3.05174">
        <ele>201.4</ele>
        <time>2023-04-10T06:31:12Z</time>
      </trkpt>
      <trkpt lat="48.07969" lon="-3.05181">
        <ele>201.2</ele>
        <time>2023-04-10T06:31:13Z</time>
      </trkpt>
      <trkpt lat="48.07973" lon="-3.05185">
        <ele>201</ele>
        <time>2023-04-10T06:31:14Z</time>
      </trkpt>
      <trkpt lat="48.07978" lon="-3.05186">
        <ele>200.8</ele>
        <time>2023-04-10T06:31:15Z</time>
      </trkpt>
      <trkpt lat="48.07983" lon="-3.05185">
        <ele>200.8</ele>
        <time>2023-04-10T06:31:16Z</time>
      </trkpt>
      <trkpt lat="48.07988" lon="-3.05182">
        <ele>200.6</ele>
        <time>2023-04-10T06:31:17Z</time>
      </trkpt>
      <trkpt lat="48.07994" lon="-3.0518">
        <ele>200.6</ele>
        <time>2023-04-10T06:31:18Z</time>
      </trkpt>
      <trkpt lat="48.07999" lon="-3.05178">
        <ele>200.4</ele>
        <time>2023-04-10T06:31:19Z</time>
      </trkpt>
      <trkpt lat="48.08003" lon="-3.05175">
        <ele>200.6</ele>
        <time>2023-04-10T06:31:20Z</time>
      </trkpt>
      <trkpt lat="48.08007" lon="-3.05171">
        <ele>200.6</ele>
        <time>2023-04-10T06:31:21Z</time>
      </trkpt>
      <trkpt lat="48.08011" lon="-3.05167">
        <ele>200.6</ele>
        <time>2023-04-10T06:31:22Z</time>
      </trkpt>
      <trkpt lat="48.08015" lon="-3.05163">
        <ele>200.6</ele>
        <time>2023-04-10T06:31:23Z</time>
      </trkpt>
      <trkpt lat="48.08018" lon="-3.05161">
        <ele>200.6</ele>
        <time>2023-04-10T06:31:24Z</time>
      </trkpt>
      <trkpt lat="48.08022" lon="-3.05159">
        <ele>200.6</ele>
        <time>2023-04-10T06:31:25Z</time>
      </trkpt>
      <trkpt lat="48.08025" lon="-3.0516">
        <ele>200.6</ele>
        <time>2023-04-10T06:31:26Z</time>
      </trkpt>
      <trkpt lat="48.08028" lon="-3.05162">
        <ele>200.6</ele>
        <time>2023-04-10T06:31:27Z</time>
      </trkpt>
      <trkpt lat="48.0803" lon="-3.05163">
        <ele>200.6</ele>
        <time>2023-04-10T06:31:28Z</time>
      </trkpt>
      <trkpt lat="48.08034" lon="-3.05166">
        <ele>200.6</ele>
        <time>2023-04-10T06:31:29Z</time>
      </trkpt>
      <trkpt lat="48.08038" lon="-3.05169">
        <ele>200.6</ele>
        <time>2023-04-10T06:31:30Z</time>
      </trkpt>
      <trkpt lat="48.08055" lon="-3.05193">
        <ele>201.2</ele>
        <time>2023-04-10T06:31:35Z</time>
      </trkpt>
      <trkpt lat="48.08058" lon="-3.05198">
        <ele>201.2</ele>
        <time>2023-04-10T06:31:36Z</time>
      </trkpt>
      <trkpt lat="48.08061" lon="-3.05202">
        <ele>201.2</ele>
        <time>2023-04-10T06:31:37Z</time>
      </trkpt>
      <trkpt lat="48.08064" lon="-3.05207">
        <ele>201.4</ele>
        <time>2023-04-10T06:31:38Z</time>
      </trkpt>
      <trkpt lat="48.08066" lon="-3.05212">
        <ele>201.4</ele>
        <time>2023-04-10T06:31:39Z</time>
      </trkpt>
      <trkpt lat="48.08071" lon="-3.0523">
        <ele>202.2</ele>
        <time>2023-04-10T06:31:42Z</time>
      </trkpt>
      <trkpt lat="48.08073" lon="-3.05242">
        <ele>202.2</ele>
        <time>2023-04-10T06:31:44Z</time>
      </trkpt>
      <trkpt lat="48.08075" lon="-3.05248">
        <ele>202.4</ele>
        <time>2023-04-10T06:31:45Z</time>
      </trkpt>
      <trkpt lat="48.08076" lon="-3.05253">
        <ele>202.6</ele>
        <time>2023-04-10T06:31:46Z</time>
      </trkpt>
      <trkpt lat="48.08077" lon="-3.05258">
        <ele>202.6</ele>
        <time>2023-04-10T06:31:47Z</time>
      </trkpt>
      <trkpt lat="48.08078" lon="-3.05264">
        <ele>202.8</ele>
        <time>2023-04-10T06:31:48Z</time>
      </trkpt>
      <trkpt lat="48.08078" lon="-3.05269">
        <ele>202.8</ele>
        <time>2023-04-10T06:31:49Z</time>
      </trkpt>
      <trkpt lat="48.08079" lon="-3.05273">
        <ele>203</ele>
        <time>2023-04-10T06:31:50Z</time>
      </trkpt>
      <trkpt lat="48.0808" lon="-3.05278">
        <ele>203.2</ele>
        <time>2023-04-10T06:31:51Z</time>
      </trkpt>
      <trkpt lat="48.08081" lon="-3.05283">
        <ele>203.4</ele>
        <time>2023-04-10T06:31:52Z</time>
      </trkpt>
      <trkpt lat="48.08082" lon="-3.05288">
        <ele>203.8</ele>
        <time>2023-04-10T06:31:53Z</time>
      </trkpt>
      <trkpt lat="48.08083" lon="-3.05292">
        <ele>204</ele>
        <time>2023-04-10T06:31:54Z</time>
      </trkpt>
      <trkpt lat="48.08084" lon="-3.05297">
        <ele>204.2</ele>
        <time>2023-04-10T06:31:55Z</time>
      </trkpt>
      <trkpt lat="48.08085" lon="-3.05302">
        <ele>204.4</ele>
        <time>2023-04-10T06:31:56Z</time>
      </trkpt>
      <trkpt lat="48.08086" lon="-3.05307">
        <ele>204.8</ele>
        <time>2023-04-10T06:31:57Z</time>
      </trkpt>
      <trkpt lat="48.08087" lon="-3.05312">
        <ele>205.2</ele>
        <time>2023-04-10T06:31:58Z</time>
      </trkpt>
      <trkpt lat="48.08087" lon="-3.05317">
        <ele>205.6</ele>
        <time>2023-04-10T06:31:59Z</time>
      </trkpt>
      <trkpt lat="48.08088" lon="-3.05321">
        <ele>206</ele>
        <time>2023-04-10T06:32:00Z</time>
      </trkpt>
      <trkpt lat="48.08089" lon="-3.05326">
        <ele>206.4</ele>
        <time>2023-04-10T06:32:01Z</time>
      </trkpt>
      <trkpt lat="48.0809" lon="-3.0533">
        <ele>206.8</ele>
        <time>2023-04-10T06:32:02Z</time>
      </trkpt>
      <trkpt lat="48.08091" lon="-3.05334">
        <ele>207.2</ele>
        <time>2023-04-10T06:32:03Z</time>
      </trkpt>
      <trkpt lat="48.08091" lon="-3.05338">
        <ele>207.4</ele>
        <time>2023-04-10T06:32:04Z</time>
      </trkpt>
      <trkpt lat="48.08092" lon="-3.05343">
        <ele>207.8</ele>
        <time>2023-04-10T06:32:05Z</time>
      </trkpt>
      <trkpt lat="48.08093" lon="-3.05347">
        <ele>208</ele>
        <time>2023-04-10T06:32:06Z</time>
      </trkpt>
      <trkpt lat="48.08094" lon="-3.05351">
        <ele>208.2</ele>
        <time>2023-04-10T06:32:07Z</time>
      </trkpt>
      <trkpt lat="48.08095" lon="-3.05355">
        <ele>208.6</ele>
        <time>2023-04-10T06:32:08Z</time>
      </trkpt>
      <trkpt lat="48.08096" lon="-3.05359">
        <ele>209</ele>
        <time>2023-04-10T06:32:09Z</time>
      </trkpt>
      <trkpt lat="48.08097" lon="-3.05363">
        <ele>209.4</ele>
        <time>2023-04-10T06:32:10Z</time>
      </trkpt>
      <trkpt lat="48.08097" lon="-3.05368">
        <ele>209.4</ele>
        <time>2023-04-10T06:32:11Z</time>
      </trkpt>
      <trkpt lat="48.08097" lon="-3.05372">
        <ele>209.6</ele>
        <time>2023-04-10T06:32:12Z</time>
      </trkpt>
      <trkpt lat="48.08098" lon="-3.05377">
        <ele>210</ele>
        <time>2023-04-10T06:32:13Z</time>
      </trkpt>
      <trkpt lat="48.08099" lon="-3.05382">
        <ele>210.2</ele>
        <time>2023-04-10T06:32:14Z</time>
      </trkpt>
      <trkpt lat="48.081" lon="-3.05386">
        <ele>210.4</ele>
        <time>2023-04-10T06:32:15Z</time>
      </trkpt>
      <trkpt lat="48.081" lon="-3.0539">
        <ele>210.8</ele>
        <time>2023-04-10T06:32:16Z</time>
      </trkpt>
      <trkpt lat="48.08101" lon="-3.05395">
        <ele>211.2</ele>
        <time>2023-04-10T06:32:17Z</time>
      </trkpt>
      <trkpt lat="48.08102" lon="-3.05399">
        <ele>211.6</ele>
        <time>2023-04-10T06:32:18Z</time>
      </trkpt>
      <trkpt lat="48.08103" lon="-3.05403">
        <ele>212</ele>
        <time>2023-04-10T06:32:19Z</time>
      </trkpt>
      <trkpt lat="48.08105" lon="-3.05406">
        <ele>212.2</ele>
        <time>2023-04-10T06:32:20Z</time>
      </trkpt>
      <trkpt lat="48.08106" lon="-3.0541">
        <ele>212.6</ele>
        <time>2023-04-10T06:32:21Z</time>
      </trkpt>
      <trkpt lat="48.08108" lon="-3.05413">
        <ele>213</ele>
        <time>2023-04-10T06:32:22Z</time>
      </trkpt>
      <trkpt lat="48.0811" lon="-3.05416">
        <ele>213.2</ele>
        <time>2023-04-10T06:32:23Z</time>
      </trkpt>
      <trkpt lat="48.08111" lon="-3.0542">
        <ele>213.4</ele>
        <time>2023-04-10T06:32:24Z</time>
      </trkpt>
      <trkpt lat="48.08111" lon="-3.05425">
        <ele>213.6</ele>
        <time>2023-04-10T06:32:25Z</time>
      </trkpt>
      <trkpt lat="48.08112" lon="-3.0543">
        <ele>213.8</ele>
        <time>2023-04-10T06:32:26Z</time>
      </trkpt>
      <trkpt lat="48.08112" lon="-3.05435">
        <ele>214.2</ele>
        <time>2023-04-10T06:32:27Z</time>
      </trkpt>
      <trkpt lat="48.08113" lon="-3.0544">
        <ele>214.2</ele>
        <time>2023-04-10T06:32:28Z</time>
      </trkpt>
      <trkpt lat="48.08114" lon="-3.05445">
        <ele>214.4</ele>
        <time>2023-04-10T06:32:29Z</time>
      </trkpt>
      <trkpt lat="48.08115" lon="-3.05451">
        <ele>214.6</ele>
        <time>2023-04-10T06:32:30Z</time>
      </trkpt>
      <trkpt lat="48.08116" lon="-3.05456">
        <ele>214.8</ele>
        <time>2023-04-10T06:32:31Z</time>
      </trkpt>
      <trkpt lat="48.08117" lon="-3.05461">
        <ele>215</ele>
        <time>2023-04-10T06:32:32Z</time>
      </trkpt>
      <trkpt lat="48.08118" lon="-3.05467">
        <ele>215</ele>
        <time>2023-04-10T06:32:33Z</time>
      </trkpt>
      <trkpt lat="48.0812" lon="-3.05472">
        <ele>215</ele>
        <time>2023-04-10T06:32:34Z</time>
      </trkpt>
      <trkpt lat="48.08121" lon="-3.05477">
        <ele>215.2</ele>
        <time>2023-04-10T06:32:35Z</time>
      </trkpt>
      <trkpt lat="48.08122" lon="-3.05483">
        <ele>215.4</ele>
        <time>2023-04-10T06:32:36Z</time>
      </trkpt>
      <trkpt lat="48.08124" lon="-3.05489">
        <ele>215.6</ele>
        <time>2023-04-10T06:32:37Z</time>
      </trkpt>
      <trkpt lat="48.08127" lon="-3.05495">
        <ele>215.8</ele>
        <time>2023-04-10T06:32:38Z</time>
      </trkpt>
      <trkpt lat="48.08129" lon="-3.05501">
        <ele>216.2</ele>
        <time>2023-04-10T06:32:39Z</time>
      </trkpt>
      <trkpt lat="48.08131" lon="-3.05508">
        <ele>216.4</ele>
        <time>2023-04-10T06:32:40Z</time>
      </trkpt>
      <trkpt lat="48.08133" lon="-3.05514">
        <ele>216.4</ele>
        <time>2023-04-10T06:32:41Z</time>
      </trkpt>
      <trkpt lat="48.08135" lon="-3.0552">
        <ele>216.4</ele>
        <time>2023-04-10T06:32:42Z</time>
      </trkpt>
      <trkpt lat="48.08137" lon="-3.05527">
        <ele>216.6</ele>
        <time>2023-04-10T06:32:43Z</time>
      </trkpt>
      <trkpt lat="48.08138" lon="-3.05533">
        <ele>216.6</ele>
        <time>2023-04-10T06:32:44Z</time>
      </trkpt>
      <trkpt lat="48.0814" lon="-3.0554">
        <ele>216.6</ele>
        <time>2023-04-10T06:32:45Z</time>
      </trkpt>
      <trkpt lat="48.08142" lon="-3.05546">
        <ele>216.6</ele>
        <time>2023-04-10T06:32:46Z</time>
      </trkpt>
      <trkpt lat="48.08144" lon="-3.05553">
        <ele>216.6</ele>
        <time>2023-04-10T06:32:47Z</time>
      </trkpt>
      <trkpt lat="48.08146" lon="-3.05559">
        <ele>216.6</ele>
        <time>2023-04-10T06:32:48Z</time>
      </trkpt>
      <trkpt lat="48.08148" lon="-3.05566">
        <ele>216.6</ele>
        <time>2023-04-10T06:32:49Z</time>
      </trkpt>
      <trkpt lat="48.0815" lon="-3.05572">
        <ele>216.6</ele>
        <time>2023-04-10T06:32:50Z</time>
      </trkpt>
      <trkpt lat="48.08153" lon="-3.05579">
        <ele>216.6</ele>
        <time>2023-04-10T06:32:51Z</time>
      </trkpt>
      <trkpt lat="48.08155" lon="-3.05586">
        <ele>216.4</ele>
        <time>2023-04-10T06:32:52Z</time>
      </trkpt>
      <trkpt lat="48.08157" lon="-3.05593">
        <ele>216.2</ele>
        <time>2023-04-10T06:32:53Z</time>
      </trkpt>
      <trkpt lat="48.08159" lon="-3.056">
        <ele>216</ele>
        <time>2023-04-10T06:32:54Z</time>
      </trkpt>
      <trkpt lat="48.08161" lon="-3.05607">
        <ele>216</ele>
        <time>2023-04-10T06:32:55Z</time>
      </trkpt>
      <trkpt lat="48.08164" lon="-3.05613">
        <ele>216</ele>
        <time>2023-04-10T06:32:56Z</time>
      </trkpt>
      <trkpt lat="48.08165" lon="-3.0562">
        <ele>216</ele>
        <time>2023-04-10T06:32:57Z</time>
      </trkpt>
      <trkpt lat="48.08167" lon="-3.05627">
        <ele>216</ele>
        <time>2023-04-10T06:32:58Z</time>
      </trkpt>
      <trkpt lat="48.08169" lon="-3.05633">
        <ele>216</ele>
        <time>2023-04-10T06:32:59Z</time>
      </trkpt>
      <trkpt lat="48.08171" lon="-3.0564">
        <ele>216</ele>
        <time>2023-04-10T06:33:00Z</time>
      </trkpt>
      <trkpt lat="48.08172" lon="-3.05647">
        <ele>216</ele>
        <time>2023-04-10T06:33:01Z</time>
      </trkpt>
      <trkpt lat="48.08173" lon="-3.05654">
        <ele>216</ele>
        <time>2023-04-10T06:33:02Z</time>
      </trkpt>
      <trkpt lat="48.08176" lon="-3.05682">
        <ele>216.2</ele>
        <time>2023-04-10T06:33:06Z</time>
      </trkpt>
      <trkpt lat="48.08179" lon="-3.0571">
        <ele>216.4</ele>
        <time>2023-04-10T06:33:10Z</time>
      </trkpt>
      <trkpt lat="48.0818" lon="-3.05717">
        <ele>216.4</ele>
        <time>2023-04-10T06:33:11Z</time>
      </trkpt>
      <trkpt lat="48.08186" lon="-3.05765">
        <ele>216.8</ele>
        <time>2023-04-10T06:33:17Z</time>
      </trkpt>
      <trkpt lat="48.08188" lon="-3.05773">
        <ele>216.8</ele>
        <time>2023-04-10T06:33:18Z</time>
      </trkpt>
      <trkpt lat="48.08189" lon="-3.0578">
        <ele>216.8</ele>
        <time>2023-04-10T06:33:19Z</time>
      </trkpt>
      <trkpt lat="48.08193" lon="-3.05796">
        <ele>216.8</ele>
        <time>2023-04-10T06:33:21Z</time>
      </trkpt>
      <trkpt lat="48.08196" lon="-3.05822">
        <ele>216.8</ele>
        <time>2023-04-10T06:33:24Z</time>
      </trkpt>
      <trkpt lat="48.08197" lon="-3.05831">
        <ele>216.8</ele>
        <time>2023-04-10T06:33:25Z</time>
      </trkpt>
      <trkpt lat="48.08199" lon="-3.0585">
        <ele>216.6</ele>
        <time>2023-04-10T06:33:27Z</time>
      </trkpt>
      <trkpt lat="48.082" lon="-3.05859">
        <ele>216.4</ele>
        <time>2023-04-10T06:33:28Z</time>
      </trkpt>
      <trkpt lat="48.08202" lon="-3.05869">
        <ele>216</ele>
        <time>2023-04-10T06:33:29Z</time>
      </trkpt>
      <trkpt lat="48.08203" lon="-3.05877">
        <ele>215.6</ele>
        <time>2023-04-10T06:33:30Z</time>
      </trkpt>
      <trkpt lat="48.08203" lon="-3.05886">
        <ele>215</ele>
        <time>2023-04-10T06:33:31Z</time>
      </trkpt>
      <trkpt lat="48.08204" lon="-3.05894">
        <ele>214.6</ele>
        <time>2023-04-10T06:33:32Z</time>
      </trkpt>
      <trkpt lat="48.08205" lon="-3.05902">
        <ele>214.6</ele>
        <time>2023-04-10T06:33:33Z</time>
      </trkpt>
      <trkpt lat="48.08205" lon="-3.05911">
        <ele>214.4</ele>
        <time>2023-04-10T06:33:34Z</time>
      </trkpt>
      <trkpt lat="48.08206" lon="-3.05919">
        <ele>214.4</ele>
        <time>2023-04-10T06:33:35Z</time>
      </trkpt>
      <trkpt lat="48.08206" lon="-3.05927">
        <ele>214.4</ele>
        <time>2023-04-10T06:33:36Z</time>
      </trkpt>
      <trkpt lat="48.08207" lon="-3.05945">
        <ele>214.4</ele>
        <time>2023-04-10T06:33:38Z</time>
      </trkpt>
      <trkpt lat="48.08211" lon="-3.05969">
        <ele>214.2</ele>
        <time>2023-04-10T06:33:41Z</time>
      </trkpt>
      <trkpt lat="48.08212" lon="-3.0598">
        <ele>214.2</ele>
        <time>2023-04-10T06:33:42Z</time>
      </trkpt>
      <trkpt lat="48.08213" lon="-3.05987">
        <ele>214.2</ele>
        <time>2023-04-10T06:33:43Z</time>
      </trkpt>
      <trkpt lat="48.08215" lon="-3.05994">
        <ele>214.2</ele>
        <time>2023-04-10T06:33:44Z</time>
      </trkpt>
      <trkpt lat="48.08216" lon="-3.06001">
        <ele>214.2</ele>
        <time>2023-04-10T06:33:45Z</time>
      </trkpt>
      <trkpt lat="48.08217" lon="-3.06009">
        <ele>214.2</ele>
        <time>2023-04-10T06:33:46Z</time>
      </trkpt>
      <trkpt lat="48.08217" lon="-3.06032">
        <ele>214.2</ele>
        <time>2023-04-10T06:33:49Z</time>
      </trkpt>
      <trkpt lat="48.08218" lon="-3.06039">
        <ele>214.2</ele>
        <time>2023-04-10T06:33:50Z</time>
      </trkpt>
      <trkpt lat="48.08218" lon="-3.06046">
        <ele>214.2</ele>
        <time>2023-04-10T06:33:51Z</time>
      </trkpt>
      <trkpt lat="48.08218" lon="-3.06053">
        <ele>214</ele>
        <time>2023-04-10T06:33:52Z</time>
      </trkpt>
      <trkpt lat="48.08218" lon="-3.06059">
        <ele>214</ele>
        <time>2023-04-10T06:33:53Z</time>
      </trkpt>
      <trkpt lat="48.08219" lon="-3.06066">
        <ele>214</ele>
        <time>2023-04-10T06:33:54Z</time>
      </trkpt>
      <trkpt lat="48.08219" lon="-3.06073">
        <ele>214</ele>
        <time>2023-04-10T06:33:55Z</time>
      </trkpt>
      <trkpt lat="48.0822" lon="-3.0608">
        <ele>214</ele>
        <time>2023-04-10T06:33:56Z</time>
      </trkpt>
      <trkpt lat="48.0822" lon="-3.06086">
        <ele>214</ele>
        <time>2023-04-10T06:33:57Z</time>
      </trkpt>
      <trkpt lat="48.08221" lon="-3.06093">
        <ele>214</ele>
        <time>2023-04-10T06:33:58Z</time>
      </trkpt>
      <trkpt lat="48.08222" lon="-3.06099">
        <ele>214</ele>
        <time>2023-04-10T06:33:59Z</time>
      </trkpt>
      <trkpt lat="48.08223" lon="-3.06105">
        <ele>214.2</ele>
        <time>2023-04-10T06:34:00Z</time>
      </trkpt>
      <trkpt lat="48.08223" lon="-3.06112">
        <ele>214.2</ele>
        <time>2023-04-10T06:34:01Z</time>
      </trkpt>
      <trkpt lat="48.08224" lon="-3.06118">
        <ele>214.2</ele>
        <time>2023-04-10T06:34:02Z</time>
      </trkpt>
      <trkpt lat="48.08225" lon="-3.06124">
        <ele>214.2</ele>
        <time>2023-04-10T06:34:03Z</time>
      </trkpt>
      <trkpt lat="48.08227" lon="-3.06136">
        <ele>214.2</ele>
        <time>2023-04-10T06:34:05Z</time>
      </trkpt>
      <trkpt lat="48.0823" lon="-3.06151">
        <ele>214.6</ele>
        <time>2023-04-10T06:34:07Z</time>
      </trkpt>
      <trkpt lat="48.08231" lon="-3.06158">
        <ele>214.6</ele>
        <time>2023-04-10T06:34:08Z</time>
      </trkpt>
      <trkpt lat="48.08239" lon="-3.06179">
        <ele>215</ele>
        <time>2023-04-10T06:34:11Z</time>
      </trkpt>
      <trkpt lat="48.08242" lon="-3.06194">
        <ele>215.2</ele>
        <time>2023-04-10T06:34:13Z</time>
      </trkpt>
      <trkpt lat="48.08261" lon="-3.06253">
        <ele>215.2</ele>
        <time>2023-04-10T06:34:20Z</time>
      </trkpt>
      <trkpt lat="48.08272" lon="-3.06277">
        <ele>215</ele>
        <time>2023-04-10T06:34:23Z</time>
      </trkpt>
      <trkpt lat="48.08277" lon="-3.06295">
        <ele>214.6</ele>
        <time>2023-04-10T06:34:25Z</time>
      </trkpt>
      <trkpt lat="48.08278" lon="-3.06303">
        <ele>214.4</ele>
        <time>2023-04-10T06:34:26Z</time>
      </trkpt>
      <trkpt lat="48.08279" lon="-3.06312">
        <ele>214.2</ele>
        <time>2023-04-10T06:34:27Z</time>
      </trkpt>
      <trkpt lat="48.0828" lon="-3.0632">
        <ele>213.8</ele>
        <time>2023-04-10T06:34:28Z</time>
      </trkpt>
      <trkpt lat="48.08281" lon="-3.06328">
        <ele>213.4</ele>
        <time>2023-04-10T06:34:29Z</time>
      </trkpt>
      <trkpt lat="48.08282" lon="-3.06335">
        <ele>213.4</ele>
        <time>2023-04-10T06:34:30Z</time>
      </trkpt>
      <trkpt lat="48.08282" lon="-3.06342">
        <ele>213</ele>
        <time>2023-04-10T06:34:31Z</time>
      </trkpt>
      <trkpt lat="48.08283" lon="-3.06349">
        <ele>212.6</ele>
        <time>2023-04-10T06:34:32Z</time>
      </trkpt>
      <trkpt lat="48.08286" lon="-3.06352">
        <ele>212.4</ele>
        <time>2023-04-10T06:34:33Z</time>
      </trkpt>
      <trkpt lat="48.08289" lon="-3.06352">
        <ele>212</ele>
        <time>2023-04-10T06:34:34Z</time>
      </trkpt>
      <trkpt lat="48.08298" lon="-3.06349">
        <ele>211.8</ele>
        <time>2023-04-10T06:34:36Z</time>
      </trkpt>
      <trkpt lat="48.08303" lon="-3.06348">
        <ele>211.6</ele>
        <time>2023-04-10T06:34:37Z</time>
      </trkpt>
      <trkpt lat="48.08308" lon="-3.06347">
        <ele>211.6</ele>
        <time>2023-04-10T06:34:38Z</time>
      </trkpt>
      <trkpt lat="48.08324" lon="-3.06342">
        <ele>211.2</ele>
        <time>2023-04-10T06:34:41Z</time>
      </trkpt>
      <trkpt lat="48.08328" lon="-3.06344">
        <ele>211</ele>
        <time>2023-04-10T06:34:42Z</time>
      </trkpt>
      <trkpt lat="48.08332" lon="-3.06349">
        <ele>210.8</ele>
        <time>2023-04-10T06:34:43Z</time>
      </trkpt>
      <trkpt lat="48.08334" lon="-3.06355">
        <ele>210.8</ele>
        <time>2023-04-10T06:34:44Z</time>
      </trkpt>
      <trkpt lat="48.08335" lon="-3.06362">
        <ele>210.8</ele>
        <time>2023-04-10T06:34:45Z</time>
      </trkpt>
      <trkpt lat="48.08337" lon="-3.06369">
        <ele>210.8</ele>
        <time>2023-04-10T06:34:46Z</time>
      </trkpt>
      <trkpt lat="48.08338" lon="-3.06375">
        <ele>210.6</ele>
        <time>2023-04-10T06:34:47Z</time>
      </trkpt>
      <trkpt lat="48.0834" lon="-3.06381">
        <ele>210.6</ele>
        <time>2023-04-10T06:34:48Z</time>
      </trkpt>
      <trkpt lat="48.08341" lon="-3.06387">
        <ele>210.6</ele>
        <time>2023-04-10T06:34:49Z</time>
      </trkpt>
      <trkpt lat="48.08342" lon="-3.06393">
        <ele>210.6</ele>
        <time>2023-04-10T06:34:50Z</time>
      </trkpt>
      <trkpt lat="48.08345" lon="-3.06405">
        <ele>210.4</ele>
        <time>2023-04-10T06:34:52Z</time>
      </trkpt>
      <trkpt lat="48.08356" lon="-3.06439">
        <ele>210</ele>
        <time>2023-04-10T06:34:57Z</time>
      </trkpt>
      <trkpt lat="48.08362" lon="-3.06463">
        <ele>209.6</ele>
        <time>2023-04-10T06:35:00Z</time>
      </trkpt>
      <trkpt lat="48.08365" lon="-3.06472">
        <ele>209.4</ele>
        <time>2023-04-10T06:35:01Z</time>
      </trkpt>
      <trkpt lat="48.08367" lon="-3.06479">
        <ele>209.4</ele>
        <time>2023-04-10T06:35:02Z</time>
      </trkpt>
      <trkpt lat="48.0837" lon="-3.06486">
        <ele>209.2</ele>
        <time>2023-04-10T06:35:03Z</time>
      </trkpt>
      <trkpt lat="48.08372" lon="-3.06493">
        <ele>209</ele>
        <time>2023-04-10T06:35:04Z</time>
      </trkpt>
      <trkpt lat="48.08374" lon="-3.065">
        <ele>208.8</ele>
        <time>2023-04-10T06:35:05Z</time>
      </trkpt>
      <trkpt lat="48.08379" lon="-3.06514">
        <ele>208.6</ele>
        <time>2023-04-10T06:35:07Z</time>
      </trkpt>
      <trkpt lat="48.08385" lon="-3.06529">
        <ele>208.4</ele>
        <time>2023-04-10T06:35:09Z</time>
      </trkpt>
      <trkpt lat="48.08388" lon="-3.06536">
        <ele>208.4</ele>
        <time>2023-04-10T06:35:10Z</time>
      </trkpt>
      <trkpt lat="48.08391" lon="-3.06543">
        <ele>208.2</ele>
        <time>2023-04-10T06:35:11Z</time>
      </trkpt>
      <trkpt lat="48.08393" lon="-3.06551">
        <ele>208.2</ele>
        <time>2023-04-10T06:35:12Z</time>
      </trkpt>
      <trkpt lat="48.08398" lon="-3.06564">
        <ele>208</ele>
        <time>2023-04-10T06:35:14Z</time>
      </trkpt>
      <trkpt lat="48.08408" lon="-3.06594">
        <ele>208</ele>
        <time>2023-04-10T06:35:18Z</time>
      </trkpt>
      <trkpt lat="48.08411" lon="-3.06609">
        <ele>208</ele>
        <time>2023-04-10T06:35:20Z</time>
      </trkpt>
      <trkpt lat="48.08414" lon="-3.06623">
        <ele>208</ele>
        <time>2023-04-10T06:35:22Z</time>
      </trkpt>
      <trkpt lat="48.08417" lon="-3.06637">
        <ele>208</ele>
        <time>2023-04-10T06:35:24Z</time>
      </trkpt>
      <trkpt lat="48.08418" lon="-3.06644">
        <ele>208.2</ele>
        <time>2023-04-10T06:35:25Z</time>
      </trkpt>
      <trkpt lat="48.0842" lon="-3.06666">
        <ele>208.4</ele>
        <time>2023-04-10T06:35:28Z</time>
      </trkpt>
      <trkpt lat="48.08421" lon="-3.06673">
        <ele>208.4</ele>
        <time>2023-04-10T06:35:29Z</time>
      </trkpt>
      <trkpt lat="48.08425" lon="-3.06688">
        <ele>208.6</ele>
        <time>2023-04-10T06:35:31Z</time>
      </trkpt>
      <trkpt lat="48.08426" lon="-3.06695">
        <ele>208.6</ele>
        <time>2023-04-10T06:35:32Z</time>
      </trkpt>
      <trkpt lat="48.08428" lon="-3.06709">
        <ele>208.6</ele>
        <time>2023-04-10T06:35:34Z</time>
      </trkpt>
      <trkpt lat="48.08429" lon="-3.06715">
        <ele>208.8</ele>
        <time>2023-04-10T06:35:35Z</time>
      </trkpt>
      <trkpt lat="48.0843" lon="-3.06723">
        <ele>208.8</ele>
        <time>2023-04-10T06:35:36Z</time>
      </trkpt>
      <trkpt lat="48.08431" lon="-3.0673">
        <ele>208.8</ele>
        <time>2023-04-10T06:35:37Z</time>
      </trkpt>
      <trkpt lat="48.08432" lon="-3.06737">
        <ele>209</ele>
        <time>2023-04-10T06:35:38Z</time>
      </trkpt>
      <trkpt lat="48.08433" lon="-3.06743">
        <ele>209.2</ele>
        <time>2023-04-10T06:35:39Z</time>
      </trkpt>
      <trkpt lat="48.08435" lon="-3.0675">
        <ele>209.2</ele>
        <time>2023-04-10T06:35:40Z</time>
      </trkpt>
      <trkpt lat="48.08436" lon="-3.06756">
        <ele>209.2</ele>
        <time>2023-04-10T06:35:41Z</time>
      </trkpt>
      <trkpt lat="48.08438" lon="-3.06762">
        <ele>209.4</ele>
        <time>2023-04-10T06:35:42Z</time>
      </trkpt>
      <trkpt lat="48.08439" lon="-3.06769">
        <ele>209.4</ele>
        <time>2023-04-10T06:35:43Z</time>
      </trkpt>
      <trkpt lat="48.0844" lon="-3.06775">
        <ele>209.4</ele>
        <time>2023-04-10T06:35:44Z</time>
      </trkpt>
      <trkpt lat="48.08441" lon="-3.0678">
        <ele>209.6</ele>
        <time>2023-04-10T06:35:45Z</time>
      </trkpt>
      <trkpt lat="48.08442" lon="-3.06784">
        <ele>209.6</ele>
        <time>2023-04-10T06:35:46Z</time>
      </trkpt>
      <trkpt lat="48.08443" lon="-3.0679">
        <ele>209.6</ele>
        <time>2023-04-10T06:35:47Z</time>
      </trkpt>
      <trkpt lat="48.08444" lon="-3.06794">
        <ele>210</ele>
        <time>2023-04-10T06:35:48Z</time>
      </trkpt>
      <trkpt lat="48.08444" lon="-3.068">
        <ele>210.2</ele>
        <time>2023-04-10T06:35:49Z</time>
      </trkpt>
      <trkpt lat="48.08449" lon="-3.06825">
        <ele>211.2</ele>
        <time>2023-04-10T06:35:54Z</time>
      </trkpt>
      <trkpt lat="48.08451" lon="-3.0683">
        <ele>211.6</ele>
        <time>2023-04-10T06:35:55Z</time>
      </trkpt>
      <trkpt lat="48.08454" lon="-3.06847">
        <ele>212.4</ele>
        <time>2023-04-10T06:35:58Z</time>
      </trkpt>
      <trkpt lat="48.08455" lon="-3.06852">
        <ele>212.8</ele>
        <time>2023-04-10T06:35:59Z</time>
      </trkpt>
      <trkpt lat="48.08456" lon="-3.06858">
        <ele>213</ele>
        <time>2023-04-10T06:36:00Z</time>
      </trkpt>
      <trkpt lat="48.08457" lon="-3.06863">
        <ele>213.2</ele>
        <time>2023-04-10T06:36:01Z</time>
      </trkpt>
      <trkpt lat="48.08459" lon="-3.06868">
        <ele>213.4</ele>
        <time>2023-04-10T06:36:02Z</time>
      </trkpt>
      <trkpt lat="48.08459" lon="-3.06873">
        <ele>213.4</ele>
        <time>2023-04-10T06:36:03Z</time>
      </trkpt>
      <trkpt lat="48.0846" lon="-3.06878">
        <ele>213.6</ele>
        <time>2023-04-10T06:36:04Z</time>
      </trkpt>
      <trkpt lat="48.08461" lon="-3.06883">
        <ele>213.8</ele>
        <time>2023-04-10T06:36:05Z</time>
      </trkpt>
      <trkpt lat="48.08463" lon="-3.06888">
        <ele>213.8</ele>
        <time>2023-04-10T06:36:06Z</time>
      </trkpt>
      <trkpt lat="48.08465" lon="-3.06892">
        <ele>214</ele>
        <time>2023-04-10T06:36:07Z</time>
      </trkpt>
      <trkpt lat="48.08469" lon="-3.06898">
        <ele>214.2</ele>
        <time>2023-04-10T06:36:08Z</time>
      </trkpt>
      <trkpt lat="48.08472" lon="-3.06902">
        <ele>214.4</ele>
        <time>2023-04-10T06:36:09Z</time>
      </trkpt>
      <trkpt lat="48.08475" lon="-3.06906">
        <ele>214.4</ele>
        <time>2023-04-10T06:36:10Z</time>
      </trkpt>
      <trkpt lat="48.08478" lon="-3.06911">
        <ele>214.8</ele>
        <time>2023-04-10T06:36:11Z</time>
      </trkpt>
      <trkpt lat="48.08481" lon="-3.06915">
        <ele>215</ele>
        <time>2023-04-10T06:36:12Z</time>
      </trkpt>
      <trkpt lat="48.08483" lon="-3.0692">
        <ele>215.2</ele>
        <time>2023-04-10T06:36:13Z</time>
      </trkpt>
      <trkpt lat="48.08486" lon="-3.06925">
        <ele>215.2</ele>
        <time>2023-04-10T06:36:14Z</time>
      </trkpt>
      <trkpt lat="48.08489" lon="-3.0693">
        <ele>215.2</ele>
        <time>2023-04-10T06:36:15Z</time>
      </trkpt>
      <trkpt lat="48.08493" lon="-3.06935">
        <ele>215.4</ele>
        <time>2023-04-10T06:36:16Z</time>
      </trkpt>
      <trkpt lat="48.08497" lon="-3.06939">
        <ele>215.4</ele>
        <time>2023-04-10T06:36:17Z</time>
      </trkpt>
      <trkpt lat="48.085" lon="-3.06944">
        <ele>215.4</ele>
        <time>2023-04-10T06:36:18Z</time>
      </trkpt>
      <trkpt lat="48.08504" lon="-3.0695">
        <ele>215.4</ele>
        <time>2023-04-10T06:36:19Z</time>
      </trkpt>
      <trkpt lat="48.08507" lon="-3.06955">
        <ele>215.4</ele>
        <time>2023-04-10T06:36:20Z</time>
      </trkpt>
      <trkpt lat="48.0851" lon="-3.0696">
        <ele>215.6</ele>
        <time>2023-04-10T06:36:21Z</time>
      </trkpt>
      <trkpt lat="48.08513" lon="-3.06965">
        <ele>215.6</ele>
        <time>2023-04-10T06:36:22Z</time>
      </trkpt>
      <trkpt lat="48.08517" lon="-3.06971">
        <ele>215.6</ele>
        <time>2023-04-10T06:36:23Z</time>
      </trkpt>
      <trkpt lat="48.0852" lon="-3.06976">
        <ele>215.6</ele>
        <time>2023-04-10T06:36:24Z</time>
      </trkpt>
      <trkpt lat="48.08524" lon="-3.06982">
        <ele>215.6</ele>
        <time>2023-04-10T06:36:25Z</time>
      </trkpt>
      <trkpt lat="48.08527" lon="-3.06987">
        <ele>215.6</ele>
        <time>2023-04-10T06:36:26Z</time>
      </trkpt>
      <trkpt lat="48.0853" lon="-3.06993">
        <ele>215.6</ele>
        <time>2023-04-10T06:36:27Z</time>
      </trkpt>
      <trkpt lat="48.08534" lon="-3.06998">
        <ele>215.6</ele>
        <time>2023-04-10T06:36:28Z</time>
      </trkpt>
      <trkpt lat="48.08537" lon="-3.07004">
        <ele>215.8</ele>
        <time>2023-04-10T06:36:29Z</time>
      </trkpt>
      <trkpt lat="48.0854" lon="-3.07009">
        <ele>215.8</ele>
        <time>2023-04-10T06:36:30Z</time>
      </trkpt>
      <trkpt lat="48.08544" lon="-3.07015">
        <ele>215.8</ele>
        <time>2023-04-10T06:36:31Z</time>
      </trkpt>
      <trkpt lat="48.08569" lon="-3.07057">
        <ele>216.4</ele>
        <time>2023-04-10T06:36:38Z</time>
      </trkpt>
      <trkpt lat="48.08599" lon="-3.07106">
        <ele>216.8</ele>
        <time>2023-04-10T06:36:46Z</time>
      </trkpt>
      <trkpt lat="48.08615" lon="-3.07132">
        <ele>216.8</ele>
        <time>2023-04-10T06:36:50Z</time>
      </trkpt>
      <trkpt lat="48.08619" lon="-3.07139">
        <ele>216.8</ele>
        <time>2023-04-10T06:36:51Z</time>
      </trkpt>
      <trkpt lat="48.08622" lon="-3.07145">
        <ele>216.8</ele>
        <time>2023-04-10T06:36:52Z</time>
      </trkpt>
      <trkpt lat="48.0864" lon="-3.07174">
        <ele>216.6</ele>
        <time>2023-04-10T06:36:57Z</time>
      </trkpt>
      <trkpt lat="48.08648" lon="-3.07185">
        <ele>216.6</ele>
        <time>2023-04-10T06:36:59Z</time>
      </trkpt>
      <trkpt lat="48.08655" lon="-3.07197">
        <ele>216.4</ele>
        <time>2023-04-10T06:37:01Z</time>
      </trkpt>
      <trkpt lat="48.08659" lon="-3.07203">
        <ele>216.4</ele>
        <time>2023-04-10T06:37:02Z</time>
      </trkpt>
      <trkpt lat="48.08663" lon="-3.07209">
        <ele>216.4</ele>
        <time>2023-04-10T06:37:03Z</time>
      </trkpt>
      <trkpt lat="48.08669" lon="-3.0722">
        <ele>216.2</ele>
        <time>2023-04-10T06:37:05Z</time>
      </trkpt>
      <trkpt lat="48.08673" lon="-3.07227">
        <ele>216.2</ele>
        <time>2023-04-10T06:37:06Z</time>
      </trkpt>
      <trkpt lat="48.08677" lon="-3.07233">
        <ele>216.2</ele>
        <time>2023-04-10T06:37:07Z</time>
      </trkpt>
      <trkpt lat="48.08681" lon="-3.0724">
        <ele>216.2</ele>
        <time>2023-04-10T06:37:08Z</time>
      </trkpt>
      <trkpt lat="48.08685" lon="-3.07246">
        <ele>216.2</ele>
        <time>2023-04-10T06:37:09Z</time>
      </trkpt>
      <trkpt lat="48.08689" lon="-3.07252">
        <ele>216.2</ele>
        <time>2023-04-10T06:37:10Z</time>
      </trkpt>
      <trkpt lat="48.08692" lon="-3.07258">
        <ele>216.2</ele>
        <time>2023-04-10T06:37:11Z</time>
      </trkpt>
      <trkpt lat="48.08695" lon="-3.07263">
        <ele>216.2</ele>
        <time>2023-04-10T06:37:12Z</time>
      </trkpt>
      <trkpt lat="48.08699" lon="-3.07269">
        <ele>216.2</ele>
        <time>2023-04-10T06:37:13Z</time>
      </trkpt>
      <trkpt lat="48.08733" lon="-3.07325">
        <ele>217.2</ele>
        <time>2023-04-10T06:37:22Z</time>
      </trkpt>
      <trkpt lat="48.08737" lon="-3.07332">
        <ele>217.2</ele>
        <time>2023-04-10T06:37:23Z</time>
      </trkpt>
      <trkpt lat="48.08764" lon="-3.07376">
        <ele>217.2</ele>
        <time>2023-04-10T06:37:29Z</time>
      </trkpt>
      <trkpt lat="48.08802" lon="-3.07437">
        <ele>216.4</ele>
        <time>2023-04-10T06:37:37Z</time>
      </trkpt>
      <trkpt lat="48.08807" lon="-3.07445">
        <ele>216.2</ele>
        <time>2023-04-10T06:37:38Z</time>
      </trkpt>
      <trkpt lat="48.08812" lon="-3.07454">
        <ele>216.2</ele>
        <time>2023-04-10T06:37:39Z</time>
      </trkpt>
      <trkpt lat="48.08817" lon="-3.07462">
        <ele>216</ele>
        <time>2023-04-10T06:37:40Z</time>
      </trkpt>
      <trkpt lat="48.08831" lon="-3.07486">
        <ele>215.6</ele>
        <time>2023-04-10T06:37:43Z</time>
      </trkpt>
      <trkpt lat="48.08836" lon="-3.07494">
        <ele>215.4</ele>
        <time>2023-04-10T06:37:44Z</time>
      </trkpt>
      <trkpt lat="48.08841" lon="-3.07501">
        <ele>215.2</ele>
        <time>2023-04-10T06:37:45Z</time>
      </trkpt>
      <trkpt lat="48.08845" lon="-3.07509">
        <ele>215</ele>
        <time>2023-04-10T06:37:46Z</time>
      </trkpt>
      <trkpt lat="48.0885" lon="-3.07516">
        <ele>215</ele>
        <time>2023-04-10T06:37:47Z</time>
      </trkpt>
      <trkpt lat="48.08855" lon="-3.07524">
        <ele>215</ele>
        <time>2023-04-10T06:37:48Z</time>
      </trkpt>
      <trkpt lat="48.0886" lon="-3.07531">
        <ele>214.8</ele>
        <time>2023-04-10T06:37:49Z</time>
      </trkpt>
      <trkpt lat="48.08887" lon="-3.07576">
        <ele>214.6</ele>
        <time>2023-04-10T06:37:55Z</time>
      </trkpt>
      <trkpt lat="48.08916" lon="-3.07625">
        <ele>214.4</ele>
        <time>2023-04-10T06:38:01Z</time>
      </trkpt>
      <trkpt lat="48.08921" lon="-3.07635">
        <ele>214.2</ele>
        <time>2023-04-10T06:38:02Z</time>
      </trkpt>
      <trkpt lat="48.08927" lon="-3.07648">
        <ele>213.8</ele>
        <time>2023-04-10T06:38:03Z</time>
      </trkpt>
      <trkpt lat="48.08946" lon="-3.07679">
        <ele>213.2</ele>
        <time>2023-04-10T06:38:06Z</time>
      </trkpt>
      <trkpt lat="48.08959" lon="-3.07698">
        <ele>212.8</ele>
        <time>2023-04-10T06:38:08Z</time>
      </trkpt>
      <trkpt lat="48.08967" lon="-3.07708">
        <ele>212.2</ele>
        <time>2023-04-10T06:38:09Z</time>
      </trkpt>
      <trkpt lat="48.08975" lon="-3.07719">
        <ele>211.2</ele>
        <time>2023-04-10T06:38:10Z</time>
      </trkpt>
      <trkpt lat="48.08981" lon="-3.0773">
        <ele>210.6</ele>
        <time>2023-04-10T06:38:11Z</time>
      </trkpt>
      <trkpt lat="48.08986" lon="-3.0774">
        <ele>209.8</ele>
        <time>2023-04-10T06:38:12Z</time>
      </trkpt>
      <trkpt lat="48.08991" lon="-3.07749">
        <ele>208.8</ele>
        <time>2023-04-10T06:38:13Z</time>
      </trkpt>
      <trkpt lat="48.08997" lon="-3.07759">
        <ele>208</ele>
        <time>2023-04-10T06:38:14Z</time>
      </trkpt>
      <trkpt lat="48.09008" lon="-3.07779">
        <ele>206.4</ele>
        <time>2023-04-10T06:38:16Z</time>
      </trkpt>
      <trkpt lat="48.0902" lon="-3.07798">
        <ele>205.2</ele>
        <time>2023-04-10T06:38:18Z</time>
      </trkpt>
      <trkpt lat="48.09047" lon="-3.07839">
        <ele>204.6</ele>
        <time>2023-04-10T06:38:22Z</time>
      </trkpt>
      <trkpt lat="48.09054" lon="-3.07849">
        <ele>204.4</ele>
        <time>2023-04-10T06:38:23Z</time>
      </trkpt>
      <trkpt lat="48.0906" lon="-3.07858">
        <ele>204.2</ele>
        <time>2023-04-10T06:38:24Z</time>
      </trkpt>
      <trkpt lat="48.09067" lon="-3.07868">
        <ele>204</ele>
        <time>2023-04-10T06:38:25Z</time>
      </trkpt>
      <trkpt lat="48.09072" lon="-3.07875">
        <ele>204</ele>
        <time>2023-04-10T06:38:26Z</time>
      </trkpt>
      <trkpt lat="48.09079" lon="-3.07884">
        <ele>203.2</ele>
        <time>2023-04-10T06:38:27Z</time>
      </trkpt>
      <trkpt lat="48.09086" lon="-3.07895">
        <ele>202</ele>
        <time>2023-04-10T06:38:28Z</time>
      </trkpt>
      <trkpt lat="48.09099" lon="-3.07916">
        <ele>200.8</ele>
        <time>2023-04-10T06:38:30Z</time>
      </trkpt>
      <trkpt lat="48.09107" lon="-3.07926">
        <ele>200</ele>
        <time>2023-04-10T06:38:31Z</time>
      </trkpt>
      <trkpt lat="48.09113" lon="-3.07937">
        <ele>199.4</ele>
        <time>2023-04-10T06:38:32Z</time>
      </trkpt>
      <trkpt lat="48.09126" lon="-3.07964">
        <ele>198.6</ele>
        <time>2023-04-10T06:38:34Z</time>
      </trkpt>
      <trkpt lat="48.09131" lon="-3.07979">
        <ele>198.4</ele>
        <time>2023-04-10T06:38:35Z</time>
      </trkpt>
      <trkpt lat="48.09138" lon="-3.07992">
        <ele>197.8</ele>
        <time>2023-04-10T06:38:36Z</time>
      </trkpt>
      <trkpt lat="48.09146" lon="-3.08005">
        <ele>197.2</ele>
        <time>2023-04-10T06:38:37Z</time>
      </trkpt>
      <trkpt lat="48.09156" lon="-3.08019">
        <ele>196.4</ele>
        <time>2023-04-10T06:38:38Z</time>
      </trkpt>
      <trkpt lat="48.09164" lon="-3.08031">
        <ele>195.6</ele>
        <time>2023-04-10T06:38:39Z</time>
      </trkpt>
      <trkpt lat="48.09172" lon="-3.08045">
        <ele>194.8</ele>
        <time>2023-04-10T06:38:40Z</time>
      </trkpt>
      <trkpt lat="48.09182" lon="-3.08061">
        <ele>193.4</ele>
        <time>2023-04-10T06:38:41Z</time>
      </trkpt>
      <trkpt lat="48.09191" lon="-3.08074">
        <ele>192.2</ele>
        <time>2023-04-10T06:38:42Z</time>
      </trkpt>
      <trkpt lat="48.09199" lon="-3.08086">
        <ele>190.6</ele>
        <time>2023-04-10T06:38:43Z</time>
      </trkpt>
      <trkpt lat="48.09207" lon="-3.08098">
        <ele>189.4</ele>
        <time>2023-04-10T06:38:44Z</time>
      </trkpt>
      <trkpt lat="48.09214" lon="-3.0811">
        <ele>187.8</ele>
        <time>2023-04-10T06:38:45Z</time>
      </trkpt>
      <trkpt lat="48.09222" lon="-3.08121">
        <ele>186.6</ele>
        <time>2023-04-10T06:38:46Z</time>
      </trkpt>
      <trkpt lat="48.09229" lon="-3.08132">
        <ele>185.8</ele>
        <time>2023-04-10T06:38:47Z</time>
      </trkpt>
      <trkpt lat="48.09235" lon="-3.08143">
        <ele>185</ele>
        <time>2023-04-10T06:38:48Z</time>
      </trkpt>
      <trkpt lat="48.09241" lon="-3.08152">
        <ele>185</ele>
        <time>2023-04-10T06:38:49Z</time>
      </trkpt>
      <trkpt lat="48.09245" lon="-3.0816">
        <ele>184</ele>
        <time>2023-04-10T06:38:50Z</time>
      </trkpt>
      <trkpt lat="48.0925" lon="-3.08168">
        <ele>183.2</ele>
        <time>2023-04-10T06:38:51Z</time>
      </trkpt>
      <trkpt lat="48.09255" lon="-3.08177">
        <ele>182.4</ele>
        <time>2023-04-10T06:38:52Z</time>
      </trkpt>
      <trkpt lat="48.0926" lon="-3.08185">
        <ele>181.6</ele>
        <time>2023-04-10T06:38:53Z</time>
      </trkpt>
      <trkpt lat="48.09265" lon="-3.08193">
        <ele>181.4</ele>
        <time>2023-04-10T06:38:54Z</time>
      </trkpt>
      <trkpt lat="48.0927" lon="-3.08201">
        <ele>181.2</ele>
        <time>2023-04-10T06:38:55Z</time>
      </trkpt>
      <trkpt lat="48.09275" lon="-3.08208">
        <ele>181</ele>
        <time>2023-04-10T06:38:56Z</time>
      </trkpt>
      <trkpt lat="48.09279" lon="-3.08215">
        <ele>180.8</ele>
        <time>2023-04-10T06:38:57Z</time>
      </trkpt>
      <trkpt lat="48.09283" lon="-3.08222">
        <ele>180.8</ele>
        <time>2023-04-10T06:38:58Z</time>
      </trkpt>
      <trkpt lat="48.09287" lon="-3.08228">
        <ele>180.8</ele>
        <time>2023-04-10T06:38:59Z</time>
      </trkpt>
      <trkpt lat="48.09291" lon="-3.08233">
        <ele>180.8</ele>
        <time>2023-04-10T06:39:00Z</time>
      </trkpt>
      <trkpt lat="48.09295" lon="-3.0824">
        <ele>180.8</ele>
        <time>2023-04-10T06:39:01Z</time>
      </trkpt>
      <trkpt lat="48.09298" lon="-3.08246">
        <ele>180.8</ele>
        <time>2023-04-10T06:39:02Z</time>
      </trkpt>
      <trkpt lat="48.09302" lon="-3.08251">
        <ele>180.8</ele>
        <time>2023-04-10T06:39:03Z</time>
      </trkpt>
      <trkpt lat="48.09305" lon="-3.08257">
        <ele>180.8</ele>
        <time>2023-04-10T06:39:04Z</time>
      </trkpt>
      <trkpt lat="48.09309" lon="-3.08262">
        <ele>180.8</ele>
        <time>2023-04-10T06:39:05Z</time>
      </trkpt>
      <trkpt lat="48.09313" lon="-3.08267">
        <ele>180.8</ele>
        <time>2023-04-10T06:39:06Z</time>
      </trkpt>
      <trkpt lat="48.09316" lon="-3.08272">
        <ele>181</ele>
        <time>2023-04-10T06:39:07Z</time>
      </trkpt>
      <trkpt lat="48.09319" lon="-3.08276">
        <ele>181.4</ele>
        <time>2023-04-10T06:39:08Z</time>
      </trkpt>
      <trkpt lat="48.09322" lon="-3.0828">
        <ele>181.4</ele>
        <time>2023-04-10T06:39:09Z</time>
      </trkpt>
      <trkpt lat="48.09325" lon="-3.08285">
        <ele>181.6</ele>
        <time>2023-04-10T06:39:10Z</time>
      </trkpt>
      <trkpt lat="48.09329" lon="-3.08291">
        <ele>181.6</ele>
        <time>2023-04-10T06:39:11Z</time>
      </trkpt>
      <trkpt lat="48.09333" lon="-3.08296">
        <ele>181.8</ele>
        <time>2023-04-10T06:39:12Z</time>
      </trkpt>
      <trkpt lat="48.09337" lon="-3.08301">
        <ele>182</ele>
        <time>2023-04-10T06:39:13Z</time>
      </trkpt>
      <trkpt lat="48.0934" lon="-3.08307">
        <ele>182.2</ele>
        <time>2023-04-10T06:39:14Z</time>
      </trkpt>
      <trkpt lat="48.09343" lon="-3.08311">
        <ele>182.4</ele>
        <time>2023-04-10T06:39:15Z</time>
      </trkpt>
      <trkpt lat="48.09346" lon="-3.08318">
        <ele>182.8</ele>
        <time>2023-04-10T06:39:16Z</time>
      </trkpt>
      <trkpt lat="48.09348" lon="-3.08322">
        <ele>183</ele>
        <time>2023-04-10T06:39:17Z</time>
      </trkpt>
      <trkpt lat="48.09352" lon="-3.08327">
        <ele>183.4</ele>
        <time>2023-04-10T06:39:18Z</time>
      </trkpt>
      <trkpt lat="48.09355" lon="-3.08332">
        <ele>183.6</ele>
        <time>2023-04-10T06:39:19Z</time>
      </trkpt>
      <trkpt lat="48.09361" lon="-3.08341">
        <ele>184</ele>
        <time>2023-04-10T06:39:21Z</time>
      </trkpt>
      <trkpt lat="48.09368" lon="-3.08353">
        <ele>184.4</ele>
        <time>2023-04-10T06:39:23Z</time>
      </trkpt>
      <trkpt lat="48.09372" lon="-3.0836">
        <ele>184.6</ele>
        <time>2023-04-10T06:39:24Z</time>
      </trkpt>
      <trkpt lat="48.09376" lon="-3.08366">
        <ele>184.8</ele>
        <time>2023-04-10T06:39:25Z</time>
      </trkpt>
      <trkpt lat="48.09379" lon="-3.0837">
        <ele>184.8</ele>
        <time>2023-04-10T06:39:26Z</time>
      </trkpt>
      <trkpt lat="48.09383" lon="-3.08376">
        <ele>184.8</ele>
        <time>2023-04-10T06:39:27Z</time>
      </trkpt>
      <trkpt lat="48.09387" lon="-3.08382">
        <ele>185</ele>
        <time>2023-04-10T06:39:28Z</time>
      </trkpt>
      <trkpt lat="48.09391" lon="-3.08388">
        <ele>185</ele>
        <time>2023-04-10T06:39:29Z</time>
      </trkpt>
      <trkpt lat="48.09394" lon="-3.08393">
        <ele>185.2</ele>
        <time>2023-04-10T06:39:30Z</time>
      </trkpt>
      <trkpt lat="48.09397" lon="-3.08397">
        <ele>185.4</ele>
        <time>2023-04-10T06:39:31Z</time>
      </trkpt>
      <trkpt lat="48.09399" lon="-3.08402">
        <ele>185.4</ele>
        <time>2023-04-10T06:39:32Z</time>
      </trkpt>
      <trkpt lat="48.09401" lon="-3.08406">
        <ele>185.4</ele>
        <time>2023-04-10T06:39:33Z</time>
      </trkpt>
      <trkpt lat="48.09403" lon="-3.08411">
        <ele>185.4</ele>
        <time>2023-04-10T06:39:34Z</time>
      </trkpt>
      <trkpt lat="48.09405" lon="-3.08415">
        <ele>185.6</ele>
        <time>2023-04-10T06:39:35Z</time>
      </trkpt>
      <trkpt lat="48.09409" lon="-3.08421">
        <ele>185.8</ele>
        <time>2023-04-10T06:39:36Z</time>
      </trkpt>
      <trkpt lat="48.09412" lon="-3.08425">
        <ele>185.8</ele>
        <time>2023-04-10T06:39:37Z</time>
      </trkpt>
      <trkpt lat="48.09414" lon="-3.08429">
        <ele>186</ele>
        <time>2023-04-10T06:39:38Z</time>
      </trkpt>
      <trkpt lat="48.09417" lon="-3.08433">
        <ele>186.4</ele>
        <time>2023-04-10T06:39:39Z</time>
      </trkpt>
      <trkpt lat="48.09419" lon="-3.08437">
        <ele>186.4</ele>
        <time>2023-04-10T06:39:40Z</time>
      </trkpt>
      <trkpt lat="48.09422" lon="-3.08443">
        <ele>186.8</ele>
        <time>2023-04-10T06:39:41Z</time>
      </trkpt>
      <trkpt lat="48.09425" lon="-3.08448">
        <ele>187</ele>
        <time>2023-04-10T06:39:42Z</time>
      </trkpt>
      <trkpt lat="48.09427" lon="-3.08454">
        <ele>187</ele>
        <time>2023-04-10T06:39:43Z</time>
      </trkpt>
      <trkpt lat="48.09428" lon="-3.08458">
        <ele>187.2</ele>
        <time>2023-04-10T06:39:44Z</time>
      </trkpt>
      <trkpt lat="48.09432" lon="-3.08461">
        <ele>187.4</ele>
        <time>2023-04-10T06:39:45Z</time>
      </trkpt>
      <trkpt lat="48.09435" lon="-3.08465">
        <ele>187.4</ele>
        <time>2023-04-10T06:39:46Z</time>
      </trkpt>
      <trkpt lat="48.09439" lon="-3.08471">
        <ele>187.6</ele>
        <time>2023-04-10T06:39:47Z</time>
      </trkpt>
      <trkpt lat="48.09441" lon="-3.08476">
        <ele>187.8</ele>
        <time>2023-04-10T06:39:48Z</time>
      </trkpt>
      <trkpt lat="48.09442" lon="-3.08479">
        <ele>188</ele>
        <time>2023-04-10T06:39:49Z</time>
      </trkpt>
      <trkpt lat="48.09444" lon="-3.08482">
        <ele>188</ele>
        <time>2023-04-10T06:39:50Z</time>
      </trkpt>
      <trkpt lat="48.09447" lon="-3.08486">
        <ele>188.2</ele>
        <time>2023-04-10T06:39:51Z</time>
      </trkpt>
      <trkpt lat="48.09449" lon="-3.0849">
        <ele>188.4</ele>
        <time>2023-04-10T06:39:52Z</time>
      </trkpt>
      <trkpt lat="48.09451" lon="-3.08493">
        <ele>188.4</ele>
        <time>2023-04-10T06:39:53Z</time>
      </trkpt>
      <trkpt lat="48.09453" lon="-3.08496">
        <ele>188.6</ele>
        <time>2023-04-10T06:39:54Z</time>
      </trkpt>
      <trkpt lat="48.09456" lon="-3.085">
        <ele>189</ele>
        <time>2023-04-10T06:39:55Z</time>
      </trkpt>
      <trkpt lat="48.09458" lon="-3.08503">
        <ele>189</ele>
        <time>2023-04-10T06:39:56Z</time>
      </trkpt>
      <trkpt lat="48.09461" lon="-3.08507">
        <ele>189</ele>
        <time>2023-04-10T06:39:57Z</time>
      </trkpt>
      <trkpt lat="48.09463" lon="-3.08511">
        <ele>189.2</ele>
        <time>2023-04-10T06:39:58Z</time>
      </trkpt>
      <trkpt lat="48.09466" lon="-3.08516">
        <ele>189.6</ele>
        <time>2023-04-10T06:39:59Z</time>
      </trkpt>
      <trkpt lat="48.09469" lon="-3.08519">
        <ele>189.8</ele>
        <time>2023-04-10T06:40:00Z</time>
      </trkpt>
      <trkpt lat="48.09471" lon="-3.08522">
        <ele>190</ele>
        <time>2023-04-10T06:40:01Z</time>
      </trkpt>
      <trkpt lat="48.09473" lon="-3.08524">
        <ele>190</ele>
        <time>2023-04-10T06:40:02Z</time>
      </trkpt>
      <trkpt lat="48.09475" lon="-3.08526">
        <ele>190.2</ele>
        <time>2023-04-10T06:40:03Z</time>
      </trkpt>
      <trkpt lat="48.09477" lon="-3.0853">
        <ele>190.2</ele>
        <time>2023-04-10T06:40:04Z</time>
      </trkpt>
      <trkpt lat="48.09479" lon="-3.08534">
        <ele>190.6</ele>
        <time>2023-04-10T06:40:05Z</time>
      </trkpt>
      <trkpt lat="48.09481" lon="-3.08538">
        <ele>190.8</ele>
        <time>2023-04-10T06:40:06Z</time>
      </trkpt>
      <trkpt lat="48.09484" lon="-3.08543">
        <ele>191</ele>
        <time>2023-04-10T06:40:07Z</time>
      </trkpt>
      <trkpt lat="48.09486" lon="-3.08547">
        <ele>191.2</ele>
        <time>2023-04-10T06:40:08Z</time>
      </trkpt>
      <trkpt lat="48.09489" lon="-3.08552">
        <ele>191.4</ele>
        <time>2023-04-10T06:40:09Z</time>
      </trkpt>
      <trkpt lat="48.09491" lon="-3.08556">
        <ele>191.4</ele>
        <time>2023-04-10T06:40:10Z</time>
      </trkpt>
      <trkpt lat="48.09494" lon="-3.0856">
        <ele>191.6</ele>
        <time>2023-04-10T06:40:11Z</time>
      </trkpt>
      <trkpt lat="48.09497" lon="-3.08565">
        <ele>191.6</ele>
        <time>2023-04-10T06:40:12Z</time>
      </trkpt>
      <trkpt lat="48.09499" lon="-3.08568">
        <ele>191.6</ele>
        <time>2023-04-10T06:40:13Z</time>
      </trkpt>
      <trkpt lat="48.09503" lon="-3.08573">
        <ele>191.6</ele>
        <time>2023-04-10T06:40:14Z</time>
      </trkpt>
      <trkpt lat="48.09506" lon="-3.08577">
        <ele>191.8</ele>
        <time>2023-04-10T06:40:15Z</time>
      </trkpt>
      <trkpt lat="48.09509" lon="-3.08581">
        <ele>191.8</ele>
        <time>2023-04-10T06:40:16Z</time>
      </trkpt>
      <trkpt lat="48.09511" lon="-3.08585">
        <ele>191.8</ele>
        <time>2023-04-10T06:40:17Z</time>
      </trkpt>
      <trkpt lat="48.09514" lon="-3.0859">
        <ele>191.8</ele>
        <time>2023-04-10T06:40:18Z</time>
      </trkpt>
      <trkpt lat="48.09517" lon="-3.08595">
        <ele>191.8</ele>
        <time>2023-04-10T06:40:19Z</time>
      </trkpt>
      <trkpt lat="48.0952" lon="-3.08601">
        <ele>191.8</ele>
        <time>2023-04-10T06:40:20Z</time>
      </trkpt>
      <trkpt lat="48.09523" lon="-3.08606">
        <ele>191.8</ele>
        <time>2023-04-10T06:40:21Z</time>
      </trkpt>
      <trkpt lat="48.09525" lon="-3.08611">
        <ele>191.8</ele>
        <time>2023-04-10T06:40:22Z</time>
      </trkpt>
      <trkpt lat="48.09529" lon="-3.08617">
        <ele>191.8</ele>
        <time>2023-04-10T06:40:23Z</time>
      </trkpt>
      <trkpt lat="48.09532" lon="-3.08621">
        <ele>191.8</ele>
        <time>2023-04-10T06:40:24Z</time>
      </trkpt>
      <trkpt lat="48.09534" lon="-3.08625">
        <ele>191.8</ele>
        <time>2023-04-10T06:40:25Z</time>
      </trkpt>
      <trkpt lat="48.09541" lon="-3.08635">
        <ele>191.8</ele>
        <time>2023-04-10T06:40:27Z</time>
      </trkpt>
      <trkpt lat="48.09544" lon="-3.08639">
        <ele>191.8</ele>
        <time>2023-04-10T06:40:28Z</time>
      </trkpt>
      <trkpt lat="48.09547" lon="-3.08643">
        <ele>191.6</ele>
        <time>2023-04-10T06:40:29Z</time>
      </trkpt>
      <trkpt lat="48.0955" lon="-3.08648">
        <ele>191.6</ele>
        <time>2023-04-10T06:40:30Z</time>
      </trkpt>
      <trkpt lat="48.09553" lon="-3.08653">
        <ele>191.6</ele>
        <time>2023-04-10T06:40:31Z</time>
      </trkpt>
      <trkpt lat="48.09571" lon="-3.08683">
        <ele>191.4</ele>
        <time>2023-04-10T06:40:37Z</time>
      </trkpt>
      <trkpt lat="48.09574" lon="-3.08686">
        <ele>191.2</ele>
        <time>2023-04-10T06:40:38Z</time>
      </trkpt>
      <trkpt lat="48.09577" lon="-3.08691">
        <ele>191.2</ele>
        <time>2023-04-10T06:40:39Z</time>
      </trkpt>
      <trkpt lat="48.0958" lon="-3.08697">
        <ele>191.2</ele>
        <time>2023-04-10T06:40:40Z</time>
      </trkpt>
      <trkpt lat="48.09583" lon="-3.08701">
        <ele>191.2</ele>
        <time>2023-04-10T06:40:41Z</time>
      </trkpt>
      <trkpt lat="48.0959" lon="-3.08712">
        <ele>191.2</ele>
        <time>2023-04-10T06:40:43Z</time>
      </trkpt>
      <trkpt lat="48.09593" lon="-3.08717">
        <ele>191.2</ele>
        <time>2023-04-10T06:40:44Z</time>
      </trkpt>
      <trkpt lat="48.09598" lon="-3.08724">
        <ele>191.2</ele>
        <time>2023-04-10T06:40:45Z</time>
      </trkpt>
      <trkpt lat="48.09601" lon="-3.0873">
        <ele>191.2</ele>
        <time>2023-04-10T06:40:46Z</time>
      </trkpt>
      <trkpt lat="48.09604" lon="-3.08736">
        <ele>191.2</ele>
        <time>2023-04-10T06:40:47Z</time>
      </trkpt>
      <trkpt lat="48.09607" lon="-3.08741">
        <ele>191.2</ele>
        <time>2023-04-10T06:40:48Z</time>
      </trkpt>
      <trkpt lat="48.09617" lon="-3.08756">
        <ele>191</ele>
        <time>2023-04-10T06:40:51Z</time>
      </trkpt>
      <trkpt lat="48.09621" lon="-3.08761">
        <ele>191</ele>
        <time>2023-04-10T06:40:52Z</time>
      </trkpt>
      <trkpt lat="48.09624" lon="-3.08766">
        <ele>191</ele>
        <time>2023-04-10T06:40:53Z</time>
      </trkpt>
      <trkpt lat="48.09627" lon="-3.08772">
        <ele>191</ele>
        <time>2023-04-10T06:40:54Z</time>
      </trkpt>
      <trkpt lat="48.09631" lon="-3.08776">
        <ele>190.8</ele>
        <time>2023-04-10T06:40:55Z</time>
      </trkpt>
      <trkpt lat="48.09635" lon="-3.08782">
        <ele>190.8</ele>
        <time>2023-04-10T06:40:56Z</time>
      </trkpt>
      <trkpt lat="48.09638" lon="-3.08787">
        <ele>190.8</ele>
        <time>2023-04-10T06:40:57Z</time>
      </trkpt>
      <trkpt lat="48.0964" lon="-3.08792">
        <ele>190.8</ele>
        <time>2023-04-10T06:40:58Z</time>
      </trkpt>
      <trkpt lat="48.09655" lon="-3.08816">
        <ele>190.8</ele>
        <time>2023-04-10T06:41:03Z</time>
      </trkpt>
      <trkpt lat="48.09662" lon="-3.08825">
        <ele>190.8</ele>
        <time>2023-04-10T06:41:05Z</time>
      </trkpt>
      <trkpt lat="48.09665" lon="-3.08831">
        <ele>190.8</ele>
        <time>2023-04-10T06:41:06Z</time>
      </trkpt>
      <trkpt lat="48.09668" lon="-3.08836">
        <ele>190.8</ele>
        <time>2023-04-10T06:41:07Z</time>
      </trkpt>
      <trkpt lat="48.09671" lon="-3.0884">
        <ele>190.8</ele>
        <time>2023-04-10T06:41:08Z</time>
      </trkpt>
      <trkpt lat="48.09674" lon="-3.08845">
        <ele>190.8</ele>
        <time>2023-04-10T06:41:09Z</time>
      </trkpt>
      <trkpt lat="48.09677" lon="-3.08849">
        <ele>190.8</ele>
        <time>2023-04-10T06:41:10Z</time>
      </trkpt>
      <trkpt lat="48.09679" lon="-3.08853">
        <ele>190.8</ele>
        <time>2023-04-10T06:41:11Z</time>
      </trkpt>
      <trkpt lat="48.09681" lon="-3.08858">
        <ele>190.8</ele>
        <time>2023-04-10T06:41:12Z</time>
      </trkpt>
      <trkpt lat="48.09684" lon="-3.08862">
        <ele>191</ele>
        <time>2023-04-10T06:41:13Z</time>
      </trkpt>
      <trkpt lat="48.09686" lon="-3.08867">
        <ele>191</ele>
        <time>2023-04-10T06:41:14Z</time>
      </trkpt>
      <trkpt lat="48.09689" lon="-3.08871">
        <ele>191</ele>
        <time>2023-04-10T06:41:15Z</time>
      </trkpt>
      <trkpt lat="48.09691" lon="-3.08876">
        <ele>191</ele>
        <time>2023-04-10T06:41:16Z</time>
      </trkpt>
      <trkpt lat="48.09698" lon="-3.0889">
        <ele>191.6</ele>
        <time>2023-04-10T06:41:19Z</time>
      </trkpt>
      <trkpt lat="48.097" lon="-3.08893">
        <ele>191.8</ele>
        <time>2023-04-10T06:41:20Z</time>
      </trkpt>
      <trkpt lat="48.09703" lon="-3.08896">
        <ele>192</ele>
        <time>2023-04-10T06:41:21Z</time>
      </trkpt>
      <trkpt lat="48.09706" lon="-3.089">
        <ele>192.2</ele>
        <time>2023-04-10T06:41:22Z</time>
      </trkpt>
      <trkpt lat="48.09708" lon="-3.08903">
        <ele>192.2</ele>
        <time>2023-04-10T06:41:23Z</time>
      </trkpt>
      <trkpt lat="48.09709" lon="-3.08906">
        <ele>192.4</ele>
        <time>2023-04-10T06:41:24Z</time>
      </trkpt>
      <trkpt lat="48.09714" lon="-3.08912">
        <ele>192.4</ele>
        <time>2023-04-10T06:41:26Z</time>
      </trkpt>
      <trkpt lat="48.09726" lon="-3.0893">
        <ele>193</ele>
        <time>2023-04-10T06:41:31Z</time>
      </trkpt>
      <trkpt lat="48.09729" lon="-3.08934">
        <ele>193</ele>
        <time>2023-04-10T06:41:32Z</time>
      </trkpt>
      <trkpt lat="48.09736" lon="-3.08945">
        <ele>193.4</ele>
        <time>2023-04-10T06:41:35Z</time>
      </trkpt>
      <trkpt lat="48.09738" lon="-3.08948">
        <ele>193.6</ele>
        <time>2023-04-10T06:41:36Z</time>
      </trkpt>
      <trkpt lat="48.09759" lon="-3.08983">
        <ele>194.6</ele>
        <time>2023-04-10T06:41:45Z</time>
      </trkpt>
      <trkpt lat="48.09769" lon="-3.09003">
        <ele>195</ele>
        <time>2023-04-10T06:41:49Z</time>
      </trkpt>
      <trkpt lat="48.09771" lon="-3.09007">
        <ele>195.2</ele>
        <time>2023-04-10T06:41:50Z</time>
      </trkpt>
      <trkpt lat="48.09774" lon="-3.0901">
        <ele>195.2</ele>
        <time>2023-04-10T06:41:51Z</time>
      </trkpt>
      <trkpt lat="48.09777" lon="-3.09015">
        <ele>195.4</ele>
        <time>2023-04-10T06:41:52Z</time>
      </trkpt>
      <trkpt lat="48.0978" lon="-3.0902">
        <ele>195.4</ele>
        <time>2023-04-10T06:41:53Z</time>
      </trkpt>
      <trkpt lat="48.09782" lon="-3.09025">
        <ele>195.6</ele>
        <time>2023-04-10T06:41:54Z</time>
      </trkpt>
      <trkpt lat="48.09785" lon="-3.0903">
        <ele>195.8</ele>
        <time>2023-04-10T06:41:55Z</time>
      </trkpt>
      <trkpt lat="48.09788" lon="-3.09034">
        <ele>195.8</ele>
        <time>2023-04-10T06:41:56Z</time>
      </trkpt>
      <trkpt lat="48.0979" lon="-3.0904">
        <ele>196</ele>
        <time>2023-04-10T06:41:57Z</time>
      </trkpt>
      <trkpt lat="48.09795" lon="-3.09046">
        <ele>196</ele>
        <time>2023-04-10T06:41:58Z</time>
      </trkpt>
      <trkpt lat="48.09798" lon="-3.0905">
        <ele>196</ele>
        <time>2023-04-10T06:41:59Z</time>
      </trkpt>
      <trkpt lat="48.09801" lon="-3.09054">
        <ele>196.2</ele>
        <time>2023-04-10T06:42:00Z</time>
      </trkpt>
      <trkpt lat="48.09803" lon="-3.09058">
        <ele>196.2</ele>
        <time>2023-04-10T06:42:01Z</time>
      </trkpt>
      <trkpt lat="48.09806" lon="-3.09061">
        <ele>196.4</ele>
        <time>2023-04-10T06:42:02Z</time>
      </trkpt>
      <trkpt lat="48.09809" lon="-3.09066">
        <ele>196.4</ele>
        <time>2023-04-10T06:42:03Z</time>
      </trkpt>
      <trkpt lat="48.09812" lon="-3.09071">
        <ele>196.6</ele>
        <time>2023-04-10T06:42:04Z</time>
      </trkpt>
      <trkpt lat="48.09815" lon="-3.09075">
        <ele>196.6</ele>
        <time>2023-04-10T06:42:05Z</time>
      </trkpt>
      <trkpt lat="48.09819" lon="-3.09079">
        <ele>196.6</ele>
        <time>2023-04-10T06:42:06Z</time>
      </trkpt>
      <trkpt lat="48.09823" lon="-3.09084">
        <ele>196.6</ele>
        <time>2023-04-10T06:42:07Z</time>
      </trkpt>
      <trkpt lat="48.09825" lon="-3.09087">
        <ele>196.6</ele>
        <time>2023-04-10T06:42:08Z</time>
      </trkpt>
      <trkpt lat="48.09834" lon="-3.09103">
        <ele>196.8</ele>
        <time>2023-04-10T06:42:12Z</time>
      </trkpt>
      <trkpt lat="48.09836" lon="-3.09107">
        <ele>196.8</ele>
        <time>2023-04-10T06:42:13Z</time>
      </trkpt>
      <trkpt lat="48.0984" lon="-3.09114">
        <ele>196.8</ele>
        <time>2023-04-10T06:42:15Z</time>
      </trkpt>
      <trkpt lat="48.09849" lon="-3.09129">
        <ele>197</ele>
        <time>2023-04-10T06:42:19Z</time>
      </trkpt>
      <trkpt lat="48.09852" lon="-3.09133">
        <ele>197.2</ele>
        <time>2023-04-10T06:42:20Z</time>
      </trkpt>
      <trkpt lat="48.09858" lon="-3.09142">
        <ele>197.2</ele>
        <time>2023-04-10T06:42:22Z</time>
      </trkpt>
      <trkpt lat="48.09862" lon="-3.0915">
        <ele>197.4</ele>
        <time>2023-04-10T06:42:24Z</time>
      </trkpt>
      <trkpt lat="48.09865" lon="-3.09154">
        <ele>197.4</ele>
        <time>2023-04-10T06:42:25Z</time>
      </trkpt>
      <trkpt lat="48.09868" lon="-3.09158">
        <ele>197.4</ele>
        <time>2023-04-10T06:42:26Z</time>
      </trkpt>
      <trkpt lat="48.09885" lon="-3.09187">
        <ele>197.6</ele>
        <time>2023-04-10T06:42:32Z</time>
      </trkpt>
      <trkpt lat="48.09888" lon="-3.09193">
        <ele>197.8</ele>
        <time>2023-04-10T06:42:33Z</time>
      </trkpt>
      <trkpt lat="48.09894" lon="-3.09204">
        <ele>198</ele>
        <time>2023-04-10T06:42:35Z</time>
      </trkpt>
      <trkpt lat="48.09897" lon="-3.09209">
        <ele>198</ele>
        <time>2023-04-10T06:42:36Z</time>
      </trkpt>
      <trkpt lat="48.09902" lon="-3.09217">
        <ele>198.2</ele>
        <time>2023-04-10T06:42:38Z</time>
      </trkpt>
      <trkpt lat="48.09907" lon="-3.09227">
        <ele>198.2</ele>
        <time>2023-04-10T06:42:41Z</time>
      </trkpt>
      <trkpt lat="48.09915" lon="-3.09238">
        <ele>198.6</ele>
        <time>2023-04-10T06:42:44Z</time>
      </trkpt>
      <trkpt lat="48.09917" lon="-3.09242">
        <ele>198.8</ele>
        <time>2023-04-10T06:42:45Z</time>
      </trkpt>
      <trkpt lat="48.0992" lon="-3.09247">
        <ele>199</ele>
        <time>2023-04-10T06:42:46Z</time>
      </trkpt>
      <trkpt lat="48.09925" lon="-3.09254">
        <ele>199</ele>
        <time>2023-04-10T06:42:48Z</time>
      </trkpt>
      <trkpt lat="48.09928" lon="-3.09259">
        <ele>199</ele>
        <time>2023-04-10T06:42:49Z</time>
      </trkpt>
      <trkpt lat="48.0993" lon="-3.09264">
        <ele>199</ele>
        <time>2023-04-10T06:42:50Z</time>
      </trkpt>
      <trkpt lat="48.09933" lon="-3.09267">
        <ele>199.2</ele>
        <time>2023-04-10T06:42:51Z</time>
      </trkpt>
      <trkpt lat="48.0994" lon="-3.09279">
        <ele>199.4</ele>
        <time>2023-04-10T06:42:54Z</time>
      </trkpt>
      <trkpt lat="48.09943" lon="-3.09283">
        <ele>199.4</ele>
        <time>2023-04-10T06:42:55Z</time>
      </trkpt>
      <trkpt lat="48.09951" lon="-3.093">
        <ele>199.4</ele>
        <time>2023-04-10T06:42:59Z</time>
      </trkpt>
      <trkpt lat="48.09959" lon="-3.09316">
        <ele>199.6</ele>
        <time>2023-04-10T06:43:03Z</time>
      </trkpt>
      <trkpt lat="48.0996" lon="-3.0932">
        <ele>199.8</ele>
        <time>2023-04-10T06:43:04Z</time>
      </trkpt>
      <trkpt lat="48.09961" lon="-3.09322">
        <ele>199.8</ele>
        <time>2023-04-10T06:43:05Z</time>
      </trkpt>
      <trkpt lat="48.09963" lon="-3.09322">
        <ele>199.8</ele>
        <time>2023-04-10T06:43:06Z</time>
      </trkpt>
      <trkpt lat="48.09965" lon="-3.09321">
        <ele>200</ele>
        <time>2023-04-10T06:43:07Z</time>
      </trkpt>
      <trkpt lat="48.09965" lon="-3.09318">
        <ele>200</ele>
        <time>2023-04-10T06:43:08Z</time>
      </trkpt>
      <trkpt lat="48.09965" lon="-3.09308">
        <ele>200.2</ele>
        <time>2023-04-10T06:43:10Z</time>
      </trkpt>
      <trkpt lat="48.09963" lon="-3.09296">
        <ele>200.4</ele>
        <time>2023-04-10T06:43:12Z</time>
      </trkpt>
      <trkpt lat="48.09956" lon="-3.09251">
        <ele>200.6</ele>
        <time>2023-04-10T06:43:18Z</time>
      </trkpt>
      <trkpt lat="48.09954" lon="-3.09244">
        <ele>200.6</ele>
        <time>2023-04-10T06:43:19Z</time>
      </trkpt>
      <trkpt lat="48.09953" lon="-3.09236">
        <ele>200.6</ele>
        <time>2023-04-10T06:43:20Z</time>
      </trkpt>
      <trkpt lat="48.09952" lon="-3.09228">
        <ele>200.6</ele>
        <time>2023-04-10T06:43:21Z</time>
      </trkpt>
      <trkpt lat="48.0995" lon="-3.0922">
        <ele>200.6</ele>
        <time>2023-04-10T06:43:22Z</time>
      </trkpt>
      <trkpt lat="48.09949" lon="-3.09212">
        <ele>200.6</ele>
        <time>2023-04-10T06:43:23Z</time>
      </trkpt>
      <trkpt lat="48.09947" lon="-3.09204">
        <ele>200.6</ele>
        <time>2023-04-10T06:43:24Z</time>
      </trkpt>
      <trkpt lat="48.09946" lon="-3.09198">
        <ele>200.4</ele>
        <time>2023-04-10T06:43:25Z</time>
      </trkpt>
      <trkpt lat="48.09945" lon="-3.09183">
        <ele>200.2</ele>
        <time>2023-04-10T06:43:27Z</time>
      </trkpt>
      <trkpt lat="48.09944" lon="-3.09176">
        <ele>200.2</ele>
        <time>2023-04-10T06:43:28Z</time>
      </trkpt>
      <trkpt lat="48.09944" lon="-3.09169">
        <ele>200.2</ele>
        <time>2023-04-10T06:43:29Z</time>
      </trkpt>
      <trkpt lat="48.09944" lon="-3.09162">
        <ele>200.2</ele>
        <time>2023-04-10T06:43:30Z</time>
      </trkpt>
      <trkpt lat="48.09945" lon="-3.09153">
        <ele>200</ele>
        <time>2023-04-10T06:43:31Z</time>
      </trkpt>
      <trkpt lat="48.09949" lon="-3.09139">
        <ele>199.8</ele>
        <time>2023-04-10T06:43:33Z</time>
      </trkpt>
      <trkpt lat="48.09952" lon="-3.09133">
        <ele>199.8</ele>
        <time>2023-04-10T06:43:34Z</time>
      </trkpt>
      <trkpt lat="48.09955" lon="-3.09126">
        <ele>199.8</ele>
        <time>2023-04-10T06:43:35Z</time>
      </trkpt>
      <trkpt lat="48.09974" lon="-3.0909">
        <ele>199.4</ele>
        <time>2023-04-10T06:43:40Z</time>
      </trkpt>
      <trkpt lat="48.1" lon="-3.09044">
        <ele>199.2</ele>
        <time>2023-04-10T06:43:46Z</time>
      </trkpt>
      <trkpt lat="48.10009" lon="-3.09028">
        <ele>199</ele>
        <time>2023-04-10T06:43:48Z</time>
      </trkpt>
      <trkpt lat="48.10025" lon="-3.08996">
        <ele>198.8</ele>
        <time>2023-04-10T06:43:52Z</time>
      </trkpt>
      <trkpt lat="48.10034" lon="-3.08979">
        <ele>198.4</ele>
        <time>2023-04-10T06:43:54Z</time>
      </trkpt>
      <trkpt lat="48.10043" lon="-3.08961">
        <ele>198</ele>
        <time>2023-04-10T06:43:56Z</time>
      </trkpt>
      <trkpt lat="48.10058" lon="-3.08933">
        <ele>197.6</ele>
        <time>2023-04-10T06:43:59Z</time>
      </trkpt>
      <trkpt lat="48.1007" lon="-3.08914">
        <ele>197.2</ele>
        <time>2023-04-10T06:44:01Z</time>
      </trkpt>
      <trkpt lat="48.10092" lon="-3.08911">
        <ele>196.8</ele>
        <time>2023-04-10T06:44:03Z</time>
      </trkpt>
      <trkpt lat="48.101" lon="-3.08909">
        <ele>196.6</ele>
        <time>2023-04-10T06:44:04Z</time>
      </trkpt>
      <trkpt lat="48.10108" lon="-3.08907">
        <ele>196.2</ele>
        <time>2023-04-10T06:44:05Z</time>
      </trkpt>
      <trkpt lat="48.1012" lon="-3.08908">
        <ele>195.8</ele>
        <time>2023-04-10T06:44:06Z</time>
      </trkpt>
      <trkpt lat="48.10132" lon="-3.08908">
        <ele>195.4</ele>
        <time>2023-04-10T06:44:07Z</time>
      </trkpt>
      <trkpt lat="48.10155" lon="-3.08908">
        <ele>194.2</ele>
        <time>2023-04-10T06:44:09Z</time>
      </trkpt>
      <trkpt lat="48.10166" lon="-3.08907">
        <ele>193.8</ele>
        <time>2023-04-10T06:44:10Z</time>
      </trkpt>
      <trkpt lat="48.10178" lon="-3.08906">
        <ele>193</ele>
        <time>2023-04-10T06:44:11Z</time>
      </trkpt>
      <trkpt lat="48.10189" lon="-3.08905">
        <ele>192.4</ele>
        <time>2023-04-10T06:44:12Z</time>
      </trkpt>
      <trkpt lat="48.10201" lon="-3.08906">
        <ele>191.6</ele>
        <time>2023-04-10T06:44:13Z</time>
      </trkpt>
      <trkpt lat="48.10213" lon="-3.08907">
        <ele>190.6</ele>
        <time>2023-04-10T06:44:14Z</time>
      </trkpt>
      <trkpt lat="48.10224" lon="-3.0891">
        <ele>189.6</ele>
        <time>2023-04-10T06:44:15Z</time>
      </trkpt>
      <trkpt lat="48.10235" lon="-3.08913">
        <ele>188.4</ele>
        <time>2023-04-10T06:44:16Z</time>
      </trkpt>
      <trkpt lat="48.10246" lon="-3.08917">
        <ele>187.4</ele>
        <time>2023-04-10T06:44:17Z</time>
      </trkpt>
      <trkpt lat="48.10256" lon="-3.08921">
        <ele>186.6</ele>
        <time>2023-04-10T06:44:18Z</time>
      </trkpt>
      <trkpt lat="48.10277" lon="-3.08929">
        <ele>184.8</ele>
        <time>2023-04-10T06:44:20Z</time>
      </trkpt>
      <trkpt lat="48.10298" lon="-3.08938">
        <ele>183.6</ele>
        <time>2023-04-10T06:44:22Z</time>
      </trkpt>
      <trkpt lat="48.10309" lon="-3.08942">
        <ele>183</ele>
        <time>2023-04-10T06:44:23Z</time>
      </trkpt>
      <trkpt lat="48.1032" lon="-3.08946">
        <ele>182.4</ele>
        <time>2023-04-10T06:44:24Z</time>
      </trkpt>
      <trkpt lat="48.10331" lon="-3.08951">
        <ele>182.4</ele>
        <time>2023-04-10T06:44:25Z</time>
      </trkpt>
      <trkpt lat="48.10354" lon="-3.0896">
        <ele>180.8</ele>
        <time>2023-04-10T06:44:27Z</time>
      </trkpt>
      <trkpt lat="48.10378" lon="-3.08969">
        <ele>179.2</ele>
        <time>2023-04-10T06:44:29Z</time>
      </trkpt>
      <trkpt lat="48.10389" lon="-3.08972">
        <ele>178.6</ele>
        <time>2023-04-10T06:44:30Z</time>
      </trkpt>
      <trkpt lat="48.104" lon="-3.08976">
        <ele>178</ele>
        <time>2023-04-10T06:44:31Z</time>
      </trkpt>
      <trkpt lat="48.1041" lon="-3.08979">
        <ele>177</ele>
        <time>2023-04-10T06:44:32Z</time>
      </trkpt>
      <trkpt lat="48.10419" lon="-3.08982">
        <ele>176</ele>
        <time>2023-04-10T06:44:33Z</time>
      </trkpt>
      <trkpt lat="48.10426" lon="-3.08985">
        <ele>174.8</ele>
        <time>2023-04-10T06:44:34Z</time>
      </trkpt>
      <trkpt lat="48.10433" lon="-3.08985">
        <ele>173.8</ele>
        <time>2023-04-10T06:44:35Z</time>
      </trkpt>
      <trkpt lat="48.10438" lon="-3.08983">
        <ele>172.8</ele>
        <time>2023-04-10T06:44:36Z</time>
      </trkpt>
      <trkpt lat="48.10443" lon="-3.08977">
        <ele>171.8</ele>
        <time>2023-04-10T06:44:37Z</time>
      </trkpt>
      <trkpt lat="48.10446" lon="-3.08969">
        <ele>171</ele>
        <time>2023-04-10T06:44:38Z</time>
      </trkpt>
      <trkpt lat="48.10449" lon="-3.0896">
        <ele>170.2</ele>
        <time>2023-04-10T06:44:39Z</time>
      </trkpt>
      <trkpt lat="48.10451" lon="-3.08952">
        <ele>169.4</ele>
        <time>2023-04-10T06:44:40Z</time>
      </trkpt>
      <trkpt lat="48.10455" lon="-3.08941">
        <ele>168.6</ele>
        <time>2023-04-10T06:44:41Z</time>
      </trkpt>
      <trkpt lat="48.1046" lon="-3.08921">
        <ele>167</ele>
        <time>2023-04-10T06:44:43Z</time>
      </trkpt>
      <trkpt lat="48.10463" lon="-3.0891">
        <ele>166.4</ele>
        <time>2023-04-10T06:44:44Z</time>
      </trkpt>
      <trkpt lat="48.10467" lon="-3.08899">
        <ele>165.6</ele>
        <time>2023-04-10T06:44:45Z</time>
      </trkpt>
      <trkpt lat="48.1048" lon="-3.0885">
        <ele>164.4</ele>
        <time>2023-04-10T06:44:49Z</time>
      </trkpt>
      <trkpt lat="48.10487" lon="-3.08826">
        <ele>164</ele>
        <time>2023-04-10T06:44:51Z</time>
      </trkpt>
      <trkpt lat="48.105" lon="-3.08779">
        <ele>163.2</ele>
        <time>2023-04-10T06:44:55Z</time>
      </trkpt>
      <trkpt lat="48.10503" lon="-3.08768">
        <ele>162.8</ele>
        <time>2023-04-10T06:44:56Z</time>
      </trkpt>
      <trkpt lat="48.10507" lon="-3.08754">
        <ele>162.6</ele>
        <time>2023-04-10T06:44:57Z</time>
      </trkpt>
      <trkpt lat="48.1051" lon="-3.08743">
        <ele>162.2</ele>
        <time>2023-04-10T06:44:58Z</time>
      </trkpt>
      <trkpt lat="48.10514" lon="-3.08732">
        <ele>162</ele>
        <time>2023-04-10T06:44:59Z</time>
      </trkpt>
      <trkpt lat="48.10517" lon="-3.08721">
        <ele>161.8</ele>
        <time>2023-04-10T06:45:00Z</time>
      </trkpt>
      <trkpt lat="48.1052" lon="-3.0871">
        <ele>161.8</ele>
        <time>2023-04-10T06:45:01Z</time>
      </trkpt>
      <trkpt lat="48.10522" lon="-3.087">
        <ele>161.6</ele>
        <time>2023-04-10T06:45:02Z</time>
      </trkpt>
      <trkpt lat="48.10525" lon="-3.0869">
        <ele>161.6</ele>
        <time>2023-04-10T06:45:03Z</time>
      </trkpt>
      <trkpt lat="48.10529" lon="-3.0868">
        <ele>161.6</ele>
        <time>2023-04-10T06:45:04Z</time>
      </trkpt>
      <trkpt lat="48.10532" lon="-3.0867">
        <ele>161.6</ele>
        <time>2023-04-10T06:45:05Z</time>
      </trkpt>
      <trkpt lat="48.10535" lon="-3.0866">
        <ele>161.6</ele>
        <time>2023-04-10T06:45:06Z</time>
      </trkpt>
      <trkpt lat="48.10537" lon="-3.0865">
        <ele>161.6</ele>
        <time>2023-04-10T06:45:07Z</time>
      </trkpt>
      <trkpt lat="48.10549" lon="-3.08612">
        <ele>161.4</ele>
        <time>2023-04-10T06:45:11Z</time>
      </trkpt>
      <trkpt lat="48.10562" lon="-3.08571">
        <ele>161.4</ele>
        <time>2023-04-10T06:45:15Z</time>
      </trkpt>
      <trkpt lat="48.10569" lon="-3.08546">
        <ele>161.4</ele>
        <time>2023-04-10T06:45:17Z</time>
      </trkpt>
      <trkpt lat="48.10592" lon="-3.08467">
        <ele>160.8</ele>
        <time>2023-04-10T06:45:23Z</time>
      </trkpt>
      <trkpt lat="48.10605" lon="-3.08426">
        <ele>159.6</ele>
        <time>2023-04-10T06:45:26Z</time>
      </trkpt>
      <trkpt lat="48.10612" lon="-3.08398">
        <ele>158.4</ele>
        <time>2023-04-10T06:45:28Z</time>
      </trkpt>
      <trkpt lat="48.10617" lon="-3.08385">
        <ele>158</ele>
        <time>2023-04-10T06:45:29Z</time>
      </trkpt>
      <trkpt lat="48.10621" lon="-3.08371">
        <ele>157</ele>
        <time>2023-04-10T06:45:30Z</time>
      </trkpt>
      <trkpt lat="48.10626" lon="-3.08359">
        <ele>157</ele>
        <time>2023-04-10T06:45:31Z</time>
      </trkpt>
      <trkpt lat="48.1063" lon="-3.08346">
        <ele>156.2</ele>
        <time>2023-04-10T06:45:32Z</time>
      </trkpt>
      <trkpt lat="48.10633" lon="-3.08333">
        <ele>155.6</ele>
        <time>2023-04-10T06:45:33Z</time>
      </trkpt>
      <trkpt lat="48.10637" lon="-3.08321">
        <ele>155</ele>
        <time>2023-04-10T06:45:34Z</time>
      </trkpt>
      <trkpt lat="48.1064" lon="-3.08308">
        <ele>154.4</ele>
        <time>2023-04-10T06:45:35Z</time>
      </trkpt>
      <trkpt lat="48.10644" lon="-3.08296">
        <ele>153.8</ele>
        <time>2023-04-10T06:45:36Z</time>
      </trkpt>
      <trkpt lat="48.10647" lon="-3.08285">
        <ele>153.6</ele>
        <time>2023-04-10T06:45:37Z</time>
      </trkpt>
      <trkpt lat="48.10651" lon="-3.08273">
        <ele>153.2</ele>
        <time>2023-04-10T06:45:38Z</time>
      </trkpt>
      <trkpt lat="48.10654" lon="-3.08262">
        <ele>153</ele>
        <time>2023-04-10T06:45:39Z</time>
      </trkpt>
      <trkpt lat="48.10658" lon="-3.0825">
        <ele>152.8</ele>
        <time>2023-04-10T06:45:40Z</time>
      </trkpt>
      <trkpt lat="48.10661" lon="-3.08239">
        <ele>152.6</ele>
        <time>2023-04-10T06:45:41Z</time>
      </trkpt>
      <trkpt lat="48.10664" lon="-3.08229">
        <ele>152.4</ele>
        <time>2023-04-10T06:45:42Z</time>
      </trkpt>
      <trkpt lat="48.10667" lon="-3.08218">
        <ele>152.2</ele>
        <time>2023-04-10T06:45:43Z</time>
      </trkpt>
      <trkpt lat="48.10676" lon="-3.08186">
        <ele>152</ele>
        <time>2023-04-10T06:45:46Z</time>
      </trkpt>
      <trkpt lat="48.10686" lon="-3.08154">
        <ele>152</ele>
        <time>2023-04-10T06:45:49Z</time>
      </trkpt>
      <trkpt lat="48.10689" lon="-3.08144">
        <ele>152</ele>
        <time>2023-04-10T06:45:50Z</time>
      </trkpt>
      <trkpt lat="48.10696" lon="-3.08123">
        <ele>151.8</ele>
        <time>2023-04-10T06:45:52Z</time>
      </trkpt>
      <trkpt lat="48.10699" lon="-3.08113">
        <ele>151.8</ele>
        <time>2023-04-10T06:45:53Z</time>
      </trkpt>
      <trkpt lat="48.10701" lon="-3.08103">
        <ele>151.8</ele>
        <time>2023-04-10T06:45:54Z</time>
      </trkpt>
      <trkpt lat="48.10704" lon="-3.08093">
        <ele>151.8</ele>
        <time>2023-04-10T06:45:55Z</time>
      </trkpt>
      <trkpt lat="48.10707" lon="-3.08082">
        <ele>151.8</ele>
        <time>2023-04-10T06:45:56Z</time>
      </trkpt>
      <trkpt lat="48.10711" lon="-3.08073">
        <ele>151.8</ele>
        <time>2023-04-10T06:45:57Z</time>
      </trkpt>
      <trkpt lat="48.10714" lon="-3.08063">
        <ele>152</ele>
        <time>2023-04-10T06:45:58Z</time>
      </trkpt>
      <trkpt lat="48.10716" lon="-3.08053">
        <ele>152</ele>
        <time>2023-04-10T06:45:59Z</time>
      </trkpt>
      <trkpt lat="48.10719" lon="-3.08044">
        <ele>152</ele>
        <time>2023-04-10T06:46:00Z</time>
      </trkpt>
      <trkpt lat="48.10721" lon="-3.08034">
        <ele>152</ele>
        <time>2023-04-10T06:46:01Z</time>
      </trkpt>
      <trkpt lat="48.10723" lon="-3.08025">
        <ele>152</ele>
        <time>2023-04-10T06:46:02Z</time>
      </trkpt>
      <trkpt lat="48.10726" lon="-3.08016">
        <ele>152</ele>
        <time>2023-04-10T06:46:03Z</time>
      </trkpt>
      <trkpt lat="48.10729" lon="-3.08008">
        <ele>152</ele>
        <time>2023-04-10T06:46:04Z</time>
      </trkpt>
      <trkpt lat="48.10731" lon="-3.07999">
        <ele>152</ele>
        <time>2023-04-10T06:46:05Z</time>
      </trkpt>
      <trkpt lat="48.10737" lon="-3.07981">
        <ele>152.4</ele>
        <time>2023-04-10T06:46:07Z</time>
      </trkpt>
      <trkpt lat="48.10743" lon="-3.07954">
        <ele>152.8</ele>
        <time>2023-04-10T06:46:10Z</time>
      </trkpt>
      <trkpt lat="48.10743" lon="-3.07945">
        <ele>152.8</ele>
        <time>2023-04-10T06:46:11Z</time>
      </trkpt>
      <trkpt lat="48.10743" lon="-3.07936">
        <ele>153</ele>
        <time>2023-04-10T06:46:12Z</time>
      </trkpt>
      <trkpt lat="48.10742" lon="-3.07928">
        <ele>153</ele>
        <time>2023-04-10T06:46:13Z</time>
      </trkpt>
      <trkpt lat="48.10741" lon="-3.0792">
        <ele>153.2</ele>
        <time>2023-04-10T06:46:14Z</time>
      </trkpt>
      <trkpt lat="48.1074" lon="-3.07913">
        <ele>153.2</ele>
        <time>2023-04-10T06:46:15Z</time>
      </trkpt>
      <trkpt lat="48.10739" lon="-3.07906">
        <ele>153.2</ele>
        <time>2023-04-10T06:46:16Z</time>
      </trkpt>
      <trkpt lat="48.10738" lon="-3.07899">
        <ele>153.2</ele>
        <time>2023-04-10T06:46:17Z</time>
      </trkpt>
      <trkpt lat="48.10736" lon="-3.07892">
        <ele>153.2</ele>
        <time>2023-04-10T06:46:18Z</time>
      </trkpt>
      <trkpt lat="48.10735" lon="-3.07884">
        <ele>153.6</ele>
        <time>2023-04-10T06:46:19Z</time>
      </trkpt>
      <trkpt lat="48.10733" lon="-3.07877">
        <ele>153.8</ele>
        <time>2023-04-10T06:46:20Z</time>
      </trkpt>
      <trkpt lat="48.10732" lon="-3.0787">
        <ele>154.2</ele>
        <time>2023-04-10T06:46:21Z</time>
      </trkpt>
      <trkpt lat="48.10731" lon="-3.07863">
        <ele>154.4</ele>
        <time>2023-04-10T06:46:22Z</time>
      </trkpt>
      <trkpt lat="48.10728" lon="-3.0785">
        <ele>154.6</ele>
        <time>2023-04-10T06:46:24Z</time>
      </trkpt>
      <trkpt lat="48.10726" lon="-3.07836">
        <ele>155.4</ele>
        <time>2023-04-10T06:46:26Z</time>
      </trkpt>
      <trkpt lat="48.10727" lon="-3.0783">
        <ele>155.6</ele>
        <time>2023-04-10T06:46:27Z</time>
      </trkpt>
      <trkpt lat="48.10728" lon="-3.07823">
        <ele>156</ele>
        <time>2023-04-10T06:46:28Z</time>
      </trkpt>
      <trkpt lat="48.1073" lon="-3.07817">
        <ele>156.2</ele>
        <time>2023-04-10T06:46:29Z</time>
      </trkpt>
      <trkpt lat="48.10733" lon="-3.07811">
        <ele>156.4</ele>
        <time>2023-04-10T06:46:30Z</time>
      </trkpt>
      <trkpt lat="48.10737" lon="-3.07806">
        <ele>156.6</ele>
        <time>2023-04-10T06:46:31Z</time>
      </trkpt>
      <trkpt lat="48.10741" lon="-3.07801">
        <ele>156.6</ele>
        <time>2023-04-10T06:46:32Z</time>
      </trkpt>
      <trkpt lat="48.10746" lon="-3.07797">
        <ele>156.6</ele>
        <time>2023-04-10T06:46:33Z</time>
      </trkpt>
      <trkpt lat="48.10751" lon="-3.07793">
        <ele>156.6</ele>
        <time>2023-04-10T06:46:34Z</time>
      </trkpt>
      <trkpt lat="48.10757" lon="-3.07789">
        <ele>156.6</ele>
        <time>2023-04-10T06:46:35Z</time>
      </trkpt>
      <trkpt lat="48.10763" lon="-3.07785">
        <ele>156.6</ele>
        <time>2023-04-10T06:46:36Z</time>
      </trkpt>
      <trkpt lat="48.10768" lon="-3.07781">
        <ele>156.6</ele>
        <time>2023-04-10T06:46:37Z</time>
      </trkpt>
      <trkpt lat="48.10774" lon="-3.07776">
        <ele>156.6</ele>
        <time>2023-04-10T06:46:38Z</time>
      </trkpt>
      <trkpt lat="48.10781" lon="-3.07771">
        <ele>156.6</ele>
        <time>2023-04-10T06:46:39Z</time>
      </trkpt>
      <trkpt lat="48.10787" lon="-3.07766">
        <ele>156.6</ele>
        <time>2023-04-10T06:46:40Z</time>
      </trkpt>
      <trkpt lat="48.10792" lon="-3.07762">
        <ele>156.6</ele>
        <time>2023-04-10T06:46:41Z</time>
      </trkpt>
      <trkpt lat="48.10798" lon="-3.07757">
        <ele>156.6</ele>
        <time>2023-04-10T06:46:42Z</time>
      </trkpt>
      <trkpt lat="48.10803" lon="-3.07752">
        <ele>156.6</ele>
        <time>2023-04-10T06:46:43Z</time>
      </trkpt>
      <trkpt lat="48.10809" lon="-3.07748">
        <ele>156.6</ele>
        <time>2023-04-10T06:46:44Z</time>
      </trkpt>
      <trkpt lat="48.10814" lon="-3.07743">
        <ele>156.6</ele>
        <time>2023-04-10T06:46:45Z</time>
      </trkpt>
      <trkpt lat="48.10821" lon="-3.07738">
        <ele>156.6</ele>
        <time>2023-04-10T06:46:46Z</time>
      </trkpt>
      <trkpt lat="48.10826" lon="-3.07733">
        <ele>156.4</ele>
        <time>2023-04-10T06:46:47Z</time>
      </trkpt>
      <trkpt lat="48.10838" lon="-3.07723">
        <ele>156.4</ele>
        <time>2023-04-10T06:46:49Z</time>
      </trkpt>
      <trkpt lat="48.10844" lon="-3.07718">
        <ele>156.4</ele>
        <time>2023-04-10T06:46:50Z</time>
      </trkpt>
      <trkpt lat="48.10849" lon="-3.07713">
        <ele>156.4</ele>
        <time>2023-04-10T06:46:51Z</time>
      </trkpt>
      <trkpt lat="48.10854" lon="-3.07709">
        <ele>156.4</ele>
        <time>2023-04-10T06:46:52Z</time>
      </trkpt>
      <trkpt lat="48.10859" lon="-3.07705">
        <ele>156.4</ele>
        <time>2023-04-10T06:46:53Z</time>
      </trkpt>
      <trkpt lat="48.10864" lon="-3.077">
        <ele>156.4</ele>
        <time>2023-04-10T06:46:54Z</time>
      </trkpt>
      <trkpt lat="48.10868" lon="-3.07696">
        <ele>156.6</ele>
        <time>2023-04-10T06:46:55Z</time>
      </trkpt>
      <trkpt lat="48.10873" lon="-3.07691">
        <ele>156.6</ele>
        <time>2023-04-10T06:46:56Z</time>
      </trkpt>
      <trkpt lat="48.10878" lon="-3.07685">
        <ele>156.6</ele>
        <time>2023-04-10T06:46:57Z</time>
      </trkpt>
      <trkpt lat="48.10884" lon="-3.0768">
        <ele>156.6</ele>
        <time>2023-04-10T06:46:58Z</time>
      </trkpt>
      <trkpt lat="48.10888" lon="-3.07675">
        <ele>156.6</ele>
        <time>2023-04-10T06:46:59Z</time>
      </trkpt>
      <trkpt lat="48.10893" lon="-3.07669">
        <ele>156.6</ele>
        <time>2023-04-10T06:47:00Z</time>
      </trkpt>
      <trkpt lat="48.10898" lon="-3.07663">
        <ele>156.8</ele>
        <time>2023-04-10T06:47:01Z</time>
      </trkpt>
      <trkpt lat="48.10902" lon="-3.07657">
        <ele>156.8</ele>
        <time>2023-04-10T06:47:02Z</time>
      </trkpt>
      <trkpt lat="48.10906" lon="-3.07652">
        <ele>157</ele>
        <time>2023-04-10T06:47:03Z</time>
      </trkpt>
      <trkpt lat="48.1093" lon="-3.07616">
        <ele>158.2</ele>
        <time>2023-04-10T06:47:09Z</time>
      </trkpt>
      <trkpt lat="48.10933" lon="-3.0761">
        <ele>158.6</ele>
        <time>2023-04-10T06:47:10Z</time>
      </trkpt>
      <trkpt lat="48.10953" lon="-3.07573">
        <ele>159.2</ele>
        <time>2023-04-10T06:47:15Z</time>
      </trkpt>
      <trkpt lat="48.10969" lon="-3.07537">
        <ele>159.2</ele>
        <time>2023-04-10T06:47:19Z</time>
      </trkpt>
      <trkpt lat="48.10973" lon="-3.07528">
        <ele>159.2</ele>
        <time>2023-04-10T06:47:20Z</time>
      </trkpt>
      <trkpt lat="48.10978" lon="-3.07519">
        <ele>159.2</ele>
        <time>2023-04-10T06:47:21Z</time>
      </trkpt>
      <trkpt lat="48.10983" lon="-3.0751">
        <ele>159.2</ele>
        <time>2023-04-10T06:47:22Z</time>
      </trkpt>
      <trkpt lat="48.11004" lon="-3.07473">
        <ele>159.2</ele>
        <time>2023-04-10T06:47:26Z</time>
      </trkpt>
      <trkpt lat="48.11015" lon="-3.07454">
        <ele>158.4</ele>
        <time>2023-04-10T06:47:28Z</time>
      </trkpt>
      <trkpt lat="48.11021" lon="-3.07445">
        <ele>158.2</ele>
        <time>2023-04-10T06:47:29Z</time>
      </trkpt>
      <trkpt lat="48.11026" lon="-3.07435">
        <ele>158</ele>
        <time>2023-04-10T06:47:30Z</time>
      </trkpt>
      <trkpt lat="48.11031" lon="-3.07425">
        <ele>157.4</ele>
        <time>2023-04-10T06:47:31Z</time>
      </trkpt>
      <trkpt lat="48.11036" lon="-3.07415">
        <ele>157</ele>
        <time>2023-04-10T06:47:32Z</time>
      </trkpt>
      <trkpt lat="48.11041" lon="-3.07405">
        <ele>156.6</ele>
        <time>2023-04-10T06:47:33Z</time>
      </trkpt>
      <trkpt lat="48.11045" lon="-3.07396">
        <ele>156.4</ele>
        <time>2023-04-10T06:47:34Z</time>
      </trkpt>
      <trkpt lat="48.11053" lon="-3.07377">
        <ele>156</ele>
        <time>2023-04-10T06:47:36Z</time>
      </trkpt>
      <trkpt lat="48.1107" lon="-3.07338">
        <ele>155</ele>
        <time>2023-04-10T06:47:40Z</time>
      </trkpt>
      <trkpt lat="48.11097" lon="-3.07282">
        <ele>154</ele>
        <time>2023-04-10T06:47:46Z</time>
      </trkpt>
      <trkpt lat="48.11102" lon="-3.07274">
        <ele>153.8</ele>
        <time>2023-04-10T06:47:47Z</time>
      </trkpt>
      <trkpt lat="48.11106" lon="-3.07265">
        <ele>153.8</ele>
        <time>2023-04-10T06:47:48Z</time>
      </trkpt>
      <trkpt lat="48.11111" lon="-3.07258">
        <ele>153.6</ele>
        <time>2023-04-10T06:47:49Z</time>
      </trkpt>
      <trkpt lat="48.11116" lon="-3.0725">
        <ele>153.6</ele>
        <time>2023-04-10T06:47:50Z</time>
      </trkpt>
      <trkpt lat="48.11121" lon="-3.07243">
        <ele>153.6</ele>
        <time>2023-04-10T06:47:51Z</time>
      </trkpt>
      <trkpt lat="48.11126" lon="-3.07235">
        <ele>153.6</ele>
        <time>2023-04-10T06:47:52Z</time>
      </trkpt>
      <trkpt lat="48.11131" lon="-3.07228">
        <ele>153.6</ele>
        <time>2023-04-10T06:47:53Z</time>
      </trkpt>
      <trkpt lat="48.11135" lon="-3.07221">
        <ele>153.4</ele>
        <time>2023-04-10T06:47:54Z</time>
      </trkpt>
      <trkpt lat="48.11145" lon="-3.07207">
        <ele>153.4</ele>
        <time>2023-04-10T06:47:56Z</time>
      </trkpt>
      <trkpt lat="48.11153" lon="-3.07192">
        <ele>153.4</ele>
        <time>2023-04-10T06:47:58Z</time>
      </trkpt>
      <trkpt lat="48.11164" lon="-3.07164">
        <ele>153.2</ele>
        <time>2023-04-10T06:48:01Z</time>
      </trkpt>
      <trkpt lat="48.11172" lon="-3.07144">
        <ele>152.8</ele>
        <time>2023-04-10T06:48:03Z</time>
      </trkpt>
      <trkpt lat="48.11184" lon="-3.07112">
        <ele>152.6</ele>
        <time>2023-04-10T06:48:06Z</time>
      </trkpt>
      <trkpt lat="48.11202" lon="-3.07067">
        <ele>151.8</ele>
        <time>2023-04-10T06:48:10Z</time>
      </trkpt>
      <trkpt lat="48.11212" lon="-3.07043">
        <ele>151.4</ele>
        <time>2023-04-10T06:48:12Z</time>
      </trkpt>
      <trkpt lat="48.11223" lon="-3.07018">
        <ele>150.6</ele>
        <time>2023-04-10T06:48:14Z</time>
      </trkpt>
      <trkpt lat="48.1124" lon="-3.06981">
        <ele>149.6</ele>
        <time>2023-04-10T06:48:17Z</time>
      </trkpt>
      <trkpt lat="48.11246" lon="-3.06969">
        <ele>149</ele>
        <time>2023-04-10T06:48:18Z</time>
      </trkpt>
      <trkpt lat="48.11252" lon="-3.06957">
        <ele>148.8</ele>
        <time>2023-04-10T06:48:19Z</time>
      </trkpt>
      <trkpt lat="48.11257" lon="-3.06945">
        <ele>148.2</ele>
        <time>2023-04-10T06:48:20Z</time>
      </trkpt>
      <trkpt lat="48.11262" lon="-3.06932">
        <ele>147.8</ele>
        <time>2023-04-10T06:48:21Z</time>
      </trkpt>
      <trkpt lat="48.11266" lon="-3.06919">
        <ele>147.2</ele>
        <time>2023-04-10T06:48:22Z</time>
      </trkpt>
      <trkpt lat="48.11269" lon="-3.06906">
        <ele>146.6</ele>
        <time>2023-04-10T06:48:23Z</time>
      </trkpt>
      <trkpt lat="48.11269" lon="-3.06892">
        <ele>146.2</ele>
        <time>2023-04-10T06:48:24Z</time>
      </trkpt>
      <trkpt lat="48.1127" lon="-3.06879">
        <ele>145.8</ele>
        <time>2023-04-10T06:48:25Z</time>
      </trkpt>
      <trkpt lat="48.1127" lon="-3.06866">
        <ele>145.8</ele>
        <time>2023-04-10T06:48:26Z</time>
      </trkpt>
      <trkpt lat="48.1127" lon="-3.06853">
        <ele>145.2</ele>
        <time>2023-04-10T06:48:27Z</time>
      </trkpt>
      <trkpt lat="48.11272" lon="-3.06841">
        <ele>144.8</ele>
        <time>2023-04-10T06:48:28Z</time>
      </trkpt>
      <trkpt lat="48.11274" lon="-3.0683">
        <ele>144</ele>
        <time>2023-04-10T06:48:29Z</time>
      </trkpt>
      <trkpt lat="48.11277" lon="-3.06821">
        <ele>143.4</ele>
        <time>2023-04-10T06:48:30Z</time>
      </trkpt>
      <trkpt lat="48.11281" lon="-3.06812">
        <ele>143</ele>
        <time>2023-04-10T06:48:31Z</time>
      </trkpt>
      <trkpt lat="48.11286" lon="-3.06805">
        <ele>142.4</ele>
        <time>2023-04-10T06:48:32Z</time>
      </trkpt>
      <trkpt lat="48.11291" lon="-3.068">
        <ele>142</ele>
        <time>2023-04-10T06:48:33Z</time>
      </trkpt>
      <trkpt lat="48.11298" lon="-3.06798">
        <ele>141.6</ele>
        <time>2023-04-10T06:48:34Z</time>
      </trkpt>
      <trkpt lat="48.11304" lon="-3.06799">
        <ele>141</ele>
        <time>2023-04-10T06:48:35Z</time>
      </trkpt>
      <trkpt lat="48.11312" lon="-3.06802">
        <ele>140.6</ele>
        <time>2023-04-10T06:48:36Z</time>
      </trkpt>
      <trkpt lat="48.11321" lon="-3.06806">
        <ele>140</ele>
        <time>2023-04-10T06:48:37Z</time>
      </trkpt>
      <trkpt lat="48.1133" lon="-3.06807">
        <ele>139.4</ele>
        <time>2023-04-10T06:48:38Z</time>
      </trkpt>
      <trkpt lat="48.11339" lon="-3.06805">
        <ele>139</ele>
        <time>2023-04-10T06:48:39Z</time>
      </trkpt>
      <trkpt lat="48.11345" lon="-3.06799">
        <ele>138.6</ele>
        <time>2023-04-10T06:48:40Z</time>
      </trkpt>
      <trkpt lat="48.11359" lon="-3.06783">
        <ele>137.6</ele>
        <time>2023-04-10T06:48:42Z</time>
      </trkpt>
      <trkpt lat="48.11365" lon="-3.06775">
        <ele>137</ele>
        <time>2023-04-10T06:48:43Z</time>
      </trkpt>
      <trkpt lat="48.11372" lon="-3.06767">
        <ele>136.6</ele>
        <time>2023-04-10T06:48:44Z</time>
      </trkpt>
      <trkpt lat="48.11378" lon="-3.06759">
        <ele>136</ele>
        <time>2023-04-10T06:48:45Z</time>
      </trkpt>
      <trkpt lat="48.11384" lon="-3.06753">
        <ele>135.2</ele>
        <time>2023-04-10T06:48:46Z</time>
      </trkpt>
      <trkpt lat="48.11389" lon="-3.06747">
        <ele>134.6</ele>
        <time>2023-04-10T06:48:47Z</time>
      </trkpt>
      <trkpt lat="48.11394" lon="-3.0674">
        <ele>134.6</ele>
        <time>2023-04-10T06:48:48Z</time>
      </trkpt>
      <trkpt lat="48.11399" lon="-3.06734">
        <ele>134</ele>
        <time>2023-04-10T06:48:49Z</time>
      </trkpt>
      <trkpt lat="48.11403" lon="-3.06729">
        <ele>133.8</ele>
        <time>2023-04-10T06:48:50Z</time>
      </trkpt>
      <trkpt lat="48.11405" lon="-3.06725">
        <ele>133.6</ele>
        <time>2023-04-10T06:48:51Z</time>
      </trkpt>
      <trkpt lat="48.11407" lon="-3.06724">
        <ele>133.4</ele>
        <time>2023-04-10T06:48:52Z</time>
      </trkpt>
      <trkpt lat="48.11407" lon="-3.06727">
        <ele>133.4</ele>
        <time>2023-04-10T06:48:53Z</time>
      </trkpt>
      <trkpt lat="48.11406" lon="-3.06729">
        <ele>133.2</ele>
        <time>2023-04-10T06:48:54Z</time>
      </trkpt>
      <trkpt lat="48.11404" lon="-3.06732">
        <ele>133</ele>
        <time>2023-04-10T06:48:55Z</time>
      </trkpt>
      <trkpt lat="48.11394" lon="-3.06742">
        <ele>132.8</ele>
        <time>2023-04-10T06:48:58Z</time>
      </trkpt>
      <trkpt lat="48.11386" lon="-3.06753">
        <ele>132.8</ele>
        <time>2023-04-10T06:49:00Z</time>
      </trkpt>
      <trkpt lat="48.11381" lon="-3.06761">
        <ele>132.8</ele>
        <time>2023-04-10T06:49:01Z</time>
      </trkpt>
      <trkpt lat="48.11376" lon="-3.06768">
        <ele>132.8</ele>
        <time>2023-04-10T06:49:02Z</time>
      </trkpt>
      <trkpt lat="48.11372" lon="-3.06774">
        <ele>132.6</ele>
        <time>2023-04-10T06:49:03Z</time>
      </trkpt>
      <trkpt lat="48.11368" lon="-3.06778">
        <ele>132.6</ele>
        <time>2023-04-10T06:49:04Z</time>
      </trkpt>
      <trkpt lat="48.11367" lon="-3.0678">
        <ele>132.6</ele>
        <time>2023-04-10T06:49:05Z</time>
      </trkpt>
      <trkpt lat="48.11368" lon="-3.06783">
        <ele>132.6</ele>
        <time>2023-04-10T06:49:06Z</time>
      </trkpt>
      <trkpt lat="48.11371" lon="-3.06786">
        <ele>132.6</ele>
        <time>2023-04-10T06:49:07Z</time>
      </trkpt>
      <trkpt lat="48.11385" lon="-3.06801">
        <ele>132.4</ele>
        <time>2023-04-10T06:49:10Z</time>
      </trkpt>
      <trkpt lat="48.11389" lon="-3.06807">
        <ele>132.4</ele>
        <time>2023-04-10T06:49:11Z</time>
      </trkpt>
      <trkpt lat="48.11406" lon="-3.06829">
        <ele>132.2</ele>
        <time>2023-04-10T06:49:14Z</time>
      </trkpt>
      <trkpt lat="48.11417" lon="-3.06846">
        <ele>131.8</ele>
        <time>2023-04-10T06:49:16Z</time>
      </trkpt>
      <trkpt lat="48.11426" lon="-3.06867">
        <ele>131.4</ele>
        <time>2023-04-10T06:49:18Z</time>
      </trkpt>
      <trkpt lat="48.1143" lon="-3.0688">
        <ele>131.2</ele>
        <time>2023-04-10T06:49:19Z</time>
      </trkpt>
      <trkpt lat="48.1144" lon="-3.06906">
        <ele>130.4</ele>
        <time>2023-04-10T06:49:21Z</time>
      </trkpt>
      <trkpt lat="48.11446" lon="-3.06917">
        <ele>129.8</ele>
        <time>2023-04-10T06:49:22Z</time>
      </trkpt>
      <trkpt lat="48.11453" lon="-3.06926">
        <ele>129.6</ele>
        <time>2023-04-10T06:49:23Z</time>
      </trkpt>
      <trkpt lat="48.1146" lon="-3.06933">
        <ele>129.2</ele>
        <time>2023-04-10T06:49:24Z</time>
      </trkpt>
      <trkpt lat="48.11467" lon="-3.06936">
        <ele>128.6</ele>
        <time>2023-04-10T06:49:25Z</time>
      </trkpt>
      <trkpt lat="48.11475" lon="-3.06934">
        <ele>128</ele>
        <time>2023-04-10T06:49:26Z</time>
      </trkpt>
      <trkpt lat="48.11482" lon="-3.0693">
        <ele>127.4</ele>
        <time>2023-04-10T06:49:27Z</time>
      </trkpt>
      <trkpt lat="48.11488" lon="-3.06924">
        <ele>126.8</ele>
        <time>2023-04-10T06:49:28Z</time>
      </trkpt>
      <trkpt lat="48.11494" lon="-3.06917">
        <ele>125.8</ele>
        <time>2023-04-10T06:49:29Z</time>
      </trkpt>
      <trkpt lat="48.11499" lon="-3.0691">
        <ele>124.4</ele>
        <time>2023-04-10T06:49:30Z</time>
      </trkpt>
      <trkpt lat="48.11504" lon="-3.06903">
        <ele>123.2</ele>
        <time>2023-04-10T06:49:31Z</time>
      </trkpt>
      <trkpt lat="48.11509" lon="-3.06896">
        <ele>123.2</ele>
        <time>2023-04-10T06:49:32Z</time>
      </trkpt>
      <trkpt lat="48.11514" lon="-3.06889">
        <ele>122.2</ele>
        <time>2023-04-10T06:49:33Z</time>
      </trkpt>
      <trkpt lat="48.11519" lon="-3.06882">
        <ele>121</ele>
        <time>2023-04-10T06:49:34Z</time>
      </trkpt>
      <trkpt lat="48.11524" lon="-3.06875">
        <ele>119.8</ele>
        <time>2023-04-10T06:49:35Z</time>
      </trkpt>
      <trkpt lat="48.11528" lon="-3.06867">
        <ele>119.2</ele>
        <time>2023-04-10T06:49:36Z</time>
      </trkpt>
      <trkpt lat="48.11532" lon="-3.06858">
        <ele>118.6</ele>
        <time>2023-04-10T06:49:37Z</time>
      </trkpt>
      <trkpt lat="48.11535" lon="-3.06848">
        <ele>118.2</ele>
        <time>2023-04-10T06:49:38Z</time>
      </trkpt>
      <trkpt lat="48.11538" lon="-3.06837">
        <ele>117.8</ele>
        <time>2023-04-10T06:49:39Z</time>
      </trkpt>
      <trkpt lat="48.11544" lon="-3.06815">
        <ele>117.6</ele>
        <time>2023-04-10T06:49:41Z</time>
      </trkpt>
      <trkpt lat="48.11546" lon="-3.06804">
        <ele>117.2</ele>
        <time>2023-04-10T06:49:42Z</time>
      </trkpt>
      <trkpt lat="48.11546" lon="-3.06792">
        <ele>117</ele>
        <time>2023-04-10T06:49:43Z</time>
      </trkpt>
      <trkpt lat="48.11547" lon="-3.06781">
        <ele>116.6</ele>
        <time>2023-04-10T06:49:44Z</time>
      </trkpt>
      <trkpt lat="48.11547" lon="-3.06769">
        <ele>116.4</ele>
        <time>2023-04-10T06:49:45Z</time>
      </trkpt>
      <trkpt lat="48.11549" lon="-3.06725">
        <ele>115.8</ele>
        <time>2023-04-10T06:49:49Z</time>
      </trkpt>
      <trkpt lat="48.11549" lon="-3.06689">
        <ele>115.2</ele>
        <time>2023-04-10T06:49:52Z</time>
      </trkpt>
      <trkpt lat="48.11547" lon="-3.06677">
        <ele>115.2</ele>
        <time>2023-04-10T06:49:53Z</time>
      </trkpt>
      <trkpt lat="48.11545" lon="-3.06665">
        <ele>115.2</ele>
        <time>2023-04-10T06:49:54Z</time>
      </trkpt>
      <trkpt lat="48.11544" lon="-3.06654">
        <ele>115</ele>
        <time>2023-04-10T06:49:55Z</time>
      </trkpt>
      <trkpt lat="48.11543" lon="-3.06643">
        <ele>114.8</ele>
        <time>2023-04-10T06:49:56Z</time>
      </trkpt>
      <trkpt lat="48.11541" lon="-3.06633">
        <ele>114.8</ele>
        <time>2023-04-10T06:49:57Z</time>
      </trkpt>
      <trkpt lat="48.1154" lon="-3.06622">
        <ele>114.8</ele>
        <time>2023-04-10T06:49:58Z</time>
      </trkpt>
      <trkpt lat="48.11539" lon="-3.06612">
        <ele>114.8</ele>
        <time>2023-04-10T06:49:59Z</time>
      </trkpt>
      <trkpt lat="48.11532" lon="-3.06562">
        <ele>114.6</ele>
        <time>2023-04-10T06:50:04Z</time>
      </trkpt>
      <trkpt lat="48.11531" lon="-3.06552">
        <ele>114.6</ele>
        <time>2023-04-10T06:50:05Z</time>
      </trkpt>
      <trkpt lat="48.11531" lon="-3.06543">
        <ele>114.8</ele>
        <time>2023-04-10T06:50:06Z</time>
      </trkpt>
      <trkpt lat="48.11531" lon="-3.06534">
        <ele>114.8</ele>
        <time>2023-04-10T06:50:07Z</time>
      </trkpt>
      <trkpt lat="48.11531" lon="-3.06525">
        <ele>114.8</ele>
        <time>2023-04-10T06:50:08Z</time>
      </trkpt>
      <trkpt lat="48.11532" lon="-3.06517">
        <ele>114.8</ele>
        <time>2023-04-10T06:50:09Z</time>
      </trkpt>
      <trkpt lat="48.11532" lon="-3.06508">
        <ele>114.8</ele>
        <time>2023-04-10T06:50:10Z</time>
      </trkpt>
      <trkpt lat="48.11533" lon="-3.065">
        <ele>114.8</ele>
        <time>2023-04-10T06:50:11Z</time>
      </trkpt>
      <trkpt lat="48.11535" lon="-3.06493">
        <ele>114.8</ele>
        <time>2023-04-10T06:50:12Z</time>
      </trkpt>
      <trkpt lat="48.11537" lon="-3.06485">
        <ele>114.8</ele>
        <time>2023-04-10T06:50:13Z</time>
      </trkpt>
      <trkpt lat="48.11539" lon="-3.0648">
        <ele>114.8</ele>
        <time>2023-04-10T06:50:14Z</time>
      </trkpt>
      <trkpt lat="48.11544" lon="-3.06477">
        <ele>114.8</ele>
        <time>2023-04-10T06:50:15Z</time>
      </trkpt>
      <trkpt lat="48.1156" lon="-3.06489">
        <ele>114.8</ele>
        <time>2023-04-10T06:50:18Z</time>
      </trkpt>
      <trkpt lat="48.11566" lon="-3.06493">
        <ele>114.8</ele>
        <time>2023-04-10T06:50:19Z</time>
      </trkpt>
      <trkpt lat="48.11571" lon="-3.06497">
        <ele>114.8</ele>
        <time>2023-04-10T06:50:20Z</time>
      </trkpt>
      <trkpt lat="48.11577" lon="-3.06501">
        <ele>114.6</ele>
        <time>2023-04-10T06:50:21Z</time>
      </trkpt>
      <trkpt lat="48.11596" lon="-3.06517">
        <ele>114.2</ele>
        <time>2023-04-10T06:50:24Z</time>
      </trkpt>
      <trkpt lat="48.1161" lon="-3.06527">
        <ele>113.8</ele>
        <time>2023-04-10T06:50:26Z</time>
      </trkpt>
      <trkpt lat="48.11616" lon="-3.06531">
        <ele>113.2</ele>
        <time>2023-04-10T06:50:27Z</time>
      </trkpt>
      <trkpt lat="48.11622" lon="-3.06535">
        <ele>112.8</ele>
        <time>2023-04-10T06:50:28Z</time>
      </trkpt>
      <trkpt lat="48.11627" lon="-3.06539">
        <ele>112.4</ele>
        <time>2023-04-10T06:50:29Z</time>
      </trkpt>
      <trkpt lat="48.11633" lon="-3.06544">
        <ele>112</ele>
        <time>2023-04-10T06:50:30Z</time>
      </trkpt>
      <trkpt lat="48.11639" lon="-3.06549">
        <ele>111.8</ele>
        <time>2023-04-10T06:50:31Z</time>
      </trkpt>
      <trkpt lat="48.11645" lon="-3.06554">
        <ele>111.6</ele>
        <time>2023-04-10T06:50:32Z</time>
      </trkpt>
      <trkpt lat="48.1165" lon="-3.06559">
        <ele>111.4</ele>
        <time>2023-04-10T06:50:33Z</time>
      </trkpt>
      <trkpt lat="48.11655" lon="-3.06564">
        <ele>111.4</ele>
        <time>2023-04-10T06:50:34Z</time>
      </trkpt>
      <trkpt lat="48.1166" lon="-3.06567">
        <ele>111.4</ele>
        <time>2023-04-10T06:50:35Z</time>
      </trkpt>
      <trkpt lat="48.11665" lon="-3.0657">
        <ele>111.4</ele>
        <time>2023-04-10T06:50:36Z</time>
      </trkpt>
      <trkpt lat="48.11669" lon="-3.06573">
        <ele>111.4</ele>
        <time>2023-04-10T06:50:37Z</time>
      </trkpt>
      <trkpt lat="48.11673" lon="-3.06577">
        <ele>111.4</ele>
        <time>2023-04-10T06:50:38Z</time>
      </trkpt>
      <trkpt lat="48.11677" lon="-3.06582">
        <ele>111.4</ele>
        <time>2023-04-10T06:50:39Z</time>
      </trkpt>
      <trkpt lat="48.1168" lon="-3.06588">
        <ele>111.4</ele>
        <time>2023-04-10T06:50:40Z</time>
      </trkpt>
      <trkpt lat="48.11683" lon="-3.06594">
        <ele>111.4</ele>
        <time>2023-04-10T06:50:41Z</time>
      </trkpt>
      <trkpt lat="48.11685" lon="-3.06601">
        <ele>111.4</ele>
        <time>2023-04-10T06:50:42Z</time>
      </trkpt>
      <trkpt lat="48.11692" lon="-3.06631">
        <ele>112.2</ele>
        <time>2023-04-10T06:50:46Z</time>
      </trkpt>
      <trkpt lat="48.11698" lon="-3.06646">
        <ele>112.8</ele>
        <time>2023-04-10T06:50:48Z</time>
      </trkpt>
      <trkpt lat="48.117" lon="-3.06653">
        <ele>113</ele>
        <time>2023-04-10T06:50:49Z</time>
      </trkpt>
      <trkpt lat="48.11702" lon="-3.06661">
        <ele>113</ele>
        <time>2023-04-10T06:50:50Z</time>
      </trkpt>
      <trkpt lat="48.11704" lon="-3.06666">
        <ele>113.2</ele>
        <time>2023-04-10T06:50:51Z</time>
      </trkpt>
      <trkpt lat="48.11705" lon="-3.06675">
        <ele>113.2</ele>
        <time>2023-04-10T06:50:52Z</time>
      </trkpt>
      <trkpt lat="48.11707" lon="-3.06682">
        <ele>113.2</ele>
        <time>2023-04-10T06:50:53Z</time>
      </trkpt>
      <trkpt lat="48.11707" lon="-3.0669">
        <ele>113.4</ele>
        <time>2023-04-10T06:50:54Z</time>
      </trkpt>
      <trkpt lat="48.11708" lon="-3.06697">
        <ele>113.6</ele>
        <time>2023-04-10T06:50:55Z</time>
      </trkpt>
      <trkpt lat="48.11708" lon="-3.06703">
        <ele>113.6</ele>
        <time>2023-04-10T06:50:56Z</time>
      </trkpt>
      <trkpt lat="48.11708" lon="-3.06717">
        <ele>113.6</ele>
        <time>2023-04-10T06:50:58Z</time>
      </trkpt>
      <trkpt lat="48.11706" lon="-3.06724">
        <ele>113.6</ele>
        <time>2023-04-10T06:50:59Z</time>
      </trkpt>
      <trkpt lat="48.11706" lon="-3.0673">
        <ele>113.6</ele>
        <time>2023-04-10T06:51:00Z</time>
      </trkpt>
      <trkpt lat="48.11706" lon="-3.06735">
        <ele>113.4</ele>
        <time>2023-04-10T06:51:01Z</time>
      </trkpt>
      <trkpt lat="48.11708" lon="-3.06738">
        <ele>113.4</ele>
        <time>2023-04-10T06:51:02Z</time>
      </trkpt>
      <trkpt lat="48.1171" lon="-3.06739">
        <ele>113.4</ele>
        <time>2023-04-10T06:51:03Z</time>
      </trkpt>
      <trkpt lat="48.11713" lon="-3.06739">
        <ele>113.4</ele>
        <time>2023-04-10T06:51:04Z</time>
      </trkpt>
      <trkpt lat="48.11716" lon="-3.06739">
        <ele>113.2</ele>
        <time>2023-04-10T06:51:05Z</time>
      </trkpt>
      <trkpt lat="48.11719" lon="-3.06739">
        <ele>113.2</ele>
        <time>2023-04-10T06:51:06Z</time>
      </trkpt>
      <trkpt lat="48.11722" lon="-3.0674">
        <ele>113.2</ele>
        <time>2023-04-10T06:51:07Z</time>
      </trkpt>
      <trkpt lat="48.11725" lon="-3.06742">
        <ele>113</ele>
        <time>2023-04-10T06:51:08Z</time>
      </trkpt>
      <trkpt lat="48.11727" lon="-3.06745">
        <ele>113</ele>
        <time>2023-04-10T06:51:09Z</time>
      </trkpt>
      <trkpt lat="48.11729" lon="-3.06749">
        <ele>113.2</ele>
        <time>2023-04-10T06:51:10Z</time>
      </trkpt>
      <trkpt lat="48.11731" lon="-3.06753">
        <ele>113</ele>
        <time>2023-04-10T06:51:11Z</time>
      </trkpt>
      <trkpt lat="48.11733" lon="-3.06757">
        <ele>113</ele>
        <time>2023-04-10T06:51:12Z</time>
      </trkpt>
      <trkpt lat="48.11738" lon="-3.06763">
        <ele>113</ele>
        <time>2023-04-10T06:51:14Z</time>
      </trkpt>
      <trkpt lat="48.11742" lon="-3.06765">
        <ele>113</ele>
        <time>2023-04-10T06:51:15Z</time>
      </trkpt>
      <trkpt lat="48.11745" lon="-3.06767">
        <ele>113.2</ele>
        <time>2023-04-10T06:51:16Z</time>
      </trkpt>
      <trkpt lat="48.11748" lon="-3.06768">
        <ele>113.2</ele>
        <time>2023-04-10T06:51:17Z</time>
      </trkpt>
      <trkpt lat="48.1175" lon="-3.06769">
        <ele>113.4</ele>
        <time>2023-04-10T06:51:18Z</time>
      </trkpt>
      <trkpt lat="48.11752" lon="-3.0677">
        <ele>113.4</ele>
        <time>2023-04-10T06:51:19Z</time>
      </trkpt>
      <trkpt lat="48.11753" lon="-3.06773">
        <ele>113.6</ele>
        <time>2023-04-10T06:51:20Z</time>
      </trkpt>
      <trkpt lat="48.11752" lon="-3.06776">
        <ele>113.6</ele>
        <time>2023-04-10T06:51:21Z</time>
      </trkpt>
      <trkpt lat="48.11752" lon="-3.0678">
        <ele>113.8</ele>
        <time>2023-04-10T06:51:22Z</time>
      </trkpt>
      <trkpt lat="48.11755" lon="-3.06788">
        <ele>113.8</ele>
        <time>2023-04-10T06:51:24Z</time>
      </trkpt>
      <trkpt lat="48.11758" lon="-3.06791">
        <ele>114</ele>
        <time>2023-04-10T06:51:25Z</time>
      </trkpt>
      <trkpt lat="48.11761" lon="-3.06792">
        <ele>114</ele>
        <time>2023-04-10T06:51:26Z</time>
      </trkpt>
      <trkpt lat="48.11768" lon="-3.06794">
        <ele>114.2</ele>
        <time>2023-04-10T06:51:28Z</time>
      </trkpt>
      <trkpt lat="48.1177" lon="-3.06795">
        <ele>114.2</ele>
        <time>2023-04-10T06:51:29Z</time>
      </trkpt>
      <trkpt lat="48.11772" lon="-3.06797">
        <ele>114.4</ele>
        <time>2023-04-10T06:51:30Z</time>
      </trkpt>
      <trkpt lat="48.11774" lon="-3.068">
        <ele>114.4</ele>
        <time>2023-04-10T06:51:31Z</time>
      </trkpt>
      <trkpt lat="48.11777" lon="-3.06802">
        <ele>114.4</ele>
        <time>2023-04-10T06:51:32Z</time>
      </trkpt>
      <trkpt lat="48.11785" lon="-3.0681">
        <ele>114.4</ele>
        <time>2023-04-10T06:51:35Z</time>
      </trkpt>
      <trkpt lat="48.11787" lon="-3.06814">
        <ele>114.6</ele>
        <time>2023-04-10T06:51:36Z</time>
      </trkpt>
      <trkpt lat="48.1179" lon="-3.06818">
        <ele>114.6</ele>
        <time>2023-04-10T06:51:37Z</time>
      </trkpt>
      <trkpt lat="48.11793" lon="-3.06825">
        <ele>115</ele>
        <time>2023-04-10T06:51:39Z</time>
      </trkpt>
      <trkpt lat="48.11796" lon="-3.06829">
        <ele>115.2</ele>
        <time>2023-04-10T06:51:40Z</time>
      </trkpt>
      <trkpt lat="48.11801" lon="-3.06837">
        <ele>115.4</ele>
        <time>2023-04-10T06:51:42Z</time>
      </trkpt>
      <trkpt lat="48.11804" lon="-3.06841">
        <ele>115.6</ele>
        <time>2023-04-10T06:51:43Z</time>
      </trkpt>
      <trkpt lat="48.11809" lon="-3.06847">
        <ele>115.8</ele>
        <time>2023-04-10T06:51:45Z</time>
      </trkpt>
      <trkpt lat="48.1181" lon="-3.06851">
        <ele>115.8</ele>
        <time>2023-04-10T06:51:46Z</time>
      </trkpt>
      <trkpt lat="48.11817" lon="-3.06865">
        <ele>116.2</ele>
        <time>2023-04-10T06:51:49Z</time>
      </trkpt>
      <trkpt lat="48.1182" lon="-3.06869">
        <ele>116.4</ele>
        <time>2023-04-10T06:51:50Z</time>
      </trkpt>
      <trkpt lat="48.11822" lon="-3.06873">
        <ele>116.6</ele>
        <time>2023-04-10T06:51:51Z</time>
      </trkpt>
      <trkpt lat="48.11824" lon="-3.06877">
        <ele>116.6</ele>
        <time>2023-04-10T06:51:52Z</time>
      </trkpt>
      <trkpt lat="48.11829" lon="-3.06887">
        <ele>117</ele>
        <time>2023-04-10T06:51:55Z</time>
      </trkpt>
      <trkpt lat="48.11829" lon="-3.06892">
        <ele>117.2</ele>
        <time>2023-04-10T06:51:56Z</time>
      </trkpt>
      <trkpt lat="48.11829" lon="-3.06896">
        <ele>117.4</ele>
        <time>2023-04-10T06:51:57Z</time>
      </trkpt>
      <trkpt lat="48.11829" lon="-3.06901">
        <ele>117.6</ele>
        <time>2023-04-10T06:51:58Z</time>
      </trkpt>
      <trkpt lat="48.11829" lon="-3.06905">
        <ele>117.8</ele>
        <time>2023-04-10T06:51:59Z</time>
      </trkpt>
      <trkpt lat="48.11831" lon="-3.06909">
        <ele>117.8</ele>
        <time>2023-04-10T06:52:00Z</time>
      </trkpt>
      <trkpt lat="48.11833" lon="-3.06912">
        <ele>118</ele>
        <time>2023-04-10T06:52:01Z</time>
      </trkpt>
      <trkpt lat="48.11836" lon="-3.06916">
        <ele>118.2</ele>
        <time>2023-04-10T06:52:02Z</time>
      </trkpt>
      <trkpt lat="48.11839" lon="-3.06918">
        <ele>118.4</ele>
        <time>2023-04-10T06:52:03Z</time>
      </trkpt>
      <trkpt lat="48.11842" lon="-3.06921">
        <ele>118.6</ele>
        <time>2023-04-10T06:52:04Z</time>
      </trkpt>
      <trkpt lat="48.11845" lon="-3.06923">
        <ele>118.8</ele>
        <time>2023-04-10T06:52:05Z</time>
      </trkpt>
      <trkpt lat="48.11848" lon="-3.06925">
        <ele>119</ele>
        <time>2023-04-10T06:52:06Z</time>
      </trkpt>
      <trkpt lat="48.1185" lon="-3.06926">
        <ele>119.2</ele>
        <time>2023-04-10T06:52:07Z</time>
      </trkpt>
      <trkpt lat="48.11851" lon="-3.06924">
        <ele>119.2</ele>
        <time>2023-04-10T06:52:08Z</time>
      </trkpt>
      <trkpt lat="48.11853" lon="-3.06922">
        <ele>119.4</ele>
        <time>2023-04-10T06:52:09Z</time>
      </trkpt>
      <trkpt lat="48.11854" lon="-3.06918">
        <ele>119.4</ele>
        <time>2023-04-10T06:52:10Z</time>
      </trkpt>
      <trkpt lat="48.11854" lon="-3.06914">
        <ele>119.4</ele>
        <time>2023-04-10T06:52:11Z</time>
      </trkpt>
      <trkpt lat="48.11856" lon="-3.06911">
        <ele>119.6</ele>
        <time>2023-04-10T06:52:12Z</time>
      </trkpt>
      <trkpt lat="48.11857" lon="-3.06909">
        <ele>119.6</ele>
        <time>2023-04-10T06:52:13Z</time>
      </trkpt>
      <trkpt lat="48.11859" lon="-3.06908">
        <ele>119.4</ele>
        <time>2023-04-10T06:52:14Z</time>
      </trkpt>
      <trkpt lat="48.11861" lon="-3.06909">
        <ele>119.6</ele>
        <time>2023-04-10T06:52:15Z</time>
      </trkpt>
      <trkpt lat="48.11864" lon="-3.06911">
        <ele>119.6</ele>
        <time>2023-04-10T06:52:16Z</time>
      </trkpt>
      <trkpt lat="48.11866" lon="-3.06914">
        <ele>119.6</ele>
        <time>2023-04-10T06:52:17Z</time>
      </trkpt>
      <trkpt lat="48.11868" lon="-3.06916">
        <ele>119.8</ele>
        <time>2023-04-10T06:52:18Z</time>
      </trkpt>
      <trkpt lat="48.11869" lon="-3.06917">
        <ele>119.8</ele>
        <time>2023-04-10T06:52:19Z</time>
      </trkpt>
      <trkpt lat="48.11872" lon="-3.06918">
        <ele>119.8</ele>
        <time>2023-04-10T06:52:20Z</time>
      </trkpt>
      <trkpt lat="48.11873" lon="-3.06919">
        <ele>120</ele>
        <time>2023-04-10T06:52:21Z</time>
      </trkpt>
      <trkpt lat="48.11874" lon="-3.06919">
        <ele>120.2</ele>
        <time>2023-04-10T06:52:22Z</time>
      </trkpt>
      <trkpt lat="48.11875" lon="-3.0692">
        <ele>120.6</ele>
        <time>2023-04-10T06:52:23Z</time>
      </trkpt>
      <trkpt lat="48.11877" lon="-3.06921">
        <ele>120.8</ele>
        <time>2023-04-10T06:52:24Z</time>
      </trkpt>
      <trkpt lat="48.11879" lon="-3.06923">
        <ele>121.2</ele>
        <time>2023-04-10T06:52:25Z</time>
      </trkpt>
      <trkpt lat="48.11881" lon="-3.06925">
        <ele>121.6</ele>
        <time>2023-04-10T06:52:26Z</time>
      </trkpt>
      <trkpt lat="48.11881" lon="-3.06926">
        <ele>121.6</ele>
        <time>2023-04-10T06:52:27Z</time>
      </trkpt>
      <trkpt lat="48.11883" lon="-3.06927">
        <ele>121.8</ele>
        <time>2023-04-10T06:52:28Z</time>
      </trkpt>
      <trkpt lat="48.11885" lon="-3.06929">
        <ele>122</ele>
        <time>2023-04-10T06:52:29Z</time>
      </trkpt>
      <trkpt lat="48.11888" lon="-3.06931">
        <ele>122</ele>
        <time>2023-04-10T06:52:30Z</time>
      </trkpt>
      <trkpt lat="48.1189" lon="-3.06933">
        <ele>122.2</ele>
        <time>2023-04-10T06:52:31Z</time>
      </trkpt>
      <trkpt lat="48.11894" lon="-3.06938">
        <ele>122.2</ele>
        <time>2023-04-10T06:52:32Z</time>
      </trkpt>
      <trkpt lat="48.11897" lon="-3.06941">
        <ele>122.4</ele>
        <time>2023-04-10T06:52:33Z</time>
      </trkpt>
      <trkpt lat="48.11899" lon="-3.06944">
        <ele>122.4</ele>
        <time>2023-04-10T06:52:34Z</time>
      </trkpt>
      <trkpt lat="48.11902" lon="-3.06947">
        <ele>122.4</ele>
        <time>2023-04-10T06:52:35Z</time>
      </trkpt>
      <trkpt lat="48.11905" lon="-3.06951">
        <ele>122.4</ele>
        <time>2023-04-10T06:52:36Z</time>
      </trkpt>
      <trkpt lat="48.11908" lon="-3.06955">
        <ele>122.4</ele>
        <time>2023-04-10T06:52:37Z</time>
      </trkpt>
      <trkpt lat="48.11911" lon="-3.06958">
        <ele>122.4</ele>
        <time>2023-04-10T06:52:38Z</time>
      </trkpt>
      <trkpt lat="48.11912" lon="-3.06959">
        <ele>122.6</ele>
        <time>2023-04-10T06:52:39Z</time>
      </trkpt>
      <trkpt lat="48.11913" lon="-3.0696">
        <ele>122.6</ele>
        <time>2023-04-10T06:52:40Z</time>
      </trkpt>
      <trkpt lat="48.11916" lon="-3.06962">
        <ele>122.6</ele>
        <time>2023-04-10T06:52:41Z</time>
      </trkpt>
      <trkpt lat="48.11919" lon="-3.06964">
        <ele>122.6</ele>
        <time>2023-04-10T06:52:42Z</time>
      </trkpt>
      <trkpt lat="48.11922" lon="-3.06968">
        <ele>122.8</ele>
        <time>2023-04-10T06:52:43Z</time>
      </trkpt>
      <trkpt lat="48.11926" lon="-3.06971">
        <ele>122.8</ele>
        <time>2023-04-10T06:52:44Z</time>
      </trkpt>
      <trkpt lat="48.11929" lon="-3.06974">
        <ele>122.8</ele>
        <time>2023-04-10T06:52:45Z</time>
      </trkpt>
      <trkpt lat="48.11933" lon="-3.06977">
        <ele>123</ele>
        <time>2023-04-10T06:52:46Z</time>
      </trkpt>
      <trkpt lat="48.11937" lon="-3.06978">
        <ele>123.4</ele>
        <time>2023-04-10T06:52:47Z</time>
      </trkpt>
      <trkpt lat="48.1194" lon="-3.0698">
        <ele>123.8</ele>
        <time>2023-04-10T06:52:48Z</time>
      </trkpt>
      <trkpt lat="48.11943" lon="-3.06981">
        <ele>124</ele>
        <time>2023-04-10T06:52:49Z</time>
      </trkpt>
      <trkpt lat="48.11947" lon="-3.06984">
        <ele>124.2</ele>
        <time>2023-04-10T06:52:50Z</time>
      </trkpt>
      <trkpt lat="48.1195" lon="-3.06986">
        <ele>124.4</ele>
        <time>2023-04-10T06:52:51Z</time>
      </trkpt>
      <trkpt lat="48.11953" lon="-3.0699">
        <ele>124.4</ele>
        <time>2023-04-10T06:52:52Z</time>
      </trkpt>
      <trkpt lat="48.11957" lon="-3.06995">
        <ele>124.6</ele>
        <time>2023-04-10T06:52:53Z</time>
      </trkpt>
      <trkpt lat="48.1196" lon="-3.06999">
        <ele>124.8</ele>
        <time>2023-04-10T06:52:54Z</time>
      </trkpt>
      <trkpt lat="48.11963" lon="-3.07003">
        <ele>125</ele>
        <time>2023-04-10T06:52:55Z</time>
      </trkpt>
      <trkpt lat="48.11966" lon="-3.07008">
        <ele>125.2</ele>
        <time>2023-04-10T06:52:56Z</time>
      </trkpt>
      <trkpt lat="48.1197" lon="-3.07015">
        <ele>125.4</ele>
        <time>2023-04-10T06:52:57Z</time>
      </trkpt>
      <trkpt lat="48.11973" lon="-3.07021">
        <ele>125.4</ele>
        <time>2023-04-10T06:52:58Z</time>
      </trkpt>
      <trkpt lat="48.11978" lon="-3.07027">
        <ele>125.6</ele>
        <time>2023-04-10T06:52:59Z</time>
      </trkpt>
      <trkpt lat="48.11981" lon="-3.07031">
        <ele>125.6</ele>
        <time>2023-04-10T06:53:00Z</time>
      </trkpt>
      <trkpt lat="48.11984" lon="-3.07035">
        <ele>125.8</ele>
        <time>2023-04-10T06:53:01Z</time>
      </trkpt>
      <trkpt lat="48.11987" lon="-3.07041">
        <ele>125.8</ele>
        <time>2023-04-10T06:53:02Z</time>
      </trkpt>
      <trkpt lat="48.11991" lon="-3.07044">
        <ele>125.8</ele>
        <time>2023-04-10T06:53:03Z</time>
      </trkpt>
      <trkpt lat="48.11994" lon="-3.07047">
        <ele>126</ele>
        <time>2023-04-10T06:53:04Z</time>
      </trkpt>
      <trkpt lat="48.11999" lon="-3.07051">
        <ele>126</ele>
        <time>2023-04-10T06:53:05Z</time>
      </trkpt>
      <trkpt lat="48.12003" lon="-3.07054">
        <ele>126</ele>
        <time>2023-04-10T06:53:06Z</time>
      </trkpt>
      <trkpt lat="48.12007" lon="-3.07058">
        <ele>126</ele>
        <time>2023-04-10T06:53:07Z</time>
      </trkpt>
      <trkpt lat="48.12009" lon="-3.07062">
        <ele>126</ele>
        <time>2023-04-10T06:53:08Z</time>
      </trkpt>
      <trkpt lat="48.12011" lon="-3.07066">
        <ele>126</ele>
        <time>2023-04-10T06:53:09Z</time>
      </trkpt>
      <trkpt lat="48.12015" lon="-3.0707">
        <ele>126</ele>
        <time>2023-04-10T06:53:10Z</time>
      </trkpt>
      <trkpt lat="48.12018" lon="-3.07071">
        <ele>126</ele>
        <time>2023-04-10T06:53:11Z</time>
      </trkpt>
      <trkpt lat="48.12021" lon="-3.07073">
        <ele>126.2</ele>
        <time>2023-04-10T06:53:12Z</time>
      </trkpt>
      <trkpt lat="48.12024" lon="-3.07075">
        <ele>126.2</ele>
        <time>2023-04-10T06:53:13Z</time>
      </trkpt>
      <trkpt lat="48.12027" lon="-3.07077">
        <ele>126.2</ele>
        <time>2023-04-10T06:53:14Z</time>
      </trkpt>
      <trkpt lat="48.12031" lon="-3.07079">
        <ele>126.4</ele>
        <time>2023-04-10T06:53:15Z</time>
      </trkpt>
      <trkpt lat="48.12034" lon="-3.07083">
        <ele>126.4</ele>
        <time>2023-04-10T06:53:16Z</time>
      </trkpt>
      <trkpt lat="48.12036" lon="-3.07085">
        <ele>126.6</ele>
        <time>2023-04-10T06:53:17Z</time>
      </trkpt>
      <trkpt lat="48.12038" lon="-3.07087">
        <ele>126.8</ele>
        <time>2023-04-10T06:53:18Z</time>
      </trkpt>
      <trkpt lat="48.12039" lon="-3.07087">
        <ele>127</ele>
        <time>2023-04-10T06:53:19Z</time>
      </trkpt>
      <trkpt lat="48.12047" lon="-3.07099">
        <ele>127.8</ele>
        <time>2023-04-10T06:53:23Z</time>
      </trkpt>
      <trkpt lat="48.12048" lon="-3.07101">
        <ele>128</ele>
        <time>2023-04-10T06:53:24Z</time>
      </trkpt>
      <trkpt lat="48.1205" lon="-3.07105">
        <ele>128.4</ele>
        <time>2023-04-10T06:53:25Z</time>
      </trkpt>
      <trkpt lat="48.12052" lon="-3.07109">
        <ele>128.6</ele>
        <time>2023-04-10T06:53:26Z</time>
      </trkpt>
      <trkpt lat="48.12053" lon="-3.07112">
        <ele>128.8</ele>
        <time>2023-04-10T06:53:27Z</time>
      </trkpt>
      <trkpt lat="48.12055" lon="-3.07116">
        <ele>129</ele>
        <time>2023-04-10T06:53:28Z</time>
      </trkpt>
      <trkpt lat="48.12058" lon="-3.0712">
        <ele>129.2</ele>
        <time>2023-04-10T06:53:29Z</time>
      </trkpt>
      <trkpt lat="48.1206" lon="-3.07125">
        <ele>129.4</ele>
        <time>2023-04-10T06:53:30Z</time>
      </trkpt>
      <trkpt lat="48.12062" lon="-3.07129">
        <ele>129.6</ele>
        <time>2023-04-10T06:53:31Z</time>
      </trkpt>
      <trkpt lat="48.12064" lon="-3.07133">
        <ele>129.8</ele>
        <time>2023-04-10T06:53:32Z</time>
      </trkpt>
      <trkpt lat="48.12066" lon="-3.07137">
        <ele>130</ele>
        <time>2023-04-10T06:53:33Z</time>
      </trkpt>
      <trkpt lat="48.12068" lon="-3.07141">
        <ele>130.2</ele>
        <time>2023-04-10T06:53:34Z</time>
      </trkpt>
      <trkpt lat="48.12069" lon="-3.07145">
        <ele>130.4</ele>
        <time>2023-04-10T06:53:35Z</time>
      </trkpt>
      <trkpt lat="48.12072" lon="-3.07149">
        <ele>130.4</ele>
        <time>2023-04-10T06:53:36Z</time>
      </trkpt>
      <trkpt lat="48.12073" lon="-3.07153">
        <ele>130.4</ele>
        <time>2023-04-10T06:53:37Z</time>
      </trkpt>
      <trkpt lat="48.12075" lon="-3.07156">
        <ele>130.4</ele>
        <time>2023-04-10T06:53:38Z</time>
      </trkpt>
      <trkpt lat="48.12077" lon="-3.0716">
        <ele>130.6</ele>
        <time>2023-04-10T06:53:39Z</time>
      </trkpt>
      <trkpt lat="48.12079" lon="-3.07164">
        <ele>130.6</ele>
        <time>2023-04-10T06:53:40Z</time>
      </trkpt>
      <trkpt lat="48.1208" lon="-3.07167">
        <ele>130.8</ele>
        <time>2023-04-10T06:53:41Z</time>
      </trkpt>
      <trkpt lat="48.12082" lon="-3.0717">
        <ele>131</ele>
        <time>2023-04-10T06:53:42Z</time>
      </trkpt>
      <trkpt lat="48.12084" lon="-3.07175">
        <ele>131</ele>
        <time>2023-04-10T06:53:43Z</time>
      </trkpt>
      <trkpt lat="48.12086" lon="-3.07178">
        <ele>131.2</ele>
        <time>2023-04-10T06:53:44Z</time>
      </trkpt>
      <trkpt lat="48.12087" lon="-3.07182">
        <ele>131.4</ele>
        <time>2023-04-10T06:53:45Z</time>
      </trkpt>
      <trkpt lat="48.12089" lon="-3.07185">
        <ele>131.4</ele>
        <time>2023-04-10T06:53:46Z</time>
      </trkpt>
      <trkpt lat="48.1209" lon="-3.07187">
        <ele>131.6</ele>
        <time>2023-04-10T06:53:47Z</time>
      </trkpt>
      <trkpt lat="48.12091" lon="-3.0719">
        <ele>131.6</ele>
        <time>2023-04-10T06:53:48Z</time>
      </trkpt>
      <trkpt lat="48.12093" lon="-3.07193">
        <ele>131.6</ele>
        <time>2023-04-10T06:53:49Z</time>
      </trkpt>
      <trkpt lat="48.12094" lon="-3.07196">
        <ele>131.6</ele>
        <time>2023-04-10T06:53:50Z</time>
      </trkpt>
      <trkpt lat="48.12096" lon="-3.07199">
        <ele>131.8</ele>
        <time>2023-04-10T06:53:51Z</time>
      </trkpt>
      <trkpt lat="48.12097" lon="-3.07203">
        <ele>131.8</ele>
        <time>2023-04-10T06:53:52Z</time>
      </trkpt>
      <trkpt lat="48.12099" lon="-3.07207">
        <ele>132</ele>
        <time>2023-04-10T06:53:53Z</time>
      </trkpt>
      <trkpt lat="48.12101" lon="-3.0721">
        <ele>132</ele>
        <time>2023-04-10T06:53:54Z</time>
      </trkpt>
      <trkpt lat="48.12103" lon="-3.07213">
        <ele>132.2</ele>
        <time>2023-04-10T06:53:55Z</time>
      </trkpt>
      <trkpt lat="48.12104" lon="-3.07216">
        <ele>132.2</ele>
        <time>2023-04-10T06:53:56Z</time>
      </trkpt>
      <trkpt lat="48.12106" lon="-3.07219">
        <ele>132.4</ele>
        <time>2023-04-10T06:53:57Z</time>
      </trkpt>
      <trkpt lat="48.12107" lon="-3.07222">
        <ele>132.4</ele>
        <time>2023-04-10T06:53:58Z</time>
      </trkpt>
      <trkpt lat="48.12107" lon="-3.07225">
        <ele>132.6</ele>
        <time>2023-04-10T06:53:59Z</time>
      </trkpt>
      <trkpt lat="48.12108" lon="-3.07229">
        <ele>132.6</ele>
        <time>2023-04-10T06:54:00Z</time>
      </trkpt>
      <trkpt lat="48.12109" lon="-3.07233">
        <ele>132.8</ele>
        <time>2023-04-10T06:54:01Z</time>
      </trkpt>
      <trkpt lat="48.12111" lon="-3.07238">
        <ele>132.8</ele>
        <time>2023-04-10T06:54:02Z</time>
      </trkpt>
      <trkpt lat="48.12112" lon="-3.07242">
        <ele>132.8</ele>
        <time>2023-04-10T06:54:03Z</time>
      </trkpt>
      <trkpt lat="48.12113" lon="-3.07243">
        <ele>132.8</ele>
        <time>2023-04-10T06:54:04Z</time>
      </trkpt>
      <trkpt lat="48.12115" lon="-3.07248">
        <ele>132.6</ele>
        <time>2023-04-10T06:54:12Z</time>
      </trkpt>
      <trkpt lat="48.12115" lon="-3.07251">
        <ele>132.6</ele>
        <time>2023-04-10T06:54:13Z</time>
      </trkpt>
      <trkpt lat="48.12115" lon="-3.07253">
        <ele>132.4</ele>
        <time>2023-04-10T06:54:14Z</time>
      </trkpt>
      <trkpt lat="48.12116" lon="-3.07254">
        <ele>132.4</ele>
        <time>2023-04-10T06:54:16Z</time>
      </trkpt>
      <trkpt lat="48.12116" lon="-3.07254">
        <ele>132.2</ele>
        <time>2023-04-10T06:54:19Z</time>
      </trkpt>
      <trkpt lat="48.12117" lon="-3.07257">
        <ele>131.2</ele>
        <time>2023-04-10T06:54:27Z</time>
      </trkpt>
      <trkpt lat="48.12118" lon="-3.07259">
        <ele>131.2</ele>
        <time>2023-04-10T06:54:28Z</time>
      </trkpt>
      <trkpt lat="48.12122" lon="-3.07266">
        <ele>131.2</ele>
        <time>2023-04-10T06:54:30Z</time>
      </trkpt>
      <trkpt lat="48.12134" lon="-3.07284">
        <ele>131.4</ele>
        <time>2023-04-10T06:54:35Z</time>
      </trkpt>
      <trkpt lat="48.12137" lon="-3.07288">
        <ele>131.4</ele>
        <time>2023-04-10T06:54:36Z</time>
      </trkpt>
      <trkpt lat="48.12139" lon="-3.07291">
        <ele>131.4</ele>
        <time>2023-04-10T06:54:37Z</time>
      </trkpt>
      <trkpt lat="48.12143" lon="-3.07297">
        <ele>131.6</ele>
        <time>2023-04-10T06:54:39Z</time>
      </trkpt>
      <trkpt lat="48.12144" lon="-3.073">
        <ele>131.8</ele>
        <time>2023-04-10T06:54:40Z</time>
      </trkpt>
      <trkpt lat="48.12145" lon="-3.07301">
        <ele>132</ele>
        <time>2023-04-10T06:54:41Z</time>
      </trkpt>
      <trkpt lat="48.12145" lon="-3.07301">
        <ele>132.8</ele>
        <time>2023-04-10T06:55:14Z</time>
      </trkpt>
      <trkpt lat="48.12147" lon="-3.07304">
        <ele>132.8</ele>
        <time>2023-04-10T06:55:15Z</time>
      </trkpt>
      <trkpt lat="48.12153" lon="-3.07312">
        <ele>132.8</ele>
        <time>2023-04-10T06:55:18Z</time>
      </trkpt>
      <trkpt lat="48.12155" lon="-3.07315">
        <ele>132.8</ele>
        <time>2023-04-10T06:55:19Z</time>
      </trkpt>
      <trkpt lat="48.12175" lon="-3.07341">
        <ele>133</ele>
        <time>2023-04-10T06:55:27Z</time>
      </trkpt>
      <trkpt lat="48.12189" lon="-3.07361">
        <ele>133.6</ele>
        <time>2023-04-10T06:55:33Z</time>
      </trkpt>
      <trkpt lat="48.12197" lon="-3.07371">
        <ele>133.8</ele>
        <time>2023-04-10T06:55:36Z</time>
      </trkpt>
      <trkpt lat="48.1221" lon="-3.07384">
        <ele>134.6</ele>
        <time>2023-04-10T06:55:41Z</time>
      </trkpt>
      <trkpt lat="48.12213" lon="-3.07387">
        <ele>134.8</ele>
        <time>2023-04-10T06:55:42Z</time>
      </trkpt>
      <trkpt lat="48.12216" lon="-3.07389">
        <ele>135</ele>
        <time>2023-04-10T06:55:43Z</time>
      </trkpt>
      <trkpt lat="48.12227" lon="-3.07402">
        <ele>135.6</ele>
        <time>2023-04-10T06:55:47Z</time>
      </trkpt>
      <trkpt lat="48.1223" lon="-3.07406">
        <ele>135.8</ele>
        <time>2023-04-10T06:55:48Z</time>
      </trkpt>
      <trkpt lat="48.12232" lon="-3.07409">
        <ele>136</ele>
        <time>2023-04-10T06:55:49Z</time>
      </trkpt>
      <trkpt lat="48.12235" lon="-3.07411">
        <ele>136.2</ele>
        <time>2023-04-10T06:55:50Z</time>
      </trkpt>
      <trkpt lat="48.12237" lon="-3.07414">
        <ele>136.6</ele>
        <time>2023-04-10T06:55:51Z</time>
      </trkpt>
      <trkpt lat="48.12239" lon="-3.07418">
        <ele>136.6</ele>
        <time>2023-04-10T06:55:52Z</time>
      </trkpt>
      <trkpt lat="48.12241" lon="-3.0742">
        <ele>136.8</ele>
        <time>2023-04-10T06:55:53Z</time>
      </trkpt>
      <trkpt lat="48.12241" lon="-3.07422">
        <ele>137</ele>
        <time>2023-04-10T06:55:54Z</time>
      </trkpt>
      <trkpt lat="48.12243" lon="-3.07423">
        <ele>137.2</ele>
        <time>2023-04-10T06:55:55Z</time>
      </trkpt>
      <trkpt lat="48.12244" lon="-3.07425">
        <ele>137.4</ele>
        <time>2023-04-10T06:55:56Z</time>
      </trkpt>
      <trkpt lat="48.12245" lon="-3.07427">
        <ele>137.6</ele>
        <time>2023-04-10T06:55:57Z</time>
      </trkpt>
      <trkpt lat="48.12246" lon="-3.07428">
        <ele>137.8</ele>
        <time>2023-04-10T06:55:58Z</time>
      </trkpt>
      <trkpt lat="48.12247" lon="-3.07429">
        <ele>138</ele>
        <time>2023-04-10T06:55:59Z</time>
      </trkpt>
      <trkpt lat="48.12248" lon="-3.0743">
        <ele>138.2</ele>
        <time>2023-04-10T06:56:03Z</time>
      </trkpt>
      <trkpt lat="48.12249" lon="-3.07431">
        <ele>138.4</ele>
        <time>2023-04-10T06:56:04Z</time>
      </trkpt>
      <trkpt lat="48.1225" lon="-3.07433">
        <ele>138.4</ele>
        <time>2023-04-10T06:56:05Z</time>
      </trkpt>
      <trkpt lat="48.1225" lon="-3.07435">
        <ele>138.4</ele>
        <time>2023-04-10T06:56:06Z</time>
      </trkpt>
      <trkpt lat="48.12251" lon="-3.07437">
        <ele>138.4</ele>
        <time>2023-04-10T06:56:07Z</time>
      </trkpt>
      <trkpt lat="48.1225" lon="-3.07439">
        <ele>138.4</ele>
        <time>2023-04-10T06:56:08Z</time>
      </trkpt>
      <trkpt lat="48.12249" lon="-3.07441">
        <ele>138.4</ele>
        <time>2023-04-10T06:56:09Z</time>
      </trkpt>
      <trkpt lat="48.12248" lon="-3.07442">
        <ele>138.4</ele>
        <time>2023-04-10T06:56:10Z</time>
      </trkpt>
      <trkpt lat="48.12247" lon="-3.07444">
        <ele>138.4</ele>
        <time>2023-04-10T06:56:11Z</time>
      </trkpt>
      <trkpt lat="48.12246" lon="-3.07445">
        <ele>138.4</ele>
        <time>2023-04-10T06:56:12Z</time>
      </trkpt>
      <trkpt lat="48.12246" lon="-3.07447">
        <ele>138.4</ele>
        <time>2023-04-10T06:56:13Z</time>
      </trkpt>
      <trkpt lat="48.12245" lon="-3.07449">
        <ele>138.4</ele>
        <time>2023-04-10T06:56:14Z</time>
      </trkpt>
      <trkpt lat="48.12245" lon="-3.07451">
        <ele>138.6</ele>
        <time>2023-04-10T06:56:15Z</time>
      </trkpt>
      <trkpt lat="48.12245" lon="-3.07452">
        <ele>138.6</ele>
        <time>2023-04-10T06:56:16Z</time>
      </trkpt>
      <trkpt lat="48.12245" lon="-3.07453">
        <ele>138.6</ele>
        <time>2023-04-10T06:56:17Z</time>
      </trkpt>
      <trkpt lat="48.12244" lon="-3.07455">
        <ele>138.6</ele>
        <time>2023-04-10T06:56:18Z</time>
      </trkpt>
      <trkpt lat="48.12245" lon="-3.07458">
        <ele>138.8</ele>
        <time>2023-04-10T06:56:20Z</time>
      </trkpt>
      <trkpt lat="48.12246" lon="-3.07459">
        <ele>139</ele>
        <time>2023-04-10T06:56:21Z</time>
      </trkpt>
      <trkpt lat="48.12247" lon="-3.0746">
        <ele>139.8</ele>
        <time>2023-04-10T06:56:24Z</time>
      </trkpt>
      <trkpt lat="48.12254" lon="-3.07467">
        <ele>140.4</ele>
        <time>2023-04-10T06:56:28Z</time>
      </trkpt>
      <trkpt lat="48.12257" lon="-3.0747">
        <ele>140.4</ele>
        <time>2023-04-10T06:56:29Z</time>
      </trkpt>
      <trkpt lat="48.12261" lon="-3.07478">
        <ele>140.6</ele>
        <time>2023-04-10T06:56:31Z</time>
      </trkpt>
      <trkpt lat="48.12263" lon="-3.07482">
        <ele>140.6</ele>
        <time>2023-04-10T06:56:32Z</time>
      </trkpt>
      <trkpt lat="48.12264" lon="-3.07485">
        <ele>140.8</ele>
        <time>2023-04-10T06:56:33Z</time>
      </trkpt>
      <trkpt lat="48.12266" lon="-3.07489">
        <ele>140.8</ele>
        <time>2023-04-10T06:56:34Z</time>
      </trkpt>
      <trkpt lat="48.12269" lon="-3.07494">
        <ele>141</ele>
        <time>2023-04-10T06:56:35Z</time>
      </trkpt>
      <trkpt lat="48.12271" lon="-3.07498">
        <ele>141</ele>
        <time>2023-04-10T06:56:36Z</time>
      </trkpt>
      <trkpt lat="48.12273" lon="-3.07502">
        <ele>141</ele>
        <time>2023-04-10T06:56:37Z</time>
      </trkpt>
      <trkpt lat="48.12276" lon="-3.07506">
        <ele>141.6</ele>
        <time>2023-04-10T06:56:38Z</time>
      </trkpt>
      <trkpt lat="48.12278" lon="-3.07509">
        <ele>142</ele>
        <time>2023-04-10T06:56:39Z</time>
      </trkpt>
      <trkpt lat="48.12281" lon="-3.07514">
        <ele>142.2</ele>
        <time>2023-04-10T06:56:40Z</time>
      </trkpt>
      <trkpt lat="48.12284" lon="-3.07519">
        <ele>142.4</ele>
        <time>2023-04-10T06:56:41Z</time>
      </trkpt>
      <trkpt lat="48.12286" lon="-3.07523">
        <ele>142.4</ele>
        <time>2023-04-10T06:56:42Z</time>
      </trkpt>
      <trkpt lat="48.1229" lon="-3.07528">
        <ele>142.6</ele>
        <time>2023-04-10T06:56:43Z</time>
      </trkpt>
      <trkpt lat="48.12293" lon="-3.07533">
        <ele>142.6</ele>
        <time>2023-04-10T06:56:44Z</time>
      </trkpt>
      <trkpt lat="48.12297" lon="-3.07538">
        <ele>142.8</ele>
        <time>2023-04-10T06:56:45Z</time>
      </trkpt>
      <trkpt lat="48.123" lon="-3.07541">
        <ele>142.8</ele>
        <time>2023-04-10T06:56:46Z</time>
      </trkpt>
      <trkpt lat="48.12303" lon="-3.07544">
        <ele>143</ele>
        <time>2023-04-10T06:56:47Z</time>
      </trkpt>
      <trkpt lat="48.12305" lon="-3.07547">
        <ele>143</ele>
        <time>2023-04-10T06:56:48Z</time>
      </trkpt>
      <trkpt lat="48.12307" lon="-3.07549">
        <ele>143</ele>
        <time>2023-04-10T06:56:49Z</time>
      </trkpt>
      <trkpt lat="48.12311" lon="-3.07553">
        <ele>143</ele>
        <time>2023-04-10T06:56:50Z</time>
      </trkpt>
      <trkpt lat="48.12314" lon="-3.07557">
        <ele>143</ele>
        <time>2023-04-10T06:56:51Z</time>
      </trkpt>
      <trkpt lat="48.12316" lon="-3.0756">
        <ele>143.2</ele>
        <time>2023-04-10T06:56:52Z</time>
      </trkpt>
      <trkpt lat="48.12319" lon="-3.07564">
        <ele>143.2</ele>
        <time>2023-04-10T06:56:53Z</time>
      </trkpt>
      <trkpt lat="48.12322" lon="-3.07568">
        <ele>143.2</ele>
        <time>2023-04-10T06:56:54Z</time>
      </trkpt>
      <trkpt lat="48.12326" lon="-3.07571">
        <ele>143.2</ele>
        <time>2023-04-10T06:56:55Z</time>
      </trkpt>
      <trkpt lat="48.1233" lon="-3.07577">
        <ele>143.2</ele>
        <time>2023-04-10T06:56:56Z</time>
      </trkpt>
      <trkpt lat="48.12333" lon="-3.07582">
        <ele>143.2</ele>
        <time>2023-04-10T06:56:57Z</time>
      </trkpt>
      <trkpt lat="48.12337" lon="-3.07586">
        <ele>143.2</ele>
        <time>2023-04-10T06:56:58Z</time>
      </trkpt>
      <trkpt lat="48.1234" lon="-3.07589">
        <ele>143.2</ele>
        <time>2023-04-10T06:56:59Z</time>
      </trkpt>
      <trkpt lat="48.12343" lon="-3.07593">
        <ele>143.2</ele>
        <time>2023-04-10T06:57:00Z</time>
      </trkpt>
      <trkpt lat="48.1235" lon="-3.07602">
        <ele>143.2</ele>
        <time>2023-04-10T06:57:03Z</time>
      </trkpt>
      <trkpt lat="48.12356" lon="-3.07612">
        <ele>143.2</ele>
        <time>2023-04-10T06:57:05Z</time>
      </trkpt>
      <trkpt lat="48.12365" lon="-3.07634">
        <ele>143.4</ele>
        <time>2023-04-10T06:57:09Z</time>
      </trkpt>
      <trkpt lat="48.12368" lon="-3.07639">
        <ele>143.4</ele>
        <time>2023-04-10T06:57:10Z</time>
      </trkpt>
      <trkpt lat="48.12371" lon="-3.07643">
        <ele>143.4</ele>
        <time>2023-04-10T06:57:11Z</time>
      </trkpt>
      <trkpt lat="48.12373" lon="-3.07647">
        <ele>143.4</ele>
        <time>2023-04-10T06:57:12Z</time>
      </trkpt>
      <trkpt lat="48.12376" lon="-3.07651">
        <ele>143.4</ele>
        <time>2023-04-10T06:57:13Z</time>
      </trkpt>
      <trkpt lat="48.12385" lon="-3.07662">
        <ele>143.6</ele>
        <time>2023-04-10T06:57:16Z</time>
      </trkpt>
      <trkpt lat="48.12397" lon="-3.0768">
        <ele>143.4</ele>
        <time>2023-04-10T06:57:20Z</time>
      </trkpt>
      <trkpt lat="48.12398" lon="-3.07685">
        <ele>143.4</ele>
        <time>2023-04-10T06:57:21Z</time>
      </trkpt>
      <trkpt lat="48.12399" lon="-3.07691">
        <ele>143.4</ele>
        <time>2023-04-10T06:57:22Z</time>
      </trkpt>
      <trkpt lat="48.124" lon="-3.07697">
        <ele>143.4</ele>
        <time>2023-04-10T06:57:23Z</time>
      </trkpt>
      <trkpt lat="48.12401" lon="-3.07702">
        <ele>143.4</ele>
        <time>2023-04-10T06:57:24Z</time>
      </trkpt>
      <trkpt lat="48.12403" lon="-3.07706">
        <ele>143.2</ele>
        <time>2023-04-10T06:57:25Z</time>
      </trkpt>
      <trkpt lat="48.12406" lon="-3.07711">
        <ele>143.2</ele>
        <time>2023-04-10T06:57:26Z</time>
      </trkpt>
      <trkpt lat="48.12408" lon="-3.07714">
        <ele>143.2</ele>
        <time>2023-04-10T06:57:27Z</time>
      </trkpt>
      <trkpt lat="48.12411" lon="-3.07718">
        <ele>143.2</ele>
        <time>2023-04-10T06:57:28Z</time>
      </trkpt>
      <trkpt lat="48.1242" lon="-3.07729">
        <ele>143.2</ele>
        <time>2023-04-10T06:57:31Z</time>
      </trkpt>
      <trkpt lat="48.12423" lon="-3.07732">
        <ele>143</ele>
        <time>2023-04-10T06:57:32Z</time>
      </trkpt>
      <trkpt lat="48.12426" lon="-3.07736">
        <ele>143</ele>
        <time>2023-04-10T06:57:33Z</time>
      </trkpt>
      <trkpt lat="48.12436" lon="-3.07746">
        <ele>142.8</ele>
        <time>2023-04-10T06:57:36Z</time>
      </trkpt>
      <trkpt lat="48.12439" lon="-3.0775">
        <ele>142.8</ele>
        <time>2023-04-10T06:57:37Z</time>
      </trkpt>
      <trkpt lat="48.12442" lon="-3.07754">
        <ele>142.8</ele>
        <time>2023-04-10T06:57:38Z</time>
      </trkpt>
      <trkpt lat="48.12445" lon="-3.07756">
        <ele>142.8</ele>
        <time>2023-04-10T06:57:39Z</time>
      </trkpt>
      <trkpt lat="48.12448" lon="-3.07758">
        <ele>142.8</ele>
        <time>2023-04-10T06:57:40Z</time>
      </trkpt>
      <trkpt lat="48.12451" lon="-3.0776">
        <ele>142.8</ele>
        <time>2023-04-10T06:57:41Z</time>
      </trkpt>
      <trkpt lat="48.12454" lon="-3.07761">
        <ele>142.8</ele>
        <time>2023-04-10T06:57:42Z</time>
      </trkpt>
      <trkpt lat="48.12468" lon="-3.07771">
        <ele>143</ele>
        <time>2023-04-10T06:57:47Z</time>
      </trkpt>
      <trkpt lat="48.12472" lon="-3.07776">
        <ele>143</ele>
        <time>2023-04-10T06:57:48Z</time>
      </trkpt>
      <trkpt lat="48.12476" lon="-3.0778">
        <ele>143.2</ele>
        <time>2023-04-10T06:57:49Z</time>
      </trkpt>
      <trkpt lat="48.12479" lon="-3.07782">
        <ele>143.2</ele>
        <time>2023-04-10T06:57:50Z</time>
      </trkpt>
      <trkpt lat="48.12483" lon="-3.07785">
        <ele>143.4</ele>
        <time>2023-04-10T06:57:51Z</time>
      </trkpt>
      <trkpt lat="48.12486" lon="-3.07787">
        <ele>143.6</ele>
        <time>2023-04-10T06:57:52Z</time>
      </trkpt>
      <trkpt lat="48.12488" lon="-3.07789">
        <ele>143.8</ele>
        <time>2023-04-10T06:57:53Z</time>
      </trkpt>
      <trkpt lat="48.12491" lon="-3.07791">
        <ele>143.8</ele>
        <time>2023-04-10T06:57:54Z</time>
      </trkpt>
      <trkpt lat="48.12492" lon="-3.07793">
        <ele>144</ele>
        <time>2023-04-10T06:57:55Z</time>
      </trkpt>
      <trkpt lat="48.12494" lon="-3.07795">
        <ele>144.2</ele>
        <time>2023-04-10T06:57:56Z</time>
      </trkpt>
      <trkpt lat="48.12495" lon="-3.07796">
        <ele>144.4</ele>
        <time>2023-04-10T06:57:57Z</time>
      </trkpt>
      <trkpt lat="48.12497" lon="-3.07797">
        <ele>144.6</ele>
        <time>2023-04-10T06:57:58Z</time>
      </trkpt>
      <trkpt lat="48.12506" lon="-3.07803">
        <ele>145.4</ele>
        <time>2023-04-10T06:58:01Z</time>
      </trkpt>
      <trkpt lat="48.12509" lon="-3.07805">
        <ele>145.6</ele>
        <time>2023-04-10T06:58:02Z</time>
      </trkpt>
      <trkpt lat="48.12516" lon="-3.0781">
        <ele>146.6</ele>
        <time>2023-04-10T06:58:05Z</time>
      </trkpt>
      <trkpt lat="48.12518" lon="-3.07813">
        <ele>146.6</ele>
        <time>2023-04-10T06:58:06Z</time>
      </trkpt>
      <trkpt lat="48.1252" lon="-3.07816">
        <ele>147</ele>
        <time>2023-04-10T06:58:07Z</time>
      </trkpt>
      <trkpt lat="48.12523" lon="-3.07819">
        <ele>147.2</ele>
        <time>2023-04-10T06:58:08Z</time>
      </trkpt>
      <trkpt lat="48.12525" lon="-3.07821">
        <ele>147.6</ele>
        <time>2023-04-10T06:58:09Z</time>
      </trkpt>
      <trkpt lat="48.12528" lon="-3.07824">
        <ele>148</ele>
        <time>2023-04-10T06:58:10Z</time>
      </trkpt>
      <trkpt lat="48.12531" lon="-3.07827">
        <ele>148.2</ele>
        <time>2023-04-10T06:58:11Z</time>
      </trkpt>
      <trkpt lat="48.12535" lon="-3.0783">
        <ele>148.4</ele>
        <time>2023-04-10T06:58:12Z</time>
      </trkpt>
      <trkpt lat="48.12539" lon="-3.07833">
        <ele>148.8</ele>
        <time>2023-04-10T06:58:13Z</time>
      </trkpt>
      <trkpt lat="48.12543" lon="-3.07835">
        <ele>149</ele>
        <time>2023-04-10T06:58:14Z</time>
      </trkpt>
      <trkpt lat="48.12546" lon="-3.07836">
        <ele>149</ele>
        <time>2023-04-10T06:58:15Z</time>
      </trkpt>
      <trkpt lat="48.12549" lon="-3.07837">
        <ele>149.2</ele>
        <time>2023-04-10T06:58:16Z</time>
      </trkpt>
      <trkpt lat="48.12553" lon="-3.07838">
        <ele>149.2</ele>
        <time>2023-04-10T06:58:17Z</time>
      </trkpt>
      <trkpt lat="48.12556" lon="-3.07838">
        <ele>149.4</ele>
        <time>2023-04-10T06:58:18Z</time>
      </trkpt>
      <trkpt lat="48.12559" lon="-3.07838">
        <ele>149.6</ele>
        <time>2023-04-10T06:58:19Z</time>
      </trkpt>
      <trkpt lat="48.12562" lon="-3.07839">
        <ele>149.6</ele>
        <time>2023-04-10T06:58:20Z</time>
      </trkpt>
      <trkpt lat="48.12566" lon="-3.07839">
        <ele>149.6</ele>
        <time>2023-04-10T06:58:21Z</time>
      </trkpt>
      <trkpt lat="48.12569" lon="-3.07839">
        <ele>149.8</ele>
        <time>2023-04-10T06:58:22Z</time>
      </trkpt>
      <trkpt lat="48.12572" lon="-3.07838">
        <ele>149.8</ele>
        <time>2023-04-10T06:58:23Z</time>
      </trkpt>
      <trkpt lat="48.12576" lon="-3.07838">
        <ele>149.8</ele>
        <time>2023-04-10T06:58:24Z</time>
      </trkpt>
      <trkpt lat="48.12579" lon="-3.07838">
        <ele>150</ele>
        <time>2023-04-10T06:58:25Z</time>
      </trkpt>
      <trkpt lat="48.12582" lon="-3.07837">
        <ele>150.2</ele>
        <time>2023-04-10T06:58:26Z</time>
      </trkpt>
      <trkpt lat="48.12586" lon="-3.07836">
        <ele>150.2</ele>
        <time>2023-04-10T06:58:27Z</time>
      </trkpt>
      <trkpt lat="48.12589" lon="-3.07839">
        <ele>150.2</ele>
        <time>2023-04-10T06:58:28Z</time>
      </trkpt>
      <trkpt lat="48.12592" lon="-3.07843">
        <ele>150.2</ele>
        <time>2023-04-10T06:58:29Z</time>
      </trkpt>
      <trkpt lat="48.12594" lon="-3.07848">
        <ele>150.2</ele>
        <time>2023-04-10T06:58:30Z</time>
      </trkpt>
      <trkpt lat="48.12595" lon="-3.07854">
        <ele>150.2</ele>
        <time>2023-04-10T06:58:31Z</time>
      </trkpt>
      <trkpt lat="48.12595" lon="-3.0786">
        <ele>150.2</ele>
        <time>2023-04-10T06:58:32Z</time>
      </trkpt>
      <trkpt lat="48.12595" lon="-3.07866">
        <ele>150.2</ele>
        <time>2023-04-10T06:58:33Z</time>
      </trkpt>
      <trkpt lat="48.12594" lon="-3.07872">
        <ele>150.2</ele>
        <time>2023-04-10T06:58:34Z</time>
      </trkpt>
      <trkpt lat="48.12594" lon="-3.07878">
        <ele>150.2</ele>
        <time>2023-04-10T06:58:35Z</time>
      </trkpt>
      <trkpt lat="48.12594" lon="-3.07884">
        <ele>150</ele>
        <time>2023-04-10T06:58:36Z</time>
      </trkpt>
      <trkpt lat="48.12595" lon="-3.07891">
        <ele>150</ele>
        <time>2023-04-10T06:58:37Z</time>
      </trkpt>
      <trkpt lat="48.12595" lon="-3.07897">
        <ele>150</ele>
        <time>2023-04-10T06:58:38Z</time>
      </trkpt>
      <trkpt lat="48.12596" lon="-3.07904">
        <ele>149.8</ele>
        <time>2023-04-10T06:58:39Z</time>
      </trkpt>
      <trkpt lat="48.12598" lon="-3.0791">
        <ele>149.8</ele>
        <time>2023-04-10T06:58:40Z</time>
      </trkpt>
      <trkpt lat="48.126" lon="-3.07915">
        <ele>149.8</ele>
        <time>2023-04-10T06:58:41Z</time>
      </trkpt>
      <trkpt lat="48.12603" lon="-3.07919">
        <ele>149.8</ele>
        <time>2023-04-10T06:58:42Z</time>
      </trkpt>
      <trkpt lat="48.12606" lon="-3.07924">
        <ele>149.8</ele>
        <time>2023-04-10T06:58:43Z</time>
      </trkpt>
      <trkpt lat="48.12609" lon="-3.07928">
        <ele>149.8</ele>
        <time>2023-04-10T06:58:44Z</time>
      </trkpt>
      <trkpt lat="48.12612" lon="-3.07932">
        <ele>149.8</ele>
        <time>2023-04-10T06:58:45Z</time>
      </trkpt>
      <trkpt lat="48.12614" lon="-3.07935">
        <ele>149.8</ele>
        <time>2023-04-10T06:58:46Z</time>
      </trkpt>
      <trkpt lat="48.1262" lon="-3.07943">
        <ele>149.8</ele>
        <time>2023-04-10T06:58:48Z</time>
      </trkpt>
      <trkpt lat="48.12626" lon="-3.0795">
        <ele>149.8</ele>
        <time>2023-04-10T06:58:50Z</time>
      </trkpt>
      <trkpt lat="48.12629" lon="-3.07954">
        <ele>149.8</ele>
        <time>2023-04-10T06:58:51Z</time>
      </trkpt>
      <trkpt lat="48.12632" lon="-3.07958">
        <ele>149.8</ele>
        <time>2023-04-10T06:58:52Z</time>
      </trkpt>
      <trkpt lat="48.12635" lon="-3.07962">
        <ele>149.8</ele>
        <time>2023-04-10T06:58:53Z</time>
      </trkpt>
      <trkpt lat="48.12638" lon="-3.07965">
        <ele>150.2</ele>
        <time>2023-04-10T06:58:54Z</time>
      </trkpt>
      <trkpt lat="48.12641" lon="-3.07969">
        <ele>150.4</ele>
        <time>2023-04-10T06:58:55Z</time>
      </trkpt>
      <trkpt lat="48.12644" lon="-3.07972">
        <ele>150.6</ele>
        <time>2023-04-10T06:58:56Z</time>
      </trkpt>
      <trkpt lat="48.12646" lon="-3.07976">
        <ele>150.8</ele>
        <time>2023-04-10T06:58:57Z</time>
      </trkpt>
      <trkpt lat="48.12649" lon="-3.07979">
        <ele>151</ele>
        <time>2023-04-10T06:58:58Z</time>
      </trkpt>
      <trkpt lat="48.12653" lon="-3.07984">
        <ele>151.2</ele>
        <time>2023-04-10T06:58:59Z</time>
      </trkpt>
      <trkpt lat="48.12656" lon="-3.07988">
        <ele>151.4</ele>
        <time>2023-04-10T06:59:00Z</time>
      </trkpt>
      <trkpt lat="48.12658" lon="-3.07991">
        <ele>151.6</ele>
        <time>2023-04-10T06:59:01Z</time>
      </trkpt>
      <trkpt lat="48.12662" lon="-3.07995">
        <ele>151.8</ele>
        <time>2023-04-10T06:59:02Z</time>
      </trkpt>
      <trkpt lat="48.12664" lon="-3.07998">
        <ele>152.2</ele>
        <time>2023-04-10T06:59:03Z</time>
      </trkpt>
      <trkpt lat="48.12666" lon="-3.08001">
        <ele>152.4</ele>
        <time>2023-04-10T06:59:04Z</time>
      </trkpt>
      <trkpt lat="48.12669" lon="-3.08004">
        <ele>152.4</ele>
        <time>2023-04-10T06:59:05Z</time>
      </trkpt>
      <trkpt lat="48.12671" lon="-3.08007">
        <ele>152.6</ele>
        <time>2023-04-10T06:59:06Z</time>
      </trkpt>
      <trkpt lat="48.12673" lon="-3.0801">
        <ele>152.8</ele>
        <time>2023-04-10T06:59:07Z</time>
      </trkpt>
      <trkpt lat="48.12675" lon="-3.08013">
        <ele>153.2</ele>
        <time>2023-04-10T06:59:08Z</time>
      </trkpt>
      <trkpt lat="48.12678" lon="-3.08016">
        <ele>153.4</ele>
        <time>2023-04-10T06:59:09Z</time>
      </trkpt>
      <trkpt lat="48.1268" lon="-3.08019">
        <ele>153.8</ele>
        <time>2023-04-10T06:59:10Z</time>
      </trkpt>
      <trkpt lat="48.12682" lon="-3.08021">
        <ele>154</ele>
        <time>2023-04-10T06:59:11Z</time>
      </trkpt>
      <trkpt lat="48.12685" lon="-3.08024">
        <ele>154.4</ele>
        <time>2023-04-10T06:59:12Z</time>
      </trkpt>
      <trkpt lat="48.12687" lon="-3.08027">
        <ele>154.4</ele>
        <time>2023-04-10T06:59:13Z</time>
      </trkpt>
      <trkpt lat="48.12689" lon="-3.08029">
        <ele>154.8</ele>
        <time>2023-04-10T06:59:14Z</time>
      </trkpt>
      <trkpt lat="48.12692" lon="-3.0803">
        <ele>155</ele>
        <time>2023-04-10T06:59:15Z</time>
      </trkpt>
      <trkpt lat="48.12695" lon="-3.08032">
        <ele>155.4</ele>
        <time>2023-04-10T06:59:16Z</time>
      </trkpt>
      <trkpt lat="48.12698" lon="-3.08033">
        <ele>155.8</ele>
        <time>2023-04-10T06:59:17Z</time>
      </trkpt>
      <trkpt lat="48.127" lon="-3.08034">
        <ele>156</ele>
        <time>2023-04-10T06:59:18Z</time>
      </trkpt>
      <trkpt lat="48.12703" lon="-3.08034">
        <ele>156.2</ele>
        <time>2023-04-10T06:59:19Z</time>
      </trkpt>
      <trkpt lat="48.12706" lon="-3.08034">
        <ele>156.6</ele>
        <time>2023-04-10T06:59:20Z</time>
      </trkpt>
      <trkpt lat="48.12708" lon="-3.08034">
        <ele>157</ele>
        <time>2023-04-10T06:59:21Z</time>
      </trkpt>
      <trkpt lat="48.12711" lon="-3.08034">
        <ele>157.2</ele>
        <time>2023-04-10T06:59:22Z</time>
      </trkpt>
      <trkpt lat="48.12714" lon="-3.08035">
        <ele>157.6</ele>
        <time>2023-04-10T06:59:23Z</time>
      </trkpt>
      <trkpt lat="48.12717" lon="-3.08035">
        <ele>157.8</ele>
        <time>2023-04-10T06:59:24Z</time>
      </trkpt>
      <trkpt lat="48.12719" lon="-3.08035">
        <ele>158.2</ele>
        <time>2023-04-10T06:59:25Z</time>
      </trkpt>
      <trkpt lat="48.12722" lon="-3.08034">
        <ele>158.4</ele>
        <time>2023-04-10T06:59:26Z</time>
      </trkpt>
      <trkpt lat="48.12725" lon="-3.08034">
        <ele>158.6</ele>
        <time>2023-04-10T06:59:27Z</time>
      </trkpt>
      <trkpt lat="48.12728" lon="-3.08034">
        <ele>159</ele>
        <time>2023-04-10T06:59:28Z</time>
      </trkpt>
      <trkpt lat="48.12731" lon="-3.08034">
        <ele>159.4</ele>
        <time>2023-04-10T06:59:29Z</time>
      </trkpt>
      <trkpt lat="48.12734" lon="-3.08034">
        <ele>159.6</ele>
        <time>2023-04-10T06:59:30Z</time>
      </trkpt>
      <trkpt lat="48.12736" lon="-3.08035">
        <ele>159.8</ele>
        <time>2023-04-10T06:59:31Z</time>
      </trkpt>
      <trkpt lat="48.12739" lon="-3.08035">
        <ele>160</ele>
        <time>2023-04-10T06:59:32Z</time>
      </trkpt>
      <trkpt lat="48.12742" lon="-3.08035">
        <ele>160.2</ele>
        <time>2023-04-10T06:59:33Z</time>
      </trkpt>
      <trkpt lat="48.12745" lon="-3.08034">
        <ele>160.4</ele>
        <time>2023-04-10T06:59:34Z</time>
      </trkpt>
      <trkpt lat="48.12747" lon="-3.08033">
        <ele>160.4</ele>
        <time>2023-04-10T06:59:35Z</time>
      </trkpt>
      <trkpt lat="48.1275" lon="-3.08032">
        <ele>160.6</ele>
        <time>2023-04-10T06:59:36Z</time>
      </trkpt>
      <trkpt lat="48.12752" lon="-3.0803">
        <ele>160.6</ele>
        <time>2023-04-10T06:59:37Z</time>
      </trkpt>
      <trkpt lat="48.12754" lon="-3.08027">
        <ele>160.8</ele>
        <time>2023-04-10T06:59:38Z</time>
      </trkpt>
      <trkpt lat="48.12757" lon="-3.08023">
        <ele>161</ele>
        <time>2023-04-10T06:59:39Z</time>
      </trkpt>
      <trkpt lat="48.12758" lon="-3.08019">
        <ele>161.2</ele>
        <time>2023-04-10T06:59:40Z</time>
      </trkpt>
      <trkpt lat="48.1276" lon="-3.08015">
        <ele>161.4</ele>
        <time>2023-04-10T06:59:41Z</time>
      </trkpt>
      <trkpt lat="48.12761" lon="-3.0801">
        <ele>161.6</ele>
        <time>2023-04-10T06:59:42Z</time>
      </trkpt>
      <trkpt lat="48.12762" lon="-3.08005">
        <ele>161.8</ele>
        <time>2023-04-10T06:59:43Z</time>
      </trkpt>
      <trkpt lat="48.12764" lon="-3.08">
        <ele>162.2</ele>
        <time>2023-04-10T06:59:44Z</time>
      </trkpt>
      <trkpt lat="48.12765" lon="-3.07995">
        <ele>162.8</ele>
        <time>2023-04-10T06:59:45Z</time>
      </trkpt>
      <trkpt lat="48.12766" lon="-3.07989">
        <ele>162.8</ele>
        <time>2023-04-10T06:59:46Z</time>
      </trkpt>
      <trkpt lat="48.12767" lon="-3.07984">
        <ele>163.2</ele>
        <time>2023-04-10T06:59:47Z</time>
      </trkpt>
      <trkpt lat="48.12768" lon="-3.07978">
        <ele>163.4</ele>
        <time>2023-04-10T06:59:48Z</time>
      </trkpt>
      <trkpt lat="48.12769" lon="-3.07972">
        <ele>163.4</ele>
        <time>2023-04-10T06:59:49Z</time>
      </trkpt>
      <trkpt lat="48.12771" lon="-3.07967">
        <ele>163.6</ele>
        <time>2023-04-10T06:59:50Z</time>
      </trkpt>
      <trkpt lat="48.12772" lon="-3.07961">
        <ele>163.6</ele>
        <time>2023-04-10T06:59:51Z</time>
      </trkpt>
      <trkpt lat="48.12773" lon="-3.07955">
        <ele>163.8</ele>
        <time>2023-04-10T06:59:52Z</time>
      </trkpt>
      <trkpt lat="48.12775" lon="-3.07949">
        <ele>163.8</ele>
        <time>2023-04-10T06:59:53Z</time>
      </trkpt>
      <trkpt lat="48.12776" lon="-3.07943">
        <ele>163.8</ele>
        <time>2023-04-10T06:59:54Z</time>
      </trkpt>
      <trkpt lat="48.12777" lon="-3.07937">
        <ele>163.8</ele>
        <time>2023-04-10T06:59:55Z</time>
      </trkpt>
      <trkpt lat="48.12779" lon="-3.07931">
        <ele>164</ele>
        <time>2023-04-10T06:59:56Z</time>
      </trkpt>
      <trkpt lat="48.12781" lon="-3.07925">
        <ele>164</ele>
        <time>2023-04-10T06:59:57Z</time>
      </trkpt>
      <trkpt lat="48.12782" lon="-3.07919">
        <ele>164</ele>
        <time>2023-04-10T06:59:58Z</time>
      </trkpt>
      <trkpt lat="48.12783" lon="-3.07913">
        <ele>164</ele>
        <time>2023-04-10T06:59:59Z</time>
      </trkpt>
      <trkpt lat="48.12785" lon="-3.07908">
        <ele>164.2</ele>
        <time>2023-04-10T07:00:00Z</time>
      </trkpt>
      <trkpt lat="48.12786" lon="-3.07903">
        <ele>164.4</ele>
        <time>2023-04-10T07:00:01Z</time>
      </trkpt>
      <trkpt lat="48.12788" lon="-3.07898">
        <ele>164.4</ele>
        <time>2023-04-10T07:00:02Z</time>
      </trkpt>
      <trkpt lat="48.12792" lon="-3.07895">
        <ele>164.6</ele>
        <time>2023-04-10T07:00:03Z</time>
      </trkpt>
      <trkpt lat="48.12795" lon="-3.07892">
        <ele>164.6</ele>
        <time>2023-04-10T07:00:04Z</time>
      </trkpt>
      <trkpt lat="48.12798" lon="-3.07891">
        <ele>164.6</ele>
        <time>2023-04-10T07:00:05Z</time>
      </trkpt>
      <trkpt lat="48.12801" lon="-3.0789">
        <ele>164.8</ele>
        <time>2023-04-10T07:00:06Z</time>
      </trkpt>
      <trkpt lat="48.12804" lon="-3.07891">
        <ele>164.8</ele>
        <time>2023-04-10T07:00:07Z</time>
      </trkpt>
      <trkpt lat="48.12807" lon="-3.07893">
        <ele>164.8</ele>
        <time>2023-04-10T07:00:08Z</time>
      </trkpt>
      <trkpt lat="48.12811" lon="-3.07894">
        <ele>164.8</ele>
        <time>2023-04-10T07:00:09Z</time>
      </trkpt>
      <trkpt lat="48.12814" lon="-3.07895">
        <ele>164.8</ele>
        <time>2023-04-10T07:00:10Z</time>
      </trkpt>
      <trkpt lat="48.12817" lon="-3.07897">
        <ele>164.8</ele>
        <time>2023-04-10T07:00:11Z</time>
      </trkpt>
      <trkpt lat="48.1282" lon="-3.07896">
        <ele>165</ele>
        <time>2023-04-10T07:00:12Z</time>
      </trkpt>
      <trkpt lat="48.12822" lon="-3.07894">
        <ele>165</ele>
        <time>2023-04-10T07:00:13Z</time>
      </trkpt>
      <trkpt lat="48.12824" lon="-3.0789">
        <ele>165</ele>
        <time>2023-04-10T07:00:14Z</time>
      </trkpt>
      <trkpt lat="48.12825" lon="-3.07886">
        <ele>165.2</ele>
        <time>2023-04-10T07:00:15Z</time>
      </trkpt>
      <trkpt lat="48.12827" lon="-3.07881">
        <ele>165.6</ele>
        <time>2023-04-10T07:00:16Z</time>
      </trkpt>
      <trkpt lat="48.12829" lon="-3.07869">
        <ele>166</ele>
        <time>2023-04-10T07:00:18Z</time>
      </trkpt>
      <trkpt lat="48.12837" lon="-3.07828">
        <ele>166.2</ele>
        <time>2023-04-10T07:00:24Z</time>
      </trkpt>
      <trkpt lat="48.12839" lon="-3.07821">
        <ele>166.2</ele>
        <time>2023-04-10T07:00:25Z</time>
      </trkpt>
      <trkpt lat="48.12841" lon="-3.07815">
        <ele>166.2</ele>
        <time>2023-04-10T07:00:26Z</time>
      </trkpt>
      <trkpt lat="48.12843" lon="-3.07811">
        <ele>166.2</ele>
        <time>2023-04-10T07:00:27Z</time>
      </trkpt>
      <trkpt lat="48.12846" lon="-3.07811">
        <ele>166.2</ele>
        <time>2023-04-10T07:00:28Z</time>
      </trkpt>
      <trkpt lat="48.12849" lon="-3.07813">
        <ele>166.4</ele>
        <time>2023-04-10T07:00:29Z</time>
      </trkpt>
      <trkpt lat="48.12851" lon="-3.07818">
        <ele>166.4</ele>
        <time>2023-04-10T07:00:30Z</time>
      </trkpt>
      <trkpt lat="48.12854" lon="-3.07824">
        <ele>166.4</ele>
        <time>2023-04-10T07:00:31Z</time>
      </trkpt>
      <trkpt lat="48.12856" lon="-3.07829">
        <ele>166.4</ele>
        <time>2023-04-10T07:00:32Z</time>
      </trkpt>
      <trkpt lat="48.12858" lon="-3.07835">
        <ele>166.4</ele>
        <time>2023-04-10T07:00:33Z</time>
      </trkpt>
      <trkpt lat="48.12871" lon="-3.07862">
        <ele>166.4</ele>
        <time>2023-04-10T07:00:38Z</time>
      </trkpt>
      <trkpt lat="48.12876" lon="-3.07872">
        <ele>166.6</ele>
        <time>2023-04-10T07:00:40Z</time>
      </trkpt>
      <trkpt lat="48.12885" lon="-3.07887">
        <ele>166.6</ele>
        <time>2023-04-10T07:00:43Z</time>
      </trkpt>
      <trkpt lat="48.12893" lon="-3.07902">
        <ele>167</ele>
        <time>2023-04-10T07:00:46Z</time>
      </trkpt>
      <trkpt lat="48.12906" lon="-3.07931">
        <ele>167.4</ele>
        <time>2023-04-10T07:00:51Z</time>
      </trkpt>
      <trkpt lat="48.12921" lon="-3.07965">
        <ele>168</ele>
        <time>2023-04-10T07:00:57Z</time>
      </trkpt>
      <trkpt lat="48.12926" lon="-3.07976">
        <ele>168.6</ele>
        <time>2023-04-10T07:00:59Z</time>
      </trkpt>
      <trkpt lat="48.1293" lon="-3.0798">
        <ele>168.8</ele>
        <time>2023-04-10T07:01:00Z</time>
      </trkpt>
      <trkpt lat="48.12933" lon="-3.07983">
        <ele>169</ele>
        <time>2023-04-10T07:01:01Z</time>
      </trkpt>
      <trkpt lat="48.12937" lon="-3.07986">
        <ele>169.4</ele>
        <time>2023-04-10T07:01:02Z</time>
      </trkpt>
      <trkpt lat="48.12942" lon="-3.07988">
        <ele>169.4</ele>
        <time>2023-04-10T07:01:03Z</time>
      </trkpt>
      <trkpt lat="48.12952" lon="-3.07992">
        <ele>169.6</ele>
        <time>2023-04-10T07:01:05Z</time>
      </trkpt>
      <trkpt lat="48.12957" lon="-3.07993">
        <ele>169.8</ele>
        <time>2023-04-10T07:01:06Z</time>
      </trkpt>
      <trkpt lat="48.12962" lon="-3.07994">
        <ele>169.8</ele>
        <time>2023-04-10T07:01:07Z</time>
      </trkpt>
      <trkpt lat="48.12968" lon="-3.07995">
        <ele>169.8</ele>
        <time>2023-04-10T07:01:08Z</time>
      </trkpt>
      <trkpt lat="48.12973" lon="-3.07995">
        <ele>169.8</ele>
        <time>2023-04-10T07:01:09Z</time>
      </trkpt>
      <trkpt lat="48.12979" lon="-3.07995">
        <ele>169.8</ele>
        <time>2023-04-10T07:01:10Z</time>
      </trkpt>
      <trkpt lat="48.12985" lon="-3.07994">
        <ele>169.8</ele>
        <time>2023-04-10T07:01:11Z</time>
      </trkpt>
      <trkpt lat="48.12991" lon="-3.07994">
        <ele>169.8</ele>
        <time>2023-04-10T07:01:12Z</time>
      </trkpt>
      <trkpt lat="48.12998" lon="-3.07993">
        <ele>169.8</ele>
        <time>2023-04-10T07:01:13Z</time>
      </trkpt>
      <trkpt lat="48.13005" lon="-3.07992">
        <ele>169.8</ele>
        <time>2023-04-10T07:01:14Z</time>
      </trkpt>
      <trkpt lat="48.13012" lon="-3.0799">
        <ele>169.8</ele>
        <time>2023-04-10T07:01:15Z</time>
      </trkpt>
      <trkpt lat="48.1302" lon="-3.07988">
        <ele>169.8</ele>
        <time>2023-04-10T07:01:16Z</time>
      </trkpt>
      <trkpt lat="48.13054" lon="-3.0798">
        <ele>169.4</ele>
        <time>2023-04-10T07:01:20Z</time>
      </trkpt>
      <trkpt lat="48.13063" lon="-3.0798">
        <ele>169.2</ele>
        <time>2023-04-10T07:01:21Z</time>
      </trkpt>
      <trkpt lat="48.13071" lon="-3.07981">
        <ele>168.8</ele>
        <time>2023-04-10T07:01:22Z</time>
      </trkpt>
      <trkpt lat="48.13079" lon="-3.07982">
        <ele>168.4</ele>
        <time>2023-04-10T07:01:23Z</time>
      </trkpt>
      <trkpt lat="48.13086" lon="-3.07984">
        <ele>168</ele>
        <time>2023-04-10T07:01:24Z</time>
      </trkpt>
      <trkpt lat="48.13093" lon="-3.07985">
        <ele>167.4</ele>
        <time>2023-04-10T07:01:25Z</time>
      </trkpt>
      <trkpt lat="48.13098" lon="-3.07986">
        <ele>167.4</ele>
        <time>2023-04-10T07:01:26Z</time>
      </trkpt>
      <trkpt lat="48.13104" lon="-3.07982">
        <ele>166.6</ele>
        <time>2023-04-10T07:01:27Z</time>
      </trkpt>
      <trkpt lat="48.13109" lon="-3.07975">
        <ele>165.6</ele>
        <time>2023-04-10T07:01:28Z</time>
      </trkpt>
      <trkpt lat="48.13112" lon="-3.07966">
        <ele>164.6</ele>
        <time>2023-04-10T07:01:29Z</time>
      </trkpt>
      <trkpt lat="48.13114" lon="-3.07956">
        <ele>163.6</ele>
        <time>2023-04-10T07:01:30Z</time>
      </trkpt>
      <trkpt lat="48.13116" lon="-3.07945">
        <ele>162.4</ele>
        <time>2023-04-10T07:01:31Z</time>
      </trkpt>
      <trkpt lat="48.13118" lon="-3.07936">
        <ele>161.4</ele>
        <time>2023-04-10T07:01:32Z</time>
      </trkpt>
      <trkpt lat="48.13122" lon="-3.07927">
        <ele>160.2</ele>
        <time>2023-04-10T07:01:33Z</time>
      </trkpt>
      <trkpt lat="48.13127" lon="-3.07921">
        <ele>159.2</ele>
        <time>2023-04-10T07:01:34Z</time>
      </trkpt>
      <trkpt lat="48.13132" lon="-3.07918">
        <ele>158</ele>
        <time>2023-04-10T07:01:35Z</time>
      </trkpt>
      <trkpt lat="48.13139" lon="-3.07915">
        <ele>157.2</ele>
        <time>2023-04-10T07:01:36Z</time>
      </trkpt>
      <trkpt lat="48.13146" lon="-3.07914">
        <ele>156.4</ele>
        <time>2023-04-10T07:01:37Z</time>
      </trkpt>
      <trkpt lat="48.13155" lon="-3.07913">
        <ele>155.6</ele>
        <time>2023-04-10T07:01:38Z</time>
      </trkpt>
      <trkpt lat="48.13164" lon="-3.07913">
        <ele>155.4</ele>
        <time>2023-04-10T07:01:39Z</time>
      </trkpt>
      <trkpt lat="48.13181" lon="-3.07915">
        <ele>155</ele>
        <time>2023-04-10T07:01:41Z</time>
      </trkpt>
      <trkpt lat="48.1319" lon="-3.07919">
        <ele>154.8</ele>
        <time>2023-04-10T07:01:42Z</time>
      </trkpt>
      <trkpt lat="48.13206" lon="-3.07928">
        <ele>154.4</ele>
        <time>2023-04-10T07:01:44Z</time>
      </trkpt>
      <trkpt lat="48.13215" lon="-3.07932">
        <ele>153.8</ele>
        <time>2023-04-10T07:01:45Z</time>
      </trkpt>
      <trkpt lat="48.13224" lon="-3.07934">
        <ele>153.2</ele>
        <time>2023-04-10T07:01:46Z</time>
      </trkpt>
      <trkpt lat="48.13232" lon="-3.07935">
        <ele>152.4</ele>
        <time>2023-04-10T07:01:47Z</time>
      </trkpt>
      <trkpt lat="48.13241" lon="-3.07935">
        <ele>152.4</ele>
        <time>2023-04-10T07:01:48Z</time>
      </trkpt>
      <trkpt lat="48.13248" lon="-3.07936">
        <ele>152</ele>
        <time>2023-04-10T07:01:49Z</time>
      </trkpt>
      <trkpt lat="48.13256" lon="-3.07937">
        <ele>151.2</ele>
        <time>2023-04-10T07:01:50Z</time>
      </trkpt>
      <trkpt lat="48.13263" lon="-3.07937">
        <ele>150.6</ele>
        <time>2023-04-10T07:01:51Z</time>
      </trkpt>
      <trkpt lat="48.13269" lon="-3.07938">
        <ele>149.6</ele>
        <time>2023-04-10T07:01:52Z</time>
      </trkpt>
      <trkpt lat="48.13276" lon="-3.07938">
        <ele>148.6</ele>
        <time>2023-04-10T07:01:53Z</time>
      </trkpt>
      <trkpt lat="48.13282" lon="-3.07939">
        <ele>147.8</ele>
        <time>2023-04-10T07:01:54Z</time>
      </trkpt>
      <trkpt lat="48.13288" lon="-3.07939">
        <ele>147.2</ele>
        <time>2023-04-10T07:01:55Z</time>
      </trkpt>
      <trkpt lat="48.13293" lon="-3.0794">
        <ele>146.8</ele>
        <time>2023-04-10T07:01:56Z</time>
      </trkpt>
      <trkpt lat="48.13299" lon="-3.07941">
        <ele>146.6</ele>
        <time>2023-04-10T07:01:57Z</time>
      </trkpt>
      <trkpt lat="48.13311" lon="-3.07941">
        <ele>146.6</ele>
        <time>2023-04-10T07:01:59Z</time>
      </trkpt>
      <trkpt lat="48.13317" lon="-3.07942">
        <ele>146.4</ele>
        <time>2023-04-10T07:02:00Z</time>
      </trkpt>
      <trkpt lat="48.13342" lon="-3.07945">
        <ele>146.4</ele>
        <time>2023-04-10T07:02:04Z</time>
      </trkpt>
      <trkpt lat="48.13357" lon="-3.07946">
        <ele>146.2</ele>
        <time>2023-04-10T07:02:06Z</time>
      </trkpt>
      <trkpt lat="48.13397" lon="-3.07947">
        <ele>146.2</ele>
        <time>2023-04-10T07:02:11Z</time>
      </trkpt>
      <trkpt lat="48.13422" lon="-3.0795">
        <ele>145.4</ele>
        <time>2023-04-10T07:02:14Z</time>
      </trkpt>
      <trkpt lat="48.1343" lon="-3.07951">
        <ele>145.2</ele>
        <time>2023-04-10T07:02:15Z</time>
      </trkpt>
      <trkpt lat="48.13438" lon="-3.07951">
        <ele>144.6</ele>
        <time>2023-04-10T07:02:16Z</time>
      </trkpt>
      <trkpt lat="48.13447" lon="-3.0795">
        <ele>143.8</ele>
        <time>2023-04-10T07:02:17Z</time>
      </trkpt>
      <trkpt lat="48.13455" lon="-3.07949">
        <ele>143.4</ele>
        <time>2023-04-10T07:02:18Z</time>
      </trkpt>
      <trkpt lat="48.13462" lon="-3.07945">
        <ele>142.8</ele>
        <time>2023-04-10T07:02:19Z</time>
      </trkpt>
      <trkpt lat="48.13469" lon="-3.07938">
        <ele>142.4</ele>
        <time>2023-04-10T07:02:20Z</time>
      </trkpt>
      <trkpt lat="48.13474" lon="-3.07931">
        <ele>142</ele>
        <time>2023-04-10T07:02:21Z</time>
      </trkpt>
      <trkpt lat="48.13478" lon="-3.07922">
        <ele>141.8</ele>
        <time>2023-04-10T07:02:22Z</time>
      </trkpt>
      <trkpt lat="48.13481" lon="-3.07913">
        <ele>141.6</ele>
        <time>2023-04-10T07:02:23Z</time>
      </trkpt>
      <trkpt lat="48.13484" lon="-3.07904">
        <ele>141.4</ele>
        <time>2023-04-10T07:02:24Z</time>
      </trkpt>
      <trkpt lat="48.13487" lon="-3.07896">
        <ele>141</ele>
        <time>2023-04-10T07:02:25Z</time>
      </trkpt>
      <trkpt lat="48.1349" lon="-3.07887">
        <ele>140.6</ele>
        <time>2023-04-10T07:02:26Z</time>
      </trkpt>
      <trkpt lat="48.13504" lon="-3.07852">
        <ele>140.2</ele>
        <time>2023-04-10T07:02:30Z</time>
      </trkpt>
      <trkpt lat="48.13523" lon="-3.07802">
        <ele>139.8</ele>
        <time>2023-04-10T07:02:35Z</time>
      </trkpt>
      <trkpt lat="48.13541" lon="-3.07757">
        <ele>139.6</ele>
        <time>2023-04-10T07:02:39Z</time>
      </trkpt>
      <trkpt lat="48.13551" lon="-3.07732">
        <ele>139</ele>
        <time>2023-04-10T07:02:41Z</time>
      </trkpt>
      <trkpt lat="48.13561" lon="-3.07705">
        <ele>138.2</ele>
        <time>2023-04-10T07:02:43Z</time>
      </trkpt>
      <trkpt lat="48.13572" lon="-3.07678">
        <ele>137.2</ele>
        <time>2023-04-10T07:02:45Z</time>
      </trkpt>
      <trkpt lat="48.13584" lon="-3.07651">
        <ele>136</ele>
        <time>2023-04-10T07:02:47Z</time>
      </trkpt>
      <trkpt lat="48.13595" lon="-3.07624">
        <ele>134.8</ele>
        <time>2023-04-10T07:02:49Z</time>
      </trkpt>
      <trkpt lat="48.13601" lon="-3.0761">
        <ele>134.2</ele>
        <time>2023-04-10T07:02:50Z</time>
      </trkpt>
      <trkpt lat="48.13606" lon="-3.07596">
        <ele>133.4</ele>
        <time>2023-04-10T07:02:51Z</time>
      </trkpt>
      <trkpt lat="48.13612" lon="-3.07583">
        <ele>132.6</ele>
        <time>2023-04-10T07:02:52Z</time>
      </trkpt>
      <trkpt lat="48.13618" lon="-3.07571">
        <ele>132</ele>
        <time>2023-04-10T07:02:53Z</time>
      </trkpt>
      <trkpt lat="48.13623" lon="-3.07558">
        <ele>131.4</ele>
        <time>2023-04-10T07:02:54Z</time>
      </trkpt>
      <trkpt lat="48.13629" lon="-3.07546">
        <ele>130.8</ele>
        <time>2023-04-10T07:02:55Z</time>
      </trkpt>
      <trkpt lat="48.13634" lon="-3.07534">
        <ele>130.4</ele>
        <time>2023-04-10T07:02:56Z</time>
      </trkpt>
      <trkpt lat="48.13639" lon="-3.07522">
        <ele>130.4</ele>
        <time>2023-04-10T07:02:57Z</time>
      </trkpt>
      <trkpt lat="48.13645" lon="-3.0751">
        <ele>129.8</ele>
        <time>2023-04-10T07:02:58Z</time>
      </trkpt>
      <trkpt lat="48.1366" lon="-3.07476">
        <ele>128.2</ele>
        <time>2023-04-10T07:03:01Z</time>
      </trkpt>
      <trkpt lat="48.13665" lon="-3.07465">
        <ele>127.8</ele>
        <time>2023-04-10T07:03:02Z</time>
      </trkpt>
      <trkpt lat="48.1367" lon="-3.07456">
        <ele>127.2</ele>
        <time>2023-04-10T07:03:03Z</time>
      </trkpt>
      <trkpt lat="48.13673" lon="-3.07449">
        <ele>127</ele>
        <time>2023-04-10T07:03:04Z</time>
      </trkpt>
      <trkpt lat="48.13677" lon="-3.07445">
        <ele>126.6</ele>
        <time>2023-04-10T07:03:05Z</time>
      </trkpt>
      <trkpt lat="48.13681" lon="-3.07444">
        <ele>126.4</ele>
        <time>2023-04-10T07:03:06Z</time>
      </trkpt>
      <trkpt lat="48.13685" lon="-3.07447">
        <ele>126.2</ele>
        <time>2023-04-10T07:03:07Z</time>
      </trkpt>
      <trkpt lat="48.1369" lon="-3.07453">
        <ele>126</ele>
        <time>2023-04-10T07:03:08Z</time>
      </trkpt>
      <trkpt lat="48.137" lon="-3.07465">
        <ele>124.6</ele>
        <time>2023-04-10T07:03:10Z</time>
      </trkpt>
      <trkpt lat="48.13705" lon="-3.07471">
        <ele>124</ele>
        <time>2023-04-10T07:03:11Z</time>
      </trkpt>
      <trkpt lat="48.13711" lon="-3.07477">
        <ele>123.4</ele>
        <time>2023-04-10T07:03:12Z</time>
      </trkpt>
      <trkpt lat="48.13724" lon="-3.0749">
        <ele>122.2</ele>
        <time>2023-04-10T07:03:14Z</time>
      </trkpt>
      <trkpt lat="48.13737" lon="-3.07503">
        <ele>121.2</ele>
        <time>2023-04-10T07:03:16Z</time>
      </trkpt>
      <trkpt lat="48.13744" lon="-3.07509">
        <ele>120.8</ele>
        <time>2023-04-10T07:03:17Z</time>
      </trkpt>
      <trkpt lat="48.13765" lon="-3.07531">
        <ele>119.6</ele>
        <time>2023-04-10T07:03:20Z</time>
      </trkpt>
      <trkpt lat="48.13795" lon="-3.07562">
        <ele>118.4</ele>
        <time>2023-04-10T07:03:24Z</time>
      </trkpt>
      <trkpt lat="48.13817" lon="-3.07584">
        <ele>117.4</ele>
        <time>2023-04-10T07:03:27Z</time>
      </trkpt>
      <trkpt lat="48.1384" lon="-3.07608">
        <ele>116.6</ele>
        <time>2023-04-10T07:03:30Z</time>
      </trkpt>
      <trkpt lat="48.13848" lon="-3.07615">
        <ele>116.2</ele>
        <time>2023-04-10T07:03:31Z</time>
      </trkpt>
      <trkpt lat="48.13876" lon="-3.0764">
        <ele>115</ele>
        <time>2023-04-10T07:03:34Z</time>
      </trkpt>
      <trkpt lat="48.13895" lon="-3.07659">
        <ele>114.2</ele>
        <time>2023-04-10T07:03:36Z</time>
      </trkpt>
      <trkpt lat="48.13905" lon="-3.07668">
        <ele>113.8</ele>
        <time>2023-04-10T07:03:37Z</time>
      </trkpt>
      <trkpt lat="48.13914" lon="-3.07677">
        <ele>113</ele>
        <time>2023-04-10T07:03:38Z</time>
      </trkpt>
      <trkpt lat="48.13921" lon="-3.07683">
        <ele>112.4</ele>
        <time>2023-04-10T07:03:39Z</time>
      </trkpt>
      <trkpt lat="48.13931" lon="-3.07693">
        <ele>111.2</ele>
        <time>2023-04-10T07:03:40Z</time>
      </trkpt>
      <trkpt lat="48.13939" lon="-3.077">
        <ele>110.2</ele>
        <time>2023-04-10T07:03:41Z</time>
      </trkpt>
      <trkpt lat="48.13947" lon="-3.07708">
        <ele>109</ele>
        <time>2023-04-10T07:03:42Z</time>
      </trkpt>
      <trkpt lat="48.13955" lon="-3.07715">
        <ele>108.2</ele>
        <time>2023-04-10T07:03:43Z</time>
      </trkpt>
      <trkpt lat="48.13962" lon="-3.07722">
        <ele>107.8</ele>
        <time>2023-04-10T07:03:44Z</time>
      </trkpt>
      <trkpt lat="48.13969" lon="-3.07728">
        <ele>107.8</ele>
        <time>2023-04-10T07:03:45Z</time>
      </trkpt>
      <trkpt lat="48.13976" lon="-3.07735">
        <ele>107.2</ele>
        <time>2023-04-10T07:03:46Z</time>
      </trkpt>
      <trkpt lat="48.13983" lon="-3.07741">
        <ele>106.8</ele>
        <time>2023-04-10T07:03:47Z</time>
      </trkpt>
      <trkpt lat="48.1399" lon="-3.07748">
        <ele>106.6</ele>
        <time>2023-04-10T07:03:48Z</time>
      </trkpt>
      <trkpt lat="48.13996" lon="-3.07753">
        <ele>106.6</ele>
        <time>2023-04-10T07:03:49Z</time>
      </trkpt>
      <trkpt lat="48.14002" lon="-3.07759">
        <ele>106.4</ele>
        <time>2023-04-10T07:03:50Z</time>
      </trkpt>
      <trkpt lat="48.14007" lon="-3.07763">
        <ele>106.4</ele>
        <time>2023-04-10T07:03:51Z</time>
      </trkpt>
      <trkpt lat="48.14014" lon="-3.0777">
        <ele>106.4</ele>
        <time>2023-04-10T07:03:52Z</time>
      </trkpt>
      <trkpt lat="48.14019" lon="-3.07775">
        <ele>106.4</ele>
        <time>2023-04-10T07:03:53Z</time>
      </trkpt>
      <trkpt lat="48.14024" lon="-3.0778">
        <ele>106.4</ele>
        <time>2023-04-10T07:03:54Z</time>
      </trkpt>
      <trkpt lat="48.1403" lon="-3.07784">
        <ele>106.4</ele>
        <time>2023-04-10T07:03:55Z</time>
      </trkpt>
      <trkpt lat="48.14035" lon="-3.07789">
        <ele>106.4</ele>
        <time>2023-04-10T07:03:56Z</time>
      </trkpt>
      <trkpt lat="48.1404" lon="-3.07794">
        <ele>106.4</ele>
        <time>2023-04-10T07:03:57Z</time>
      </trkpt>
      <trkpt lat="48.14044" lon="-3.07798">
        <ele>106.4</ele>
        <time>2023-04-10T07:03:58Z</time>
      </trkpt>
      <trkpt lat="48.14049" lon="-3.07803">
        <ele>106.8</ele>
        <time>2023-04-10T07:03:59Z</time>
      </trkpt>
      <trkpt lat="48.14053" lon="-3.07806">
        <ele>107</ele>
        <time>2023-04-10T07:04:00Z</time>
      </trkpt>
      <trkpt lat="48.14067" lon="-3.0782">
        <ele>107.8</ele>
        <time>2023-04-10T07:04:03Z</time>
      </trkpt>
      <trkpt lat="48.14071" lon="-3.07824">
        <ele>108</ele>
        <time>2023-04-10T07:04:04Z</time>
      </trkpt>
      <trkpt lat="48.14075" lon="-3.07827">
        <ele>108.4</ele>
        <time>2023-04-10T07:04:05Z</time>
      </trkpt>
      <trkpt lat="48.14084" lon="-3.07835">
        <ele>108.6</ele>
        <time>2023-04-10T07:04:07Z</time>
      </trkpt>
      <trkpt lat="48.14092" lon="-3.07843">
        <ele>109</ele>
        <time>2023-04-10T07:04:09Z</time>
      </trkpt>
      <trkpt lat="48.14104" lon="-3.07855">
        <ele>109.6</ele>
        <time>2023-04-10T07:04:12Z</time>
      </trkpt>
      <trkpt lat="48.14107" lon="-3.07858">
        <ele>109.6</ele>
        <time>2023-04-10T07:04:13Z</time>
      </trkpt>
      <trkpt lat="48.14112" lon="-3.07862">
        <ele>109.6</ele>
        <time>2023-04-10T07:04:14Z</time>
      </trkpt>
      <trkpt lat="48.14116" lon="-3.07866">
        <ele>109.8</ele>
        <time>2023-04-10T07:04:15Z</time>
      </trkpt>
      <trkpt lat="48.1412" lon="-3.07871">
        <ele>109.8</ele>
        <time>2023-04-10T07:04:16Z</time>
      </trkpt>
      <trkpt lat="48.14124" lon="-3.07875">
        <ele>109.8</ele>
        <time>2023-04-10T07:04:17Z</time>
      </trkpt>
      <trkpt lat="48.14128" lon="-3.07879">
        <ele>110</ele>
        <time>2023-04-10T07:04:18Z</time>
      </trkpt>
      <trkpt lat="48.14132" lon="-3.07883">
        <ele>110.2</ele>
        <time>2023-04-10T07:04:19Z</time>
      </trkpt>
      <trkpt lat="48.14136" lon="-3.07886">
        <ele>110.4</ele>
        <time>2023-04-10T07:04:20Z</time>
      </trkpt>
      <trkpt lat="48.1414" lon="-3.0789">
        <ele>110.6</ele>
        <time>2023-04-10T07:04:21Z</time>
      </trkpt>
      <trkpt lat="48.14143" lon="-3.07894">
        <ele>111</ele>
        <time>2023-04-10T07:04:22Z</time>
      </trkpt>
      <trkpt lat="48.14146" lon="-3.07898">
        <ele>111.2</ele>
        <time>2023-04-10T07:04:23Z</time>
      </trkpt>
      <trkpt lat="48.1415" lon="-3.07902">
        <ele>111.6</ele>
        <time>2023-04-10T07:04:24Z</time>
      </trkpt>
      <trkpt lat="48.14153" lon="-3.07906">
        <ele>112</ele>
        <time>2023-04-10T07:04:25Z</time>
      </trkpt>
      <trkpt lat="48.14156" lon="-3.0791">
        <ele>112</ele>
        <time>2023-04-10T07:04:26Z</time>
      </trkpt>
      <trkpt lat="48.14158" lon="-3.07915">
        <ele>112.2</ele>
        <time>2023-04-10T07:04:27Z</time>
      </trkpt>
      <trkpt lat="48.1416" lon="-3.07921">
        <ele>112.4</ele>
        <time>2023-04-10T07:04:28Z</time>
      </trkpt>
      <trkpt lat="48.14161" lon="-3.07927">
        <ele>112.4</ele>
        <time>2023-04-10T07:04:29Z</time>
      </trkpt>
      <trkpt lat="48.14161" lon="-3.07933">
        <ele>112.4</ele>
        <time>2023-04-10T07:04:30Z</time>
      </trkpt>
      <trkpt lat="48.14161" lon="-3.07939">
        <ele>112.6</ele>
        <time>2023-04-10T07:04:31Z</time>
      </trkpt>
      <trkpt lat="48.14161" lon="-3.07946">
        <ele>112.8</ele>
        <time>2023-04-10T07:04:32Z</time>
      </trkpt>
      <trkpt lat="48.14162" lon="-3.07952">
        <ele>113.2</ele>
        <time>2023-04-10T07:04:33Z</time>
      </trkpt>
      <trkpt lat="48.14162" lon="-3.07958">
        <ele>113.4</ele>
        <time>2023-04-10T07:04:34Z</time>
      </trkpt>
      <trkpt lat="48.14163" lon="-3.07965">
        <ele>113.6</ele>
        <time>2023-04-10T07:04:35Z</time>
      </trkpt>
      <trkpt lat="48.14164" lon="-3.07971">
        <ele>113.8</ele>
        <time>2023-04-10T07:04:36Z</time>
      </trkpt>
      <trkpt lat="48.14164" lon="-3.07978">
        <ele>114</ele>
        <time>2023-04-10T07:04:37Z</time>
      </trkpt>
      <trkpt lat="48.14165" lon="-3.07984">
        <ele>114.2</ele>
        <time>2023-04-10T07:04:38Z</time>
      </trkpt>
      <trkpt lat="48.14165" lon="-3.07991">
        <ele>114.4</ele>
        <time>2023-04-10T07:04:39Z</time>
      </trkpt>
      <trkpt lat="48.14166" lon="-3.07997">
        <ele>114.6</ele>
        <time>2023-04-10T07:04:40Z</time>
      </trkpt>
      <trkpt lat="48.14166" lon="-3.08004">
        <ele>114.8</ele>
        <time>2023-04-10T07:04:41Z</time>
      </trkpt>
      <trkpt lat="48.14166" lon="-3.0801">
        <ele>115.2</ele>
        <time>2023-04-10T07:04:42Z</time>
      </trkpt>
      <trkpt lat="48.14167" lon="-3.08017">
        <ele>115.4</ele>
        <time>2023-04-10T07:04:43Z</time>
      </trkpt>
      <trkpt lat="48.14168" lon="-3.08024">
        <ele>115.4</ele>
        <time>2023-04-10T07:04:44Z</time>
      </trkpt>
      <trkpt lat="48.14168" lon="-3.08031">
        <ele>115.4</ele>
        <time>2023-04-10T07:04:45Z</time>
      </trkpt>
      <trkpt lat="48.14169" lon="-3.08038">
        <ele>115.6</ele>
        <time>2023-04-10T07:04:46Z</time>
      </trkpt>
      <trkpt lat="48.1417" lon="-3.08044">
        <ele>115.6</ele>
        <time>2023-04-10T07:04:47Z</time>
      </trkpt>
      <trkpt lat="48.1417" lon="-3.08051">
        <ele>115.6</ele>
        <time>2023-04-10T07:04:48Z</time>
      </trkpt>
      <trkpt lat="48.14171" lon="-3.08057">
        <ele>115.6</ele>
        <time>2023-04-10T07:04:49Z</time>
      </trkpt>
      <trkpt lat="48.14171" lon="-3.08064">
        <ele>115.6</ele>
        <time>2023-04-10T07:04:50Z</time>
      </trkpt>
      <trkpt lat="48.14172" lon="-3.0807">
        <ele>115.6</ele>
        <time>2023-04-10T07:04:51Z</time>
      </trkpt>
      <trkpt lat="48.14172" lon="-3.08077">
        <ele>115.8</ele>
        <time>2023-04-10T07:04:52Z</time>
      </trkpt>
      <trkpt lat="48.14173" lon="-3.08084">
        <ele>115.8</ele>
        <time>2023-04-10T07:04:53Z</time>
      </trkpt>
      <trkpt lat="48.14174" lon="-3.08091">
        <ele>115.8</ele>
        <time>2023-04-10T07:04:54Z</time>
      </trkpt>
      <trkpt lat="48.14174" lon="-3.08098">
        <ele>115.8</ele>
        <time>2023-04-10T07:04:55Z</time>
      </trkpt>
      <trkpt lat="48.14175" lon="-3.08104">
        <ele>116</ele>
        <time>2023-04-10T07:04:56Z</time>
      </trkpt>
      <trkpt lat="48.14175" lon="-3.0811">
        <ele>116</ele>
        <time>2023-04-10T07:04:57Z</time>
      </trkpt>
      <trkpt lat="48.14176" lon="-3.08117">
        <ele>116</ele>
        <time>2023-04-10T07:04:58Z</time>
      </trkpt>
      <trkpt lat="48.14177" lon="-3.08123">
        <ele>116.2</ele>
        <time>2023-04-10T07:04:59Z</time>
      </trkpt>
      <trkpt lat="48.14178" lon="-3.08129">
        <ele>116.2</ele>
        <time>2023-04-10T07:05:00Z</time>
      </trkpt>
      <trkpt lat="48.14178" lon="-3.08136">
        <ele>116.2</ele>
        <time>2023-04-10T07:05:01Z</time>
      </trkpt>
      <trkpt lat="48.14179" lon="-3.08142">
        <ele>116.2</ele>
        <time>2023-04-10T07:05:02Z</time>
      </trkpt>
      <trkpt lat="48.1418" lon="-3.08149">
        <ele>116.2</ele>
        <time>2023-04-10T07:05:03Z</time>
      </trkpt>
      <trkpt lat="48.14181" lon="-3.08155">
        <ele>116.6</ele>
        <time>2023-04-10T07:05:04Z</time>
      </trkpt>
      <trkpt lat="48.14181" lon="-3.08161">
        <ele>116.6</ele>
        <time>2023-04-10T07:05:05Z</time>
      </trkpt>
      <trkpt lat="48.14185" lon="-3.08195">
        <ele>116.6</ele>
        <time>2023-04-10T07:05:10Z</time>
      </trkpt>
      <trkpt lat="48.14185" lon="-3.08201">
        <ele>116.8</ele>
        <time>2023-04-10T07:05:11Z</time>
      </trkpt>
      <trkpt lat="48.14193" lon="-3.0828">
        <ele>117.4</ele>
        <time>2023-04-10T07:05:22Z</time>
      </trkpt>
      <trkpt lat="48.14196" lon="-3.0831">
        <ele>117.6</ele>
        <time>2023-04-10T07:05:26Z</time>
      </trkpt>
      <trkpt lat="48.14202" lon="-3.08368">
        <ele>117.8</ele>
        <time>2023-04-10T07:05:34Z</time>
      </trkpt>
      <trkpt lat="48.14205" lon="-3.08399">
        <ele>117.8</ele>
        <time>2023-04-10T07:05:38Z</time>
      </trkpt>
      <trkpt lat="48.14209" lon="-3.08438">
        <ele>117.8</ele>
        <time>2023-04-10T07:05:43Z</time>
      </trkpt>
      <trkpt lat="48.1421" lon="-3.08446">
        <ele>117.8</ele>
        <time>2023-04-10T07:05:44Z</time>
      </trkpt>
      <trkpt lat="48.1421" lon="-3.08454">
        <ele>117.8</ele>
        <time>2023-04-10T07:05:45Z</time>
      </trkpt>
      <trkpt lat="48.14211" lon="-3.08461">
        <ele>117.6</ele>
        <time>2023-04-10T07:05:46Z</time>
      </trkpt>
      <trkpt lat="48.14219" lon="-3.08548">
        <ele>117.6</ele>
        <time>2023-04-10T07:05:57Z</time>
      </trkpt>
      <trkpt lat="48.14222" lon="-3.0858">
        <ele>117.6</ele>
        <time>2023-04-10T07:06:01Z</time>
      </trkpt>
      <trkpt lat="48.1423" lon="-3.08652">
        <ele>118</ele>
        <time>2023-04-10T07:06:10Z</time>
      </trkpt>
      <trkpt lat="48.14231" lon="-3.0866">
        <ele>118</ele>
        <time>2023-04-10T07:06:11Z</time>
      </trkpt>
      <trkpt lat="48.14232" lon="-3.0867">
        <ele>117.8</ele>
        <time>2023-04-10T07:06:12Z</time>
      </trkpt>
      <trkpt lat="48.14233" lon="-3.08677">
        <ele>117.8</ele>
        <time>2023-04-10T07:06:13Z</time>
      </trkpt>
      <trkpt lat="48.14234" lon="-3.08684">
        <ele>117.8</ele>
        <time>2023-04-10T07:06:14Z</time>
      </trkpt>
      <trkpt lat="48.14235" lon="-3.08699">
        <ele>117.8</ele>
        <time>2023-04-10T07:06:16Z</time>
      </trkpt>
      <trkpt lat="48.14237" lon="-3.08707">
        <ele>117.8</ele>
        <time>2023-04-10T07:06:17Z</time>
      </trkpt>
      <trkpt lat="48.1424" lon="-3.08712">
        <ele>117.8</ele>
        <time>2023-04-10T07:06:18Z</time>
      </trkpt>
      <trkpt lat="48.14245" lon="-3.08714">
        <ele>117.8</ele>
        <time>2023-04-10T07:06:19Z</time>
      </trkpt>
      <trkpt lat="48.14249" lon="-3.08714">
        <ele>117.8</ele>
        <time>2023-04-10T07:06:20Z</time>
      </trkpt>
      <trkpt lat="48.14253" lon="-3.08714">
        <ele>117.8</ele>
        <time>2023-04-10T07:06:21Z</time>
      </trkpt>
      <trkpt lat="48.14258" lon="-3.08713">
        <ele>117.8</ele>
        <time>2023-04-10T07:06:22Z</time>
      </trkpt>
      <trkpt lat="48.14263" lon="-3.08712">
        <ele>117.8</ele>
        <time>2023-04-10T07:06:23Z</time>
      </trkpt>
      <trkpt lat="48.14267" lon="-3.08711">
        <ele>117.8</ele>
        <time>2023-04-10T07:06:24Z</time>
      </trkpt>
      <trkpt lat="48.14272" lon="-3.0871">
        <ele>117.8</ele>
        <time>2023-04-10T07:06:25Z</time>
      </trkpt>
      <trkpt lat="48.14277" lon="-3.08709">
        <ele>117.8</ele>
        <time>2023-04-10T07:06:26Z</time>
      </trkpt>
      <trkpt lat="48.14281" lon="-3.08708">
        <ele>117.8</ele>
        <time>2023-04-10T07:06:27Z</time>
      </trkpt>
      <trkpt lat="48.14286" lon="-3.08707">
        <ele>117.8</ele>
        <time>2023-04-10T07:06:28Z</time>
      </trkpt>
      <trkpt lat="48.14299" lon="-3.08705">
        <ele>118.4</ele>
        <time>2023-04-10T07:06:31Z</time>
      </trkpt>
      <trkpt lat="48.14322" lon="-3.08699">
        <ele>119.2</ele>
        <time>2023-04-10T07:06:36Z</time>
      </trkpt>
      <trkpt lat="48.14358" lon="-3.0869">
        <ele>120.2</ele>
        <time>2023-04-10T07:06:43Z</time>
      </trkpt>
      <trkpt lat="48.144" lon="-3.08679">
        <ele>120.4</ele>
        <time>2023-04-10T07:06:50Z</time>
      </trkpt>
      <trkpt lat="48.14412" lon="-3.08676">
        <ele>120.4</ele>
        <time>2023-04-10T07:06:52Z</time>
      </trkpt>
      <trkpt lat="48.14424" lon="-3.08674">
        <ele>120.4</ele>
        <time>2023-04-10T07:06:54Z</time>
      </trkpt>
      <trkpt lat="48.1443" lon="-3.08672">
        <ele>120.2</ele>
        <time>2023-04-10T07:06:55Z</time>
      </trkpt>
      <trkpt lat="48.14441" lon="-3.0867">
        <ele>120</ele>
        <time>2023-04-10T07:06:57Z</time>
      </trkpt>
      <trkpt lat="48.14452" lon="-3.08667">
        <ele>119.8</ele>
        <time>2023-04-10T07:06:59Z</time>
      </trkpt>
      <trkpt lat="48.14477" lon="-3.08661">
        <ele>119.2</ele>
        <time>2023-04-10T07:07:03Z</time>
      </trkpt>
      <trkpt lat="48.1449" lon="-3.08659">
        <ele>118.8</ele>
        <time>2023-04-10T07:07:05Z</time>
      </trkpt>
      <trkpt lat="48.14497" lon="-3.08657">
        <ele>118.8</ele>
        <time>2023-04-10T07:07:06Z</time>
      </trkpt>
      <trkpt lat="48.1451" lon="-3.08654">
        <ele>118.6</ele>
        <time>2023-04-10T07:07:08Z</time>
      </trkpt>
      <trkpt lat="48.14516" lon="-3.08652">
        <ele>118.6</ele>
        <time>2023-04-10T07:07:09Z</time>
      </trkpt>
      <trkpt lat="48.14523" lon="-3.0865">
        <ele>118.6</ele>
        <time>2023-04-10T07:07:10Z</time>
      </trkpt>
      <trkpt lat="48.14529" lon="-3.08649">
        <ele>118.4</ele>
        <time>2023-04-10T07:07:11Z</time>
      </trkpt>
      <trkpt lat="48.14536" lon="-3.08648">
        <ele>118.4</ele>
        <time>2023-04-10T07:07:12Z</time>
      </trkpt>
      <trkpt lat="48.14542" lon="-3.08646">
        <ele>118.4</ele>
        <time>2023-04-10T07:07:13Z</time>
      </trkpt>
      <trkpt lat="48.14561" lon="-3.08642">
        <ele>118.2</ele>
        <time>2023-04-10T07:07:16Z</time>
      </trkpt>
      <trkpt lat="48.14568" lon="-3.08641">
        <ele>118</ele>
        <time>2023-04-10T07:07:17Z</time>
      </trkpt>
      <trkpt lat="48.14587" lon="-3.08637">
        <ele>117.6</ele>
        <time>2023-04-10T07:07:20Z</time>
      </trkpt>
      <trkpt lat="48.14593" lon="-3.08636">
        <ele>117.6</ele>
        <time>2023-04-10T07:07:21Z</time>
      </trkpt>
      <trkpt lat="48.14599" lon="-3.08635">
        <ele>117.4</ele>
        <time>2023-04-10T07:07:22Z</time>
      </trkpt>
      <trkpt lat="48.14611" lon="-3.08632">
        <ele>117.2</ele>
        <time>2023-04-10T07:07:24Z</time>
      </trkpt>
      <trkpt lat="48.14617" lon="-3.0863">
        <ele>117</ele>
        <time>2023-04-10T07:07:25Z</time>
      </trkpt>
      <trkpt lat="48.14624" lon="-3.08629">
        <ele>116.8</ele>
        <time>2023-04-10T07:07:26Z</time>
      </trkpt>
      <trkpt lat="48.14629" lon="-3.08627">
        <ele>116.8</ele>
        <time>2023-04-10T07:07:27Z</time>
      </trkpt>
      <trkpt lat="48.14641" lon="-3.08625">
        <ele>116.4</ele>
        <time>2023-04-10T07:07:29Z</time>
      </trkpt>
      <trkpt lat="48.14647" lon="-3.08624">
        <ele>116.4</ele>
        <time>2023-04-10T07:07:30Z</time>
      </trkpt>
      <trkpt lat="48.14653" lon="-3.08623">
        <ele>116.2</ele>
        <time>2023-04-10T07:07:31Z</time>
      </trkpt>
      <trkpt lat="48.14658" lon="-3.08623">
        <ele>116.2</ele>
        <time>2023-04-10T07:07:32Z</time>
      </trkpt>
      <trkpt lat="48.14662" lon="-3.08625">
        <ele>116.2</ele>
        <time>2023-04-10T07:07:33Z</time>
      </trkpt>
      <trkpt lat="48.14667" lon="-3.08628">
        <ele>116</ele>
        <time>2023-04-10T07:07:34Z</time>
      </trkpt>
      <trkpt lat="48.14671" lon="-3.08634">
        <ele>116</ele>
        <time>2023-04-10T07:07:35Z</time>
      </trkpt>
      <trkpt lat="48.14674" lon="-3.0864">
        <ele>116</ele>
        <time>2023-04-10T07:07:36Z</time>
      </trkpt>
      <trkpt lat="48.14675" lon="-3.08646">
        <ele>115.8</ele>
        <time>2023-04-10T07:07:37Z</time>
      </trkpt>
      <trkpt lat="48.14676" lon="-3.08653">
        <ele>115.8</ele>
        <time>2023-04-10T07:07:38Z</time>
      </trkpt>
      <trkpt lat="48.14677" lon="-3.0866">
        <ele>115.8</ele>
        <time>2023-04-10T07:07:39Z</time>
      </trkpt>
      <trkpt lat="48.14677" lon="-3.08665">
        <ele>115.8</ele>
        <time>2023-04-10T07:07:40Z</time>
      </trkpt>
      <trkpt lat="48.14678" lon="-3.08674">
        <ele>115.8</ele>
        <time>2023-04-10T07:07:41Z</time>
      </trkpt>
      <trkpt lat="48.14679" lon="-3.08681">
        <ele>115.8</ele>
        <time>2023-04-10T07:07:42Z</time>
      </trkpt>
      <trkpt lat="48.14682" lon="-3.08701">
        <ele>116.4</ele>
        <time>2023-04-10T07:07:45Z</time>
      </trkpt>
      <trkpt lat="48.14682" lon="-3.08708">
        <ele>116.4</ele>
        <time>2023-04-10T07:07:46Z</time>
      </trkpt>
      <trkpt lat="48.14683" lon="-3.08713">
        <ele>116.6</ele>
        <time>2023-04-10T07:07:47Z</time>
      </trkpt>
      <trkpt lat="48.14683" lon="-3.08721">
        <ele>116.8</ele>
        <time>2023-04-10T07:07:48Z</time>
      </trkpt>
      <trkpt lat="48.14685" lon="-3.08734">
        <ele>117</ele>
        <time>2023-04-10T07:07:50Z</time>
      </trkpt>
      <trkpt lat="48.14686" lon="-3.08741">
        <ele>117</ele>
        <time>2023-04-10T07:07:51Z</time>
      </trkpt>
      <trkpt lat="48.14686" lon="-3.08747">
        <ele>117</ele>
        <time>2023-04-10T07:07:52Z</time>
      </trkpt>
      <trkpt lat="48.14687" lon="-3.08754">
        <ele>117.2</ele>
        <time>2023-04-10T07:07:53Z</time>
      </trkpt>
      <trkpt lat="48.14691" lon="-3.08788">
        <ele>117.8</ele>
        <time>2023-04-10T07:07:58Z</time>
      </trkpt>
      <trkpt lat="48.14691" lon="-3.08793">
        <ele>118.2</ele>
        <time>2023-04-10T07:07:59Z</time>
      </trkpt>
      <trkpt lat="48.14691" lon="-3.08806">
        <ele>118.6</ele>
        <time>2023-04-10T07:08:01Z</time>
      </trkpt>
      <trkpt lat="48.14691" lon="-3.08813">
        <ele>119</ele>
        <time>2023-04-10T07:08:02Z</time>
      </trkpt>
      <trkpt lat="48.14691" lon="-3.08819">
        <ele>119.2</ele>
        <time>2023-04-10T07:08:03Z</time>
      </trkpt>
      <trkpt lat="48.14691" lon="-3.08825">
        <ele>119.4</ele>
        <time>2023-04-10T07:08:04Z</time>
      </trkpt>
      <trkpt lat="48.14691" lon="-3.08832">
        <ele>119.8</ele>
        <time>2023-04-10T07:08:05Z</time>
      </trkpt>
      <trkpt lat="48.1469" lon="-3.08838">
        <ele>119.8</ele>
        <time>2023-04-10T07:08:06Z</time>
      </trkpt>
      <trkpt lat="48.14689" lon="-3.08844">
        <ele>120</ele>
        <time>2023-04-10T07:08:07Z</time>
      </trkpt>
      <trkpt lat="48.14688" lon="-3.0885">
        <ele>120</ele>
        <time>2023-04-10T07:08:08Z</time>
      </trkpt>
      <trkpt lat="48.14687" lon="-3.08856">
        <ele>120.2</ele>
        <time>2023-04-10T07:08:09Z</time>
      </trkpt>
      <trkpt lat="48.14685" lon="-3.08861">
        <ele>120.2</ele>
        <time>2023-04-10T07:08:10Z</time>
      </trkpt>
      <trkpt lat="48.14684" lon="-3.08867">
        <ele>120.4</ele>
        <time>2023-04-10T07:08:11Z</time>
      </trkpt>
      <trkpt lat="48.14682" lon="-3.08873">
        <ele>120.4</ele>
        <time>2023-04-10T07:08:12Z</time>
      </trkpt>
      <trkpt lat="48.14681" lon="-3.08878">
        <ele>120.4</ele>
        <time>2023-04-10T07:08:13Z</time>
      </trkpt>
      <trkpt lat="48.14679" lon="-3.08884">
        <ele>120.8</ele>
        <time>2023-04-10T07:08:14Z</time>
      </trkpt>
      <trkpt lat="48.14677" lon="-3.0889">
        <ele>120.8</ele>
        <time>2023-04-10T07:08:15Z</time>
      </trkpt>
      <trkpt lat="48.14675" lon="-3.08896">
        <ele>121.2</ele>
        <time>2023-04-10T07:08:16Z</time>
      </trkpt>
      <trkpt lat="48.14673" lon="-3.08902">
        <ele>121.2</ele>
        <time>2023-04-10T07:08:17Z</time>
      </trkpt>
      <trkpt lat="48.14671" lon="-3.08908">
        <ele>121.2</ele>
        <time>2023-04-10T07:08:18Z</time>
      </trkpt>
      <trkpt lat="48.14669" lon="-3.08913">
        <ele>121.4</ele>
        <time>2023-04-10T07:08:19Z</time>
      </trkpt>
      <trkpt lat="48.14667" lon="-3.08919">
        <ele>121.4</ele>
        <time>2023-04-10T07:08:20Z</time>
      </trkpt>
      <trkpt lat="48.14665" lon="-3.08925">
        <ele>121.4</ele>
        <time>2023-04-10T07:08:21Z</time>
      </trkpt>
      <trkpt lat="48.14663" lon="-3.08932">
        <ele>121.6</ele>
        <time>2023-04-10T07:08:22Z</time>
      </trkpt>
      <trkpt lat="48.14661" lon="-3.08938">
        <ele>121.8</ele>
        <time>2023-04-10T07:08:23Z</time>
      </trkpt>
      <trkpt lat="48.1466" lon="-3.08944">
        <ele>121.8</ele>
        <time>2023-04-10T07:08:24Z</time>
      </trkpt>
      <trkpt lat="48.14658" lon="-3.0895">
        <ele>122</ele>
        <time>2023-04-10T07:08:25Z</time>
      </trkpt>
      <trkpt lat="48.14657" lon="-3.08956">
        <ele>122</ele>
        <time>2023-04-10T07:08:26Z</time>
      </trkpt>
      <trkpt lat="48.14657" lon="-3.08962">
        <ele>122.2</ele>
        <time>2023-04-10T07:08:27Z</time>
      </trkpt>
      <trkpt lat="48.14656" lon="-3.08969">
        <ele>122.2</ele>
        <time>2023-04-10T07:08:28Z</time>
      </trkpt>
      <trkpt lat="48.14656" lon="-3.08975">
        <ele>122.4</ele>
        <time>2023-04-10T07:08:29Z</time>
      </trkpt>
      <trkpt lat="48.14656" lon="-3.08981">
        <ele>122.6</ele>
        <time>2023-04-10T07:08:30Z</time>
      </trkpt>
      <trkpt lat="48.14656" lon="-3.08988">
        <ele>122.6</ele>
        <time>2023-04-10T07:08:31Z</time>
      </trkpt>
      <trkpt lat="48.14656" lon="-3.08994">
        <ele>122.8</ele>
        <time>2023-04-10T07:08:32Z</time>
      </trkpt>
      <trkpt lat="48.14657" lon="-3.09">
        <ele>122.8</ele>
        <time>2023-04-10T07:08:33Z</time>
      </trkpt>
      <trkpt lat="48.14658" lon="-3.09005">
        <ele>122.8</ele>
        <time>2023-04-10T07:08:34Z</time>
      </trkpt>
      <trkpt lat="48.14659" lon="-3.09009">
        <ele>123</ele>
        <time>2023-04-10T07:08:35Z</time>
      </trkpt>
      <trkpt lat="48.1466" lon="-3.09015">
        <ele>123.2</ele>
        <time>2023-04-10T07:08:36Z</time>
      </trkpt>
      <trkpt lat="48.14661" lon="-3.0902">
        <ele>123.2</ele>
        <time>2023-04-10T07:08:37Z</time>
      </trkpt>
      <trkpt lat="48.14661" lon="-3.09025">
        <ele>123.2</ele>
        <time>2023-04-10T07:08:38Z</time>
      </trkpt>
      <trkpt lat="48.14662" lon="-3.09029">
        <ele>123.2</ele>
        <time>2023-04-10T07:08:39Z</time>
      </trkpt>
      <trkpt lat="48.14662" lon="-3.09034">
        <ele>123.4</ele>
        <time>2023-04-10T07:08:40Z</time>
      </trkpt>
      <trkpt lat="48.14663" lon="-3.09039">
        <ele>123.4</ele>
        <time>2023-04-10T07:08:41Z</time>
      </trkpt>
      <trkpt lat="48.14663" lon="-3.09044">
        <ele>123.6</ele>
        <time>2023-04-10T07:08:42Z</time>
      </trkpt>
      <trkpt lat="48.14664" lon="-3.09049">
        <ele>123.8</ele>
        <time>2023-04-10T07:08:43Z</time>
      </trkpt>
      <trkpt lat="48.14665" lon="-3.09053">
        <ele>124</ele>
        <time>2023-04-10T07:08:44Z</time>
      </trkpt>
      <trkpt lat="48.14665" lon="-3.09058">
        <ele>124.2</ele>
        <time>2023-04-10T07:08:45Z</time>
      </trkpt>
      <trkpt lat="48.14666" lon="-3.09061">
        <ele>124.4</ele>
        <time>2023-04-10T07:08:46Z</time>
      </trkpt>
      <trkpt lat="48.14666" lon="-3.09066">
        <ele>124.6</ele>
        <time>2023-04-10T07:08:47Z</time>
      </trkpt>
      <trkpt lat="48.14667" lon="-3.09071">
        <ele>124.8</ele>
        <time>2023-04-10T07:08:48Z</time>
      </trkpt>
      <trkpt lat="48.14667" lon="-3.09076">
        <ele>125</ele>
        <time>2023-04-10T07:08:49Z</time>
      </trkpt>
      <trkpt lat="48.14668" lon="-3.0908">
        <ele>125.2</ele>
        <time>2023-04-10T07:08:50Z</time>
      </trkpt>
      <trkpt lat="48.14668" lon="-3.09085">
        <ele>125.4</ele>
        <time>2023-04-10T07:08:51Z</time>
      </trkpt>
      <trkpt lat="48.14669" lon="-3.09089">
        <ele>125.4</ele>
        <time>2023-04-10T07:08:52Z</time>
      </trkpt>
      <trkpt lat="48.1467" lon="-3.09094">
        <ele>125.6</ele>
        <time>2023-04-10T07:08:53Z</time>
      </trkpt>
      <trkpt lat="48.1467" lon="-3.09098">
        <ele>125.6</ele>
        <time>2023-04-10T07:08:54Z</time>
      </trkpt>
      <trkpt lat="48.14671" lon="-3.09103">
        <ele>125.8</ele>
        <time>2023-04-10T07:08:55Z</time>
      </trkpt>
      <trkpt lat="48.14672" lon="-3.09107">
        <ele>126.2</ele>
        <time>2023-04-10T07:08:56Z</time>
      </trkpt>
      <trkpt lat="48.14673" lon="-3.09112">
        <ele>126.4</ele>
        <time>2023-04-10T07:08:57Z</time>
      </trkpt>
      <trkpt lat="48.14674" lon="-3.09116">
        <ele>127</ele>
        <time>2023-04-10T07:08:58Z</time>
      </trkpt>
      <trkpt lat="48.14675" lon="-3.09121">
        <ele>127.4</ele>
        <time>2023-04-10T07:08:59Z</time>
      </trkpt>
      <trkpt lat="48.14676" lon="-3.09125">
        <ele>127.6</ele>
        <time>2023-04-10T07:09:00Z</time>
      </trkpt>
      <trkpt lat="48.14677" lon="-3.09129">
        <ele>127.6</ele>
        <time>2023-04-10T07:09:01Z</time>
      </trkpt>
      <trkpt lat="48.14679" lon="-3.09134">
        <ele>128</ele>
        <time>2023-04-10T07:09:02Z</time>
      </trkpt>
      <trkpt lat="48.1468" lon="-3.09138">
        <ele>128.2</ele>
        <time>2023-04-10T07:09:03Z</time>
      </trkpt>
      <trkpt lat="48.14682" lon="-3.09142">
        <ele>128.4</ele>
        <time>2023-04-10T07:09:04Z</time>
      </trkpt>
      <trkpt lat="48.14683" lon="-3.09145">
        <ele>128.8</ele>
        <time>2023-04-10T07:09:05Z</time>
      </trkpt>
      <trkpt lat="48.14685" lon="-3.09149">
        <ele>129.2</ele>
        <time>2023-04-10T07:09:06Z</time>
      </trkpt>
      <trkpt lat="48.14687" lon="-3.09152">
        <ele>129.4</ele>
        <time>2023-04-10T07:09:07Z</time>
      </trkpt>
      <trkpt lat="48.1469" lon="-3.09155">
        <ele>129.6</ele>
        <time>2023-04-10T07:09:08Z</time>
      </trkpt>
      <trkpt lat="48.14692" lon="-3.09158">
        <ele>129.8</ele>
        <time>2023-04-10T07:09:09Z</time>
      </trkpt>
      <trkpt lat="48.14695" lon="-3.09161">
        <ele>129.8</ele>
        <time>2023-04-10T07:09:10Z</time>
      </trkpt>
      <trkpt lat="48.14698" lon="-3.09164">
        <ele>130</ele>
        <time>2023-04-10T07:09:11Z</time>
      </trkpt>
      <trkpt lat="48.14701" lon="-3.09167">
        <ele>130.2</ele>
        <time>2023-04-10T07:09:12Z</time>
      </trkpt>
      <trkpt lat="48.14704" lon="-3.09169">
        <ele>130.2</ele>
        <time>2023-04-10T07:09:13Z</time>
      </trkpt>
      <trkpt lat="48.14708" lon="-3.09172">
        <ele>130.6</ele>
        <time>2023-04-10T07:09:14Z</time>
      </trkpt>
      <trkpt lat="48.14711" lon="-3.09175">
        <ele>130.8</ele>
        <time>2023-04-10T07:09:15Z</time>
      </trkpt>
      <trkpt lat="48.14715" lon="-3.09178">
        <ele>131</ele>
        <time>2023-04-10T07:09:16Z</time>
      </trkpt>
      <trkpt lat="48.14718" lon="-3.0918">
        <ele>131</ele>
        <time>2023-04-10T07:09:17Z</time>
      </trkpt>
      <trkpt lat="48.14721" lon="-3.09183">
        <ele>131.2</ele>
        <time>2023-04-10T07:09:18Z</time>
      </trkpt>
      <trkpt lat="48.14725" lon="-3.09186">
        <ele>131.2</ele>
        <time>2023-04-10T07:09:19Z</time>
      </trkpt>
      <trkpt lat="48.14728" lon="-3.09189">
        <ele>131.4</ele>
        <time>2023-04-10T07:09:20Z</time>
      </trkpt>
      <trkpt lat="48.14732" lon="-3.09192">
        <ele>131.4</ele>
        <time>2023-04-10T07:09:21Z</time>
      </trkpt>
      <trkpt lat="48.14736" lon="-3.09196">
        <ele>131.4</ele>
        <time>2023-04-10T07:09:22Z</time>
      </trkpt>
      <trkpt lat="48.1474" lon="-3.09199">
        <ele>131.6</ele>
        <time>2023-04-10T07:09:23Z</time>
      </trkpt>
      <trkpt lat="48.14743" lon="-3.09202">
        <ele>131.6</ele>
        <time>2023-04-10T07:09:24Z</time>
      </trkpt>
      <trkpt lat="48.14748" lon="-3.09205">
        <ele>131.6</ele>
        <time>2023-04-10T07:09:25Z</time>
      </trkpt>
      <trkpt lat="48.14752" lon="-3.09208">
        <ele>131.8</ele>
        <time>2023-04-10T07:09:26Z</time>
      </trkpt>
      <trkpt lat="48.14755" lon="-3.09212">
        <ele>131.8</ele>
        <time>2023-04-10T07:09:27Z</time>
      </trkpt>
      <trkpt lat="48.1476" lon="-3.09215">
        <ele>131.8</ele>
        <time>2023-04-10T07:09:28Z</time>
      </trkpt>
      <trkpt lat="48.14763" lon="-3.09219">
        <ele>131.8</ele>
        <time>2023-04-10T07:09:29Z</time>
      </trkpt>
      <trkpt lat="48.14767" lon="-3.09223">
        <ele>132</ele>
        <time>2023-04-10T07:09:30Z</time>
      </trkpt>
      <trkpt lat="48.1477" lon="-3.09228">
        <ele>132</ele>
        <time>2023-04-10T07:09:31Z</time>
      </trkpt>
      <trkpt lat="48.14773" lon="-3.09232">
        <ele>132.2</ele>
        <time>2023-04-10T07:09:32Z</time>
      </trkpt>
      <trkpt lat="48.14775" lon="-3.09236">
        <ele>132.2</ele>
        <time>2023-04-10T07:09:33Z</time>
      </trkpt>
      <trkpt lat="48.14778" lon="-3.0924">
        <ele>132.4</ele>
        <time>2023-04-10T07:09:34Z</time>
      </trkpt>
      <trkpt lat="48.1478" lon="-3.09246">
        <ele>132.4</ele>
        <time>2023-04-10T07:09:35Z</time>
      </trkpt>
      <trkpt lat="48.14783" lon="-3.09252">
        <ele>132.4</ele>
        <time>2023-04-10T07:09:36Z</time>
      </trkpt>
      <trkpt lat="48.14785" lon="-3.09258">
        <ele>132.4</ele>
        <time>2023-04-10T07:09:37Z</time>
      </trkpt>
      <trkpt lat="48.14787" lon="-3.09264">
        <ele>132.4</ele>
        <time>2023-04-10T07:09:38Z</time>
      </trkpt>
      <trkpt lat="48.14788" lon="-3.0927">
        <ele>132.4</ele>
        <time>2023-04-10T07:09:39Z</time>
      </trkpt>
      <trkpt lat="48.14789" lon="-3.09277">
        <ele>132.6</ele>
        <time>2023-04-10T07:09:40Z</time>
      </trkpt>
      <trkpt lat="48.1479" lon="-3.09284">
        <ele>132.6</ele>
        <time>2023-04-10T07:09:41Z</time>
      </trkpt>
      <trkpt lat="48.14791" lon="-3.09291">
        <ele>132.6</ele>
        <time>2023-04-10T07:09:42Z</time>
      </trkpt>
      <trkpt lat="48.14791" lon="-3.09297">
        <ele>132.6</ele>
        <time>2023-04-10T07:09:43Z</time>
      </trkpt>
      <trkpt lat="48.14793" lon="-3.09325">
        <ele>132.8</ele>
        <time>2023-04-10T07:09:47Z</time>
      </trkpt>
      <trkpt lat="48.14794" lon="-3.09331">
        <ele>133</ele>
        <time>2023-04-10T07:09:48Z</time>
      </trkpt>
      <trkpt lat="48.14794" lon="-3.09338">
        <ele>133</ele>
        <time>2023-04-10T07:09:49Z</time>
      </trkpt>
      <trkpt lat="48.14795" lon="-3.09344">
        <ele>133</ele>
        <time>2023-04-10T07:09:50Z</time>
      </trkpt>
      <trkpt lat="48.14795" lon="-3.0935">
        <ele>133.2</ele>
        <time>2023-04-10T07:09:51Z</time>
      </trkpt>
      <trkpt lat="48.14796" lon="-3.09357">
        <ele>133.2</ele>
        <time>2023-04-10T07:09:52Z</time>
      </trkpt>
      <trkpt lat="48.14797" lon="-3.09363">
        <ele>133.2</ele>
        <time>2023-04-10T07:09:53Z</time>
      </trkpt>
      <trkpt lat="48.14797" lon="-3.09368">
        <ele>133.2</ele>
        <time>2023-04-10T07:09:54Z</time>
      </trkpt>
      <trkpt lat="48.14798" lon="-3.09375">
        <ele>133.4</ele>
        <time>2023-04-10T07:09:55Z</time>
      </trkpt>
      <trkpt lat="48.14799" lon="-3.09381">
        <ele>133.4</ele>
        <time>2023-04-10T07:09:56Z</time>
      </trkpt>
      <trkpt lat="48.14799" lon="-3.09387">
        <ele>133.4</ele>
        <time>2023-04-10T07:09:57Z</time>
      </trkpt>
      <trkpt lat="48.148" lon="-3.09393">
        <ele>133.8</ele>
        <time>2023-04-10T07:09:58Z</time>
      </trkpt>
      <trkpt lat="48.148" lon="-3.09399">
        <ele>133.8</ele>
        <time>2023-04-10T07:09:59Z</time>
      </trkpt>
      <trkpt lat="48.14803" lon="-3.09439">
        <ele>134.8</ele>
        <time>2023-04-10T07:10:06Z</time>
      </trkpt>
      <trkpt lat="48.14804" lon="-3.09455">
        <ele>135.2</ele>
        <time>2023-04-10T07:10:09Z</time>
      </trkpt>
      <trkpt lat="48.14803" lon="-3.09485">
        <ele>135.8</ele>
        <time>2023-04-10T07:10:14Z</time>
      </trkpt>
      <trkpt lat="48.14803" lon="-3.09492">
        <ele>136</ele>
        <time>2023-04-10T07:10:15Z</time>
      </trkpt>
      <trkpt lat="48.14803" lon="-3.09498">
        <ele>136.2</ele>
        <time>2023-04-10T07:10:16Z</time>
      </trkpt>
      <trkpt lat="48.14802" lon="-3.09504">
        <ele>136.4</ele>
        <time>2023-04-10T07:10:17Z</time>
      </trkpt>
      <trkpt lat="48.14802" lon="-3.0951">
        <ele>136.4</ele>
        <time>2023-04-10T07:10:18Z</time>
      </trkpt>
      <trkpt lat="48.14801" lon="-3.09516">
        <ele>136.6</ele>
        <time>2023-04-10T07:10:19Z</time>
      </trkpt>
      <trkpt lat="48.148" lon="-3.09522">
        <ele>136.6</ele>
        <time>2023-04-10T07:10:20Z</time>
      </trkpt>
      <trkpt lat="48.148" lon="-3.09528">
        <ele>136.8</ele>
        <time>2023-04-10T07:10:21Z</time>
      </trkpt>
      <trkpt lat="48.148" lon="-3.09534">
        <ele>136.8</ele>
        <time>2023-04-10T07:10:22Z</time>
      </trkpt>
      <trkpt lat="48.14799" lon="-3.09539">
        <ele>137</ele>
        <time>2023-04-10T07:10:23Z</time>
      </trkpt>
      <trkpt lat="48.14798" lon="-3.09545">
        <ele>137.2</ele>
        <time>2023-04-10T07:10:24Z</time>
      </trkpt>
      <trkpt lat="48.14798" lon="-3.0955">
        <ele>137.4</ele>
        <time>2023-04-10T07:10:25Z</time>
      </trkpt>
      <trkpt lat="48.14797" lon="-3.09555">
        <ele>137.4</ele>
        <time>2023-04-10T07:10:26Z</time>
      </trkpt>
      <trkpt lat="48.14797" lon="-3.0956">
        <ele>137.6</ele>
        <time>2023-04-10T07:10:27Z</time>
      </trkpt>
      <trkpt lat="48.14796" lon="-3.09565">
        <ele>138</ele>
        <time>2023-04-10T07:10:28Z</time>
      </trkpt>
      <trkpt lat="48.14795" lon="-3.09571">
        <ele>138.2</ele>
        <time>2023-04-10T07:10:29Z</time>
      </trkpt>
      <trkpt lat="48.14795" lon="-3.09576">
        <ele>138.4</ele>
        <time>2023-04-10T07:10:30Z</time>
      </trkpt>
      <trkpt lat="48.14794" lon="-3.09581">
        <ele>138.6</ele>
        <time>2023-04-10T07:10:31Z</time>
      </trkpt>
      <trkpt lat="48.14794" lon="-3.09587">
        <ele>138.6</ele>
        <time>2023-04-10T07:10:32Z</time>
      </trkpt>
      <trkpt lat="48.14793" lon="-3.09592">
        <ele>139</ele>
        <time>2023-04-10T07:10:33Z</time>
      </trkpt>
      <trkpt lat="48.14793" lon="-3.09597">
        <ele>139.2</ele>
        <time>2023-04-10T07:10:34Z</time>
      </trkpt>
      <trkpt lat="48.14792" lon="-3.09602">
        <ele>139.2</ele>
        <time>2023-04-10T07:10:35Z</time>
      </trkpt>
      <trkpt lat="48.14791" lon="-3.09606">
        <ele>139.4</ele>
        <time>2023-04-10T07:10:36Z</time>
      </trkpt>
      <trkpt lat="48.14791" lon="-3.09611">
        <ele>139.6</ele>
        <time>2023-04-10T07:10:37Z</time>
      </trkpt>
      <trkpt lat="48.1479" lon="-3.09616">
        <ele>139.8</ele>
        <time>2023-04-10T07:10:38Z</time>
      </trkpt>
      <trkpt lat="48.14789" lon="-3.09621">
        <ele>140</ele>
        <time>2023-04-10T07:10:39Z</time>
      </trkpt>
      <trkpt lat="48.14788" lon="-3.09626">
        <ele>140.4</ele>
        <time>2023-04-10T07:10:40Z</time>
      </trkpt>
      <trkpt lat="48.14788" lon="-3.09629">
        <ele>140.6</ele>
        <time>2023-04-10T07:10:41Z</time>
      </trkpt>
      <trkpt lat="48.14787" lon="-3.09633">
        <ele>140.8</ele>
        <time>2023-04-10T07:10:42Z</time>
      </trkpt>
      <trkpt lat="48.14787" lon="-3.09638">
        <ele>141</ele>
        <time>2023-04-10T07:10:43Z</time>
      </trkpt>
      <trkpt lat="48.14786" lon="-3.09642">
        <ele>141.4</ele>
        <time>2023-04-10T07:10:44Z</time>
      </trkpt>
      <trkpt lat="48.14785" lon="-3.09646">
        <ele>141.6</ele>
        <time>2023-04-10T07:10:45Z</time>
      </trkpt>
      <trkpt lat="48.14784" lon="-3.0965">
        <ele>141.8</ele>
        <time>2023-04-10T07:10:46Z</time>
      </trkpt>
      <trkpt lat="48.14784" lon="-3.09655">
        <ele>142.2</ele>
        <time>2023-04-10T07:10:47Z</time>
      </trkpt>
      <trkpt lat="48.14783" lon="-3.09659">
        <ele>142.4</ele>
        <time>2023-04-10T07:10:48Z</time>
      </trkpt>
      <trkpt lat="48.14783" lon="-3.09664">
        <ele>142.8</ele>
        <time>2023-04-10T07:10:49Z</time>
      </trkpt>
      <trkpt lat="48.14782" lon="-3.09669">
        <ele>143.2</ele>
        <time>2023-04-10T07:10:50Z</time>
      </trkpt>
      <trkpt lat="48.14782" lon="-3.09673">
        <ele>143.4</ele>
        <time>2023-04-10T07:10:51Z</time>
      </trkpt>
      <trkpt lat="48.14781" lon="-3.09677">
        <ele>143.6</ele>
        <time>2023-04-10T07:10:52Z</time>
      </trkpt>
      <trkpt lat="48.14781" lon="-3.09682">
        <ele>143.8</ele>
        <time>2023-04-10T07:10:53Z</time>
      </trkpt>
      <trkpt lat="48.14781" lon="-3.09687">
        <ele>143.8</ele>
        <time>2023-04-10T07:10:54Z</time>
      </trkpt>
      <trkpt lat="48.1478" lon="-3.09691">
        <ele>144</ele>
        <time>2023-04-10T07:10:55Z</time>
      </trkpt>
      <trkpt lat="48.1478" lon="-3.09696">
        <ele>144.2</ele>
        <time>2023-04-10T07:10:56Z</time>
      </trkpt>
      <trkpt lat="48.1478" lon="-3.09701">
        <ele>144.6</ele>
        <time>2023-04-10T07:10:57Z</time>
      </trkpt>
      <trkpt lat="48.1478" lon="-3.09706">
        <ele>144.8</ele>
        <time>2023-04-10T07:10:58Z</time>
      </trkpt>
      <trkpt lat="48.14779" lon="-3.09711">
        <ele>145</ele>
        <time>2023-04-10T07:10:59Z</time>
      </trkpt>
      <trkpt lat="48.14779" lon="-3.09715">
        <ele>145.2</ele>
        <time>2023-04-10T07:11:00Z</time>
      </trkpt>
      <trkpt lat="48.14778" lon="-3.09719">
        <ele>145.2</ele>
        <time>2023-04-10T07:11:01Z</time>
      </trkpt>
      <trkpt lat="48.14778" lon="-3.09723">
        <ele>145.4</ele>
        <time>2023-04-10T07:11:02Z</time>
      </trkpt>
      <trkpt lat="48.14777" lon="-3.09727">
        <ele>145.6</ele>
        <time>2023-04-10T07:11:03Z</time>
      </trkpt>
      <trkpt lat="48.14776" lon="-3.09732">
        <ele>145.8</ele>
        <time>2023-04-10T07:11:04Z</time>
      </trkpt>
      <trkpt lat="48.14775" lon="-3.09736">
        <ele>146</ele>
        <time>2023-04-10T07:11:05Z</time>
      </trkpt>
      <trkpt lat="48.14775" lon="-3.09741">
        <ele>146.2</ele>
        <time>2023-04-10T07:11:06Z</time>
      </trkpt>
      <trkpt lat="48.14775" lon="-3.09747">
        <ele>146.4</ele>
        <time>2023-04-10T07:11:07Z</time>
      </trkpt>
      <trkpt lat="48.14774" lon="-3.09752">
        <ele>146.4</ele>
        <time>2023-04-10T07:11:08Z</time>
      </trkpt>
      <trkpt lat="48.14774" lon="-3.09757">
        <ele>146.6</ele>
        <time>2023-04-10T07:11:09Z</time>
      </trkpt>
      <trkpt lat="48.14774" lon="-3.09762">
        <ele>146.8</ele>
        <time>2023-04-10T07:11:10Z</time>
      </trkpt>
      <trkpt lat="48.14774" lon="-3.09766">
        <ele>147</ele>
        <time>2023-04-10T07:11:11Z</time>
      </trkpt>
      <trkpt lat="48.14774" lon="-3.09771">
        <ele>147.4</ele>
        <time>2023-04-10T07:11:12Z</time>
      </trkpt>
      <trkpt lat="48.14774" lon="-3.09776">
        <ele>147.6</ele>
        <time>2023-04-10T07:11:13Z</time>
      </trkpt>
      <trkpt lat="48.14773" lon="-3.0978">
        <ele>147.8</ele>
        <time>2023-04-10T07:11:14Z</time>
      </trkpt>
      <trkpt lat="48.14773" lon="-3.09785">
        <ele>148.2</ele>
        <time>2023-04-10T07:11:15Z</time>
      </trkpt>
      <trkpt lat="48.14773" lon="-3.09789">
        <ele>148.2</ele>
        <time>2023-04-10T07:11:16Z</time>
      </trkpt>
      <trkpt lat="48.14773" lon="-3.09793">
        <ele>148.4</ele>
        <time>2023-04-10T07:11:17Z</time>
      </trkpt>
      <trkpt lat="48.14773" lon="-3.09797">
        <ele>148.6</ele>
        <time>2023-04-10T07:11:18Z</time>
      </trkpt>
      <trkpt lat="48.14773" lon="-3.098">
        <ele>149</ele>
        <time>2023-04-10T07:11:19Z</time>
      </trkpt>
      <trkpt lat="48.14772" lon="-3.09804">
        <ele>149.2</ele>
        <time>2023-04-10T07:11:20Z</time>
      </trkpt>
      <trkpt lat="48.14772" lon="-3.09808">
        <ele>149.4</ele>
        <time>2023-04-10T07:11:21Z</time>
      </trkpt>
      <trkpt lat="48.14771" lon="-3.09813">
        <ele>149.6</ele>
        <time>2023-04-10T07:11:22Z</time>
      </trkpt>
      <trkpt lat="48.14771" lon="-3.09817">
        <ele>149.8</ele>
        <time>2023-04-10T07:11:23Z</time>
      </trkpt>
      <trkpt lat="48.14771" lon="-3.09821">
        <ele>150</ele>
        <time>2023-04-10T07:11:24Z</time>
      </trkpt>
      <trkpt lat="48.14772" lon="-3.09825">
        <ele>150.2</ele>
        <time>2023-04-10T07:11:25Z</time>
      </trkpt>
      <trkpt lat="48.14772" lon="-3.0983">
        <ele>150.2</ele>
        <time>2023-04-10T07:11:26Z</time>
      </trkpt>
      <trkpt lat="48.14772" lon="-3.09835">
        <ele>150.4</ele>
        <time>2023-04-10T07:11:27Z</time>
      </trkpt>
      <trkpt lat="48.14772" lon="-3.09839">
        <ele>150.8</ele>
        <time>2023-04-10T07:11:28Z</time>
      </trkpt>
      <trkpt lat="48.14772" lon="-3.09844">
        <ele>151</ele>
        <time>2023-04-10T07:11:29Z</time>
      </trkpt>
      <trkpt lat="48.14772" lon="-3.09849">
        <ele>151.2</ele>
        <time>2023-04-10T07:11:30Z</time>
      </trkpt>
      <trkpt lat="48.14772" lon="-3.09854">
        <ele>151.4</ele>
        <time>2023-04-10T07:11:31Z</time>
      </trkpt>
      <trkpt lat="48.14773" lon="-3.09859">
        <ele>151.4</ele>
        <time>2023-04-10T07:11:32Z</time>
      </trkpt>
      <trkpt lat="48.14772" lon="-3.09865">
        <ele>151.6</ele>
        <time>2023-04-10T07:11:33Z</time>
      </trkpt>
      <trkpt lat="48.14772" lon="-3.0987">
        <ele>151.6</ele>
        <time>2023-04-10T07:11:34Z</time>
      </trkpt>
      <trkpt lat="48.14772" lon="-3.09875">
        <ele>151.8</ele>
        <time>2023-04-10T07:11:35Z</time>
      </trkpt>
      <trkpt lat="48.14772" lon="-3.09881">
        <ele>152.2</ele>
        <time>2023-04-10T07:11:36Z</time>
      </trkpt>
      <trkpt lat="48.14772" lon="-3.09886">
        <ele>152.2</ele>
        <time>2023-04-10T07:11:37Z</time>
      </trkpt>
      <trkpt lat="48.14772" lon="-3.09891">
        <ele>152.2</ele>
        <time>2023-04-10T07:11:38Z</time>
      </trkpt>
      <trkpt lat="48.14772" lon="-3.09896">
        <ele>152.6</ele>
        <time>2023-04-10T07:11:39Z</time>
      </trkpt>
      <trkpt lat="48.14772" lon="-3.09901">
        <ele>152.8</ele>
        <time>2023-04-10T07:11:40Z</time>
      </trkpt>
      <trkpt lat="48.14772" lon="-3.09907">
        <ele>152.8</ele>
        <time>2023-04-10T07:11:41Z</time>
      </trkpt>
      <trkpt lat="48.14772" lon="-3.09912">
        <ele>152.8</ele>
        <time>2023-04-10T07:11:42Z</time>
      </trkpt>
      <trkpt lat="48.14773" lon="-3.09917">
        <ele>153</ele>
        <time>2023-04-10T07:11:43Z</time>
      </trkpt>
      <trkpt lat="48.14774" lon="-3.09923">
        <ele>153.2</ele>
        <time>2023-04-10T07:11:44Z</time>
      </trkpt>
      <trkpt lat="48.14775" lon="-3.09929">
        <ele>153.4</ele>
        <time>2023-04-10T07:11:45Z</time>
      </trkpt>
      <trkpt lat="48.14776" lon="-3.09935">
        <ele>153.6</ele>
        <time>2023-04-10T07:11:46Z</time>
      </trkpt>
      <trkpt lat="48.14777" lon="-3.09942">
        <ele>153.8</ele>
        <time>2023-04-10T07:11:47Z</time>
      </trkpt>
      <trkpt lat="48.14778" lon="-3.09948">
        <ele>154</ele>
        <time>2023-04-10T07:11:48Z</time>
      </trkpt>
      <trkpt lat="48.1478" lon="-3.09953">
        <ele>154</ele>
        <time>2023-04-10T07:11:49Z</time>
      </trkpt>
      <trkpt lat="48.14782" lon="-3.09959">
        <ele>154</ele>
        <time>2023-04-10T07:11:50Z</time>
      </trkpt>
      <trkpt lat="48.14784" lon="-3.09964">
        <ele>154.2</ele>
        <time>2023-04-10T07:11:51Z</time>
      </trkpt>
      <trkpt lat="48.14786" lon="-3.09968">
        <ele>154.2</ele>
        <time>2023-04-10T07:11:52Z</time>
      </trkpt>
      <trkpt lat="48.14789" lon="-3.09972">
        <ele>154.6</ele>
        <time>2023-04-10T07:11:53Z</time>
      </trkpt>
      <trkpt lat="48.14791" lon="-3.09976">
        <ele>154.8</ele>
        <time>2023-04-10T07:11:54Z</time>
      </trkpt>
      <trkpt lat="48.14793" lon="-3.09981">
        <ele>155</ele>
        <time>2023-04-10T07:11:55Z</time>
      </trkpt>
      <trkpt lat="48.14795" lon="-3.09985">
        <ele>155.2</ele>
        <time>2023-04-10T07:11:56Z</time>
      </trkpt>
      <trkpt lat="48.14798" lon="-3.0999">
        <ele>155.2</ele>
        <time>2023-04-10T07:11:57Z</time>
      </trkpt>
      <trkpt lat="48.148" lon="-3.09994">
        <ele>155.4</ele>
        <time>2023-04-10T07:11:58Z</time>
      </trkpt>
      <trkpt lat="48.14802" lon="-3.09999">
        <ele>155.4</ele>
        <time>2023-04-10T07:11:59Z</time>
      </trkpt>
      <trkpt lat="48.14804" lon="-3.10004">
        <ele>155.6</ele>
        <time>2023-04-10T07:12:00Z</time>
      </trkpt>
      <trkpt lat="48.14805" lon="-3.10009">
        <ele>155.6</ele>
        <time>2023-04-10T07:12:01Z</time>
      </trkpt>
      <trkpt lat="48.14807" lon="-3.10014">
        <ele>155.8</ele>
        <time>2023-04-10T07:12:02Z</time>
      </trkpt>
      <trkpt lat="48.14808" lon="-3.10019">
        <ele>156.2</ele>
        <time>2023-04-10T07:12:03Z</time>
      </trkpt>
      <trkpt lat="48.1481" lon="-3.10024">
        <ele>156.4</ele>
        <time>2023-04-10T07:12:04Z</time>
      </trkpt>
      <trkpt lat="48.14812" lon="-3.10029">
        <ele>156.6</ele>
        <time>2023-04-10T07:12:05Z</time>
      </trkpt>
      <trkpt lat="48.14814" lon="-3.10034">
        <ele>156.6</ele>
        <time>2023-04-10T07:12:06Z</time>
      </trkpt>
      <trkpt lat="48.14817" lon="-3.10038">
        <ele>156.8</ele>
        <time>2023-04-10T07:12:07Z</time>
      </trkpt>
      <trkpt lat="48.1482" lon="-3.10041">
        <ele>156.8</ele>
        <time>2023-04-10T07:12:08Z</time>
      </trkpt>
      <trkpt lat="48.14824" lon="-3.10043">
        <ele>156.8</ele>
        <time>2023-04-10T07:12:09Z</time>
      </trkpt>
      <trkpt lat="48.14827" lon="-3.10045">
        <ele>157</ele>
        <time>2023-04-10T07:12:10Z</time>
      </trkpt>
      <trkpt lat="48.14831" lon="-3.10046">
        <ele>157</ele>
        <time>2023-04-10T07:12:11Z</time>
      </trkpt>
      <trkpt lat="48.14836" lon="-3.10047">
        <ele>157</ele>
        <time>2023-04-10T07:12:12Z</time>
      </trkpt>
      <trkpt lat="48.14839" lon="-3.10047">
        <ele>157</ele>
        <time>2023-04-10T07:12:13Z</time>
      </trkpt>
      <trkpt lat="48.14842" lon="-3.10047">
        <ele>157.2</ele>
        <time>2023-04-10T07:12:14Z</time>
      </trkpt>
      <trkpt lat="48.14846" lon="-3.10048">
        <ele>157.2</ele>
        <time>2023-04-10T07:12:15Z</time>
      </trkpt>
      <trkpt lat="48.1485" lon="-3.10049">
        <ele>157.2</ele>
        <time>2023-04-10T07:12:16Z</time>
      </trkpt>
      <trkpt lat="48.14854" lon="-3.10049">
        <ele>157.2</ele>
        <time>2023-04-10T07:12:17Z</time>
      </trkpt>
      <trkpt lat="48.14857" lon="-3.1005">
        <ele>157.2</ele>
        <time>2023-04-10T07:12:18Z</time>
      </trkpt>
      <trkpt lat="48.1486" lon="-3.1005">
        <ele>157.4</ele>
        <time>2023-04-10T07:12:19Z</time>
      </trkpt>
      <trkpt lat="48.14865" lon="-3.10051">
        <ele>157.4</ele>
        <time>2023-04-10T07:12:20Z</time>
      </trkpt>
      <trkpt lat="48.14868" lon="-3.10051">
        <ele>157.4</ele>
        <time>2023-04-10T07:12:21Z</time>
      </trkpt>
      <trkpt lat="48.14872" lon="-3.10052">
        <ele>157.4</ele>
        <time>2023-04-10T07:12:22Z</time>
      </trkpt>
      <trkpt lat="48.14875" lon="-3.10053">
        <ele>157.6</ele>
        <time>2023-04-10T07:12:23Z</time>
      </trkpt>
      <trkpt lat="48.14879" lon="-3.10054">
        <ele>157.6</ele>
        <time>2023-04-10T07:12:24Z</time>
      </trkpt>
      <trkpt lat="48.14887" lon="-3.10056">
        <ele>157.8</ele>
        <time>2023-04-10T07:12:26Z</time>
      </trkpt>
      <trkpt lat="48.1489" lon="-3.10056">
        <ele>157.8</ele>
        <time>2023-04-10T07:12:27Z</time>
      </trkpt>
      <trkpt lat="48.14894" lon="-3.10057">
        <ele>157.8</ele>
        <time>2023-04-10T07:12:28Z</time>
      </trkpt>
      <trkpt lat="48.14898" lon="-3.10058">
        <ele>157.8</ele>
        <time>2023-04-10T07:12:29Z</time>
      </trkpt>
      <trkpt lat="48.14908" lon="-3.1006">
        <ele>158.4</ele>
        <time>2023-04-10T07:12:32Z</time>
      </trkpt>
      <trkpt lat="48.14922" lon="-3.10063">
        <ele>158.8</ele>
        <time>2023-04-10T07:12:36Z</time>
      </trkpt>
      <trkpt lat="48.14926" lon="-3.10064">
        <ele>159</ele>
        <time>2023-04-10T07:12:37Z</time>
      </trkpt>
      <trkpt lat="48.1493" lon="-3.10064">
        <ele>159.2</ele>
        <time>2023-04-10T07:12:38Z</time>
      </trkpt>
      <trkpt lat="48.14933" lon="-3.10065">
        <ele>159.4</ele>
        <time>2023-04-10T07:12:39Z</time>
      </trkpt>
      <trkpt lat="48.14936" lon="-3.10065">
        <ele>159.4</ele>
        <time>2023-04-10T07:12:40Z</time>
      </trkpt>
      <trkpt lat="48.14943" lon="-3.10066">
        <ele>159.8</ele>
        <time>2023-04-10T07:12:42Z</time>
      </trkpt>
      <trkpt lat="48.14947" lon="-3.10068">
        <ele>159.8</ele>
        <time>2023-04-10T07:12:43Z</time>
      </trkpt>
      <trkpt lat="48.1495" lon="-3.10068">
        <ele>160</ele>
        <time>2023-04-10T07:12:44Z</time>
      </trkpt>
      <trkpt lat="48.14953" lon="-3.10068">
        <ele>160</ele>
        <time>2023-04-10T07:12:45Z</time>
      </trkpt>
      <trkpt lat="48.14956" lon="-3.10069">
        <ele>160</ele>
        <time>2023-04-10T07:12:46Z</time>
      </trkpt>
      <trkpt lat="48.1496" lon="-3.10069">
        <ele>160.2</ele>
        <time>2023-04-10T07:12:47Z</time>
      </trkpt>
      <trkpt lat="48.14964" lon="-3.1007">
        <ele>160.4</ele>
        <time>2023-04-10T07:12:48Z</time>
      </trkpt>
      <trkpt lat="48.14968" lon="-3.10071">
        <ele>160.8</ele>
        <time>2023-04-10T07:12:49Z</time>
      </trkpt>
      <trkpt lat="48.14971" lon="-3.10072">
        <ele>160.8</ele>
        <time>2023-04-10T07:12:50Z</time>
      </trkpt>
      <trkpt lat="48.14975" lon="-3.10073">
        <ele>161</ele>
        <time>2023-04-10T07:12:51Z</time>
      </trkpt>
      <trkpt lat="48.14978" lon="-3.10073">
        <ele>161.2</ele>
        <time>2023-04-10T07:12:52Z</time>
      </trkpt>
      <trkpt lat="48.14981" lon="-3.10074">
        <ele>161.4</ele>
        <time>2023-04-10T07:12:53Z</time>
      </trkpt>
      <trkpt lat="48.14984" lon="-3.10074">
        <ele>161.6</ele>
        <time>2023-04-10T07:12:54Z</time>
      </trkpt>
      <trkpt lat="48.14988" lon="-3.10075">
        <ele>161.8</ele>
        <time>2023-04-10T07:12:55Z</time>
      </trkpt>
      <trkpt lat="48.14991" lon="-3.10075">
        <ele>162</ele>
        <time>2023-04-10T07:12:56Z</time>
      </trkpt>
      <trkpt lat="48.14995" lon="-3.10076">
        <ele>162</ele>
        <time>2023-04-10T07:12:57Z</time>
      </trkpt>
      <trkpt lat="48.14997" lon="-3.10076">
        <ele>162.2</ele>
        <time>2023-04-10T07:12:58Z</time>
      </trkpt>
      <trkpt lat="48.15001" lon="-3.10076">
        <ele>162.4</ele>
        <time>2023-04-10T07:12:59Z</time>
      </trkpt>
      <trkpt lat="48.15005" lon="-3.10077">
        <ele>162.6</ele>
        <time>2023-04-10T07:13:00Z</time>
      </trkpt>
      <trkpt lat="48.15008" lon="-3.10077">
        <ele>162.8</ele>
        <time>2023-04-10T07:13:01Z</time>
      </trkpt>
      <trkpt lat="48.15012" lon="-3.10078">
        <ele>163</ele>
        <time>2023-04-10T07:13:02Z</time>
      </trkpt>
      <trkpt lat="48.15014" lon="-3.10078">
        <ele>163</ele>
        <time>2023-04-10T07:13:03Z</time>
      </trkpt>
      <trkpt lat="48.15018" lon="-3.10078">
        <ele>163.2</ele>
        <time>2023-04-10T07:13:04Z</time>
      </trkpt>
      <trkpt lat="48.1502" lon="-3.10081">
        <ele>163.2</ele>
        <time>2023-04-10T07:13:05Z</time>
      </trkpt>
      <trkpt lat="48.15022" lon="-3.10084">
        <ele>163.4</ele>
        <time>2023-04-10T07:13:06Z</time>
      </trkpt>
      <trkpt lat="48.15022" lon="-3.10087">
        <ele>163.6</ele>
        <time>2023-04-10T07:13:07Z</time>
      </trkpt>
      <trkpt lat="48.15022" lon="-3.10091">
        <ele>163.6</ele>
        <time>2023-04-10T07:13:08Z</time>
      </trkpt>
      <trkpt lat="48.15021" lon="-3.10095">
        <ele>163.6</ele>
        <time>2023-04-10T07:13:09Z</time>
      </trkpt>
      <trkpt lat="48.15021" lon="-3.10099">
        <ele>163.6</ele>
        <time>2023-04-10T07:13:10Z</time>
      </trkpt>
      <trkpt lat="48.1502" lon="-3.10103">
        <ele>163.8</ele>
        <time>2023-04-10T07:13:11Z</time>
      </trkpt>
      <trkpt lat="48.15019" lon="-3.10107">
        <ele>164</ele>
        <time>2023-04-10T07:13:12Z</time>
      </trkpt>
      <trkpt lat="48.15019" lon="-3.10111">
        <ele>164.2</ele>
        <time>2023-04-10T07:13:13Z</time>
      </trkpt>
      <trkpt lat="48.15018" lon="-3.10114">
        <ele>164.4</ele>
        <time>2023-04-10T07:13:14Z</time>
      </trkpt>
      <trkpt lat="48.15017" lon="-3.10119">
        <ele>164.8</ele>
        <time>2023-04-10T07:13:15Z</time>
      </trkpt>
      <trkpt lat="48.15016" lon="-3.10123">
        <ele>165.2</ele>
        <time>2023-04-10T07:13:16Z</time>
      </trkpt>
      <trkpt lat="48.15015" lon="-3.10127">
        <ele>165.6</ele>
        <time>2023-04-10T07:13:17Z</time>
      </trkpt>
      <trkpt lat="48.15014" lon="-3.10132">
        <ele>165.8</ele>
        <time>2023-04-10T07:13:18Z</time>
      </trkpt>
      <trkpt lat="48.15014" lon="-3.10136">
        <ele>166</ele>
        <time>2023-04-10T07:13:19Z</time>
      </trkpt>
      <trkpt lat="48.15013" lon="-3.1014">
        <ele>166.4</ele>
        <time>2023-04-10T07:13:20Z</time>
      </trkpt>
      <trkpt lat="48.15013" lon="-3.10145">
        <ele>166.6</ele>
        <time>2023-04-10T07:13:21Z</time>
      </trkpt>
      <trkpt lat="48.15012" lon="-3.10149">
        <ele>166.6</ele>
        <time>2023-04-10T07:13:22Z</time>
      </trkpt>
      <trkpt lat="48.15012" lon="-3.10153">
        <ele>167</ele>
        <time>2023-04-10T07:13:23Z</time>
      </trkpt>
      <trkpt lat="48.15011" lon="-3.10157">
        <ele>167.2</ele>
        <time>2023-04-10T07:13:24Z</time>
      </trkpt>
      <trkpt lat="48.15011" lon="-3.10162">
        <ele>167.4</ele>
        <time>2023-04-10T07:13:25Z</time>
      </trkpt>
      <trkpt lat="48.1501" lon="-3.10166">
        <ele>167.6</ele>
        <time>2023-04-10T07:13:26Z</time>
      </trkpt>
      <trkpt lat="48.15009" lon="-3.1017">
        <ele>167.6</ele>
        <time>2023-04-10T07:13:27Z</time>
      </trkpt>
      <trkpt lat="48.15008" lon="-3.10173">
        <ele>167.8</ele>
        <time>2023-04-10T07:13:28Z</time>
      </trkpt>
      <trkpt lat="48.15008" lon="-3.10177">
        <ele>168</ele>
        <time>2023-04-10T07:13:29Z</time>
      </trkpt>
      <trkpt lat="48.15007" lon="-3.10183">
        <ele>168</ele>
        <time>2023-04-10T07:13:30Z</time>
      </trkpt>
      <trkpt lat="48.15006" lon="-3.10187">
        <ele>168</ele>
        <time>2023-04-10T07:13:31Z</time>
      </trkpt>
      <trkpt lat="48.15005" lon="-3.10191">
        <ele>168.2</ele>
        <time>2023-04-10T07:13:32Z</time>
      </trkpt>
      <trkpt lat="48.15004" lon="-3.10196">
        <ele>168.2</ele>
        <time>2023-04-10T07:13:33Z</time>
      </trkpt>
      <trkpt lat="48.15004" lon="-3.102">
        <ele>168.4</ele>
        <time>2023-04-10T07:13:34Z</time>
      </trkpt>
      <trkpt lat="48.15003" lon="-3.10204">
        <ele>168.6</ele>
        <time>2023-04-10T07:13:35Z</time>
      </trkpt>
      <trkpt lat="48.15002" lon="-3.10207">
        <ele>168.8</ele>
        <time>2023-04-10T07:13:36Z</time>
      </trkpt>
      <trkpt lat="48.15002" lon="-3.10212">
        <ele>169</ele>
        <time>2023-04-10T07:13:37Z</time>
      </trkpt>
      <trkpt lat="48.15001" lon="-3.10217">
        <ele>169</ele>
        <time>2023-04-10T07:13:38Z</time>
      </trkpt>
      <trkpt lat="48.15" lon="-3.10221">
        <ele>169.2</ele>
        <time>2023-04-10T07:13:39Z</time>
      </trkpt>
      <trkpt lat="48.14999" lon="-3.10225">
        <ele>169.2</ele>
        <time>2023-04-10T07:13:40Z</time>
      </trkpt>
      <trkpt lat="48.14999" lon="-3.1023">
        <ele>169.4</ele>
        <time>2023-04-10T07:13:41Z</time>
      </trkpt>
      <trkpt lat="48.14998" lon="-3.10234">
        <ele>169.6</ele>
        <time>2023-04-10T07:13:42Z</time>
      </trkpt>
      <trkpt lat="48.14998" lon="-3.10239">
        <ele>169.6</ele>
        <time>2023-04-10T07:13:43Z</time>
      </trkpt>
      <trkpt lat="48.14997" lon="-3.10242">
        <ele>169.8</ele>
        <time>2023-04-10T07:13:44Z</time>
      </trkpt>
      <trkpt lat="48.14996" lon="-3.10248">
        <ele>169.8</ele>
        <time>2023-04-10T07:13:45Z</time>
      </trkpt>
      <trkpt lat="48.14996" lon="-3.10252">
        <ele>170</ele>
        <time>2023-04-10T07:13:46Z</time>
      </trkpt>
      <trkpt lat="48.14995" lon="-3.10256">
        <ele>170.2</ele>
        <time>2023-04-10T07:13:47Z</time>
      </trkpt>
      <trkpt lat="48.14995" lon="-3.10262">
        <ele>170.2</ele>
        <time>2023-04-10T07:13:48Z</time>
      </trkpt>
      <trkpt lat="48.14994" lon="-3.10266">
        <ele>170.4</ele>
        <time>2023-04-10T07:13:49Z</time>
      </trkpt>
      <trkpt lat="48.14993" lon="-3.10269">
        <ele>170.4</ele>
        <time>2023-04-10T07:13:50Z</time>
      </trkpt>
      <trkpt lat="48.14992" lon="-3.10275">
        <ele>170.6</ele>
        <time>2023-04-10T07:13:51Z</time>
      </trkpt>
      <trkpt lat="48.14992" lon="-3.1028">
        <ele>170.6</ele>
        <time>2023-04-10T07:13:52Z</time>
      </trkpt>
      <trkpt lat="48.14991" lon="-3.10285">
        <ele>170.6</ele>
        <time>2023-04-10T07:13:53Z</time>
      </trkpt>
      <trkpt lat="48.1499" lon="-3.10289">
        <ele>170.8</ele>
        <time>2023-04-10T07:13:54Z</time>
      </trkpt>
      <trkpt lat="48.1499" lon="-3.10294">
        <ele>170.8</ele>
        <time>2023-04-10T07:13:55Z</time>
      </trkpt>
      <trkpt lat="48.14989" lon="-3.10299">
        <ele>171</ele>
        <time>2023-04-10T07:13:56Z</time>
      </trkpt>
      <trkpt lat="48.14989" lon="-3.10304">
        <ele>171</ele>
        <time>2023-04-10T07:13:57Z</time>
      </trkpt>
      <trkpt lat="48.14988" lon="-3.10309">
        <ele>171.2</ele>
        <time>2023-04-10T07:13:58Z</time>
      </trkpt>
      <trkpt lat="48.14987" lon="-3.10314">
        <ele>171.4</ele>
        <time>2023-04-10T07:13:59Z</time>
      </trkpt>
      <trkpt lat="48.14986" lon="-3.10319">
        <ele>171.4</ele>
        <time>2023-04-10T07:14:00Z</time>
      </trkpt>
      <trkpt lat="48.14985" lon="-3.10324">
        <ele>171.4</ele>
        <time>2023-04-10T07:14:01Z</time>
      </trkpt>
      <trkpt lat="48.14984" lon="-3.10329">
        <ele>171.4</ele>
        <time>2023-04-10T07:14:02Z</time>
      </trkpt>
      <trkpt lat="48.14983" lon="-3.10335">
        <ele>171.4</ele>
        <time>2023-04-10T07:14:03Z</time>
      </trkpt>
      <trkpt lat="48.14983" lon="-3.1034">
        <ele>171.6</ele>
        <time>2023-04-10T07:14:04Z</time>
      </trkpt>
      <trkpt lat="48.14982" lon="-3.10345">
        <ele>171.6</ele>
        <time>2023-04-10T07:14:05Z</time>
      </trkpt>
      <trkpt lat="48.14981" lon="-3.1035">
        <ele>171.6</ele>
        <time>2023-04-10T07:14:06Z</time>
      </trkpt>
      <trkpt lat="48.1498" lon="-3.10355">
        <ele>171.6</ele>
        <time>2023-04-10T07:14:07Z</time>
      </trkpt>
      <trkpt lat="48.1498" lon="-3.1036">
        <ele>171.8</ele>
        <time>2023-04-10T07:14:08Z</time>
      </trkpt>
      <trkpt lat="48.14978" lon="-3.10371">
        <ele>171.8</ele>
        <time>2023-04-10T07:14:10Z</time>
      </trkpt>
      <trkpt lat="48.14977" lon="-3.1038">
        <ele>172</ele>
        <time>2023-04-10T07:14:12Z</time>
      </trkpt>
      <trkpt lat="48.14976" lon="-3.10385">
        <ele>172</ele>
        <time>2023-04-10T07:14:13Z</time>
      </trkpt>
      <trkpt lat="48.14975" lon="-3.1039">
        <ele>172.2</ele>
        <time>2023-04-10T07:14:14Z</time>
      </trkpt>
      <trkpt lat="48.14974" lon="-3.10395">
        <ele>172.2</ele>
        <time>2023-04-10T07:14:15Z</time>
      </trkpt>
      <trkpt lat="48.14972" lon="-3.10412">
        <ele>172.2</ele>
        <time>2023-04-10T07:14:18Z</time>
      </trkpt>
      <trkpt lat="48.14971" lon="-3.10416">
        <ele>172.2</ele>
        <time>2023-04-10T07:14:19Z</time>
      </trkpt>
      <trkpt lat="48.1497" lon="-3.10422">
        <ele>172.2</ele>
        <time>2023-04-10T07:14:20Z</time>
      </trkpt>
      <trkpt lat="48.14969" lon="-3.10426">
        <ele>172.2</ele>
        <time>2023-04-10T07:14:21Z</time>
      </trkpt>
      <trkpt lat="48.14967" lon="-3.10441">
        <ele>172.6</ele>
        <time>2023-04-10T07:14:24Z</time>
      </trkpt>
      <trkpt lat="48.14967" lon="-3.10446">
        <ele>172.6</ele>
        <time>2023-04-10T07:14:25Z</time>
      </trkpt>
      <trkpt lat="48.14966" lon="-3.10455">
        <ele>172.8</ele>
        <time>2023-04-10T07:14:27Z</time>
      </trkpt>
      <trkpt lat="48.14965" lon="-3.10459">
        <ele>172.8</ele>
        <time>2023-04-10T07:14:28Z</time>
      </trkpt>
      <trkpt lat="48.14964" lon="-3.10464">
        <ele>173</ele>
        <time>2023-04-10T07:14:29Z</time>
      </trkpt>
      <trkpt lat="48.14962" lon="-3.10477">
        <ele>173.6</ele>
        <time>2023-04-10T07:14:32Z</time>
      </trkpt>
      <trkpt lat="48.14961" lon="-3.10481">
        <ele>173.6</ele>
        <time>2023-04-10T07:14:33Z</time>
      </trkpt>
      <trkpt lat="48.1496" lon="-3.10487">
        <ele>173.8</ele>
        <time>2023-04-10T07:14:34Z</time>
      </trkpt>
      <trkpt lat="48.1496" lon="-3.10491">
        <ele>173.8</ele>
        <time>2023-04-10T07:14:35Z</time>
      </trkpt>
      <trkpt lat="48.1496" lon="-3.10496">
        <ele>174</ele>
        <time>2023-04-10T07:14:36Z</time>
      </trkpt>
      <trkpt lat="48.14959" lon="-3.105">
        <ele>174</ele>
        <time>2023-04-10T07:14:37Z</time>
      </trkpt>
      <trkpt lat="48.14959" lon="-3.10505">
        <ele>174.2</ele>
        <time>2023-04-10T07:14:38Z</time>
      </trkpt>
      <trkpt lat="48.14959" lon="-3.10509">
        <ele>174.4</ele>
        <time>2023-04-10T07:14:39Z</time>
      </trkpt>
      <trkpt lat="48.1496" lon="-3.10518">
        <ele>174.6</ele>
        <time>2023-04-10T07:14:41Z</time>
      </trkpt>
      <trkpt lat="48.14961" lon="-3.10521">
        <ele>174.8</ele>
        <time>2023-04-10T07:14:42Z</time>
      </trkpt>
      <trkpt lat="48.14963" lon="-3.10525">
        <ele>174.8</ele>
        <time>2023-04-10T07:14:43Z</time>
      </trkpt>
      <trkpt lat="48.14965" lon="-3.10527">
        <ele>175</ele>
        <time>2023-04-10T07:14:44Z</time>
      </trkpt>
      <trkpt lat="48.14967" lon="-3.10529">
        <ele>175.2</ele>
        <time>2023-04-10T07:14:45Z</time>
      </trkpt>
      <trkpt lat="48.14968" lon="-3.10531">
        <ele>175.2</ele>
        <time>2023-04-10T07:14:46Z</time>
      </trkpt>
      <trkpt lat="48.1497" lon="-3.10533">
        <ele>175.4</ele>
        <time>2023-04-10T07:14:47Z</time>
      </trkpt>
      <trkpt lat="48.14973" lon="-3.10534">
        <ele>175.6</ele>
        <time>2023-04-10T07:14:48Z</time>
      </trkpt>
      <trkpt lat="48.14975" lon="-3.10535">
        <ele>175.6</ele>
        <time>2023-04-10T07:14:49Z</time>
      </trkpt>
      <trkpt lat="48.14977" lon="-3.10537">
        <ele>175.8</ele>
        <time>2023-04-10T07:14:50Z</time>
      </trkpt>
      <trkpt lat="48.14979" lon="-3.10539">
        <ele>176</ele>
        <time>2023-04-10T07:14:51Z</time>
      </trkpt>
      <trkpt lat="48.14981" lon="-3.10541">
        <ele>176.2</ele>
        <time>2023-04-10T07:14:52Z</time>
      </trkpt>
      <trkpt lat="48.14984" lon="-3.10543">
        <ele>176.4</ele>
        <time>2023-04-10T07:14:53Z</time>
      </trkpt>
      <trkpt lat="48.14985" lon="-3.10544">
        <ele>176.6</ele>
        <time>2023-04-10T07:14:54Z</time>
      </trkpt>
      <trkpt lat="48.14988" lon="-3.10546">
        <ele>177</ele>
        <time>2023-04-10T07:14:55Z</time>
      </trkpt>
      <trkpt lat="48.1499" lon="-3.10548">
        <ele>177.4</ele>
        <time>2023-04-10T07:14:56Z</time>
      </trkpt>
      <trkpt lat="48.14992" lon="-3.10549">
        <ele>177.8</ele>
        <time>2023-04-10T07:14:57Z</time>
      </trkpt>
      <trkpt lat="48.14994" lon="-3.10551">
        <ele>178.2</ele>
        <time>2023-04-10T07:14:58Z</time>
      </trkpt>
      <trkpt lat="48.14996" lon="-3.10553">
        <ele>178.2</ele>
        <time>2023-04-10T07:14:59Z</time>
      </trkpt>
      <trkpt lat="48.14998" lon="-3.10555">
        <ele>178.4</ele>
        <time>2023-04-10T07:15:00Z</time>
      </trkpt>
      <trkpt lat="48.15" lon="-3.10556">
        <ele>178.6</ele>
        <time>2023-04-10T07:15:01Z</time>
      </trkpt>
      <trkpt lat="48.15002" lon="-3.10558">
        <ele>178.8</ele>
        <time>2023-04-10T07:15:02Z</time>
      </trkpt>
      <trkpt lat="48.15004" lon="-3.10559">
        <ele>178.8</ele>
        <time>2023-04-10T07:15:03Z</time>
      </trkpt>
      <trkpt lat="48.15006" lon="-3.10561">
        <ele>178.8</ele>
        <time>2023-04-10T07:15:04Z</time>
      </trkpt>
      <trkpt lat="48.15009" lon="-3.10563">
        <ele>179</ele>
        <time>2023-04-10T07:15:05Z</time>
      </trkpt>
      <trkpt lat="48.15011" lon="-3.10564">
        <ele>179.2</ele>
        <time>2023-04-10T07:15:06Z</time>
      </trkpt>
      <trkpt lat="48.15013" lon="-3.10566">
        <ele>179.4</ele>
        <time>2023-04-10T07:15:07Z</time>
      </trkpt>
      <trkpt lat="48.15015" lon="-3.10567">
        <ele>179.6</ele>
        <time>2023-04-10T07:15:08Z</time>
      </trkpt>
      <trkpt lat="48.15017" lon="-3.10569">
        <ele>179.8</ele>
        <time>2023-04-10T07:15:09Z</time>
      </trkpt>
      <trkpt lat="48.15019" lon="-3.10571">
        <ele>180</ele>
        <time>2023-04-10T07:15:10Z</time>
      </trkpt>
      <trkpt lat="48.1502" lon="-3.10572">
        <ele>180.4</ele>
        <time>2023-04-10T07:15:11Z</time>
      </trkpt>
      <trkpt lat="48.15022" lon="-3.10574">
        <ele>180.6</ele>
        <time>2023-04-10T07:15:12Z</time>
      </trkpt>
      <trkpt lat="48.15024" lon="-3.10576">
        <ele>180.8</ele>
        <time>2023-04-10T07:15:13Z</time>
      </trkpt>
      <trkpt lat="48.15026" lon="-3.10577">
        <ele>180.8</ele>
        <time>2023-04-10T07:15:14Z</time>
      </trkpt>
      <trkpt lat="48.15027" lon="-3.10578">
        <ele>181.2</ele>
        <time>2023-04-10T07:15:15Z</time>
      </trkpt>
      <trkpt lat="48.15029" lon="-3.1058">
        <ele>181.4</ele>
        <time>2023-04-10T07:15:16Z</time>
      </trkpt>
      <trkpt lat="48.15032" lon="-3.10583">
        <ele>181.6</ele>
        <time>2023-04-10T07:15:17Z</time>
      </trkpt>
      <trkpt lat="48.15034" lon="-3.10584">
        <ele>181.8</ele>
        <time>2023-04-10T07:15:18Z</time>
      </trkpt>
      <trkpt lat="48.15035" lon="-3.10586">
        <ele>182.2</ele>
        <time>2023-04-10T07:15:19Z</time>
      </trkpt>
      <trkpt lat="48.15037" lon="-3.10587">
        <ele>182.6</ele>
        <time>2023-04-10T07:15:20Z</time>
      </trkpt>
      <trkpt lat="48.1504" lon="-3.10589">
        <ele>182.6</ele>
        <time>2023-04-10T07:15:21Z</time>
      </trkpt>
      <trkpt lat="48.15042" lon="-3.10591">
        <ele>182.8</ele>
        <time>2023-04-10T07:15:22Z</time>
      </trkpt>
      <trkpt lat="48.15044" lon="-3.10592">
        <ele>183.2</ele>
        <time>2023-04-10T07:15:23Z</time>
      </trkpt>
      <trkpt lat="48.15046" lon="-3.10594">
        <ele>183.6</ele>
        <time>2023-04-10T07:15:24Z</time>
      </trkpt>
      <trkpt lat="48.15048" lon="-3.10595">
        <ele>183.8</ele>
        <time>2023-04-10T07:15:25Z</time>
      </trkpt>
      <trkpt lat="48.1505" lon="-3.10597">
        <ele>184</ele>
        <time>2023-04-10T07:15:26Z</time>
      </trkpt>
      <trkpt lat="48.15052" lon="-3.10597">
        <ele>184</ele>
        <time>2023-04-10T07:15:27Z</time>
      </trkpt>
      <trkpt lat="48.15055" lon="-3.10598">
        <ele>184.2</ele>
        <time>2023-04-10T07:15:28Z</time>
      </trkpt>
      <trkpt lat="48.15057" lon="-3.10598">
        <ele>184.4</ele>
        <time>2023-04-10T07:15:29Z</time>
      </trkpt>
      <trkpt lat="48.15059" lon="-3.10599">
        <ele>184.6</ele>
        <time>2023-04-10T07:15:30Z</time>
      </trkpt>
      <trkpt lat="48.15061" lon="-3.106">
        <ele>184.8</ele>
        <time>2023-04-10T07:15:31Z</time>
      </trkpt>
      <trkpt lat="48.15063" lon="-3.106">
        <ele>185</ele>
        <time>2023-04-10T07:15:32Z</time>
      </trkpt>
      <trkpt lat="48.15065" lon="-3.10599">
        <ele>185.4</ele>
        <time>2023-04-10T07:15:33Z</time>
      </trkpt>
      <trkpt lat="48.15067" lon="-3.10599">
        <ele>185.6</ele>
        <time>2023-04-10T07:15:34Z</time>
      </trkpt>
      <trkpt lat="48.15069" lon="-3.10599">
        <ele>185.8</ele>
        <time>2023-04-10T07:15:35Z</time>
      </trkpt>
      <trkpt lat="48.15071" lon="-3.10598">
        <ele>186.2</ele>
        <time>2023-04-10T07:15:36Z</time>
      </trkpt>
      <trkpt lat="48.15072" lon="-3.10597">
        <ele>186.4</ele>
        <time>2023-04-10T07:15:37Z</time>
      </trkpt>
      <trkpt lat="48.15075" lon="-3.10596">
        <ele>186.6</ele>
        <time>2023-04-10T07:15:38Z</time>
      </trkpt>
      <trkpt lat="48.15076" lon="-3.10594">
        <ele>186.8</ele>
        <time>2023-04-10T07:15:39Z</time>
      </trkpt>
      <trkpt lat="48.15079" lon="-3.10593">
        <ele>187.2</ele>
        <time>2023-04-10T07:15:40Z</time>
      </trkpt>
      <trkpt lat="48.15081" lon="-3.10592">
        <ele>187.4</ele>
        <time>2023-04-10T07:15:41Z</time>
      </trkpt>
      <trkpt lat="48.15082" lon="-3.10591">
        <ele>187.8</ele>
        <time>2023-04-10T07:15:42Z</time>
      </trkpt>
      <trkpt lat="48.15084" lon="-3.10589">
        <ele>187.8</ele>
        <time>2023-04-10T07:15:43Z</time>
      </trkpt>
      <trkpt lat="48.15085" lon="-3.10587">
        <ele>188</ele>
        <time>2023-04-10T07:15:44Z</time>
      </trkpt>
      <trkpt lat="48.15088" lon="-3.10585">
        <ele>188.2</ele>
        <time>2023-04-10T07:15:45Z</time>
      </trkpt>
      <trkpt lat="48.1509" lon="-3.10583">
        <ele>188.6</ele>
        <time>2023-04-10T07:15:46Z</time>
      </trkpt>
      <trkpt lat="48.15092" lon="-3.10582">
        <ele>188.6</ele>
        <time>2023-04-10T07:15:47Z</time>
      </trkpt>
      <trkpt lat="48.15094" lon="-3.10581">
        <ele>188.8</ele>
        <time>2023-04-10T07:15:48Z</time>
      </trkpt>
      <trkpt lat="48.15096" lon="-3.10579">
        <ele>189</ele>
        <time>2023-04-10T07:15:49Z</time>
      </trkpt>
      <trkpt lat="48.15098" lon="-3.10578">
        <ele>189.2</ele>
        <time>2023-04-10T07:15:50Z</time>
      </trkpt>
      <trkpt lat="48.151" lon="-3.10576">
        <ele>189.4</ele>
        <time>2023-04-10T07:15:51Z</time>
      </trkpt>
      <trkpt lat="48.15102" lon="-3.10574">
        <ele>189.6</ele>
        <time>2023-04-10T07:15:52Z</time>
      </trkpt>
      <trkpt lat="48.15104" lon="-3.10573">
        <ele>189.8</ele>
        <time>2023-04-10T07:15:53Z</time>
      </trkpt>
      <trkpt lat="48.15106" lon="-3.10572">
        <ele>189.8</ele>
        <time>2023-04-10T07:15:54Z</time>
      </trkpt>
      <trkpt lat="48.15108" lon="-3.1057">
        <ele>190</ele>
        <time>2023-04-10T07:15:55Z</time>
      </trkpt>
      <trkpt lat="48.1511" lon="-3.10569">
        <ele>190</ele>
        <time>2023-04-10T07:15:56Z</time>
      </trkpt>
      <trkpt lat="48.15111" lon="-3.10567">
        <ele>190.2</ele>
        <time>2023-04-10T07:15:57Z</time>
      </trkpt>
      <trkpt lat="48.15113" lon="-3.10565">
        <ele>190.4</ele>
        <time>2023-04-10T07:15:58Z</time>
      </trkpt>
      <trkpt lat="48.15115" lon="-3.10564">
        <ele>190.4</ele>
        <time>2023-04-10T07:15:59Z</time>
      </trkpt>
      <trkpt lat="48.15118" lon="-3.10562">
        <ele>190.6</ele>
        <time>2023-04-10T07:16:00Z</time>
      </trkpt>
      <trkpt lat="48.1512" lon="-3.10561">
        <ele>190.8</ele>
        <time>2023-04-10T07:16:01Z</time>
      </trkpt>
      <trkpt lat="48.15122" lon="-3.10559">
        <ele>191</ele>
        <time>2023-04-10T07:16:02Z</time>
      </trkpt>
      <trkpt lat="48.15124" lon="-3.10557">
        <ele>191</ele>
        <time>2023-04-10T07:16:03Z</time>
      </trkpt>
      <trkpt lat="48.15126" lon="-3.10556">
        <ele>191.2</ele>
        <time>2023-04-10T07:16:04Z</time>
      </trkpt>
      <trkpt lat="48.15128" lon="-3.10554">
        <ele>191.4</ele>
        <time>2023-04-10T07:16:05Z</time>
      </trkpt>
      <trkpt lat="48.15129" lon="-3.10553">
        <ele>191.4</ele>
        <time>2023-04-10T07:16:06Z</time>
      </trkpt>
      <trkpt lat="48.15131" lon="-3.10551">
        <ele>191.4</ele>
        <time>2023-04-10T07:16:07Z</time>
      </trkpt>
      <trkpt lat="48.15133" lon="-3.10549">
        <ele>191.6</ele>
        <time>2023-04-10T07:16:08Z</time>
      </trkpt>
      <trkpt lat="48.15135" lon="-3.10547">
        <ele>191.8</ele>
        <time>2023-04-10T07:16:09Z</time>
      </trkpt>
      <trkpt lat="48.15137" lon="-3.10546">
        <ele>192</ele>
        <time>2023-04-10T07:16:10Z</time>
      </trkpt>
      <trkpt lat="48.15139" lon="-3.10544">
        <ele>192</ele>
        <time>2023-04-10T07:16:11Z</time>
      </trkpt>
      <trkpt lat="48.15141" lon="-3.10543">
        <ele>192.2</ele>
        <time>2023-04-10T07:16:12Z</time>
      </trkpt>
      <trkpt lat="48.15143" lon="-3.10541">
        <ele>192.4</ele>
        <time>2023-04-10T07:16:13Z</time>
      </trkpt>
      <trkpt lat="48.15146" lon="-3.1054">
        <ele>192.6</ele>
        <time>2023-04-10T07:16:14Z</time>
      </trkpt>
      <trkpt lat="48.15148" lon="-3.10539">
        <ele>192.8</ele>
        <time>2023-04-10T07:16:15Z</time>
      </trkpt>
      <trkpt lat="48.15149" lon="-3.10537">
        <ele>192.8</ele>
        <time>2023-04-10T07:16:16Z</time>
      </trkpt>
      <trkpt lat="48.15151" lon="-3.10535">
        <ele>193</ele>
        <time>2023-04-10T07:16:17Z</time>
      </trkpt>
      <trkpt lat="48.15153" lon="-3.10534">
        <ele>193.2</ele>
        <time>2023-04-10T07:16:18Z</time>
      </trkpt>
      <trkpt lat="48.15155" lon="-3.10532">
        <ele>193.2</ele>
        <time>2023-04-10T07:16:19Z</time>
      </trkpt>
      <trkpt lat="48.15157" lon="-3.10531">
        <ele>193.6</ele>
        <time>2023-04-10T07:16:20Z</time>
      </trkpt>
      <trkpt lat="48.15159" lon="-3.1053">
        <ele>193.6</ele>
        <time>2023-04-10T07:16:21Z</time>
      </trkpt>
      <trkpt lat="48.15161" lon="-3.10528">
        <ele>193.8</ele>
        <time>2023-04-10T07:16:22Z</time>
      </trkpt>
      <trkpt lat="48.15162" lon="-3.10526">
        <ele>194</ele>
        <time>2023-04-10T07:16:23Z</time>
      </trkpt>
      <trkpt lat="48.15164" lon="-3.10523">
        <ele>194.2</ele>
        <time>2023-04-10T07:16:24Z</time>
      </trkpt>
      <trkpt lat="48.15166" lon="-3.10521">
        <ele>194.2</ele>
        <time>2023-04-10T07:16:25Z</time>
      </trkpt>
      <trkpt lat="48.15168" lon="-3.10519">
        <ele>194.4</ele>
        <time>2023-04-10T07:16:26Z</time>
      </trkpt>
      <trkpt lat="48.1517" lon="-3.10518">
        <ele>194.6</ele>
        <time>2023-04-10T07:16:27Z</time>
      </trkpt>
      <trkpt lat="48.15172" lon="-3.10517">
        <ele>194.6</ele>
        <time>2023-04-10T07:16:28Z</time>
      </trkpt>
      <trkpt lat="48.15174" lon="-3.10515">
        <ele>194.8</ele>
        <time>2023-04-10T07:16:29Z</time>
      </trkpt>
      <trkpt lat="48.15176" lon="-3.10513">
        <ele>195</ele>
        <time>2023-04-10T07:16:30Z</time>
      </trkpt>
      <trkpt lat="48.15177" lon="-3.10511">
        <ele>195.2</ele>
        <time>2023-04-10T07:16:31Z</time>
      </trkpt>
      <trkpt lat="48.15179" lon="-3.10509">
        <ele>195.4</ele>
        <time>2023-04-10T07:16:32Z</time>
      </trkpt>
      <trkpt lat="48.15181" lon="-3.10507">
        <ele>195.6</ele>
        <time>2023-04-10T07:16:33Z</time>
      </trkpt>
      <trkpt lat="48.15183" lon="-3.10506">
        <ele>195.8</ele>
        <time>2023-04-10T07:16:34Z</time>
      </trkpt>
      <trkpt lat="48.15185" lon="-3.10504">
        <ele>196.2</ele>
        <time>2023-04-10T07:16:35Z</time>
      </trkpt>
      <trkpt lat="48.15187" lon="-3.10502">
        <ele>196.4</ele>
        <time>2023-04-10T07:16:36Z</time>
      </trkpt>
      <trkpt lat="48.15189" lon="-3.10501">
        <ele>196.6</ele>
        <time>2023-04-10T07:16:37Z</time>
      </trkpt>
      <trkpt lat="48.15191" lon="-3.105">
        <ele>196.8</ele>
        <time>2023-04-10T07:16:38Z</time>
      </trkpt>
      <trkpt lat="48.15194" lon="-3.105">
        <ele>197.2</ele>
        <time>2023-04-10T07:16:39Z</time>
      </trkpt>
      <trkpt lat="48.15196" lon="-3.10499">
        <ele>197.4</ele>
        <time>2023-04-10T07:16:40Z</time>
      </trkpt>
      <trkpt lat="48.15197" lon="-3.10497">
        <ele>197.8</ele>
        <time>2023-04-10T07:16:41Z</time>
      </trkpt>
      <trkpt lat="48.15198" lon="-3.10496">
        <ele>198</ele>
        <time>2023-04-10T07:16:42Z</time>
      </trkpt>
      <trkpt lat="48.152" lon="-3.10494">
        <ele>198.2</ele>
        <time>2023-04-10T07:16:43Z</time>
      </trkpt>
      <trkpt lat="48.15202" lon="-3.10493">
        <ele>198.4</ele>
        <time>2023-04-10T07:16:44Z</time>
      </trkpt>
      <trkpt lat="48.15204" lon="-3.10491">
        <ele>198.8</ele>
        <time>2023-04-10T07:16:45Z</time>
      </trkpt>
      <trkpt lat="48.15205" lon="-3.10489">
        <ele>199</ele>
        <time>2023-04-10T07:16:46Z</time>
      </trkpt>
      <trkpt lat="48.15207" lon="-3.10487">
        <ele>199.4</ele>
        <time>2023-04-10T07:16:47Z</time>
      </trkpt>
      <trkpt lat="48.15209" lon="-3.10486">
        <ele>199.6</ele>
        <time>2023-04-10T07:16:48Z</time>
      </trkpt>
      <trkpt lat="48.1521" lon="-3.10484">
        <ele>200</ele>
        <time>2023-04-10T07:16:49Z</time>
      </trkpt>
      <trkpt lat="48.15212" lon="-3.10482">
        <ele>200</ele>
        <time>2023-04-10T07:16:50Z</time>
      </trkpt>
      <trkpt lat="48.15213" lon="-3.1048">
        <ele>200.2</ele>
        <time>2023-04-10T07:16:51Z</time>
      </trkpt>
      <trkpt lat="48.15215" lon="-3.10479">
        <ele>200.6</ele>
        <time>2023-04-10T07:16:52Z</time>
      </trkpt>
      <trkpt lat="48.15217" lon="-3.10477">
        <ele>200.8</ele>
        <time>2023-04-10T07:16:53Z</time>
      </trkpt>
      <trkpt lat="48.15219" lon="-3.10476">
        <ele>201.2</ele>
        <time>2023-04-10T07:16:54Z</time>
      </trkpt>
      <trkpt lat="48.15221" lon="-3.10475">
        <ele>201.4</ele>
        <time>2023-04-10T07:16:55Z</time>
      </trkpt>
      <trkpt lat="48.15223" lon="-3.10474">
        <ele>201.6</ele>
        <time>2023-04-10T07:16:56Z</time>
      </trkpt>
      <trkpt lat="48.15225" lon="-3.10473">
        <ele>202</ele>
        <time>2023-04-10T07:16:57Z</time>
      </trkpt>
      <trkpt lat="48.15227" lon="-3.10471">
        <ele>202.2</ele>
        <time>2023-04-10T07:16:58Z</time>
      </trkpt>
      <trkpt lat="48.15229" lon="-3.1047">
        <ele>202.4</ele>
        <time>2023-04-10T07:16:59Z</time>
      </trkpt>
      <trkpt lat="48.15231" lon="-3.10469">
        <ele>202.8</ele>
        <time>2023-04-10T07:17:00Z</time>
      </trkpt>
      <trkpt lat="48.15233" lon="-3.10469">
        <ele>203</ele>
        <time>2023-04-10T07:17:01Z</time>
      </trkpt>
      <trkpt lat="48.15235" lon="-3.10468">
        <ele>203.2</ele>
        <time>2023-04-10T07:17:02Z</time>
      </trkpt>
      <trkpt lat="48.15237" lon="-3.10468">
        <ele>203.4</ele>
        <time>2023-04-10T07:17:03Z</time>
      </trkpt>
      <trkpt lat="48.15239" lon="-3.10468">
        <ele>203.6</ele>
        <time>2023-04-10T07:17:04Z</time>
      </trkpt>
      <trkpt lat="48.1524" lon="-3.10468">
        <ele>203.8</ele>
        <time>2023-04-10T07:17:05Z</time>
      </trkpt>
      <trkpt lat="48.15242" lon="-3.10468">
        <ele>204.2</ele>
        <time>2023-04-10T07:17:06Z</time>
      </trkpt>
      <trkpt lat="48.15244" lon="-3.10468">
        <ele>204.4</ele>
        <time>2023-04-10T07:17:07Z</time>
      </trkpt>
      <trkpt lat="48.15245" lon="-3.10468">
        <ele>204.6</ele>
        <time>2023-04-10T07:17:08Z</time>
      </trkpt>
      <trkpt lat="48.15246" lon="-3.10468">
        <ele>205</ele>
        <time>2023-04-10T07:17:09Z</time>
      </trkpt>
      <trkpt lat="48.15248" lon="-3.10468">
        <ele>205.2</ele>
        <time>2023-04-10T07:17:10Z</time>
      </trkpt>
      <trkpt lat="48.15249" lon="-3.10469">
        <ele>205.4</ele>
        <time>2023-04-10T07:17:11Z</time>
      </trkpt>
      <trkpt lat="48.15251" lon="-3.10469">
        <ele>205.4</ele>
        <time>2023-04-10T07:17:12Z</time>
      </trkpt>
      <trkpt lat="48.15252" lon="-3.10469">
        <ele>205.6</ele>
        <time>2023-04-10T07:17:13Z</time>
      </trkpt>
      <trkpt lat="48.15253" lon="-3.1047">
        <ele>205.8</ele>
        <time>2023-04-10T07:17:14Z</time>
      </trkpt>
      <trkpt lat="48.15254" lon="-3.10471">
        <ele>206</ele>
        <time>2023-04-10T07:17:15Z</time>
      </trkpt>
      <trkpt lat="48.15255" lon="-3.10471">
        <ele>206.2</ele>
        <time>2023-04-10T07:17:16Z</time>
      </trkpt>
      <trkpt lat="48.15258" lon="-3.10472">
        <ele>206.4</ele>
        <time>2023-04-10T07:17:17Z</time>
      </trkpt>
      <trkpt lat="48.1526" lon="-3.10474">
        <ele>206.8</ele>
        <time>2023-04-10T07:17:18Z</time>
      </trkpt>
      <trkpt lat="48.15261" lon="-3.10474">
        <ele>207</ele>
        <time>2023-04-10T07:17:19Z</time>
      </trkpt>
      <trkpt lat="48.15263" lon="-3.10475">
        <ele>207.2</ele>
        <time>2023-04-10T07:17:20Z</time>
      </trkpt>
      <trkpt lat="48.15264" lon="-3.10476">
        <ele>207.4</ele>
        <time>2023-04-10T07:17:21Z</time>
      </trkpt>
      <trkpt lat="48.15266" lon="-3.10477">
        <ele>207.6</ele>
        <time>2023-04-10T07:17:22Z</time>
      </trkpt>
      <trkpt lat="48.15267" lon="-3.10479">
        <ele>208</ele>
        <time>2023-04-10T07:17:23Z</time>
      </trkpt>
      <trkpt lat="48.15268" lon="-3.10481">
        <ele>208.2</ele>
        <time>2023-04-10T07:17:24Z</time>
      </trkpt>
      <trkpt lat="48.15269" lon="-3.10483">
        <ele>208.4</ele>
        <time>2023-04-10T07:17:25Z</time>
      </trkpt>
      <trkpt lat="48.15271" lon="-3.10485">
        <ele>208.8</ele>
        <time>2023-04-10T07:17:26Z</time>
      </trkpt>
      <trkpt lat="48.15272" lon="-3.10487">
        <ele>209</ele>
        <time>2023-04-10T07:17:27Z</time>
      </trkpt>
      <trkpt lat="48.15273" lon="-3.10489">
        <ele>209.2</ele>
        <time>2023-04-10T07:17:28Z</time>
      </trkpt>
      <trkpt lat="48.15275" lon="-3.10491">
        <ele>209.4</ele>
        <time>2023-04-10T07:17:29Z</time>
      </trkpt>
      <trkpt lat="48.15276" lon="-3.10493">
        <ele>209.8</ele>
        <time>2023-04-10T07:17:30Z</time>
      </trkpt>
      <trkpt lat="48.15277" lon="-3.10495">
        <ele>210</ele>
        <time>2023-04-10T07:17:31Z</time>
      </trkpt>
      <trkpt lat="48.15278" lon="-3.10498">
        <ele>210.2</ele>
        <time>2023-04-10T07:17:32Z</time>
      </trkpt>
      <trkpt lat="48.15279" lon="-3.105">
        <ele>210.6</ele>
        <time>2023-04-10T07:17:33Z</time>
      </trkpt>
      <trkpt lat="48.1528" lon="-3.10503">
        <ele>210.6</ele>
        <time>2023-04-10T07:17:34Z</time>
      </trkpt>
      <trkpt lat="48.15281" lon="-3.10506">
        <ele>211</ele>
        <time>2023-04-10T07:17:35Z</time>
      </trkpt>
      <trkpt lat="48.15282" lon="-3.10508">
        <ele>211.2</ele>
        <time>2023-04-10T07:17:36Z</time>
      </trkpt>
      <trkpt lat="48.15283" lon="-3.1051">
        <ele>211.6</ele>
        <time>2023-04-10T07:17:37Z</time>
      </trkpt>
      <trkpt lat="48.15284" lon="-3.10513">
        <ele>211.8</ele>
        <time>2023-04-10T07:17:38Z</time>
      </trkpt>
      <trkpt lat="48.15285" lon="-3.10515">
        <ele>212.2</ele>
        <time>2023-04-10T07:17:39Z</time>
      </trkpt>
      <trkpt lat="48.15285" lon="-3.10517">
        <ele>212.4</ele>
        <time>2023-04-10T07:17:40Z</time>
      </trkpt>
      <trkpt lat="48.15285" lon="-3.1052">
        <ele>212.8</ele>
        <time>2023-04-10T07:17:41Z</time>
      </trkpt>
      <trkpt lat="48.15286" lon="-3.10522">
        <ele>213</ele>
        <time>2023-04-10T07:17:42Z</time>
      </trkpt>
      <trkpt lat="48.15286" lon="-3.10525">
        <ele>213.2</ele>
        <time>2023-04-10T07:17:43Z</time>
      </trkpt>
      <trkpt lat="48.15287" lon="-3.10527">
        <ele>213.6</ele>
        <time>2023-04-10T07:17:44Z</time>
      </trkpt>
      <trkpt lat="48.15287" lon="-3.10529">
        <ele>213.8</ele>
        <time>2023-04-10T07:17:45Z</time>
      </trkpt>
      <trkpt lat="48.15287" lon="-3.10532">
        <ele>214.2</ele>
        <time>2023-04-10T07:17:46Z</time>
      </trkpt>
      <trkpt lat="48.15288" lon="-3.10535">
        <ele>214.2</ele>
        <time>2023-04-10T07:17:47Z</time>
      </trkpt>
      <trkpt lat="48.15288" lon="-3.10538">
        <ele>214.4</ele>
        <time>2023-04-10T07:17:48Z</time>
      </trkpt>
      <trkpt lat="48.15288" lon="-3.1054">
        <ele>214.6</ele>
        <time>2023-04-10T07:17:49Z</time>
      </trkpt>
      <trkpt lat="48.15287" lon="-3.10543">
        <ele>215</ele>
        <time>2023-04-10T07:17:50Z</time>
      </trkpt>
      <trkpt lat="48.15287" lon="-3.10546">
        <ele>215.2</ele>
        <time>2023-04-10T07:17:51Z</time>
      </trkpt>
      <trkpt lat="48.15286" lon="-3.10548">
        <ele>215.4</ele>
        <time>2023-04-10T07:17:52Z</time>
      </trkpt>
      <trkpt lat="48.15286" lon="-3.10551">
        <ele>215.6</ele>
        <time>2023-04-10T07:17:53Z</time>
      </trkpt>
      <trkpt lat="48.15286" lon="-3.10554">
        <ele>215.8</ele>
        <time>2023-04-10T07:17:54Z</time>
      </trkpt>
      <trkpt lat="48.15285" lon="-3.10556">
        <ele>216</ele>
        <time>2023-04-10T07:17:55Z</time>
      </trkpt>
      <trkpt lat="48.15284" lon="-3.10559">
        <ele>216</ele>
        <time>2023-04-10T07:17:56Z</time>
      </trkpt>
      <trkpt lat="48.15284" lon="-3.10562">
        <ele>216.2</ele>
        <time>2023-04-10T07:17:57Z</time>
      </trkpt>
      <trkpt lat="48.15283" lon="-3.10564">
        <ele>216.4</ele>
        <time>2023-04-10T07:17:58Z</time>
      </trkpt>
      <trkpt lat="48.15282" lon="-3.10567">
        <ele>216.6</ele>
        <time>2023-04-10T07:17:59Z</time>
      </trkpt>
      <trkpt lat="48.15281" lon="-3.10569">
        <ele>216.6</ele>
        <time>2023-04-10T07:18:00Z</time>
      </trkpt>
      <trkpt lat="48.1528" lon="-3.10571">
        <ele>217</ele>
        <time>2023-04-10T07:18:01Z</time>
      </trkpt>
      <trkpt lat="48.15279" lon="-3.10573">
        <ele>217.2</ele>
        <time>2023-04-10T07:18:02Z</time>
      </trkpt>
      <trkpt lat="48.15278" lon="-3.10576">
        <ele>217.4</ele>
        <time>2023-04-10T07:18:03Z</time>
      </trkpt>
      <trkpt lat="48.15277" lon="-3.10578">
        <ele>217.6</ele>
        <time>2023-04-10T07:18:04Z</time>
      </trkpt>
      <trkpt lat="48.15276" lon="-3.1058">
        <ele>217.8</ele>
        <time>2023-04-10T07:18:05Z</time>
      </trkpt>
      <trkpt lat="48.15275" lon="-3.10581">
        <ele>218</ele>
        <time>2023-04-10T07:18:06Z</time>
      </trkpt>
      <trkpt lat="48.15273" lon="-3.10583">
        <ele>218.2</ele>
        <time>2023-04-10T07:18:07Z</time>
      </trkpt>
      <trkpt lat="48.15271" lon="-3.10585">
        <ele>218.4</ele>
        <time>2023-04-10T07:18:08Z</time>
      </trkpt>
      <trkpt lat="48.15269" lon="-3.10587">
        <ele>218.6</ele>
        <time>2023-04-10T07:18:09Z</time>
      </trkpt>
      <trkpt lat="48.15268" lon="-3.10589">
        <ele>219</ele>
        <time>2023-04-10T07:18:10Z</time>
      </trkpt>
      <trkpt lat="48.15267" lon="-3.10592">
        <ele>219.2</ele>
        <time>2023-04-10T07:18:11Z</time>
      </trkpt>
      <trkpt lat="48.15265" lon="-3.10594">
        <ele>219.4</ele>
        <time>2023-04-10T07:18:12Z</time>
      </trkpt>
      <trkpt lat="48.15264" lon="-3.10596">
        <ele>219.6</ele>
        <time>2023-04-10T07:18:13Z</time>
      </trkpt>
      <trkpt lat="48.15262" lon="-3.10598">
        <ele>219.8</ele>
        <time>2023-04-10T07:18:14Z</time>
      </trkpt>
      <trkpt lat="48.15261" lon="-3.106">
        <ele>219.8</ele>
        <time>2023-04-10T07:18:15Z</time>
      </trkpt>
      <trkpt lat="48.15259" lon="-3.10602">
        <ele>220</ele>
        <time>2023-04-10T07:18:16Z</time>
      </trkpt>
      <trkpt lat="48.15258" lon="-3.10605">
        <ele>220.2</ele>
        <time>2023-04-10T07:18:17Z</time>
      </trkpt>
      <trkpt lat="48.15257" lon="-3.10607">
        <ele>220.2</ele>
        <time>2023-04-10T07:18:18Z</time>
      </trkpt>
      <trkpt lat="48.15255" lon="-3.10609">
        <ele>220.4</ele>
        <time>2023-04-10T07:18:19Z</time>
      </trkpt>
      <trkpt lat="48.15254" lon="-3.10611">
        <ele>220.4</ele>
        <time>2023-04-10T07:18:20Z</time>
      </trkpt>
      <trkpt lat="48.15253" lon="-3.10613">
        <ele>220.6</ele>
        <time>2023-04-10T07:18:21Z</time>
      </trkpt>
      <trkpt lat="48.15252" lon="-3.10616">
        <ele>220.8</ele>
        <time>2023-04-10T07:18:22Z</time>
      </trkpt>
      <trkpt lat="48.1525" lon="-3.10617">
        <ele>221</ele>
        <time>2023-04-10T07:18:23Z</time>
      </trkpt>
      <trkpt lat="48.15249" lon="-3.1062">
        <ele>221.4</ele>
        <time>2023-04-10T07:18:24Z</time>
      </trkpt>
      <trkpt lat="48.15248" lon="-3.10622">
        <ele>221.6</ele>
        <time>2023-04-10T07:18:25Z</time>
      </trkpt>
      <trkpt lat="48.15246" lon="-3.10623">
        <ele>221.8</ele>
        <time>2023-04-10T07:18:26Z</time>
      </trkpt>
      <trkpt lat="48.15245" lon="-3.10625">
        <ele>222</ele>
        <time>2023-04-10T07:18:27Z</time>
      </trkpt>
      <trkpt lat="48.15243" lon="-3.10627">
        <ele>222.2</ele>
        <time>2023-04-10T07:18:28Z</time>
      </trkpt>
      <trkpt lat="48.15242" lon="-3.10628">
        <ele>222.4</ele>
        <time>2023-04-10T07:18:29Z</time>
      </trkpt>
      <trkpt lat="48.15241" lon="-3.1063">
        <ele>222.6</ele>
        <time>2023-04-10T07:18:30Z</time>
      </trkpt>
      <trkpt lat="48.15239" lon="-3.10633">
        <ele>222.8</ele>
        <time>2023-04-10T07:18:31Z</time>
      </trkpt>
      <trkpt lat="48.15237" lon="-3.10635">
        <ele>223</ele>
        <time>2023-04-10T07:18:32Z</time>
      </trkpt>
      <trkpt lat="48.15236" lon="-3.10637">
        <ele>223.2</ele>
        <time>2023-04-10T07:18:33Z</time>
      </trkpt>
      <trkpt lat="48.15234" lon="-3.10639">
        <ele>223.4</ele>
        <time>2023-04-10T07:18:34Z</time>
      </trkpt>
      <trkpt lat="48.15233" lon="-3.10642">
        <ele>223.8</ele>
        <time>2023-04-10T07:18:35Z</time>
      </trkpt>
      <trkpt lat="48.15231" lon="-3.10644">
        <ele>224</ele>
        <time>2023-04-10T07:18:36Z</time>
      </trkpt>
      <trkpt lat="48.1523" lon="-3.10645">
        <ele>224</ele>
        <time>2023-04-10T07:18:37Z</time>
      </trkpt>
      <trkpt lat="48.15228" lon="-3.10647">
        <ele>224.4</ele>
        <time>2023-04-10T07:18:38Z</time>
      </trkpt>
      <trkpt lat="48.15226" lon="-3.10649">
        <ele>224.6</ele>
        <time>2023-04-10T07:18:39Z</time>
      </trkpt>
      <trkpt lat="48.15225" lon="-3.1065">
        <ele>224.8</ele>
        <time>2023-04-10T07:18:40Z</time>
      </trkpt>
      <trkpt lat="48.15223" lon="-3.10653">
        <ele>224.8</ele>
        <time>2023-04-10T07:18:41Z</time>
      </trkpt>
      <trkpt lat="48.15222" lon="-3.10654">
        <ele>224.8</ele>
        <time>2023-04-10T07:18:42Z</time>
      </trkpt>
      <trkpt lat="48.1522" lon="-3.10656">
        <ele>225</ele>
        <time>2023-04-10T07:18:43Z</time>
      </trkpt>
      <trkpt lat="48.15219" lon="-3.10658">
        <ele>225.2</ele>
        <time>2023-04-10T07:18:44Z</time>
      </trkpt>
      <trkpt lat="48.15218" lon="-3.1066">
        <ele>225.4</ele>
        <time>2023-04-10T07:18:45Z</time>
      </trkpt>
      <trkpt lat="48.15217" lon="-3.10662">
        <ele>225.6</ele>
        <time>2023-04-10T07:18:46Z</time>
      </trkpt>
      <trkpt lat="48.15216" lon="-3.10664">
        <ele>225.8</ele>
        <time>2023-04-10T07:18:47Z</time>
      </trkpt>
      <trkpt lat="48.15215" lon="-3.10667">
        <ele>226</ele>
        <time>2023-04-10T07:18:48Z</time>
      </trkpt>
      <trkpt lat="48.15213" lon="-3.10669">
        <ele>226</ele>
        <time>2023-04-10T07:18:49Z</time>
      </trkpt>
      <trkpt lat="48.15212" lon="-3.10671">
        <ele>226.2</ele>
        <time>2023-04-10T07:18:50Z</time>
      </trkpt>
      <trkpt lat="48.15211" lon="-3.10673">
        <ele>226.4</ele>
        <time>2023-04-10T07:18:51Z</time>
      </trkpt>
      <trkpt lat="48.1521" lon="-3.10674">
        <ele>226.4</ele>
        <time>2023-04-10T07:18:52Z</time>
      </trkpt>
      <trkpt lat="48.15209" lon="-3.10676">
        <ele>226.6</ele>
        <time>2023-04-10T07:18:53Z</time>
      </trkpt>
      <trkpt lat="48.15207" lon="-3.10678">
        <ele>226.6</ele>
        <time>2023-04-10T07:18:54Z</time>
      </trkpt>
      <trkpt lat="48.15206" lon="-3.10679">
        <ele>226.6</ele>
        <time>2023-04-10T07:18:55Z</time>
      </trkpt>
      <trkpt lat="48.15205" lon="-3.10682">
        <ele>226.8</ele>
        <time>2023-04-10T07:18:56Z</time>
      </trkpt>
      <trkpt lat="48.15204" lon="-3.10685">
        <ele>226.8</ele>
        <time>2023-04-10T07:18:57Z</time>
      </trkpt>
      <trkpt lat="48.15203" lon="-3.10687">
        <ele>227</ele>
        <time>2023-04-10T07:18:58Z</time>
      </trkpt>
      <trkpt lat="48.15202" lon="-3.1069">
        <ele>227</ele>
        <time>2023-04-10T07:18:59Z</time>
      </trkpt>
      <trkpt lat="48.15201" lon="-3.10693">
        <ele>227.2</ele>
        <time>2023-04-10T07:19:00Z</time>
      </trkpt>
      <trkpt lat="48.152" lon="-3.10695">
        <ele>227.2</ele>
        <time>2023-04-10T07:19:01Z</time>
      </trkpt>
      <trkpt lat="48.15199" lon="-3.10698">
        <ele>227.4</ele>
        <time>2023-04-10T07:19:02Z</time>
      </trkpt>
      <trkpt lat="48.15198" lon="-3.107">
        <ele>227.4</ele>
        <time>2023-04-10T07:19:03Z</time>
      </trkpt>
      <trkpt lat="48.15197" lon="-3.10703">
        <ele>227.4</ele>
        <time>2023-04-10T07:19:04Z</time>
      </trkpt>
      <trkpt lat="48.15196" lon="-3.10706">
        <ele>227.4</ele>
        <time>2023-04-10T07:19:05Z</time>
      </trkpt>
      <trkpt lat="48.15195" lon="-3.10709">
        <ele>227.6</ele>
        <time>2023-04-10T07:19:06Z</time>
      </trkpt>
      <trkpt lat="48.15194" lon="-3.10712">
        <ele>227.8</ele>
        <time>2023-04-10T07:19:07Z</time>
      </trkpt>
      <trkpt lat="48.15193" lon="-3.10714">
        <ele>227.8</ele>
        <time>2023-04-10T07:19:08Z</time>
      </trkpt>
      <trkpt lat="48.15192" lon="-3.10717">
        <ele>228</ele>
        <time>2023-04-10T07:19:09Z</time>
      </trkpt>
      <trkpt lat="48.15191" lon="-3.1072">
        <ele>228.2</ele>
        <time>2023-04-10T07:19:10Z</time>
      </trkpt>
      <trkpt lat="48.1519" lon="-3.10723">
        <ele>228.4</ele>
        <time>2023-04-10T07:19:11Z</time>
      </trkpt>
      <trkpt lat="48.1519" lon="-3.10725">
        <ele>228.4</ele>
        <time>2023-04-10T07:19:12Z</time>
      </trkpt>
      <trkpt lat="48.15189" lon="-3.10727">
        <ele>228.6</ele>
        <time>2023-04-10T07:19:13Z</time>
      </trkpt>
      <trkpt lat="48.15188" lon="-3.1073">
        <ele>228.6</ele>
        <time>2023-04-10T07:19:14Z</time>
      </trkpt>
      <trkpt lat="48.15187" lon="-3.10733">
        <ele>229</ele>
        <time>2023-04-10T07:19:15Z</time>
      </trkpt>
      <trkpt lat="48.15187" lon="-3.10736">
        <ele>229</ele>
        <time>2023-04-10T07:19:16Z</time>
      </trkpt>
      <trkpt lat="48.15187" lon="-3.10739">
        <ele>229.2</ele>
        <time>2023-04-10T07:19:17Z</time>
      </trkpt>
      <trkpt lat="48.15186" lon="-3.10742">
        <ele>229.4</ele>
        <time>2023-04-10T07:19:18Z</time>
      </trkpt>
      <trkpt lat="48.15186" lon="-3.10746">
        <ele>229.8</ele>
        <time>2023-04-10T07:19:19Z</time>
      </trkpt>
      <trkpt lat="48.15185" lon="-3.10748">
        <ele>229.8</ele>
        <time>2023-04-10T07:19:20Z</time>
      </trkpt>
      <trkpt lat="48.15184" lon="-3.10751">
        <ele>230</ele>
        <time>2023-04-10T07:19:21Z</time>
      </trkpt>
      <trkpt lat="48.15184" lon="-3.10754">
        <ele>230.2</ele>
        <time>2023-04-10T07:19:22Z</time>
      </trkpt>
      <trkpt lat="48.15184" lon="-3.10758">
        <ele>230.2</ele>
        <time>2023-04-10T07:19:23Z</time>
      </trkpt>
      <trkpt lat="48.15184" lon="-3.10761">
        <ele>230.4</ele>
        <time>2023-04-10T07:19:24Z</time>
      </trkpt>
      <trkpt lat="48.15183" lon="-3.10764">
        <ele>230.6</ele>
        <time>2023-04-10T07:19:25Z</time>
      </trkpt>
      <trkpt lat="48.15183" lon="-3.10768">
        <ele>230.6</ele>
        <time>2023-04-10T07:19:26Z</time>
      </trkpt>
      <trkpt lat="48.15183" lon="-3.10771">
        <ele>230.8</ele>
        <time>2023-04-10T07:19:27Z</time>
      </trkpt>
      <trkpt lat="48.15182" lon="-3.10774">
        <ele>230.8</ele>
        <time>2023-04-10T07:19:28Z</time>
      </trkpt>
      <trkpt lat="48.15182" lon="-3.10777">
        <ele>230.8</ele>
        <time>2023-04-10T07:19:29Z</time>
      </trkpt>
      <trkpt lat="48.15181" lon="-3.1078">
        <ele>230.8</ele>
        <time>2023-04-10T07:19:30Z</time>
      </trkpt>
      <trkpt lat="48.15181" lon="-3.10783">
        <ele>231</ele>
        <time>2023-04-10T07:19:31Z</time>
      </trkpt>
      <trkpt lat="48.15181" lon="-3.10786">
        <ele>231.2</ele>
        <time>2023-04-10T07:19:32Z</time>
      </trkpt>
      <trkpt lat="48.15181" lon="-3.10789">
        <ele>231.4</ele>
        <time>2023-04-10T07:19:33Z</time>
      </trkpt>
      <trkpt lat="48.15181" lon="-3.10793">
        <ele>231.6</ele>
        <time>2023-04-10T07:19:34Z</time>
      </trkpt>
      <trkpt lat="48.15181" lon="-3.10796">
        <ele>231.8</ele>
        <time>2023-04-10T07:19:35Z</time>
      </trkpt>
      <trkpt lat="48.15181" lon="-3.108">
        <ele>232</ele>
        <time>2023-04-10T07:19:36Z</time>
      </trkpt>
      <trkpt lat="48.15181" lon="-3.10804">
        <ele>232.2</ele>
        <time>2023-04-10T07:19:37Z</time>
      </trkpt>
      <trkpt lat="48.15181" lon="-3.10808">
        <ele>232.4</ele>
        <time>2023-04-10T07:19:38Z</time>
      </trkpt>
      <trkpt lat="48.15181" lon="-3.10812">
        <ele>232.8</ele>
        <time>2023-04-10T07:19:39Z</time>
      </trkpt>
      <trkpt lat="48.1518" lon="-3.10816">
        <ele>233</ele>
        <time>2023-04-10T07:19:40Z</time>
      </trkpt>
      <trkpt lat="48.1518" lon="-3.10821">
        <ele>233.2</ele>
        <time>2023-04-10T07:19:41Z</time>
      </trkpt>
      <trkpt lat="48.1518" lon="-3.10826">
        <ele>233.4</ele>
        <time>2023-04-10T07:19:42Z</time>
      </trkpt>
      <trkpt lat="48.1518" lon="-3.10831">
        <ele>233.4</ele>
        <time>2023-04-10T07:19:43Z</time>
      </trkpt>
      <trkpt lat="48.1518" lon="-3.10835">
        <ele>233.6</ele>
        <time>2023-04-10T07:19:44Z</time>
      </trkpt>
      <trkpt lat="48.15179" lon="-3.10842">
        <ele>233.6</ele>
        <time>2023-04-10T07:19:45Z</time>
      </trkpt>
      <trkpt lat="48.15178" lon="-3.10848">
        <ele>233.6</ele>
        <time>2023-04-10T07:19:46Z</time>
      </trkpt>
      <trkpt lat="48.15178" lon="-3.10853">
        <ele>233.6</ele>
        <time>2023-04-10T07:19:47Z</time>
      </trkpt>
      <trkpt lat="48.15177" lon="-3.10858">
        <ele>233.6</ele>
        <time>2023-04-10T07:19:48Z</time>
      </trkpt>
      <trkpt lat="48.15177" lon="-3.10864">
        <ele>233.6</ele>
        <time>2023-04-10T07:19:49Z</time>
      </trkpt>
      <trkpt lat="48.15177" lon="-3.10869">
        <ele>233.8</ele>
        <time>2023-04-10T07:19:50Z</time>
      </trkpt>
      <trkpt lat="48.15176" lon="-3.10875">
        <ele>234</ele>
        <time>2023-04-10T07:19:51Z</time>
      </trkpt>
      <trkpt lat="48.15176" lon="-3.10879">
        <ele>234.2</ele>
        <time>2023-04-10T07:19:52Z</time>
      </trkpt>
      <trkpt lat="48.15175" lon="-3.10885">
        <ele>234.2</ele>
        <time>2023-04-10T07:19:53Z</time>
      </trkpt>
      <trkpt lat="48.15175" lon="-3.10891">
        <ele>234.4</ele>
        <time>2023-04-10T07:19:54Z</time>
      </trkpt>
      <trkpt lat="48.15175" lon="-3.10895">
        <ele>234.4</ele>
        <time>2023-04-10T07:19:55Z</time>
      </trkpt>
      <trkpt lat="48.15174" lon="-3.10901">
        <ele>234.4</ele>
        <time>2023-04-10T07:19:56Z</time>
      </trkpt>
      <trkpt lat="48.15173" lon="-3.10907">
        <ele>234.4</ele>
        <time>2023-04-10T07:19:57Z</time>
      </trkpt>
      <trkpt lat="48.15173" lon="-3.10912">
        <ele>234.4</ele>
        <time>2023-04-10T07:19:58Z</time>
      </trkpt>
      <trkpt lat="48.15172" lon="-3.10918">
        <ele>234.6</ele>
        <time>2023-04-10T07:19:59Z</time>
      </trkpt>
      <trkpt lat="48.1517" lon="-3.10922">
        <ele>234.6</ele>
        <time>2023-04-10T07:20:00Z</time>
      </trkpt>
      <trkpt lat="48.15168" lon="-3.10925">
        <ele>234.6</ele>
        <time>2023-04-10T07:20:01Z</time>
      </trkpt>
      <trkpt lat="48.15163" lon="-3.10928">
        <ele>234.6</ele>
        <time>2023-04-10T07:20:02Z</time>
      </trkpt>
      <trkpt lat="48.15159" lon="-3.1093">
        <ele>234.8</ele>
        <time>2023-04-10T07:20:03Z</time>
      </trkpt>
      <trkpt lat="48.15156" lon="-3.10931">
        <ele>234.8</ele>
        <time>2023-04-10T07:20:04Z</time>
      </trkpt>
      <trkpt lat="48.1515" lon="-3.10932">
        <ele>234.8</ele>
        <time>2023-04-10T07:20:05Z</time>
      </trkpt>
      <trkpt lat="48.15134" lon="-3.10937">
        <ele>235</ele>
        <time>2023-04-10T07:20:08Z</time>
      </trkpt>
      <trkpt lat="48.15117" lon="-3.10948">
        <ele>235</ele>
        <time>2023-04-10T07:20:11Z</time>
      </trkpt>
      <trkpt lat="48.15107" lon="-3.1096">
        <ele>235</ele>
        <time>2023-04-10T07:20:13Z</time>
      </trkpt>
      <trkpt lat="48.15086" lon="-3.10987">
        <ele>234.2</ele>
        <time>2023-04-10T07:20:17Z</time>
      </trkpt>
      <trkpt lat="48.15074" lon="-3.11004">
        <ele>233.6</ele>
        <time>2023-04-10T07:20:19Z</time>
      </trkpt>
      <trkpt lat="48.1506" lon="-3.11022">
        <ele>232.6</ele>
        <time>2023-04-10T07:20:21Z</time>
      </trkpt>
      <trkpt lat="48.15045" lon="-3.11041">
        <ele>231.8</ele>
        <time>2023-04-10T07:20:23Z</time>
      </trkpt>
      <trkpt lat="48.15039" lon="-3.11053">
        <ele>231.2</ele>
        <time>2023-04-10T07:20:24Z</time>
      </trkpt>
      <trkpt lat="48.15035" lon="-3.11066">
        <ele>230.6</ele>
        <time>2023-04-10T07:20:25Z</time>
      </trkpt>
      <trkpt lat="48.15035" lon="-3.11079">
        <ele>230</ele>
        <time>2023-04-10T07:20:26Z</time>
      </trkpt>
      <trkpt lat="48.15038" lon="-3.11091">
        <ele>229.4</ele>
        <time>2023-04-10T07:20:27Z</time>
      </trkpt>
      <trkpt lat="48.15041" lon="-3.11101">
        <ele>228.6</ele>
        <time>2023-04-10T07:20:28Z</time>
      </trkpt>
      <trkpt lat="48.15046" lon="-3.1111">
        <ele>227.6</ele>
        <time>2023-04-10T07:20:29Z</time>
      </trkpt>
      <trkpt lat="48.15051" lon="-3.11117">
        <ele>226.2</ele>
        <time>2023-04-10T07:20:30Z</time>
      </trkpt>
      <trkpt lat="48.15056" lon="-3.11124">
        <ele>225</ele>
        <time>2023-04-10T07:20:31Z</time>
      </trkpt>
      <trkpt lat="48.1506" lon="-3.1113">
        <ele>225</ele>
        <time>2023-04-10T07:20:32Z</time>
      </trkpt>
      <trkpt lat="48.15064" lon="-3.11137">
        <ele>223.6</ele>
        <time>2023-04-10T07:20:33Z</time>
      </trkpt>
      <trkpt lat="48.15067" lon="-3.11143">
        <ele>222.2</ele>
        <time>2023-04-10T07:20:34Z</time>
      </trkpt>
      <trkpt lat="48.1507" lon="-3.11148">
        <ele>221.4</ele>
        <time>2023-04-10T07:20:35Z</time>
      </trkpt>
      <trkpt lat="48.15074" lon="-3.11153">
        <ele>221.2</ele>
        <time>2023-04-10T07:20:36Z</time>
      </trkpt>
      <trkpt lat="48.15077" lon="-3.11159">
        <ele>221</ele>
        <time>2023-04-10T07:20:37Z</time>
      </trkpt>
      <trkpt lat="48.1508" lon="-3.11163">
        <ele>220.8</ele>
        <time>2023-04-10T07:20:38Z</time>
      </trkpt>
      <trkpt lat="48.15083" lon="-3.11168">
        <ele>220.8</ele>
        <time>2023-04-10T07:20:39Z</time>
      </trkpt>
      <trkpt lat="48.15086" lon="-3.11173">
        <ele>220.8</ele>
        <time>2023-04-10T07:20:40Z</time>
      </trkpt>
      <trkpt lat="48.15089" lon="-3.11178">
        <ele>220.8</ele>
        <time>2023-04-10T07:20:41Z</time>
      </trkpt>
      <trkpt lat="48.15107" lon="-3.11208">
        <ele>221</ele>
        <time>2023-04-10T07:20:47Z</time>
      </trkpt>
      <trkpt lat="48.15123" lon="-3.11234">
        <ele>221.8</ele>
        <time>2023-04-10T07:20:52Z</time>
      </trkpt>
      <trkpt lat="48.15125" lon="-3.11238">
        <ele>222</ele>
        <time>2023-04-10T07:20:53Z</time>
      </trkpt>
      <trkpt lat="48.15131" lon="-3.11248">
        <ele>222</ele>
        <time>2023-04-10T07:20:55Z</time>
      </trkpt>
      <trkpt lat="48.15134" lon="-3.11253">
        <ele>222.2</ele>
        <time>2023-04-10T07:20:56Z</time>
      </trkpt>
      <trkpt lat="48.15137" lon="-3.11258">
        <ele>222.4</ele>
        <time>2023-04-10T07:20:57Z</time>
      </trkpt>
      <trkpt lat="48.15139" lon="-3.11263">
        <ele>222.4</ele>
        <time>2023-04-10T07:20:58Z</time>
      </trkpt>
      <trkpt lat="48.15142" lon="-3.11268">
        <ele>222.6</ele>
        <time>2023-04-10T07:20:59Z</time>
      </trkpt>
      <trkpt lat="48.15145" lon="-3.11273">
        <ele>222.6</ele>
        <time>2023-04-10T07:21:00Z</time>
      </trkpt>
      <trkpt lat="48.15147" lon="-3.11278">
        <ele>222.8</ele>
        <time>2023-04-10T07:21:01Z</time>
      </trkpt>
      <trkpt lat="48.1515" lon="-3.11282">
        <ele>223</ele>
        <time>2023-04-10T07:21:02Z</time>
      </trkpt>
      <trkpt lat="48.15152" lon="-3.11286">
        <ele>223.2</ele>
        <time>2023-04-10T07:21:03Z</time>
      </trkpt>
      <trkpt lat="48.15155" lon="-3.1129">
        <ele>223.2</ele>
        <time>2023-04-10T07:21:04Z</time>
      </trkpt>
      <trkpt lat="48.15158" lon="-3.11294">
        <ele>223.6</ele>
        <time>2023-04-10T07:21:05Z</time>
      </trkpt>
      <trkpt lat="48.1516" lon="-3.11297">
        <ele>223.6</ele>
        <time>2023-04-10T07:21:06Z</time>
      </trkpt>
      <trkpt lat="48.15165" lon="-3.11305">
        <ele>224</ele>
        <time>2023-04-10T07:21:08Z</time>
      </trkpt>
      <trkpt lat="48.15168" lon="-3.11309">
        <ele>224.4</ele>
        <time>2023-04-10T07:21:09Z</time>
      </trkpt>
      <trkpt lat="48.15171" lon="-3.11313">
        <ele>224.6</ele>
        <time>2023-04-10T07:21:10Z</time>
      </trkpt>
      <trkpt lat="48.15174" lon="-3.11316">
        <ele>224.8</ele>
        <time>2023-04-10T07:21:11Z</time>
      </trkpt>
      <trkpt lat="48.15176" lon="-3.1132">
        <ele>225</ele>
        <time>2023-04-10T07:21:12Z</time>
      </trkpt>
      <trkpt lat="48.15179" lon="-3.11323">
        <ele>225.2</ele>
        <time>2023-04-10T07:21:13Z</time>
      </trkpt>
      <trkpt lat="48.15181" lon="-3.11327">
        <ele>225.4</ele>
        <time>2023-04-10T07:21:14Z</time>
      </trkpt>
      <trkpt lat="48.15184" lon="-3.1133">
        <ele>225.8</ele>
        <time>2023-04-10T07:21:15Z</time>
      </trkpt>
      <trkpt lat="48.15186" lon="-3.11334">
        <ele>225.8</ele>
        <time>2023-04-10T07:21:16Z</time>
      </trkpt>
      <trkpt lat="48.15189" lon="-3.11337">
        <ele>226</ele>
        <time>2023-04-10T07:21:17Z</time>
      </trkpt>
      <trkpt lat="48.15191" lon="-3.1134">
        <ele>226.2</ele>
        <time>2023-04-10T07:21:18Z</time>
      </trkpt>
      <trkpt lat="48.15193" lon="-3.11343">
        <ele>226.4</ele>
        <time>2023-04-10T07:21:19Z</time>
      </trkpt>
      <trkpt lat="48.15195" lon="-3.11346">
        <ele>226.8</ele>
        <time>2023-04-10T07:21:20Z</time>
      </trkpt>
      <trkpt lat="48.15198" lon="-3.11349">
        <ele>227</ele>
        <time>2023-04-10T07:21:21Z</time>
      </trkpt>
      <trkpt lat="48.152" lon="-3.11352">
        <ele>227.2</ele>
        <time>2023-04-10T07:21:22Z</time>
      </trkpt>
      <trkpt lat="48.15203" lon="-3.11356">
        <ele>227.4</ele>
        <time>2023-04-10T07:21:23Z</time>
      </trkpt>
      <trkpt lat="48.15205" lon="-3.11359">
        <ele>227.8</ele>
        <time>2023-04-10T07:21:24Z</time>
      </trkpt>
      <trkpt lat="48.15208" lon="-3.11363">
        <ele>228.2</ele>
        <time>2023-04-10T07:21:25Z</time>
      </trkpt>
      <trkpt lat="48.1521" lon="-3.11366">
        <ele>228.4</ele>
        <time>2023-04-10T07:21:26Z</time>
      </trkpt>
      <trkpt lat="48.15213" lon="-3.11369">
        <ele>228.6</ele>
        <time>2023-04-10T07:21:27Z</time>
      </trkpt>
      <trkpt lat="48.15215" lon="-3.11372">
        <ele>228.6</ele>
        <time>2023-04-10T07:21:28Z</time>
      </trkpt>
      <trkpt lat="48.15218" lon="-3.11376">
        <ele>228.8</ele>
        <time>2023-04-10T07:21:29Z</time>
      </trkpt>
      <trkpt lat="48.1522" lon="-3.11379">
        <ele>228.8</ele>
        <time>2023-04-10T07:21:30Z</time>
      </trkpt>
      <trkpt lat="48.15222" lon="-3.11383">
        <ele>229.2</ele>
        <time>2023-04-10T07:21:31Z</time>
      </trkpt>
      <trkpt lat="48.15225" lon="-3.11386">
        <ele>229.4</ele>
        <time>2023-04-10T07:21:32Z</time>
      </trkpt>
      <trkpt lat="48.15227" lon="-3.11388">
        <ele>229.4</ele>
        <time>2023-04-10T07:21:33Z</time>
      </trkpt>
      <trkpt lat="48.15229" lon="-3.11392">
        <ele>229.6</ele>
        <time>2023-04-10T07:21:34Z</time>
      </trkpt>
      <trkpt lat="48.15232" lon="-3.11395">
        <ele>229.6</ele>
        <time>2023-04-10T07:21:35Z</time>
      </trkpt>
      <trkpt lat="48.15234" lon="-3.11398">
        <ele>229.6</ele>
        <time>2023-04-10T07:21:36Z</time>
      </trkpt>
      <trkpt lat="48.15237" lon="-3.11402">
        <ele>229.8</ele>
        <time>2023-04-10T07:21:37Z</time>
      </trkpt>
      <trkpt lat="48.1524" lon="-3.11406">
        <ele>230</ele>
        <time>2023-04-10T07:21:38Z</time>
      </trkpt>
      <trkpt lat="48.15243" lon="-3.1141">
        <ele>230</ele>
        <time>2023-04-10T07:21:39Z</time>
      </trkpt>
      <trkpt lat="48.15246" lon="-3.11413">
        <ele>230.2</ele>
        <time>2023-04-10T07:21:40Z</time>
      </trkpt>
      <trkpt lat="48.15248" lon="-3.11417">
        <ele>230.4</ele>
        <time>2023-04-10T07:21:41Z</time>
      </trkpt>
      <trkpt lat="48.15251" lon="-3.1142">
        <ele>230.4</ele>
        <time>2023-04-10T07:21:42Z</time>
      </trkpt>
      <trkpt lat="48.15254" lon="-3.11423">
        <ele>230.6</ele>
        <time>2023-04-10T07:21:43Z</time>
      </trkpt>
      <trkpt lat="48.15256" lon="-3.11427">
        <ele>230.8</ele>
        <time>2023-04-10T07:21:44Z</time>
      </trkpt>
      <trkpt lat="48.15259" lon="-3.1143">
        <ele>231</ele>
        <time>2023-04-10T07:21:45Z</time>
      </trkpt>
      <trkpt lat="48.15261" lon="-3.11434">
        <ele>231.2</ele>
        <time>2023-04-10T07:21:46Z</time>
      </trkpt>
      <trkpt lat="48.15264" lon="-3.11437">
        <ele>231.4</ele>
        <time>2023-04-10T07:21:47Z</time>
      </trkpt>
      <trkpt lat="48.15266" lon="-3.1144">
        <ele>231.6</ele>
        <time>2023-04-10T07:21:48Z</time>
      </trkpt>
      <trkpt lat="48.15268" lon="-3.11443">
        <ele>231.6</ele>
        <time>2023-04-10T07:21:49Z</time>
      </trkpt>
      <trkpt lat="48.15271" lon="-3.11447">
        <ele>231.8</ele>
        <time>2023-04-10T07:21:50Z</time>
      </trkpt>
      <trkpt lat="48.15274" lon="-3.11451">
        <ele>231.8</ele>
        <time>2023-04-10T07:21:51Z</time>
      </trkpt>
      <trkpt lat="48.15277" lon="-3.11455">
        <ele>232</ele>
        <time>2023-04-10T07:21:52Z</time>
      </trkpt>
      <trkpt lat="48.15279" lon="-3.11458">
        <ele>232</ele>
        <time>2023-04-10T07:21:53Z</time>
      </trkpt>
      <trkpt lat="48.15282" lon="-3.11462">
        <ele>232.2</ele>
        <time>2023-04-10T07:21:54Z</time>
      </trkpt>
      <trkpt lat="48.15285" lon="-3.11465">
        <ele>232.4</ele>
        <time>2023-04-10T07:21:55Z</time>
      </trkpt>
      <trkpt lat="48.15288" lon="-3.1147">
        <ele>232.4</ele>
        <time>2023-04-10T07:21:56Z</time>
      </trkpt>
      <trkpt lat="48.1529" lon="-3.11473">
        <ele>232.6</ele>
        <time>2023-04-10T07:21:57Z</time>
      </trkpt>
      <trkpt lat="48.15293" lon="-3.11477">
        <ele>232.8</ele>
        <time>2023-04-10T07:21:58Z</time>
      </trkpt>
      <trkpt lat="48.15296" lon="-3.11482">
        <ele>232.8</ele>
        <time>2023-04-10T07:21:59Z</time>
      </trkpt>
      <trkpt lat="48.15298" lon="-3.11486">
        <ele>233</ele>
        <time>2023-04-10T07:22:00Z</time>
      </trkpt>
      <trkpt lat="48.15301" lon="-3.11489">
        <ele>233</ele>
        <time>2023-04-10T07:22:01Z</time>
      </trkpt>
      <trkpt lat="48.15303" lon="-3.11493">
        <ele>233</ele>
        <time>2023-04-10T07:22:02Z</time>
      </trkpt>
      <trkpt lat="48.15305" lon="-3.11496">
        <ele>233</ele>
        <time>2023-04-10T07:22:03Z</time>
      </trkpt>
      <trkpt lat="48.15308" lon="-3.11499">
        <ele>233</ele>
        <time>2023-04-10T07:22:04Z</time>
      </trkpt>
      <trkpt lat="48.15311" lon="-3.11504">
        <ele>233.2</ele>
        <time>2023-04-10T07:22:05Z</time>
      </trkpt>
      <trkpt lat="48.15313" lon="-3.11508">
        <ele>233.2</ele>
        <time>2023-04-10T07:22:06Z</time>
      </trkpt>
      <trkpt lat="48.15316" lon="-3.11512">
        <ele>233.2</ele>
        <time>2023-04-10T07:22:07Z</time>
      </trkpt>
      <trkpt lat="48.15319" lon="-3.11515">
        <ele>233.4</ele>
        <time>2023-04-10T07:22:08Z</time>
      </trkpt>
      <trkpt lat="48.15321" lon="-3.11519">
        <ele>233.4</ele>
        <time>2023-04-10T07:22:09Z</time>
      </trkpt>
      <trkpt lat="48.15324" lon="-3.11523">
        <ele>233.6</ele>
        <time>2023-04-10T07:22:10Z</time>
      </trkpt>
      <trkpt lat="48.15326" lon="-3.11526">
        <ele>233.6</ele>
        <time>2023-04-10T07:22:11Z</time>
      </trkpt>
      <trkpt lat="48.15328" lon="-3.11528">
        <ele>233.8</ele>
        <time>2023-04-10T07:22:12Z</time>
      </trkpt>
      <trkpt lat="48.15331" lon="-3.11531">
        <ele>234</ele>
        <time>2023-04-10T07:22:13Z</time>
      </trkpt>
      <trkpt lat="48.15333" lon="-3.11533">
        <ele>234.2</ele>
        <time>2023-04-10T07:22:14Z</time>
      </trkpt>
      <trkpt lat="48.15334" lon="-3.11535">
        <ele>234.2</ele>
        <time>2023-04-10T07:22:15Z</time>
      </trkpt>
      <trkpt lat="48.15336" lon="-3.11539">
        <ele>234.4</ele>
        <time>2023-04-10T07:22:16Z</time>
      </trkpt>
      <trkpt lat="48.15338" lon="-3.11541">
        <ele>234.6</ele>
        <time>2023-04-10T07:22:17Z</time>
      </trkpt>
      <trkpt lat="48.1534" lon="-3.11542">
        <ele>234.8</ele>
        <time>2023-04-10T07:22:18Z</time>
      </trkpt>
      <trkpt lat="48.15341" lon="-3.11544">
        <ele>235</ele>
        <time>2023-04-10T07:22:19Z</time>
      </trkpt>
      <trkpt lat="48.15343" lon="-3.11546">
        <ele>235.2</ele>
        <time>2023-04-10T07:22:20Z</time>
      </trkpt>
      <trkpt lat="48.15344" lon="-3.11548">
        <ele>235.4</ele>
        <time>2023-04-10T07:22:21Z</time>
      </trkpt>
      <trkpt lat="48.15346" lon="-3.11549">
        <ele>235.6</ele>
        <time>2023-04-10T07:22:22Z</time>
      </trkpt>
      <trkpt lat="48.15346" lon="-3.1155">
        <ele>235.6</ele>
        <time>2023-04-10T07:22:23Z</time>
      </trkpt>
      <trkpt lat="48.15347" lon="-3.11552">
        <ele>236</ele>
        <time>2023-04-10T07:22:24Z</time>
      </trkpt>
      <trkpt lat="48.15349" lon="-3.11554">
        <ele>236.2</ele>
        <time>2023-04-10T07:22:25Z</time>
      </trkpt>
      <trkpt lat="48.15351" lon="-3.11556">
        <ele>236.4</ele>
        <time>2023-04-10T07:22:26Z</time>
      </trkpt>
      <trkpt lat="48.15352" lon="-3.11558">
        <ele>237</ele>
        <time>2023-04-10T07:22:27Z</time>
      </trkpt>
      <trkpt lat="48.15353" lon="-3.1156">
        <ele>237.2</ele>
        <time>2023-04-10T07:22:28Z</time>
      </trkpt>
      <trkpt lat="48.15354" lon="-3.11563">
        <ele>237.6</ele>
        <time>2023-04-10T07:22:29Z</time>
      </trkpt>
      <trkpt lat="48.15355" lon="-3.11566">
        <ele>238</ele>
        <time>2023-04-10T07:22:30Z</time>
      </trkpt>
      <trkpt lat="48.15356" lon="-3.11568">
        <ele>238.4</ele>
        <time>2023-04-10T07:22:31Z</time>
      </trkpt>
      <trkpt lat="48.15357" lon="-3.1157">
        <ele>238.8</ele>
        <time>2023-04-10T07:22:32Z</time>
      </trkpt>
      <trkpt lat="48.15359" lon="-3.11572">
        <ele>239</ele>
        <time>2023-04-10T07:22:33Z</time>
      </trkpt>
      <trkpt lat="48.15359" lon="-3.11574">
        <ele>239.2</ele>
        <time>2023-04-10T07:22:34Z</time>
      </trkpt>
      <trkpt lat="48.15361" lon="-3.11575">
        <ele>239.6</ele>
        <time>2023-04-10T07:22:35Z</time>
      </trkpt>
      <trkpt lat="48.15362" lon="-3.11577">
        <ele>240</ele>
        <time>2023-04-10T07:22:36Z</time>
      </trkpt>
      <trkpt lat="48.15363" lon="-3.11578">
        <ele>240.4</ele>
        <time>2023-04-10T07:22:37Z</time>
      </trkpt>
      <trkpt lat="48.15364" lon="-3.1158">
        <ele>240.6</ele>
        <time>2023-04-10T07:22:38Z</time>
      </trkpt>
      <trkpt lat="48.15365" lon="-3.11582">
        <ele>241</ele>
        <time>2023-04-10T07:22:39Z</time>
      </trkpt>
      <trkpt lat="48.15365" lon="-3.11583">
        <ele>241.2</ele>
        <time>2023-04-10T07:22:40Z</time>
      </trkpt>
      <trkpt lat="48.15366" lon="-3.11586">
        <ele>241.4</ele>
        <time>2023-04-10T07:22:41Z</time>
      </trkpt>
      <trkpt lat="48.15367" lon="-3.11589">
        <ele>241.8</ele>
        <time>2023-04-10T07:22:42Z</time>
      </trkpt>
      <trkpt lat="48.15368" lon="-3.1159">
        <ele>242</ele>
        <time>2023-04-10T07:22:43Z</time>
      </trkpt>
      <trkpt lat="48.15368" lon="-3.11593">
        <ele>242.4</ele>
        <time>2023-04-10T07:22:44Z</time>
      </trkpt>
      <trkpt lat="48.15368" lon="-3.11596">
        <ele>242.4</ele>
        <time>2023-04-10T07:22:45Z</time>
      </trkpt>
      <trkpt lat="48.15368" lon="-3.11598">
        <ele>242.8</ele>
        <time>2023-04-10T07:22:46Z</time>
      </trkpt>
      <trkpt lat="48.15369" lon="-3.11601">
        <ele>243.2</ele>
        <time>2023-04-10T07:22:47Z</time>
      </trkpt>
      <trkpt lat="48.1537" lon="-3.11604">
        <ele>243.6</ele>
        <time>2023-04-10T07:22:48Z</time>
      </trkpt>
      <trkpt lat="48.1537" lon="-3.11605">
        <ele>244</ele>
        <time>2023-04-10T07:22:49Z</time>
      </trkpt>
      <trkpt lat="48.15371" lon="-3.11608">
        <ele>244.4</ele>
        <time>2023-04-10T07:22:50Z</time>
      </trkpt>
      <trkpt lat="48.15372" lon="-3.1161">
        <ele>244.6</ele>
        <time>2023-04-10T07:22:51Z</time>
      </trkpt>
      <trkpt lat="48.15372" lon="-3.11612">
        <ele>245</ele>
        <time>2023-04-10T07:22:52Z</time>
      </trkpt>
      <trkpt lat="48.15373" lon="-3.11615">
        <ele>245.4</ele>
        <time>2023-04-10T07:22:53Z</time>
      </trkpt>
      <trkpt lat="48.15373" lon="-3.11617">
        <ele>245.6</ele>
        <time>2023-04-10T07:22:54Z</time>
      </trkpt>
      <trkpt lat="48.15374" lon="-3.1162">
        <ele>246</ele>
        <time>2023-04-10T07:22:55Z</time>
      </trkpt>
      <trkpt lat="48.15375" lon="-3.11622">
        <ele>246.2</ele>
        <time>2023-04-10T07:22:56Z</time>
      </trkpt>
      <trkpt lat="48.15375" lon="-3.11625">
        <ele>246.6</ele>
        <time>2023-04-10T07:22:57Z</time>
      </trkpt>
      <trkpt lat="48.15376" lon="-3.11628">
        <ele>246.8</ele>
        <time>2023-04-10T07:22:58Z</time>
      </trkpt>
      <trkpt lat="48.15375" lon="-3.11631">
        <ele>247</ele>
        <time>2023-04-10T07:22:59Z</time>
      </trkpt>
      <trkpt lat="48.15376" lon="-3.11633">
        <ele>247.4</ele>
        <time>2023-04-10T07:23:00Z</time>
      </trkpt>
      <trkpt lat="48.15376" lon="-3.11635">
        <ele>247.6</ele>
        <time>2023-04-10T07:23:01Z</time>
      </trkpt>
      <trkpt lat="48.15376" lon="-3.11637">
        <ele>247.8</ele>
        <time>2023-04-10T07:23:02Z</time>
      </trkpt>
      <trkpt lat="48.15376" lon="-3.11639">
        <ele>248</ele>
        <time>2023-04-10T07:23:03Z</time>
      </trkpt>
      <trkpt lat="48.15378" lon="-3.11641">
        <ele>248.2</ele>
        <time>2023-04-10T07:23:04Z</time>
      </trkpt>
      <trkpt lat="48.15379" lon="-3.11644">
        <ele>248.4</ele>
        <time>2023-04-10T07:23:05Z</time>
      </trkpt>
      <trkpt lat="48.1538" lon="-3.11647">
        <ele>248.6</ele>
        <time>2023-04-10T07:23:06Z</time>
      </trkpt>
      <trkpt lat="48.15381" lon="-3.1165">
        <ele>248.6</ele>
        <time>2023-04-10T07:23:07Z</time>
      </trkpt>
      <trkpt lat="48.15382" lon="-3.11652">
        <ele>248.8</ele>
        <time>2023-04-10T07:23:08Z</time>
      </trkpt>
      <trkpt lat="48.15383" lon="-3.11655">
        <ele>249</ele>
        <time>2023-04-10T07:23:09Z</time>
      </trkpt>
      <trkpt lat="48.15385" lon="-3.11657">
        <ele>249.2</ele>
        <time>2023-04-10T07:23:10Z</time>
      </trkpt>
      <trkpt lat="48.15385" lon="-3.1166">
        <ele>249.4</ele>
        <time>2023-04-10T07:23:11Z</time>
      </trkpt>
      <trkpt lat="48.15386" lon="-3.11662">
        <ele>249.6</ele>
        <time>2023-04-10T07:23:12Z</time>
      </trkpt>
      <trkpt lat="48.15387" lon="-3.11664">
        <ele>250</ele>
        <time>2023-04-10T07:23:13Z</time>
      </trkpt>
      <trkpt lat="48.15388" lon="-3.11667">
        <ele>250.2</ele>
        <time>2023-04-10T07:23:14Z</time>
      </trkpt>
      <trkpt lat="48.15389" lon="-3.11669">
        <ele>250.4</ele>
        <time>2023-04-10T07:23:15Z</time>
      </trkpt>
      <trkpt lat="48.1539" lon="-3.11671">
        <ele>250.4</ele>
        <time>2023-04-10T07:23:16Z</time>
      </trkpt>
      <trkpt lat="48.15391" lon="-3.11673">
        <ele>250.6</ele>
        <time>2023-04-10T07:23:17Z</time>
      </trkpt>
      <trkpt lat="48.15392" lon="-3.11674">
        <ele>250.8</ele>
        <time>2023-04-10T07:23:18Z</time>
      </trkpt>
      <trkpt lat="48.15392" lon="-3.11677">
        <ele>251</ele>
        <time>2023-04-10T07:23:19Z</time>
      </trkpt>
      <trkpt lat="48.15394" lon="-3.1168">
        <ele>251.2</ele>
        <time>2023-04-10T07:23:20Z</time>
      </trkpt>
      <trkpt lat="48.15396" lon="-3.11682">
        <ele>251.2</ele>
        <time>2023-04-10T07:23:21Z</time>
      </trkpt>
      <trkpt lat="48.15398" lon="-3.11685">
        <ele>251.6</ele>
        <time>2023-04-10T07:23:22Z</time>
      </trkpt>
      <trkpt lat="48.15401" lon="-3.11687">
        <ele>251.6</ele>
        <time>2023-04-10T07:23:23Z</time>
      </trkpt>
      <trkpt lat="48.15402" lon="-3.11692">
        <ele>251.8</ele>
        <time>2023-04-10T07:23:24Z</time>
      </trkpt>
      <trkpt lat="48.15402" lon="-3.11693">
        <ele>251.8</ele>
        <time>2023-04-10T07:23:25Z</time>
      </trkpt>
      <trkpt lat="48.15403" lon="-3.11696">
        <ele>252</ele>
        <time>2023-04-10T07:23:26Z</time>
      </trkpt>
      <trkpt lat="48.15404" lon="-3.11698">
        <ele>252.2</ele>
        <time>2023-04-10T07:23:27Z</time>
      </trkpt>
      <trkpt lat="48.15405" lon="-3.11701">
        <ele>252.4</ele>
        <time>2023-04-10T07:23:28Z</time>
      </trkpt>
      <trkpt lat="48.15406" lon="-3.11704">
        <ele>252.4</ele>
        <time>2023-04-10T07:23:29Z</time>
      </trkpt>
      <trkpt lat="48.15408" lon="-3.11707">
        <ele>252.4</ele>
        <time>2023-04-10T07:23:30Z</time>
      </trkpt>
      <trkpt lat="48.15409" lon="-3.11708">
        <ele>252.6</ele>
        <time>2023-04-10T07:23:31Z</time>
      </trkpt>
      <trkpt lat="48.1541" lon="-3.11712">
        <ele>252.8</ele>
        <time>2023-04-10T07:23:32Z</time>
      </trkpt>
      <trkpt lat="48.15409" lon="-3.11714">
        <ele>253</ele>
        <time>2023-04-10T07:23:33Z</time>
      </trkpt>
      <trkpt lat="48.15409" lon="-3.11715">
        <ele>253.2</ele>
        <time>2023-04-10T07:23:34Z</time>
      </trkpt>
      <trkpt lat="48.1541" lon="-3.11716">
        <ele>253.2</ele>
        <time>2023-04-10T07:23:35Z</time>
      </trkpt>
      <trkpt lat="48.15412" lon="-3.11718">
        <ele>253.4</ele>
        <time>2023-04-10T07:23:36Z</time>
      </trkpt>
      <trkpt lat="48.15413" lon="-3.11721">
        <ele>253.4</ele>
        <time>2023-04-10T07:23:37Z</time>
      </trkpt>
      <trkpt lat="48.15413" lon="-3.11723">
        <ele>253.6</ele>
        <time>2023-04-10T07:23:38Z</time>
      </trkpt>
      <trkpt lat="48.15414" lon="-3.11725">
        <ele>253.8</ele>
        <time>2023-04-10T07:23:39Z</time>
      </trkpt>
      <trkpt lat="48.15414" lon="-3.11727">
        <ele>254</ele>
        <time>2023-04-10T07:23:40Z</time>
      </trkpt>
      <trkpt lat="48.15415" lon="-3.11729">
        <ele>254.2</ele>
        <time>2023-04-10T07:23:41Z</time>
      </trkpt>
      <trkpt lat="48.15416" lon="-3.11731">
        <ele>254</ele>
        <time>2023-04-10T07:23:42Z</time>
      </trkpt>
      <trkpt lat="48.15417" lon="-3.11733">
        <ele>254.2</ele>
        <time>2023-04-10T07:23:43Z</time>
      </trkpt>
      <trkpt lat="48.15417" lon="-3.11734">
        <ele>254.4</ele>
        <time>2023-04-10T07:23:44Z</time>
      </trkpt>
      <trkpt lat="48.15418" lon="-3.11736">
        <ele>254.4</ele>
        <time>2023-04-10T07:23:45Z</time>
      </trkpt>
      <trkpt lat="48.15419" lon="-3.11738">
        <ele>254.6</ele>
        <time>2023-04-10T07:23:46Z</time>
      </trkpt>
      <trkpt lat="48.15421" lon="-3.11739">
        <ele>254.8</ele>
        <time>2023-04-10T07:23:47Z</time>
      </trkpt>
      <trkpt lat="48.15421" lon="-3.11741">
        <ele>255</ele>
        <time>2023-04-10T07:23:48Z</time>
      </trkpt>
      <trkpt lat="48.15422" lon="-3.11742">
        <ele>255.2</ele>
        <time>2023-04-10T07:23:49Z</time>
      </trkpt>
      <trkpt lat="48.15422" lon="-3.11744">
        <ele>255.2</ele>
        <time>2023-04-10T07:23:50Z</time>
      </trkpt>
      <trkpt lat="48.15423" lon="-3.11745">
        <ele>255.4</ele>
        <time>2023-04-10T07:23:51Z</time>
      </trkpt>
      <trkpt lat="48.15424" lon="-3.11747">
        <ele>255.8</ele>
        <time>2023-04-10T07:23:52Z</time>
      </trkpt>
      <trkpt lat="48.15426" lon="-3.1175">
        <ele>256</ele>
        <time>2023-04-10T07:23:53Z</time>
      </trkpt>
      <trkpt lat="48.15427" lon="-3.11752">
        <ele>256</ele>
        <time>2023-04-10T07:23:54Z</time>
      </trkpt>
      <trkpt lat="48.15428" lon="-3.11755">
        <ele>256.2</ele>
        <time>2023-04-10T07:23:55Z</time>
      </trkpt>
      <trkpt lat="48.15429" lon="-3.11757">
        <ele>256.4</ele>
        <time>2023-04-10T07:23:56Z</time>
      </trkpt>
      <trkpt lat="48.1543" lon="-3.11759">
        <ele>256.6</ele>
        <time>2023-04-10T07:23:57Z</time>
      </trkpt>
      <trkpt lat="48.15431" lon="-3.11762">
        <ele>256.8</ele>
        <time>2023-04-10T07:23:58Z</time>
      </trkpt>
      <trkpt lat="48.15432" lon="-3.11764">
        <ele>257.2</ele>
        <time>2023-04-10T07:23:59Z</time>
      </trkpt>
      <trkpt lat="48.15432" lon="-3.11766">
        <ele>257.4</ele>
        <time>2023-04-10T07:24:00Z</time>
      </trkpt>
      <trkpt lat="48.15433" lon="-3.11769">
        <ele>257.6</ele>
        <time>2023-04-10T07:24:01Z</time>
      </trkpt>
      <trkpt lat="48.15434" lon="-3.11771">
        <ele>257.8</ele>
        <time>2023-04-10T07:24:02Z</time>
      </trkpt>
      <trkpt lat="48.15435" lon="-3.11774">
        <ele>257.8</ele>
        <time>2023-04-10T07:24:03Z</time>
      </trkpt>
      <trkpt lat="48.15436" lon="-3.11776">
        <ele>258</ele>
        <time>2023-04-10T07:24:04Z</time>
      </trkpt>
      <trkpt lat="48.15437" lon="-3.11779">
        <ele>258.2</ele>
        <time>2023-04-10T07:24:05Z</time>
      </trkpt>
      <trkpt lat="48.15438" lon="-3.11781">
        <ele>258.2</ele>
        <time>2023-04-10T07:24:06Z</time>
      </trkpt>
      <trkpt lat="48.1544" lon="-3.11784">
        <ele>258.4</ele>
        <time>2023-04-10T07:24:07Z</time>
      </trkpt>
      <trkpt lat="48.15442" lon="-3.11786">
        <ele>258.8</ele>
        <time>2023-04-10T07:24:08Z</time>
      </trkpt>
      <trkpt lat="48.15444" lon="-3.11789">
        <ele>259</ele>
        <time>2023-04-10T07:24:09Z</time>
      </trkpt>
      <trkpt lat="48.15445" lon="-3.11791">
        <ele>259</ele>
        <time>2023-04-10T07:24:10Z</time>
      </trkpt>
      <trkpt lat="48.15448" lon="-3.11795">
        <ele>259.2</ele>
        <time>2023-04-10T07:24:11Z</time>
      </trkpt>
      <trkpt lat="48.15448" lon="-3.11798">
        <ele>259.2</ele>
        <time>2023-04-10T07:24:12Z</time>
      </trkpt>
      <trkpt lat="48.15448" lon="-3.118">
        <ele>259.4</ele>
        <time>2023-04-10T07:24:13Z</time>
      </trkpt>
      <trkpt lat="48.15449" lon="-3.11804">
        <ele>259.4</ele>
        <time>2023-04-10T07:24:14Z</time>
      </trkpt>
      <trkpt lat="48.1545" lon="-3.11804">
        <ele>259.6</ele>
        <time>2023-04-10T07:24:15Z</time>
      </trkpt>
      <trkpt lat="48.1545" lon="-3.11805">
        <ele>259.8</ele>
        <time>2023-04-10T07:24:16Z</time>
      </trkpt>
      <trkpt lat="48.15453" lon="-3.11806">
        <ele>260</ele>
        <time>2023-04-10T07:24:17Z</time>
      </trkpt>
      <trkpt lat="48.15454" lon="-3.11807">
        <ele>260.2</ele>
        <time>2023-04-10T07:24:18Z</time>
      </trkpt>
      <trkpt lat="48.15455" lon="-3.11809">
        <ele>260.4</ele>
        <time>2023-04-10T07:24:19Z</time>
      </trkpt>
      <trkpt lat="48.15455" lon="-3.11811">
        <ele>260.4</ele>
        <time>2023-04-10T07:24:20Z</time>
      </trkpt>
      <trkpt lat="48.15456" lon="-3.11812">
        <ele>260.6</ele>
        <time>2023-04-10T07:24:21Z</time>
      </trkpt>
      <trkpt lat="48.15457" lon="-3.11814">
        <ele>260.4</ele>
        <time>2023-04-10T07:24:22Z</time>
      </trkpt>
      <trkpt lat="48.15459" lon="-3.11816">
        <ele>260.6</ele>
        <time>2023-04-10T07:24:23Z</time>
      </trkpt>
      <trkpt lat="48.15459" lon="-3.11818">
        <ele>260.8</ele>
        <time>2023-04-10T07:24:24Z</time>
      </trkpt>
      <trkpt lat="48.1546" lon="-3.1182">
        <ele>261</ele>
        <time>2023-04-10T07:24:25Z</time>
      </trkpt>
      <trkpt lat="48.15461" lon="-3.11822">
        <ele>261</ele>
        <time>2023-04-10T07:24:26Z</time>
      </trkpt>
      <trkpt lat="48.15463" lon="-3.11824">
        <ele>261.2</ele>
        <time>2023-04-10T07:24:27Z</time>
      </trkpt>
      <trkpt lat="48.15464" lon="-3.11826">
        <ele>261.4</ele>
        <time>2023-04-10T07:24:28Z</time>
      </trkpt>
      <trkpt lat="48.15465" lon="-3.11828">
        <ele>261.6</ele>
        <time>2023-04-10T07:24:29Z</time>
      </trkpt>
      <trkpt lat="48.15466" lon="-3.1183">
        <ele>261.8</ele>
        <time>2023-04-10T07:24:30Z</time>
      </trkpt>
      <trkpt lat="48.15467" lon="-3.11833">
        <ele>262</ele>
        <time>2023-04-10T07:24:31Z</time>
      </trkpt>
      <trkpt lat="48.15468" lon="-3.11835">
        <ele>262.2</ele>
        <time>2023-04-10T07:24:32Z</time>
      </trkpt>
      <trkpt lat="48.15469" lon="-3.11837">
        <ele>262.4</ele>
        <time>2023-04-10T07:24:33Z</time>
      </trkpt>
      <trkpt lat="48.1547" lon="-3.1184">
        <ele>262.6</ele>
        <time>2023-04-10T07:24:34Z</time>
      </trkpt>
      <trkpt lat="48.1547" lon="-3.11843">
        <ele>262.6</ele>
        <time>2023-04-10T07:24:35Z</time>
      </trkpt>
      <trkpt lat="48.15472" lon="-3.11846">
        <ele>262.8</ele>
        <time>2023-04-10T07:24:36Z</time>
      </trkpt>
      <trkpt lat="48.15473" lon="-3.11849">
        <ele>263</ele>
        <time>2023-04-10T07:24:37Z</time>
      </trkpt>
      <trkpt lat="48.15474" lon="-3.11852">
        <ele>263.2</ele>
        <time>2023-04-10T07:24:38Z</time>
      </trkpt>
      <trkpt lat="48.15474" lon="-3.11855">
        <ele>263.4</ele>
        <time>2023-04-10T07:24:39Z</time>
      </trkpt>
      <trkpt lat="48.15475" lon="-3.11858">
        <ele>263.4</ele>
        <time>2023-04-10T07:24:40Z</time>
      </trkpt>
      <trkpt lat="48.15475" lon="-3.1186">
        <ele>263.6</ele>
        <time>2023-04-10T07:24:41Z</time>
      </trkpt>
      <trkpt lat="48.15476" lon="-3.11863">
        <ele>263.8</ele>
        <time>2023-04-10T07:24:42Z</time>
      </trkpt>
      <trkpt lat="48.15477" lon="-3.11866">
        <ele>264</ele>
        <time>2023-04-10T07:24:43Z</time>
      </trkpt>
      <trkpt lat="48.15478" lon="-3.11868">
        <ele>264.2</ele>
        <time>2023-04-10T07:24:44Z</time>
      </trkpt>
      <trkpt lat="48.15478" lon="-3.1187">
        <ele>264.4</ele>
        <time>2023-04-10T07:24:45Z</time>
      </trkpt>
      <trkpt lat="48.1548" lon="-3.11873">
        <ele>264.6</ele>
        <time>2023-04-10T07:24:46Z</time>
      </trkpt>
      <trkpt lat="48.15481" lon="-3.11876">
        <ele>264.8</ele>
        <time>2023-04-10T07:24:47Z</time>
      </trkpt>
      <trkpt lat="48.15482" lon="-3.1188">
        <ele>264.8</ele>
        <time>2023-04-10T07:24:48Z</time>
      </trkpt>
      <trkpt lat="48.15483" lon="-3.11882">
        <ele>265.2</ele>
        <time>2023-04-10T07:24:49Z</time>
      </trkpt>
      <trkpt lat="48.15483" lon="-3.11885">
        <ele>265.4</ele>
        <time>2023-04-10T07:24:50Z</time>
      </trkpt>
      <trkpt lat="48.15484" lon="-3.11888">
        <ele>265.8</ele>
        <time>2023-04-10T07:24:51Z</time>
      </trkpt>
      <trkpt lat="48.15485" lon="-3.11892">
        <ele>266</ele>
        <time>2023-04-10T07:24:52Z</time>
      </trkpt>
      <trkpt lat="48.15485" lon="-3.11895">
        <ele>266.2</ele>
        <time>2023-04-10T07:24:53Z</time>
      </trkpt>
      <trkpt lat="48.15486" lon="-3.11897">
        <ele>266.4</ele>
        <time>2023-04-10T07:24:54Z</time>
      </trkpt>
      <trkpt lat="48.15487" lon="-3.119">
        <ele>266.4</ele>
        <time>2023-04-10T07:24:55Z</time>
      </trkpt>
      <trkpt lat="48.15488" lon="-3.11902">
        <ele>266.6</ele>
        <time>2023-04-10T07:24:56Z</time>
      </trkpt>
      <trkpt lat="48.15489" lon="-3.11904">
        <ele>266.6</ele>
        <time>2023-04-10T07:24:57Z</time>
      </trkpt>
      <trkpt lat="48.1549" lon="-3.11906">
        <ele>266.8</ele>
        <time>2023-04-10T07:24:58Z</time>
      </trkpt>
      <trkpt lat="48.15491" lon="-3.11909">
        <ele>267</ele>
        <time>2023-04-10T07:24:59Z</time>
      </trkpt>
      <trkpt lat="48.15492" lon="-3.11911">
        <ele>267</ele>
        <time>2023-04-10T07:25:00Z</time>
      </trkpt>
      <trkpt lat="48.15493" lon="-3.11913">
        <ele>267.2</ele>
        <time>2023-04-10T07:25:01Z</time>
      </trkpt>
      <trkpt lat="48.15494" lon="-3.11915">
        <ele>267.4</ele>
        <time>2023-04-10T07:25:02Z</time>
      </trkpt>
      <trkpt lat="48.15495" lon="-3.11917">
        <ele>267.4</ele>
        <time>2023-04-10T07:25:03Z</time>
      </trkpt>
      <trkpt lat="48.15496" lon="-3.1192">
        <ele>267.6</ele>
        <time>2023-04-10T07:25:04Z</time>
      </trkpt>
      <trkpt lat="48.15497" lon="-3.11922">
        <ele>268</ele>
        <time>2023-04-10T07:25:05Z</time>
      </trkpt>
      <trkpt lat="48.15498" lon="-3.11924">
        <ele>268.4</ele>
        <time>2023-04-10T07:25:06Z</time>
      </trkpt>
      <trkpt lat="48.15499" lon="-3.11927">
        <ele>268.4</ele>
        <time>2023-04-10T07:25:07Z</time>
      </trkpt>
      <trkpt lat="48.155" lon="-3.11929">
        <ele>268.6</ele>
        <time>2023-04-10T07:25:08Z</time>
      </trkpt>
      <trkpt lat="48.15501" lon="-3.11931">
        <ele>268.8</ele>
        <time>2023-04-10T07:25:09Z</time>
      </trkpt>
      <trkpt lat="48.15502" lon="-3.11933">
        <ele>269</ele>
        <time>2023-04-10T07:25:10Z</time>
      </trkpt>
      <trkpt lat="48.15503" lon="-3.11936">
        <ele>269</ele>
        <time>2023-04-10T07:25:11Z</time>
      </trkpt>
      <trkpt lat="48.15504" lon="-3.11939">
        <ele>269.4</ele>
        <time>2023-04-10T07:25:12Z</time>
      </trkpt>
      <trkpt lat="48.15506" lon="-3.11941">
        <ele>269.4</ele>
        <time>2023-04-10T07:25:13Z</time>
      </trkpt>
      <trkpt lat="48.15506" lon="-3.11943">
        <ele>269.8</ele>
        <time>2023-04-10T07:25:14Z</time>
      </trkpt>
      <trkpt lat="48.15507" lon="-3.11946">
        <ele>270</ele>
        <time>2023-04-10T07:25:15Z</time>
      </trkpt>
      <trkpt lat="48.15509" lon="-3.11948">
        <ele>270.2</ele>
        <time>2023-04-10T07:25:16Z</time>
      </trkpt>
      <trkpt lat="48.1551" lon="-3.1195">
        <ele>270.4</ele>
        <time>2023-04-10T07:25:17Z</time>
      </trkpt>
      <trkpt lat="48.15511" lon="-3.11952">
        <ele>270.8</ele>
        <time>2023-04-10T07:25:18Z</time>
      </trkpt>
      <trkpt lat="48.15512" lon="-3.11954">
        <ele>271</ele>
        <time>2023-04-10T07:25:19Z</time>
      </trkpt>
      <trkpt lat="48.15513" lon="-3.11956">
        <ele>271</ele>
        <time>2023-04-10T07:25:20Z</time>
      </trkpt>
      <trkpt lat="48.15515" lon="-3.11959">
        <ele>271</ele>
        <time>2023-04-10T07:25:21Z</time>
      </trkpt>
      <trkpt lat="48.15516" lon="-3.11961">
        <ele>271.4</ele>
        <time>2023-04-10T07:25:22Z</time>
      </trkpt>
      <trkpt lat="48.15517" lon="-3.11963">
        <ele>271.4</ele>
        <time>2023-04-10T07:25:23Z</time>
      </trkpt>
      <trkpt lat="48.15518" lon="-3.11964">
        <ele>271.8</ele>
        <time>2023-04-10T07:25:24Z</time>
      </trkpt>
      <trkpt lat="48.15519" lon="-3.11966">
        <ele>272</ele>
        <time>2023-04-10T07:25:25Z</time>
      </trkpt>
      <trkpt lat="48.1552" lon="-3.11968">
        <ele>272.2</ele>
        <time>2023-04-10T07:25:26Z</time>
      </trkpt>
      <trkpt lat="48.15521" lon="-3.11971">
        <ele>272.4</ele>
        <time>2023-04-10T07:25:27Z</time>
      </trkpt>
      <trkpt lat="48.15522" lon="-3.11973">
        <ele>272.6</ele>
        <time>2023-04-10T07:25:28Z</time>
      </trkpt>
      <trkpt lat="48.15524" lon="-3.11975">
        <ele>272.8</ele>
        <time>2023-04-10T07:25:29Z</time>
      </trkpt>
      <trkpt lat="48.15525" lon="-3.11977">
        <ele>273</ele>
        <time>2023-04-10T07:25:30Z</time>
      </trkpt>
      <trkpt lat="48.15527" lon="-3.1198">
        <ele>273.2</ele>
        <time>2023-04-10T07:25:31Z</time>
      </trkpt>
      <trkpt lat="48.15528" lon="-3.11983">
        <ele>273.4</ele>
        <time>2023-04-10T07:25:32Z</time>
      </trkpt>
      <trkpt lat="48.15529" lon="-3.11985">
        <ele>273.6</ele>
        <time>2023-04-10T07:25:33Z</time>
      </trkpt>
      <trkpt lat="48.1553" lon="-3.11987">
        <ele>273.8</ele>
        <time>2023-04-10T07:25:34Z</time>
      </trkpt>
      <trkpt lat="48.15531" lon="-3.11989">
        <ele>274</ele>
        <time>2023-04-10T07:25:35Z</time>
      </trkpt>
      <trkpt lat="48.15532" lon="-3.1199">
        <ele>274.2</ele>
        <time>2023-04-10T07:25:36Z</time>
      </trkpt>
      <trkpt lat="48.15533" lon="-3.11992">
        <ele>274.4</ele>
        <time>2023-04-10T07:25:37Z</time>
      </trkpt>
      <trkpt lat="48.15534" lon="-3.11993">
        <ele>274.4</ele>
        <time>2023-04-10T07:25:38Z</time>
      </trkpt>
      <trkpt lat="48.15536" lon="-3.11996">
        <ele>274.6</ele>
        <time>2023-04-10T07:25:39Z</time>
      </trkpt>
      <trkpt lat="48.15537" lon="-3.11998">
        <ele>274.8</ele>
        <time>2023-04-10T07:25:40Z</time>
      </trkpt>
      <trkpt lat="48.15539" lon="-3.12">
        <ele>274.8</ele>
        <time>2023-04-10T07:25:41Z</time>
      </trkpt>
      <trkpt lat="48.15542" lon="-3.12001">
        <ele>274.8</ele>
        <time>2023-04-10T07:25:42Z</time>
      </trkpt>
      <trkpt lat="48.15543" lon="-3.12003">
        <ele>275</ele>
        <time>2023-04-10T07:25:43Z</time>
      </trkpt>
      <trkpt lat="48.15545" lon="-3.12005">
        <ele>275.2</ele>
        <time>2023-04-10T07:25:44Z</time>
      </trkpt>
      <trkpt lat="48.15547" lon="-3.12008">
        <ele>275.4</ele>
        <time>2023-04-10T07:25:45Z</time>
      </trkpt>
      <trkpt lat="48.15549" lon="-3.1201">
        <ele>275.4</ele>
        <time>2023-04-10T07:25:46Z</time>
      </trkpt>
      <trkpt lat="48.15551" lon="-3.12012">
        <ele>275.6</ele>
        <time>2023-04-10T07:25:47Z</time>
      </trkpt>
      <trkpt lat="48.15553" lon="-3.12015">
        <ele>275.8</ele>
        <time>2023-04-10T07:25:48Z</time>
      </trkpt>
      <trkpt lat="48.15554" lon="-3.12018">
        <ele>276</ele>
        <time>2023-04-10T07:25:49Z</time>
      </trkpt>
      <trkpt lat="48.15555" lon="-3.12021">
        <ele>276</ele>
        <time>2023-04-10T07:25:50Z</time>
      </trkpt>
      <trkpt lat="48.15556" lon="-3.12024">
        <ele>276.2</ele>
        <time>2023-04-10T07:25:51Z</time>
      </trkpt>
      <trkpt lat="48.15556" lon="-3.12027">
        <ele>276.2</ele>
        <time>2023-04-10T07:25:52Z</time>
      </trkpt>
      <trkpt lat="48.15556" lon="-3.12028">
        <ele>276.4</ele>
        <time>2023-04-10T07:25:53Z</time>
      </trkpt>
      <trkpt lat="48.15557" lon="-3.12029">
        <ele>276.4</ele>
        <time>2023-04-10T07:25:54Z</time>
      </trkpt>
      <trkpt lat="48.15558" lon="-3.12031">
        <ele>276.4</ele>
        <time>2023-04-10T07:25:55Z</time>
      </trkpt>
      <trkpt lat="48.1556" lon="-3.12034">
        <ele>276.6</ele>
        <time>2023-04-10T07:25:56Z</time>
      </trkpt>
      <trkpt lat="48.15562" lon="-3.12037">
        <ele>276.6</ele>
        <time>2023-04-10T07:25:57Z</time>
      </trkpt>
      <trkpt lat="48.15564" lon="-3.12041">
        <ele>276.8</ele>
        <time>2023-04-10T07:25:58Z</time>
      </trkpt>
      <trkpt lat="48.15566" lon="-3.12044">
        <ele>276.8</ele>
        <time>2023-04-10T07:25:59Z</time>
      </trkpt>
      <trkpt lat="48.15567" lon="-3.12046">
        <ele>276.8</ele>
        <time>2023-04-10T07:26:00Z</time>
      </trkpt>
      <trkpt lat="48.15569" lon="-3.1205">
        <ele>276.8</ele>
        <time>2023-04-10T07:26:01Z</time>
      </trkpt>
      <trkpt lat="48.15571" lon="-3.12053">
        <ele>276.6</ele>
        <time>2023-04-10T07:26:02Z</time>
      </trkpt>
      <trkpt lat="48.15573" lon="-3.12057">
        <ele>277</ele>
        <time>2023-04-10T07:26:03Z</time>
      </trkpt>
      <trkpt lat="48.15575" lon="-3.12062">
        <ele>277</ele>
        <time>2023-04-10T07:26:04Z</time>
      </trkpt>
      <trkpt lat="48.15576" lon="-3.12069">
        <ele>277</ele>
        <time>2023-04-10T07:26:05Z</time>
      </trkpt>
      <trkpt lat="48.15576" lon="-3.12074">
        <ele>277.2</ele>
        <time>2023-04-10T07:26:06Z</time>
      </trkpt>
      <trkpt lat="48.15577" lon="-3.1208">
        <ele>277</ele>
        <time>2023-04-10T07:26:07Z</time>
      </trkpt>
      <trkpt lat="48.15578" lon="-3.12085">
        <ele>277</ele>
        <time>2023-04-10T07:26:08Z</time>
      </trkpt>
      <trkpt lat="48.15579" lon="-3.1209">
        <ele>277.2</ele>
        <time>2023-04-10T07:26:09Z</time>
      </trkpt>
      <trkpt lat="48.15579" lon="-3.12106">
        <ele>277.2</ele>
        <time>2023-04-10T07:26:12Z</time>
      </trkpt>
      <trkpt lat="48.15579" lon="-3.12112">
        <ele>277.2</ele>
        <time>2023-04-10T07:26:13Z</time>
      </trkpt>
      <trkpt lat="48.15577" lon="-3.1214">
        <ele>277.2</ele>
        <time>2023-04-10T07:26:17Z</time>
      </trkpt>
      <trkpt lat="48.15579" lon="-3.12155">
        <ele>277</ele>
        <time>2023-04-10T07:26:19Z</time>
      </trkpt>
      <trkpt lat="48.15581" lon="-3.12163">
        <ele>277</ele>
        <time>2023-04-10T07:26:20Z</time>
      </trkpt>
      <trkpt lat="48.15582" lon="-3.12173">
        <ele>276.8</ele>
        <time>2023-04-10T07:26:21Z</time>
      </trkpt>
      <trkpt lat="48.15582" lon="-3.12193">
        <ele>276.4</ele>
        <time>2023-04-10T07:26:23Z</time>
      </trkpt>
      <trkpt lat="48.15581" lon="-3.12205">
        <ele>276.4</ele>
        <time>2023-04-10T07:26:24Z</time>
      </trkpt>
      <trkpt lat="48.15582" lon="-3.12216">
        <ele>276</ele>
        <time>2023-04-10T07:26:25Z</time>
      </trkpt>
      <trkpt lat="48.15584" lon="-3.12227">
        <ele>276</ele>
        <time>2023-04-10T07:26:26Z</time>
      </trkpt>
      <trkpt lat="48.15588" lon="-3.12238">
        <ele>275.6</ele>
        <time>2023-04-10T07:26:27Z</time>
      </trkpt>
      <trkpt lat="48.15593" lon="-3.12249">
        <ele>275.2</ele>
        <time>2023-04-10T07:26:28Z</time>
      </trkpt>
      <trkpt lat="48.15597" lon="-3.12259">
        <ele>275</ele>
        <time>2023-04-10T07:26:29Z</time>
      </trkpt>
      <trkpt lat="48.15602" lon="-3.12269">
        <ele>274.8</ele>
        <time>2023-04-10T07:26:30Z</time>
      </trkpt>
      <trkpt lat="48.15606" lon="-3.12279">
        <ele>274.4</ele>
        <time>2023-04-10T07:26:31Z</time>
      </trkpt>
      <trkpt lat="48.1561" lon="-3.12288">
        <ele>274</ele>
        <time>2023-04-10T07:26:32Z</time>
      </trkpt>
      <trkpt lat="48.15613" lon="-3.12297">
        <ele>273.2</ele>
        <time>2023-04-10T07:26:33Z</time>
      </trkpt>
      <trkpt lat="48.15617" lon="-3.12306">
        <ele>272.4</ele>
        <time>2023-04-10T07:26:34Z</time>
      </trkpt>
      <trkpt lat="48.1562" lon="-3.12315">
        <ele>271.6</ele>
        <time>2023-04-10T07:26:35Z</time>
      </trkpt>
      <trkpt lat="48.15625" lon="-3.12324">
        <ele>270.2</ele>
        <time>2023-04-10T07:26:36Z</time>
      </trkpt>
      <trkpt lat="48.15629" lon="-3.12333">
        <ele>269</ele>
        <time>2023-04-10T07:26:37Z</time>
      </trkpt>
      <trkpt lat="48.15639" lon="-3.12349">
        <ele>267.2</ele>
        <time>2023-04-10T07:26:39Z</time>
      </trkpt>
      <trkpt lat="48.15644" lon="-3.12357">
        <ele>266</ele>
        <time>2023-04-10T07:26:40Z</time>
      </trkpt>
      <trkpt lat="48.1565" lon="-3.12367">
        <ele>265</ele>
        <time>2023-04-10T07:26:41Z</time>
      </trkpt>
      <trkpt lat="48.15657" lon="-3.12376">
        <ele>263.6</ele>
        <time>2023-04-10T07:26:42Z</time>
      </trkpt>
      <trkpt lat="48.15666" lon="-3.12384">
        <ele>262.4</ele>
        <time>2023-04-10T07:26:43Z</time>
      </trkpt>
      <trkpt lat="48.15682" lon="-3.12399">
        <ele>260.2</ele>
        <time>2023-04-10T07:26:45Z</time>
      </trkpt>
      <trkpt lat="48.15689" lon="-3.12406">
        <ele>258.8</ele>
        <time>2023-04-10T07:26:46Z</time>
      </trkpt>
      <trkpt lat="48.15697" lon="-3.12414">
        <ele>257.4</ele>
        <time>2023-04-10T07:26:47Z</time>
      </trkpt>
      <trkpt lat="48.15706" lon="-3.12422">
        <ele>256</ele>
        <time>2023-04-10T07:26:48Z</time>
      </trkpt>
      <trkpt lat="48.15725" lon="-3.12439">
        <ele>255</ele>
        <time>2023-04-10T07:26:50Z</time>
      </trkpt>
      <trkpt lat="48.15734" lon="-3.12448">
        <ele>253.8</ele>
        <time>2023-04-10T07:26:51Z</time>
      </trkpt>
      <trkpt lat="48.15744" lon="-3.12457">
        <ele>252.6</ele>
        <time>2023-04-10T07:26:52Z</time>
      </trkpt>
      <trkpt lat="48.15754" lon="-3.12466">
        <ele>251.8</ele>
        <time>2023-04-10T07:26:53Z</time>
      </trkpt>
      <trkpt lat="48.15763" lon="-3.12475">
        <ele>251</ele>
        <time>2023-04-10T07:26:54Z</time>
      </trkpt>
      <trkpt lat="48.15772" lon="-3.12484">
        <ele>250.2</ele>
        <time>2023-04-10T07:26:55Z</time>
      </trkpt>
      <trkpt lat="48.15779" lon="-3.12491">
        <ele>249.6</ele>
        <time>2023-04-10T07:26:56Z</time>
      </trkpt>
      <trkpt lat="48.15785" lon="-3.12497">
        <ele>248.8</ele>
        <time>2023-04-10T07:26:57Z</time>
      </trkpt>
      <trkpt lat="48.15789" lon="-3.12501">
        <ele>248</ele>
        <time>2023-04-10T07:26:58Z</time>
      </trkpt>
      <trkpt lat="48.15793" lon="-3.12505">
        <ele>247</ele>
        <time>2023-04-10T07:26:59Z</time>
      </trkpt>
      <trkpt lat="48.15796" lon="-3.12509">
        <ele>246</ele>
        <time>2023-04-10T07:27:00Z</time>
      </trkpt>
      <trkpt lat="48.15799" lon="-3.12514">
        <ele>245.2</ele>
        <time>2023-04-10T07:27:01Z</time>
      </trkpt>
      <trkpt lat="48.15802" lon="-3.1252">
        <ele>244.6</ele>
        <time>2023-04-10T07:27:02Z</time>
      </trkpt>
      <trkpt lat="48.15809" lon="-3.1253">
        <ele>242.6</ele>
        <time>2023-04-10T07:27:04Z</time>
      </trkpt>
      <trkpt lat="48.15817" lon="-3.12542">
        <ele>240.8</ele>
        <time>2023-04-10T07:27:06Z</time>
      </trkpt>
      <trkpt lat="48.15821" lon="-3.12548">
        <ele>240.2</ele>
        <time>2023-04-10T07:27:07Z</time>
      </trkpt>
      <trkpt lat="48.15825" lon="-3.12554">
        <ele>239.8</ele>
        <time>2023-04-10T07:27:08Z</time>
      </trkpt>
      <trkpt lat="48.15828" lon="-3.12561">
        <ele>239.6</ele>
        <time>2023-04-10T07:27:09Z</time>
      </trkpt>
      <trkpt lat="48.15831" lon="-3.12567">
        <ele>239.4</ele>
        <time>2023-04-10T07:27:10Z</time>
      </trkpt>
      <trkpt lat="48.15834" lon="-3.12574">
        <ele>239.4</ele>
        <time>2023-04-10T07:27:11Z</time>
      </trkpt>
      <trkpt lat="48.15835" lon="-3.12581">
        <ele>239.2</ele>
        <time>2023-04-10T07:27:12Z</time>
      </trkpt>
      <trkpt lat="48.15836" lon="-3.12588">
        <ele>239.2</ele>
        <time>2023-04-10T07:27:13Z</time>
      </trkpt>
      <trkpt lat="48.15837" lon="-3.12594">
        <ele>239.2</ele>
        <time>2023-04-10T07:27:14Z</time>
      </trkpt>
      <trkpt lat="48.15837" lon="-3.126">
        <ele>239.2</ele>
        <time>2023-04-10T07:27:15Z</time>
      </trkpt>
      <trkpt lat="48.15838" lon="-3.12606">
        <ele>239.2</ele>
        <time>2023-04-10T07:27:16Z</time>
      </trkpt>
      <trkpt lat="48.15838" lon="-3.12612">
        <ele>239.2</ele>
        <time>2023-04-10T07:27:17Z</time>
      </trkpt>
      <trkpt lat="48.1584" lon="-3.12616">
        <ele>239.2</ele>
        <time>2023-04-10T07:27:18Z</time>
      </trkpt>
      <trkpt lat="48.15843" lon="-3.12618">
        <ele>239.2</ele>
        <time>2023-04-10T07:27:19Z</time>
      </trkpt>
      <trkpt lat="48.15852" lon="-3.12614">
        <ele>239.4</ele>
        <time>2023-04-10T07:27:21Z</time>
      </trkpt>
      <trkpt lat="48.15857" lon="-3.12613">
        <ele>239.4</ele>
        <time>2023-04-10T07:27:22Z</time>
      </trkpt>
      <trkpt lat="48.15891" lon="-3.12609">
        <ele>239.6</ele>
        <time>2023-04-10T07:27:27Z</time>
      </trkpt>
      <trkpt lat="48.15921" lon="-3.12617">
        <ele>239.6</ele>
        <time>2023-04-10T07:27:31Z</time>
      </trkpt>
      <trkpt lat="48.15928" lon="-3.12621">
        <ele>239.6</ele>
        <time>2023-04-10T07:27:32Z</time>
      </trkpt>
      <trkpt lat="48.15943" lon="-3.1263">
        <ele>239.2</ele>
        <time>2023-04-10T07:27:34Z</time>
      </trkpt>
      <trkpt lat="48.15949" lon="-3.12636">
        <ele>239.2</ele>
        <time>2023-04-10T07:27:35Z</time>
      </trkpt>
      <trkpt lat="48.15956" lon="-3.12642">
        <ele>239</ele>
        <time>2023-04-10T07:27:36Z</time>
      </trkpt>
      <trkpt lat="48.15963" lon="-3.12648">
        <ele>238.8</ele>
        <time>2023-04-10T07:27:37Z</time>
      </trkpt>
      <trkpt lat="48.15969" lon="-3.12654">
        <ele>238.4</ele>
        <time>2023-04-10T07:27:38Z</time>
      </trkpt>
      <trkpt lat="48.15974" lon="-3.12661">
        <ele>238.2</ele>
        <time>2023-04-10T07:27:39Z</time>
      </trkpt>
      <trkpt lat="48.1598" lon="-3.12667">
        <ele>238</ele>
        <time>2023-04-10T07:27:40Z</time>
      </trkpt>
      <trkpt lat="48.15986" lon="-3.12673">
        <ele>237.8</ele>
        <time>2023-04-10T07:27:41Z</time>
      </trkpt>
      <trkpt lat="48.15991" lon="-3.12679">
        <ele>237.8</ele>
        <time>2023-04-10T07:27:42Z</time>
      </trkpt>
      <trkpt lat="48.15997" lon="-3.12685">
        <ele>237.6</ele>
        <time>2023-04-10T07:27:43Z</time>
      </trkpt>
      <trkpt lat="48.16002" lon="-3.12692">
        <ele>237.6</ele>
        <time>2023-04-10T07:27:44Z</time>
      </trkpt>
      <trkpt lat="48.16008" lon="-3.12698">
        <ele>237.6</ele>
        <time>2023-04-10T07:27:45Z</time>
      </trkpt>
      <trkpt lat="48.16045" lon="-3.12741">
        <ele>237.6</ele>
        <time>2023-04-10T07:27:52Z</time>
      </trkpt>
      <trkpt lat="48.16051" lon="-3.12746">
        <ele>237.6</ele>
        <time>2023-04-10T07:27:53Z</time>
      </trkpt>
      <trkpt lat="48.16056" lon="-3.12751">
        <ele>237.6</ele>
        <time>2023-04-10T07:27:54Z</time>
      </trkpt>
      <trkpt lat="48.16062" lon="-3.12755">
        <ele>237.6</ele>
        <time>2023-04-10T07:27:55Z</time>
      </trkpt>
      <trkpt lat="48.16067" lon="-3.1276">
        <ele>237.6</ele>
        <time>2023-04-10T07:27:56Z</time>
      </trkpt>
      <trkpt lat="48.16072" lon="-3.12766">
        <ele>237.6</ele>
        <time>2023-04-10T07:27:57Z</time>
      </trkpt>
      <trkpt lat="48.16077" lon="-3.1277">
        <ele>237.6</ele>
        <time>2023-04-10T07:27:58Z</time>
      </trkpt>
      <trkpt lat="48.16082" lon="-3.12775">
        <ele>237.6</ele>
        <time>2023-04-10T07:27:59Z</time>
      </trkpt>
      <trkpt lat="48.16087" lon="-3.12779">
        <ele>237.6</ele>
        <time>2023-04-10T07:28:00Z</time>
      </trkpt>
      <trkpt lat="48.16091" lon="-3.12784">
        <ele>237.6</ele>
        <time>2023-04-10T07:28:01Z</time>
      </trkpt>
      <trkpt lat="48.16096" lon="-3.12789">
        <ele>237.8</ele>
        <time>2023-04-10T07:28:02Z</time>
      </trkpt>
      <trkpt lat="48.16101" lon="-3.12793">
        <ele>237.8</ele>
        <time>2023-04-10T07:28:03Z</time>
      </trkpt>
      <trkpt lat="48.16105" lon="-3.12797">
        <ele>237.8</ele>
        <time>2023-04-10T07:28:04Z</time>
      </trkpt>
      <trkpt lat="48.16109" lon="-3.12801">
        <ele>238</ele>
        <time>2023-04-10T07:28:05Z</time>
      </trkpt>
      <trkpt lat="48.16114" lon="-3.12804">
        <ele>238</ele>
        <time>2023-04-10T07:28:06Z</time>
      </trkpt>
      <trkpt lat="48.16139" lon="-3.1283">
        <ele>239.2</ele>
        <time>2023-04-10T07:28:12Z</time>
      </trkpt>
      <trkpt lat="48.16176" lon="-3.12859">
        <ele>239.4</ele>
        <time>2023-04-10T07:28:19Z</time>
      </trkpt>
      <trkpt lat="48.16182" lon="-3.12864">
        <ele>239.4</ele>
        <time>2023-04-10T07:28:20Z</time>
      </trkpt>
      <trkpt lat="48.16196" lon="-3.12871">
        <ele>239.4</ele>
        <time>2023-04-10T07:28:22Z</time>
      </trkpt>
      <trkpt lat="48.16216" lon="-3.12878">
        <ele>239</ele>
        <time>2023-04-10T07:28:25Z</time>
      </trkpt>
      <trkpt lat="48.1623" lon="-3.12881">
        <ele>238.4</ele>
        <time>2023-04-10T07:28:27Z</time>
      </trkpt>
      <trkpt lat="48.16237" lon="-3.12882">
        <ele>238.2</ele>
        <time>2023-04-10T07:28:28Z</time>
      </trkpt>
      <trkpt lat="48.16243" lon="-3.12881">
        <ele>237.8</ele>
        <time>2023-04-10T07:28:29Z</time>
      </trkpt>
      <trkpt lat="48.1625" lon="-3.1288">
        <ele>237.4</ele>
        <time>2023-04-10T07:28:30Z</time>
      </trkpt>
      <trkpt lat="48.16257" lon="-3.12878">
        <ele>237</ele>
        <time>2023-04-10T07:28:31Z</time>
      </trkpt>
      <trkpt lat="48.16263" lon="-3.12877">
        <ele>236.8</ele>
        <time>2023-04-10T07:28:32Z</time>
      </trkpt>
      <trkpt lat="48.16269" lon="-3.12875">
        <ele>236.8</ele>
        <time>2023-04-10T07:28:33Z</time>
      </trkpt>
      <trkpt lat="48.16275" lon="-3.12873">
        <ele>236.4</ele>
        <time>2023-04-10T07:28:34Z</time>
      </trkpt>
      <trkpt lat="48.16281" lon="-3.12871">
        <ele>236</ele>
        <time>2023-04-10T07:28:35Z</time>
      </trkpt>
      <trkpt lat="48.16288" lon="-3.12869">
        <ele>235.8</ele>
        <time>2023-04-10T07:28:36Z</time>
      </trkpt>
      <trkpt lat="48.16294" lon="-3.12867">
        <ele>235.8</ele>
        <time>2023-04-10T07:28:37Z</time>
      </trkpt>
      <trkpt lat="48.163" lon="-3.12865">
        <ele>235.6</ele>
        <time>2023-04-10T07:28:38Z</time>
      </trkpt>
      <trkpt lat="48.16326" lon="-3.12855">
        <ele>235.6</ele>
        <time>2023-04-10T07:28:42Z</time>
      </trkpt>
      <trkpt lat="48.16332" lon="-3.12851">
        <ele>235.6</ele>
        <time>2023-04-10T07:28:43Z</time>
      </trkpt>
      <trkpt lat="48.16338" lon="-3.12846">
        <ele>235.6</ele>
        <time>2023-04-10T07:28:44Z</time>
      </trkpt>
      <trkpt lat="48.16344" lon="-3.1284">
        <ele>235.6</ele>
        <time>2023-04-10T07:28:45Z</time>
      </trkpt>
      <trkpt lat="48.16364" lon="-3.12819">
        <ele>235.6</ele>
        <time>2023-04-10T07:28:48Z</time>
      </trkpt>
      <trkpt lat="48.16395" lon="-3.12787">
        <ele>235</ele>
        <time>2023-04-10T07:28:52Z</time>
      </trkpt>
      <trkpt lat="48.16402" lon="-3.12779">
        <ele>234.6</ele>
        <time>2023-04-10T07:28:53Z</time>
      </trkpt>
      <trkpt lat="48.1641" lon="-3.12772">
        <ele>234.2</ele>
        <time>2023-04-10T07:28:54Z</time>
      </trkpt>
      <trkpt lat="48.16416" lon="-3.12765">
        <ele>233.8</ele>
        <time>2023-04-10T07:28:55Z</time>
      </trkpt>
      <trkpt lat="48.16422" lon="-3.1276">
        <ele>233.4</ele>
        <time>2023-04-10T07:28:56Z</time>
      </trkpt>
      <trkpt lat="48.16427" lon="-3.12756">
        <ele>233</ele>
        <time>2023-04-10T07:28:57Z</time>
      </trkpt>
      <trkpt lat="48.16432" lon="-3.12753">
        <ele>232.6</ele>
        <time>2023-04-10T07:28:58Z</time>
      </trkpt>
      <trkpt lat="48.16436" lon="-3.12755">
        <ele>232.2</ele>
        <time>2023-04-10T07:28:59Z</time>
      </trkpt>
      <trkpt lat="48.16439" lon="-3.1276">
        <ele>231.4</ele>
        <time>2023-04-10T07:29:00Z</time>
      </trkpt>
      <trkpt lat="48.1644" lon="-3.12768">
        <ele>231.4</ele>
        <time>2023-04-10T07:29:01Z</time>
      </trkpt>
      <trkpt lat="48.16439" lon="-3.12773">
        <ele>230.6</ele>
        <time>2023-04-10T07:29:02Z</time>
      </trkpt>
      <trkpt lat="48.16439" lon="-3.12779">
        <ele>230</ele>
        <time>2023-04-10T07:29:03Z</time>
      </trkpt>
      <trkpt lat="48.16439" lon="-3.12784">
        <ele>229.2</ele>
        <time>2023-04-10T07:29:04Z</time>
      </trkpt>
      <trkpt lat="48.1644" lon="-3.12789">
        <ele>228.4</ele>
        <time>2023-04-10T07:29:05Z</time>
      </trkpt>
      <trkpt lat="48.16441" lon="-3.12793">
        <ele>228.2</ele>
        <time>2023-04-10T07:29:06Z</time>
      </trkpt>
      <trkpt lat="48.16444" lon="-3.12797">
        <ele>228</ele>
        <time>2023-04-10T07:29:07Z</time>
      </trkpt>
      <trkpt lat="48.16452" lon="-3.12797">
        <ele>227.8</ele>
        <time>2023-04-10T07:29:09Z</time>
      </trkpt>
      <trkpt lat="48.16462" lon="-3.12795">
        <ele>227.8</ele>
        <time>2023-04-10T07:29:11Z</time>
      </trkpt>
      <trkpt lat="48.16473" lon="-3.12794">
        <ele>227.8</ele>
        <time>2023-04-10T07:29:13Z</time>
      </trkpt>
      <trkpt lat="48.16483" lon="-3.12793">
        <ele>227.6</ele>
        <time>2023-04-10T07:29:15Z</time>
      </trkpt>
      <trkpt lat="48.16499" lon="-3.12799">
        <ele>227.6</ele>
        <time>2023-04-10T07:29:18Z</time>
      </trkpt>
      <trkpt lat="48.16524" lon="-3.12817">
        <ele>227.6</ele>
        <time>2023-04-10T07:29:22Z</time>
      </trkpt>
      <trkpt lat="48.1653" lon="-3.12821">
        <ele>227.6</ele>
        <time>2023-04-10T07:29:23Z</time>
      </trkpt>
      <trkpt lat="48.16536" lon="-3.12826">
        <ele>227.6</ele>
        <time>2023-04-10T07:29:24Z</time>
      </trkpt>
      <trkpt lat="48.1654" lon="-3.1283">
        <ele>227.2</ele>
        <time>2023-04-10T07:29:25Z</time>
      </trkpt>
      <trkpt lat="48.16545" lon="-3.12836">
        <ele>227</ele>
        <time>2023-04-10T07:29:26Z</time>
      </trkpt>
      <trkpt lat="48.16552" lon="-3.1285">
        <ele>226.4</ele>
        <time>2023-04-10T07:29:28Z</time>
      </trkpt>
      <trkpt lat="48.16552" lon="-3.12855">
        <ele>225.8</ele>
        <time>2023-04-10T07:29:29Z</time>
      </trkpt>
      <trkpt lat="48.1655" lon="-3.12858">
        <ele>225.2</ele>
        <time>2023-04-10T07:29:30Z</time>
      </trkpt>
      <trkpt lat="48.16547" lon="-3.12859">
        <ele>224.8</ele>
        <time>2023-04-10T07:29:31Z</time>
      </trkpt>
      <trkpt lat="48.16545" lon="-3.12863">
        <ele>224.4</ele>
        <time>2023-04-10T07:29:32Z</time>
      </trkpt>
      <trkpt lat="48.16544" lon="-3.12867">
        <ele>224.2</ele>
        <time>2023-04-10T07:29:33Z</time>
      </trkpt>
      <trkpt lat="48.16543" lon="-3.12879">
        <ele>223.4</ele>
        <time>2023-04-10T07:29:35Z</time>
      </trkpt>
      <trkpt lat="48.16542" lon="-3.12886">
        <ele>223</ele>
        <time>2023-04-10T07:29:36Z</time>
      </trkpt>
      <trkpt lat="48.16538" lon="-3.12892">
        <ele>222.8</ele>
        <time>2023-04-10T07:29:37Z</time>
      </trkpt>
      <trkpt lat="48.16535" lon="-3.12896">
        <ele>222.4</ele>
        <time>2023-04-10T07:29:38Z</time>
      </trkpt>
      <trkpt lat="48.16531" lon="-3.129">
        <ele>222.2</ele>
        <time>2023-04-10T07:29:39Z</time>
      </trkpt>
      <trkpt lat="48.16528" lon="-3.12904">
        <ele>222</ele>
        <time>2023-04-10T07:29:40Z</time>
      </trkpt>
      <trkpt lat="48.16524" lon="-3.12907">
        <ele>221.8</ele>
        <time>2023-04-10T07:29:41Z</time>
      </trkpt>
      <trkpt lat="48.16521" lon="-3.12911">
        <ele>221.8</ele>
        <time>2023-04-10T07:29:42Z</time>
      </trkpt>
      <trkpt lat="48.16519" lon="-3.12917">
        <ele>221.6</ele>
        <time>2023-04-10T07:29:43Z</time>
      </trkpt>
      <trkpt lat="48.16517" lon="-3.12924">
        <ele>221.6</ele>
        <time>2023-04-10T07:29:44Z</time>
      </trkpt>
      <trkpt lat="48.16515" lon="-3.1293">
        <ele>221.6</ele>
        <time>2023-04-10T07:29:45Z</time>
      </trkpt>
      <trkpt lat="48.16512" lon="-3.12936">
        <ele>221.6</ele>
        <time>2023-04-10T07:29:46Z</time>
      </trkpt>
      <trkpt lat="48.16509" lon="-3.12942">
        <ele>221.6</ele>
        <time>2023-04-10T07:29:47Z</time>
      </trkpt>
      <trkpt lat="48.16506" lon="-3.12948">
        <ele>221.6</ele>
        <time>2023-04-10T07:29:48Z</time>
      </trkpt>
      <trkpt lat="48.16502" lon="-3.12952">
        <ele>221.6</ele>
        <time>2023-04-10T07:29:49Z</time>
      </trkpt>
      <trkpt lat="48.16498" lon="-3.12955">
        <ele>221.6</ele>
        <time>2023-04-10T07:29:50Z</time>
      </trkpt>
      <trkpt lat="48.1649" lon="-3.12961">
        <ele>221.4</ele>
        <time>2023-04-10T07:29:52Z</time>
      </trkpt>
      <trkpt lat="48.16485" lon="-3.12963">
        <ele>221.4</ele>
        <time>2023-04-10T07:29:53Z</time>
      </trkpt>
      <trkpt lat="48.16481" lon="-3.12966">
        <ele>221.6</ele>
        <time>2023-04-10T07:29:54Z</time>
      </trkpt>
      <trkpt lat="48.16474" lon="-3.12973">
        <ele>221.4</ele>
        <time>2023-04-10T07:29:56Z</time>
      </trkpt>
      <trkpt lat="48.16471" lon="-3.12975">
        <ele>221.4</ele>
        <time>2023-04-10T07:29:57Z</time>
      </trkpt>
      <trkpt lat="48.16469" lon="-3.12976">
        <ele>221.4</ele>
        <time>2023-04-10T07:29:58Z</time>
      </trkpt>
      <trkpt lat="48.16467" lon="-3.12977">
        <ele>221.6</ele>
        <time>2023-04-10T07:29:59Z</time>
      </trkpt>
      <trkpt lat="48.16465" lon="-3.12976">
        <ele>221.4</ele>
        <time>2023-04-10T07:30:00Z</time>
      </trkpt>
      <trkpt lat="48.16464" lon="-3.12974">
        <ele>221.6</ele>
        <time>2023-04-10T07:30:01Z</time>
      </trkpt>
      <trkpt lat="48.16463" lon="-3.12973">
        <ele>221.8</ele>
        <time>2023-04-10T07:30:02Z</time>
      </trkpt>
      <trkpt lat="48.16462" lon="-3.12971">
        <ele>221.8</ele>
        <time>2023-04-10T07:30:03Z</time>
      </trkpt>
      <trkpt lat="48.16461" lon="-3.12969">
        <ele>221.8</ele>
        <time>2023-04-10T07:30:04Z</time>
      </trkpt>
      <trkpt lat="48.1646" lon="-3.12967">
        <ele>221.8</ele>
        <time>2023-04-10T07:30:05Z</time>
      </trkpt>
      <trkpt lat="48.16458" lon="-3.12965">
        <ele>221.6</ele>
        <time>2023-04-10T07:30:06Z</time>
      </trkpt>
      <trkpt lat="48.16454" lon="-3.12962">
        <ele>221.8</ele>
        <time>2023-04-10T07:30:08Z</time>
      </trkpt>
      <trkpt lat="48.16452" lon="-3.12961">
        <ele>222</ele>
        <time>2023-04-10T07:30:09Z</time>
      </trkpt>
      <trkpt lat="48.1645" lon="-3.1296">
        <ele>222.2</ele>
        <time>2023-04-10T07:30:10Z</time>
      </trkpt>
      <trkpt lat="48.16443" lon="-3.12957">
        <ele>223.2</ele>
        <time>2023-04-10T07:30:13Z</time>
      </trkpt>
      <trkpt lat="48.16441" lon="-3.12956">
        <ele>223.4</ele>
        <time>2023-04-10T07:30:14Z</time>
      </trkpt>
      <trkpt lat="48.16439" lon="-3.12955">
        <ele>223.8</ele>
        <time>2023-04-10T07:30:15Z</time>
      </trkpt>
      <trkpt lat="48.16437" lon="-3.12955">
        <ele>224.2</ele>
        <time>2023-04-10T07:30:16Z</time>
      </trkpt>
      <trkpt lat="48.16435" lon="-3.12955">
        <ele>224.4</ele>
        <time>2023-04-10T07:30:17Z</time>
      </trkpt>
      <trkpt lat="48.16432" lon="-3.12956">
        <ele>224.4</ele>
        <time>2023-04-10T07:30:18Z</time>
      </trkpt>
      <trkpt lat="48.1643" lon="-3.12957">
        <ele>224.6</ele>
        <time>2023-04-10T07:30:19Z</time>
      </trkpt>
      <trkpt lat="48.16428" lon="-3.12957">
        <ele>225</ele>
        <time>2023-04-10T07:30:20Z</time>
      </trkpt>
      <trkpt lat="48.16426" lon="-3.12956">
        <ele>225.2</ele>
        <time>2023-04-10T07:30:21Z</time>
      </trkpt>
      <trkpt lat="48.16423" lon="-3.12955">
        <ele>225.4</ele>
        <time>2023-04-10T07:30:22Z</time>
      </trkpt>
      <trkpt lat="48.16422" lon="-3.12954">
        <ele>225.6</ele>
        <time>2023-04-10T07:30:23Z</time>
      </trkpt>
      <trkpt lat="48.1642" lon="-3.12953">
        <ele>225.8</ele>
        <time>2023-04-10T07:30:24Z</time>
      </trkpt>
      <trkpt lat="48.16419" lon="-3.12953">
        <ele>226.2</ele>
        <time>2023-04-10T07:30:25Z</time>
      </trkpt>
      <trkpt lat="48.16417" lon="-3.12953">
        <ele>226.6</ele>
        <time>2023-04-10T07:30:26Z</time>
      </trkpt>
      <trkpt lat="48.16414" lon="-3.12954">
        <ele>226.8</ele>
        <time>2023-04-10T07:30:27Z</time>
      </trkpt>
      <trkpt lat="48.16411" lon="-3.12955">
        <ele>227</ele>
        <time>2023-04-10T07:30:28Z</time>
      </trkpt>
      <trkpt lat="48.16408" lon="-3.12956">
        <ele>227</ele>
        <time>2023-04-10T07:30:29Z</time>
      </trkpt>
      <trkpt lat="48.16405" lon="-3.12957">
        <ele>227.2</ele>
        <time>2023-04-10T07:30:30Z</time>
      </trkpt>
      <trkpt lat="48.16403" lon="-3.12959">
        <ele>227.4</ele>
        <time>2023-04-10T07:30:31Z</time>
      </trkpt>
      <trkpt lat="48.164" lon="-3.12962">
        <ele>227.4</ele>
        <time>2023-04-10T07:30:32Z</time>
      </trkpt>
      <trkpt lat="48.16397" lon="-3.12963">
        <ele>227.8</ele>
        <time>2023-04-10T07:30:33Z</time>
      </trkpt>
      <trkpt lat="48.16394" lon="-3.12965">
        <ele>227.8</ele>
        <time>2023-04-10T07:30:34Z</time>
      </trkpt>
      <trkpt lat="48.16391" lon="-3.12967">
        <ele>227.8</ele>
        <time>2023-04-10T07:30:35Z</time>
      </trkpt>
      <trkpt lat="48.16388" lon="-3.12969">
        <ele>227.8</ele>
        <time>2023-04-10T07:30:36Z</time>
      </trkpt>
      <trkpt lat="48.16386" lon="-3.12973">
        <ele>227.6</ele>
        <time>2023-04-10T07:30:37Z</time>
      </trkpt>
      <trkpt lat="48.16383" lon="-3.12976">
        <ele>227.8</ele>
        <time>2023-04-10T07:30:38Z</time>
      </trkpt>
      <trkpt lat="48.16383" lon="-3.12981">
        <ele>227.8</ele>
        <time>2023-04-10T07:30:39Z</time>
      </trkpt>
      <trkpt lat="48.16384" lon="-3.12986">
        <ele>227.8</ele>
        <time>2023-04-10T07:30:40Z</time>
      </trkpt>
      <trkpt lat="48.16385" lon="-3.1299">
        <ele>227.8</ele>
        <time>2023-04-10T07:30:41Z</time>
      </trkpt>
      <trkpt lat="48.16386" lon="-3.12994">
        <ele>227.8</ele>
        <time>2023-04-10T07:30:42Z</time>
      </trkpt>
      <trkpt lat="48.16387" lon="-3.13">
        <ele>227.8</ele>
        <time>2023-04-10T07:30:43Z</time>
      </trkpt>
      <trkpt lat="48.16388" lon="-3.13006">
        <ele>227.6</ele>
        <time>2023-04-10T07:30:44Z</time>
      </trkpt>
      <trkpt lat="48.16389" lon="-3.13012">
        <ele>227.4</ele>
        <time>2023-04-10T07:30:45Z</time>
      </trkpt>
      <trkpt lat="48.16389" lon="-3.13017">
        <ele>227.2</ele>
        <time>2023-04-10T07:30:46Z</time>
      </trkpt>
      <trkpt lat="48.16391" lon="-3.13022">
        <ele>227.2</ele>
        <time>2023-04-10T07:30:47Z</time>
      </trkpt>
      <trkpt lat="48.16393" lon="-3.13024">
        <ele>226.8</ele>
        <time>2023-04-10T07:30:48Z</time>
      </trkpt>
      <trkpt lat="48.16394" lon="-3.13025">
        <ele>226.4</ele>
        <time>2023-04-10T07:30:49Z</time>
      </trkpt>
      <trkpt lat="48.16397" lon="-3.13027">
        <ele>226.4</ele>
        <time>2023-04-10T07:30:50Z</time>
      </trkpt>
      <trkpt lat="48.16399" lon="-3.13029">
        <ele>226.4</ele>
        <time>2023-04-10T07:30:51Z</time>
      </trkpt>
      <trkpt lat="48.16402" lon="-3.13033">
        <ele>226.2</ele>
        <time>2023-04-10T07:30:52Z</time>
      </trkpt>
      <trkpt lat="48.16404" lon="-3.13039">
        <ele>225.6</ele>
        <time>2023-04-10T07:30:53Z</time>
      </trkpt>
      <trkpt lat="48.16406" lon="-3.13045">
        <ele>225.2</ele>
        <time>2023-04-10T07:30:54Z</time>
      </trkpt>
      <trkpt lat="48.16408" lon="-3.13049">
        <ele>224.6</ele>
        <time>2023-04-10T07:30:55Z</time>
      </trkpt>
      <trkpt lat="48.16409" lon="-3.13052">
        <ele>223.6</ele>
        <time>2023-04-10T07:30:56Z</time>
      </trkpt>
      <trkpt lat="48.16412" lon="-3.13054">
        <ele>223.2</ele>
        <time>2023-04-10T07:30:57Z</time>
      </trkpt>
      <trkpt lat="48.16415" lon="-3.13056">
        <ele>222.8</ele>
        <time>2023-04-10T07:30:58Z</time>
      </trkpt>
      <trkpt lat="48.16418" lon="-3.13059">
        <ele>222.8</ele>
        <time>2023-04-10T07:30:59Z</time>
      </trkpt>
      <trkpt lat="48.16421" lon="-3.13062">
        <ele>222.2</ele>
        <time>2023-04-10T07:31:00Z</time>
      </trkpt>
      <trkpt lat="48.16427" lon="-3.13066">
        <ele>221.8</ele>
        <time>2023-04-10T07:31:01Z</time>
      </trkpt>
      <trkpt lat="48.16432" lon="-3.13071">
        <ele>221.6</ele>
        <time>2023-04-10T07:31:02Z</time>
      </trkpt>
      <trkpt lat="48.16441" lon="-3.1308">
        <ele>221.2</ele>
        <time>2023-04-10T07:31:04Z</time>
      </trkpt>
      <trkpt lat="48.16444" lon="-3.13086">
        <ele>221</ele>
        <time>2023-04-10T07:31:05Z</time>
      </trkpt>
      <trkpt lat="48.16445" lon="-3.13091">
        <ele>220.8</ele>
        <time>2023-04-10T07:31:06Z</time>
      </trkpt>
      <trkpt lat="48.16445" lon="-3.13097">
        <ele>221</ele>
        <time>2023-04-10T07:31:07Z</time>
      </trkpt>
      <trkpt lat="48.16443" lon="-3.13104">
        <ele>221</ele>
        <time>2023-04-10T07:31:08Z</time>
      </trkpt>
      <trkpt lat="48.16437" lon="-3.13116">
        <ele>221</ele>
        <time>2023-04-10T07:31:10Z</time>
      </trkpt>
      <trkpt lat="48.16434" lon="-3.1312">
        <ele>221</ele>
        <time>2023-04-10T07:31:11Z</time>
      </trkpt>
      <trkpt lat="48.16431" lon="-3.13125">
        <ele>221</ele>
        <time>2023-04-10T07:31:12Z</time>
      </trkpt>
      <trkpt lat="48.16429" lon="-3.13131">
        <ele>221</ele>
        <time>2023-04-10T07:31:13Z</time>
      </trkpt>
      <trkpt lat="48.16427" lon="-3.13137">
        <ele>221</ele>
        <time>2023-04-10T07:31:14Z</time>
      </trkpt>
      <trkpt lat="48.16424" lon="-3.13142">
        <ele>221</ele>
        <time>2023-04-10T07:31:15Z</time>
      </trkpt>
      <trkpt lat="48.16422" lon="-3.13147">
        <ele>221</ele>
        <time>2023-04-10T07:31:16Z</time>
      </trkpt>
      <trkpt lat="48.1642" lon="-3.13153">
        <ele>221</ele>
        <time>2023-04-10T07:31:17Z</time>
      </trkpt>
      <trkpt lat="48.16417" lon="-3.1316">
        <ele>221</ele>
        <time>2023-04-10T07:31:18Z</time>
      </trkpt>
      <trkpt lat="48.16415" lon="-3.13166">
        <ele>221</ele>
        <time>2023-04-10T07:31:19Z</time>
      </trkpt>
      <trkpt lat="48.16415" lon="-3.13171">
        <ele>221</ele>
        <time>2023-04-10T07:31:20Z</time>
      </trkpt>
      <trkpt lat="48.16416" lon="-3.13176">
        <ele>221</ele>
        <time>2023-04-10T07:31:21Z</time>
      </trkpt>
      <trkpt lat="48.16418" lon="-3.13182">
        <ele>221</ele>
        <time>2023-04-10T07:31:22Z</time>
      </trkpt>
      <trkpt lat="48.16419" lon="-3.13187">
        <ele>221</ele>
        <time>2023-04-10T07:31:23Z</time>
      </trkpt>
      <trkpt lat="48.16421" lon="-3.13191">
        <ele>221.2</ele>
        <time>2023-04-10T07:31:24Z</time>
      </trkpt>
      <trkpt lat="48.16422" lon="-3.13195">
        <ele>221.2</ele>
        <time>2023-04-10T07:31:25Z</time>
      </trkpt>
      <trkpt lat="48.16423" lon="-3.13198">
        <ele>221.2</ele>
        <time>2023-04-10T07:31:26Z</time>
      </trkpt>
      <trkpt lat="48.16424" lon="-3.13201">
        <ele>221.4</ele>
        <time>2023-04-10T07:31:27Z</time>
      </trkpt>
      <trkpt lat="48.16424" lon="-3.13204">
        <ele>221.4</ele>
        <time>2023-04-10T07:31:28Z</time>
      </trkpt>
      <trkpt lat="48.16422" lon="-3.13207">
        <ele>221.6</ele>
        <time>2023-04-10T07:31:29Z</time>
      </trkpt>
      <trkpt lat="48.1642" lon="-3.13211">
        <ele>221.8</ele>
        <time>2023-04-10T07:31:30Z</time>
      </trkpt>
      <trkpt lat="48.1642" lon="-3.13215">
        <ele>222</ele>
        <time>2023-04-10T07:31:31Z</time>
      </trkpt>
      <trkpt lat="48.1642" lon="-3.13218">
        <ele>222.2</ele>
        <time>2023-04-10T07:31:32Z</time>
      </trkpt>
      <trkpt lat="48.1642" lon="-3.13221">
        <ele>222.4</ele>
        <time>2023-04-10T07:31:33Z</time>
      </trkpt>
      <trkpt lat="48.1642" lon="-3.13224">
        <ele>222.6</ele>
        <time>2023-04-10T07:31:34Z</time>
      </trkpt>
      <trkpt lat="48.16419" lon="-3.13227">
        <ele>222.8</ele>
        <time>2023-04-10T07:31:35Z</time>
      </trkpt>
      <trkpt lat="48.16418" lon="-3.13239">
        <ele>223.8</ele>
        <time>2023-04-10T07:31:39Z</time>
      </trkpt>
      <trkpt lat="48.16418" lon="-3.1325">
        <ele>225</ele>
        <time>2023-04-10T07:31:42Z</time>
      </trkpt>
      <trkpt lat="48.16419" lon="-3.13254">
        <ele>225.2</ele>
        <time>2023-04-10T07:31:43Z</time>
      </trkpt>
      <trkpt lat="48.1642" lon="-3.13258">
        <ele>225.4</ele>
        <time>2023-04-10T07:31:44Z</time>
      </trkpt>
      <trkpt lat="48.16421" lon="-3.13262">
        <ele>225.6</ele>
        <time>2023-04-10T07:31:45Z</time>
      </trkpt>
      <trkpt lat="48.16422" lon="-3.13265">
        <ele>226</ele>
        <time>2023-04-10T07:31:46Z</time>
      </trkpt>
      <trkpt lat="48.16423" lon="-3.13268">
        <ele>226.2</ele>
        <time>2023-04-10T07:31:47Z</time>
      </trkpt>
      <trkpt lat="48.16424" lon="-3.13272">
        <ele>226.6</ele>
        <time>2023-04-10T07:31:48Z</time>
      </trkpt>
      <trkpt lat="48.16425" lon="-3.13276">
        <ele>226.8</ele>
        <time>2023-04-10T07:31:49Z</time>
      </trkpt>
      <trkpt lat="48.16426" lon="-3.1328">
        <ele>227</ele>
        <time>2023-04-10T07:31:50Z</time>
      </trkpt>
      <trkpt lat="48.16428" lon="-3.13283">
        <ele>227.6</ele>
        <time>2023-04-10T07:31:51Z</time>
      </trkpt>
      <trkpt lat="48.1643" lon="-3.13286">
        <ele>227.8</ele>
        <time>2023-04-10T07:31:52Z</time>
      </trkpt>
      <trkpt lat="48.16432" lon="-3.13289">
        <ele>228.2</ele>
        <time>2023-04-10T07:31:53Z</time>
      </trkpt>
      <trkpt lat="48.16434" lon="-3.13292">
        <ele>228.4</ele>
        <time>2023-04-10T07:31:54Z</time>
      </trkpt>
      <trkpt lat="48.16435" lon="-3.13293">
        <ele>228.8</ele>
        <time>2023-04-10T07:31:55Z</time>
      </trkpt>
      <trkpt lat="48.16436" lon="-3.13296">
        <ele>229</ele>
        <time>2023-04-10T07:31:56Z</time>
      </trkpt>
      <trkpt lat="48.16438" lon="-3.133">
        <ele>229.4</ele>
        <time>2023-04-10T07:31:57Z</time>
      </trkpt>
      <trkpt lat="48.16439" lon="-3.13303">
        <ele>229.4</ele>
        <time>2023-04-10T07:31:58Z</time>
      </trkpt>
      <trkpt lat="48.16441" lon="-3.13307">
        <ele>229.6</ele>
        <time>2023-04-10T07:31:59Z</time>
      </trkpt>
      <trkpt lat="48.16443" lon="-3.1331">
        <ele>229.8</ele>
        <time>2023-04-10T07:32:00Z</time>
      </trkpt>
      <trkpt lat="48.16445" lon="-3.13313">
        <ele>230</ele>
        <time>2023-04-10T07:32:01Z</time>
      </trkpt>
      <trkpt lat="48.16446" lon="-3.13316">
        <ele>230.2</ele>
        <time>2023-04-10T07:32:02Z</time>
      </trkpt>
      <trkpt lat="48.16448" lon="-3.1332">
        <ele>230.4</ele>
        <time>2023-04-10T07:32:03Z</time>
      </trkpt>
      <trkpt lat="48.1645" lon="-3.13323">
        <ele>230.6</ele>
        <time>2023-04-10T07:32:04Z</time>
      </trkpt>
      <trkpt lat="48.16452" lon="-3.13326">
        <ele>231</ele>
        <time>2023-04-10T07:32:05Z</time>
      </trkpt>
      <trkpt lat="48.16454" lon="-3.13327">
        <ele>231</ele>
        <time>2023-04-10T07:32:06Z</time>
      </trkpt>
      <trkpt lat="48.16456" lon="-3.1333">
        <ele>231.4</ele>
        <time>2023-04-10T07:32:07Z</time>
      </trkpt>
      <trkpt lat="48.16458" lon="-3.13332">
        <ele>231.4</ele>
        <time>2023-04-10T07:32:08Z</time>
      </trkpt>
      <trkpt lat="48.1646" lon="-3.13334">
        <ele>231.6</ele>
        <time>2023-04-10T07:32:09Z</time>
      </trkpt>
      <trkpt lat="48.16461" lon="-3.13336">
        <ele>231.8</ele>
        <time>2023-04-10T07:32:10Z</time>
      </trkpt>
      <trkpt lat="48.16464" lon="-3.1334">
        <ele>232.2</ele>
        <time>2023-04-10T07:32:11Z</time>
      </trkpt>
      <trkpt lat="48.16466" lon="-3.13343">
        <ele>232.2</ele>
        <time>2023-04-10T07:32:12Z</time>
      </trkpt>
      <trkpt lat="48.16468" lon="-3.13346">
        <ele>232.4</ele>
        <time>2023-04-10T07:32:13Z</time>
      </trkpt>
      <trkpt lat="48.1647" lon="-3.13349">
        <ele>232.8</ele>
        <time>2023-04-10T07:32:14Z</time>
      </trkpt>
      <trkpt lat="48.16471" lon="-3.13353">
        <ele>233</ele>
        <time>2023-04-10T07:32:15Z</time>
      </trkpt>
      <trkpt lat="48.16473" lon="-3.13356">
        <ele>233</ele>
        <time>2023-04-10T07:32:16Z</time>
      </trkpt>
      <trkpt lat="48.16475" lon="-3.13359">
        <ele>233.2</ele>
        <time>2023-04-10T07:32:17Z</time>
      </trkpt>
      <trkpt lat="48.16476" lon="-3.13364">
        <ele>233.4</ele>
        <time>2023-04-10T07:32:18Z</time>
      </trkpt>
      <trkpt lat="48.16478" lon="-3.13368">
        <ele>233.6</ele>
        <time>2023-04-10T07:32:19Z</time>
      </trkpt>
      <trkpt lat="48.1648" lon="-3.13372">
        <ele>233.8</ele>
        <time>2023-04-10T07:32:20Z</time>
      </trkpt>
      <trkpt lat="48.16482" lon="-3.13377">
        <ele>233.8</ele>
        <time>2023-04-10T07:32:21Z</time>
      </trkpt>
      <trkpt lat="48.16484" lon="-3.13383">
        <ele>233.8</ele>
        <time>2023-04-10T07:32:22Z</time>
      </trkpt>
      <trkpt lat="48.16485" lon="-3.13387">
        <ele>234</ele>
        <time>2023-04-10T07:32:23Z</time>
      </trkpt>
      <trkpt lat="48.16487" lon="-3.13392">
        <ele>234.2</ele>
        <time>2023-04-10T07:32:24Z</time>
      </trkpt>
      <trkpt lat="48.16489" lon="-3.13397">
        <ele>234.2</ele>
        <time>2023-04-10T07:32:25Z</time>
      </trkpt>
      <trkpt lat="48.1649" lon="-3.13403">
        <ele>234.4</ele>
        <time>2023-04-10T07:32:26Z</time>
      </trkpt>
      <trkpt lat="48.16492" lon="-3.13408">
        <ele>234.4</ele>
        <time>2023-04-10T07:32:27Z</time>
      </trkpt>
      <trkpt lat="48.16493" lon="-3.13413">
        <ele>234.4</ele>
        <time>2023-04-10T07:32:28Z</time>
      </trkpt>
      <trkpt lat="48.16495" lon="-3.13419">
        <ele>234.6</ele>
        <time>2023-04-10T07:32:29Z</time>
      </trkpt>
      <trkpt lat="48.16496" lon="-3.13424">
        <ele>234.6</ele>
        <time>2023-04-10T07:32:30Z</time>
      </trkpt>
      <trkpt lat="48.16498" lon="-3.1343">
        <ele>234.6</ele>
        <time>2023-04-10T07:32:31Z</time>
      </trkpt>
      <trkpt lat="48.16499" lon="-3.13436">
        <ele>234.8</ele>
        <time>2023-04-10T07:32:32Z</time>
      </trkpt>
      <trkpt lat="48.16501" lon="-3.13442">
        <ele>234.8</ele>
        <time>2023-04-10T07:32:33Z</time>
      </trkpt>
      <trkpt lat="48.16502" lon="-3.1345">
        <ele>234.8</ele>
        <time>2023-04-10T07:32:34Z</time>
      </trkpt>
      <trkpt lat="48.16503" lon="-3.13458">
        <ele>234.8</ele>
        <time>2023-04-10T07:32:35Z</time>
      </trkpt>
      <trkpt lat="48.16503" lon="-3.13466">
        <ele>234.8</ele>
        <time>2023-04-10T07:32:36Z</time>
      </trkpt>
      <trkpt lat="48.16503" lon="-3.13474">
        <ele>234.8</ele>
        <time>2023-04-10T07:32:37Z</time>
      </trkpt>
      <trkpt lat="48.16502" lon="-3.13482">
        <ele>234.8</ele>
        <time>2023-04-10T07:32:38Z</time>
      </trkpt>
      <trkpt lat="48.16501" lon="-3.1349">
        <ele>234.8</ele>
        <time>2023-04-10T07:32:39Z</time>
      </trkpt>
      <trkpt lat="48.165" lon="-3.13498">
        <ele>234.8</ele>
        <time>2023-04-10T07:32:40Z</time>
      </trkpt>
      <trkpt lat="48.16499" lon="-3.13505">
        <ele>234.8</ele>
        <time>2023-04-10T07:32:41Z</time>
      </trkpt>
      <trkpt lat="48.16498" lon="-3.13513">
        <ele>234.8</ele>
        <time>2023-04-10T07:32:42Z</time>
      </trkpt>
      <trkpt lat="48.16497" lon="-3.13519">
        <ele>234.8</ele>
        <time>2023-04-10T07:32:43Z</time>
      </trkpt>
      <trkpt lat="48.16493" lon="-3.13566">
        <ele>234.6</ele>
        <time>2023-04-10T07:32:49Z</time>
      </trkpt>
      <trkpt lat="48.16493" lon="-3.13574">
        <ele>234.6</ele>
        <time>2023-04-10T07:32:50Z</time>
      </trkpt>
      <trkpt lat="48.16492" lon="-3.13595">
        <ele>234.4</ele>
        <time>2023-04-10T07:32:52Z</time>
      </trkpt>
      <trkpt lat="48.16491" lon="-3.13621">
        <ele>233.6</ele>
        <time>2023-04-10T07:32:56Z</time>
      </trkpt>
      <trkpt lat="48.1649" lon="-3.13654">
        <ele>233.2</ele>
        <time>2023-04-10T07:33:00Z</time>
      </trkpt>
      <trkpt lat="48.16489" lon="-3.13662">
        <ele>233.2</ele>
        <time>2023-04-10T07:33:01Z</time>
      </trkpt>
      <trkpt lat="48.16489" lon="-3.13671">
        <ele>233.2</ele>
        <time>2023-04-10T07:33:02Z</time>
      </trkpt>
      <trkpt lat="48.16488" lon="-3.13678">
        <ele>233.2</ele>
        <time>2023-04-10T07:33:03Z</time>
      </trkpt>
      <trkpt lat="48.16487" lon="-3.13685">
        <ele>233</ele>
        <time>2023-04-10T07:33:04Z</time>
      </trkpt>
      <trkpt lat="48.16484" lon="-3.13691">
        <ele>233</ele>
        <time>2023-04-10T07:33:05Z</time>
      </trkpt>
      <trkpt lat="48.16481" lon="-3.13696">
        <ele>233</ele>
        <time>2023-04-10T07:33:06Z</time>
      </trkpt>
      <trkpt lat="48.16477" lon="-3.13701">
        <ele>233</ele>
        <time>2023-04-10T07:33:07Z</time>
      </trkpt>
      <trkpt lat="48.16472" lon="-3.13705">
        <ele>233</ele>
        <time>2023-04-10T07:33:08Z</time>
      </trkpt>
      <trkpt lat="48.16468" lon="-3.13708">
        <ele>233</ele>
        <time>2023-04-10T07:33:09Z</time>
      </trkpt>
      <trkpt lat="48.16463" lon="-3.1371">
        <ele>233</ele>
        <time>2023-04-10T07:33:10Z</time>
      </trkpt>
      <trkpt lat="48.16458" lon="-3.13711">
        <ele>232.8</ele>
        <time>2023-04-10T07:33:11Z</time>
      </trkpt>
      <trkpt lat="48.16428" lon="-3.13716">
        <ele>232.6</ele>
        <time>2023-04-10T07:33:16Z</time>
      </trkpt>
      <trkpt lat="48.16404" lon="-3.13719">
        <ele>232.4</ele>
        <time>2023-04-10T07:33:20Z</time>
      </trkpt>
      <trkpt lat="48.16399" lon="-3.13719">
        <ele>232.2</ele>
        <time>2023-04-10T07:33:21Z</time>
      </trkpt>
      <trkpt lat="48.16393" lon="-3.1372">
        <ele>232.2</ele>
        <time>2023-04-10T07:33:22Z</time>
      </trkpt>
      <trkpt lat="48.16382" lon="-3.13724">
        <ele>232.2</ele>
        <time>2023-04-10T07:33:24Z</time>
      </trkpt>
      <trkpt lat="48.16371" lon="-3.13731">
        <ele>231.6</ele>
        <time>2023-04-10T07:33:26Z</time>
      </trkpt>
      <trkpt lat="48.16359" lon="-3.13737">
        <ele>231.6</ele>
        <time>2023-04-10T07:33:28Z</time>
      </trkpt>
      <trkpt lat="48.16353" lon="-3.13741">
        <ele>231.2</ele>
        <time>2023-04-10T07:33:29Z</time>
      </trkpt>
      <trkpt lat="48.16347" lon="-3.13744">
        <ele>231</ele>
        <time>2023-04-10T07:33:30Z</time>
      </trkpt>
      <trkpt lat="48.16342" lon="-3.13747">
        <ele>230.6</ele>
        <time>2023-04-10T07:33:31Z</time>
      </trkpt>
      <trkpt lat="48.16336" lon="-3.13748">
        <ele>230.4</ele>
        <time>2023-04-10T07:33:32Z</time>
      </trkpt>
      <trkpt lat="48.16319" lon="-3.13756">
        <ele>230.2</ele>
        <time>2023-04-10T07:33:35Z</time>
      </trkpt>
      <trkpt lat="48.16313" lon="-3.13758">
        <ele>230.2</ele>
        <time>2023-04-10T07:33:36Z</time>
      </trkpt>
      <trkpt lat="48.16308" lon="-3.13761">
        <ele>230.2</ele>
        <time>2023-04-10T07:33:37Z</time>
      </trkpt>
      <trkpt lat="48.16302" lon="-3.13763">
        <ele>230.2</ele>
        <time>2023-04-10T07:33:38Z</time>
      </trkpt>
      <trkpt lat="48.16296" lon="-3.13765">
        <ele>230.2</ele>
        <time>2023-04-10T07:33:39Z</time>
      </trkpt>
      <trkpt lat="48.16275" lon="-3.13773">
        <ele>230</ele>
        <time>2023-04-10T07:33:43Z</time>
      </trkpt>
      <trkpt lat="48.16253" lon="-3.13773">
        <ele>230</ele>
        <time>2023-04-10T07:33:46Z</time>
      </trkpt>
      <trkpt lat="48.16214" lon="-3.13774">
        <ele>229.8</ele>
        <time>2023-04-10T07:33:53Z</time>
      </trkpt>
      <trkpt lat="48.16202" lon="-3.13773">
        <ele>229.8</ele>
        <time>2023-04-10T07:33:55Z</time>
      </trkpt>
      <trkpt lat="48.1619" lon="-3.13769">
        <ele>229.6</ele>
        <time>2023-04-10T07:33:58Z</time>
      </trkpt>
      <trkpt lat="48.16184" lon="-3.13764">
        <ele>229.6</ele>
        <time>2023-04-10T07:33:59Z</time>
      </trkpt>
      <trkpt lat="48.16179" lon="-3.13758">
        <ele>229.6</ele>
        <time>2023-04-10T07:34:00Z</time>
      </trkpt>
      <trkpt lat="48.16174" lon="-3.13752">
        <ele>229.6</ele>
        <time>2023-04-10T07:34:01Z</time>
      </trkpt>
      <trkpt lat="48.16169" lon="-3.13745">
        <ele>229.6</ele>
        <time>2023-04-10T07:34:02Z</time>
      </trkpt>
      <trkpt lat="48.16164" lon="-3.13739">
        <ele>229.6</ele>
        <time>2023-04-10T07:34:03Z</time>
      </trkpt>
      <trkpt lat="48.16149" lon="-3.13722">
        <ele>229.4</ele>
        <time>2023-04-10T07:34:05Z</time>
      </trkpt>
      <trkpt lat="48.16141" lon="-3.13711">
        <ele>229</ele>
        <time>2023-04-10T07:34:08Z</time>
      </trkpt>
      <trkpt lat="48.1613" lon="-3.13698">
        <ele>228.6</ele>
        <time>2023-04-10T07:34:09Z</time>
      </trkpt>
      <trkpt lat="48.1613" lon="-3.13698">
        <ele>228.6</ele>
        <time>2023-04-10T07:34:10Z</time>
      </trkpt>
      <trkpt lat="48.16126" lon="-3.13691">
        <ele>228.6</ele>
        <time>2023-04-10T07:34:11Z</time>
      </trkpt>
      <trkpt lat="48.16121" lon="-3.13686">
        <ele>228.4</ele>
        <time>2023-04-10T07:34:12Z</time>
      </trkpt>
      <trkpt lat="48.16116" lon="-3.1368">
        <ele>228.2</ele>
        <time>2023-04-10T07:34:13Z</time>
      </trkpt>
      <trkpt lat="48.16106" lon="-3.13672">
        <ele>228</ele>
        <time>2023-04-10T07:34:14Z</time>
      </trkpt>
      <trkpt lat="48.16106" lon="-3.13672">
        <ele>227.8</ele>
        <time>2023-04-10T07:34:15Z</time>
      </trkpt>
      <trkpt lat="48.161" lon="-3.13669">
        <ele>227.8</ele>
        <time>2023-04-10T07:34:16Z</time>
      </trkpt>
      <trkpt lat="48.16094" lon="-3.13668">
        <ele>227.8</ele>
        <time>2023-04-10T07:34:17Z</time>
      </trkpt>
      <trkpt lat="48.16088" lon="-3.13666">
        <ele>227.8</ele>
        <time>2023-04-10T07:34:18Z</time>
      </trkpt>
      <trkpt lat="48.16078" lon="-3.13665">
        <ele>227.6</ele>
        <time>2023-04-10T07:34:19Z</time>
      </trkpt>
      <trkpt lat="48.16073" lon="-3.13664">
        <ele>227.6</ele>
        <time>2023-04-10T07:34:20Z</time>
      </trkpt>
      <trkpt lat="48.16068" lon="-3.13664">
        <ele>227.6</ele>
        <time>2023-04-10T07:34:21Z</time>
      </trkpt>
      <trkpt lat="48.16063" lon="-3.13664">
        <ele>227.6</ele>
        <time>2023-04-10T07:34:22Z</time>
      </trkpt>
      <trkpt lat="48.16059" lon="-3.13664">
        <ele>227.6</ele>
        <time>2023-04-10T07:34:23Z</time>
      </trkpt>
      <trkpt lat="48.16054" lon="-3.13664">
        <ele>227.6</ele>
        <time>2023-04-10T07:34:24Z</time>
      </trkpt>
      <trkpt lat="48.1605" lon="-3.13665">
        <ele>227.6</ele>
        <time>2023-04-10T07:34:25Z</time>
      </trkpt>
      <trkpt lat="48.1605" lon="-3.13665">
        <ele>227.6</ele>
        <time>2023-04-10T07:34:26Z</time>
      </trkpt>
      <trkpt lat="48.16045" lon="-3.13664">
        <ele>227.6</ele>
        <time>2023-04-10T07:34:27Z</time>
      </trkpt>
      <trkpt lat="48.16041" lon="-3.13664">
        <ele>227.6</ele>
        <time>2023-04-10T07:34:28Z</time>
      </trkpt>
      <trkpt lat="48.16032" lon="-3.13663">
        <ele>227.8</ele>
        <time>2023-04-10T07:34:29Z</time>
      </trkpt>
      <trkpt lat="48.16032" lon="-3.13663">
        <ele>227.8</ele>
        <time>2023-04-10T07:34:30Z</time>
      </trkpt>
      <trkpt lat="48.16019" lon="-3.13662">
        <ele>228</ele>
        <time>2023-04-10T07:34:32Z</time>
      </trkpt>
      <trkpt lat="48.16019" lon="-3.13662">
        <ele>228</ele>
        <time>2023-04-10T07:34:33Z</time>
      </trkpt>
      <trkpt lat="48.16015" lon="-3.1366">
        <ele>228</ele>
        <time>2023-04-10T07:34:34Z</time>
      </trkpt>
      <trkpt lat="48.16011" lon="-3.13658">
        <ele>228</ele>
        <time>2023-04-10T07:34:35Z</time>
      </trkpt>
      <trkpt lat="48.16007" lon="-3.13656">
        <ele>228.2</ele>
        <time>2023-04-10T07:34:36Z</time>
      </trkpt>
      <trkpt lat="48.16004" lon="-3.13652">
        <ele>228.2</ele>
        <time>2023-04-10T07:34:37Z</time>
      </trkpt>
      <trkpt lat="48.16" lon="-3.13643">
        <ele>228.2</ele>
        <time>2023-04-10T07:34:38Z</time>
      </trkpt>
      <trkpt lat="48.16" lon="-3.13643">
        <ele>228.4</ele>
        <time>2023-04-10T07:34:39Z</time>
      </trkpt>
      <trkpt lat="48.16001" lon="-3.13634">
        <ele>228.4</ele>
        <time>2023-04-10T07:34:40Z</time>
      </trkpt>
      <trkpt lat="48.16004" lon="-3.1363">
        <ele>228.6</ele>
        <time>2023-04-10T07:34:41Z</time>
      </trkpt>
      <trkpt lat="48.16008" lon="-3.13626">
        <ele>228.6</ele>
        <time>2023-04-10T07:34:42Z</time>
      </trkpt>
      <trkpt lat="48.16014" lon="-3.13618">
        <ele>229.2</ele>
        <time>2023-04-10T07:34:44Z</time>
      </trkpt>
      <trkpt lat="48.16018" lon="-3.13614">
        <ele>229.4</ele>
        <time>2023-04-10T07:34:45Z</time>
      </trkpt>
      <trkpt lat="48.16018" lon="-3.13614">
        <ele>229.8</ele>
        <time>2023-04-10T07:34:46Z</time>
      </trkpt>
      <trkpt lat="48.16024" lon="-3.13605">
        <ele>230</ele>
        <time>2023-04-10T07:34:48Z</time>
      </trkpt>
      <trkpt lat="48.1603" lon="-3.13594">
        <ele>230.2</ele>
        <time>2023-04-10T07:34:49Z</time>
      </trkpt>
      <trkpt lat="48.16052" lon="-3.13553">
        <ele>231</ele>
        <time>2023-04-10T07:34:56Z</time>
      </trkpt>
      <trkpt lat="48.16055" lon="-3.13546">
        <ele>231</ele>
        <time>2023-04-10T07:34:57Z</time>
      </trkpt>
      <trkpt lat="48.16055" lon="-3.13546">
        <ele>231.2</ele>
        <time>2023-04-10T07:34:58Z</time>
      </trkpt>
      <trkpt lat="48.16062" lon="-3.13533">
        <ele>231.2</ele>
        <time>2023-04-10T07:34:59Z</time>
      </trkpt>
      <trkpt lat="48.16066" lon="-3.13526">
        <ele>231.4</ele>
        <time>2023-04-10T07:35:00Z</time>
      </trkpt>
      <trkpt lat="48.16069" lon="-3.1352">
        <ele>231.4</ele>
        <time>2023-04-10T07:35:01Z</time>
      </trkpt>
      <trkpt lat="48.16073" lon="-3.13513">
        <ele>231.4</ele>
        <time>2023-04-10T07:35:02Z</time>
      </trkpt>
      <trkpt lat="48.16076" lon="-3.13506">
        <ele>231.4</ele>
        <time>2023-04-10T07:35:03Z</time>
      </trkpt>
      <trkpt lat="48.16079" lon="-3.13499">
        <ele>231.4</ele>
        <time>2023-04-10T07:35:04Z</time>
      </trkpt>
      <trkpt lat="48.16079" lon="-3.13499">
        <ele>231.4</ele>
        <time>2023-04-10T07:35:05Z</time>
      </trkpt>
      <trkpt lat="48.16086" lon="-3.13486">
        <ele>231.4</ele>
        <time>2023-04-10T07:35:06Z</time>
      </trkpt>
      <trkpt lat="48.16089" lon="-3.1348">
        <ele>231.4</ele>
        <time>2023-04-10T07:35:07Z</time>
      </trkpt>
      <trkpt lat="48.16096" lon="-3.13467">
        <ele>231.4</ele>
        <time>2023-04-10T07:35:09Z</time>
      </trkpt>
      <trkpt lat="48.16108" lon="-3.13439">
        <ele>231.4</ele>
        <time>2023-04-10T07:35:13Z</time>
      </trkpt>
      <trkpt lat="48.16111" lon="-3.13432">
        <ele>231.4</ele>
        <time>2023-04-10T07:35:14Z</time>
      </trkpt>
      <trkpt lat="48.16114" lon="-3.13426">
        <ele>231.4</ele>
        <time>2023-04-10T07:35:15Z</time>
      </trkpt>
      <trkpt lat="48.16117" lon="-3.13419">
        <ele>231.2</ele>
        <time>2023-04-10T07:35:16Z</time>
      </trkpt>
      <trkpt lat="48.16124" lon="-3.13407">
        <ele>231.2</ele>
        <time>2023-04-10T07:35:18Z</time>
      </trkpt>
      <trkpt lat="48.16128" lon="-3.13402">
        <ele>231.2</ele>
        <time>2023-04-10T07:35:19Z</time>
      </trkpt>
      <trkpt lat="48.16131" lon="-3.13396">
        <ele>231.2</ele>
        <time>2023-04-10T07:35:20Z</time>
      </trkpt>
      <trkpt lat="48.16134" lon="-3.13389">
        <ele>231.2</ele>
        <time>2023-04-10T07:35:21Z</time>
      </trkpt>
      <trkpt lat="48.16134" lon="-3.13383">
        <ele>231.2</ele>
        <time>2023-04-10T07:35:22Z</time>
      </trkpt>
      <trkpt lat="48.16133" lon="-3.13378">
        <ele>231.2</ele>
        <time>2023-04-10T07:35:23Z</time>
      </trkpt>
      <trkpt lat="48.16131" lon="-3.13375">
        <ele>231.2</ele>
        <time>2023-04-10T07:35:24Z</time>
      </trkpt>
      <trkpt lat="48.16128" lon="-3.13372">
        <ele>231.2</ele>
        <time>2023-04-10T07:35:25Z</time>
      </trkpt>
      <trkpt lat="48.16128" lon="-3.13372">
        <ele>231.2</ele>
        <time>2023-04-10T07:35:26Z</time>
      </trkpt>
      <trkpt lat="48.16122" lon="-3.13368">
        <ele>231.4</ele>
        <time>2023-04-10T07:35:27Z</time>
      </trkpt>
      <trkpt lat="48.16119" lon="-3.13365">
        <ele>231.4</ele>
        <time>2023-04-10T07:35:28Z</time>
      </trkpt>
      <trkpt lat="48.16106" lon="-3.13352">
        <ele>232</ele>
        <time>2023-04-10T07:35:32Z</time>
      </trkpt>
      <trkpt lat="48.16104" lon="-3.1335">
        <ele>232.2</ele>
        <time>2023-04-10T07:35:33Z</time>
      </trkpt>
      <trkpt lat="48.16089" lon="-3.13331">
        <ele>233.4</ele>
        <time>2023-04-10T07:35:38Z</time>
      </trkpt>
      <trkpt lat="48.16083" lon="-3.13322">
        <ele>234.2</ele>
        <time>2023-04-10T07:35:40Z</time>
      </trkpt>
      <trkpt lat="48.16078" lon="-3.13313">
        <ele>234.4</ele>
        <time>2023-04-10T07:35:42Z</time>
      </trkpt>
      <trkpt lat="48.16073" lon="-3.13301">
        <ele>234.8</ele>
        <time>2023-04-10T07:35:44Z</time>
      </trkpt>
      <trkpt lat="48.1607" lon="-3.13296">
        <ele>235</ele>
        <time>2023-04-10T07:35:45Z</time>
      </trkpt>
      <trkpt lat="48.1607" lon="-3.13296">
        <ele>235.2</ele>
        <time>2023-04-10T07:35:46Z</time>
      </trkpt>
      <trkpt lat="48.16065" lon="-3.13284">
        <ele>235.2</ele>
        <time>2023-04-10T07:35:47Z</time>
      </trkpt>
      <trkpt lat="48.16062" lon="-3.13277">
        <ele>235.2</ele>
        <time>2023-04-10T07:35:48Z</time>
      </trkpt>
      <trkpt lat="48.16059" lon="-3.1327">
        <ele>235.2</ele>
        <time>2023-04-10T07:35:49Z</time>
      </trkpt>
      <trkpt lat="48.16056" lon="-3.13264">
        <ele>235.2</ele>
        <time>2023-04-10T07:35:50Z</time>
      </trkpt>
      <trkpt lat="48.16054" lon="-3.13258">
        <ele>235.2</ele>
        <time>2023-04-10T07:35:51Z</time>
      </trkpt>
      <trkpt lat="48.16052" lon="-3.13251">
        <ele>235.2</ele>
        <time>2023-04-10T07:35:52Z</time>
      </trkpt>
      <trkpt lat="48.16049" lon="-3.13245">
        <ele>235.2</ele>
        <time>2023-04-10T07:35:53Z</time>
      </trkpt>
      <trkpt lat="48.16046" lon="-3.13239">
        <ele>235.2</ele>
        <time>2023-04-10T07:35:54Z</time>
      </trkpt>
      <trkpt lat="48.16044" lon="-3.13233">
        <ele>235.2</ele>
        <time>2023-04-10T07:35:55Z</time>
      </trkpt>
      <trkpt lat="48.16044" lon="-3.13233">
        <ele>235.2</ele>
        <time>2023-04-10T07:35:56Z</time>
      </trkpt>
      <trkpt lat="48.16038" lon="-3.13221">
        <ele>235.2</ele>
        <time>2023-04-10T07:35:57Z</time>
      </trkpt>
      <trkpt lat="48.16036" lon="-3.13214">
        <ele>235.2</ele>
        <time>2023-04-10T07:35:58Z</time>
      </trkpt>
      <trkpt lat="48.16034" lon="-3.13208">
        <ele>235.2</ele>
        <time>2023-04-10T07:35:59Z</time>
      </trkpt>
      <trkpt lat="48.16034" lon="-3.13201">
        <ele>235.2</ele>
        <time>2023-04-10T07:36:00Z</time>
      </trkpt>
      <trkpt lat="48.16034" lon="-3.13194">
        <ele>235.2</ele>
        <time>2023-04-10T07:36:01Z</time>
      </trkpt>
      <trkpt lat="48.16034" lon="-3.13187">
        <ele>235.2</ele>
        <time>2023-04-10T07:36:02Z</time>
      </trkpt>
      <trkpt lat="48.16034" lon="-3.13179">
        <ele>235.2</ele>
        <time>2023-04-10T07:36:03Z</time>
      </trkpt>
      <trkpt lat="48.16034" lon="-3.13172">
        <ele>235.2</ele>
        <time>2023-04-10T07:36:04Z</time>
      </trkpt>
      <trkpt lat="48.16037" lon="-3.1315">
        <ele>235.2</ele>
        <time>2023-04-10T07:36:07Z</time>
      </trkpt>
      <trkpt lat="48.16037" lon="-3.13143">
        <ele>235.2</ele>
        <time>2023-04-10T07:36:08Z</time>
      </trkpt>
      <trkpt lat="48.16037" lon="-3.13136">
        <ele>235.2</ele>
        <time>2023-04-10T07:36:09Z</time>
      </trkpt>
      <trkpt lat="48.16037" lon="-3.13107">
        <ele>235</ele>
        <time>2023-04-10T07:36:13Z</time>
      </trkpt>
      <trkpt lat="48.16037" lon="-3.131">
        <ele>234.8</ele>
        <time>2023-04-10T07:36:14Z</time>
      </trkpt>
      <trkpt lat="48.16034" lon="-3.13066">
        <ele>234.2</ele>
        <time>2023-04-10T07:36:19Z</time>
      </trkpt>
      <trkpt lat="48.16034" lon="-3.1306">
        <ele>234</ele>
        <time>2023-04-10T07:36:20Z</time>
      </trkpt>
      <trkpt lat="48.16033" lon="-3.13054">
        <ele>234</ele>
        <time>2023-04-10T07:36:21Z</time>
      </trkpt>
      <trkpt lat="48.16032" lon="-3.13049">
        <ele>234</ele>
        <time>2023-04-10T07:36:22Z</time>
      </trkpt>
      <trkpt lat="48.16032" lon="-3.13044">
        <ele>234</ele>
        <time>2023-04-10T07:36:23Z</time>
      </trkpt>
      <trkpt lat="48.16031" lon="-3.1304">
        <ele>234</ele>
        <time>2023-04-10T07:36:24Z</time>
      </trkpt>
      <trkpt lat="48.16029" lon="-3.13036">
        <ele>234</ele>
        <time>2023-04-10T07:36:25Z</time>
      </trkpt>
      <trkpt lat="48.16027" lon="-3.13032">
        <ele>234</ele>
        <time>2023-04-10T07:36:26Z</time>
      </trkpt>
      <trkpt lat="48.16024" lon="-3.1303">
        <ele>234</ele>
        <time>2023-04-10T07:36:27Z</time>
      </trkpt>
      <trkpt lat="48.16021" lon="-3.13029">
        <ele>234</ele>
        <time>2023-04-10T07:36:28Z</time>
      </trkpt>
      <trkpt lat="48.16015" lon="-3.1303">
        <ele>234.2</ele>
        <time>2023-04-10T07:36:30Z</time>
      </trkpt>
      <trkpt lat="48.16011" lon="-3.13031">
        <ele>234.2</ele>
        <time>2023-04-10T07:36:31Z</time>
      </trkpt>
      <trkpt lat="48.16008" lon="-3.13031">
        <ele>234.4</ele>
        <time>2023-04-10T07:36:32Z</time>
      </trkpt>
      <trkpt lat="48.16006" lon="-3.1303">
        <ele>234.6</ele>
        <time>2023-04-10T07:36:33Z</time>
      </trkpt>
      <trkpt lat="48.16003" lon="-3.13029">
        <ele>235</ele>
        <time>2023-04-10T07:36:34Z</time>
      </trkpt>
      <trkpt lat="48.16001" lon="-3.13027">
        <ele>235.2</ele>
        <time>2023-04-10T07:36:35Z</time>
      </trkpt>
      <trkpt lat="48.15999" lon="-3.13024">
        <ele>235.4</ele>
        <time>2023-04-10T07:36:36Z</time>
      </trkpt>
      <trkpt lat="48.15997" lon="-3.13022">
        <ele>235.4</ele>
        <time>2023-04-10T07:36:37Z</time>
      </trkpt>
      <trkpt lat="48.15996" lon="-3.13019">
        <ele>235.6</ele>
        <time>2023-04-10T07:36:38Z</time>
      </trkpt>
      <trkpt lat="48.15992" lon="-3.13014">
        <ele>235.8</ele>
        <time>2023-04-10T07:36:40Z</time>
      </trkpt>
      <trkpt lat="48.15981" lon="-3.13002">
        <ele>236.2</ele>
        <time>2023-04-10T07:36:44Z</time>
      </trkpt>
      <trkpt lat="48.15978" lon="-3.13">
        <ele>236.2</ele>
        <time>2023-04-10T07:36:45Z</time>
      </trkpt>
      <trkpt lat="48.15977" lon="-3.12998">
        <ele>236.4</ele>
        <time>2023-04-10T07:36:46Z</time>
      </trkpt>
      <trkpt lat="48.15974" lon="-3.12996">
        <ele>236.4</ele>
        <time>2023-04-10T07:36:47Z</time>
      </trkpt>
      <trkpt lat="48.15968" lon="-3.12992">
        <ele>236.6</ele>
        <time>2023-04-10T07:36:49Z</time>
      </trkpt>
      <trkpt lat="48.15966" lon="-3.1299">
        <ele>236.6</ele>
        <time>2023-04-10T07:36:50Z</time>
      </trkpt>
      <trkpt lat="48.15944" lon="-3.1298">
        <ele>237.4</ele>
        <time>2023-04-10T07:36:57Z</time>
      </trkpt>
      <trkpt lat="48.15942" lon="-3.12979">
        <ele>237.6</ele>
        <time>2023-04-10T07:36:58Z</time>
      </trkpt>
      <trkpt lat="48.15939" lon="-3.12977">
        <ele>237.8</ele>
        <time>2023-04-10T07:36:59Z</time>
      </trkpt>
      <trkpt lat="48.15937" lon="-3.12975">
        <ele>237.8</ele>
        <time>2023-04-10T07:37:00Z</time>
      </trkpt>
      <trkpt lat="48.15933" lon="-3.12972">
        <ele>238</ele>
        <time>2023-04-10T07:37:01Z</time>
      </trkpt>
      <trkpt lat="48.15931" lon="-3.12971">
        <ele>238</ele>
        <time>2023-04-10T07:37:02Z</time>
      </trkpt>
      <trkpt lat="48.15929" lon="-3.12969">
        <ele>238.2</ele>
        <time>2023-04-10T07:37:03Z</time>
      </trkpt>
      <trkpt lat="48.15927" lon="-3.12968">
        <ele>238.2</ele>
        <time>2023-04-10T07:37:04Z</time>
      </trkpt>
      <trkpt lat="48.15926" lon="-3.12967">
        <ele>238.4</ele>
        <time>2023-04-10T07:37:05Z</time>
      </trkpt>
      <trkpt lat="48.15924" lon="-3.12965">
        <ele>238.6</ele>
        <time>2023-04-10T07:37:06Z</time>
      </trkpt>
      <trkpt lat="48.15921" lon="-3.12964">
        <ele>238.8</ele>
        <time>2023-04-10T07:37:07Z</time>
      </trkpt>
      <trkpt lat="48.15919" lon="-3.12963">
        <ele>239</ele>
        <time>2023-04-10T07:37:08Z</time>
      </trkpt>
      <trkpt lat="48.15916" lon="-3.12962">
        <ele>239.2</ele>
        <time>2023-04-10T07:37:09Z</time>
      </trkpt>
      <trkpt lat="48.15913" lon="-3.12961">
        <ele>239.2</ele>
        <time>2023-04-10T07:37:10Z</time>
      </trkpt>
      <trkpt lat="48.15911" lon="-3.12959">
        <ele>239.4</ele>
        <time>2023-04-10T07:37:11Z</time>
      </trkpt>
      <trkpt lat="48.15909" lon="-3.12957">
        <ele>239.4</ele>
        <time>2023-04-10T07:37:12Z</time>
      </trkpt>
      <trkpt lat="48.15907" lon="-3.12957">
        <ele>239.6</ele>
        <time>2023-04-10T07:37:13Z</time>
      </trkpt>
      <trkpt lat="48.15906" lon="-3.12955">
        <ele>239.6</ele>
        <time>2023-04-10T07:37:14Z</time>
      </trkpt>
      <trkpt lat="48.15906" lon="-3.12955">
        <ele>239.8</ele>
        <time>2023-04-10T07:37:15Z</time>
      </trkpt>
      <trkpt lat="48.15902" lon="-3.12951">
        <ele>240</ele>
        <time>2023-04-10T07:37:16Z</time>
      </trkpt>
      <trkpt lat="48.159" lon="-3.1295">
        <ele>240.2</ele>
        <time>2023-04-10T07:37:17Z</time>
      </trkpt>
      <trkpt lat="48.15898" lon="-3.12948">
        <ele>240.2</ele>
        <time>2023-04-10T07:37:18Z</time>
      </trkpt>
      <trkpt lat="48.15896" lon="-3.12946">
        <ele>240.4</ele>
        <time>2023-04-10T07:37:19Z</time>
      </trkpt>
      <trkpt lat="48.15895" lon="-3.12945">
        <ele>240.6</ele>
        <time>2023-04-10T07:37:20Z</time>
      </trkpt>
      <trkpt lat="48.15895" lon="-3.12945">
        <ele>240.8</ele>
        <time>2023-04-10T07:37:21Z</time>
      </trkpt>
      <trkpt lat="48.15895" lon="-3.12945">
        <ele>241</ele>
        <time>2023-04-10T07:37:22Z</time>
      </trkpt>
      <trkpt lat="48.15894" lon="-3.12943">
        <ele>241.2</ele>
        <time>2023-04-10T07:37:23Z</time>
      </trkpt>
      <trkpt lat="48.15892" lon="-3.12941">
        <ele>241.6</ele>
        <time>2023-04-10T07:37:24Z</time>
      </trkpt>
      <trkpt lat="48.15891" lon="-3.12938">
        <ele>241.8</ele>
        <time>2023-04-10T07:37:25Z</time>
      </trkpt>
      <trkpt lat="48.1589" lon="-3.12937">
        <ele>242</ele>
        <time>2023-04-10T07:37:26Z</time>
      </trkpt>
      <trkpt lat="48.15888" lon="-3.12935">
        <ele>242.2</ele>
        <time>2023-04-10T07:37:27Z</time>
      </trkpt>
      <trkpt lat="48.15886" lon="-3.12933">
        <ele>242.4</ele>
        <time>2023-04-10T07:37:28Z</time>
      </trkpt>
      <trkpt lat="48.15885" lon="-3.12931">
        <ele>242.6</ele>
        <time>2023-04-10T07:37:29Z</time>
      </trkpt>
      <trkpt lat="48.15882" lon="-3.12929">
        <ele>242.8</ele>
        <time>2023-04-10T07:37:30Z</time>
      </trkpt>
      <trkpt lat="48.1588" lon="-3.12927">
        <ele>243</ele>
        <time>2023-04-10T07:37:31Z</time>
      </trkpt>
      <trkpt lat="48.15878" lon="-3.12925">
        <ele>243</ele>
        <time>2023-04-10T07:37:32Z</time>
      </trkpt>
      <trkpt lat="48.15876" lon="-3.12923">
        <ele>243.2</ele>
        <time>2023-04-10T07:37:33Z</time>
      </trkpt>
      <trkpt lat="48.15872" lon="-3.12922">
        <ele>243.2</ele>
        <time>2023-04-10T07:37:34Z</time>
      </trkpt>
      <trkpt lat="48.1587" lon="-3.1292">
        <ele>243.4</ele>
        <time>2023-04-10T07:37:35Z</time>
      </trkpt>
      <trkpt lat="48.15867" lon="-3.1292">
        <ele>243.6</ele>
        <time>2023-04-10T07:37:36Z</time>
      </trkpt>
      <trkpt lat="48.15864" lon="-3.12918">
        <ele>243.6</ele>
        <time>2023-04-10T07:37:37Z</time>
      </trkpt>
      <trkpt lat="48.15861" lon="-3.12917">
        <ele>243.8</ele>
        <time>2023-04-10T07:37:38Z</time>
      </trkpt>
      <trkpt lat="48.15859" lon="-3.12917">
        <ele>244</ele>
        <time>2023-04-10T07:37:39Z</time>
      </trkpt>
      <trkpt lat="48.15857" lon="-3.12916">
        <ele>244.2</ele>
        <time>2023-04-10T07:37:40Z</time>
      </trkpt>
      <trkpt lat="48.15854" lon="-3.12914">
        <ele>244.4</ele>
        <time>2023-04-10T07:37:41Z</time>
      </trkpt>
      <trkpt lat="48.15851" lon="-3.12911">
        <ele>244.6</ele>
        <time>2023-04-10T07:37:42Z</time>
      </trkpt>
      <trkpt lat="48.15849" lon="-3.12908">
        <ele>244.8</ele>
        <time>2023-04-10T07:37:43Z</time>
      </trkpt>
      <trkpt lat="48.15846" lon="-3.12906">
        <ele>245</ele>
        <time>2023-04-10T07:37:44Z</time>
      </trkpt>
      <trkpt lat="48.15844" lon="-3.12904">
        <ele>245.2</ele>
        <time>2023-04-10T07:37:45Z</time>
      </trkpt>
      <trkpt lat="48.15841" lon="-3.12901">
        <ele>245.4</ele>
        <time>2023-04-10T07:37:46Z</time>
      </trkpt>
      <trkpt lat="48.15839" lon="-3.12898">
        <ele>245.6</ele>
        <time>2023-04-10T07:37:47Z</time>
      </trkpt>
      <trkpt lat="48.15837" lon="-3.12895">
        <ele>245.6</ele>
        <time>2023-04-10T07:37:48Z</time>
      </trkpt>
      <trkpt lat="48.15833" lon="-3.12892">
        <ele>245.8</ele>
        <time>2023-04-10T07:37:49Z</time>
      </trkpt>
      <trkpt lat="48.1583" lon="-3.1289">
        <ele>246</ele>
        <time>2023-04-10T07:37:50Z</time>
      </trkpt>
      <trkpt lat="48.15828" lon="-3.12888">
        <ele>246.2</ele>
        <time>2023-04-10T07:37:51Z</time>
      </trkpt>
      <trkpt lat="48.15825" lon="-3.12888">
        <ele>246.6</ele>
        <time>2023-04-10T07:37:52Z</time>
      </trkpt>
      <trkpt lat="48.15824" lon="-3.12886">
        <ele>247</ele>
        <time>2023-04-10T07:37:53Z</time>
      </trkpt>
      <trkpt lat="48.15824" lon="-3.12886">
        <ele>247</ele>
        <time>2023-04-10T07:37:54Z</time>
      </trkpt>
      <trkpt lat="48.15819" lon="-3.12883">
        <ele>247.2</ele>
        <time>2023-04-10T07:37:55Z</time>
      </trkpt>
      <trkpt lat="48.15817" lon="-3.12881">
        <ele>247.4</ele>
        <time>2023-04-10T07:37:56Z</time>
      </trkpt>
      <trkpt lat="48.15817" lon="-3.12881">
        <ele>247.6</ele>
        <time>2023-04-10T07:37:57Z</time>
      </trkpt>
      <trkpt lat="48.15811" lon="-3.12876">
        <ele>247.8</ele>
        <time>2023-04-10T07:37:58Z</time>
      </trkpt>
      <trkpt lat="48.15808" lon="-3.12875">
        <ele>248</ele>
        <time>2023-04-10T07:37:59Z</time>
      </trkpt>
      <trkpt lat="48.15805" lon="-3.12873">
        <ele>248.2</ele>
        <time>2023-04-10T07:38:00Z</time>
      </trkpt>
      <trkpt lat="48.15803" lon="-3.12871">
        <ele>248.4</ele>
        <time>2023-04-10T07:38:01Z</time>
      </trkpt>
      <trkpt lat="48.158" lon="-3.12869">
        <ele>248.8</ele>
        <time>2023-04-10T07:38:02Z</time>
      </trkpt>
      <trkpt lat="48.15798" lon="-3.12867">
        <ele>249</ele>
        <time>2023-04-10T07:38:03Z</time>
      </trkpt>
      <trkpt lat="48.15795" lon="-3.12865">
        <ele>249.2</ele>
        <time>2023-04-10T07:38:04Z</time>
      </trkpt>
      <trkpt lat="48.15792" lon="-3.12862">
        <ele>249.4</ele>
        <time>2023-04-10T07:38:05Z</time>
      </trkpt>
      <trkpt lat="48.1579" lon="-3.1286">
        <ele>249.8</ele>
        <time>2023-04-10T07:38:06Z</time>
      </trkpt>
      <trkpt lat="48.15787" lon="-3.12858">
        <ele>250</ele>
        <time>2023-04-10T07:38:07Z</time>
      </trkpt>
      <trkpt lat="48.15784" lon="-3.12855">
        <ele>250.2</ele>
        <time>2023-04-10T07:38:08Z</time>
      </trkpt>
      <trkpt lat="48.15781" lon="-3.12852">
        <ele>250.2</ele>
        <time>2023-04-10T07:38:09Z</time>
      </trkpt>
      <trkpt lat="48.15778" lon="-3.12849">
        <ele>250.4</ele>
        <time>2023-04-10T07:38:10Z</time>
      </trkpt>
      <trkpt lat="48.15774" lon="-3.12847">
        <ele>250.4</ele>
        <time>2023-04-10T07:38:11Z</time>
      </trkpt>
      <trkpt lat="48.1577" lon="-3.12845">
        <ele>250.6</ele>
        <time>2023-04-10T07:38:12Z</time>
      </trkpt>
      <trkpt lat="48.15765" lon="-3.12844">
        <ele>250.8</ele>
        <time>2023-04-10T07:38:13Z</time>
      </trkpt>
      <trkpt lat="48.15761" lon="-3.12846">
        <ele>251</ele>
        <time>2023-04-10T07:38:14Z</time>
      </trkpt>
      <trkpt lat="48.15757" lon="-3.12849">
        <ele>251</ele>
        <time>2023-04-10T07:38:15Z</time>
      </trkpt>
      <trkpt lat="48.15753" lon="-3.12852">
        <ele>251</ele>
        <time>2023-04-10T07:38:16Z</time>
      </trkpt>
      <trkpt lat="48.15748" lon="-3.12854">
        <ele>251</ele>
        <time>2023-04-10T07:38:17Z</time>
      </trkpt>
      <trkpt lat="48.15745" lon="-3.12857">
        <ele>251</ele>
        <time>2023-04-10T07:38:18Z</time>
      </trkpt>
      <trkpt lat="48.15741" lon="-3.12859">
        <ele>251</ele>
        <time>2023-04-10T07:38:19Z</time>
      </trkpt>
      <trkpt lat="48.15738" lon="-3.12862">
        <ele>251</ele>
        <time>2023-04-10T07:38:20Z</time>
      </trkpt>
      <trkpt lat="48.15735" lon="-3.12864">
        <ele>251</ele>
        <time>2023-04-10T07:38:21Z</time>
      </trkpt>
      <trkpt lat="48.15731" lon="-3.12866">
        <ele>251</ele>
        <time>2023-04-10T07:38:22Z</time>
      </trkpt>
      <trkpt lat="48.15728" lon="-3.12868">
        <ele>251</ele>
        <time>2023-04-10T07:38:23Z</time>
      </trkpt>
      <trkpt lat="48.15725" lon="-3.12871">
        <ele>251.2</ele>
        <time>2023-04-10T07:38:24Z</time>
      </trkpt>
      <trkpt lat="48.15722" lon="-3.12874">
        <ele>251.2</ele>
        <time>2023-04-10T07:38:25Z</time>
      </trkpt>
      <trkpt lat="48.15719" lon="-3.12877">
        <ele>251.2</ele>
        <time>2023-04-10T07:38:26Z</time>
      </trkpt>
      <trkpt lat="48.15717" lon="-3.1288">
        <ele>251.2</ele>
        <time>2023-04-10T07:38:27Z</time>
      </trkpt>
      <trkpt lat="48.15714" lon="-3.12883">
        <ele>251.2</ele>
        <time>2023-04-10T07:38:28Z</time>
      </trkpt>
      <trkpt lat="48.15712" lon="-3.12887">
        <ele>251.2</ele>
        <time>2023-04-10T07:38:29Z</time>
      </trkpt>
      <trkpt lat="48.15709" lon="-3.12892">
        <ele>251.2</ele>
        <time>2023-04-10T07:38:30Z</time>
      </trkpt>
      <trkpt lat="48.15706" lon="-3.12898">
        <ele>251.2</ele>
        <time>2023-04-10T07:38:32Z</time>
      </trkpt>
      <trkpt lat="48.15705" lon="-3.12901">
        <ele>251.2</ele>
        <time>2023-04-10T07:38:33Z</time>
      </trkpt>
      <trkpt lat="48.15704" lon="-3.12904">
        <ele>251.4</ele>
        <time>2023-04-10T07:38:34Z</time>
      </trkpt>
      <trkpt lat="48.15701" lon="-3.12907">
        <ele>251.6</ele>
        <time>2023-04-10T07:38:35Z</time>
      </trkpt>
      <trkpt lat="48.15699" lon="-3.12911">
        <ele>251.8</ele>
        <time>2023-04-10T07:38:36Z</time>
      </trkpt>
      <trkpt lat="48.15696" lon="-3.12915">
        <ele>251.8</ele>
        <time>2023-04-10T07:38:37Z</time>
      </trkpt>
      <trkpt lat="48.15695" lon="-3.12918">
        <ele>251.8</ele>
        <time>2023-04-10T07:38:38Z</time>
      </trkpt>
      <trkpt lat="48.15693" lon="-3.1292">
        <ele>252</ele>
        <time>2023-04-10T07:38:39Z</time>
      </trkpt>
      <trkpt lat="48.15691" lon="-3.12922">
        <ele>252</ele>
        <time>2023-04-10T07:38:40Z</time>
      </trkpt>
      <trkpt lat="48.1569" lon="-3.12924">
        <ele>252</ele>
        <time>2023-04-10T07:38:41Z</time>
      </trkpt>
      <trkpt lat="48.15687" lon="-3.12926">
        <ele>252.2</ele>
        <time>2023-04-10T07:38:42Z</time>
      </trkpt>
      <trkpt lat="48.15685" lon="-3.12929">
        <ele>252.2</ele>
        <time>2023-04-10T07:38:43Z</time>
      </trkpt>
      <trkpt lat="48.15682" lon="-3.12933">
        <ele>252.2</ele>
        <time>2023-04-10T07:38:44Z</time>
      </trkpt>
      <trkpt lat="48.15679" lon="-3.12939">
        <ele>252.4</ele>
        <time>2023-04-10T07:38:46Z</time>
      </trkpt>
      <trkpt lat="48.15678" lon="-3.12942">
        <ele>252.6</ele>
        <time>2023-04-10T07:38:47Z</time>
      </trkpt>
      <trkpt lat="48.15678" lon="-3.12942">
        <ele>252.6</ele>
        <time>2023-04-10T07:38:48Z</time>
      </trkpt>
      <trkpt lat="48.15674" lon="-3.1295">
        <ele>252.6</ele>
        <time>2023-04-10T07:38:49Z</time>
      </trkpt>
      <trkpt lat="48.15672" lon="-3.12952">
        <ele>252.6</ele>
        <time>2023-04-10T07:38:50Z</time>
      </trkpt>
      <trkpt lat="48.15669" lon="-3.12954">
        <ele>252.8</ele>
        <time>2023-04-10T07:38:51Z</time>
      </trkpt>
      <trkpt lat="48.15666" lon="-3.12956">
        <ele>252.8</ele>
        <time>2023-04-10T07:38:52Z</time>
      </trkpt>
      <trkpt lat="48.15664" lon="-3.12959">
        <ele>252.8</ele>
        <time>2023-04-10T07:38:53Z</time>
      </trkpt>
      <trkpt lat="48.15661" lon="-3.12961">
        <ele>252.8</ele>
        <time>2023-04-10T07:38:54Z</time>
      </trkpt>
      <trkpt lat="48.15659" lon="-3.12962">
        <ele>252.8</ele>
        <time>2023-04-10T07:38:55Z</time>
      </trkpt>
      <trkpt lat="48.15659" lon="-3.12962">
        <ele>252.8</ele>
        <time>2023-04-10T07:38:56Z</time>
      </trkpt>
      <trkpt lat="48.15652" lon="-3.12964">
        <ele>253</ele>
        <time>2023-04-10T07:38:57Z</time>
      </trkpt>
      <trkpt lat="48.15645" lon="-3.12968">
        <ele>253.2</ele>
        <time>2023-04-10T07:39:00Z</time>
      </trkpt>
      <trkpt lat="48.15634" lon="-3.12968">
        <ele>253.6</ele>
        <time>2023-04-10T07:39:05Z</time>
      </trkpt>
      <trkpt lat="48.15631" lon="-3.12968">
        <ele>253.8</ele>
        <time>2023-04-10T07:39:06Z</time>
      </trkpt>
      <trkpt lat="48.15629" lon="-3.12967">
        <ele>253.8</ele>
        <time>2023-04-10T07:39:07Z</time>
      </trkpt>
      <trkpt lat="48.15629" lon="-3.12967">
        <ele>253.8</ele>
        <time>2023-04-10T07:39:08Z</time>
      </trkpt>
      <trkpt lat="48.15624" lon="-3.12968">
        <ele>253.8</ele>
        <time>2023-04-10T07:39:09Z</time>
      </trkpt>
      <trkpt lat="48.15618" lon="-3.12965">
        <ele>253.8</ele>
        <time>2023-04-10T07:39:11Z</time>
      </trkpt>
      <trkpt lat="48.15615" lon="-3.12964">
        <ele>253.8</ele>
        <time>2023-04-10T07:39:12Z</time>
      </trkpt>
      <trkpt lat="48.15612" lon="-3.12964">
        <ele>253.8</ele>
        <time>2023-04-10T07:39:13Z</time>
      </trkpt>
      <trkpt lat="48.15605" lon="-3.12966">
        <ele>254</ele>
        <time>2023-04-10T07:39:15Z</time>
      </trkpt>
      <trkpt lat="48.15602" lon="-3.12967">
        <ele>254</ele>
        <time>2023-04-10T07:39:16Z</time>
      </trkpt>
      <trkpt lat="48.15599" lon="-3.12965">
        <ele>254</ele>
        <time>2023-04-10T07:39:17Z</time>
      </trkpt>
      <trkpt lat="48.15596" lon="-3.12962">
        <ele>254</ele>
        <time>2023-04-10T07:39:18Z</time>
      </trkpt>
      <trkpt lat="48.15593" lon="-3.12961">
        <ele>254</ele>
        <time>2023-04-10T07:39:19Z</time>
      </trkpt>
      <trkpt lat="48.1559" lon="-3.1296">
        <ele>254.2</ele>
        <time>2023-04-10T07:39:20Z</time>
      </trkpt>
      <trkpt lat="48.15581" lon="-3.12956">
        <ele>254.2</ele>
        <time>2023-04-10T07:39:24Z</time>
      </trkpt>
      <trkpt lat="48.15578" lon="-3.12955">
        <ele>254.2</ele>
        <time>2023-04-10T07:39:25Z</time>
      </trkpt>
      <trkpt lat="48.15575" lon="-3.12955">
        <ele>254.4</ele>
        <time>2023-04-10T07:39:26Z</time>
      </trkpt>
      <trkpt lat="48.15573" lon="-3.12954">
        <ele>254.4</ele>
        <time>2023-04-10T07:39:27Z</time>
      </trkpt>
      <trkpt lat="48.15571" lon="-3.12953">
        <ele>254.4</ele>
        <time>2023-04-10T07:39:28Z</time>
      </trkpt>
      <trkpt lat="48.15569" lon="-3.12952">
        <ele>254.4</ele>
        <time>2023-04-10T07:39:29Z</time>
      </trkpt>
      <trkpt lat="48.15567" lon="-3.12951">
        <ele>254.4</ele>
        <time>2023-04-10T07:39:30Z</time>
      </trkpt>
      <trkpt lat="48.15558" lon="-3.12949">
        <ele>254.8</ele>
        <time>2023-04-10T07:39:34Z</time>
      </trkpt>
      <trkpt lat="48.15555" lon="-3.12948">
        <ele>255</ele>
        <time>2023-04-10T07:39:35Z</time>
      </trkpt>
      <trkpt lat="48.15552" lon="-3.12946">
        <ele>255</ele>
        <time>2023-04-10T07:39:36Z</time>
      </trkpt>
      <trkpt lat="48.1555" lon="-3.12945">
        <ele>255</ele>
        <time>2023-04-10T07:39:37Z</time>
      </trkpt>
      <trkpt lat="48.15548" lon="-3.12945">
        <ele>255.2</ele>
        <time>2023-04-10T07:39:38Z</time>
      </trkpt>
      <trkpt lat="48.15546" lon="-3.12945">
        <ele>255.2</ele>
        <time>2023-04-10T07:39:39Z</time>
      </trkpt>
      <trkpt lat="48.15543" lon="-3.12945">
        <ele>255.2</ele>
        <time>2023-04-10T07:39:41Z</time>
      </trkpt>
      <trkpt lat="48.15525" lon="-3.12948">
        <ele>255.8</ele>
        <time>2023-04-10T07:39:46Z</time>
      </trkpt>
      <trkpt lat="48.15524" lon="-3.12952">
        <ele>256</ele>
        <time>2023-04-10T07:39:47Z</time>
      </trkpt>
      <trkpt lat="48.15523" lon="-3.12956">
        <ele>256.2</ele>
        <time>2023-04-10T07:39:48Z</time>
      </trkpt>
      <trkpt lat="48.15524" lon="-3.12967">
        <ele>256.6</ele>
        <time>2023-04-10T07:39:50Z</time>
      </trkpt>
      <trkpt lat="48.15525" lon="-3.12972">
        <ele>256.6</ele>
        <time>2023-04-10T07:39:51Z</time>
      </trkpt>
      <trkpt lat="48.15526" lon="-3.12977">
        <ele>256.8</ele>
        <time>2023-04-10T07:39:52Z</time>
      </trkpt>
      <trkpt lat="48.15526" lon="-3.12983">
        <ele>256.8</ele>
        <time>2023-04-10T07:39:53Z</time>
      </trkpt>
      <trkpt lat="48.15526" lon="-3.1299">
        <ele>257</ele>
        <time>2023-04-10T07:39:54Z</time>
      </trkpt>
      <trkpt lat="48.15525" lon="-3.12996">
        <ele>257</ele>
        <time>2023-04-10T07:39:55Z</time>
      </trkpt>
      <trkpt lat="48.15525" lon="-3.13003">
        <ele>257.2</ele>
        <time>2023-04-10T07:39:56Z</time>
      </trkpt>
      <trkpt lat="48.15527" lon="-3.13018">
        <ele>257.2</ele>
        <time>2023-04-10T07:39:58Z</time>
      </trkpt>
      <trkpt lat="48.15526" lon="-3.13026">
        <ele>257.2</ele>
        <time>2023-04-10T07:39:59Z</time>
      </trkpt>
      <trkpt lat="48.15526" lon="-3.13044">
        <ele>257.2</ele>
        <time>2023-04-10T07:40:01Z</time>
      </trkpt>
      <trkpt lat="48.15526" lon="-3.13061">
        <ele>257.2</ele>
        <time>2023-04-10T07:40:03Z</time>
      </trkpt>
      <trkpt lat="48.15526" lon="-3.13125">
        <ele>255.8</ele>
        <time>2023-04-10T07:40:10Z</time>
      </trkpt>
      <trkpt lat="48.15525" lon="-3.13131">
        <ele>255.6</ele>
        <time>2023-04-10T07:40:11Z</time>
      </trkpt>
      <trkpt lat="48.15524" lon="-3.13141">
        <ele>255.4</ele>
        <time>2023-04-10T07:40:12Z</time>
      </trkpt>
      <trkpt lat="48.15524" lon="-3.13149">
        <ele>255.2</ele>
        <time>2023-04-10T07:40:13Z</time>
      </trkpt>
      <trkpt lat="48.15523" lon="-3.13157">
        <ele>255</ele>
        <time>2023-04-10T07:40:14Z</time>
      </trkpt>
      <trkpt lat="48.15521" lon="-3.1317">
        <ele>254.4</ele>
        <time>2023-04-10T07:40:16Z</time>
      </trkpt>
      <trkpt lat="48.1552" lon="-3.13178">
        <ele>254</ele>
        <time>2023-04-10T07:40:17Z</time>
      </trkpt>
      <trkpt lat="48.15519" lon="-3.13185">
        <ele>253.8</ele>
        <time>2023-04-10T07:40:18Z</time>
      </trkpt>
      <trkpt lat="48.15518" lon="-3.13198">
        <ele>253.6</ele>
        <time>2023-04-10T07:40:20Z</time>
      </trkpt>
      <trkpt lat="48.15517" lon="-3.13207">
        <ele>253.2</ele>
        <time>2023-04-10T07:40:21Z</time>
      </trkpt>
      <trkpt lat="48.15517" lon="-3.13215">
        <ele>253</ele>
        <time>2023-04-10T07:40:22Z</time>
      </trkpt>
      <trkpt lat="48.15515" lon="-3.13222">
        <ele>252.8</ele>
        <time>2023-04-10T07:40:23Z</time>
      </trkpt>
      <trkpt lat="48.15513" lon="-3.13228">
        <ele>252.6</ele>
        <time>2023-04-10T07:40:24Z</time>
      </trkpt>
      <trkpt lat="48.15511" lon="-3.13233">
        <ele>252.6</ele>
        <time>2023-04-10T07:40:25Z</time>
      </trkpt>
      <trkpt lat="48.15508" lon="-3.13236">
        <ele>252.4</ele>
        <time>2023-04-10T07:40:26Z</time>
      </trkpt>
      <trkpt lat="48.15505" lon="-3.13236">
        <ele>252.4</ele>
        <time>2023-04-10T07:40:27Z</time>
      </trkpt>
      <trkpt lat="48.15504" lon="-3.13235">
        <ele>252.4</ele>
        <time>2023-04-10T07:40:28Z</time>
      </trkpt>
      <trkpt lat="48.15502" lon="-3.13234">
        <ele>252.4</ele>
        <time>2023-04-10T07:40:29Z</time>
      </trkpt>
      <trkpt lat="48.15499" lon="-3.13233">
        <ele>252.4</ele>
        <time>2023-04-10T07:40:30Z</time>
      </trkpt>
      <trkpt lat="48.15495" lon="-3.13232">
        <ele>252.4</ele>
        <time>2023-04-10T07:40:31Z</time>
      </trkpt>
      <trkpt lat="48.15485" lon="-3.1323">
        <ele>252.2</ele>
        <time>2023-04-10T07:40:33Z</time>
      </trkpt>
      <trkpt lat="48.15481" lon="-3.13229">
        <ele>252.2</ele>
        <time>2023-04-10T07:40:34Z</time>
      </trkpt>
      <trkpt lat="48.15466" lon="-3.1323">
        <ele>251.6</ele>
        <time>2023-04-10T07:40:37Z</time>
      </trkpt>
      <trkpt lat="48.15463" lon="-3.1323">
        <ele>251.2</ele>
        <time>2023-04-10T07:40:38Z</time>
      </trkpt>
      <trkpt lat="48.1546" lon="-3.13231">
        <ele>251</ele>
        <time>2023-04-10T07:40:39Z</time>
      </trkpt>
      <trkpt lat="48.15456" lon="-3.13231">
        <ele>250.8</ele>
        <time>2023-04-10T07:40:40Z</time>
      </trkpt>
      <trkpt lat="48.15452" lon="-3.13231">
        <ele>250.8</ele>
        <time>2023-04-10T07:40:41Z</time>
      </trkpt>
      <trkpt lat="48.15448" lon="-3.13231">
        <ele>250.4</ele>
        <time>2023-04-10T07:40:42Z</time>
      </trkpt>
      <trkpt lat="48.15445" lon="-3.13231">
        <ele>250</ele>
        <time>2023-04-10T07:40:43Z</time>
      </trkpt>
      <trkpt lat="48.15437" lon="-3.13232">
        <ele>249.4</ele>
        <time>2023-04-10T07:40:45Z</time>
      </trkpt>
      <trkpt lat="48.15433" lon="-3.13233">
        <ele>249</ele>
        <time>2023-04-10T07:40:46Z</time>
      </trkpt>
      <trkpt lat="48.1543" lon="-3.13234">
        <ele>248.8</ele>
        <time>2023-04-10T07:40:47Z</time>
      </trkpt>
      <trkpt lat="48.15427" lon="-3.13233">
        <ele>248.6</ele>
        <time>2023-04-10T07:40:48Z</time>
      </trkpt>
      <trkpt lat="48.15425" lon="-3.13233">
        <ele>248.4</ele>
        <time>2023-04-10T07:40:49Z</time>
      </trkpt>
      <trkpt lat="48.15424" lon="-3.13233">
        <ele>248.2</ele>
        <time>2023-04-10T07:40:50Z</time>
      </trkpt>
      <trkpt lat="48.15422" lon="-3.13234">
        <ele>248.2</ele>
        <time>2023-04-10T07:40:51Z</time>
      </trkpt>
      <trkpt lat="48.1542" lon="-3.13235">
        <ele>248.2</ele>
        <time>2023-04-10T07:40:52Z</time>
      </trkpt>
      <trkpt lat="48.15418" lon="-3.13236">
        <ele>248</ele>
        <time>2023-04-10T07:40:53Z</time>
      </trkpt>
      <trkpt lat="48.15416" lon="-3.13238">
        <ele>247.8</ele>
        <time>2023-04-10T07:40:54Z</time>
      </trkpt>
      <trkpt lat="48.15414" lon="-3.13239">
        <ele>247.6</ele>
        <time>2023-04-10T07:40:55Z</time>
      </trkpt>
      <trkpt lat="48.15412" lon="-3.13241">
        <ele>247.4</ele>
        <time>2023-04-10T07:40:56Z</time>
      </trkpt>
      <trkpt lat="48.15401" lon="-3.13257">
        <ele>246.6</ele>
        <time>2023-04-10T07:41:01Z</time>
      </trkpt>
      <trkpt lat="48.15384" lon="-3.13273">
        <ele>246.4</ele>
        <time>2023-04-10T07:41:05Z</time>
      </trkpt>
      <trkpt lat="48.15382" lon="-3.13277">
        <ele>246.4</ele>
        <time>2023-04-10T07:41:06Z</time>
      </trkpt>
      <trkpt lat="48.1538" lon="-3.1328">
        <ele>246.2</ele>
        <time>2023-04-10T07:41:07Z</time>
      </trkpt>
      <trkpt lat="48.15377" lon="-3.13283">
        <ele>246.2</ele>
        <time>2023-04-10T07:41:08Z</time>
      </trkpt>
      <trkpt lat="48.15375" lon="-3.13287">
        <ele>246.2</ele>
        <time>2023-04-10T07:41:09Z</time>
      </trkpt>
      <trkpt lat="48.15374" lon="-3.1329">
        <ele>246.2</ele>
        <time>2023-04-10T07:41:10Z</time>
      </trkpt>
      <trkpt lat="48.15372" lon="-3.13294">
        <ele>246.4</ele>
        <time>2023-04-10T07:41:11Z</time>
      </trkpt>
      <trkpt lat="48.15371" lon="-3.13297">
        <ele>246.4</ele>
        <time>2023-04-10T07:41:12Z</time>
      </trkpt>
      <trkpt lat="48.15371" lon="-3.133">
        <ele>246.4</ele>
        <time>2023-04-10T07:41:13Z</time>
      </trkpt>
      <trkpt lat="48.1537" lon="-3.13301">
        <ele>246.4</ele>
        <time>2023-04-10T07:41:14Z</time>
      </trkpt>
      <trkpt lat="48.1537" lon="-3.13303">
        <ele>246.6</ele>
        <time>2023-04-10T07:41:15Z</time>
      </trkpt>
      <trkpt lat="48.15369" lon="-3.13305">
        <ele>246.6</ele>
        <time>2023-04-10T07:41:16Z</time>
      </trkpt>
      <trkpt lat="48.15362" lon="-3.13317">
        <ele>247.4</ele>
        <time>2023-04-10T07:41:22Z</time>
      </trkpt>
      <trkpt lat="48.15359" lon="-3.13322">
        <ele>247.6</ele>
        <time>2023-04-10T07:41:23Z</time>
      </trkpt>
      <trkpt lat="48.15356" lon="-3.13327">
        <ele>248</ele>
        <time>2023-04-10T07:41:24Z</time>
      </trkpt>
      <trkpt lat="48.1535" lon="-3.13334">
        <ele>248.4</ele>
        <time>2023-04-10T07:41:26Z</time>
      </trkpt>
      <trkpt lat="48.15344" lon="-3.13339">
        <ele>248.8</ele>
        <time>2023-04-10T07:41:28Z</time>
      </trkpt>
      <trkpt lat="48.15331" lon="-3.1336">
        <ele>249.2</ele>
        <time>2023-04-10T07:41:33Z</time>
      </trkpt>
      <trkpt lat="48.15316" lon="-3.13383">
        <ele>249.6</ele>
        <time>2023-04-10T07:41:38Z</time>
      </trkpt>
      <trkpt lat="48.15312" lon="-3.13387">
        <ele>249.6</ele>
        <time>2023-04-10T07:41:39Z</time>
      </trkpt>
      <trkpt lat="48.1531" lon="-3.13391">
        <ele>249.8</ele>
        <time>2023-04-10T07:41:40Z</time>
      </trkpt>
      <trkpt lat="48.15308" lon="-3.13394">
        <ele>249.8</ele>
        <time>2023-04-10T07:41:41Z</time>
      </trkpt>
      <trkpt lat="48.15305" lon="-3.13399">
        <ele>249.8</ele>
        <time>2023-04-10T07:41:42Z</time>
      </trkpt>
      <trkpt lat="48.15302" lon="-3.13403">
        <ele>249.8</ele>
        <time>2023-04-10T07:41:43Z</time>
      </trkpt>
      <trkpt lat="48.15299" lon="-3.13408">
        <ele>249.8</ele>
        <time>2023-04-10T07:41:44Z</time>
      </trkpt>
      <trkpt lat="48.15297" lon="-3.13412">
        <ele>249.8</ele>
        <time>2023-04-10T07:41:45Z</time>
      </trkpt>
      <trkpt lat="48.15293" lon="-3.13418">
        <ele>249.8</ele>
        <time>2023-04-10T07:41:46Z</time>
      </trkpt>
      <trkpt lat="48.15288" lon="-3.13428">
        <ele>249.8</ele>
        <time>2023-04-10T07:41:48Z</time>
      </trkpt>
      <trkpt lat="48.15285" lon="-3.13432">
        <ele>249.8</ele>
        <time>2023-04-10T07:41:49Z</time>
      </trkpt>
      <trkpt lat="48.15281" lon="-3.13437">
        <ele>249.8</ele>
        <time>2023-04-10T07:41:50Z</time>
      </trkpt>
      <trkpt lat="48.1528" lon="-3.13442">
        <ele>249.8</ele>
        <time>2023-04-10T07:41:51Z</time>
      </trkpt>
      <trkpt lat="48.15277" lon="-3.13446">
        <ele>249.8</ele>
        <time>2023-04-10T07:41:52Z</time>
      </trkpt>
      <trkpt lat="48.15273" lon="-3.1345">
        <ele>249.8</ele>
        <time>2023-04-10T07:41:53Z</time>
      </trkpt>
      <trkpt lat="48.1527" lon="-3.13453">
        <ele>249.8</ele>
        <time>2023-04-10T07:41:54Z</time>
      </trkpt>
      <trkpt lat="48.15267" lon="-3.13457">
        <ele>249.8</ele>
        <time>2023-04-10T07:41:55Z</time>
      </trkpt>
      <trkpt lat="48.15264" lon="-3.13463">
        <ele>249.8</ele>
        <time>2023-04-10T07:41:56Z</time>
      </trkpt>
      <trkpt lat="48.15264" lon="-3.13467">
        <ele>249.8</ele>
        <time>2023-04-10T07:41:57Z</time>
      </trkpt>
      <trkpt lat="48.15265" lon="-3.13469">
        <ele>249.6</ele>
        <time>2023-04-10T07:41:58Z</time>
      </trkpt>
      <trkpt lat="48.15258" lon="-3.13476">
        <ele>249.4</ele>
        <time>2023-04-10T07:42:00Z</time>
      </trkpt>
      <trkpt lat="48.15254" lon="-3.13478">
        <ele>249.4</ele>
        <time>2023-04-10T07:42:01Z</time>
      </trkpt>
      <trkpt lat="48.15251" lon="-3.1348">
        <ele>249.2</ele>
        <time>2023-04-10T07:42:02Z</time>
      </trkpt>
      <trkpt lat="48.15247" lon="-3.13483">
        <ele>249.2</ele>
        <time>2023-04-10T07:42:03Z</time>
      </trkpt>
      <trkpt lat="48.15237" lon="-3.13493">
        <ele>249</ele>
        <time>2023-04-10T07:42:06Z</time>
      </trkpt>
      <trkpt lat="48.15229" lon="-3.13502">
        <ele>248.8</ele>
        <time>2023-04-10T07:42:08Z</time>
      </trkpt>
      <trkpt lat="48.15223" lon="-3.13512">
        <ele>248.6</ele>
        <time>2023-04-10T07:42:10Z</time>
      </trkpt>
      <trkpt lat="48.15219" lon="-3.13517">
        <ele>248.2</ele>
        <time>2023-04-10T07:42:11Z</time>
      </trkpt>
      <trkpt lat="48.15206" lon="-3.13537">
        <ele>247.4</ele>
        <time>2023-04-10T07:42:14Z</time>
      </trkpt>
      <trkpt lat="48.15202" lon="-3.13546">
        <ele>246.6</ele>
        <time>2023-04-10T07:42:15Z</time>
      </trkpt>
      <trkpt lat="48.15197" lon="-3.13555">
        <ele>246.2</ele>
        <time>2023-04-10T07:42:16Z</time>
      </trkpt>
      <trkpt lat="48.15181" lon="-3.13596">
        <ele>245</ele>
        <time>2023-04-10T07:42:20Z</time>
      </trkpt>
      <trkpt lat="48.15178" lon="-3.13607">
        <ele>244.2</ele>
        <time>2023-04-10T07:42:21Z</time>
      </trkpt>
      <trkpt lat="48.15175" lon="-3.13618">
        <ele>243.8</ele>
        <time>2023-04-10T07:42:22Z</time>
      </trkpt>
      <trkpt lat="48.15172" lon="-3.13631">
        <ele>243.4</ele>
        <time>2023-04-10T07:42:23Z</time>
      </trkpt>
      <trkpt lat="48.1517" lon="-3.13643">
        <ele>243</ele>
        <time>2023-04-10T07:42:24Z</time>
      </trkpt>
      <trkpt lat="48.15169" lon="-3.13655">
        <ele>242.4</ele>
        <time>2023-04-10T07:42:25Z</time>
      </trkpt>
      <trkpt lat="48.15167" lon="-3.13679">
        <ele>241.2</ele>
        <time>2023-04-10T07:42:27Z</time>
      </trkpt>
      <trkpt lat="48.15163" lon="-3.13703">
        <ele>240</ele>
        <time>2023-04-10T07:42:29Z</time>
      </trkpt>
      <trkpt lat="48.15157" lon="-3.13724">
        <ele>239.4</ele>
        <time>2023-04-10T07:42:31Z</time>
      </trkpt>
      <trkpt lat="48.15153" lon="-3.13733">
        <ele>239</ele>
        <time>2023-04-10T07:42:32Z</time>
      </trkpt>
      <trkpt lat="48.15149" lon="-3.13739">
        <ele>238.6</ele>
        <time>2023-04-10T07:42:33Z</time>
      </trkpt>
      <trkpt lat="48.15144" lon="-3.13746">
        <ele>238.2</ele>
        <time>2023-04-10T07:42:34Z</time>
      </trkpt>
      <trkpt lat="48.1514" lon="-3.13753">
        <ele>237.6</ele>
        <time>2023-04-10T07:42:35Z</time>
      </trkpt>
      <trkpt lat="48.15137" lon="-3.13759">
        <ele>237.2</ele>
        <time>2023-04-10T07:42:36Z</time>
      </trkpt>
      <trkpt lat="48.15133" lon="-3.13765">
        <ele>237</ele>
        <time>2023-04-10T07:42:37Z</time>
      </trkpt>
      <trkpt lat="48.1513" lon="-3.13771">
        <ele>236.4</ele>
        <time>2023-04-10T07:42:38Z</time>
      </trkpt>
      <trkpt lat="48.15127" lon="-3.13778">
        <ele>235.8</ele>
        <time>2023-04-10T07:42:39Z</time>
      </trkpt>
      <trkpt lat="48.15126" lon="-3.13785">
        <ele>235.4</ele>
        <time>2023-04-10T07:42:40Z</time>
      </trkpt>
      <trkpt lat="48.15124" lon="-3.13791">
        <ele>235.4</ele>
        <time>2023-04-10T07:42:41Z</time>
      </trkpt>
      <trkpt lat="48.15122" lon="-3.13798">
        <ele>235</ele>
        <time>2023-04-10T07:42:42Z</time>
      </trkpt>
      <trkpt lat="48.15121" lon="-3.13805">
        <ele>234.8</ele>
        <time>2023-04-10T07:42:43Z</time>
      </trkpt>
      <trkpt lat="48.1512" lon="-3.13813">
        <ele>234.6</ele>
        <time>2023-04-10T07:42:44Z</time>
      </trkpt>
      <trkpt lat="48.15119" lon="-3.13819">
        <ele>234.4</ele>
        <time>2023-04-10T07:42:45Z</time>
      </trkpt>
      <trkpt lat="48.15118" lon="-3.13826">
        <ele>234.4</ele>
        <time>2023-04-10T07:42:46Z</time>
      </trkpt>
      <trkpt lat="48.15116" lon="-3.13832">
        <ele>234.4</ele>
        <time>2023-04-10T07:42:47Z</time>
      </trkpt>
      <trkpt lat="48.15115" lon="-3.13838">
        <ele>234.4</ele>
        <time>2023-04-10T07:42:48Z</time>
      </trkpt>
      <trkpt lat="48.15113" lon="-3.13844">
        <ele>234.4</ele>
        <time>2023-04-10T07:42:49Z</time>
      </trkpt>
      <trkpt lat="48.15112" lon="-3.1385">
        <ele>234.4</ele>
        <time>2023-04-10T07:42:50Z</time>
      </trkpt>
      <trkpt lat="48.15111" lon="-3.13856">
        <ele>234.4</ele>
        <time>2023-04-10T07:42:51Z</time>
      </trkpt>
      <trkpt lat="48.1511" lon="-3.13861">
        <ele>234.4</ele>
        <time>2023-04-10T07:42:52Z</time>
      </trkpt>
      <trkpt lat="48.15109" lon="-3.13866">
        <ele>234.4</ele>
        <time>2023-04-10T07:42:53Z</time>
      </trkpt>
      <trkpt lat="48.15107" lon="-3.13871">
        <ele>234.4</ele>
        <time>2023-04-10T07:42:54Z</time>
      </trkpt>
      <trkpt lat="48.15106" lon="-3.13875">
        <ele>234.4</ele>
        <time>2023-04-10T07:42:55Z</time>
      </trkpt>
      <trkpt lat="48.15105" lon="-3.1388">
        <ele>234.4</ele>
        <time>2023-04-10T07:42:56Z</time>
      </trkpt>
      <trkpt lat="48.15103" lon="-3.13884">
        <ele>234.6</ele>
        <time>2023-04-10T07:42:57Z</time>
      </trkpt>
      <trkpt lat="48.15101" lon="-3.13888">
        <ele>234.8</ele>
        <time>2023-04-10T07:42:58Z</time>
      </trkpt>
      <trkpt lat="48.15099" lon="-3.13892">
        <ele>235</ele>
        <time>2023-04-10T07:42:59Z</time>
      </trkpt>
      <trkpt lat="48.15096" lon="-3.13895">
        <ele>235.4</ele>
        <time>2023-04-10T07:43:00Z</time>
      </trkpt>
      <trkpt lat="48.15093" lon="-3.13899">
        <ele>235.6</ele>
        <time>2023-04-10T07:43:01Z</time>
      </trkpt>
      <trkpt lat="48.15087" lon="-3.13908">
        <ele>235.8</ele>
        <time>2023-04-10T07:43:04Z</time>
      </trkpt>
      <trkpt lat="48.15085" lon="-3.1391">
        <ele>236.2</ele>
        <time>2023-04-10T07:43:05Z</time>
      </trkpt>
      <trkpt lat="48.15083" lon="-3.13915">
        <ele>236.6</ele>
        <time>2023-04-10T07:43:06Z</time>
      </trkpt>
      <trkpt lat="48.15082" lon="-3.13919">
        <ele>236.6</ele>
        <time>2023-04-10T07:43:07Z</time>
      </trkpt>
      <trkpt lat="48.15081" lon="-3.13923">
        <ele>236.8</ele>
        <time>2023-04-10T07:43:08Z</time>
      </trkpt>
      <trkpt lat="48.1508" lon="-3.13927">
        <ele>237</ele>
        <time>2023-04-10T07:43:09Z</time>
      </trkpt>
      <trkpt lat="48.15078" lon="-3.13931">
        <ele>237.4</ele>
        <time>2023-04-10T07:43:10Z</time>
      </trkpt>
      <trkpt lat="48.15076" lon="-3.13933">
        <ele>237.6</ele>
        <time>2023-04-10T07:43:11Z</time>
      </trkpt>
      <trkpt lat="48.15073" lon="-3.13934">
        <ele>238</ele>
        <time>2023-04-10T07:43:12Z</time>
      </trkpt>
      <trkpt lat="48.1507" lon="-3.13934">
        <ele>238.2</ele>
        <time>2023-04-10T07:43:13Z</time>
      </trkpt>
      <trkpt lat="48.15066" lon="-3.13934">
        <ele>238.6</ele>
        <time>2023-04-10T07:43:14Z</time>
      </trkpt>
      <trkpt lat="48.15062" lon="-3.13933">
        <ele>238.8</ele>
        <time>2023-04-10T07:43:15Z</time>
      </trkpt>
      <trkpt lat="48.15057" lon="-3.13932">
        <ele>239</ele>
        <time>2023-04-10T07:43:16Z</time>
      </trkpt>
      <trkpt lat="48.15053" lon="-3.13931">
        <ele>239.4</ele>
        <time>2023-04-10T07:43:17Z</time>
      </trkpt>
      <trkpt lat="48.1505" lon="-3.1393">
        <ele>239.6</ele>
        <time>2023-04-10T07:43:18Z</time>
      </trkpt>
      <trkpt lat="48.15045" lon="-3.1393">
        <ele>239.8</ele>
        <time>2023-04-10T07:43:19Z</time>
      </trkpt>
      <trkpt lat="48.15041" lon="-3.1393">
        <ele>240</ele>
        <time>2023-04-10T07:43:20Z</time>
      </trkpt>
      <trkpt lat="48.15037" lon="-3.13929">
        <ele>240</ele>
        <time>2023-04-10T07:43:21Z</time>
      </trkpt>
      <trkpt lat="48.15032" lon="-3.13928">
        <ele>240.2</ele>
        <time>2023-04-10T07:43:22Z</time>
      </trkpt>
      <trkpt lat="48.15029" lon="-3.13928">
        <ele>240.2</ele>
        <time>2023-04-10T07:43:23Z</time>
      </trkpt>
      <trkpt lat="48.15024" lon="-3.13927">
        <ele>240.2</ele>
        <time>2023-04-10T07:43:24Z</time>
      </trkpt>
      <trkpt lat="48.1502" lon="-3.13926">
        <ele>240.2</ele>
        <time>2023-04-10T07:43:25Z</time>
      </trkpt>
      <trkpt lat="48.15016" lon="-3.13924">
        <ele>240.4</ele>
        <time>2023-04-10T07:43:26Z</time>
      </trkpt>
      <trkpt lat="48.15012" lon="-3.13924">
        <ele>240.4</ele>
        <time>2023-04-10T07:43:27Z</time>
      </trkpt>
      <trkpt lat="48.15008" lon="-3.13922">
        <ele>240.4</ele>
        <time>2023-04-10T07:43:28Z</time>
      </trkpt>
      <trkpt lat="48.15004" lon="-3.13921">
        <ele>240.4</ele>
        <time>2023-04-10T07:43:29Z</time>
      </trkpt>
      <trkpt lat="48.14999" lon="-3.1392">
        <ele>240.4</ele>
        <time>2023-04-10T07:43:30Z</time>
      </trkpt>
      <trkpt lat="48.14994" lon="-3.13921">
        <ele>240.4</ele>
        <time>2023-04-10T07:43:31Z</time>
      </trkpt>
      <trkpt lat="48.14991" lon="-3.13922">
        <ele>240.4</ele>
        <time>2023-04-10T07:43:32Z</time>
      </trkpt>
      <trkpt lat="48.14986" lon="-3.13925">
        <ele>240.4</ele>
        <time>2023-04-10T07:43:33Z</time>
      </trkpt>
      <trkpt lat="48.14981" lon="-3.13931">
        <ele>240.4</ele>
        <time>2023-04-10T07:43:34Z</time>
      </trkpt>
      <trkpt lat="48.14978" lon="-3.13937">
        <ele>240.4</ele>
        <time>2023-04-10T07:43:35Z</time>
      </trkpt>
      <trkpt lat="48.14974" lon="-3.13942">
        <ele>240.4</ele>
        <time>2023-04-10T07:43:36Z</time>
      </trkpt>
      <trkpt lat="48.1497" lon="-3.13948">
        <ele>240.4</ele>
        <time>2023-04-10T07:43:37Z</time>
      </trkpt>
      <trkpt lat="48.14966" lon="-3.13954">
        <ele>240.4</ele>
        <time>2023-04-10T07:43:38Z</time>
      </trkpt>
      <trkpt lat="48.14961" lon="-3.13961">
        <ele>240.2</ele>
        <time>2023-04-10T07:43:39Z</time>
      </trkpt>
      <trkpt lat="48.14958" lon="-3.13967">
        <ele>240.2</ele>
        <time>2023-04-10T07:43:40Z</time>
      </trkpt>
      <trkpt lat="48.14949" lon="-3.13983">
        <ele>240</ele>
        <time>2023-04-10T07:43:42Z</time>
      </trkpt>
      <trkpt lat="48.14926" lon="-3.14025">
        <ele>239.6</ele>
        <time>2023-04-10T07:43:46Z</time>
      </trkpt>
      <trkpt lat="48.14922" lon="-3.14036">
        <ele>239.6</ele>
        <time>2023-04-10T07:43:47Z</time>
      </trkpt>
      <trkpt lat="48.1492" lon="-3.14046">
        <ele>239.2</ele>
        <time>2023-04-10T07:43:48Z</time>
      </trkpt>
      <trkpt lat="48.1492" lon="-3.1406">
        <ele>238.8</ele>
        <time>2023-04-10T07:43:49Z</time>
      </trkpt>
      <trkpt lat="48.14921" lon="-3.14071">
        <ele>238.4</ele>
        <time>2023-04-10T07:43:50Z</time>
      </trkpt>
      <trkpt lat="48.14922" lon="-3.1408">
        <ele>238.2</ele>
        <time>2023-04-10T07:43:51Z</time>
      </trkpt>
      <trkpt lat="48.14922" lon="-3.14092">
        <ele>237.6</ele>
        <time>2023-04-10T07:43:52Z</time>
      </trkpt>
      <trkpt lat="48.14921" lon="-3.14097">
        <ele>237</ele>
        <time>2023-04-10T07:43:53Z</time>
      </trkpt>
      <trkpt lat="48.14921" lon="-3.14103">
        <ele>236</ele>
        <time>2023-04-10T07:43:54Z</time>
      </trkpt>
      <trkpt lat="48.1492" lon="-3.14106">
        <ele>235.4</ele>
        <time>2023-04-10T07:43:55Z</time>
      </trkpt>
      <trkpt lat="48.1492" lon="-3.14109">
        <ele>234.8</ele>
        <time>2023-04-10T07:43:56Z</time>
      </trkpt>
      <trkpt lat="48.14921" lon="-3.14112">
        <ele>234.4</ele>
        <time>2023-04-10T07:43:57Z</time>
      </trkpt>
      <trkpt lat="48.14921" lon="-3.14115">
        <ele>234</ele>
        <time>2023-04-10T07:43:58Z</time>
      </trkpt>
      <trkpt lat="48.14921" lon="-3.14118">
        <ele>234</ele>
        <time>2023-04-10T07:43:59Z</time>
      </trkpt>
      <trkpt lat="48.14923" lon="-3.14121">
        <ele>233.8</ele>
        <time>2023-04-10T07:44:00Z</time>
      </trkpt>
      <trkpt lat="48.14924" lon="-3.14123">
        <ele>233.8</ele>
        <time>2023-04-10T07:44:01Z</time>
      </trkpt>
      <trkpt lat="48.14925" lon="-3.14127">
        <ele>233.8</ele>
        <time>2023-04-10T07:44:02Z</time>
      </trkpt>
      <trkpt lat="48.14926" lon="-3.1413">
        <ele>233.8</ele>
        <time>2023-04-10T07:44:03Z</time>
      </trkpt>
      <trkpt lat="48.14927" lon="-3.14133">
        <ele>233.8</ele>
        <time>2023-04-10T07:44:04Z</time>
      </trkpt>
      <trkpt lat="48.14927" lon="-3.14136">
        <ele>233.8</ele>
        <time>2023-04-10T07:44:05Z</time>
      </trkpt>
      <trkpt lat="48.14928" lon="-3.1414">
        <ele>233.8</ele>
        <time>2023-04-10T07:44:06Z</time>
      </trkpt>
      <trkpt lat="48.14929" lon="-3.14144">
        <ele>233.8</ele>
        <time>2023-04-10T07:44:07Z</time>
      </trkpt>
      <trkpt lat="48.14933" lon="-3.14156">
        <ele>234</ele>
        <time>2023-04-10T07:44:10Z</time>
      </trkpt>
      <trkpt lat="48.14933" lon="-3.14159">
        <ele>234.2</ele>
        <time>2023-04-10T07:44:11Z</time>
      </trkpt>
      <trkpt lat="48.14933" lon="-3.14164">
        <ele>234.4</ele>
        <time>2023-04-10T07:44:12Z</time>
      </trkpt>
      <trkpt lat="48.14933" lon="-3.14168">
        <ele>234.6</ele>
        <time>2023-04-10T07:44:13Z</time>
      </trkpt>
      <trkpt lat="48.14933" lon="-3.14173">
        <ele>234.8</ele>
        <time>2023-04-10T07:44:14Z</time>
      </trkpt>
      <trkpt lat="48.14933" lon="-3.14177">
        <ele>235.2</ele>
        <time>2023-04-10T07:44:15Z</time>
      </trkpt>
      <trkpt lat="48.14933" lon="-3.14187">
        <ele>235.8</ele>
        <time>2023-04-10T07:44:17Z</time>
      </trkpt>
      <trkpt lat="48.14931" lon="-3.14194">
        <ele>236.6</ele>
        <time>2023-04-10T07:44:19Z</time>
      </trkpt>
      <trkpt lat="48.14929" lon="-3.14199">
        <ele>236.8</ele>
        <time>2023-04-10T07:44:20Z</time>
      </trkpt>
      <trkpt lat="48.14928" lon="-3.14202">
        <ele>237</ele>
        <time>2023-04-10T07:44:21Z</time>
      </trkpt>
      <trkpt lat="48.14926" lon="-3.14206">
        <ele>237.2</ele>
        <time>2023-04-10T07:44:22Z</time>
      </trkpt>
      <trkpt lat="48.14924" lon="-3.14211">
        <ele>237.4</ele>
        <time>2023-04-10T07:44:23Z</time>
      </trkpt>
      <trkpt lat="48.14922" lon="-3.14215">
        <ele>237.6</ele>
        <time>2023-04-10T07:44:24Z</time>
      </trkpt>
      <trkpt lat="48.14919" lon="-3.14221">
        <ele>238.2</ele>
        <time>2023-04-10T07:44:26Z</time>
      </trkpt>
      <trkpt lat="48.14917" lon="-3.14228">
        <ele>238.8</ele>
        <time>2023-04-10T07:44:28Z</time>
      </trkpt>
      <trkpt lat="48.14916" lon="-3.14231">
        <ele>239.2</ele>
        <time>2023-04-10T07:44:29Z</time>
      </trkpt>
      <trkpt lat="48.14915" lon="-3.14236">
        <ele>239.4</ele>
        <time>2023-04-10T07:44:30Z</time>
      </trkpt>
      <trkpt lat="48.14913" lon="-3.1424">
        <ele>239.4</ele>
        <time>2023-04-10T07:44:31Z</time>
      </trkpt>
      <trkpt lat="48.14911" lon="-3.14245">
        <ele>239.8</ele>
        <time>2023-04-10T07:44:32Z</time>
      </trkpt>
      <trkpt lat="48.14909" lon="-3.1425">
        <ele>239.8</ele>
        <time>2023-04-10T07:44:33Z</time>
      </trkpt>
      <trkpt lat="48.14906" lon="-3.14254">
        <ele>240</ele>
        <time>2023-04-10T07:44:34Z</time>
      </trkpt>
      <trkpt lat="48.14901" lon="-3.1426">
        <ele>240.2</ele>
        <time>2023-04-10T07:44:35Z</time>
      </trkpt>
      <trkpt lat="48.14899" lon="-3.14265">
        <ele>240.4</ele>
        <time>2023-04-10T07:44:36Z</time>
      </trkpt>
      <trkpt lat="48.14896" lon="-3.14267">
        <ele>240.4</ele>
        <time>2023-04-10T07:44:37Z</time>
      </trkpt>
      <trkpt lat="48.14893" lon="-3.14269">
        <ele>240.6</ele>
        <time>2023-04-10T07:44:38Z</time>
      </trkpt>
      <trkpt lat="48.1489" lon="-3.14273">
        <ele>240.8</ele>
        <time>2023-04-10T07:44:39Z</time>
      </trkpt>
      <trkpt lat="48.14886" lon="-3.14277">
        <ele>241</ele>
        <time>2023-04-10T07:44:40Z</time>
      </trkpt>
      <trkpt lat="48.14883" lon="-3.1428">
        <ele>241</ele>
        <time>2023-04-10T07:44:41Z</time>
      </trkpt>
      <trkpt lat="48.14881" lon="-3.14283">
        <ele>241.2</ele>
        <time>2023-04-10T07:44:42Z</time>
      </trkpt>
      <trkpt lat="48.14879" lon="-3.14285">
        <ele>241.4</ele>
        <time>2023-04-10T07:44:43Z</time>
      </trkpt>
      <trkpt lat="48.14878" lon="-3.14288">
        <ele>241.6</ele>
        <time>2023-04-10T07:44:44Z</time>
      </trkpt>
      <trkpt lat="48.14877" lon="-3.14292">
        <ele>241.6</ele>
        <time>2023-04-10T07:44:45Z</time>
      </trkpt>
      <trkpt lat="48.14875" lon="-3.14295">
        <ele>241.6</ele>
        <time>2023-04-10T07:44:46Z</time>
      </trkpt>
      <trkpt lat="48.14874" lon="-3.14297">
        <ele>241.8</ele>
        <time>2023-04-10T07:44:47Z</time>
      </trkpt>
      <trkpt lat="48.14872" lon="-3.14298">
        <ele>241.8</ele>
        <time>2023-04-10T07:44:48Z</time>
      </trkpt>
      <trkpt lat="48.14871" lon="-3.14298">
        <ele>241.8</ele>
        <time>2023-04-10T07:44:49Z</time>
      </trkpt>
      <trkpt lat="48.14869" lon="-3.14299">
        <ele>241.8</ele>
        <time>2023-04-10T07:44:50Z</time>
      </trkpt>
      <trkpt lat="48.14866" lon="-3.14299">
        <ele>241.8</ele>
        <time>2023-04-10T07:44:51Z</time>
      </trkpt>
      <trkpt lat="48.14863" lon="-3.14297">
        <ele>241.8</ele>
        <time>2023-04-10T07:44:52Z</time>
      </trkpt>
      <trkpt lat="48.14861" lon="-3.14294">
        <ele>241.8</ele>
        <time>2023-04-10T07:44:53Z</time>
      </trkpt>
      <trkpt lat="48.14858" lon="-3.14291">
        <ele>241.8</ele>
        <time>2023-04-10T07:44:54Z</time>
      </trkpt>
      <trkpt lat="48.14856" lon="-3.14289">
        <ele>241.8</ele>
        <time>2023-04-10T07:44:55Z</time>
      </trkpt>
      <trkpt lat="48.14853" lon="-3.14288">
        <ele>241.8</ele>
        <time>2023-04-10T07:44:56Z</time>
      </trkpt>
      <trkpt lat="48.1485" lon="-3.14288">
        <ele>241.6</ele>
        <time>2023-04-10T07:44:57Z</time>
      </trkpt>
      <trkpt lat="48.14847" lon="-3.14289">
        <ele>241.6</ele>
        <time>2023-04-10T07:44:58Z</time>
      </trkpt>
      <trkpt lat="48.14844" lon="-3.1429">
        <ele>241.6</ele>
        <time>2023-04-10T07:44:59Z</time>
      </trkpt>
      <trkpt lat="48.1484" lon="-3.14292">
        <ele>241.4</ele>
        <time>2023-04-10T07:45:00Z</time>
      </trkpt>
      <trkpt lat="48.14836" lon="-3.14293">
        <ele>241.4</ele>
        <time>2023-04-10T07:45:01Z</time>
      </trkpt>
      <trkpt lat="48.14825" lon="-3.14294">
        <ele>241.2</ele>
        <time>2023-04-10T07:45:04Z</time>
      </trkpt>
      <trkpt lat="48.14821" lon="-3.14295">
        <ele>241.2</ele>
        <time>2023-04-10T07:45:05Z</time>
      </trkpt>
      <trkpt lat="48.14813" lon="-3.14295">
        <ele>241.2</ele>
        <time>2023-04-10T07:45:07Z</time>
      </trkpt>
      <trkpt lat="48.148" lon="-3.143">
        <ele>241</ele>
        <time>2023-04-10T07:45:10Z</time>
      </trkpt>
      <trkpt lat="48.14796" lon="-3.14301">
        <ele>240.8</ele>
        <time>2023-04-10T07:45:11Z</time>
      </trkpt>
      <trkpt lat="48.14791" lon="-3.14301">
        <ele>240.8</ele>
        <time>2023-04-10T07:45:12Z</time>
      </trkpt>
      <trkpt lat="48.14785" lon="-3.14301">
        <ele>240.6</ele>
        <time>2023-04-10T07:45:13Z</time>
      </trkpt>
      <trkpt lat="48.14785" lon="-3.14301">
        <ele>240.4</ele>
        <time>2023-04-10T07:45:14Z</time>
      </trkpt>
      <trkpt lat="48.14779" lon="-3.14295">
        <ele>240.4</ele>
        <time>2023-04-10T07:45:15Z</time>
      </trkpt>
      <trkpt lat="48.14777" lon="-3.14291">
        <ele>240.2</ele>
        <time>2023-04-10T07:45:16Z</time>
      </trkpt>
      <trkpt lat="48.14775" lon="-3.14287">
        <ele>240</ele>
        <time>2023-04-10T07:45:17Z</time>
      </trkpt>
      <trkpt lat="48.14773" lon="-3.14284">
        <ele>240</ele>
        <time>2023-04-10T07:45:18Z</time>
      </trkpt>
      <trkpt lat="48.14772" lon="-3.14281">
        <ele>239.8</ele>
        <time>2023-04-10T07:45:19Z</time>
      </trkpt>
      <trkpt lat="48.14771" lon="-3.14275">
        <ele>239.8</ele>
        <time>2023-04-10T07:45:20Z</time>
      </trkpt>
      <trkpt lat="48.14767" lon="-3.14268">
        <ele>239.8</ele>
        <time>2023-04-10T07:45:22Z</time>
      </trkpt>
      <trkpt lat="48.14765" lon="-3.14264">
        <ele>239.8</ele>
        <time>2023-04-10T07:45:23Z</time>
      </trkpt>
      <trkpt lat="48.14763" lon="-3.14262">
        <ele>239.8</ele>
        <time>2023-04-10T07:45:24Z</time>
      </trkpt>
      <trkpt lat="48.14761" lon="-3.14258">
        <ele>239.8</ele>
        <time>2023-04-10T07:45:25Z</time>
      </trkpt>
      <trkpt lat="48.14761" lon="-3.14255">
        <ele>239.8</ele>
        <time>2023-04-10T07:45:26Z</time>
      </trkpt>
      <trkpt lat="48.14759" lon="-3.14252">
        <ele>239.8</ele>
        <time>2023-04-10T07:45:27Z</time>
      </trkpt>
      <trkpt lat="48.14758" lon="-3.14247">
        <ele>239.8</ele>
        <time>2023-04-10T07:45:28Z</time>
      </trkpt>
      <trkpt lat="48.14756" lon="-3.14245">
        <ele>240</ele>
        <time>2023-04-10T07:45:29Z</time>
      </trkpt>
      <trkpt lat="48.14755" lon="-3.14243">
        <ele>240.2</ele>
        <time>2023-04-10T07:45:30Z</time>
      </trkpt>
      <trkpt lat="48.14754" lon="-3.14239">
        <ele>240.4</ele>
        <time>2023-04-10T07:45:31Z</time>
      </trkpt>
      <trkpt lat="48.14751" lon="-3.14228">
        <ele>241</ele>
        <time>2023-04-10T07:45:34Z</time>
      </trkpt>
      <trkpt lat="48.14749" lon="-3.14225">
        <ele>241.2</ele>
        <time>2023-04-10T07:45:35Z</time>
      </trkpt>
      <trkpt lat="48.14748" lon="-3.14222">
        <ele>241.4</ele>
        <time>2023-04-10T07:45:36Z</time>
      </trkpt>
      <trkpt lat="48.14744" lon="-3.14213">
        <ele>241.8</ele>
        <time>2023-04-10T07:45:39Z</time>
      </trkpt>
      <trkpt lat="48.14741" lon="-3.14202">
        <ele>242.4</ele>
        <time>2023-04-10T07:45:42Z</time>
      </trkpt>
      <trkpt lat="48.1474" lon="-3.14199">
        <ele>242.6</ele>
        <time>2023-04-10T07:45:43Z</time>
      </trkpt>
      <trkpt lat="48.14739" lon="-3.14197">
        <ele>242.6</ele>
        <time>2023-04-10T07:45:44Z</time>
      </trkpt>
      <trkpt lat="48.14737" lon="-3.14194">
        <ele>242.8</ele>
        <time>2023-04-10T07:45:45Z</time>
      </trkpt>
      <trkpt lat="48.14733" lon="-3.14185">
        <ele>243.2</ele>
        <time>2023-04-10T07:45:48Z</time>
      </trkpt>
      <trkpt lat="48.14732" lon="-3.14181">
        <ele>243.6</ele>
        <time>2023-04-10T07:45:49Z</time>
      </trkpt>
      <trkpt lat="48.14731" lon="-3.14178">
        <ele>243.8</ele>
        <time>2023-04-10T07:45:50Z</time>
      </trkpt>
      <trkpt lat="48.1473" lon="-3.14175">
        <ele>244</ele>
        <time>2023-04-10T07:45:51Z</time>
      </trkpt>
      <trkpt lat="48.14729" lon="-3.14172">
        <ele>244.2</ele>
        <time>2023-04-10T07:45:52Z</time>
      </trkpt>
      <trkpt lat="48.14728" lon="-3.14169">
        <ele>244.4</ele>
        <time>2023-04-10T07:45:53Z</time>
      </trkpt>
      <trkpt lat="48.14727" lon="-3.14167">
        <ele>244.4</ele>
        <time>2023-04-10T07:45:54Z</time>
      </trkpt>
      <trkpt lat="48.14726" lon="-3.14164">
        <ele>244.6</ele>
        <time>2023-04-10T07:45:55Z</time>
      </trkpt>
      <trkpt lat="48.14725" lon="-3.1416">
        <ele>244.8</ele>
        <time>2023-04-10T07:45:56Z</time>
      </trkpt>
      <trkpt lat="48.14724" lon="-3.14158">
        <ele>244.8</ele>
        <time>2023-04-10T07:45:57Z</time>
      </trkpt>
      <trkpt lat="48.14723" lon="-3.14154">
        <ele>245.2</ele>
        <time>2023-04-10T07:45:58Z</time>
      </trkpt>
      <trkpt lat="48.14721" lon="-3.14152">
        <ele>245.2</ele>
        <time>2023-04-10T07:45:59Z</time>
      </trkpt>
      <trkpt lat="48.1472" lon="-3.14149">
        <ele>245.4</ele>
        <time>2023-04-10T07:46:00Z</time>
      </trkpt>
      <trkpt lat="48.14719" lon="-3.14146">
        <ele>245.6</ele>
        <time>2023-04-10T07:46:01Z</time>
      </trkpt>
      <trkpt lat="48.14718" lon="-3.14142">
        <ele>245.8</ele>
        <time>2023-04-10T07:46:02Z</time>
      </trkpt>
      <trkpt lat="48.14717" lon="-3.14139">
        <ele>246</ele>
        <time>2023-04-10T07:46:03Z</time>
      </trkpt>
      <trkpt lat="48.14716" lon="-3.14136">
        <ele>246.2</ele>
        <time>2023-04-10T07:46:04Z</time>
      </trkpt>
      <trkpt lat="48.14716" lon="-3.14132">
        <ele>246.4</ele>
        <time>2023-04-10T07:46:05Z</time>
      </trkpt>
      <trkpt lat="48.14715" lon="-3.14129">
        <ele>246.4</ele>
        <time>2023-04-10T07:46:06Z</time>
      </trkpt>
      <trkpt lat="48.14715" lon="-3.14125">
        <ele>246.6</ele>
        <time>2023-04-10T07:46:07Z</time>
      </trkpt>
      <trkpt lat="48.14714" lon="-3.1412">
        <ele>246.6</ele>
        <time>2023-04-10T07:46:08Z</time>
      </trkpt>
      <trkpt lat="48.14712" lon="-3.14115">
        <ele>246.6</ele>
        <time>2023-04-10T07:46:09Z</time>
      </trkpt>
      <trkpt lat="48.14711" lon="-3.14111">
        <ele>246.8</ele>
        <time>2023-04-10T07:46:10Z</time>
      </trkpt>
      <trkpt lat="48.1471" lon="-3.14108">
        <ele>247</ele>
        <time>2023-04-10T07:46:11Z</time>
      </trkpt>
      <trkpt lat="48.14709" lon="-3.14103">
        <ele>247.4</ele>
        <time>2023-04-10T07:46:12Z</time>
      </trkpt>
      <trkpt lat="48.14708" lon="-3.14099">
        <ele>247.6</ele>
        <time>2023-04-10T07:46:13Z</time>
      </trkpt>
      <trkpt lat="48.14707" lon="-3.14093">
        <ele>247.6</ele>
        <time>2023-04-10T07:46:14Z</time>
      </trkpt>
      <trkpt lat="48.14705" lon="-3.14087">
        <ele>247.8</ele>
        <time>2023-04-10T07:46:15Z</time>
      </trkpt>
      <trkpt lat="48.14704" lon="-3.1408">
        <ele>247.8</ele>
        <time>2023-04-10T07:46:16Z</time>
      </trkpt>
      <trkpt lat="48.14703" lon="-3.14073">
        <ele>247.8</ele>
        <time>2023-04-10T07:46:17Z</time>
      </trkpt>
      <trkpt lat="48.14701" lon="-3.14066">
        <ele>247.8</ele>
        <time>2023-04-10T07:46:18Z</time>
      </trkpt>
      <trkpt lat="48.147" lon="-3.14057">
        <ele>248</ele>
        <time>2023-04-10T07:46:19Z</time>
      </trkpt>
      <trkpt lat="48.14697" lon="-3.14048">
        <ele>248</ele>
        <time>2023-04-10T07:46:20Z</time>
      </trkpt>
      <trkpt lat="48.14695" lon="-3.14038">
        <ele>248</ele>
        <time>2023-04-10T07:46:21Z</time>
      </trkpt>
      <trkpt lat="48.14693" lon="-3.14029">
        <ele>248</ele>
        <time>2023-04-10T07:46:22Z</time>
      </trkpt>
      <trkpt lat="48.14691" lon="-3.1402">
        <ele>248</ele>
        <time>2023-04-10T07:46:23Z</time>
      </trkpt>
      <trkpt lat="48.14687" lon="-3.14014">
        <ele>248</ele>
        <time>2023-04-10T07:46:24Z</time>
      </trkpt>
      <trkpt lat="48.14681" lon="-3.1401">
        <ele>247.6</ele>
        <time>2023-04-10T07:46:25Z</time>
      </trkpt>
      <trkpt lat="48.14675" lon="-3.1401">
        <ele>246.8</ele>
        <time>2023-04-10T07:46:26Z</time>
      </trkpt>
      <trkpt lat="48.14669" lon="-3.14011">
        <ele>246.2</ele>
        <time>2023-04-10T07:46:27Z</time>
      </trkpt>
      <trkpt lat="48.14662" lon="-3.14013">
        <ele>245.8</ele>
        <time>2023-04-10T07:46:28Z</time>
      </trkpt>
      <trkpt lat="48.14651" lon="-3.14021">
        <ele>245.4</ele>
        <time>2023-04-10T07:46:30Z</time>
      </trkpt>
      <trkpt lat="48.14645" lon="-3.14025">
        <ele>245</ele>
        <time>2023-04-10T07:46:31Z</time>
      </trkpt>
      <trkpt lat="48.14637" lon="-3.14031">
        <ele>244.6</ele>
        <time>2023-04-10T07:46:32Z</time>
      </trkpt>
      <trkpt lat="48.14618" lon="-3.14043">
        <ele>243.2</ele>
        <time>2023-04-10T07:46:35Z</time>
      </trkpt>
      <trkpt lat="48.14612" lon="-3.14046">
        <ele>242.8</ele>
        <time>2023-04-10T07:46:36Z</time>
      </trkpt>
      <trkpt lat="48.14589" lon="-3.14062">
        <ele>242</ele>
        <time>2023-04-10T07:46:39Z</time>
      </trkpt>
      <trkpt lat="48.14583" lon="-3.1407">
        <ele>241.4</ele>
        <time>2023-04-10T07:46:40Z</time>
      </trkpt>
      <trkpt lat="48.14577" lon="-3.14078">
        <ele>240.8</ele>
        <time>2023-04-10T07:46:41Z</time>
      </trkpt>
      <trkpt lat="48.14572" lon="-3.14087">
        <ele>240.2</ele>
        <time>2023-04-10T07:46:42Z</time>
      </trkpt>
      <trkpt lat="48.14567" lon="-3.14095">
        <ele>239.8</ele>
        <time>2023-04-10T07:46:43Z</time>
      </trkpt>
      <trkpt lat="48.14562" lon="-3.14103">
        <ele>239.6</ele>
        <time>2023-04-10T07:46:44Z</time>
      </trkpt>
      <trkpt lat="48.14557" lon="-3.1411">
        <ele>239.6</ele>
        <time>2023-04-10T07:46:45Z</time>
      </trkpt>
      <trkpt lat="48.14543" lon="-3.14123">
        <ele>238.4</ele>
        <time>2023-04-10T07:46:47Z</time>
      </trkpt>
      <trkpt lat="48.14536" lon="-3.1413">
        <ele>237.8</ele>
        <time>2023-04-10T07:46:48Z</time>
      </trkpt>
      <trkpt lat="48.14523" lon="-3.14148">
        <ele>237.2</ele>
        <time>2023-04-10T07:46:50Z</time>
      </trkpt>
      <trkpt lat="48.14508" lon="-3.14167">
        <ele>236.4</ele>
        <time>2023-04-10T07:46:52Z</time>
      </trkpt>
      <trkpt lat="48.145" lon="-3.14174">
        <ele>236.2</ele>
        <time>2023-04-10T07:46:53Z</time>
      </trkpt>
      <trkpt lat="48.14492" lon="-3.14181">
        <ele>236.2</ele>
        <time>2023-04-10T07:46:54Z</time>
      </trkpt>
      <trkpt lat="48.14485" lon="-3.14186">
        <ele>236</ele>
        <time>2023-04-10T07:46:55Z</time>
      </trkpt>
      <trkpt lat="48.14478" lon="-3.1419">
        <ele>235.8</ele>
        <time>2023-04-10T07:46:56Z</time>
      </trkpt>
      <trkpt lat="48.14473" lon="-3.14196">
        <ele>235.2</ele>
        <time>2023-04-10T07:46:57Z</time>
      </trkpt>
      <trkpt lat="48.1447" lon="-3.14203">
        <ele>234.4</ele>
        <time>2023-04-10T07:46:58Z</time>
      </trkpt>
      <trkpt lat="48.14469" lon="-3.14209">
        <ele>233.4</ele>
        <time>2023-04-10T07:46:59Z</time>
      </trkpt>
      <trkpt lat="48.14469" lon="-3.14215">
        <ele>232.4</ele>
        <time>2023-04-10T07:47:00Z</time>
      </trkpt>
      <trkpt lat="48.14469" lon="-3.14221">
        <ele>231.4</ele>
        <time>2023-04-10T07:47:01Z</time>
      </trkpt>
      <trkpt lat="48.1447" lon="-3.14227">
        <ele>230.2</ele>
        <time>2023-04-10T07:47:02Z</time>
      </trkpt>
      <trkpt lat="48.14471" lon="-3.14233">
        <ele>228.8</ele>
        <time>2023-04-10T07:47:03Z</time>
      </trkpt>
      <trkpt lat="48.14471" lon="-3.14238">
        <ele>227.8</ele>
        <time>2023-04-10T07:47:04Z</time>
      </trkpt>
      <trkpt lat="48.14471" lon="-3.14245">
        <ele>227</ele>
        <time>2023-04-10T07:47:05Z</time>
      </trkpt>
      <trkpt lat="48.14471" lon="-3.1425">
        <ele>226.8</ele>
        <time>2023-04-10T07:47:06Z</time>
      </trkpt>
      <trkpt lat="48.14471" lon="-3.14257">
        <ele>226.8</ele>
        <time>2023-04-10T07:47:07Z</time>
      </trkpt>
      <trkpt lat="48.14471" lon="-3.14263">
        <ele>226.6</ele>
        <time>2023-04-10T07:47:08Z</time>
      </trkpt>
      <trkpt lat="48.14473" lon="-3.14301">
        <ele>226.4</ele>
        <time>2023-04-10T07:47:14Z</time>
      </trkpt>
      <trkpt lat="48.14473" lon="-3.14307">
        <ele>226.4</ele>
        <time>2023-04-10T07:47:15Z</time>
      </trkpt>
      <trkpt lat="48.14472" lon="-3.14314">
        <ele>226.6</ele>
        <time>2023-04-10T07:47:16Z</time>
      </trkpt>
      <trkpt lat="48.14474" lon="-3.14326">
        <ele>226.8</ele>
        <time>2023-04-10T07:47:18Z</time>
      </trkpt>
      <trkpt lat="48.14476" lon="-3.14356">
        <ele>227.6</ele>
        <time>2023-04-10T07:47:23Z</time>
      </trkpt>
      <trkpt lat="48.14476" lon="-3.14362">
        <ele>227.8</ele>
        <time>2023-04-10T07:47:24Z</time>
      </trkpt>
      <trkpt lat="48.14476" lon="-3.14367">
        <ele>228</ele>
        <time>2023-04-10T07:47:25Z</time>
      </trkpt>
      <trkpt lat="48.14478" lon="-3.14372">
        <ele>228.2</ele>
        <time>2023-04-10T07:47:26Z</time>
      </trkpt>
      <trkpt lat="48.1448" lon="-3.14376">
        <ele>228.4</ele>
        <time>2023-04-10T07:47:27Z</time>
      </trkpt>
      <trkpt lat="48.14483" lon="-3.1438">
        <ele>228.6</ele>
        <time>2023-04-10T07:47:28Z</time>
      </trkpt>
      <trkpt lat="48.14487" lon="-3.14383">
        <ele>228.6</ele>
        <time>2023-04-10T07:47:29Z</time>
      </trkpt>
      <trkpt lat="48.14491" lon="-3.14386">
        <ele>228.8</ele>
        <time>2023-04-10T07:47:30Z</time>
      </trkpt>
      <trkpt lat="48.14494" lon="-3.14389">
        <ele>229</ele>
        <time>2023-04-10T07:47:31Z</time>
      </trkpt>
      <trkpt lat="48.14496" lon="-3.14392">
        <ele>229</ele>
        <time>2023-04-10T07:47:32Z</time>
      </trkpt>
      <trkpt lat="48.145" lon="-3.14395">
        <ele>229.2</ele>
        <time>2023-04-10T07:47:33Z</time>
      </trkpt>
      <trkpt lat="48.14502" lon="-3.14398">
        <ele>229.2</ele>
        <time>2023-04-10T07:47:34Z</time>
      </trkpt>
      <trkpt lat="48.14504" lon="-3.14401">
        <ele>229.2</ele>
        <time>2023-04-10T07:47:35Z</time>
      </trkpt>
      <trkpt lat="48.14504" lon="-3.14404">
        <ele>229.4</ele>
        <time>2023-04-10T07:47:36Z</time>
      </trkpt>
      <trkpt lat="48.14503" lon="-3.14408">
        <ele>229.4</ele>
        <time>2023-04-10T07:47:37Z</time>
      </trkpt>
      <trkpt lat="48.14502" lon="-3.14411">
        <ele>229.4</ele>
        <time>2023-04-10T07:47:38Z</time>
      </trkpt>
      <trkpt lat="48.145" lon="-3.14415">
        <ele>229.4</ele>
        <time>2023-04-10T07:47:39Z</time>
      </trkpt>
      <trkpt lat="48.14499" lon="-3.1442">
        <ele>229.4</ele>
        <time>2023-04-10T07:47:40Z</time>
      </trkpt>
      <trkpt lat="48.14498" lon="-3.14425">
        <ele>229.4</ele>
        <time>2023-04-10T07:47:41Z</time>
      </trkpt>
      <trkpt lat="48.14493" lon="-3.1444">
        <ele>229.6</ele>
        <time>2023-04-10T07:47:44Z</time>
      </trkpt>
      <trkpt lat="48.14494" lon="-3.14446">
        <ele>229.6</ele>
        <time>2023-04-10T07:47:45Z</time>
      </trkpt>
      <trkpt lat="48.14495" lon="-3.14456">
        <ele>229.6</ele>
        <time>2023-04-10T07:47:47Z</time>
      </trkpt>
      <trkpt lat="48.14496" lon="-3.1446">
        <ele>229.8</ele>
        <time>2023-04-10T07:47:48Z</time>
      </trkpt>
      <trkpt lat="48.14496" lon="-3.14467">
        <ele>229.8</ele>
        <time>2023-04-10T07:47:49Z</time>
      </trkpt>
      <trkpt lat="48.14496" lon="-3.14472">
        <ele>229.8</ele>
        <time>2023-04-10T07:47:50Z</time>
      </trkpt>
      <trkpt lat="48.14496" lon="-3.14477">
        <ele>229.8</ele>
        <time>2023-04-10T07:47:51Z</time>
      </trkpt>
      <trkpt lat="48.14494" lon="-3.14481">
        <ele>230</ele>
        <time>2023-04-10T07:47:52Z</time>
      </trkpt>
      <trkpt lat="48.14492" lon="-3.14485">
        <ele>230</ele>
        <time>2023-04-10T07:47:53Z</time>
      </trkpt>
      <trkpt lat="48.1449" lon="-3.14489">
        <ele>230.2</ele>
        <time>2023-04-10T07:47:54Z</time>
      </trkpt>
      <trkpt lat="48.14489" lon="-3.14492">
        <ele>230.2</ele>
        <time>2023-04-10T07:47:55Z</time>
      </trkpt>
      <trkpt lat="48.14487" lon="-3.14495">
        <ele>230.2</ele>
        <time>2023-04-10T07:47:56Z</time>
      </trkpt>
      <trkpt lat="48.14486" lon="-3.14498">
        <ele>230.4</ele>
        <time>2023-04-10T07:47:57Z</time>
      </trkpt>
      <trkpt lat="48.14485" lon="-3.14502">
        <ele>230.4</ele>
        <time>2023-04-10T07:47:58Z</time>
      </trkpt>
      <trkpt lat="48.14484" lon="-3.14506">
        <ele>230.6</ele>
        <time>2023-04-10T07:47:59Z</time>
      </trkpt>
      <trkpt lat="48.14483" lon="-3.14509">
        <ele>230.8</ele>
        <time>2023-04-10T07:48:00Z</time>
      </trkpt>
      <trkpt lat="48.14482" lon="-3.14512">
        <ele>231</ele>
        <time>2023-04-10T07:48:01Z</time>
      </trkpt>
      <trkpt lat="48.14483" lon="-3.14515">
        <ele>231.2</ele>
        <time>2023-04-10T07:48:02Z</time>
      </trkpt>
      <trkpt lat="48.14483" lon="-3.14519">
        <ele>231.4</ele>
        <time>2023-04-10T07:48:03Z</time>
      </trkpt>
      <trkpt lat="48.14485" lon="-3.14523">
        <ele>231.6</ele>
        <time>2023-04-10T07:48:04Z</time>
      </trkpt>
      <trkpt lat="48.14486" lon="-3.14528">
        <ele>232</ele>
        <time>2023-04-10T07:48:05Z</time>
      </trkpt>
      <trkpt lat="48.14486" lon="-3.14533">
        <ele>232.2</ele>
        <time>2023-04-10T07:48:06Z</time>
      </trkpt>
      <trkpt lat="48.14486" lon="-3.14537">
        <ele>232.6</ele>
        <time>2023-04-10T07:48:07Z</time>
      </trkpt>
      <trkpt lat="48.14487" lon="-3.14545">
        <ele>233</ele>
        <time>2023-04-10T07:48:09Z</time>
      </trkpt>
      <trkpt lat="48.14487" lon="-3.14549">
        <ele>233.2</ele>
        <time>2023-04-10T07:48:10Z</time>
      </trkpt>
      <trkpt lat="48.14487" lon="-3.14552">
        <ele>233.4</ele>
        <time>2023-04-10T07:48:11Z</time>
      </trkpt>
      <trkpt lat="48.14485" lon="-3.14557">
        <ele>233.8</ele>
        <time>2023-04-10T07:48:12Z</time>
      </trkpt>
      <trkpt lat="48.14482" lon="-3.14561">
        <ele>233.8</ele>
        <time>2023-04-10T07:48:13Z</time>
      </trkpt>
      <trkpt lat="48.1448" lon="-3.14566">
        <ele>233.8</ele>
        <time>2023-04-10T07:48:14Z</time>
      </trkpt>
      <trkpt lat="48.14478" lon="-3.14571">
        <ele>234.4</ele>
        <time>2023-04-10T07:48:15Z</time>
      </trkpt>
      <trkpt lat="48.14476" lon="-3.14575">
        <ele>234.6</ele>
        <time>2023-04-10T07:48:16Z</time>
      </trkpt>
      <trkpt lat="48.14474" lon="-3.14579">
        <ele>234.8</ele>
        <time>2023-04-10T07:48:17Z</time>
      </trkpt>
      <trkpt lat="48.14472" lon="-3.14583">
        <ele>234.8</ele>
        <time>2023-04-10T07:48:18Z</time>
      </trkpt>
      <trkpt lat="48.1447" lon="-3.14586">
        <ele>235</ele>
        <time>2023-04-10T07:48:19Z</time>
      </trkpt>
      <trkpt lat="48.14468" lon="-3.14591">
        <ele>235.2</ele>
        <time>2023-04-10T07:48:20Z</time>
      </trkpt>
      <trkpt lat="48.14467" lon="-3.14596">
        <ele>235.4</ele>
        <time>2023-04-10T07:48:21Z</time>
      </trkpt>
      <trkpt lat="48.14466" lon="-3.14599">
        <ele>235.4</ele>
        <time>2023-04-10T07:48:22Z</time>
      </trkpt>
      <trkpt lat="48.14464" lon="-3.14604">
        <ele>235.4</ele>
        <time>2023-04-10T07:48:23Z</time>
      </trkpt>
      <trkpt lat="48.14462" lon="-3.14608">
        <ele>235.6</ele>
        <time>2023-04-10T07:48:24Z</time>
      </trkpt>
      <trkpt lat="48.1446" lon="-3.14611">
        <ele>235.6</ele>
        <time>2023-04-10T07:48:25Z</time>
      </trkpt>
      <trkpt lat="48.14458" lon="-3.14615">
        <ele>235.8</ele>
        <time>2023-04-10T07:48:26Z</time>
      </trkpt>
      <trkpt lat="48.14457" lon="-3.14617">
        <ele>235.8</ele>
        <time>2023-04-10T07:48:27Z</time>
      </trkpt>
      <trkpt lat="48.14454" lon="-3.14621">
        <ele>235.8</ele>
        <time>2023-04-10T07:48:28Z</time>
      </trkpt>
      <trkpt lat="48.14453" lon="-3.14626">
        <ele>235.8</ele>
        <time>2023-04-10T07:48:29Z</time>
      </trkpt>
      <trkpt lat="48.14453" lon="-3.14631">
        <ele>236</ele>
        <time>2023-04-10T07:48:30Z</time>
      </trkpt>
      <trkpt lat="48.14453" lon="-3.14637">
        <ele>236</ele>
        <time>2023-04-10T07:48:31Z</time>
      </trkpt>
      <trkpt lat="48.14452" lon="-3.14642">
        <ele>236</ele>
        <time>2023-04-10T07:48:32Z</time>
      </trkpt>
      <trkpt lat="48.14451" lon="-3.14647">
        <ele>236.2</ele>
        <time>2023-04-10T07:48:33Z</time>
      </trkpt>
      <trkpt lat="48.14449" lon="-3.1465">
        <ele>236.2</ele>
        <time>2023-04-10T07:48:34Z</time>
      </trkpt>
      <trkpt lat="48.14448" lon="-3.14654">
        <ele>236.2</ele>
        <time>2023-04-10T07:48:35Z</time>
      </trkpt>
      <trkpt lat="48.14446" lon="-3.14657">
        <ele>236.2</ele>
        <time>2023-04-10T07:48:36Z</time>
      </trkpt>
      <trkpt lat="48.14444" lon="-3.14661">
        <ele>236.2</ele>
        <time>2023-04-10T07:48:37Z</time>
      </trkpt>
      <trkpt lat="48.14443" lon="-3.14664">
        <ele>236.4</ele>
        <time>2023-04-10T07:48:38Z</time>
      </trkpt>
      <trkpt lat="48.14442" lon="-3.14666">
        <ele>236.4</ele>
        <time>2023-04-10T07:48:39Z</time>
      </trkpt>
      <trkpt lat="48.1444" lon="-3.14668">
        <ele>236.4</ele>
        <time>2023-04-10T07:48:40Z</time>
      </trkpt>
      <trkpt lat="48.14438" lon="-3.14669">
        <ele>236.6</ele>
        <time>2023-04-10T07:48:41Z</time>
      </trkpt>
      <trkpt lat="48.14436" lon="-3.14668">
        <ele>236.6</ele>
        <time>2023-04-10T07:48:42Z</time>
      </trkpt>
      <trkpt lat="48.14434" lon="-3.14668">
        <ele>236.6</ele>
        <time>2023-04-10T07:48:43Z</time>
      </trkpt>
      <trkpt lat="48.14433" lon="-3.14667">
        <ele>236.6</ele>
        <time>2023-04-10T07:48:44Z</time>
      </trkpt>
      <trkpt lat="48.1443" lon="-3.14667">
        <ele>236.8</ele>
        <time>2023-04-10T07:48:45Z</time>
      </trkpt>
      <trkpt lat="48.14428" lon="-3.14666">
        <ele>236.8</ele>
        <time>2023-04-10T07:48:46Z</time>
      </trkpt>
      <trkpt lat="48.14427" lon="-3.14665">
        <ele>236.8</ele>
        <time>2023-04-10T07:48:47Z</time>
      </trkpt>
      <trkpt lat="48.14423" lon="-3.14665">
        <ele>237</ele>
        <time>2023-04-10T07:48:49Z</time>
      </trkpt>
      <trkpt lat="48.14421" lon="-3.14667">
        <ele>237.2</ele>
        <time>2023-04-10T07:48:50Z</time>
      </trkpt>
      <trkpt lat="48.14419" lon="-3.14669">
        <ele>237.4</ele>
        <time>2023-04-10T07:48:51Z</time>
      </trkpt>
      <trkpt lat="48.14418" lon="-3.14672">
        <ele>237.6</ele>
        <time>2023-04-10T07:48:52Z</time>
      </trkpt>
      <trkpt lat="48.14416" lon="-3.14678">
        <ele>238</ele>
        <time>2023-04-10T07:48:54Z</time>
      </trkpt>
      <trkpt lat="48.14415" lon="-3.14681">
        <ele>238.2</ele>
        <time>2023-04-10T07:48:55Z</time>
      </trkpt>
      <trkpt lat="48.14414" lon="-3.14684">
        <ele>238.6</ele>
        <time>2023-04-10T07:48:56Z</time>
      </trkpt>
      <trkpt lat="48.14407" lon="-3.14695">
        <ele>239.4</ele>
        <time>2023-04-10T07:49:00Z</time>
      </trkpt>
      <trkpt lat="48.14405" lon="-3.14699">
        <ele>239.6</ele>
        <time>2023-04-10T07:49:01Z</time>
      </trkpt>
      <trkpt lat="48.14402" lon="-3.14702">
        <ele>239.8</ele>
        <time>2023-04-10T07:49:02Z</time>
      </trkpt>
      <trkpt lat="48.144" lon="-3.14704">
        <ele>240</ele>
        <time>2023-04-10T07:49:03Z</time>
      </trkpt>
      <trkpt lat="48.14399" lon="-3.14706">
        <ele>240</ele>
        <time>2023-04-10T07:49:04Z</time>
      </trkpt>
      <trkpt lat="48.14398" lon="-3.14709">
        <ele>240.2</ele>
        <time>2023-04-10T07:49:05Z</time>
      </trkpt>
      <trkpt lat="48.14396" lon="-3.14713">
        <ele>240.2</ele>
        <time>2023-04-10T07:49:06Z</time>
      </trkpt>
      <trkpt lat="48.14395" lon="-3.14716">
        <ele>240.4</ele>
        <time>2023-04-10T07:49:07Z</time>
      </trkpt>
      <trkpt lat="48.14393" lon="-3.14718">
        <ele>240.6</ele>
        <time>2023-04-10T07:49:08Z</time>
      </trkpt>
      <trkpt lat="48.14392" lon="-3.14721">
        <ele>240.6</ele>
        <time>2023-04-10T07:49:09Z</time>
      </trkpt>
      <trkpt lat="48.1439" lon="-3.14724">
        <ele>240.8</ele>
        <time>2023-04-10T07:49:10Z</time>
      </trkpt>
      <trkpt lat="48.14389" lon="-3.14727">
        <ele>240.8</ele>
        <time>2023-04-10T07:49:11Z</time>
      </trkpt>
      <trkpt lat="48.14387" lon="-3.1473">
        <ele>241</ele>
        <time>2023-04-10T07:49:12Z</time>
      </trkpt>
      <trkpt lat="48.14385" lon="-3.14733">
        <ele>241.2</ele>
        <time>2023-04-10T07:49:13Z</time>
      </trkpt>
      <trkpt lat="48.14384" lon="-3.14736">
        <ele>241.2</ele>
        <time>2023-04-10T07:49:14Z</time>
      </trkpt>
      <trkpt lat="48.14382" lon="-3.14738">
        <ele>241.4</ele>
        <time>2023-04-10T07:49:15Z</time>
      </trkpt>
      <trkpt lat="48.1438" lon="-3.14741">
        <ele>241.4</ele>
        <time>2023-04-10T07:49:16Z</time>
      </trkpt>
      <trkpt lat="48.14378" lon="-3.14743">
        <ele>241.6</ele>
        <time>2023-04-10T07:49:17Z</time>
      </trkpt>
      <trkpt lat="48.14377" lon="-3.14745">
        <ele>241.8</ele>
        <time>2023-04-10T07:49:18Z</time>
      </trkpt>
      <trkpt lat="48.14375" lon="-3.14748">
        <ele>241.8</ele>
        <time>2023-04-10T07:49:19Z</time>
      </trkpt>
      <trkpt lat="48.14374" lon="-3.14751">
        <ele>241.8</ele>
        <time>2023-04-10T07:49:20Z</time>
      </trkpt>
      <trkpt lat="48.14373" lon="-3.14754">
        <ele>242</ele>
        <time>2023-04-10T07:49:21Z</time>
      </trkpt>
      <trkpt lat="48.14371" lon="-3.14757">
        <ele>242.2</ele>
        <time>2023-04-10T07:49:22Z</time>
      </trkpt>
      <trkpt lat="48.14369" lon="-3.1476">
        <ele>242.6</ele>
        <time>2023-04-10T07:49:23Z</time>
      </trkpt>
      <trkpt lat="48.14367" lon="-3.14763">
        <ele>242.6</ele>
        <time>2023-04-10T07:49:24Z</time>
      </trkpt>
      <trkpt lat="48.14365" lon="-3.14764">
        <ele>242.8</ele>
        <time>2023-04-10T07:49:25Z</time>
      </trkpt>
      <trkpt lat="48.14363" lon="-3.14766">
        <ele>243</ele>
        <time>2023-04-10T07:49:26Z</time>
      </trkpt>
      <trkpt lat="48.14361" lon="-3.14768">
        <ele>243.4</ele>
        <time>2023-04-10T07:49:27Z</time>
      </trkpt>
      <trkpt lat="48.1436" lon="-3.14771">
        <ele>243.6</ele>
        <time>2023-04-10T07:49:28Z</time>
      </trkpt>
      <trkpt lat="48.14359" lon="-3.14774">
        <ele>243.8</ele>
        <time>2023-04-10T07:49:29Z</time>
      </trkpt>
      <trkpt lat="48.14357" lon="-3.14777">
        <ele>244</ele>
        <time>2023-04-10T07:49:30Z</time>
      </trkpt>
      <trkpt lat="48.14355" lon="-3.14779">
        <ele>244.2</ele>
        <time>2023-04-10T07:49:31Z</time>
      </trkpt>
      <trkpt lat="48.14353" lon="-3.1478">
        <ele>244.4</ele>
        <time>2023-04-10T07:49:32Z</time>
      </trkpt>
      <trkpt lat="48.14351" lon="-3.14781">
        <ele>244.4</ele>
        <time>2023-04-10T07:49:33Z</time>
      </trkpt>
      <trkpt lat="48.14349" lon="-3.14782">
        <ele>244.6</ele>
        <time>2023-04-10T07:49:34Z</time>
      </trkpt>
      <trkpt lat="48.14347" lon="-3.14783">
        <ele>244.8</ele>
        <time>2023-04-10T07:49:35Z</time>
      </trkpt>
      <trkpt lat="48.14344" lon="-3.14784">
        <ele>244.8</ele>
        <time>2023-04-10T07:49:36Z</time>
      </trkpt>
      <trkpt lat="48.14342" lon="-3.14784">
        <ele>245</ele>
        <time>2023-04-10T07:49:37Z</time>
      </trkpt>
      <trkpt lat="48.1434" lon="-3.14784">
        <ele>245.2</ele>
        <time>2023-04-10T07:49:38Z</time>
      </trkpt>
      <trkpt lat="48.14337" lon="-3.14783">
        <ele>245.4</ele>
        <time>2023-04-10T07:49:39Z</time>
      </trkpt>
      <trkpt lat="48.14335" lon="-3.14782">
        <ele>245.4</ele>
        <time>2023-04-10T07:49:40Z</time>
      </trkpt>
      <trkpt lat="48.14332" lon="-3.14782">
        <ele>245.8</ele>
        <time>2023-04-10T07:49:41Z</time>
      </trkpt>
      <trkpt lat="48.1433" lon="-3.1478">
        <ele>245.8</ele>
        <time>2023-04-10T07:49:42Z</time>
      </trkpt>
      <trkpt lat="48.14327" lon="-3.14779">
        <ele>246</ele>
        <time>2023-04-10T07:49:43Z</time>
      </trkpt>
      <trkpt lat="48.14325" lon="-3.14777">
        <ele>246.4</ele>
        <time>2023-04-10T07:49:44Z</time>
      </trkpt>
      <trkpt lat="48.14323" lon="-3.14776">
        <ele>246.6</ele>
        <time>2023-04-10T07:49:45Z</time>
      </trkpt>
      <trkpt lat="48.1432" lon="-3.14775">
        <ele>246.8</ele>
        <time>2023-04-10T07:49:46Z</time>
      </trkpt>
      <trkpt lat="48.14318" lon="-3.14774">
        <ele>246.8</ele>
        <time>2023-04-10T07:49:47Z</time>
      </trkpt>
      <trkpt lat="48.14316" lon="-3.14773">
        <ele>247</ele>
        <time>2023-04-10T07:49:48Z</time>
      </trkpt>
      <trkpt lat="48.14314" lon="-3.14771">
        <ele>247.2</ele>
        <time>2023-04-10T07:49:49Z</time>
      </trkpt>
      <trkpt lat="48.14312" lon="-3.1477">
        <ele>247.4</ele>
        <time>2023-04-10T07:49:50Z</time>
      </trkpt>
      <trkpt lat="48.1431" lon="-3.14769">
        <ele>247.4</ele>
        <time>2023-04-10T07:49:51Z</time>
      </trkpt>
      <trkpt lat="48.14307" lon="-3.14768">
        <ele>247.6</ele>
        <time>2023-04-10T07:49:52Z</time>
      </trkpt>
      <trkpt lat="48.14305" lon="-3.14767">
        <ele>247.8</ele>
        <time>2023-04-10T07:49:53Z</time>
      </trkpt>
      <trkpt lat="48.14303" lon="-3.14766">
        <ele>248</ele>
        <time>2023-04-10T07:49:54Z</time>
      </trkpt>
      <trkpt lat="48.143" lon="-3.14766">
        <ele>248.2</ele>
        <time>2023-04-10T07:49:55Z</time>
      </trkpt>
      <trkpt lat="48.14298" lon="-3.14765">
        <ele>248.6</ele>
        <time>2023-04-10T07:49:56Z</time>
      </trkpt>
      <trkpt lat="48.14296" lon="-3.14763">
        <ele>248.8</ele>
        <time>2023-04-10T07:49:57Z</time>
      </trkpt>
      <trkpt lat="48.14294" lon="-3.14762">
        <ele>249</ele>
        <time>2023-04-10T07:49:58Z</time>
      </trkpt>
      <trkpt lat="48.14291" lon="-3.1476">
        <ele>249.2</ele>
        <time>2023-04-10T07:49:59Z</time>
      </trkpt>
      <trkpt lat="48.14289" lon="-3.14759">
        <ele>249.2</ele>
        <time>2023-04-10T07:50:00Z</time>
      </trkpt>
      <trkpt lat="48.14287" lon="-3.14758">
        <ele>249.4</ele>
        <time>2023-04-10T07:50:01Z</time>
      </trkpt>
      <trkpt lat="48.14285" lon="-3.14756">
        <ele>249.8</ele>
        <time>2023-04-10T07:50:02Z</time>
      </trkpt>
      <trkpt lat="48.14282" lon="-3.14755">
        <ele>250.2</ele>
        <time>2023-04-10T07:50:03Z</time>
      </trkpt>
      <trkpt lat="48.1428" lon="-3.14754">
        <ele>250.2</ele>
        <time>2023-04-10T07:50:04Z</time>
      </trkpt>
      <trkpt lat="48.14278" lon="-3.14752">
        <ele>250.4</ele>
        <time>2023-04-10T07:50:05Z</time>
      </trkpt>
      <trkpt lat="48.14276" lon="-3.14751">
        <ele>250.6</ele>
        <time>2023-04-10T07:50:06Z</time>
      </trkpt>
      <trkpt lat="48.14274" lon="-3.1475">
        <ele>250.8</ele>
        <time>2023-04-10T07:50:07Z</time>
      </trkpt>
      <trkpt lat="48.14272" lon="-3.14749">
        <ele>251</ele>
        <time>2023-04-10T07:50:08Z</time>
      </trkpt>
      <trkpt lat="48.14269" lon="-3.14748">
        <ele>251.2</ele>
        <time>2023-04-10T07:50:09Z</time>
      </trkpt>
      <trkpt lat="48.14267" lon="-3.14746">
        <ele>251.4</ele>
        <time>2023-04-10T07:50:10Z</time>
      </trkpt>
      <trkpt lat="48.14265" lon="-3.14745">
        <ele>251.8</ele>
        <time>2023-04-10T07:50:11Z</time>
      </trkpt>
      <trkpt lat="48.14263" lon="-3.14744">
        <ele>252</ele>
        <time>2023-04-10T07:50:12Z</time>
      </trkpt>
      <trkpt lat="48.14261" lon="-3.14743">
        <ele>252.2</ele>
        <time>2023-04-10T07:50:13Z</time>
      </trkpt>
      <trkpt lat="48.14258" lon="-3.14741">
        <ele>252.4</ele>
        <time>2023-04-10T07:50:14Z</time>
      </trkpt>
      <trkpt lat="48.14256" lon="-3.14741">
        <ele>252.4</ele>
        <time>2023-04-10T07:50:15Z</time>
      </trkpt>
      <trkpt lat="48.14253" lon="-3.14739">
        <ele>252.8</ele>
        <time>2023-04-10T07:50:16Z</time>
      </trkpt>
      <trkpt lat="48.14252" lon="-3.14738">
        <ele>253</ele>
        <time>2023-04-10T07:50:17Z</time>
      </trkpt>
      <trkpt lat="48.14248" lon="-3.14737">
        <ele>253.2</ele>
        <time>2023-04-10T07:50:18Z</time>
      </trkpt>
      <trkpt lat="48.14247" lon="-3.14736">
        <ele>253.4</ele>
        <time>2023-04-10T07:50:19Z</time>
      </trkpt>
      <trkpt lat="48.14244" lon="-3.14734">
        <ele>253.4</ele>
        <time>2023-04-10T07:50:20Z</time>
      </trkpt>
      <trkpt lat="48.14242" lon="-3.14733">
        <ele>253.6</ele>
        <time>2023-04-10T07:50:21Z</time>
      </trkpt>
      <trkpt lat="48.14239" lon="-3.14732">
        <ele>253.6</ele>
        <time>2023-04-10T07:50:22Z</time>
      </trkpt>
      <trkpt lat="48.14237" lon="-3.14732">
        <ele>253.8</ele>
        <time>2023-04-10T07:50:23Z</time>
      </trkpt>
      <trkpt lat="48.14234" lon="-3.14732">
        <ele>254</ele>
        <time>2023-04-10T07:50:24Z</time>
      </trkpt>
      <trkpt lat="48.14231" lon="-3.14733">
        <ele>254.2</ele>
        <time>2023-04-10T07:50:25Z</time>
      </trkpt>
      <trkpt lat="48.14228" lon="-3.14734">
        <ele>254.2</ele>
        <time>2023-04-10T07:50:26Z</time>
      </trkpt>
      <trkpt lat="48.14226" lon="-3.14737">
        <ele>254.4</ele>
        <time>2023-04-10T07:50:27Z</time>
      </trkpt>
      <trkpt lat="48.14223" lon="-3.1474">
        <ele>254.6</ele>
        <time>2023-04-10T07:50:28Z</time>
      </trkpt>
      <trkpt lat="48.14221" lon="-3.14743">
        <ele>254.6</ele>
        <time>2023-04-10T07:50:29Z</time>
      </trkpt>
      <trkpt lat="48.14219" lon="-3.14746">
        <ele>254.8</ele>
        <time>2023-04-10T07:50:30Z</time>
      </trkpt>
      <trkpt lat="48.14217" lon="-3.14749">
        <ele>255</ele>
        <time>2023-04-10T07:50:31Z</time>
      </trkpt>
      <trkpt lat="48.14215" lon="-3.14753">
        <ele>255.2</ele>
        <time>2023-04-10T07:50:32Z</time>
      </trkpt>
      <trkpt lat="48.14213" lon="-3.14757">
        <ele>255.4</ele>
        <time>2023-04-10T07:50:33Z</time>
      </trkpt>
      <trkpt lat="48.14212" lon="-3.14761">
        <ele>255.6</ele>
        <time>2023-04-10T07:50:34Z</time>
      </trkpt>
      <trkpt lat="48.1421" lon="-3.14764">
        <ele>255.6</ele>
        <time>2023-04-10T07:50:35Z</time>
      </trkpt>
      <trkpt lat="48.14207" lon="-3.14766">
        <ele>255.8</ele>
        <time>2023-04-10T07:50:36Z</time>
      </trkpt>
      <trkpt lat="48.14205" lon="-3.14768">
        <ele>255.8</ele>
        <time>2023-04-10T07:50:37Z</time>
      </trkpt>
      <trkpt lat="48.14202" lon="-3.1477">
        <ele>256</ele>
        <time>2023-04-10T07:50:38Z</time>
      </trkpt>
      <trkpt lat="48.142" lon="-3.14772">
        <ele>256.2</ele>
        <time>2023-04-10T07:50:39Z</time>
      </trkpt>
      <trkpt lat="48.14198" lon="-3.14773">
        <ele>256.4</ele>
        <time>2023-04-10T07:50:40Z</time>
      </trkpt>
      <trkpt lat="48.14195" lon="-3.14775">
        <ele>256.6</ele>
        <time>2023-04-10T07:50:41Z</time>
      </trkpt>
      <trkpt lat="48.14192" lon="-3.14776">
        <ele>256.6</ele>
        <time>2023-04-10T07:50:42Z</time>
      </trkpt>
      <trkpt lat="48.14189" lon="-3.14778">
        <ele>256.8</ele>
        <time>2023-04-10T07:50:43Z</time>
      </trkpt>
      <trkpt lat="48.14185" lon="-3.1478">
        <ele>257</ele>
        <time>2023-04-10T07:50:44Z</time>
      </trkpt>
      <trkpt lat="48.14182" lon="-3.14781">
        <ele>257</ele>
        <time>2023-04-10T07:50:45Z</time>
      </trkpt>
      <trkpt lat="48.14179" lon="-3.14783">
        <ele>257.2</ele>
        <time>2023-04-10T07:50:46Z</time>
      </trkpt>
      <trkpt lat="48.14177" lon="-3.14786">
        <ele>257.4</ele>
        <time>2023-04-10T07:50:47Z</time>
      </trkpt>
      <trkpt lat="48.14174" lon="-3.14789">
        <ele>257.4</ele>
        <time>2023-04-10T07:50:48Z</time>
      </trkpt>
      <trkpt lat="48.14172" lon="-3.14791">
        <ele>257.4</ele>
        <time>2023-04-10T07:50:49Z</time>
      </trkpt>
      <trkpt lat="48.14169" lon="-3.14794">
        <ele>257.6</ele>
        <time>2023-04-10T07:50:50Z</time>
      </trkpt>
      <trkpt lat="48.14166" lon="-3.14797">
        <ele>257.6</ele>
        <time>2023-04-10T07:50:51Z</time>
      </trkpt>
      <trkpt lat="48.14163" lon="-3.148">
        <ele>257.8</ele>
        <time>2023-04-10T07:50:52Z</time>
      </trkpt>
      <trkpt lat="48.14161" lon="-3.14803">
        <ele>258</ele>
        <time>2023-04-10T07:50:53Z</time>
      </trkpt>
      <trkpt lat="48.14159" lon="-3.14807">
        <ele>258.2</ele>
        <time>2023-04-10T07:50:54Z</time>
      </trkpt>
      <trkpt lat="48.14157" lon="-3.14811">
        <ele>258.4</ele>
        <time>2023-04-10T07:50:55Z</time>
      </trkpt>
      <trkpt lat="48.14156" lon="-3.14814">
        <ele>258.4</ele>
        <time>2023-04-10T07:50:56Z</time>
      </trkpt>
      <trkpt lat="48.14155" lon="-3.14817">
        <ele>258.6</ele>
        <time>2023-04-10T07:50:57Z</time>
      </trkpt>
      <trkpt lat="48.14155" lon="-3.14821">
        <ele>258.6</ele>
        <time>2023-04-10T07:50:58Z</time>
      </trkpt>
      <trkpt lat="48.14154" lon="-3.14824">
        <ele>258.6</ele>
        <time>2023-04-10T07:50:59Z</time>
      </trkpt>
      <trkpt lat="48.14153" lon="-3.14827">
        <ele>258.6</ele>
        <time>2023-04-10T07:51:00Z</time>
      </trkpt>
      <trkpt lat="48.14153" lon="-3.14828">
        <ele>258.8</ele>
        <time>2023-04-10T07:51:01Z</time>
      </trkpt>
      <trkpt lat="48.14153" lon="-3.14829">
        <ele>258.8</ele>
        <time>2023-04-10T07:51:02Z</time>
      </trkpt>
      <trkpt lat="48.14153" lon="-3.1483">
        <ele>259</ele>
        <time>2023-04-10T07:51:03Z</time>
      </trkpt>
      <trkpt lat="48.14152" lon="-3.14832">
        <ele>259</ele>
        <time>2023-04-10T07:51:12Z</time>
      </trkpt>
      <trkpt lat="48.14151" lon="-3.14834">
        <ele>259.2</ele>
        <time>2023-04-10T07:51:13Z</time>
      </trkpt>
      <trkpt lat="48.1415" lon="-3.14839">
        <ele>259.2</ele>
        <time>2023-04-10T07:51:15Z</time>
      </trkpt>
      <trkpt lat="48.14149" lon="-3.14848">
        <ele>259.2</ele>
        <time>2023-04-10T07:51:18Z</time>
      </trkpt>
      <trkpt lat="48.14149" lon="-3.14851">
        <ele>259.2</ele>
        <time>2023-04-10T07:51:19Z</time>
      </trkpt>
      <trkpt lat="48.14148" lon="-3.14855">
        <ele>259.6</ele>
        <time>2023-04-10T07:51:20Z</time>
      </trkpt>
      <trkpt lat="48.14145" lon="-3.14863">
        <ele>259.6</ele>
        <time>2023-04-10T07:51:22Z</time>
      </trkpt>
      <trkpt lat="48.14143" lon="-3.14873">
        <ele>259.8</ele>
        <time>2023-04-10T07:51:25Z</time>
      </trkpt>
      <trkpt lat="48.14143" lon="-3.14876">
        <ele>259.8</ele>
        <time>2023-04-10T07:51:26Z</time>
      </trkpt>
      <trkpt lat="48.14144" lon="-3.14881">
        <ele>259.8</ele>
        <time>2023-04-10T07:51:27Z</time>
      </trkpt>
      <trkpt lat="48.14146" lon="-3.14884">
        <ele>260</ele>
        <time>2023-04-10T07:51:28Z</time>
      </trkpt>
      <trkpt lat="48.14147" lon="-3.14889">
        <ele>260</ele>
        <time>2023-04-10T07:51:29Z</time>
      </trkpt>
      <trkpt lat="48.14146" lon="-3.14893">
        <ele>260</ele>
        <time>2023-04-10T07:51:30Z</time>
      </trkpt>
      <trkpt lat="48.14144" lon="-3.14903">
        <ele>260</ele>
        <time>2023-04-10T07:51:32Z</time>
      </trkpt>
      <trkpt lat="48.14142" lon="-3.14909">
        <ele>260.2</ele>
        <time>2023-04-10T07:51:33Z</time>
      </trkpt>
      <trkpt lat="48.14142" lon="-3.14914">
        <ele>260.2</ele>
        <time>2023-04-10T07:51:34Z</time>
      </trkpt>
      <trkpt lat="48.14142" lon="-3.14917">
        <ele>260.2</ele>
        <time>2023-04-10T07:51:35Z</time>
      </trkpt>
      <trkpt lat="48.14142" lon="-3.1492">
        <ele>260.4</ele>
        <time>2023-04-10T07:51:36Z</time>
      </trkpt>
      <trkpt lat="48.14139" lon="-3.14928">
        <ele>260.8</ele>
        <time>2023-04-10T07:51:38Z</time>
      </trkpt>
      <trkpt lat="48.14138" lon="-3.14932">
        <ele>261</ele>
        <time>2023-04-10T07:51:39Z</time>
      </trkpt>
      <trkpt lat="48.14137" lon="-3.14935">
        <ele>261</ele>
        <time>2023-04-10T07:51:40Z</time>
      </trkpt>
      <trkpt lat="48.14136" lon="-3.14941">
        <ele>261.2</ele>
        <time>2023-04-10T07:51:42Z</time>
      </trkpt>
      <trkpt lat="48.14135" lon="-3.14944">
        <ele>261.4</ele>
        <time>2023-04-10T07:51:43Z</time>
      </trkpt>
      <trkpt lat="48.14135" lon="-3.14949">
        <ele>261.4</ele>
        <time>2023-04-10T07:51:44Z</time>
      </trkpt>
      <trkpt lat="48.14134" lon="-3.14954">
        <ele>261.4</ele>
        <time>2023-04-10T07:51:45Z</time>
      </trkpt>
      <trkpt lat="48.14134" lon="-3.14957">
        <ele>261.4</ele>
        <time>2023-04-10T07:51:46Z</time>
      </trkpt>
      <trkpt lat="48.14133" lon="-3.14959">
        <ele>261.6</ele>
        <time>2023-04-10T07:51:47Z</time>
      </trkpt>
      <trkpt lat="48.14129" lon="-3.1496">
        <ele>261.6</ele>
        <time>2023-04-10T07:51:48Z</time>
      </trkpt>
      <trkpt lat="48.14126" lon="-3.14962">
        <ele>261.8</ele>
        <time>2023-04-10T07:51:49Z</time>
      </trkpt>
      <trkpt lat="48.14126" lon="-3.14963">
        <ele>261.8</ele>
        <time>2023-04-10T07:51:50Z</time>
      </trkpt>
      <trkpt lat="48.14126" lon="-3.14964">
        <ele>261.8</ele>
        <time>2023-04-10T07:51:51Z</time>
      </trkpt>
      <trkpt lat="48.14126" lon="-3.14964">
        <ele>261.8</ele>
        <time>2023-04-10T07:51:52Z</time>
      </trkpt>
      <trkpt lat="48.14126" lon="-3.14964">
        <ele>261.8</ele>
        <time>2023-04-10T07:51:53Z</time>
      </trkpt>
      <trkpt lat="48.14127" lon="-3.14963">
        <ele>262</ele>
        <time>2023-04-10T07:51:55Z</time>
      </trkpt>
      <trkpt lat="48.14127" lon="-3.14962">
        <ele>262.2</ele>
        <time>2023-04-10T07:51:56Z</time>
      </trkpt>
      <trkpt lat="48.1413" lon="-3.14957">
        <ele>262.2</ele>
        <time>2023-04-10T07:51:58Z</time>
      </trkpt>
      <trkpt lat="48.14131" lon="-3.14953">
        <ele>262.2</ele>
        <time>2023-04-10T07:51:59Z</time>
      </trkpt>
      <trkpt lat="48.14132" lon="-3.14948">
        <ele>262.2</ele>
        <time>2023-04-10T07:52:00Z</time>
      </trkpt>
      <trkpt lat="48.14134" lon="-3.14943">
        <ele>262.2</ele>
        <time>2023-04-10T07:52:01Z</time>
      </trkpt>
      <trkpt lat="48.14135" lon="-3.14939">
        <ele>262.2</ele>
        <time>2023-04-10T07:52:02Z</time>
      </trkpt>
      <trkpt lat="48.14135" lon="-3.14935">
        <ele>262.2</ele>
        <time>2023-04-10T07:52:03Z</time>
      </trkpt>
      <trkpt lat="48.14135" lon="-3.14931">
        <ele>262.2</ele>
        <time>2023-04-10T07:52:04Z</time>
      </trkpt>
      <trkpt lat="48.14135" lon="-3.14928">
        <ele>262.2</ele>
        <time>2023-04-10T07:52:05Z</time>
      </trkpt>
      <trkpt lat="48.14136" lon="-3.14925">
        <ele>262</ele>
        <time>2023-04-10T07:52:06Z</time>
      </trkpt>
      <trkpt lat="48.14136" lon="-3.14922">
        <ele>262</ele>
        <time>2023-04-10T07:52:07Z</time>
      </trkpt>
      <trkpt lat="48.14138" lon="-3.14918">
        <ele>262</ele>
        <time>2023-04-10T07:52:08Z</time>
      </trkpt>
      <trkpt lat="48.14138" lon="-3.14915">
        <ele>261.8</ele>
        <time>2023-04-10T07:52:09Z</time>
      </trkpt>
      <trkpt lat="48.14139" lon="-3.14914">
        <ele>261.8</ele>
        <time>2023-04-10T07:52:10Z</time>
      </trkpt>
      <trkpt lat="48.14139" lon="-3.14914">
        <ele>261.8</ele>
        <time>2023-04-10T07:52:11Z</time>
      </trkpt>
      <trkpt lat="48.14139" lon="-3.14914">
        <ele>260.8</ele>
        <time>2023-04-10T07:52:20Z</time>
      </trkpt>
      <trkpt lat="48.14139" lon="-3.14915">
        <ele>260.8</ele>
        <time>2023-04-10T07:52:21Z</time>
      </trkpt>
      <trkpt lat="48.1414" lon="-3.14919">
        <ele>260.8</ele>
        <time>2023-04-10T07:52:24Z</time>
      </trkpt>
      <trkpt lat="48.1414" lon="-3.14921">
        <ele>260.6</ele>
        <time>2023-04-10T07:52:25Z</time>
      </trkpt>
      <trkpt lat="48.14139" lon="-3.14927">
        <ele>260.6</ele>
        <time>2023-04-10T07:52:27Z</time>
      </trkpt>
      <trkpt lat="48.14138" lon="-3.1493">
        <ele>260.6</ele>
        <time>2023-04-10T07:52:28Z</time>
      </trkpt>
      <trkpt lat="48.14137" lon="-3.14936">
        <ele>260.8</ele>
        <time>2023-04-10T07:52:30Z</time>
      </trkpt>
      <trkpt lat="48.14132" lon="-3.14953">
        <ele>261.2</ele>
        <time>2023-04-10T07:52:35Z</time>
      </trkpt>
      <trkpt lat="48.14132" lon="-3.14957">
        <ele>261.2</ele>
        <time>2023-04-10T07:52:36Z</time>
      </trkpt>
      <trkpt lat="48.1413" lon="-3.14961">
        <ele>261.2</ele>
        <time>2023-04-10T07:52:37Z</time>
      </trkpt>
      <trkpt lat="48.14128" lon="-3.14963">
        <ele>261.4</ele>
        <time>2023-04-10T07:52:38Z</time>
      </trkpt>
      <trkpt lat="48.14122" lon="-3.14963">
        <ele>261.6</ele>
        <time>2023-04-10T07:52:40Z</time>
      </trkpt>
      <trkpt lat="48.1412" lon="-3.14961">
        <ele>261.6</ele>
        <time>2023-04-10T07:52:41Z</time>
      </trkpt>
      <trkpt lat="48.14118" lon="-3.1496">
        <ele>261.8</ele>
        <time>2023-04-10T07:52:42Z</time>
      </trkpt>
      <trkpt lat="48.14116" lon="-3.14959">
        <ele>262</ele>
        <time>2023-04-10T07:52:43Z</time>
      </trkpt>
      <trkpt lat="48.14113" lon="-3.14959">
        <ele>262</ele>
        <time>2023-04-10T07:52:44Z</time>
      </trkpt>
      <trkpt lat="48.14106" lon="-3.14958">
        <ele>262.4</ele>
        <time>2023-04-10T07:52:47Z</time>
      </trkpt>
      <trkpt lat="48.14103" lon="-3.14957">
        <ele>262.4</ele>
        <time>2023-04-10T07:52:48Z</time>
      </trkpt>
      <trkpt lat="48.14092" lon="-3.14953">
        <ele>263</ele>
        <time>2023-04-10T07:52:52Z</time>
      </trkpt>
      <trkpt lat="48.14089" lon="-3.14953">
        <ele>263.2</ele>
        <time>2023-04-10T07:52:53Z</time>
      </trkpt>
      <trkpt lat="48.1408" lon="-3.14951">
        <ele>264</ele>
        <time>2023-04-10T07:52:56Z</time>
      </trkpt>
      <trkpt lat="48.14077" lon="-3.1495">
        <ele>264.2</ele>
        <time>2023-04-10T07:52:57Z</time>
      </trkpt>
      <trkpt lat="48.1407" lon="-3.14948">
        <ele>264.4</ele>
        <time>2023-04-10T07:53:00Z</time>
      </trkpt>
      <trkpt lat="48.14068" lon="-3.14947">
        <ele>264.4</ele>
        <time>2023-04-10T07:53:01Z</time>
      </trkpt>
      <trkpt lat="48.14064" lon="-3.14947">
        <ele>264.4</ele>
        <time>2023-04-10T07:53:02Z</time>
      </trkpt>
      <trkpt lat="48.14061" lon="-3.14946">
        <ele>264.4</ele>
        <time>2023-04-10T07:53:03Z</time>
      </trkpt>
      <trkpt lat="48.14057" lon="-3.14945">
        <ele>264.6</ele>
        <time>2023-04-10T07:53:04Z</time>
      </trkpt>
      <trkpt lat="48.14054" lon="-3.14944">
        <ele>264.6</ele>
        <time>2023-04-10T07:53:05Z</time>
      </trkpt>
      <trkpt lat="48.14051" lon="-3.14944">
        <ele>264.6</ele>
        <time>2023-04-10T07:53:06Z</time>
      </trkpt>
      <trkpt lat="48.14048" lon="-3.14944">
        <ele>264.6</ele>
        <time>2023-04-10T07:53:07Z</time>
      </trkpt>
      <trkpt lat="48.14044" lon="-3.14943">
        <ele>264.6</ele>
        <time>2023-04-10T07:53:08Z</time>
      </trkpt>
      <trkpt lat="48.14041" lon="-3.14942">
        <ele>264.6</ele>
        <time>2023-04-10T07:53:09Z</time>
      </trkpt>
      <trkpt lat="48.14038" lon="-3.14942">
        <ele>264.6</ele>
        <time>2023-04-10T07:53:10Z</time>
      </trkpt>
      <trkpt lat="48.14035" lon="-3.14941">
        <ele>264.6</ele>
        <time>2023-04-10T07:53:11Z</time>
      </trkpt>
      <trkpt lat="48.14032" lon="-3.1494">
        <ele>264.6</ele>
        <time>2023-04-10T07:53:12Z</time>
      </trkpt>
      <trkpt lat="48.14025" lon="-3.14938">
        <ele>264.6</ele>
        <time>2023-04-10T07:53:14Z</time>
      </trkpt>
      <trkpt lat="48.14021" lon="-3.14938">
        <ele>264.6</ele>
        <time>2023-04-10T07:53:15Z</time>
      </trkpt>
      <trkpt lat="48.14017" lon="-3.14937">
        <ele>264.6</ele>
        <time>2023-04-10T07:53:16Z</time>
      </trkpt>
      <trkpt lat="48.14013" lon="-3.14936">
        <ele>264.6</ele>
        <time>2023-04-10T07:53:17Z</time>
      </trkpt>
      <trkpt lat="48.14008" lon="-3.14939">
        <ele>264.6</ele>
        <time>2023-04-10T07:53:19Z</time>
      </trkpt>
      <trkpt lat="48.14005" lon="-3.14948">
        <ele>264.4</ele>
        <time>2023-04-10T07:53:21Z</time>
      </trkpt>
      <trkpt lat="48.14003" lon="-3.1496">
        <ele>264.4</ele>
        <time>2023-04-10T07:53:23Z</time>
      </trkpt>
      <trkpt lat="48.14003" lon="-3.14966">
        <ele>264.4</ele>
        <time>2023-04-10T07:53:24Z</time>
      </trkpt>
      <trkpt lat="48.14003" lon="-3.1497">
        <ele>264.4</ele>
        <time>2023-04-10T07:53:25Z</time>
      </trkpt>
      <trkpt lat="48.14001" lon="-3.14979">
        <ele>264.6</ele>
        <time>2023-04-10T07:53:27Z</time>
      </trkpt>
      <trkpt lat="48.13997" lon="-3.14983">
        <ele>264.6</ele>
        <time>2023-04-10T07:53:28Z</time>
      </trkpt>
      <trkpt lat="48.13997" lon="-3.14989">
        <ele>264.6</ele>
        <time>2023-04-10T07:53:29Z</time>
      </trkpt>
      <trkpt lat="48.13997" lon="-3.15007">
        <ele>264.6</ele>
        <time>2023-04-10T07:53:32Z</time>
      </trkpt>
      <trkpt lat="48.13997" lon="-3.15012">
        <ele>264.6</ele>
        <time>2023-04-10T07:53:33Z</time>
      </trkpt>
      <trkpt lat="48.13996" lon="-3.15018">
        <ele>264.8</ele>
        <time>2023-04-10T07:53:34Z</time>
      </trkpt>
      <trkpt lat="48.13996" lon="-3.15025">
        <ele>264.8</ele>
        <time>2023-04-10T07:53:35Z</time>
      </trkpt>
      <trkpt lat="48.13995" lon="-3.15031">
        <ele>264.8</ele>
        <time>2023-04-10T07:53:36Z</time>
      </trkpt>
      <trkpt lat="48.13994" lon="-3.15038">
        <ele>264.8</ele>
        <time>2023-04-10T07:53:37Z</time>
      </trkpt>
      <trkpt lat="48.13993" lon="-3.15044">
        <ele>264.8</ele>
        <time>2023-04-10T07:53:38Z</time>
      </trkpt>
      <trkpt lat="48.13992" lon="-3.1505">
        <ele>264.8</ele>
        <time>2023-04-10T07:53:39Z</time>
      </trkpt>
      <trkpt lat="48.13992" lon="-3.15061">
        <ele>264.8</ele>
        <time>2023-04-10T07:53:41Z</time>
      </trkpt>
      <trkpt lat="48.13992" lon="-3.15068">
        <ele>264.8</ele>
        <time>2023-04-10T07:53:42Z</time>
      </trkpt>
      <trkpt lat="48.13991" lon="-3.15079">
        <ele>264.8</ele>
        <time>2023-04-10T07:53:44Z</time>
      </trkpt>
      <trkpt lat="48.1399" lon="-3.15093">
        <ele>264.8</ele>
        <time>2023-04-10T07:53:47Z</time>
      </trkpt>
      <trkpt lat="48.13986" lon="-3.15109">
        <ele>264.2</ele>
        <time>2023-04-10T07:53:50Z</time>
      </trkpt>
      <trkpt lat="48.13985" lon="-3.1512">
        <ele>263.8</ele>
        <time>2023-04-10T07:53:52Z</time>
      </trkpt>
      <trkpt lat="48.13985" lon="-3.15126">
        <ele>263.6</ele>
        <time>2023-04-10T07:53:53Z</time>
      </trkpt>
      <trkpt lat="48.13983" lon="-3.1514">
        <ele>263.6</ele>
        <time>2023-04-10T07:53:55Z</time>
      </trkpt>
      <trkpt lat="48.13983" lon="-3.15148">
        <ele>263.2</ele>
        <time>2023-04-10T07:53:56Z</time>
      </trkpt>
      <trkpt lat="48.13983" lon="-3.15154">
        <ele>263.4</ele>
        <time>2023-04-10T07:53:57Z</time>
      </trkpt>
      <trkpt lat="48.13982" lon="-3.15161">
        <ele>263.2</ele>
        <time>2023-04-10T07:53:58Z</time>
      </trkpt>
      <trkpt lat="48.13982" lon="-3.15168">
        <ele>262.6</ele>
        <time>2023-04-10T07:53:59Z</time>
      </trkpt>
      <trkpt lat="48.13982" lon="-3.15176">
        <ele>262.4</ele>
        <time>2023-04-10T07:54:00Z</time>
      </trkpt>
      <trkpt lat="48.13983" lon="-3.15183">
        <ele>262</ele>
        <time>2023-04-10T07:54:01Z</time>
      </trkpt>
      <trkpt lat="48.13983" lon="-3.15191">
        <ele>261.2</ele>
        <time>2023-04-10T07:54:02Z</time>
      </trkpt>
      <trkpt lat="48.13983" lon="-3.15199">
        <ele>260.6</ele>
        <time>2023-04-10T07:54:03Z</time>
      </trkpt>
      <trkpt lat="48.13982" lon="-3.15208">
        <ele>260.4</ele>
        <time>2023-04-10T07:54:04Z</time>
      </trkpt>
      <trkpt lat="48.13981" lon="-3.15216">
        <ele>260.4</ele>
        <time>2023-04-10T07:54:05Z</time>
      </trkpt>
      <trkpt lat="48.1398" lon="-3.15223">
        <ele>259.8</ele>
        <time>2023-04-10T07:54:06Z</time>
      </trkpt>
      <trkpt lat="48.1398" lon="-3.15228">
        <ele>259.6</ele>
        <time>2023-04-10T07:54:07Z</time>
      </trkpt>
      <trkpt lat="48.13982" lon="-3.15231">
        <ele>259.4</ele>
        <time>2023-04-10T07:54:08Z</time>
      </trkpt>
      <trkpt lat="48.13983" lon="-3.15234">
        <ele>259</ele>
        <time>2023-04-10T07:54:09Z</time>
      </trkpt>
      <trkpt lat="48.13987" lon="-3.15236">
        <ele>258.2</ele>
        <time>2023-04-10T07:54:10Z</time>
      </trkpt>
      <trkpt lat="48.1399" lon="-3.15237">
        <ele>257.8</ele>
        <time>2023-04-10T07:54:11Z</time>
      </trkpt>
      <trkpt lat="48.13997" lon="-3.15237">
        <ele>256.8</ele>
        <time>2023-04-10T07:54:13Z</time>
      </trkpt>
      <trkpt lat="48.14001" lon="-3.15238">
        <ele>256.4</ele>
        <time>2023-04-10T07:54:14Z</time>
      </trkpt>
      <trkpt lat="48.14008" lon="-3.15238">
        <ele>256.2</ele>
        <time>2023-04-10T07:54:15Z</time>
      </trkpt>
      <trkpt lat="48.14014" lon="-3.15239">
        <ele>255.8</ele>
        <time>2023-04-10T07:54:16Z</time>
      </trkpt>
      <trkpt lat="48.14021" lon="-3.1524">
        <ele>255.2</ele>
        <time>2023-04-10T07:54:17Z</time>
      </trkpt>
      <trkpt lat="48.14049" lon="-3.15241">
        <ele>254.8</ele>
        <time>2023-04-10T07:54:21Z</time>
      </trkpt>
      <trkpt lat="48.14056" lon="-3.1524">
        <ele>254.6</ele>
        <time>2023-04-10T07:54:22Z</time>
      </trkpt>
      <trkpt lat="48.14093" lon="-3.15243">
        <ele>254.6</ele>
        <time>2023-04-10T07:54:27Z</time>
      </trkpt>
      <trkpt lat="48.141" lon="-3.15242">
        <ele>254.6</ele>
        <time>2023-04-10T07:54:28Z</time>
      </trkpt>
      <trkpt lat="48.14106" lon="-3.15242">
        <ele>254.6</ele>
        <time>2023-04-10T07:54:29Z</time>
      </trkpt>
      <trkpt lat="48.14113" lon="-3.15242">
        <ele>254.6</ele>
        <time>2023-04-10T07:54:30Z</time>
      </trkpt>
      <trkpt lat="48.14119" lon="-3.15242">
        <ele>254.6</ele>
        <time>2023-04-10T07:54:31Z</time>
      </trkpt>
      <trkpt lat="48.14165" lon="-3.15242">
        <ele>254.6</ele>
        <time>2023-04-10T07:54:38Z</time>
      </trkpt>
      <trkpt lat="48.14172" lon="-3.15242">
        <ele>254.6</ele>
        <time>2023-04-10T07:54:39Z</time>
      </trkpt>
      <trkpt lat="48.14227" lon="-3.15242">
        <ele>254.2</ele>
        <time>2023-04-10T07:54:47Z</time>
      </trkpt>
      <trkpt lat="48.14234" lon="-3.15243">
        <ele>254.2</ele>
        <time>2023-04-10T07:54:48Z</time>
      </trkpt>
      <trkpt lat="48.14248" lon="-3.15243">
        <ele>254.2</ele>
        <time>2023-04-10T07:54:50Z</time>
      </trkpt>
      <trkpt lat="48.14254" lon="-3.15243">
        <ele>254.2</ele>
        <time>2023-04-10T07:54:51Z</time>
      </trkpt>
      <trkpt lat="48.14261" lon="-3.15242">
        <ele>254.2</ele>
        <time>2023-04-10T07:54:52Z</time>
      </trkpt>
      <trkpt lat="48.14267" lon="-3.15243">
        <ele>254.2</ele>
        <time>2023-04-10T07:54:53Z</time>
      </trkpt>
      <trkpt lat="48.14273" lon="-3.15244">
        <ele>254.2</ele>
        <time>2023-04-10T07:54:54Z</time>
      </trkpt>
      <trkpt lat="48.14279" lon="-3.15246">
        <ele>254.2</ele>
        <time>2023-04-10T07:54:55Z</time>
      </trkpt>
      <trkpt lat="48.14285" lon="-3.15249">
        <ele>254.2</ele>
        <time>2023-04-10T07:54:56Z</time>
      </trkpt>
      <trkpt lat="48.1429" lon="-3.15255">
        <ele>254.2</ele>
        <time>2023-04-10T07:54:57Z</time>
      </trkpt>
      <trkpt lat="48.14294" lon="-3.1526">
        <ele>254.2</ele>
        <time>2023-04-10T07:54:58Z</time>
      </trkpt>
      <trkpt lat="48.14298" lon="-3.15265">
        <ele>254.2</ele>
        <time>2023-04-10T07:54:59Z</time>
      </trkpt>
      <trkpt lat="48.14301" lon="-3.1527">
        <ele>254.4</ele>
        <time>2023-04-10T07:55:00Z</time>
      </trkpt>
      <trkpt lat="48.14305" lon="-3.15275">
        <ele>254.4</ele>
        <time>2023-04-10T07:55:01Z</time>
      </trkpt>
      <trkpt lat="48.14308" lon="-3.15279">
        <ele>254.4</ele>
        <time>2023-04-10T07:55:02Z</time>
      </trkpt>
      <trkpt lat="48.14312" lon="-3.15284">
        <ele>254.4</ele>
        <time>2023-04-10T07:55:03Z</time>
      </trkpt>
      <trkpt lat="48.14316" lon="-3.15289">
        <ele>254.4</ele>
        <time>2023-04-10T07:55:04Z</time>
      </trkpt>
      <trkpt lat="48.1432" lon="-3.15295">
        <ele>254.4</ele>
        <time>2023-04-10T07:55:05Z</time>
      </trkpt>
      <trkpt lat="48.14323" lon="-3.15299">
        <ele>254.4</ele>
        <time>2023-04-10T07:55:06Z</time>
      </trkpt>
      <trkpt lat="48.14326" lon="-3.15303">
        <ele>254.4</ele>
        <time>2023-04-10T07:55:07Z</time>
      </trkpt>
      <trkpt lat="48.1433" lon="-3.15307">
        <ele>254.4</ele>
        <time>2023-04-10T07:55:08Z</time>
      </trkpt>
      <trkpt lat="48.14333" lon="-3.15312">
        <ele>254.4</ele>
        <time>2023-04-10T07:55:09Z</time>
      </trkpt>
      <trkpt lat="48.14337" lon="-3.15316">
        <ele>254.4</ele>
        <time>2023-04-10T07:55:10Z</time>
      </trkpt>
      <trkpt lat="48.14341" lon="-3.15319">
        <ele>254.4</ele>
        <time>2023-04-10T07:55:11Z</time>
      </trkpt>
      <trkpt lat="48.14351" lon="-3.1533">
        <ele>254.6</ele>
        <time>2023-04-10T07:55:14Z</time>
      </trkpt>
      <trkpt lat="48.14355" lon="-3.15334">
        <ele>254.6</ele>
        <time>2023-04-10T07:55:15Z</time>
      </trkpt>
      <trkpt lat="48.14359" lon="-3.15337">
        <ele>254.4</ele>
        <time>2023-04-10T07:55:16Z</time>
      </trkpt>
      <trkpt lat="48.14362" lon="-3.1534">
        <ele>254.4</ele>
        <time>2023-04-10T07:55:17Z</time>
      </trkpt>
      <trkpt lat="48.14366" lon="-3.15343">
        <ele>254.4</ele>
        <time>2023-04-10T07:55:18Z</time>
      </trkpt>
      <trkpt lat="48.14374" lon="-3.15348">
        <ele>254.4</ele>
        <time>2023-04-10T07:55:20Z</time>
      </trkpt>
      <trkpt lat="48.14386" lon="-3.15356">
        <ele>254.6</ele>
        <time>2023-04-10T07:55:23Z</time>
      </trkpt>
      <trkpt lat="48.14389" lon="-3.15358">
        <ele>254.8</ele>
        <time>2023-04-10T07:55:24Z</time>
      </trkpt>
      <trkpt lat="48.14393" lon="-3.15361">
        <ele>254.8</ele>
        <time>2023-04-10T07:55:25Z</time>
      </trkpt>
      <trkpt lat="48.14396" lon="-3.15363">
        <ele>254.8</ele>
        <time>2023-04-10T07:55:26Z</time>
      </trkpt>
      <trkpt lat="48.14399" lon="-3.15365">
        <ele>254.8</ele>
        <time>2023-04-10T07:55:27Z</time>
      </trkpt>
      <trkpt lat="48.14402" lon="-3.15367">
        <ele>255</ele>
        <time>2023-04-10T07:55:28Z</time>
      </trkpt>
      <trkpt lat="48.14405" lon="-3.1537">
        <ele>255</ele>
        <time>2023-04-10T07:55:29Z</time>
      </trkpt>
      <trkpt lat="48.14407" lon="-3.15372">
        <ele>255.2</ele>
        <time>2023-04-10T07:55:30Z</time>
      </trkpt>
      <trkpt lat="48.1441" lon="-3.15374">
        <ele>255.2</ele>
        <time>2023-04-10T07:55:31Z</time>
      </trkpt>
      <trkpt lat="48.14413" lon="-3.15376">
        <ele>255.2</ele>
        <time>2023-04-10T07:55:32Z</time>
      </trkpt>
      <trkpt lat="48.14416" lon="-3.15378">
        <ele>255.4</ele>
        <time>2023-04-10T07:55:33Z</time>
      </trkpt>
      <trkpt lat="48.14425" lon="-3.15385">
        <ele>255.8</ele>
        <time>2023-04-10T07:55:36Z</time>
      </trkpt>
      <trkpt lat="48.14429" lon="-3.15389">
        <ele>256</ele>
        <time>2023-04-10T07:55:38Z</time>
      </trkpt>
      <trkpt lat="48.14432" lon="-3.15391">
        <ele>256</ele>
        <time>2023-04-10T07:55:39Z</time>
      </trkpt>
      <trkpt lat="48.14435" lon="-3.15394">
        <ele>256.2</ele>
        <time>2023-04-10T07:55:40Z</time>
      </trkpt>
      <trkpt lat="48.14438" lon="-3.15396">
        <ele>256.4</ele>
        <time>2023-04-10T07:55:41Z</time>
      </trkpt>
      <trkpt lat="48.14441" lon="-3.15397">
        <ele>256.6</ele>
        <time>2023-04-10T07:55:42Z</time>
      </trkpt>
      <trkpt lat="48.14446" lon="-3.154">
        <ele>257</ele>
        <time>2023-04-10T07:55:44Z</time>
      </trkpt>
      <trkpt lat="48.14455" lon="-3.15406">
        <ele>257.4</ele>
        <time>2023-04-10T07:55:48Z</time>
      </trkpt>
      <trkpt lat="48.14462" lon="-3.15411">
        <ele>257.4</ele>
        <time>2023-04-10T07:55:50Z</time>
      </trkpt>
      <trkpt lat="48.14466" lon="-3.15414">
        <ele>257.8</ele>
        <time>2023-04-10T07:55:51Z</time>
      </trkpt>
      <trkpt lat="48.14469" lon="-3.15417">
        <ele>257.8</ele>
        <time>2023-04-10T07:55:52Z</time>
      </trkpt>
      <trkpt lat="48.14472" lon="-3.15418">
        <ele>258</ele>
        <time>2023-04-10T07:55:53Z</time>
      </trkpt>
      <trkpt lat="48.14475" lon="-3.1542">
        <ele>258.2</ele>
        <time>2023-04-10T07:55:54Z</time>
      </trkpt>
      <trkpt lat="48.14479" lon="-3.15423">
        <ele>258.2</ele>
        <time>2023-04-10T07:55:55Z</time>
      </trkpt>
      <trkpt lat="48.14482" lon="-3.15424">
        <ele>258.2</ele>
        <time>2023-04-10T07:55:56Z</time>
      </trkpt>
      <trkpt lat="48.14486" lon="-3.15427">
        <ele>258.4</ele>
        <time>2023-04-10T07:55:57Z</time>
      </trkpt>
      <trkpt lat="48.14489" lon="-3.15429">
        <ele>258.6</ele>
        <time>2023-04-10T07:55:58Z</time>
      </trkpt>
      <trkpt lat="48.14491" lon="-3.15432">
        <ele>259</ele>
        <time>2023-04-10T07:55:59Z</time>
      </trkpt>
      <trkpt lat="48.14495" lon="-3.15434">
        <ele>259</ele>
        <time>2023-04-10T07:56:00Z</time>
      </trkpt>
      <trkpt lat="48.14497" lon="-3.15436">
        <ele>259.2</ele>
        <time>2023-04-10T07:56:01Z</time>
      </trkpt>
      <trkpt lat="48.145" lon="-3.15438">
        <ele>259.2</ele>
        <time>2023-04-10T07:56:02Z</time>
      </trkpt>
      <trkpt lat="48.14504" lon="-3.15441">
        <ele>259.4</ele>
        <time>2023-04-10T07:56:03Z</time>
      </trkpt>
      <trkpt lat="48.14507" lon="-3.15442">
        <ele>259.6</ele>
        <time>2023-04-10T07:56:04Z</time>
      </trkpt>
      <trkpt lat="48.1451" lon="-3.15443">
        <ele>259.6</ele>
        <time>2023-04-10T07:56:05Z</time>
      </trkpt>
      <trkpt lat="48.14513" lon="-3.15445">
        <ele>259.8</ele>
        <time>2023-04-10T07:56:06Z</time>
      </trkpt>
      <trkpt lat="48.14515" lon="-3.15446">
        <ele>260</ele>
        <time>2023-04-10T07:56:07Z</time>
      </trkpt>
      <trkpt lat="48.14519" lon="-3.15448">
        <ele>260</ele>
        <time>2023-04-10T07:56:08Z</time>
      </trkpt>
      <trkpt lat="48.14521" lon="-3.15449">
        <ele>260.4</ele>
        <time>2023-04-10T07:56:09Z</time>
      </trkpt>
      <trkpt lat="48.14524" lon="-3.1545">
        <ele>260.6</ele>
        <time>2023-04-10T07:56:10Z</time>
      </trkpt>
      <trkpt lat="48.14527" lon="-3.15452">
        <ele>260.6</ele>
        <time>2023-04-10T07:56:11Z</time>
      </trkpt>
      <trkpt lat="48.1453" lon="-3.15455">
        <ele>260.8</ele>
        <time>2023-04-10T07:56:12Z</time>
      </trkpt>
      <trkpt lat="48.14533" lon="-3.15457">
        <ele>260.8</ele>
        <time>2023-04-10T07:56:13Z</time>
      </trkpt>
      <trkpt lat="48.14536" lon="-3.15458">
        <ele>261</ele>
        <time>2023-04-10T07:56:14Z</time>
      </trkpt>
      <trkpt lat="48.1454" lon="-3.15459">
        <ele>261</ele>
        <time>2023-04-10T07:56:15Z</time>
      </trkpt>
      <trkpt lat="48.14544" lon="-3.1546">
        <ele>261</ele>
        <time>2023-04-10T07:56:16Z</time>
      </trkpt>
      <trkpt lat="48.14548" lon="-3.15461">
        <ele>261.2</ele>
        <time>2023-04-10T07:56:17Z</time>
      </trkpt>
      <trkpt lat="48.14552" lon="-3.15462">
        <ele>261.2</ele>
        <time>2023-04-10T07:56:18Z</time>
      </trkpt>
      <trkpt lat="48.14557" lon="-3.15463">
        <ele>261.2</ele>
        <time>2023-04-10T07:56:19Z</time>
      </trkpt>
      <trkpt lat="48.14562" lon="-3.15465">
        <ele>261.2</ele>
        <time>2023-04-10T07:56:20Z</time>
      </trkpt>
      <trkpt lat="48.14566" lon="-3.15466">
        <ele>261.2</ele>
        <time>2023-04-10T07:56:21Z</time>
      </trkpt>
      <trkpt lat="48.14572" lon="-3.15467">
        <ele>261.2</ele>
        <time>2023-04-10T07:56:22Z</time>
      </trkpt>
      <trkpt lat="48.14577" lon="-3.15468">
        <ele>261.2</ele>
        <time>2023-04-10T07:56:23Z</time>
      </trkpt>
      <trkpt lat="48.14583" lon="-3.15469">
        <ele>261.2</ele>
        <time>2023-04-10T07:56:24Z</time>
      </trkpt>
      <trkpt lat="48.1459" lon="-3.15471">
        <ele>261.2</ele>
        <time>2023-04-10T07:56:25Z</time>
      </trkpt>
      <trkpt lat="48.14594" lon="-3.15472">
        <ele>261.2</ele>
        <time>2023-04-10T07:56:26Z</time>
      </trkpt>
      <trkpt lat="48.14599" lon="-3.15472">
        <ele>261.2</ele>
        <time>2023-04-10T07:56:27Z</time>
      </trkpt>
      <trkpt lat="48.14604" lon="-3.15472">
        <ele>261</ele>
        <time>2023-04-10T07:56:28Z</time>
      </trkpt>
      <trkpt lat="48.14608" lon="-3.15471">
        <ele>260.8</ele>
        <time>2023-04-10T07:56:29Z</time>
      </trkpt>
      <trkpt lat="48.14612" lon="-3.15469">
        <ele>260.8</ele>
        <time>2023-04-10T07:56:30Z</time>
      </trkpt>
      <trkpt lat="48.14615" lon="-3.15466">
        <ele>260.4</ele>
        <time>2023-04-10T07:56:31Z</time>
      </trkpt>
      <trkpt lat="48.14617" lon="-3.15465">
        <ele>260.2</ele>
        <time>2023-04-10T07:56:32Z</time>
      </trkpt>
      <trkpt lat="48.1462" lon="-3.15463">
        <ele>260</ele>
        <time>2023-04-10T07:56:33Z</time>
      </trkpt>
      <trkpt lat="48.14622" lon="-3.15461">
        <ele>259.6</ele>
        <time>2023-04-10T07:56:34Z</time>
      </trkpt>
      <trkpt lat="48.14624" lon="-3.1546">
        <ele>259</ele>
        <time>2023-04-10T07:56:35Z</time>
      </trkpt>
      <trkpt lat="48.14627" lon="-3.15461">
        <ele>258.6</ele>
        <time>2023-04-10T07:56:36Z</time>
      </trkpt>
      <trkpt lat="48.1463" lon="-3.15463">
        <ele>258.4</ele>
        <time>2023-04-10T07:56:37Z</time>
      </trkpt>
      <trkpt lat="48.14634" lon="-3.15466">
        <ele>258.2</ele>
        <time>2023-04-10T07:56:38Z</time>
      </trkpt>
      <trkpt lat="48.14637" lon="-3.15471">
        <ele>258.2</ele>
        <time>2023-04-10T07:56:39Z</time>
      </trkpt>
      <trkpt lat="48.14639" lon="-3.15477">
        <ele>258.2</ele>
        <time>2023-04-10T07:56:40Z</time>
      </trkpt>
      <trkpt lat="48.14643" lon="-3.15481">
        <ele>258.2</ele>
        <time>2023-04-10T07:56:41Z</time>
      </trkpt>
      <trkpt lat="48.14646" lon="-3.15485">
        <ele>258.2</ele>
        <time>2023-04-10T07:56:42Z</time>
      </trkpt>
      <trkpt lat="48.14665" lon="-3.15509">
        <ele>258.2</ele>
        <time>2023-04-10T07:56:47Z</time>
      </trkpt>
      <trkpt lat="48.14669" lon="-3.15513">
        <ele>258.2</ele>
        <time>2023-04-10T07:56:48Z</time>
      </trkpt>
      <trkpt lat="48.1468" lon="-3.15527">
        <ele>258.2</ele>
        <time>2023-04-10T07:56:51Z</time>
      </trkpt>
      <trkpt lat="48.14684" lon="-3.15531">
        <ele>258.2</ele>
        <time>2023-04-10T07:56:52Z</time>
      </trkpt>
      <trkpt lat="48.14688" lon="-3.15535">
        <ele>258.4</ele>
        <time>2023-04-10T07:56:53Z</time>
      </trkpt>
      <trkpt lat="48.14706" lon="-3.15555">
        <ele>258.6</ele>
        <time>2023-04-10T07:56:58Z</time>
      </trkpt>
      <trkpt lat="48.1471" lon="-3.15559">
        <ele>259</ele>
        <time>2023-04-10T07:56:59Z</time>
      </trkpt>
      <trkpt lat="48.14714" lon="-3.15564">
        <ele>259.2</ele>
        <time>2023-04-10T07:57:00Z</time>
      </trkpt>
      <trkpt lat="48.14717" lon="-3.15568">
        <ele>259.4</ele>
        <time>2023-04-10T07:57:01Z</time>
      </trkpt>
      <trkpt lat="48.14721" lon="-3.15572">
        <ele>259.4</ele>
        <time>2023-04-10T07:57:02Z</time>
      </trkpt>
      <trkpt lat="48.14724" lon="-3.15576">
        <ele>259.4</ele>
        <time>2023-04-10T07:57:03Z</time>
      </trkpt>
      <trkpt lat="48.14728" lon="-3.1558">
        <ele>259.6</ele>
        <time>2023-04-10T07:57:04Z</time>
      </trkpt>
      <trkpt lat="48.14731" lon="-3.15584">
        <ele>259.6</ele>
        <time>2023-04-10T07:57:05Z</time>
      </trkpt>
      <trkpt lat="48.14735" lon="-3.15587">
        <ele>259.8</ele>
        <time>2023-04-10T07:57:06Z</time>
      </trkpt>
      <trkpt lat="48.14739" lon="-3.1559">
        <ele>260</ele>
        <time>2023-04-10T07:57:07Z</time>
      </trkpt>
      <trkpt lat="48.14742" lon="-3.15593">
        <ele>260</ele>
        <time>2023-04-10T07:57:08Z</time>
      </trkpt>
      <trkpt lat="48.14746" lon="-3.15596">
        <ele>260</ele>
        <time>2023-04-10T07:57:09Z</time>
      </trkpt>
      <trkpt lat="48.14749" lon="-3.15599">
        <ele>260.2</ele>
        <time>2023-04-10T07:57:10Z</time>
      </trkpt>
      <trkpt lat="48.14752" lon="-3.15603">
        <ele>260.4</ele>
        <time>2023-04-10T07:57:11Z</time>
      </trkpt>
      <trkpt lat="48.14755" lon="-3.15606">
        <ele>260.6</ele>
        <time>2023-04-10T07:57:12Z</time>
      </trkpt>
      <trkpt lat="48.14758" lon="-3.15609">
        <ele>260.8</ele>
        <time>2023-04-10T07:57:13Z</time>
      </trkpt>
      <trkpt lat="48.14761" lon="-3.15613">
        <ele>261</ele>
        <time>2023-04-10T07:57:14Z</time>
      </trkpt>
      <trkpt lat="48.14764" lon="-3.15615">
        <ele>261.2</ele>
        <time>2023-04-10T07:57:15Z</time>
      </trkpt>
      <trkpt lat="48.14774" lon="-3.15626">
        <ele>262.2</ele>
        <time>2023-04-10T07:57:18Z</time>
      </trkpt>
      <trkpt lat="48.14777" lon="-3.15629">
        <ele>262.4</ele>
        <time>2023-04-10T07:57:19Z</time>
      </trkpt>
      <trkpt lat="48.1478" lon="-3.15632">
        <ele>262.4</ele>
        <time>2023-04-10T07:57:20Z</time>
      </trkpt>
      <trkpt lat="48.14783" lon="-3.15636">
        <ele>262.6</ele>
        <time>2023-04-10T07:57:21Z</time>
      </trkpt>
      <trkpt lat="48.14786" lon="-3.15638">
        <ele>262.6</ele>
        <time>2023-04-10T07:57:22Z</time>
      </trkpt>
      <trkpt lat="48.14789" lon="-3.15642">
        <ele>263</ele>
        <time>2023-04-10T07:57:23Z</time>
      </trkpt>
      <trkpt lat="48.14792" lon="-3.15644">
        <ele>263.2</ele>
        <time>2023-04-10T07:57:24Z</time>
      </trkpt>
      <trkpt lat="48.14795" lon="-3.15647">
        <ele>263.2</ele>
        <time>2023-04-10T07:57:25Z</time>
      </trkpt>
      <trkpt lat="48.14798" lon="-3.1565">
        <ele>263.6</ele>
        <time>2023-04-10T07:57:26Z</time>
      </trkpt>
      <trkpt lat="48.14802" lon="-3.15653">
        <ele>263.8</ele>
        <time>2023-04-10T07:57:27Z</time>
      </trkpt>
      <trkpt lat="48.14805" lon="-3.15656">
        <ele>264</ele>
        <time>2023-04-10T07:57:28Z</time>
      </trkpt>
      <trkpt lat="48.14808" lon="-3.15658">
        <ele>264.2</ele>
        <time>2023-04-10T07:57:29Z</time>
      </trkpt>
      <trkpt lat="48.14811" lon="-3.1566">
        <ele>264.2</ele>
        <time>2023-04-10T07:57:30Z</time>
      </trkpt>
      <trkpt lat="48.14815" lon="-3.15663">
        <ele>264.4</ele>
        <time>2023-04-10T07:57:31Z</time>
      </trkpt>
      <trkpt lat="48.14818" lon="-3.15666">
        <ele>264.6</ele>
        <time>2023-04-10T07:57:32Z</time>
      </trkpt>
      <trkpt lat="48.14821" lon="-3.15668">
        <ele>264.8</ele>
        <time>2023-04-10T07:57:33Z</time>
      </trkpt>
      <trkpt lat="48.14824" lon="-3.15671">
        <ele>265</ele>
        <time>2023-04-10T07:57:34Z</time>
      </trkpt>
      <trkpt lat="48.14827" lon="-3.15673">
        <ele>265.4</ele>
        <time>2023-04-10T07:57:35Z</time>
      </trkpt>
      <trkpt lat="48.1483" lon="-3.15676">
        <ele>265.6</ele>
        <time>2023-04-10T07:57:36Z</time>
      </trkpt>
      <trkpt lat="48.14833" lon="-3.15678">
        <ele>266</ele>
        <time>2023-04-10T07:57:37Z</time>
      </trkpt>
      <trkpt lat="48.14838" lon="-3.15681">
        <ele>266.2</ele>
        <time>2023-04-10T07:57:38Z</time>
      </trkpt>
      <trkpt lat="48.14841" lon="-3.15684">
        <ele>266.6</ele>
        <time>2023-04-10T07:57:39Z</time>
      </trkpt>
      <trkpt lat="48.14843" lon="-3.15686">
        <ele>266.8</ele>
        <time>2023-04-10T07:57:40Z</time>
      </trkpt>
      <trkpt lat="48.14847" lon="-3.15691">
        <ele>267.2</ele>
        <time>2023-04-10T07:57:41Z</time>
      </trkpt>
      <trkpt lat="48.1485" lon="-3.15695">
        <ele>267.4</ele>
        <time>2023-04-10T07:57:42Z</time>
      </trkpt>
      <trkpt lat="48.14853" lon="-3.15698">
        <ele>267.8</ele>
        <time>2023-04-10T07:57:43Z</time>
      </trkpt>
      <trkpt lat="48.14856" lon="-3.157">
        <ele>268</ele>
        <time>2023-04-10T07:57:44Z</time>
      </trkpt>
      <trkpt lat="48.1486" lon="-3.15703">
        <ele>268.2</ele>
        <time>2023-04-10T07:57:45Z</time>
      </trkpt>
      <trkpt lat="48.14863" lon="-3.15706">
        <ele>268.4</ele>
        <time>2023-04-10T07:57:46Z</time>
      </trkpt>
      <trkpt lat="48.14865" lon="-3.1571">
        <ele>268.6</ele>
        <time>2023-04-10T07:57:47Z</time>
      </trkpt>
      <trkpt lat="48.14868" lon="-3.15712">
        <ele>269</ele>
        <time>2023-04-10T07:57:48Z</time>
      </trkpt>
      <trkpt lat="48.14871" lon="-3.15716">
        <ele>269.2</ele>
        <time>2023-04-10T07:57:49Z</time>
      </trkpt>
      <trkpt lat="48.14874" lon="-3.15719">
        <ele>269.6</ele>
        <time>2023-04-10T07:57:50Z</time>
      </trkpt>
      <trkpt lat="48.14877" lon="-3.15722">
        <ele>269.6</ele>
        <time>2023-04-10T07:57:51Z</time>
      </trkpt>
      <trkpt lat="48.1488" lon="-3.15725">
        <ele>269.6</ele>
        <time>2023-04-10T07:57:52Z</time>
      </trkpt>
      <trkpt lat="48.14883" lon="-3.15728">
        <ele>269.8</ele>
        <time>2023-04-10T07:57:53Z</time>
      </trkpt>
      <trkpt lat="48.14885" lon="-3.15732">
        <ele>269.8</ele>
        <time>2023-04-10T07:57:54Z</time>
      </trkpt>
      <trkpt lat="48.14888" lon="-3.15735">
        <ele>270</ele>
        <time>2023-04-10T07:57:55Z</time>
      </trkpt>
      <trkpt lat="48.1489" lon="-3.15738">
        <ele>270</ele>
        <time>2023-04-10T07:57:56Z</time>
      </trkpt>
      <trkpt lat="48.14893" lon="-3.15741">
        <ele>270.2</ele>
        <time>2023-04-10T07:57:57Z</time>
      </trkpt>
      <trkpt lat="48.14896" lon="-3.15744">
        <ele>270.4</ele>
        <time>2023-04-10T07:57:58Z</time>
      </trkpt>
      <trkpt lat="48.14899" lon="-3.15747">
        <ele>270.4</ele>
        <time>2023-04-10T07:57:59Z</time>
      </trkpt>
      <trkpt lat="48.14902" lon="-3.1575">
        <ele>270.6</ele>
        <time>2023-04-10T07:58:00Z</time>
      </trkpt>
      <trkpt lat="48.14905" lon="-3.15752">
        <ele>270.8</ele>
        <time>2023-04-10T07:58:01Z</time>
      </trkpt>
      <trkpt lat="48.14908" lon="-3.15754">
        <ele>271</ele>
        <time>2023-04-10T07:58:02Z</time>
      </trkpt>
      <trkpt lat="48.14911" lon="-3.15756">
        <ele>271</ele>
        <time>2023-04-10T07:58:03Z</time>
      </trkpt>
      <trkpt lat="48.14913" lon="-3.15758">
        <ele>271.4</ele>
        <time>2023-04-10T07:58:04Z</time>
      </trkpt>
      <trkpt lat="48.14915" lon="-3.1576">
        <ele>271.6</ele>
        <time>2023-04-10T07:58:05Z</time>
      </trkpt>
      <trkpt lat="48.14916" lon="-3.15764">
        <ele>271.8</ele>
        <time>2023-04-10T07:58:06Z</time>
      </trkpt>
      <trkpt lat="48.14917" lon="-3.15769">
        <ele>272</ele>
        <time>2023-04-10T07:58:07Z</time>
      </trkpt>
      <trkpt lat="48.14917" lon="-3.15774">
        <ele>272</ele>
        <time>2023-04-10T07:58:08Z</time>
      </trkpt>
      <trkpt lat="48.14916" lon="-3.1578">
        <ele>272.2</ele>
        <time>2023-04-10T07:58:09Z</time>
      </trkpt>
      <trkpt lat="48.14915" lon="-3.15785">
        <ele>272.4</ele>
        <time>2023-04-10T07:58:10Z</time>
      </trkpt>
      <trkpt lat="48.14913" lon="-3.1579">
        <ele>272.8</ele>
        <time>2023-04-10T07:58:11Z</time>
      </trkpt>
      <trkpt lat="48.14912" lon="-3.15796">
        <ele>273</ele>
        <time>2023-04-10T07:58:12Z</time>
      </trkpt>
      <trkpt lat="48.1491" lon="-3.15802">
        <ele>273.2</ele>
        <time>2023-04-10T07:58:13Z</time>
      </trkpt>
      <trkpt lat="48.14908" lon="-3.15808">
        <ele>273.2</ele>
        <time>2023-04-10T07:58:14Z</time>
      </trkpt>
      <trkpt lat="48.14906" lon="-3.15814">
        <ele>273.2</ele>
        <time>2023-04-10T07:58:15Z</time>
      </trkpt>
      <trkpt lat="48.14903" lon="-3.15821">
        <ele>273.2</ele>
        <time>2023-04-10T07:58:16Z</time>
      </trkpt>
      <trkpt lat="48.149" lon="-3.15829">
        <ele>273.2</ele>
        <time>2023-04-10T07:58:17Z</time>
      </trkpt>
      <trkpt lat="48.14899" lon="-3.15834">
        <ele>273.2</ele>
        <time>2023-04-10T07:58:18Z</time>
      </trkpt>
      <trkpt lat="48.14898" lon="-3.15841">
        <ele>273.2</ele>
        <time>2023-04-10T07:58:19Z</time>
      </trkpt>
      <trkpt lat="48.14895" lon="-3.15849">
        <ele>273.2</ele>
        <time>2023-04-10T07:58:20Z</time>
      </trkpt>
      <trkpt lat="48.14893" lon="-3.15856">
        <ele>273.2</ele>
        <time>2023-04-10T07:58:21Z</time>
      </trkpt>
      <trkpt lat="48.14891" lon="-3.15863">
        <ele>273.2</ele>
        <time>2023-04-10T07:58:22Z</time>
      </trkpt>
      <trkpt lat="48.1489" lon="-3.1587">
        <ele>273.2</ele>
        <time>2023-04-10T07:58:23Z</time>
      </trkpt>
      <trkpt lat="48.14887" lon="-3.15878">
        <ele>273.2</ele>
        <time>2023-04-10T07:58:24Z</time>
      </trkpt>
      <trkpt lat="48.14884" lon="-3.15886">
        <ele>273.2</ele>
        <time>2023-04-10T07:58:25Z</time>
      </trkpt>
      <trkpt lat="48.14882" lon="-3.15893">
        <ele>273</ele>
        <time>2023-04-10T07:58:26Z</time>
      </trkpt>
      <trkpt lat="48.14879" lon="-3.159">
        <ele>273</ele>
        <time>2023-04-10T07:58:27Z</time>
      </trkpt>
      <trkpt lat="48.14877" lon="-3.15907">
        <ele>272.8</ele>
        <time>2023-04-10T07:58:28Z</time>
      </trkpt>
      <trkpt lat="48.14874" lon="-3.15915">
        <ele>272.6</ele>
        <time>2023-04-10T07:58:29Z</time>
      </trkpt>
      <trkpt lat="48.14864" lon="-3.15953">
        <ele>271.8</ele>
        <time>2023-04-10T07:58:34Z</time>
      </trkpt>
      <trkpt lat="48.1486" lon="-3.1597">
        <ele>271.8</ele>
        <time>2023-04-10T07:58:36Z</time>
      </trkpt>
      <trkpt lat="48.1486" lon="-3.15979">
        <ele>271.6</ele>
        <time>2023-04-10T07:58:37Z</time>
      </trkpt>
      <trkpt lat="48.1486" lon="-3.15998">
        <ele>271.4</ele>
        <time>2023-04-10T07:58:39Z</time>
      </trkpt>
      <trkpt lat="48.1486" lon="-3.16007">
        <ele>271.2</ele>
        <time>2023-04-10T07:58:40Z</time>
      </trkpt>
      <trkpt lat="48.1486" lon="-3.16024">
        <ele>270.8</ele>
        <time>2023-04-10T07:58:42Z</time>
      </trkpt>
      <trkpt lat="48.14859" lon="-3.16035">
        <ele>270.4</ele>
        <time>2023-04-10T07:58:43Z</time>
      </trkpt>
      <trkpt lat="48.14859" lon="-3.16103">
        <ele>269.2</ele>
        <time>2023-04-10T07:58:50Z</time>
      </trkpt>
      <trkpt lat="48.14859" lon="-3.16113">
        <ele>269</ele>
        <time>2023-04-10T07:58:51Z</time>
      </trkpt>
      <trkpt lat="48.1486" lon="-3.16132">
        <ele>268.8</ele>
        <time>2023-04-10T07:58:53Z</time>
      </trkpt>
      <trkpt lat="48.1486" lon="-3.16141">
        <ele>268.8</ele>
        <time>2023-04-10T07:58:54Z</time>
      </trkpt>
      <trkpt lat="48.14859" lon="-3.1615">
        <ele>268.6</ele>
        <time>2023-04-10T07:58:55Z</time>
      </trkpt>
      <trkpt lat="48.14859" lon="-3.1616">
        <ele>268.6</ele>
        <time>2023-04-10T07:58:56Z</time>
      </trkpt>
      <trkpt lat="48.14859" lon="-3.16169">
        <ele>268.6</ele>
        <time>2023-04-10T07:58:57Z</time>
      </trkpt>
      <trkpt lat="48.14859" lon="-3.16186">
        <ele>268.6</ele>
        <time>2023-04-10T07:58:59Z</time>
      </trkpt>
      <trkpt lat="48.14859" lon="-3.16195">
        <ele>268.6</ele>
        <time>2023-04-10T07:59:00Z</time>
      </trkpt>
      <trkpt lat="48.1486" lon="-3.16201">
        <ele>268.6</ele>
        <time>2023-04-10T07:59:01Z</time>
      </trkpt>
      <trkpt lat="48.1486" lon="-3.16211">
        <ele>268.6</ele>
        <time>2023-04-10T07:59:02Z</time>
      </trkpt>
      <trkpt lat="48.1486" lon="-3.16218">
        <ele>268.6</ele>
        <time>2023-04-10T07:59:03Z</time>
      </trkpt>
      <trkpt lat="48.14861" lon="-3.16226">
        <ele>268.6</ele>
        <time>2023-04-10T07:59:04Z</time>
      </trkpt>
      <trkpt lat="48.14861" lon="-3.16234">
        <ele>268.6</ele>
        <time>2023-04-10T07:59:05Z</time>
      </trkpt>
      <trkpt lat="48.14866" lon="-3.16306">
        <ele>268.6</ele>
        <time>2023-04-10T07:59:14Z</time>
      </trkpt>
      <trkpt lat="48.14871" lon="-3.16339">
        <ele>268.6</ele>
        <time>2023-04-10T07:59:18Z</time>
      </trkpt>
      <trkpt lat="48.14876" lon="-3.16371">
        <ele>268.6</ele>
        <time>2023-04-10T07:59:22Z</time>
      </trkpt>
      <trkpt lat="48.14878" lon="-3.1638">
        <ele>268.6</ele>
        <time>2023-04-10T07:59:23Z</time>
      </trkpt>
      <trkpt lat="48.14879" lon="-3.16388">
        <ele>268.6</ele>
        <time>2023-04-10T07:59:24Z</time>
      </trkpt>
      <trkpt lat="48.14882" lon="-3.16404">
        <ele>268.4</ele>
        <time>2023-04-10T07:59:26Z</time>
      </trkpt>
      <trkpt lat="48.14884" lon="-3.16412">
        <ele>268.2</ele>
        <time>2023-04-10T07:59:27Z</time>
      </trkpt>
      <trkpt lat="48.14886" lon="-3.1642">
        <ele>268.2</ele>
        <time>2023-04-10T07:59:28Z</time>
      </trkpt>
      <trkpt lat="48.14887" lon="-3.16426">
        <ele>268.2</ele>
        <time>2023-04-10T07:59:29Z</time>
      </trkpt>
      <trkpt lat="48.14886" lon="-3.16432">
        <ele>268</ele>
        <time>2023-04-10T07:59:30Z</time>
      </trkpt>
      <trkpt lat="48.14885" lon="-3.16434">
        <ele>268</ele>
        <time>2023-04-10T07:59:31Z</time>
      </trkpt>
      <trkpt lat="48.14882" lon="-3.16435">
        <ele>268</ele>
        <time>2023-04-10T07:59:32Z</time>
      </trkpt>
      <trkpt lat="48.14879" lon="-3.16436">
        <ele>267.8</ele>
        <time>2023-04-10T07:59:33Z</time>
      </trkpt>
      <trkpt lat="48.14875" lon="-3.16435">
        <ele>267.8</ele>
        <time>2023-04-10T07:59:34Z</time>
      </trkpt>
      <trkpt lat="48.1487" lon="-3.16434">
        <ele>267.8</ele>
        <time>2023-04-10T07:59:35Z</time>
      </trkpt>
      <trkpt lat="48.14861" lon="-3.16433">
        <ele>267.6</ele>
        <time>2023-04-10T07:59:37Z</time>
      </trkpt>
      <trkpt lat="48.14849" lon="-3.16432">
        <ele>267.4</ele>
        <time>2023-04-10T07:59:39Z</time>
      </trkpt>
      <trkpt lat="48.14837" lon="-3.16429">
        <ele>267</ele>
        <time>2023-04-10T07:59:41Z</time>
      </trkpt>
      <trkpt lat="48.1482" lon="-3.16423">
        <ele>266.6</ele>
        <time>2023-04-10T07:59:44Z</time>
      </trkpt>
      <trkpt lat="48.14808" lon="-3.16416">
        <ele>266.2</ele>
        <time>2023-04-10T07:59:46Z</time>
      </trkpt>
      <trkpt lat="48.14802" lon="-3.16413">
        <ele>266.2</ele>
        <time>2023-04-10T07:59:47Z</time>
      </trkpt>
      <trkpt lat="48.14798" lon="-3.1641">
        <ele>265.8</ele>
        <time>2023-04-10T07:59:48Z</time>
      </trkpt>
      <trkpt lat="48.14791" lon="-3.16407">
        <ele>265.6</ele>
        <time>2023-04-10T07:59:49Z</time>
      </trkpt>
      <trkpt lat="48.14786" lon="-3.16405">
        <ele>265.2</ele>
        <time>2023-04-10T07:59:50Z</time>
      </trkpt>
      <trkpt lat="48.14782" lon="-3.16403">
        <ele>264.6</ele>
        <time>2023-04-10T07:59:51Z</time>
      </trkpt>
      <trkpt lat="48.14775" lon="-3.164">
        <ele>264.2</ele>
        <time>2023-04-10T07:59:52Z</time>
      </trkpt>
      <trkpt lat="48.14771" lon="-3.16398">
        <ele>263.8</ele>
        <time>2023-04-10T07:59:53Z</time>
      </trkpt>
      <trkpt lat="48.14766" lon="-3.16397">
        <ele>263.6</ele>
        <time>2023-04-10T07:59:54Z</time>
      </trkpt>
      <trkpt lat="48.1476" lon="-3.16395">
        <ele>263.2</ele>
        <time>2023-04-10T07:59:55Z</time>
      </trkpt>
      <trkpt lat="48.14755" lon="-3.16393">
        <ele>263</ele>
        <time>2023-04-10T07:59:56Z</time>
      </trkpt>
      <trkpt lat="48.14729" lon="-3.16386">
        <ele>262</ele>
        <time>2023-04-10T08:00:01Z</time>
      </trkpt>
      <trkpt lat="48.14723" lon="-3.16386">
        <ele>262</ele>
        <time>2023-04-10T08:00:02Z</time>
      </trkpt>
      <trkpt lat="48.14686" lon="-3.16382">
        <ele>260.8</ele>
        <time>2023-04-10T08:00:08Z</time>
      </trkpt>
      <trkpt lat="48.14675" lon="-3.16381">
        <ele>260.6</ele>
        <time>2023-04-10T08:00:10Z</time>
      </trkpt>
      <trkpt lat="48.14669" lon="-3.16381">
        <ele>260.4</ele>
        <time>2023-04-10T08:00:11Z</time>
      </trkpt>
      <trkpt lat="48.14663" lon="-3.1638">
        <ele>260</ele>
        <time>2023-04-10T08:00:12Z</time>
      </trkpt>
      <trkpt lat="48.14656" lon="-3.16378">
        <ele>259.6</ele>
        <time>2023-04-10T08:00:13Z</time>
      </trkpt>
      <trkpt lat="48.14651" lon="-3.16376">
        <ele>259.4</ele>
        <time>2023-04-10T08:00:14Z</time>
      </trkpt>
      <trkpt lat="48.14646" lon="-3.16376">
        <ele>259</ele>
        <time>2023-04-10T08:00:15Z</time>
      </trkpt>
      <trkpt lat="48.14641" lon="-3.16376">
        <ele>258.6</ele>
        <time>2023-04-10T08:00:16Z</time>
      </trkpt>
      <trkpt lat="48.14618" lon="-3.16375">
        <ele>257.6</ele>
        <time>2023-04-10T08:00:20Z</time>
      </trkpt>
      <trkpt lat="48.14612" lon="-3.16374">
        <ele>257.4</ele>
        <time>2023-04-10T08:00:21Z</time>
      </trkpt>
      <trkpt lat="48.146" lon="-3.16375">
        <ele>256.8</ele>
        <time>2023-04-10T08:00:23Z</time>
      </trkpt>
      <trkpt lat="48.14594" lon="-3.16375">
        <ele>256.4</ele>
        <time>2023-04-10T08:00:24Z</time>
      </trkpt>
      <trkpt lat="48.14588" lon="-3.16374">
        <ele>256.4</ele>
        <time>2023-04-10T08:00:25Z</time>
      </trkpt>
      <trkpt lat="48.14581" lon="-3.16372">
        <ele>256</ele>
        <time>2023-04-10T08:00:26Z</time>
      </trkpt>
      <trkpt lat="48.14561" lon="-3.16368">
        <ele>255.2</ele>
        <time>2023-04-10T08:00:29Z</time>
      </trkpt>
      <trkpt lat="48.14547" lon="-3.16364">
        <ele>254.8</ele>
        <time>2023-04-10T08:00:31Z</time>
      </trkpt>
      <trkpt lat="48.14532" lon="-3.16361">
        <ele>254</ele>
        <time>2023-04-10T08:00:33Z</time>
      </trkpt>
      <trkpt lat="48.14526" lon="-3.16359">
        <ele>253.4</ele>
        <time>2023-04-10T08:00:34Z</time>
      </trkpt>
      <trkpt lat="48.14521" lon="-3.16357">
        <ele>252.8</ele>
        <time>2023-04-10T08:00:35Z</time>
      </trkpt>
      <trkpt lat="48.14517" lon="-3.16357">
        <ele>252.6</ele>
        <time>2023-04-10T08:00:36Z</time>
      </trkpt>
      <trkpt lat="48.14515" lon="-3.16358">
        <ele>252.2</ele>
        <time>2023-04-10T08:00:37Z</time>
      </trkpt>
      <trkpt lat="48.14514" lon="-3.16361">
        <ele>251.8</ele>
        <time>2023-04-10T08:00:38Z</time>
      </trkpt>
      <trkpt lat="48.14515" lon="-3.16366">
        <ele>251.4</ele>
        <time>2023-04-10T08:00:39Z</time>
      </trkpt>
      <trkpt lat="48.14516" lon="-3.16371">
        <ele>250.8</ele>
        <time>2023-04-10T08:00:40Z</time>
      </trkpt>
      <trkpt lat="48.14519" lon="-3.1638">
        <ele>249.6</ele>
        <time>2023-04-10T08:00:42Z</time>
      </trkpt>
      <trkpt lat="48.14521" lon="-3.16387">
        <ele>248.8</ele>
        <time>2023-04-10T08:00:43Z</time>
      </trkpt>
      <trkpt lat="48.14523" lon="-3.16394">
        <ele>248</ele>
        <time>2023-04-10T08:00:44Z</time>
      </trkpt>
      <trkpt lat="48.14526" lon="-3.16405">
        <ele>246.8</ele>
        <time>2023-04-10T08:00:46Z</time>
      </trkpt>
      <trkpt lat="48.14534" lon="-3.16439">
        <ele>246</ele>
        <time>2023-04-10T08:00:51Z</time>
      </trkpt>
      <trkpt lat="48.14535" lon="-3.16445">
        <ele>246</ele>
        <time>2023-04-10T08:00:52Z</time>
      </trkpt>
      <trkpt lat="48.14536" lon="-3.16451">
        <ele>246</ele>
        <time>2023-04-10T08:00:53Z</time>
      </trkpt>
      <trkpt lat="48.14537" lon="-3.16457">
        <ele>246</ele>
        <time>2023-04-10T08:00:54Z</time>
      </trkpt>
      <trkpt lat="48.14537" lon="-3.16462">
        <ele>246</ele>
        <time>2023-04-10T08:00:55Z</time>
      </trkpt>
      <trkpt lat="48.14535" lon="-3.16468">
        <ele>246</ele>
        <time>2023-04-10T08:00:56Z</time>
      </trkpt>
      <trkpt lat="48.14533" lon="-3.16474">
        <ele>245.8</ele>
        <time>2023-04-10T08:00:57Z</time>
      </trkpt>
      <trkpt lat="48.1453" lon="-3.16478">
        <ele>245.8</ele>
        <time>2023-04-10T08:00:58Z</time>
      </trkpt>
      <trkpt lat="48.14526" lon="-3.16482">
        <ele>245.8</ele>
        <time>2023-04-10T08:00:59Z</time>
      </trkpt>
      <trkpt lat="48.14522" lon="-3.16484">
        <ele>245.8</ele>
        <time>2023-04-10T08:01:00Z</time>
      </trkpt>
      <trkpt lat="48.14517" lon="-3.16487">
        <ele>245.6</ele>
        <time>2023-04-10T08:01:01Z</time>
      </trkpt>
      <trkpt lat="48.14513" lon="-3.16489">
        <ele>245.6</ele>
        <time>2023-04-10T08:01:02Z</time>
      </trkpt>
      <trkpt lat="48.14508" lon="-3.16493">
        <ele>245.4</ele>
        <time>2023-04-10T08:01:03Z</time>
      </trkpt>
      <trkpt lat="48.14503" lon="-3.16496">
        <ele>245.4</ele>
        <time>2023-04-10T08:01:04Z</time>
      </trkpt>
      <trkpt lat="48.14499" lon="-3.16498">
        <ele>245.2</ele>
        <time>2023-04-10T08:01:05Z</time>
      </trkpt>
      <trkpt lat="48.14496" lon="-3.165">
        <ele>244.8</ele>
        <time>2023-04-10T08:01:06Z</time>
      </trkpt>
      <trkpt lat="48.14493" lon="-3.16501">
        <ele>244.4</ele>
        <time>2023-04-10T08:01:07Z</time>
      </trkpt>
      <trkpt lat="48.1449" lon="-3.16502">
        <ele>244.2</ele>
        <time>2023-04-10T08:01:08Z</time>
      </trkpt>
      <trkpt lat="48.14487" lon="-3.16503">
        <ele>244.2</ele>
        <time>2023-04-10T08:01:09Z</time>
      </trkpt>
      <trkpt lat="48.14484" lon="-3.16504">
        <ele>244</ele>
        <time>2023-04-10T08:01:10Z</time>
      </trkpt>
      <trkpt lat="48.14481" lon="-3.16505">
        <ele>243.4</ele>
        <time>2023-04-10T08:01:11Z</time>
      </trkpt>
      <trkpt lat="48.14478" lon="-3.16507">
        <ele>243</ele>
        <time>2023-04-10T08:01:12Z</time>
      </trkpt>
      <trkpt lat="48.14475" lon="-3.16509">
        <ele>242.6</ele>
        <time>2023-04-10T08:01:13Z</time>
      </trkpt>
      <trkpt lat="48.14469" lon="-3.16514">
        <ele>241.4</ele>
        <time>2023-04-10T08:01:15Z</time>
      </trkpt>
      <trkpt lat="48.14467" lon="-3.16516">
        <ele>241.2</ele>
        <time>2023-04-10T08:01:16Z</time>
      </trkpt>
      <trkpt lat="48.14462" lon="-3.16524">
        <ele>240.4</ele>
        <time>2023-04-10T08:01:18Z</time>
      </trkpt>
      <trkpt lat="48.14458" lon="-3.16531">
        <ele>240</ele>
        <time>2023-04-10T08:01:20Z</time>
      </trkpt>
      <trkpt lat="48.14458" lon="-3.16534">
        <ele>239.8</ele>
        <time>2023-04-10T08:01:21Z</time>
      </trkpt>
      <trkpt lat="48.14458" lon="-3.16538">
        <ele>239.6</ele>
        <time>2023-04-10T08:01:22Z</time>
      </trkpt>
      <trkpt lat="48.14459" lon="-3.16541">
        <ele>239.6</ele>
        <time>2023-04-10T08:01:23Z</time>
      </trkpt>
      <trkpt lat="48.14459" lon="-3.16543">
        <ele>239.2</ele>
        <time>2023-04-10T08:01:24Z</time>
      </trkpt>
      <trkpt lat="48.1446" lon="-3.16546">
        <ele>239</ele>
        <time>2023-04-10T08:01:25Z</time>
      </trkpt>
      <trkpt lat="48.14461" lon="-3.1655">
        <ele>238.6</ele>
        <time>2023-04-10T08:01:26Z</time>
      </trkpt>
      <trkpt lat="48.14462" lon="-3.16554">
        <ele>238.4</ele>
        <time>2023-04-10T08:01:27Z</time>
      </trkpt>
      <trkpt lat="48.14464" lon="-3.16564">
        <ele>238</ele>
        <time>2023-04-10T08:01:29Z</time>
      </trkpt>
      <trkpt lat="48.14467" lon="-3.16572">
        <ele>237.8</ele>
        <time>2023-04-10T08:01:31Z</time>
      </trkpt>
      <trkpt lat="48.14468" lon="-3.16576">
        <ele>237.8</ele>
        <time>2023-04-10T08:01:32Z</time>
      </trkpt>
      <trkpt lat="48.14471" lon="-3.16585">
        <ele>237.6</ele>
        <time>2023-04-10T08:01:34Z</time>
      </trkpt>
      <trkpt lat="48.1448" lon="-3.16604">
        <ele>237.6</ele>
        <time>2023-04-10T08:01:38Z</time>
      </trkpt>
      <trkpt lat="48.14487" lon="-3.16621">
        <ele>237.4</ele>
        <time>2023-04-10T08:01:41Z</time>
      </trkpt>
      <trkpt lat="48.14496" lon="-3.16641">
        <ele>237.2</ele>
        <time>2023-04-10T08:01:44Z</time>
      </trkpt>
      <trkpt lat="48.14501" lon="-3.16655">
        <ele>237</ele>
        <time>2023-04-10T08:01:46Z</time>
      </trkpt>
      <trkpt lat="48.14507" lon="-3.16668">
        <ele>237</ele>
        <time>2023-04-10T08:01:48Z</time>
      </trkpt>
      <trkpt lat="48.14509" lon="-3.16675">
        <ele>237</ele>
        <time>2023-04-10T08:01:49Z</time>
      </trkpt>
      <trkpt lat="48.14511" lon="-3.16682">
        <ele>237</ele>
        <time>2023-04-10T08:01:50Z</time>
      </trkpt>
      <trkpt lat="48.14514" lon="-3.16689">
        <ele>237</ele>
        <time>2023-04-10T08:01:51Z</time>
      </trkpt>
      <trkpt lat="48.14516" lon="-3.16695">
        <ele>237</ele>
        <time>2023-04-10T08:01:52Z</time>
      </trkpt>
      <trkpt lat="48.1453" lon="-3.16731">
        <ele>236.6</ele>
        <time>2023-04-10T08:01:57Z</time>
      </trkpt>
      <trkpt lat="48.14536" lon="-3.16745">
        <ele>236.6</ele>
        <time>2023-04-10T08:01:59Z</time>
      </trkpt>
      <trkpt lat="48.14539" lon="-3.16751">
        <ele>236.6</ele>
        <time>2023-04-10T08:02:00Z</time>
      </trkpt>
      <trkpt lat="48.14541" lon="-3.16758">
        <ele>236.6</ele>
        <time>2023-04-10T08:02:01Z</time>
      </trkpt>
      <trkpt lat="48.14544" lon="-3.16764">
        <ele>236.4</ele>
        <time>2023-04-10T08:02:02Z</time>
      </trkpt>
      <trkpt lat="48.14546" lon="-3.1677">
        <ele>236.4</ele>
        <time>2023-04-10T08:02:03Z</time>
      </trkpt>
      <trkpt lat="48.14545" lon="-3.16776">
        <ele>236.4</ele>
        <time>2023-04-10T08:02:04Z</time>
      </trkpt>
      <trkpt lat="48.14544" lon="-3.16783">
        <ele>236.4</ele>
        <time>2023-04-10T08:02:05Z</time>
      </trkpt>
      <trkpt lat="48.14541" lon="-3.16787">
        <ele>236.4</ele>
        <time>2023-04-10T08:02:06Z</time>
      </trkpt>
      <trkpt lat="48.14536" lon="-3.16789">
        <ele>236.4</ele>
        <time>2023-04-10T08:02:07Z</time>
      </trkpt>
      <trkpt lat="48.14513" lon="-3.16791">
        <ele>236.2</ele>
        <time>2023-04-10T08:02:11Z</time>
      </trkpt>
      <trkpt lat="48.14475" lon="-3.16793">
        <ele>236</ele>
        <time>2023-04-10T08:02:17Z</time>
      </trkpt>
      <trkpt lat="48.14469" lon="-3.16793">
        <ele>236</ele>
        <time>2023-04-10T08:02:18Z</time>
      </trkpt>
      <trkpt lat="48.14462" lon="-3.16793">
        <ele>235.8</ele>
        <time>2023-04-10T08:02:19Z</time>
      </trkpt>
      <trkpt lat="48.14456" lon="-3.16794">
        <ele>235.8</ele>
        <time>2023-04-10T08:02:20Z</time>
      </trkpt>
      <trkpt lat="48.1445" lon="-3.16794">
        <ele>235.6</ele>
        <time>2023-04-10T08:02:21Z</time>
      </trkpt>
      <trkpt lat="48.14445" lon="-3.16794">
        <ele>235.6</ele>
        <time>2023-04-10T08:02:22Z</time>
      </trkpt>
      <trkpt lat="48.14439" lon="-3.16794">
        <ele>235.6</ele>
        <time>2023-04-10T08:02:23Z</time>
      </trkpt>
      <trkpt lat="48.14434" lon="-3.16795">
        <ele>235.6</ele>
        <time>2023-04-10T08:02:24Z</time>
      </trkpt>
      <trkpt lat="48.14429" lon="-3.16796">
        <ele>235.6</ele>
        <time>2023-04-10T08:02:25Z</time>
      </trkpt>
      <trkpt lat="48.14424" lon="-3.16797">
        <ele>235.6</ele>
        <time>2023-04-10T08:02:26Z</time>
      </trkpt>
      <trkpt lat="48.1442" lon="-3.16798">
        <ele>235.6</ele>
        <time>2023-04-10T08:02:27Z</time>
      </trkpt>
      <trkpt lat="48.14415" lon="-3.16799">
        <ele>235.6</ele>
        <time>2023-04-10T08:02:28Z</time>
      </trkpt>
      <trkpt lat="48.14411" lon="-3.16801">
        <ele>235.6</ele>
        <time>2023-04-10T08:02:29Z</time>
      </trkpt>
      <trkpt lat="48.14406" lon="-3.16803">
        <ele>235.6</ele>
        <time>2023-04-10T08:02:30Z</time>
      </trkpt>
      <trkpt lat="48.14403" lon="-3.16806">
        <ele>235.6</ele>
        <time>2023-04-10T08:02:31Z</time>
      </trkpt>
      <trkpt lat="48.14399" lon="-3.16809">
        <ele>235.6</ele>
        <time>2023-04-10T08:02:32Z</time>
      </trkpt>
      <trkpt lat="48.14396" lon="-3.16812">
        <ele>235.8</ele>
        <time>2023-04-10T08:02:33Z</time>
      </trkpt>
      <trkpt lat="48.14393" lon="-3.16816">
        <ele>235.8</ele>
        <time>2023-04-10T08:02:34Z</time>
      </trkpt>
      <trkpt lat="48.14379" lon="-3.16837">
        <ele>236.4</ele>
        <time>2023-04-10T08:02:39Z</time>
      </trkpt>
      <trkpt lat="48.14374" lon="-3.16849">
        <ele>236.8</ele>
        <time>2023-04-10T08:02:41Z</time>
      </trkpt>
      <trkpt lat="48.14372" lon="-3.16856">
        <ele>237</ele>
        <time>2023-04-10T08:02:42Z</time>
      </trkpt>
      <trkpt lat="48.14369" lon="-3.1687">
        <ele>237.6</ele>
        <time>2023-04-10T08:02:44Z</time>
      </trkpt>
      <trkpt lat="48.14369" lon="-3.16877">
        <ele>238</ele>
        <time>2023-04-10T08:02:45Z</time>
      </trkpt>
      <trkpt lat="48.14369" lon="-3.16884">
        <ele>238.2</ele>
        <time>2023-04-10T08:02:46Z</time>
      </trkpt>
      <trkpt lat="48.14368" lon="-3.16896">
        <ele>238.4</ele>
        <time>2023-04-10T08:02:48Z</time>
      </trkpt>
      <trkpt lat="48.14368" lon="-3.16903">
        <ele>238.8</ele>
        <time>2023-04-10T08:02:49Z</time>
      </trkpt>
      <trkpt lat="48.14367" lon="-3.1691">
        <ele>239</ele>
        <time>2023-04-10T08:02:50Z</time>
      </trkpt>
      <trkpt lat="48.14366" lon="-3.16917">
        <ele>239</ele>
        <time>2023-04-10T08:02:51Z</time>
      </trkpt>
      <trkpt lat="48.14366" lon="-3.16923">
        <ele>239.2</ele>
        <time>2023-04-10T08:02:52Z</time>
      </trkpt>
      <trkpt lat="48.14365" lon="-3.1693">
        <ele>239.2</ele>
        <time>2023-04-10T08:02:53Z</time>
      </trkpt>
      <trkpt lat="48.14363" lon="-3.16935">
        <ele>239.2</ele>
        <time>2023-04-10T08:02:54Z</time>
      </trkpt>
      <trkpt lat="48.14361" lon="-3.16938">
        <ele>239.4</ele>
        <time>2023-04-10T08:02:55Z</time>
      </trkpt>
      <trkpt lat="48.14358" lon="-3.16941">
        <ele>239.4</ele>
        <time>2023-04-10T08:02:56Z</time>
      </trkpt>
      <trkpt lat="48.14356" lon="-3.16943">
        <ele>239.4</ele>
        <time>2023-04-10T08:02:57Z</time>
      </trkpt>
      <trkpt lat="48.14354" lon="-3.16945">
        <ele>239.4</ele>
        <time>2023-04-10T08:02:58Z</time>
      </trkpt>
      <trkpt lat="48.14352" lon="-3.16947">
        <ele>239.4</ele>
        <time>2023-04-10T08:02:59Z</time>
      </trkpt>
      <trkpt lat="48.14349" lon="-3.16949">
        <ele>239.4</ele>
        <time>2023-04-10T08:03:00Z</time>
      </trkpt>
      <trkpt lat="48.14346" lon="-3.16951">
        <ele>239.4</ele>
        <time>2023-04-10T08:03:01Z</time>
      </trkpt>
      <trkpt lat="48.14343" lon="-3.16952">
        <ele>239.6</ele>
        <time>2023-04-10T08:03:02Z</time>
      </trkpt>
      <trkpt lat="48.14341" lon="-3.16953">
        <ele>240</ele>
        <time>2023-04-10T08:03:03Z</time>
      </trkpt>
      <trkpt lat="48.14338" lon="-3.16954">
        <ele>240.2</ele>
        <time>2023-04-10T08:03:04Z</time>
      </trkpt>
      <trkpt lat="48.14337" lon="-3.16956">
        <ele>240.4</ele>
        <time>2023-04-10T08:03:05Z</time>
      </trkpt>
      <trkpt lat="48.14334" lon="-3.16958">
        <ele>240.6</ele>
        <time>2023-04-10T08:03:06Z</time>
      </trkpt>
      <trkpt lat="48.14332" lon="-3.1696">
        <ele>240.6</ele>
        <time>2023-04-10T08:03:07Z</time>
      </trkpt>
      <trkpt lat="48.1433" lon="-3.16962">
        <ele>240.8</ele>
        <time>2023-04-10T08:03:08Z</time>
      </trkpt>
      <trkpt lat="48.14328" lon="-3.16964">
        <ele>241</ele>
        <time>2023-04-10T08:03:09Z</time>
      </trkpt>
      <trkpt lat="48.14326" lon="-3.16966">
        <ele>241</ele>
        <time>2023-04-10T08:03:10Z</time>
      </trkpt>
      <trkpt lat="48.14324" lon="-3.16968">
        <ele>241.2</ele>
        <time>2023-04-10T08:03:11Z</time>
      </trkpt>
      <trkpt lat="48.14323" lon="-3.1697">
        <ele>241.2</ele>
        <time>2023-04-10T08:03:12Z</time>
      </trkpt>
      <trkpt lat="48.14322" lon="-3.16971">
        <ele>241.6</ele>
        <time>2023-04-10T08:03:13Z</time>
      </trkpt>
      <trkpt lat="48.14321" lon="-3.16973">
        <ele>241.6</ele>
        <time>2023-04-10T08:03:14Z</time>
      </trkpt>
      <trkpt lat="48.1432" lon="-3.16976">
        <ele>242</ele>
        <time>2023-04-10T08:03:15Z</time>
      </trkpt>
      <trkpt lat="48.14318" lon="-3.1698">
        <ele>242.2</ele>
        <time>2023-04-10T08:03:16Z</time>
      </trkpt>
      <trkpt lat="48.14316" lon="-3.16982">
        <ele>242.2</ele>
        <time>2023-04-10T08:03:17Z</time>
      </trkpt>
      <trkpt lat="48.14315" lon="-3.16985">
        <ele>242.4</ele>
        <time>2023-04-10T08:03:18Z</time>
      </trkpt>
      <trkpt lat="48.14313" lon="-3.16987">
        <ele>242.6</ele>
        <time>2023-04-10T08:03:19Z</time>
      </trkpt>
      <trkpt lat="48.14312" lon="-3.16988">
        <ele>242.6</ele>
        <time>2023-04-10T08:03:20Z</time>
      </trkpt>
      <trkpt lat="48.14311" lon="-3.16989">
        <ele>242.6</ele>
        <time>2023-04-10T08:03:21Z</time>
      </trkpt>
      <trkpt lat="48.14309" lon="-3.16991">
        <ele>242.8</ele>
        <time>2023-04-10T08:03:22Z</time>
      </trkpt>
      <trkpt lat="48.14307" lon="-3.16993">
        <ele>242.8</ele>
        <time>2023-04-10T08:03:23Z</time>
      </trkpt>
      <trkpt lat="48.14305" lon="-3.16995">
        <ele>243</ele>
        <time>2023-04-10T08:03:24Z</time>
      </trkpt>
      <trkpt lat="48.14304" lon="-3.16996">
        <ele>243.2</ele>
        <time>2023-04-10T08:03:25Z</time>
      </trkpt>
      <trkpt lat="48.143" lon="-3.16998">
        <ele>243.4</ele>
        <time>2023-04-10T08:03:26Z</time>
      </trkpt>
      <trkpt lat="48.14299" lon="-3.16999">
        <ele>243.4</ele>
        <time>2023-04-10T08:03:27Z</time>
      </trkpt>
      <trkpt lat="48.14298" lon="-3.16999">
        <ele>243.6</ele>
        <time>2023-04-10T08:03:28Z</time>
      </trkpt>
      <trkpt lat="48.14298" lon="-3.16999">
        <ele>243.8</ele>
        <time>2023-04-10T08:03:29Z</time>
      </trkpt>
      <trkpt lat="48.14298" lon="-3.16999">
        <ele>244</ele>
        <time>2023-04-10T08:03:30Z</time>
      </trkpt>
      <trkpt lat="48.14298" lon="-3.16999">
        <ele>244.2</ele>
        <time>2023-04-10T08:03:31Z</time>
      </trkpt>
      <trkpt lat="48.14297" lon="-3.17">
        <ele>244.4</ele>
        <time>2023-04-10T08:03:32Z</time>
      </trkpt>
      <trkpt lat="48.14294" lon="-3.17001">
        <ele>244.6</ele>
        <time>2023-04-10T08:03:33Z</time>
      </trkpt>
      <trkpt lat="48.14291" lon="-3.17002">
        <ele>244.8</ele>
        <time>2023-04-10T08:03:34Z</time>
      </trkpt>
      <trkpt lat="48.14287" lon="-3.17004">
        <ele>244.8</ele>
        <time>2023-04-10T08:03:35Z</time>
      </trkpt>
      <trkpt lat="48.14286" lon="-3.17004">
        <ele>245</ele>
        <time>2023-04-10T08:03:36Z</time>
      </trkpt>
      <trkpt lat="48.14285" lon="-3.17004">
        <ele>245</ele>
        <time>2023-04-10T08:03:37Z</time>
      </trkpt>
      <trkpt lat="48.14285" lon="-3.17004">
        <ele>245.2</ele>
        <time>2023-04-10T08:03:38Z</time>
      </trkpt>
      <trkpt lat="48.14284" lon="-3.17004">
        <ele>245.4</ele>
        <time>2023-04-10T08:03:39Z</time>
      </trkpt>
      <trkpt lat="48.14282" lon="-3.17004">
        <ele>245.6</ele>
        <time>2023-04-10T08:03:40Z</time>
      </trkpt>
      <trkpt lat="48.14279" lon="-3.17004">
        <ele>245.6</ele>
        <time>2023-04-10T08:03:41Z</time>
      </trkpt>
      <trkpt lat="48.14277" lon="-3.17005">
        <ele>245.6</ele>
        <time>2023-04-10T08:03:42Z</time>
      </trkpt>
      <trkpt lat="48.14274" lon="-3.17006">
        <ele>245.8</ele>
        <time>2023-04-10T08:03:43Z</time>
      </trkpt>
      <trkpt lat="48.14273" lon="-3.17007">
        <ele>246</ele>
        <time>2023-04-10T08:03:44Z</time>
      </trkpt>
      <trkpt lat="48.14271" lon="-3.17007">
        <ele>246.2</ele>
        <time>2023-04-10T08:03:45Z</time>
      </trkpt>
      <trkpt lat="48.14269" lon="-3.17008">
        <ele>246.4</ele>
        <time>2023-04-10T08:03:46Z</time>
      </trkpt>
      <trkpt lat="48.14265" lon="-3.17009">
        <ele>246.4</ele>
        <time>2023-04-10T08:03:47Z</time>
      </trkpt>
      <trkpt lat="48.14262" lon="-3.17009">
        <ele>246.6</ele>
        <time>2023-04-10T08:03:48Z</time>
      </trkpt>
      <trkpt lat="48.14259" lon="-3.1701">
        <ele>246.8</ele>
        <time>2023-04-10T08:03:49Z</time>
      </trkpt>
      <trkpt lat="48.14256" lon="-3.17012">
        <ele>247</ele>
        <time>2023-04-10T08:03:50Z</time>
      </trkpt>
      <trkpt lat="48.14254" lon="-3.17013">
        <ele>247.2</ele>
        <time>2023-04-10T08:03:51Z</time>
      </trkpt>
      <trkpt lat="48.14252" lon="-3.17014">
        <ele>247.4</ele>
        <time>2023-04-10T08:03:52Z</time>
      </trkpt>
      <trkpt lat="48.14249" lon="-3.17016">
        <ele>247.6</ele>
        <time>2023-04-10T08:03:53Z</time>
      </trkpt>
      <trkpt lat="48.14247" lon="-3.17017">
        <ele>247.8</ele>
        <time>2023-04-10T08:03:54Z</time>
      </trkpt>
      <trkpt lat="48.14242" lon="-3.17019">
        <ele>248.2</ele>
        <time>2023-04-10T08:03:55Z</time>
      </trkpt>
      <trkpt lat="48.14239" lon="-3.17021">
        <ele>248.4</ele>
        <time>2023-04-10T08:03:56Z</time>
      </trkpt>
      <trkpt lat="48.14236" lon="-3.17022">
        <ele>248.8</ele>
        <time>2023-04-10T08:03:57Z</time>
      </trkpt>
      <trkpt lat="48.14234" lon="-3.17024">
        <ele>249</ele>
        <time>2023-04-10T08:03:58Z</time>
      </trkpt>
      <trkpt lat="48.14231" lon="-3.17027">
        <ele>249.2</ele>
        <time>2023-04-10T08:03:59Z</time>
      </trkpt>
      <trkpt lat="48.14223" lon="-3.1703">
        <ele>249.4</ele>
        <time>2023-04-10T08:04:00Z</time>
      </trkpt>
      <trkpt lat="48.14218" lon="-3.17034">
        <ele>249.4</ele>
        <time>2023-04-10T08:04:01Z</time>
      </trkpt>
      <trkpt lat="48.14214" lon="-3.17038">
        <ele>249.4</ele>
        <time>2023-04-10T08:04:02Z</time>
      </trkpt>
      <trkpt lat="48.14209" lon="-3.1704">
        <ele>249.6</ele>
        <time>2023-04-10T08:04:03Z</time>
      </trkpt>
      <trkpt lat="48.14206" lon="-3.17042">
        <ele>249.6</ele>
        <time>2023-04-10T08:04:04Z</time>
      </trkpt>
      <trkpt lat="48.14203" lon="-3.17044">
        <ele>249.6</ele>
        <time>2023-04-10T08:04:05Z</time>
      </trkpt>
      <trkpt lat="48.14199" lon="-3.17046">
        <ele>249.6</ele>
        <time>2023-04-10T08:04:06Z</time>
      </trkpt>
      <trkpt lat="48.14194" lon="-3.17048">
        <ele>249.6</ele>
        <time>2023-04-10T08:04:07Z</time>
      </trkpt>
      <trkpt lat="48.14191" lon="-3.17051">
        <ele>249.6</ele>
        <time>2023-04-10T08:04:08Z</time>
      </trkpt>
      <trkpt lat="48.14188" lon="-3.17052">
        <ele>249.8</ele>
        <time>2023-04-10T08:04:09Z</time>
      </trkpt>
      <trkpt lat="48.14185" lon="-3.17053">
        <ele>249.8</ele>
        <time>2023-04-10T08:04:10Z</time>
      </trkpt>
      <trkpt lat="48.14181" lon="-3.17055">
        <ele>249.8</ele>
        <time>2023-04-10T08:04:11Z</time>
      </trkpt>
      <trkpt lat="48.14178" lon="-3.17056">
        <ele>249.8</ele>
        <time>2023-04-10T08:04:12Z</time>
      </trkpt>
      <trkpt lat="48.14173" lon="-3.17058">
        <ele>249.8</ele>
        <time>2023-04-10T08:04:13Z</time>
      </trkpt>
      <trkpt lat="48.1417" lon="-3.17059">
        <ele>249.8</ele>
        <time>2023-04-10T08:04:14Z</time>
      </trkpt>
      <trkpt lat="48.14167" lon="-3.1706">
        <ele>249.8</ele>
        <time>2023-04-10T08:04:15Z</time>
      </trkpt>
      <trkpt lat="48.14164" lon="-3.17062">
        <ele>249.8</ele>
        <time>2023-04-10T08:04:16Z</time>
      </trkpt>
      <trkpt lat="48.1416" lon="-3.17062">
        <ele>249.8</ele>
        <time>2023-04-10T08:04:17Z</time>
      </trkpt>
      <trkpt lat="48.14157" lon="-3.17063">
        <ele>249.8</ele>
        <time>2023-04-10T08:04:18Z</time>
      </trkpt>
      <trkpt lat="48.14153" lon="-3.17065">
        <ele>249.8</ele>
        <time>2023-04-10T08:04:19Z</time>
      </trkpt>
      <trkpt lat="48.14148" lon="-3.17067">
        <ele>249.8</ele>
        <time>2023-04-10T08:04:20Z</time>
      </trkpt>
      <trkpt lat="48.14123" lon="-3.17071">
        <ele>249.8</ele>
        <time>2023-04-10T08:04:25Z</time>
      </trkpt>
      <trkpt lat="48.14108" lon="-3.17067">
        <ele>249.6</ele>
        <time>2023-04-10T08:04:28Z</time>
      </trkpt>
      <trkpt lat="48.14104" lon="-3.17066">
        <ele>249.6</ele>
        <time>2023-04-10T08:04:29Z</time>
      </trkpt>
      <trkpt lat="48.141" lon="-3.17066">
        <ele>249.6</ele>
        <time>2023-04-10T08:04:30Z</time>
      </trkpt>
      <trkpt lat="48.14097" lon="-3.17066">
        <ele>249.4</ele>
        <time>2023-04-10T08:04:31Z</time>
      </trkpt>
      <trkpt lat="48.14076" lon="-3.17062">
        <ele>249</ele>
        <time>2023-04-10T08:04:36Z</time>
      </trkpt>
      <trkpt lat="48.14072" lon="-3.17061">
        <ele>248.8</ele>
        <time>2023-04-10T08:04:37Z</time>
      </trkpt>
      <trkpt lat="48.14063" lon="-3.17058">
        <ele>248.4</ele>
        <time>2023-04-10T08:04:39Z</time>
      </trkpt>
      <trkpt lat="48.14059" lon="-3.17056">
        <ele>248.2</ele>
        <time>2023-04-10T08:04:40Z</time>
      </trkpt>
      <trkpt lat="48.14054" lon="-3.17055">
        <ele>248</ele>
        <time>2023-04-10T08:04:41Z</time>
      </trkpt>
      <trkpt lat="48.1405" lon="-3.17054">
        <ele>248</ele>
        <time>2023-04-10T08:04:42Z</time>
      </trkpt>
      <trkpt lat="48.1404" lon="-3.17053">
        <ele>247.4</ele>
        <time>2023-04-10T08:04:44Z</time>
      </trkpt>
      <trkpt lat="48.14029" lon="-3.17054">
        <ele>247</ele>
        <time>2023-04-10T08:04:46Z</time>
      </trkpt>
      <trkpt lat="48.14014" lon="-3.17055">
        <ele>246.6</ele>
        <time>2023-04-10T08:04:49Z</time>
      </trkpt>
      <trkpt lat="48.14008" lon="-3.17055">
        <ele>246.6</ele>
        <time>2023-04-10T08:04:50Z</time>
      </trkpt>
      <trkpt lat="48.13991" lon="-3.17051">
        <ele>246</ele>
        <time>2023-04-10T08:04:53Z</time>
      </trkpt>
      <trkpt lat="48.13985" lon="-3.17049">
        <ele>246</ele>
        <time>2023-04-10T08:04:54Z</time>
      </trkpt>
      <trkpt lat="48.13958" lon="-3.17039">
        <ele>245.4</ele>
        <time>2023-04-10T08:04:58Z</time>
      </trkpt>
      <trkpt lat="48.13945" lon="-3.17032">
        <ele>245.2</ele>
        <time>2023-04-10T08:05:00Z</time>
      </trkpt>
      <trkpt lat="48.1394" lon="-3.17027">
        <ele>244.8</ele>
        <time>2023-04-10T08:05:01Z</time>
      </trkpt>
      <trkpt lat="48.13937" lon="-3.1702">
        <ele>244.2</ele>
        <time>2023-04-10T08:05:02Z</time>
      </trkpt>
      <trkpt lat="48.13935" lon="-3.17013">
        <ele>243.2</ele>
        <time>2023-04-10T08:05:03Z</time>
      </trkpt>
      <trkpt lat="48.13934" lon="-3.17009">
        <ele>242.6</ele>
        <time>2023-04-10T08:05:04Z</time>
      </trkpt>
      <trkpt lat="48.13932" lon="-3.17004">
        <ele>242.2</ele>
        <time>2023-04-10T08:05:05Z</time>
      </trkpt>
      <trkpt lat="48.13929" lon="-3.17003">
        <ele>241.8</ele>
        <time>2023-04-10T08:05:06Z</time>
      </trkpt>
      <trkpt lat="48.13925" lon="-3.17004">
        <ele>241.2</ele>
        <time>2023-04-10T08:05:07Z</time>
      </trkpt>
      <trkpt lat="48.13922" lon="-3.17008">
        <ele>240.2</ele>
        <time>2023-04-10T08:05:08Z</time>
      </trkpt>
      <trkpt lat="48.13917" lon="-3.17015">
        <ele>239.2</ele>
        <time>2023-04-10T08:05:09Z</time>
      </trkpt>
      <trkpt lat="48.13914" lon="-3.17023">
        <ele>238.6</ele>
        <time>2023-04-10T08:05:10Z</time>
      </trkpt>
      <trkpt lat="48.1391" lon="-3.1703">
        <ele>238.2</ele>
        <time>2023-04-10T08:05:11Z</time>
      </trkpt>
      <trkpt lat="48.13906" lon="-3.17038">
        <ele>238.2</ele>
        <time>2023-04-10T08:05:12Z</time>
      </trkpt>
      <trkpt lat="48.13903" lon="-3.17046">
        <ele>238</ele>
        <time>2023-04-10T08:05:13Z</time>
      </trkpt>
      <trkpt lat="48.13899" lon="-3.17055">
        <ele>237.6</ele>
        <time>2023-04-10T08:05:14Z</time>
      </trkpt>
      <trkpt lat="48.13895" lon="-3.17064">
        <ele>237.6</ele>
        <time>2023-04-10T08:05:15Z</time>
      </trkpt>
      <trkpt lat="48.13888" lon="-3.17085">
        <ele>236.6</ele>
        <time>2023-04-10T08:05:17Z</time>
      </trkpt>
      <trkpt lat="48.13885" lon="-3.17096">
        <ele>236.2</ele>
        <time>2023-04-10T08:05:18Z</time>
      </trkpt>
      <trkpt lat="48.13878" lon="-3.17119">
        <ele>235.2</ele>
        <time>2023-04-10T08:05:20Z</time>
      </trkpt>
      <trkpt lat="48.13874" lon="-3.17131">
        <ele>234.4</ele>
        <time>2023-04-10T08:05:21Z</time>
      </trkpt>
      <trkpt lat="48.1387" lon="-3.17142">
        <ele>233.8</ele>
        <time>2023-04-10T08:05:22Z</time>
      </trkpt>
      <trkpt lat="48.13861" lon="-3.17164">
        <ele>233</ele>
        <time>2023-04-10T08:05:24Z</time>
      </trkpt>
      <trkpt lat="48.13857" lon="-3.17174">
        <ele>232.2</ele>
        <time>2023-04-10T08:05:25Z</time>
      </trkpt>
      <trkpt lat="48.13852" lon="-3.17184">
        <ele>231.6</ele>
        <time>2023-04-10T08:05:26Z</time>
      </trkpt>
      <trkpt lat="48.13847" lon="-3.17193">
        <ele>230.8</ele>
        <time>2023-04-10T08:05:27Z</time>
      </trkpt>
      <trkpt lat="48.1384" lon="-3.17201">
        <ele>230.2</ele>
        <time>2023-04-10T08:05:28Z</time>
      </trkpt>
      <trkpt lat="48.13834" lon="-3.17208">
        <ele>229.6</ele>
        <time>2023-04-10T08:05:29Z</time>
      </trkpt>
      <trkpt lat="48.13822" lon="-3.17216">
        <ele>228.4</ele>
        <time>2023-04-10T08:05:31Z</time>
      </trkpt>
      <trkpt lat="48.13816" lon="-3.17221">
        <ele>227.8</ele>
        <time>2023-04-10T08:05:32Z</time>
      </trkpt>
      <trkpt lat="48.1381" lon="-3.17225">
        <ele>227</ele>
        <time>2023-04-10T08:05:33Z</time>
      </trkpt>
      <trkpt lat="48.13805" lon="-3.17229">
        <ele>227</ele>
        <time>2023-04-10T08:05:34Z</time>
      </trkpt>
      <trkpt lat="48.13799" lon="-3.17233">
        <ele>226.4</ele>
        <time>2023-04-10T08:05:35Z</time>
      </trkpt>
      <trkpt lat="48.13795" lon="-3.17237">
        <ele>226.2</ele>
        <time>2023-04-10T08:05:36Z</time>
      </trkpt>
      <trkpt lat="48.13789" lon="-3.17242">
        <ele>225.8</ele>
        <time>2023-04-10T08:05:37Z</time>
      </trkpt>
      <trkpt lat="48.13778" lon="-3.17258">
        <ele>225</ele>
        <time>2023-04-10T08:05:39Z</time>
      </trkpt>
      <trkpt lat="48.13775" lon="-3.17266">
        <ele>224.4</ele>
        <time>2023-04-10T08:05:40Z</time>
      </trkpt>
      <trkpt lat="48.13774" lon="-3.17275">
        <ele>224.2</ele>
        <time>2023-04-10T08:05:41Z</time>
      </trkpt>
      <trkpt lat="48.13775" lon="-3.17283">
        <ele>223.8</ele>
        <time>2023-04-10T08:05:42Z</time>
      </trkpt>
      <trkpt lat="48.13775" lon="-3.17292">
        <ele>223.4</ele>
        <time>2023-04-10T08:05:43Z</time>
      </trkpt>
      <trkpt lat="48.13776" lon="-3.17301">
        <ele>223.2</ele>
        <time>2023-04-10T08:05:44Z</time>
      </trkpt>
      <trkpt lat="48.13777" lon="-3.17311">
        <ele>222.8</ele>
        <time>2023-04-10T08:05:45Z</time>
      </trkpt>
      <trkpt lat="48.13779" lon="-3.1732">
        <ele>222.6</ele>
        <time>2023-04-10T08:05:46Z</time>
      </trkpt>
      <trkpt lat="48.13782" lon="-3.17328">
        <ele>221.8</ele>
        <time>2023-04-10T08:05:47Z</time>
      </trkpt>
      <trkpt lat="48.13785" lon="-3.17335">
        <ele>221.4</ele>
        <time>2023-04-10T08:05:48Z</time>
      </trkpt>
      <trkpt lat="48.13789" lon="-3.17342">
        <ele>221.2</ele>
        <time>2023-04-10T08:05:49Z</time>
      </trkpt>
      <trkpt lat="48.13792" lon="-3.17349">
        <ele>220.6</ele>
        <time>2023-04-10T08:05:50Z</time>
      </trkpt>
      <trkpt lat="48.13796" lon="-3.17354">
        <ele>220</ele>
        <time>2023-04-10T08:05:51Z</time>
      </trkpt>
      <trkpt lat="48.138" lon="-3.17359">
        <ele>219.2</ele>
        <time>2023-04-10T08:05:52Z</time>
      </trkpt>
      <trkpt lat="48.13805" lon="-3.17363">
        <ele>218.8</ele>
        <time>2023-04-10T08:05:53Z</time>
      </trkpt>
      <trkpt lat="48.1381" lon="-3.17367">
        <ele>218.2</ele>
        <time>2023-04-10T08:05:54Z</time>
      </trkpt>
      <trkpt lat="48.13814" lon="-3.1737">
        <ele>217.8</ele>
        <time>2023-04-10T08:05:55Z</time>
      </trkpt>
      <trkpt lat="48.13819" lon="-3.17373">
        <ele>217.8</ele>
        <time>2023-04-10T08:05:56Z</time>
      </trkpt>
      <trkpt lat="48.13825" lon="-3.17376">
        <ele>217.4</ele>
        <time>2023-04-10T08:05:57Z</time>
      </trkpt>
      <trkpt lat="48.1383" lon="-3.17379">
        <ele>217</ele>
        <time>2023-04-10T08:05:58Z</time>
      </trkpt>
      <trkpt lat="48.13835" lon="-3.17382">
        <ele>216.8</ele>
        <time>2023-04-10T08:05:59Z</time>
      </trkpt>
      <trkpt lat="48.13838" lon="-3.17387">
        <ele>216.6</ele>
        <time>2023-04-10T08:06:00Z</time>
      </trkpt>
      <trkpt lat="48.1384" lon="-3.17391">
        <ele>216.2</ele>
        <time>2023-04-10T08:06:01Z</time>
      </trkpt>
      <trkpt lat="48.13842" lon="-3.17397">
        <ele>215.8</ele>
        <time>2023-04-10T08:06:02Z</time>
      </trkpt>
      <trkpt lat="48.13842" lon="-3.17403">
        <ele>215.4</ele>
        <time>2023-04-10T08:06:03Z</time>
      </trkpt>
      <trkpt lat="48.13841" lon="-3.17409">
        <ele>215.4</ele>
        <time>2023-04-10T08:06:04Z</time>
      </trkpt>
      <trkpt lat="48.13839" lon="-3.17415">
        <ele>215.2</ele>
        <time>2023-04-10T08:06:05Z</time>
      </trkpt>
      <trkpt lat="48.13838" lon="-3.17423">
        <ele>215</ele>
        <time>2023-04-10T08:06:06Z</time>
      </trkpt>
      <trkpt lat="48.13835" lon="-3.17429">
        <ele>215</ele>
        <time>2023-04-10T08:06:07Z</time>
      </trkpt>
      <trkpt lat="48.13832" lon="-3.17436">
        <ele>215</ele>
        <time>2023-04-10T08:06:08Z</time>
      </trkpt>
      <trkpt lat="48.13831" lon="-3.17441">
        <ele>214.8</ele>
        <time>2023-04-10T08:06:09Z</time>
      </trkpt>
      <trkpt lat="48.13831" lon="-3.17446">
        <ele>214.8</ele>
        <time>2023-04-10T08:06:10Z</time>
      </trkpt>
      <trkpt lat="48.13831" lon="-3.17452">
        <ele>214.8</ele>
        <time>2023-04-10T08:06:11Z</time>
      </trkpt>
      <trkpt lat="48.13828" lon="-3.17458">
        <ele>214.8</ele>
        <time>2023-04-10T08:06:12Z</time>
      </trkpt>
      <trkpt lat="48.13827" lon="-3.17463">
        <ele>214.8</ele>
        <time>2023-04-10T08:06:13Z</time>
      </trkpt>
      <trkpt lat="48.13824" lon="-3.17468">
        <ele>214.8</ele>
        <time>2023-04-10T08:06:14Z</time>
      </trkpt>
      <trkpt lat="48.13821" lon="-3.17472">
        <ele>214.8</ele>
        <time>2023-04-10T08:06:15Z</time>
      </trkpt>
      <trkpt lat="48.13817" lon="-3.17472">
        <ele>214.8</ele>
        <time>2023-04-10T08:06:16Z</time>
      </trkpt>
      <trkpt lat="48.13814" lon="-3.17471">
        <ele>214.8</ele>
        <time>2023-04-10T08:06:17Z</time>
      </trkpt>
      <trkpt lat="48.13811" lon="-3.1747">
        <ele>214.8</ele>
        <time>2023-04-10T08:06:18Z</time>
      </trkpt>
      <trkpt lat="48.13793" lon="-3.17467">
        <ele>215</ele>
        <time>2023-04-10T08:06:22Z</time>
      </trkpt>
      <trkpt lat="48.13786" lon="-3.17463">
        <ele>215</ele>
        <time>2023-04-10T08:06:24Z</time>
      </trkpt>
      <trkpt lat="48.13781" lon="-3.17454">
        <ele>215.2</ele>
        <time>2023-04-10T08:06:26Z</time>
      </trkpt>
      <trkpt lat="48.13778" lon="-3.17449">
        <ele>215.2</ele>
        <time>2023-04-10T08:06:27Z</time>
      </trkpt>
      <trkpt lat="48.13775" lon="-3.17445">
        <ele>215.2</ele>
        <time>2023-04-10T08:06:28Z</time>
      </trkpt>
      <trkpt lat="48.13761" lon="-3.17428">
        <ele>215.4</ele>
        <time>2023-04-10T08:06:32Z</time>
      </trkpt>
      <trkpt lat="48.13753" lon="-3.1742">
        <ele>215.4</ele>
        <time>2023-04-10T08:06:34Z</time>
      </trkpt>
      <trkpt lat="48.1375" lon="-3.17416">
        <ele>215.6</ele>
        <time>2023-04-10T08:06:35Z</time>
      </trkpt>
      <trkpt lat="48.13747" lon="-3.17411">
        <ele>215.6</ele>
        <time>2023-04-10T08:06:36Z</time>
      </trkpt>
      <trkpt lat="48.13745" lon="-3.17406">
        <ele>215.6</ele>
        <time>2023-04-10T08:06:37Z</time>
      </trkpt>
      <trkpt lat="48.13742" lon="-3.17401">
        <ele>215.6</ele>
        <time>2023-04-10T08:06:38Z</time>
      </trkpt>
      <trkpt lat="48.1374" lon="-3.17395">
        <ele>215.6</ele>
        <time>2023-04-10T08:06:39Z</time>
      </trkpt>
      <trkpt lat="48.13732" lon="-3.17379">
        <ele>215.6</ele>
        <time>2023-04-10T08:06:42Z</time>
      </trkpt>
      <trkpt lat="48.13725" lon="-3.17369">
        <ele>215.6</ele>
        <time>2023-04-10T08:06:44Z</time>
      </trkpt>
      <trkpt lat="48.13721" lon="-3.17364">
        <ele>215.4</ele>
        <time>2023-04-10T08:06:45Z</time>
      </trkpt>
      <trkpt lat="48.13717" lon="-3.17361">
        <ele>215.4</ele>
        <time>2023-04-10T08:06:46Z</time>
      </trkpt>
      <trkpt lat="48.13712" lon="-3.17357">
        <ele>215.4</ele>
        <time>2023-04-10T08:06:47Z</time>
      </trkpt>
      <trkpt lat="48.13707" lon="-3.17352">
        <ele>215.4</ele>
        <time>2023-04-10T08:06:48Z</time>
      </trkpt>
      <trkpt lat="48.13697" lon="-3.17345">
        <ele>215</ele>
        <time>2023-04-10T08:06:50Z</time>
      </trkpt>
      <trkpt lat="48.13692" lon="-3.17342">
        <ele>215</ele>
        <time>2023-04-10T08:06:51Z</time>
      </trkpt>
      <trkpt lat="48.13687" lon="-3.17339">
        <ele>214.8</ele>
        <time>2023-04-10T08:06:52Z</time>
      </trkpt>
      <trkpt lat="48.13682" lon="-3.17337">
        <ele>214.8</ele>
        <time>2023-04-10T08:06:53Z</time>
      </trkpt>
      <trkpt lat="48.13677" lon="-3.17334">
        <ele>214.8</ele>
        <time>2023-04-10T08:06:54Z</time>
      </trkpt>
      <trkpt lat="48.13672" lon="-3.17332">
        <ele>214.6</ele>
        <time>2023-04-10T08:06:55Z</time>
      </trkpt>
      <trkpt lat="48.13667" lon="-3.17329">
        <ele>214.6</ele>
        <time>2023-04-10T08:06:56Z</time>
      </trkpt>
      <trkpt lat="48.13663" lon="-3.17327">
        <ele>214.4</ele>
        <time>2023-04-10T08:06:57Z</time>
      </trkpt>
      <trkpt lat="48.13659" lon="-3.17324">
        <ele>214.4</ele>
        <time>2023-04-10T08:06:58Z</time>
      </trkpt>
      <trkpt lat="48.13655" lon="-3.1732">
        <ele>214.4</ele>
        <time>2023-04-10T08:06:59Z</time>
      </trkpt>
      <trkpt lat="48.13651" lon="-3.17316">
        <ele>214.2</ele>
        <time>2023-04-10T08:07:00Z</time>
      </trkpt>
      <trkpt lat="48.13647" lon="-3.17312">
        <ele>214.2</ele>
        <time>2023-04-10T08:07:01Z</time>
      </trkpt>
      <trkpt lat="48.13642" lon="-3.1731">
        <ele>214.2</ele>
        <time>2023-04-10T08:07:02Z</time>
      </trkpt>
      <trkpt lat="48.13638" lon="-3.17308">
        <ele>214.2</ele>
        <time>2023-04-10T08:07:03Z</time>
      </trkpt>
      <trkpt lat="48.13628" lon="-3.17302">
        <ele>214</ele>
        <time>2023-04-10T08:07:05Z</time>
      </trkpt>
      <trkpt lat="48.13624" lon="-3.17299">
        <ele>214</ele>
        <time>2023-04-10T08:07:06Z</time>
      </trkpt>
      <trkpt lat="48.13621" lon="-3.17295">
        <ele>214</ele>
        <time>2023-04-10T08:07:07Z</time>
      </trkpt>
      <trkpt lat="48.13619" lon="-3.1729">
        <ele>214</ele>
        <time>2023-04-10T08:07:08Z</time>
      </trkpt>
      <trkpt lat="48.13615" lon="-3.17286">
        <ele>213.8</ele>
        <time>2023-04-10T08:07:09Z</time>
      </trkpt>
      <trkpt lat="48.13612" lon="-3.17283">
        <ele>213.8</ele>
        <time>2023-04-10T08:07:10Z</time>
      </trkpt>
      <trkpt lat="48.13608" lon="-3.1728">
        <ele>213.8</ele>
        <time>2023-04-10T08:07:11Z</time>
      </trkpt>
      <trkpt lat="48.13604" lon="-3.17277">
        <ele>213.8</ele>
        <time>2023-04-10T08:07:12Z</time>
      </trkpt>
      <trkpt lat="48.13601" lon="-3.17272">
        <ele>213.8</ele>
        <time>2023-04-10T08:07:13Z</time>
      </trkpt>
      <trkpt lat="48.13596" lon="-3.1726">
        <ele>213.6</ele>
        <time>2023-04-10T08:07:15Z</time>
      </trkpt>
      <trkpt lat="48.13594" lon="-3.17252">
        <ele>213.6</ele>
        <time>2023-04-10T08:07:16Z</time>
      </trkpt>
      <trkpt lat="48.13591" lon="-3.17247">
        <ele>213.6</ele>
        <time>2023-04-10T08:07:17Z</time>
      </trkpt>
      <trkpt lat="48.13588" lon="-3.17243">
        <ele>213.4</ele>
        <time>2023-04-10T08:07:18Z</time>
      </trkpt>
      <trkpt lat="48.13584" lon="-3.17241">
        <ele>213.4</ele>
        <time>2023-04-10T08:07:19Z</time>
      </trkpt>
      <trkpt lat="48.13581" lon="-3.17238">
        <ele>213.2</ele>
        <time>2023-04-10T08:07:20Z</time>
      </trkpt>
      <trkpt lat="48.13579" lon="-3.17235">
        <ele>213</ele>
        <time>2023-04-10T08:07:21Z</time>
      </trkpt>
      <trkpt lat="48.13578" lon="-3.17232">
        <ele>213</ele>
        <time>2023-04-10T08:07:22Z</time>
      </trkpt>
      <trkpt lat="48.13579" lon="-3.1723">
        <ele>212.2</ele>
        <time>2023-04-10T08:07:23Z</time>
      </trkpt>
      <trkpt lat="48.13579" lon="-3.17226">
        <ele>211.8</ele>
        <time>2023-04-10T08:07:24Z</time>
      </trkpt>
      <trkpt lat="48.13577" lon="-3.17222">
        <ele>211.6</ele>
        <time>2023-04-10T08:07:25Z</time>
      </trkpt>
      <trkpt lat="48.13574" lon="-3.17219">
        <ele>211.6</ele>
        <time>2023-04-10T08:07:26Z</time>
      </trkpt>
      <trkpt lat="48.13571" lon="-3.17218">
        <ele>211.6</ele>
        <time>2023-04-10T08:07:27Z</time>
      </trkpt>
      <trkpt lat="48.13568" lon="-3.17217">
        <ele>211.6</ele>
        <time>2023-04-10T08:07:28Z</time>
      </trkpt>
      <trkpt lat="48.13565" lon="-3.17218">
        <ele>211.6</ele>
        <time>2023-04-10T08:07:29Z</time>
      </trkpt>
      <trkpt lat="48.13557" lon="-3.17222">
        <ele>211.6</ele>
        <time>2023-04-10T08:07:31Z</time>
      </trkpt>
      <trkpt lat="48.13553" lon="-3.17224">
        <ele>211.6</ele>
        <time>2023-04-10T08:07:32Z</time>
      </trkpt>
      <trkpt lat="48.13537" lon="-3.17234">
        <ele>212</ele>
        <time>2023-04-10T08:07:37Z</time>
      </trkpt>
      <trkpt lat="48.13525" lon="-3.17238">
        <ele>212.2</ele>
        <time>2023-04-10T08:07:39Z</time>
      </trkpt>
      <trkpt lat="48.13514" lon="-3.17244">
        <ele>212.4</ele>
        <time>2023-04-10T08:07:41Z</time>
      </trkpt>
      <trkpt lat="48.13512" lon="-3.17244">
        <ele>212.2</ele>
        <time>2023-04-10T08:07:42Z</time>
      </trkpt>
      <trkpt lat="48.13509" lon="-3.17245">
        <ele>212.4</ele>
        <time>2023-04-10T08:07:43Z</time>
      </trkpt>
      <trkpt lat="48.13505" lon="-3.17247">
        <ele>212.6</ele>
        <time>2023-04-10T08:07:44Z</time>
      </trkpt>
      <trkpt lat="48.135" lon="-3.17251">
        <ele>212.6</ele>
        <time>2023-04-10T08:07:45Z</time>
      </trkpt>
      <trkpt lat="48.13494" lon="-3.17254">
        <ele>212.4</ele>
        <time>2023-04-10T08:07:46Z</time>
      </trkpt>
      <trkpt lat="48.13489" lon="-3.17255">
        <ele>212.4</ele>
        <time>2023-04-10T08:07:47Z</time>
      </trkpt>
      <trkpt lat="48.13485" lon="-3.17256">
        <ele>212.4</ele>
        <time>2023-04-10T08:07:48Z</time>
      </trkpt>
      <trkpt lat="48.13479" lon="-3.17257">
        <ele>212.4</ele>
        <time>2023-04-10T08:07:50Z</time>
      </trkpt>
      <trkpt lat="48.13476" lon="-3.17258">
        <ele>212.6</ele>
        <time>2023-04-10T08:07:51Z</time>
      </trkpt>
      <trkpt lat="48.13472" lon="-3.17259">
        <ele>212.6</ele>
        <time>2023-04-10T08:07:52Z</time>
      </trkpt>
      <trkpt lat="48.13469" lon="-3.17261">
        <ele>212.6</ele>
        <time>2023-04-10T08:07:53Z</time>
      </trkpt>
      <trkpt lat="48.13467" lon="-3.17262">
        <ele>212.6</ele>
        <time>2023-04-10T08:07:54Z</time>
      </trkpt>
      <trkpt lat="48.13455" lon="-3.17271">
        <ele>213</ele>
        <time>2023-04-10T08:07:58Z</time>
      </trkpt>
      <trkpt lat="48.13451" lon="-3.17273">
        <ele>213</ele>
        <time>2023-04-10T08:07:59Z</time>
      </trkpt>
      <trkpt lat="48.13441" lon="-3.17277">
        <ele>213.2</ele>
        <time>2023-04-10T08:08:01Z</time>
      </trkpt>
      <trkpt lat="48.13438" lon="-3.17278">
        <ele>213.2</ele>
        <time>2023-04-10T08:08:02Z</time>
      </trkpt>
      <trkpt lat="48.13435" lon="-3.1728">
        <ele>213.2</ele>
        <time>2023-04-10T08:08:03Z</time>
      </trkpt>
      <trkpt lat="48.1343" lon="-3.17283">
        <ele>213.2</ele>
        <time>2023-04-10T08:08:04Z</time>
      </trkpt>
      <trkpt lat="48.13415" lon="-3.17292">
        <ele>213.2</ele>
        <time>2023-04-10T08:08:07Z</time>
      </trkpt>
      <trkpt lat="48.13378" lon="-3.17313">
        <ele>213</ele>
        <time>2023-04-10T08:08:13Z</time>
      </trkpt>
      <trkpt lat="48.13372" lon="-3.17316">
        <ele>213</ele>
        <time>2023-04-10T08:08:14Z</time>
      </trkpt>
      <trkpt lat="48.13366" lon="-3.17318">
        <ele>212.8</ele>
        <time>2023-04-10T08:08:15Z</time>
      </trkpt>
      <trkpt lat="48.13361" lon="-3.17319">
        <ele>212.8</ele>
        <time>2023-04-10T08:08:16Z</time>
      </trkpt>
      <trkpt lat="48.13355" lon="-3.17322">
        <ele>212.6</ele>
        <time>2023-04-10T08:08:17Z</time>
      </trkpt>
      <trkpt lat="48.13342" lon="-3.1733">
        <ele>211.8</ele>
        <time>2023-04-10T08:08:20Z</time>
      </trkpt>
      <trkpt lat="48.13335" lon="-3.17333">
        <ele>211.4</ele>
        <time>2023-04-10T08:08:21Z</time>
      </trkpt>
      <trkpt lat="48.13321" lon="-3.17338">
        <ele>211.2</ele>
        <time>2023-04-10T08:08:23Z</time>
      </trkpt>
      <trkpt lat="48.13315" lon="-3.17336">
        <ele>211</ele>
        <time>2023-04-10T08:08:24Z</time>
      </trkpt>
      <trkpt lat="48.13309" lon="-3.17333">
        <ele>210.6</ele>
        <time>2023-04-10T08:08:25Z</time>
      </trkpt>
      <trkpt lat="48.13305" lon="-3.17328">
        <ele>210.2</ele>
        <time>2023-04-10T08:08:26Z</time>
      </trkpt>
      <trkpt lat="48.133" lon="-3.17325">
        <ele>210</ele>
        <time>2023-04-10T08:08:27Z</time>
      </trkpt>
      <trkpt lat="48.13295" lon="-3.17323">
        <ele>209.6</ele>
        <time>2023-04-10T08:08:28Z</time>
      </trkpt>
      <trkpt lat="48.1329" lon="-3.1732">
        <ele>209.2</ele>
        <time>2023-04-10T08:08:29Z</time>
      </trkpt>
      <trkpt lat="48.13285" lon="-3.17317">
        <ele>209</ele>
        <time>2023-04-10T08:08:30Z</time>
      </trkpt>
      <trkpt lat="48.13277" lon="-3.1731">
        <ele>208.8</ele>
        <time>2023-04-10T08:08:32Z</time>
      </trkpt>
      <trkpt lat="48.13263" lon="-3.17297">
        <ele>208.6</ele>
        <time>2023-04-10T08:08:35Z</time>
      </trkpt>
      <trkpt lat="48.13258" lon="-3.17293">
        <ele>208.6</ele>
        <time>2023-04-10T08:08:36Z</time>
      </trkpt>
      <trkpt lat="48.1324" lon="-3.17286">
        <ele>208.4</ele>
        <time>2023-04-10T08:08:39Z</time>
      </trkpt>
      <trkpt lat="48.13235" lon="-3.17282">
        <ele>208.4</ele>
        <time>2023-04-10T08:08:40Z</time>
      </trkpt>
      <trkpt lat="48.13231" lon="-3.17278">
        <ele>208.4</ele>
        <time>2023-04-10T08:08:41Z</time>
      </trkpt>
      <trkpt lat="48.13226" lon="-3.17275">
        <ele>208.2</ele>
        <time>2023-04-10T08:08:42Z</time>
      </trkpt>
      <trkpt lat="48.13221" lon="-3.17272">
        <ele>208.2</ele>
        <time>2023-04-10T08:08:43Z</time>
      </trkpt>
      <trkpt lat="48.13217" lon="-3.17268">
        <ele>208.2</ele>
        <time>2023-04-10T08:08:44Z</time>
      </trkpt>
      <trkpt lat="48.13211" lon="-3.17265">
        <ele>208.2</ele>
        <time>2023-04-10T08:08:45Z</time>
      </trkpt>
      <trkpt lat="48.13206" lon="-3.17262">
        <ele>208.2</ele>
        <time>2023-04-10T08:08:46Z</time>
      </trkpt>
      <trkpt lat="48.13202" lon="-3.17258">
        <ele>208</ele>
        <time>2023-04-10T08:08:47Z</time>
      </trkpt>
      <trkpt lat="48.13198" lon="-3.17253">
        <ele>208</ele>
        <time>2023-04-10T08:08:48Z</time>
      </trkpt>
      <trkpt lat="48.13195" lon="-3.17247">
        <ele>207.8</ele>
        <time>2023-04-10T08:08:49Z</time>
      </trkpt>
      <trkpt lat="48.13193" lon="-3.17241">
        <ele>207.4</ele>
        <time>2023-04-10T08:08:50Z</time>
      </trkpt>
      <trkpt lat="48.1319" lon="-3.17236">
        <ele>207.4</ele>
        <time>2023-04-10T08:08:51Z</time>
      </trkpt>
      <trkpt lat="48.13185" lon="-3.17232">
        <ele>207.2</ele>
        <time>2023-04-10T08:08:52Z</time>
      </trkpt>
      <trkpt lat="48.13183" lon="-3.17228">
        <ele>207.2</ele>
        <time>2023-04-10T08:08:53Z</time>
      </trkpt>
      <trkpt lat="48.13178" lon="-3.1722">
        <ele>207.2</ele>
        <time>2023-04-10T08:08:55Z</time>
      </trkpt>
      <trkpt lat="48.13176" lon="-3.17215">
        <ele>207.2</ele>
        <time>2023-04-10T08:08:56Z</time>
      </trkpt>
      <trkpt lat="48.13174" lon="-3.17209">
        <ele>207.2</ele>
        <time>2023-04-10T08:08:57Z</time>
      </trkpt>
      <trkpt lat="48.13171" lon="-3.17203">
        <ele>207.2</ele>
        <time>2023-04-10T08:08:58Z</time>
      </trkpt>
      <trkpt lat="48.13165" lon="-3.17189">
        <ele>207.2</ele>
        <time>2023-04-10T08:09:00Z</time>
      </trkpt>
      <trkpt lat="48.13159" lon="-3.17175">
        <ele>207.4</ele>
        <time>2023-04-10T08:09:02Z</time>
      </trkpt>
      <trkpt lat="48.13155" lon="-3.17168">
        <ele>207.6</ele>
        <time>2023-04-10T08:09:03Z</time>
      </trkpt>
      <trkpt lat="48.13149" lon="-3.17157">
        <ele>207.6</ele>
        <time>2023-04-10T08:09:05Z</time>
      </trkpt>
      <trkpt lat="48.13146" lon="-3.17151">
        <ele>207.6</ele>
        <time>2023-04-10T08:09:06Z</time>
      </trkpt>
      <trkpt lat="48.13142" lon="-3.17143">
        <ele>207.6</ele>
        <time>2023-04-10T08:09:07Z</time>
      </trkpt>
      <trkpt lat="48.13138" lon="-3.17138">
        <ele>207.6</ele>
        <time>2023-04-10T08:09:08Z</time>
      </trkpt>
      <trkpt lat="48.13133" lon="-3.17136">
        <ele>207.6</ele>
        <time>2023-04-10T08:09:09Z</time>
      </trkpt>
      <trkpt lat="48.1313" lon="-3.17139">
        <ele>207.6</ele>
        <time>2023-04-10T08:09:10Z</time>
      </trkpt>
      <trkpt lat="48.13127" lon="-3.17144">
        <ele>207.6</ele>
        <time>2023-04-10T08:09:11Z</time>
      </trkpt>
      <trkpt lat="48.13126" lon="-3.1715">
        <ele>207.6</ele>
        <time>2023-04-10T08:09:12Z</time>
      </trkpt>
      <trkpt lat="48.13123" lon="-3.17155">
        <ele>207.6</ele>
        <time>2023-04-10T08:09:13Z</time>
      </trkpt>
      <trkpt lat="48.13113" lon="-3.17167">
        <ele>207.4</ele>
        <time>2023-04-10T08:09:15Z</time>
      </trkpt>
      <trkpt lat="48.1311" lon="-3.17182">
        <ele>207.2</ele>
        <time>2023-04-10T08:09:17Z</time>
      </trkpt>
      <trkpt lat="48.1311" lon="-3.17189">
        <ele>206.8</ele>
        <time>2023-04-10T08:09:18Z</time>
      </trkpt>
      <trkpt lat="48.13108" lon="-3.17196">
        <ele>206.2</ele>
        <time>2023-04-10T08:09:19Z</time>
      </trkpt>
      <trkpt lat="48.131" lon="-3.17213">
        <ele>205.2</ele>
        <time>2023-04-10T08:09:22Z</time>
      </trkpt>
      <trkpt lat="48.131" lon="-3.17218">
        <ele>205</ele>
        <time>2023-04-10T08:09:23Z</time>
      </trkpt>
      <trkpt lat="48.13098" lon="-3.17223">
        <ele>204.8</ele>
        <time>2023-04-10T08:09:24Z</time>
      </trkpt>
      <trkpt lat="48.13096" lon="-3.17228">
        <ele>204.6</ele>
        <time>2023-04-10T08:09:25Z</time>
      </trkpt>
      <trkpt lat="48.13094" lon="-3.17233">
        <ele>204.6</ele>
        <time>2023-04-10T08:09:26Z</time>
      </trkpt>
      <trkpt lat="48.13092" lon="-3.17237">
        <ele>204.6</ele>
        <time>2023-04-10T08:09:27Z</time>
      </trkpt>
      <trkpt lat="48.13089" lon="-3.17241">
        <ele>204.4</ele>
        <time>2023-04-10T08:09:28Z</time>
      </trkpt>
      <trkpt lat="48.13086" lon="-3.17244">
        <ele>204.4</ele>
        <time>2023-04-10T08:09:29Z</time>
      </trkpt>
      <trkpt lat="48.13083" lon="-3.17246">
        <ele>204.4</ele>
        <time>2023-04-10T08:09:30Z</time>
      </trkpt>
      <trkpt lat="48.13079" lon="-3.17247">
        <ele>204.4</ele>
        <time>2023-04-10T08:09:31Z</time>
      </trkpt>
      <trkpt lat="48.13075" lon="-3.17247">
        <ele>204.4</ele>
        <time>2023-04-10T08:09:32Z</time>
      </trkpt>
      <trkpt lat="48.13072" lon="-3.17247">
        <ele>204.4</ele>
        <time>2023-04-10T08:09:33Z</time>
      </trkpt>
      <trkpt lat="48.13069" lon="-3.17246">
        <ele>204.4</ele>
        <time>2023-04-10T08:09:34Z</time>
      </trkpt>
      <trkpt lat="48.13066" lon="-3.17246">
        <ele>204.4</ele>
        <time>2023-04-10T08:09:35Z</time>
      </trkpt>
      <trkpt lat="48.13063" lon="-3.17246">
        <ele>204.4</ele>
        <time>2023-04-10T08:09:36Z</time>
      </trkpt>
      <trkpt lat="48.13061" lon="-3.17247">
        <ele>204.4</ele>
        <time>2023-04-10T08:09:37Z</time>
      </trkpt>
      <trkpt lat="48.1306" lon="-3.17249">
        <ele>204.4</ele>
        <time>2023-04-10T08:09:38Z</time>
      </trkpt>
      <trkpt lat="48.1306" lon="-3.17251">
        <ele>204.4</ele>
        <time>2023-04-10T08:09:39Z</time>
      </trkpt>
      <trkpt lat="48.1306" lon="-3.17253">
        <ele>204.4</ele>
        <time>2023-04-10T08:09:40Z</time>
      </trkpt>
      <trkpt lat="48.13059" lon="-3.17253">
        <ele>204.6</ele>
        <time>2023-04-10T08:09:41Z</time>
      </trkpt>
      <trkpt lat="48.13057" lon="-3.17254">
        <ele>204.6</ele>
        <time>2023-04-10T08:09:42Z</time>
      </trkpt>
      <trkpt lat="48.13055" lon="-3.17254">
        <ele>204.6</ele>
        <time>2023-04-10T08:09:43Z</time>
      </trkpt>
      <trkpt lat="48.13053" lon="-3.17253">
        <ele>204.6</ele>
        <time>2023-04-10T08:09:44Z</time>
      </trkpt>
      <trkpt lat="48.1305" lon="-3.17252">
        <ele>204.6</ele>
        <time>2023-04-10T08:09:45Z</time>
      </trkpt>
      <trkpt lat="48.13047" lon="-3.17251">
        <ele>204.6</ele>
        <time>2023-04-10T08:09:46Z</time>
      </trkpt>
      <trkpt lat="48.13044" lon="-3.1725">
        <ele>204.6</ele>
        <time>2023-04-10T08:09:47Z</time>
      </trkpt>
      <trkpt lat="48.13036" lon="-3.17249">
        <ele>204.6</ele>
        <time>2023-04-10T08:09:50Z</time>
      </trkpt>
      <trkpt lat="48.13025" lon="-3.17248">
        <ele>204.6</ele>
        <time>2023-04-10T08:09:54Z</time>
      </trkpt>
      <trkpt lat="48.13023" lon="-3.17249">
        <ele>204.6</ele>
        <time>2023-04-10T08:09:55Z</time>
      </trkpt>
      <trkpt lat="48.13021" lon="-3.1725">
        <ele>204.6</ele>
        <time>2023-04-10T08:09:56Z</time>
      </trkpt>
      <trkpt lat="48.13018" lon="-3.17251">
        <ele>204.6</ele>
        <time>2023-04-10T08:09:57Z</time>
      </trkpt>
      <trkpt lat="48.13007" lon="-3.17256">
        <ele>204.6</ele>
        <time>2023-04-10T08:10:01Z</time>
      </trkpt>
      <trkpt lat="48.13001" lon="-3.17258">
        <ele>204.4</ele>
        <time>2023-04-10T08:10:03Z</time>
      </trkpt>
      <trkpt lat="48.12993" lon="-3.17262">
        <ele>204.4</ele>
        <time>2023-04-10T08:10:06Z</time>
      </trkpt>
      <trkpt lat="48.12991" lon="-3.17264">
        <ele>204.4</ele>
        <time>2023-04-10T08:10:07Z</time>
      </trkpt>
      <trkpt lat="48.12989" lon="-3.17266">
        <ele>204.4</ele>
        <time>2023-04-10T08:10:08Z</time>
      </trkpt>
      <trkpt lat="48.12986" lon="-3.17268">
        <ele>204.4</ele>
        <time>2023-04-10T08:10:09Z</time>
      </trkpt>
      <trkpt lat="48.1298" lon="-3.17278">
        <ele>204.4</ele>
        <time>2023-04-10T08:10:13Z</time>
      </trkpt>
      <trkpt lat="48.12977" lon="-3.17284">
        <ele>204.4</ele>
        <time>2023-04-10T08:10:15Z</time>
      </trkpt>
      <trkpt lat="48.12974" lon="-3.17287">
        <ele>204.4</ele>
        <time>2023-04-10T08:10:16Z</time>
      </trkpt>
      <trkpt lat="48.12971" lon="-3.17293">
        <ele>204.4</ele>
        <time>2023-04-10T08:10:18Z</time>
      </trkpt>
      <trkpt lat="48.12971" lon="-3.17293">
        <ele>204.4</ele>
        <time>2023-04-10T08:10:19Z</time>
      </trkpt>
      <trkpt lat="48.12971" lon="-3.17293">
        <ele>204.4</ele>
        <time>2023-04-10T08:10:20Z</time>
      </trkpt>
      <trkpt lat="48.12971" lon="-3.17294">
        <ele>204.4</ele>
        <time>2023-04-10T08:10:21Z</time>
      </trkpt>
      <trkpt lat="48.12969" lon="-3.17295">
        <ele>204.4</ele>
        <time>2023-04-10T08:10:25Z</time>
      </trkpt>
      <trkpt lat="48.12968" lon="-3.17294">
        <ele>204.4</ele>
        <time>2023-04-10T08:10:27Z</time>
      </trkpt>
      <trkpt lat="48.12966" lon="-3.17294">
        <ele>204.4</ele>
        <time>2023-04-10T08:10:29Z</time>
      </trkpt>
      <trkpt lat="48.12962" lon="-3.17308">
        <ele>204.6</ele>
        <time>2023-04-10T08:10:33Z</time>
      </trkpt>
      <trkpt lat="48.12963" lon="-3.17319">
        <ele>204.6</ele>
        <time>2023-04-10T08:10:35Z</time>
      </trkpt>
      <trkpt lat="48.12963" lon="-3.17324">
        <ele>204.6</ele>
        <time>2023-04-10T08:10:36Z</time>
      </trkpt>
      <trkpt lat="48.12964" lon="-3.17329">
        <ele>204.6</ele>
        <time>2023-04-10T08:10:37Z</time>
      </trkpt>
      <trkpt lat="48.12964" lon="-3.17334">
        <ele>204.6</ele>
        <time>2023-04-10T08:10:38Z</time>
      </trkpt>
      <trkpt lat="48.12964" lon="-3.17339">
        <ele>204.6</ele>
        <time>2023-04-10T08:10:39Z</time>
      </trkpt>
      <trkpt lat="48.12964" lon="-3.17342">
        <ele>204.6</ele>
        <time>2023-04-10T08:10:40Z</time>
      </trkpt>
      <trkpt lat="48.12963" lon="-3.17345">
        <ele>204.6</ele>
        <time>2023-04-10T08:10:41Z</time>
      </trkpt>
      <trkpt lat="48.1296" lon="-3.17347">
        <ele>204.6</ele>
        <time>2023-04-10T08:10:42Z</time>
      </trkpt>
      <trkpt lat="48.12958" lon="-3.17349">
        <ele>204.6</ele>
        <time>2023-04-10T08:10:43Z</time>
      </trkpt>
      <trkpt lat="48.12957" lon="-3.17351">
        <ele>204.6</ele>
        <time>2023-04-10T08:10:44Z</time>
      </trkpt>
      <trkpt lat="48.12955" lon="-3.17352">
        <ele>204.6</ele>
        <time>2023-04-10T08:10:45Z</time>
      </trkpt>
      <trkpt lat="48.12953" lon="-3.17354">
        <ele>204.6</ele>
        <time>2023-04-10T08:10:46Z</time>
      </trkpt>
      <trkpt lat="48.1295" lon="-3.17356">
        <ele>204.6</ele>
        <time>2023-04-10T08:10:47Z</time>
      </trkpt>
      <trkpt lat="48.12948" lon="-3.17357">
        <ele>204.4</ele>
        <time>2023-04-10T08:10:48Z</time>
      </trkpt>
      <trkpt lat="48.12943" lon="-3.1736">
        <ele>204.4</ele>
        <time>2023-04-10T08:10:50Z</time>
      </trkpt>
      <trkpt lat="48.12941" lon="-3.17362">
        <ele>204.4</ele>
        <time>2023-04-10T08:10:51Z</time>
      </trkpt>
      <trkpt lat="48.12927" lon="-3.17372">
        <ele>204.6</ele>
        <time>2023-04-10T08:10:56Z</time>
      </trkpt>
      <trkpt lat="48.12919" lon="-3.17376">
        <ele>204.6</ele>
        <time>2023-04-10T08:10:59Z</time>
      </trkpt>
      <trkpt lat="48.12912" lon="-3.17375">
        <ele>204.6</ele>
        <time>2023-04-10T08:11:01Z</time>
      </trkpt>
      <trkpt lat="48.12909" lon="-3.17374">
        <ele>204.6</ele>
        <time>2023-04-10T08:11:02Z</time>
      </trkpt>
      <trkpt lat="48.12904" lon="-3.17373">
        <ele>204.6</ele>
        <time>2023-04-10T08:11:03Z</time>
      </trkpt>
      <trkpt lat="48.12901" lon="-3.17371">
        <ele>204.6</ele>
        <time>2023-04-10T08:11:04Z</time>
      </trkpt>
      <trkpt lat="48.12896" lon="-3.17367">
        <ele>204.6</ele>
        <time>2023-04-10T08:11:06Z</time>
      </trkpt>
      <trkpt lat="48.12893" lon="-3.17365">
        <ele>204.6</ele>
        <time>2023-04-10T08:11:07Z</time>
      </trkpt>
      <trkpt lat="48.1289" lon="-3.17363">
        <ele>204.6</ele>
        <time>2023-04-10T08:11:08Z</time>
      </trkpt>
      <trkpt lat="48.12887" lon="-3.17361">
        <ele>204.6</ele>
        <time>2023-04-10T08:11:09Z</time>
      </trkpt>
      <trkpt lat="48.12884" lon="-3.17358">
        <ele>204.6</ele>
        <time>2023-04-10T08:11:10Z</time>
      </trkpt>
      <trkpt lat="48.12881" lon="-3.17356">
        <ele>204.4</ele>
        <time>2023-04-10T08:11:11Z</time>
      </trkpt>
      <trkpt lat="48.12879" lon="-3.17354">
        <ele>204.4</ele>
        <time>2023-04-10T08:11:12Z</time>
      </trkpt>
      <trkpt lat="48.12877" lon="-3.17352">
        <ele>204.2</ele>
        <time>2023-04-10T08:11:13Z</time>
      </trkpt>
      <trkpt lat="48.12874" lon="-3.1735">
        <ele>204.2</ele>
        <time>2023-04-10T08:11:14Z</time>
      </trkpt>
      <trkpt lat="48.12872" lon="-3.17347">
        <ele>204.2</ele>
        <time>2023-04-10T08:11:15Z</time>
      </trkpt>
      <trkpt lat="48.12869" lon="-3.17347">
        <ele>204.2</ele>
        <time>2023-04-10T08:11:16Z</time>
      </trkpt>
      <trkpt lat="48.12866" lon="-3.17346">
        <ele>204.2</ele>
        <time>2023-04-10T08:11:17Z</time>
      </trkpt>
      <trkpt lat="48.12864" lon="-3.17346">
        <ele>204.2</ele>
        <time>2023-04-10T08:11:18Z</time>
      </trkpt>
      <trkpt lat="48.12858" lon="-3.17343">
        <ele>204.2</ele>
        <time>2023-04-10T08:11:20Z</time>
      </trkpt>
      <trkpt lat="48.12858" lon="-3.17342">
        <ele>204.2</ele>
        <time>2023-04-10T08:11:21Z</time>
      </trkpt>
      <trkpt lat="48.12856" lon="-3.17342">
        <ele>204.2</ele>
        <time>2023-04-10T08:11:22Z</time>
      </trkpt>
      <trkpt lat="48.12856" lon="-3.17344">
        <ele>204.2</ele>
        <time>2023-04-10T08:11:23Z</time>
      </trkpt>
      <trkpt lat="48.12855" lon="-3.17347">
        <ele>204.2</ele>
        <time>2023-04-10T08:11:24Z</time>
      </trkpt>
      <trkpt lat="48.12853" lon="-3.17347">
        <ele>204.2</ele>
        <time>2023-04-10T08:11:25Z</time>
      </trkpt>
      <trkpt lat="48.12852" lon="-3.17346">
        <ele>204.2</ele>
        <time>2023-04-10T08:11:26Z</time>
      </trkpt>
      <trkpt lat="48.1285" lon="-3.17345">
        <ele>204.2</ele>
        <time>2023-04-10T08:11:27Z</time>
      </trkpt>
      <trkpt lat="48.12847" lon="-3.17344">
        <ele>204.2</ele>
        <time>2023-04-10T08:11:28Z</time>
      </trkpt>
      <trkpt lat="48.1284" lon="-3.17342">
        <ele>204.2</ele>
        <time>2023-04-10T08:11:30Z</time>
      </trkpt>
      <trkpt lat="48.12814" lon="-3.17338">
        <ele>204.8</ele>
        <time>2023-04-10T08:11:37Z</time>
      </trkpt>
      <trkpt lat="48.12798" lon="-3.17343">
        <ele>205</ele>
        <time>2023-04-10T08:11:42Z</time>
      </trkpt>
      <trkpt lat="48.12795" lon="-3.17344">
        <ele>205</ele>
        <time>2023-04-10T08:11:43Z</time>
      </trkpt>
      <trkpt lat="48.12791" lon="-3.17346">
        <ele>205</ele>
        <time>2023-04-10T08:11:44Z</time>
      </trkpt>
      <trkpt lat="48.12772" lon="-3.17362">
        <ele>205.2</ele>
        <time>2023-04-10T08:11:50Z</time>
      </trkpt>
      <trkpt lat="48.12757" lon="-3.17373">
        <ele>205.4</ele>
        <time>2023-04-10T08:11:54Z</time>
      </trkpt>
      <trkpt lat="48.12749" lon="-3.17379">
        <ele>205.4</ele>
        <time>2023-04-10T08:11:56Z</time>
      </trkpt>
      <trkpt lat="48.12743" lon="-3.17384">
        <ele>205.4</ele>
        <time>2023-04-10T08:11:58Z</time>
      </trkpt>
      <trkpt lat="48.1274" lon="-3.17387">
        <ele>205.4</ele>
        <time>2023-04-10T08:11:59Z</time>
      </trkpt>
      <trkpt lat="48.12737" lon="-3.17389">
        <ele>205.4</ele>
        <time>2023-04-10T08:12:00Z</time>
      </trkpt>
      <trkpt lat="48.12733" lon="-3.17391">
        <ele>205.4</ele>
        <time>2023-04-10T08:12:01Z</time>
      </trkpt>
      <trkpt lat="48.1273" lon="-3.17392">
        <ele>205.4</ele>
        <time>2023-04-10T08:12:02Z</time>
      </trkpt>
      <trkpt lat="48.12724" lon="-3.17394">
        <ele>205.4</ele>
        <time>2023-04-10T08:12:04Z</time>
      </trkpt>
      <trkpt lat="48.12722" lon="-3.17392">
        <ele>205.4</ele>
        <time>2023-04-10T08:12:05Z</time>
      </trkpt>
      <trkpt lat="48.12721" lon="-3.17389">
        <ele>205.4</ele>
        <time>2023-04-10T08:12:06Z</time>
      </trkpt>
      <trkpt lat="48.1272" lon="-3.17386">
        <ele>205.4</ele>
        <time>2023-04-10T08:12:07Z</time>
      </trkpt>
      <trkpt lat="48.12718" lon="-3.17384">
        <ele>205.4</ele>
        <time>2023-04-10T08:12:08Z</time>
      </trkpt>
      <trkpt lat="48.12715" lon="-3.17383">
        <ele>205.4</ele>
        <time>2023-04-10T08:12:09Z</time>
      </trkpt>
      <trkpt lat="48.12701" lon="-3.17368">
        <ele>205</ele>
        <time>2023-04-10T08:12:13Z</time>
      </trkpt>
      <trkpt lat="48.12698" lon="-3.17364">
        <ele>205</ele>
        <time>2023-04-10T08:12:14Z</time>
      </trkpt>
      <trkpt lat="48.12695" lon="-3.1736">
        <ele>205</ele>
        <time>2023-04-10T08:12:15Z</time>
      </trkpt>
      <trkpt lat="48.12689" lon="-3.17354">
        <ele>204.8</ele>
        <time>2023-04-10T08:12:17Z</time>
      </trkpt>
      <trkpt lat="48.12684" lon="-3.17346">
        <ele>204.6</ele>
        <time>2023-04-10T08:12:19Z</time>
      </trkpt>
      <trkpt lat="48.12682" lon="-3.17343">
        <ele>204.6</ele>
        <time>2023-04-10T08:12:20Z</time>
      </trkpt>
      <trkpt lat="48.12679" lon="-3.1734">
        <ele>204.6</ele>
        <time>2023-04-10T08:12:21Z</time>
      </trkpt>
      <trkpt lat="48.12677" lon="-3.17339">
        <ele>204.6</ele>
        <time>2023-04-10T08:12:22Z</time>
      </trkpt>
      <trkpt lat="48.12673" lon="-3.17337">
        <ele>204.6</ele>
        <time>2023-04-10T08:12:23Z</time>
      </trkpt>
      <trkpt lat="48.12669" lon="-3.17339">
        <ele>204.6</ele>
        <time>2023-04-10T08:12:24Z</time>
      </trkpt>
      <trkpt lat="48.12664" lon="-3.17342">
        <ele>204.6</ele>
        <time>2023-04-10T08:12:25Z</time>
      </trkpt>
      <trkpt lat="48.12656" lon="-3.17355">
        <ele>204.4</ele>
        <time>2023-04-10T08:12:27Z</time>
      </trkpt>
      <trkpt lat="48.12652" lon="-3.1737">
        <ele>204.4</ele>
        <time>2023-04-10T08:12:29Z</time>
      </trkpt>
      <trkpt lat="48.1265" lon="-3.17378">
        <ele>204.4</ele>
        <time>2023-04-10T08:12:30Z</time>
      </trkpt>
      <trkpt lat="48.12648" lon="-3.17385">
        <ele>204.2</ele>
        <time>2023-04-10T08:12:31Z</time>
      </trkpt>
      <trkpt lat="48.12647" lon="-3.1739">
        <ele>204.2</ele>
        <time>2023-04-10T08:12:32Z</time>
      </trkpt>
      <trkpt lat="48.12645" lon="-3.17397">
        <ele>204.2</ele>
        <time>2023-04-10T08:12:33Z</time>
      </trkpt>
      <trkpt lat="48.12642" lon="-3.17407">
        <ele>204</ele>
        <time>2023-04-10T08:12:34Z</time>
      </trkpt>
      <trkpt lat="48.12643" lon="-3.17414">
        <ele>203.8</ele>
        <time>2023-04-10T08:12:35Z</time>
      </trkpt>
      <trkpt lat="48.12643" lon="-3.1742">
        <ele>203.4</ele>
        <time>2023-04-10T08:12:36Z</time>
      </trkpt>
      <trkpt lat="48.12643" lon="-3.17425">
        <ele>203.4</ele>
        <time>2023-04-10T08:12:37Z</time>
      </trkpt>
      <trkpt lat="48.12643" lon="-3.17429">
        <ele>203</ele>
        <time>2023-04-10T08:12:38Z</time>
      </trkpt>
      <trkpt lat="48.12642" lon="-3.17435">
        <ele>202.6</ele>
        <time>2023-04-10T08:12:39Z</time>
      </trkpt>
      <trkpt lat="48.12642" lon="-3.1744">
        <ele>202.2</ele>
        <time>2023-04-10T08:12:40Z</time>
      </trkpt>
      <trkpt lat="48.12642" lon="-3.17452">
        <ele>201.8</ele>
        <time>2023-04-10T08:12:42Z</time>
      </trkpt>
      <trkpt lat="48.12641" lon="-3.17458">
        <ele>201.6</ele>
        <time>2023-04-10T08:12:43Z</time>
      </trkpt>
      <trkpt lat="48.12641" lon="-3.17475">
        <ele>201.6</ele>
        <time>2023-04-10T08:12:46Z</time>
      </trkpt>
      <trkpt lat="48.12639" lon="-3.17478">
        <ele>201.6</ele>
        <time>2023-04-10T08:12:47Z</time>
      </trkpt>
      <trkpt lat="48.12636" lon="-3.1748">
        <ele>201.6</ele>
        <time>2023-04-10T08:12:48Z</time>
      </trkpt>
      <trkpt lat="48.12611" lon="-3.17494">
        <ele>201.6</ele>
        <time>2023-04-10T08:12:54Z</time>
      </trkpt>
      <trkpt lat="48.12607" lon="-3.17496">
        <ele>201.6</ele>
        <time>2023-04-10T08:12:55Z</time>
      </trkpt>
      <trkpt lat="48.12604" lon="-3.17497">
        <ele>201.6</ele>
        <time>2023-04-10T08:12:56Z</time>
      </trkpt>
      <trkpt lat="48.1259" lon="-3.175">
        <ele>201.6</ele>
        <time>2023-04-10T08:12:59Z</time>
      </trkpt>
      <trkpt lat="48.12584" lon="-3.17501">
        <ele>201.6</ele>
        <time>2023-04-10T08:13:00Z</time>
      </trkpt>
      <trkpt lat="48.12579" lon="-3.17501">
        <ele>201.6</ele>
        <time>2023-04-10T08:13:01Z</time>
      </trkpt>
      <trkpt lat="48.12575" lon="-3.17502">
        <ele>201.6</ele>
        <time>2023-04-10T08:13:02Z</time>
      </trkpt>
      <trkpt lat="48.12571" lon="-3.17502">
        <ele>201.2</ele>
        <time>2023-04-10T08:13:03Z</time>
      </trkpt>
      <trkpt lat="48.12567" lon="-3.17502">
        <ele>200.6</ele>
        <time>2023-04-10T08:13:04Z</time>
      </trkpt>
      <trkpt lat="48.12564" lon="-3.17503">
        <ele>200.4</ele>
        <time>2023-04-10T08:13:05Z</time>
      </trkpt>
      <trkpt lat="48.12561" lon="-3.17505">
        <ele>200</ele>
        <time>2023-04-10T08:13:06Z</time>
      </trkpt>
      <trkpt lat="48.1256" lon="-3.17507">
        <ele>200</ele>
        <time>2023-04-10T08:13:07Z</time>
      </trkpt>
      <trkpt lat="48.12558" lon="-3.17509">
        <ele>199.6</ele>
        <time>2023-04-10T08:13:08Z</time>
      </trkpt>
      <trkpt lat="48.12555" lon="-3.1751">
        <ele>199.6</ele>
        <time>2023-04-10T08:13:09Z</time>
      </trkpt>
      <trkpt lat="48.12552" lon="-3.1751">
        <ele>199.4</ele>
        <time>2023-04-10T08:13:10Z</time>
      </trkpt>
      <trkpt lat="48.1255" lon="-3.17511">
        <ele>199.4</ele>
        <time>2023-04-10T08:13:11Z</time>
      </trkpt>
      <trkpt lat="48.12547" lon="-3.17513">
        <ele>199.2</ele>
        <time>2023-04-10T08:13:12Z</time>
      </trkpt>
      <trkpt lat="48.12541" lon="-3.17518">
        <ele>199.2</ele>
        <time>2023-04-10T08:13:14Z</time>
      </trkpt>
      <trkpt lat="48.12536" lon="-3.1752">
        <ele>199</ele>
        <time>2023-04-10T08:13:15Z</time>
      </trkpt>
      <trkpt lat="48.12524" lon="-3.17521">
        <ele>199</ele>
        <time>2023-04-10T08:13:18Z</time>
      </trkpt>
      <trkpt lat="48.1252" lon="-3.17522">
        <ele>199</ele>
        <time>2023-04-10T08:13:19Z</time>
      </trkpt>
      <trkpt lat="48.12516" lon="-3.17518">
        <ele>199</ele>
        <time>2023-04-10T08:13:21Z</time>
      </trkpt>
      <trkpt lat="48.12515" lon="-3.17515">
        <ele>198.8</ele>
        <time>2023-04-10T08:13:22Z</time>
      </trkpt>
      <trkpt lat="48.12514" lon="-3.17511">
        <ele>198.8</ele>
        <time>2023-04-10T08:13:23Z</time>
      </trkpt>
      <trkpt lat="48.12513" lon="-3.17506">
        <ele>198.8</ele>
        <time>2023-04-10T08:13:24Z</time>
      </trkpt>
      <trkpt lat="48.12511" lon="-3.17503">
        <ele>198.8</ele>
        <time>2023-04-10T08:13:25Z</time>
      </trkpt>
      <trkpt lat="48.12509" lon="-3.175">
        <ele>198.6</ele>
        <time>2023-04-10T08:13:26Z</time>
      </trkpt>
      <trkpt lat="48.12505" lon="-3.17498">
        <ele>198.6</ele>
        <time>2023-04-10T08:13:28Z</time>
      </trkpt>
      <trkpt lat="48.12502" lon="-3.17499">
        <ele>198.6</ele>
        <time>2023-04-10T08:13:29Z</time>
      </trkpt>
      <trkpt lat="48.12494" lon="-3.17503">
        <ele>198.8</ele>
        <time>2023-04-10T08:13:32Z</time>
      </trkpt>
      <trkpt lat="48.12487" lon="-3.17505">
        <ele>198.6</ele>
        <time>2023-04-10T08:13:34Z</time>
      </trkpt>
      <trkpt lat="48.12483" lon="-3.17505">
        <ele>198.4</ele>
        <time>2023-04-10T08:13:35Z</time>
      </trkpt>
      <trkpt lat="48.12478" lon="-3.17504">
        <ele>198.4</ele>
        <time>2023-04-10T08:13:36Z</time>
      </trkpt>
      <trkpt lat="48.12474" lon="-3.17503">
        <ele>198.4</ele>
        <time>2023-04-10T08:13:37Z</time>
      </trkpt>
      <trkpt lat="48.12469" lon="-3.17502">
        <ele>198.4</ele>
        <time>2023-04-10T08:13:38Z</time>
      </trkpt>
      <trkpt lat="48.12465" lon="-3.17501">
        <ele>198.2</ele>
        <time>2023-04-10T08:13:39Z</time>
      </trkpt>
      <trkpt lat="48.12457" lon="-3.17499">
        <ele>198.2</ele>
        <time>2023-04-10T08:13:41Z</time>
      </trkpt>
      <trkpt lat="48.12446" lon="-3.17498">
        <ele>198.2</ele>
        <time>2023-04-10T08:13:43Z</time>
      </trkpt>
      <trkpt lat="48.12442" lon="-3.17497">
        <ele>198.2</ele>
        <time>2023-04-10T08:13:44Z</time>
      </trkpt>
      <trkpt lat="48.12438" lon="-3.17497">
        <ele>198</ele>
        <time>2023-04-10T08:13:45Z</time>
      </trkpt>
      <trkpt lat="48.12435" lon="-3.17498">
        <ele>198</ele>
        <time>2023-04-10T08:13:46Z</time>
      </trkpt>
      <trkpt lat="48.12432" lon="-3.175">
        <ele>198</ele>
        <time>2023-04-10T08:13:47Z</time>
      </trkpt>
      <trkpt lat="48.12431" lon="-3.17503">
        <ele>197.8</ele>
        <time>2023-04-10T08:13:48Z</time>
      </trkpt>
      <trkpt lat="48.1243" lon="-3.17506">
        <ele>197.8</ele>
        <time>2023-04-10T08:13:49Z</time>
      </trkpt>
      <trkpt lat="48.12429" lon="-3.1751">
        <ele>197.8</ele>
        <time>2023-04-10T08:13:50Z</time>
      </trkpt>
      <trkpt lat="48.12428" lon="-3.17515">
        <ele>197.6</ele>
        <time>2023-04-10T08:13:51Z</time>
      </trkpt>
      <trkpt lat="48.12423" lon="-3.17521">
        <ele>197.6</ele>
        <time>2023-04-10T08:13:53Z</time>
      </trkpt>
      <trkpt lat="48.12422" lon="-3.17522">
        <ele>197.4</ele>
        <time>2023-04-10T08:13:54Z</time>
      </trkpt>
      <trkpt lat="48.1242" lon="-3.17523">
        <ele>197.2</ele>
        <time>2023-04-10T08:13:55Z</time>
      </trkpt>
      <trkpt lat="48.12418" lon="-3.17524">
        <ele>197.2</ele>
        <time>2023-04-10T08:13:56Z</time>
      </trkpt>
      <trkpt lat="48.12414" lon="-3.17524">
        <ele>197.2</ele>
        <time>2023-04-10T08:13:57Z</time>
      </trkpt>
      <trkpt lat="48.12411" lon="-3.17525">
        <ele>197.2</ele>
        <time>2023-04-10T08:13:58Z</time>
      </trkpt>
      <trkpt lat="48.12409" lon="-3.17526">
        <ele>197.2</ele>
        <time>2023-04-10T08:13:59Z</time>
      </trkpt>
      <trkpt lat="48.12408" lon="-3.17526">
        <ele>197</ele>
        <time>2023-04-10T08:14:00Z</time>
      </trkpt>
      <trkpt lat="48.12408" lon="-3.17526">
        <ele>197</ele>
        <time>2023-04-10T08:14:01Z</time>
      </trkpt>
      <trkpt lat="48.12408" lon="-3.17526">
        <ele>196.8</ele>
        <time>2023-04-10T08:14:02Z</time>
      </trkpt>
      <trkpt lat="48.12407" lon="-3.17525">
        <ele>196.8</ele>
        <time>2023-04-10T08:14:06Z</time>
      </trkpt>
      <trkpt lat="48.12405" lon="-3.17525">
        <ele>196.6</ele>
        <time>2023-04-10T08:14:08Z</time>
      </trkpt>
      <trkpt lat="48.12399" lon="-3.17523">
        <ele>196.6</ele>
        <time>2023-04-10T08:14:13Z</time>
      </trkpt>
      <trkpt lat="48.12396" lon="-3.17523">
        <ele>196.4</ele>
        <time>2023-04-10T08:14:15Z</time>
      </trkpt>
      <trkpt lat="48.12394" lon="-3.17522">
        <ele>196.4</ele>
        <time>2023-04-10T08:14:16Z</time>
      </trkpt>
      <trkpt lat="48.12388" lon="-3.17519">
        <ele>196.4</ele>
        <time>2023-04-10T08:14:18Z</time>
      </trkpt>
      <trkpt lat="48.12386" lon="-3.17516">
        <ele>196.4</ele>
        <time>2023-04-10T08:14:19Z</time>
      </trkpt>
      <trkpt lat="48.12386" lon="-3.17514">
        <ele>196.4</ele>
        <time>2023-04-10T08:14:20Z</time>
      </trkpt>
      <trkpt lat="48.12386" lon="-3.17512">
        <ele>196.2</ele>
        <time>2023-04-10T08:14:21Z</time>
      </trkpt>
      <trkpt lat="48.12386" lon="-3.17507">
        <ele>196.2</ele>
        <time>2023-04-10T08:14:22Z</time>
      </trkpt>
      <trkpt lat="48.12385" lon="-3.17502">
        <ele>196.2</ele>
        <time>2023-04-10T08:14:23Z</time>
      </trkpt>
      <trkpt lat="48.12383" lon="-3.17498">
        <ele>196.2</ele>
        <time>2023-04-10T08:14:24Z</time>
      </trkpt>
      <trkpt lat="48.12377" lon="-3.17488">
        <ele>196.2</ele>
        <time>2023-04-10T08:14:26Z</time>
      </trkpt>
      <trkpt lat="48.12374" lon="-3.17485">
        <ele>196</ele>
        <time>2023-04-10T08:14:27Z</time>
      </trkpt>
      <trkpt lat="48.12371" lon="-3.17482">
        <ele>196</ele>
        <time>2023-04-10T08:14:28Z</time>
      </trkpt>
      <trkpt lat="48.12369" lon="-3.1748">
        <ele>196</ele>
        <time>2023-04-10T08:14:29Z</time>
      </trkpt>
      <trkpt lat="48.12367" lon="-3.17478">
        <ele>195.8</ele>
        <time>2023-04-10T08:14:30Z</time>
      </trkpt>
      <trkpt lat="48.12365" lon="-3.17476">
        <ele>195.8</ele>
        <time>2023-04-10T08:14:31Z</time>
      </trkpt>
      <trkpt lat="48.12363" lon="-3.17472">
        <ele>195.6</ele>
        <time>2023-04-10T08:14:32Z</time>
      </trkpt>
      <trkpt lat="48.12359" lon="-3.17472">
        <ele>195.6</ele>
        <time>2023-04-10T08:14:33Z</time>
      </trkpt>
      <trkpt lat="48.12357" lon="-3.17471">
        <ele>195.4</ele>
        <time>2023-04-10T08:14:34Z</time>
      </trkpt>
      <trkpt lat="48.12355" lon="-3.17471">
        <ele>195.4</ele>
        <time>2023-04-10T08:14:35Z</time>
      </trkpt>
      <trkpt lat="48.12353" lon="-3.1747">
        <ele>195.4</ele>
        <time>2023-04-10T08:14:36Z</time>
      </trkpt>
      <trkpt lat="48.12351" lon="-3.17467">
        <ele>195.4</ele>
        <time>2023-04-10T08:14:37Z</time>
      </trkpt>
      <trkpt lat="48.1235" lon="-3.17465">
        <ele>195.2</ele>
        <time>2023-04-10T08:14:38Z</time>
      </trkpt>
      <trkpt lat="48.12349" lon="-3.17463">
        <ele>195.2</ele>
        <time>2023-04-10T08:14:39Z</time>
      </trkpt>
      <trkpt lat="48.12348" lon="-3.17462">
        <ele>195.2</ele>
        <time>2023-04-10T08:14:40Z</time>
      </trkpt>
      <trkpt lat="48.12348" lon="-3.17462">
        <ele>195.2</ele>
        <time>2023-04-10T08:14:41Z</time>
      </trkpt>
      <trkpt lat="48.12346" lon="-3.1746">
        <ele>195.2</ele>
        <time>2023-04-10T08:14:42Z</time>
      </trkpt>
      <trkpt lat="48.12345" lon="-3.17455">
        <ele>195</ele>
        <time>2023-04-10T08:14:43Z</time>
      </trkpt>
      <trkpt lat="48.12345" lon="-3.17454">
        <ele>195</ele>
        <time>2023-04-10T08:14:44Z</time>
      </trkpt>
      <trkpt lat="48.12344" lon="-3.17453">
        <ele>195</ele>
        <time>2023-04-10T08:14:45Z</time>
      </trkpt>
      <trkpt lat="48.12343" lon="-3.17452">
        <ele>195</ele>
        <time>2023-04-10T08:14:46Z</time>
      </trkpt>
      <trkpt lat="48.12341" lon="-3.1745">
        <ele>195</ele>
        <time>2023-04-10T08:14:47Z</time>
      </trkpt>
      <trkpt lat="48.12339" lon="-3.17447">
        <ele>195</ele>
        <time>2023-04-10T08:14:48Z</time>
      </trkpt>
      <trkpt lat="48.12338" lon="-3.17444">
        <ele>195</ele>
        <time>2023-04-10T08:14:49Z</time>
      </trkpt>
      <trkpt lat="48.12337" lon="-3.17442">
        <ele>195</ele>
        <time>2023-04-10T08:14:50Z</time>
      </trkpt>
      <trkpt lat="48.12336" lon="-3.17441">
        <ele>195</ele>
        <time>2023-04-10T08:14:52Z</time>
      </trkpt>
      <trkpt lat="48.12335" lon="-3.17441">
        <ele>195</ele>
        <time>2023-04-10T08:14:54Z</time>
      </trkpt>
      <trkpt lat="48.12334" lon="-3.17442">
        <ele>195</ele>
        <time>2023-04-10T08:14:55Z</time>
      </trkpt>
      <trkpt lat="48.12333" lon="-3.17441">
        <ele>195</ele>
        <time>2023-04-10T08:14:56Z</time>
      </trkpt>
      <trkpt lat="48.12329" lon="-3.17438">
        <ele>195</ele>
        <time>2023-04-10T08:14:58Z</time>
      </trkpt>
      <trkpt lat="48.12328" lon="-3.17436">
        <ele>195</ele>
        <time>2023-04-10T08:14:59Z</time>
      </trkpt>
      <trkpt lat="48.12319" lon="-3.17427">
        <ele>195.2</ele>
        <time>2023-04-10T08:15:04Z</time>
      </trkpt>
      <trkpt lat="48.12316" lon="-3.17425">
        <ele>195</ele>
        <time>2023-04-10T08:15:05Z</time>
      </trkpt>
      <trkpt lat="48.12314" lon="-3.17423">
        <ele>195</ele>
        <time>2023-04-10T08:15:06Z</time>
      </trkpt>
      <trkpt lat="48.1231" lon="-3.1742">
        <ele>195</ele>
        <time>2023-04-10T08:15:08Z</time>
      </trkpt>
      <trkpt lat="48.12309" lon="-3.17419">
        <ele>195</ele>
        <time>2023-04-10T08:15:09Z</time>
      </trkpt>
      <trkpt lat="48.12309" lon="-3.17418">
        <ele>195</ele>
        <time>2023-04-10T08:15:10Z</time>
      </trkpt>
      <trkpt lat="48.12307" lon="-3.17418">
        <ele>195</ele>
        <time>2023-04-10T08:15:18Z</time>
      </trkpt>
      <trkpt lat="48.12305" lon="-3.17419">
        <ele>195</ele>
        <time>2023-04-10T08:15:19Z</time>
      </trkpt>
      <trkpt lat="48.12299" lon="-3.17421">
        <ele>195</ele>
        <time>2023-04-10T08:15:21Z</time>
      </trkpt>
      <trkpt lat="48.12297" lon="-3.17419">
        <ele>195</ele>
        <time>2023-04-10T08:15:22Z</time>
      </trkpt>
      <trkpt lat="48.12289" lon="-3.17408">
        <ele>195.2</ele>
        <time>2023-04-10T08:15:25Z</time>
      </trkpt>
      <trkpt lat="48.12287" lon="-3.17405">
        <ele>195.2</ele>
        <time>2023-04-10T08:15:26Z</time>
      </trkpt>
      <trkpt lat="48.12285" lon="-3.17404">
        <ele>195.2</ele>
        <time>2023-04-10T08:15:27Z</time>
      </trkpt>
      <trkpt lat="48.12283" lon="-3.17403">
        <ele>195.2</ele>
        <time>2023-04-10T08:15:28Z</time>
      </trkpt>
      <trkpt lat="48.1228" lon="-3.17403">
        <ele>195.2</ele>
        <time>2023-04-10T08:15:29Z</time>
      </trkpt>
      <trkpt lat="48.12275" lon="-3.17405">
        <ele>195.4</ele>
        <time>2023-04-10T08:15:30Z</time>
      </trkpt>
      <trkpt lat="48.12271" lon="-3.17406">
        <ele>195.4</ele>
        <time>2023-04-10T08:15:31Z</time>
      </trkpt>
      <trkpt lat="48.12258" lon="-3.17401">
        <ele>195.6</ele>
        <time>2023-04-10T08:15:36Z</time>
      </trkpt>
      <trkpt lat="48.12255" lon="-3.17399">
        <ele>195.6</ele>
        <time>2023-04-10T08:15:37Z</time>
      </trkpt>
      <trkpt lat="48.12251" lon="-3.17398">
        <ele>195.6</ele>
        <time>2023-04-10T08:15:38Z</time>
      </trkpt>
      <trkpt lat="48.12248" lon="-3.174">
        <ele>195.6</ele>
        <time>2023-04-10T08:15:39Z</time>
      </trkpt>
      <trkpt lat="48.12243" lon="-3.17403">
        <ele>195.6</ele>
        <time>2023-04-10T08:15:40Z</time>
      </trkpt>
      <trkpt lat="48.12239" lon="-3.17404">
        <ele>195.6</ele>
        <time>2023-04-10T08:15:41Z</time>
      </trkpt>
      <trkpt lat="48.1223" lon="-3.17404">
        <ele>195.6</ele>
        <time>2023-04-10T08:15:44Z</time>
      </trkpt>
      <trkpt lat="48.12227" lon="-3.17402">
        <ele>195.6</ele>
        <time>2023-04-10T08:15:45Z</time>
      </trkpt>
      <trkpt lat="48.12223" lon="-3.174">
        <ele>195.6</ele>
        <time>2023-04-10T08:15:46Z</time>
      </trkpt>
      <trkpt lat="48.1222" lon="-3.17399">
        <ele>195.6</ele>
        <time>2023-04-10T08:15:47Z</time>
      </trkpt>
      <trkpt lat="48.12216" lon="-3.17399">
        <ele>195.6</ele>
        <time>2023-04-10T08:15:49Z</time>
      </trkpt>
      <trkpt lat="48.12212" lon="-3.17398">
        <ele>195.6</ele>
        <time>2023-04-10T08:15:50Z</time>
      </trkpt>
      <trkpt lat="48.12209" lon="-3.17396">
        <ele>195.4</ele>
        <time>2023-04-10T08:15:51Z</time>
      </trkpt>
      <trkpt lat="48.12207" lon="-3.17393">
        <ele>195.4</ele>
        <time>2023-04-10T08:15:52Z</time>
      </trkpt>
      <trkpt lat="48.12205" lon="-3.17391">
        <ele>195.4</ele>
        <time>2023-04-10T08:15:53Z</time>
      </trkpt>
      <trkpt lat="48.12203" lon="-3.17389">
        <ele>195.2</ele>
        <time>2023-04-10T08:15:54Z</time>
      </trkpt>
      <trkpt lat="48.12201" lon="-3.17386">
        <ele>195.2</ele>
        <time>2023-04-10T08:15:55Z</time>
      </trkpt>
      <trkpt lat="48.122" lon="-3.17384">
        <ele>195.2</ele>
        <time>2023-04-10T08:15:56Z</time>
      </trkpt>
      <trkpt lat="48.12199" lon="-3.17382">
        <ele>195.2</ele>
        <time>2023-04-10T08:15:57Z</time>
      </trkpt>
      <trkpt lat="48.12198" lon="-3.17382">
        <ele>195.2</ele>
        <time>2023-04-10T08:15:58Z</time>
      </trkpt>
      <trkpt lat="48.12196" lon="-3.17382">
        <ele>195.2</ele>
        <time>2023-04-10T08:15:59Z</time>
      </trkpt>
      <trkpt lat="48.12195" lon="-3.17381">
        <ele>195.2</ele>
        <time>2023-04-10T08:16:00Z</time>
      </trkpt>
      <trkpt lat="48.12188" lon="-3.17381">
        <ele>195</ele>
        <time>2023-04-10T08:16:03Z</time>
      </trkpt>
      <trkpt lat="48.12181" lon="-3.17382">
        <ele>195</ele>
        <time>2023-04-10T08:16:05Z</time>
      </trkpt>
      <trkpt lat="48.12178" lon="-3.17381">
        <ele>195</ele>
        <time>2023-04-10T08:16:06Z</time>
      </trkpt>
      <trkpt lat="48.12175" lon="-3.1738">
        <ele>195</ele>
        <time>2023-04-10T08:16:07Z</time>
      </trkpt>
      <trkpt lat="48.12173" lon="-3.17379">
        <ele>195</ele>
        <time>2023-04-10T08:16:08Z</time>
      </trkpt>
      <trkpt lat="48.12166" lon="-3.17381">
        <ele>194.8</ele>
        <time>2023-04-10T08:16:11Z</time>
      </trkpt>
      <trkpt lat="48.12164" lon="-3.17381">
        <ele>194.8</ele>
        <time>2023-04-10T08:16:12Z</time>
      </trkpt>
      <trkpt lat="48.12162" lon="-3.17383">
        <ele>194.6</ele>
        <time>2023-04-10T08:16:13Z</time>
      </trkpt>
      <trkpt lat="48.12159" lon="-3.17385">
        <ele>194.6</ele>
        <time>2023-04-10T08:16:14Z</time>
      </trkpt>
      <trkpt lat="48.12155" lon="-3.17386">
        <ele>194.6</ele>
        <time>2023-04-10T08:16:15Z</time>
      </trkpt>
      <trkpt lat="48.12151" lon="-3.17385">
        <ele>194.6</ele>
        <time>2023-04-10T08:16:16Z</time>
      </trkpt>
      <trkpt lat="48.12147" lon="-3.17384">
        <ele>194.6</ele>
        <time>2023-04-10T08:16:17Z</time>
      </trkpt>
      <trkpt lat="48.12145" lon="-3.17383">
        <ele>194.6</ele>
        <time>2023-04-10T08:16:18Z</time>
      </trkpt>
      <trkpt lat="48.12142" lon="-3.17384">
        <ele>194.6</ele>
        <time>2023-04-10T08:16:19Z</time>
      </trkpt>
      <trkpt lat="48.1214" lon="-3.17385">
        <ele>194.6</ele>
        <time>2023-04-10T08:16:20Z</time>
      </trkpt>
      <trkpt lat="48.12137" lon="-3.17387">
        <ele>194.4</ele>
        <time>2023-04-10T08:16:21Z</time>
      </trkpt>
      <trkpt lat="48.12135" lon="-3.17389">
        <ele>194.4</ele>
        <time>2023-04-10T08:16:22Z</time>
      </trkpt>
      <trkpt lat="48.12133" lon="-3.1739">
        <ele>194.4</ele>
        <time>2023-04-10T08:16:23Z</time>
      </trkpt>
      <trkpt lat="48.12131" lon="-3.17391">
        <ele>194.4</ele>
        <time>2023-04-10T08:16:24Z</time>
      </trkpt>
      <trkpt lat="48.12129" lon="-3.17391">
        <ele>194.4</ele>
        <time>2023-04-10T08:16:25Z</time>
      </trkpt>
      <trkpt lat="48.12128" lon="-3.17391">
        <ele>194.4</ele>
        <time>2023-04-10T08:16:26Z</time>
      </trkpt>
      <trkpt lat="48.12125" lon="-3.17394">
        <ele>194.4</ele>
        <time>2023-04-10T08:16:29Z</time>
      </trkpt>
      <trkpt lat="48.12124" lon="-3.17396">
        <ele>194.2</ele>
        <time>2023-04-10T08:16:30Z</time>
      </trkpt>
      <trkpt lat="48.12124" lon="-3.17398">
        <ele>194.2</ele>
        <time>2023-04-10T08:16:31Z</time>
      </trkpt>
      <trkpt lat="48.12124" lon="-3.17406">
        <ele>194.2</ele>
        <time>2023-04-10T08:16:33Z</time>
      </trkpt>
      <trkpt lat="48.12124" lon="-3.17411">
        <ele>194.2</ele>
        <time>2023-04-10T08:16:34Z</time>
      </trkpt>
      <trkpt lat="48.12125" lon="-3.17415">
        <ele>194.2</ele>
        <time>2023-04-10T08:16:35Z</time>
      </trkpt>
      <trkpt lat="48.12126" lon="-3.17424">
        <ele>194.2</ele>
        <time>2023-04-10T08:16:37Z</time>
      </trkpt>
      <trkpt lat="48.12124" lon="-3.17436">
        <ele>194.2</ele>
        <time>2023-04-10T08:16:40Z</time>
      </trkpt>
      <trkpt lat="48.12122" lon="-3.17438">
        <ele>194.2</ele>
        <time>2023-04-10T08:16:41Z</time>
      </trkpt>
      <trkpt lat="48.1212" lon="-3.17439">
        <ele>194.2</ele>
        <time>2023-04-10T08:16:42Z</time>
      </trkpt>
      <trkpt lat="48.12118" lon="-3.17439">
        <ele>194</ele>
        <time>2023-04-10T08:16:43Z</time>
      </trkpt>
      <trkpt lat="48.12113" lon="-3.17436">
        <ele>194</ele>
        <time>2023-04-10T08:16:45Z</time>
      </trkpt>
      <trkpt lat="48.12111" lon="-3.17434">
        <ele>194</ele>
        <time>2023-04-10T08:16:46Z</time>
      </trkpt>
      <trkpt lat="48.12108" lon="-3.17433">
        <ele>194</ele>
        <time>2023-04-10T08:16:47Z</time>
      </trkpt>
      <trkpt lat="48.12105" lon="-3.17432">
        <ele>194</ele>
        <time>2023-04-10T08:16:48Z</time>
      </trkpt>
      <trkpt lat="48.12102" lon="-3.17431">
        <ele>194</ele>
        <time>2023-04-10T08:16:49Z</time>
      </trkpt>
      <trkpt lat="48.1209" lon="-3.17429">
        <ele>194</ele>
        <time>2023-04-10T08:16:53Z</time>
      </trkpt>
      <trkpt lat="48.12087" lon="-3.17432">
        <ele>194</ele>
        <time>2023-04-10T08:16:54Z</time>
      </trkpt>
      <trkpt lat="48.12085" lon="-3.17435">
        <ele>194</ele>
        <time>2023-04-10T08:16:55Z</time>
      </trkpt>
      <trkpt lat="48.12084" lon="-3.17439">
        <ele>194</ele>
        <time>2023-04-10T08:16:56Z</time>
      </trkpt>
      <trkpt lat="48.12083" lon="-3.17443">
        <ele>194</ele>
        <time>2023-04-10T08:16:57Z</time>
      </trkpt>
      <trkpt lat="48.12082" lon="-3.17447">
        <ele>194</ele>
        <time>2023-04-10T08:16:58Z</time>
      </trkpt>
      <trkpt lat="48.12082" lon="-3.17451">
        <ele>194</ele>
        <time>2023-04-10T08:16:59Z</time>
      </trkpt>
      <trkpt lat="48.1208" lon="-3.17456">
        <ele>194</ele>
        <time>2023-04-10T08:17:00Z</time>
      </trkpt>
      <trkpt lat="48.12074" lon="-3.17475">
        <ele>194</ele>
        <time>2023-04-10T08:17:04Z</time>
      </trkpt>
      <trkpt lat="48.12072" lon="-3.17486">
        <ele>194.2</ele>
        <time>2023-04-10T08:17:07Z</time>
      </trkpt>
      <trkpt lat="48.12071" lon="-3.1749">
        <ele>194.2</ele>
        <time>2023-04-10T08:17:08Z</time>
      </trkpt>
      <trkpt lat="48.12068" lon="-3.17498">
        <ele>194.2</ele>
        <time>2023-04-10T08:17:10Z</time>
      </trkpt>
      <trkpt lat="48.12067" lon="-3.17502">
        <ele>194.2</ele>
        <time>2023-04-10T08:17:11Z</time>
      </trkpt>
      <trkpt lat="48.12064" lon="-3.1751">
        <ele>194.2</ele>
        <time>2023-04-10T08:17:13Z</time>
      </trkpt>
      <trkpt lat="48.12067" lon="-3.17518">
        <ele>194.2</ele>
        <time>2023-04-10T08:17:15Z</time>
      </trkpt>
      <trkpt lat="48.12068" lon="-3.17523">
        <ele>194.2</ele>
        <time>2023-04-10T08:17:16Z</time>
      </trkpt>
      <trkpt lat="48.12068" lon="-3.17527">
        <ele>194.2</ele>
        <time>2023-04-10T08:17:17Z</time>
      </trkpt>
      <trkpt lat="48.12067" lon="-3.17532">
        <ele>194.2</ele>
        <time>2023-04-10T08:17:18Z</time>
      </trkpt>
      <trkpt lat="48.12066" lon="-3.17537">
        <ele>194.2</ele>
        <time>2023-04-10T08:17:19Z</time>
      </trkpt>
      <trkpt lat="48.12065" lon="-3.17542">
        <ele>194.2</ele>
        <time>2023-04-10T08:17:20Z</time>
      </trkpt>
      <trkpt lat="48.12064" lon="-3.17547">
        <ele>194.2</ele>
        <time>2023-04-10T08:17:21Z</time>
      </trkpt>
      <trkpt lat="48.12064" lon="-3.17552">
        <ele>194.2</ele>
        <time>2023-04-10T08:17:22Z</time>
      </trkpt>
      <trkpt lat="48.12065" lon="-3.17556">
        <ele>194</ele>
        <time>2023-04-10T08:17:23Z</time>
      </trkpt>
      <trkpt lat="48.12066" lon="-3.17561">
        <ele>194</ele>
        <time>2023-04-10T08:17:24Z</time>
      </trkpt>
      <trkpt lat="48.12067" lon="-3.17566">
        <ele>193.8</ele>
        <time>2023-04-10T08:17:25Z</time>
      </trkpt>
      <trkpt lat="48.12068" lon="-3.17571">
        <ele>193.8</ele>
        <time>2023-04-10T08:17:26Z</time>
      </trkpt>
      <trkpt lat="48.1207" lon="-3.17575">
        <ele>193.8</ele>
        <time>2023-04-10T08:17:27Z</time>
      </trkpt>
      <trkpt lat="48.12071" lon="-3.17579">
        <ele>193.8</ele>
        <time>2023-04-10T08:17:28Z</time>
      </trkpt>
      <trkpt lat="48.12071" lon="-3.17582">
        <ele>193.8</ele>
        <time>2023-04-10T08:17:29Z</time>
      </trkpt>
      <trkpt lat="48.1207" lon="-3.17584">
        <ele>193.6</ele>
        <time>2023-04-10T08:17:30Z</time>
      </trkpt>
      <trkpt lat="48.12069" lon="-3.17587">
        <ele>193.6</ele>
        <time>2023-04-10T08:17:31Z</time>
      </trkpt>
      <trkpt lat="48.12068" lon="-3.1759">
        <ele>193.6</ele>
        <time>2023-04-10T08:17:32Z</time>
      </trkpt>
      <trkpt lat="48.12069" lon="-3.17593">
        <ele>193.6</ele>
        <time>2023-04-10T08:17:33Z</time>
      </trkpt>
      <trkpt lat="48.1207" lon="-3.17595">
        <ele>193.8</ele>
        <time>2023-04-10T08:17:34Z</time>
      </trkpt>
      <trkpt lat="48.12072" lon="-3.17597">
        <ele>193.8</ele>
        <time>2023-04-10T08:17:35Z</time>
      </trkpt>
      <trkpt lat="48.12081" lon="-3.17604">
        <ele>193.4</ele>
        <time>2023-04-10T08:17:38Z</time>
      </trkpt>
      <trkpt lat="48.12084" lon="-3.17607">
        <ele>193.4</ele>
        <time>2023-04-10T08:17:39Z</time>
      </trkpt>
      <trkpt lat="48.12087" lon="-3.17609">
        <ele>193.4</ele>
        <time>2023-04-10T08:17:40Z</time>
      </trkpt>
      <trkpt lat="48.12092" lon="-3.17614">
        <ele>193.4</ele>
        <time>2023-04-10T08:17:42Z</time>
      </trkpt>
      <trkpt lat="48.12095" lon="-3.17617">
        <ele>193.4</ele>
        <time>2023-04-10T08:17:43Z</time>
      </trkpt>
      <trkpt lat="48.12095" lon="-3.17621">
        <ele>193.4</ele>
        <time>2023-04-10T08:17:44Z</time>
      </trkpt>
      <trkpt lat="48.12095" lon="-3.17626">
        <ele>193.4</ele>
        <time>2023-04-10T08:17:45Z</time>
      </trkpt>
      <trkpt lat="48.12092" lon="-3.1764">
        <ele>193.8</ele>
        <time>2023-04-10T08:17:48Z</time>
      </trkpt>
      <trkpt lat="48.12086" lon="-3.17653">
        <ele>193.8</ele>
        <time>2023-04-10T08:17:51Z</time>
      </trkpt>
      <trkpt lat="48.12083" lon="-3.17658">
        <ele>194</ele>
        <time>2023-04-10T08:17:52Z</time>
      </trkpt>
      <trkpt lat="48.12081" lon="-3.17667">
        <ele>194</ele>
        <time>2023-04-10T08:17:54Z</time>
      </trkpt>
      <trkpt lat="48.1208" lon="-3.17671">
        <ele>194.2</ele>
        <time>2023-04-10T08:17:55Z</time>
      </trkpt>
      <trkpt lat="48.12079" lon="-3.17674">
        <ele>194.4</ele>
        <time>2023-04-10T08:17:56Z</time>
      </trkpt>
      <trkpt lat="48.12077" lon="-3.17678">
        <ele>194.4</ele>
        <time>2023-04-10T08:17:57Z</time>
      </trkpt>
      <trkpt lat="48.12075" lon="-3.17682">
        <ele>194.4</ele>
        <time>2023-04-10T08:17:58Z</time>
      </trkpt>
      <trkpt lat="48.1207" lon="-3.17695">
        <ele>194.4</ele>
        <time>2023-04-10T08:18:01Z</time>
      </trkpt>
      <trkpt lat="48.12064" lon="-3.17712">
        <ele>194.4</ele>
        <time>2023-04-10T08:18:05Z</time>
      </trkpt>
      <trkpt lat="48.12063" lon="-3.17716">
        <ele>194.4</ele>
        <time>2023-04-10T08:18:06Z</time>
      </trkpt>
      <trkpt lat="48.12061" lon="-3.1772">
        <ele>194.4</ele>
        <time>2023-04-10T08:18:07Z</time>
      </trkpt>
      <trkpt lat="48.1206" lon="-3.17724">
        <ele>194.4</ele>
        <time>2023-04-10T08:18:08Z</time>
      </trkpt>
      <trkpt lat="48.12059" lon="-3.17727">
        <ele>194.4</ele>
        <time>2023-04-10T08:18:09Z</time>
      </trkpt>
      <trkpt lat="48.12057" lon="-3.17731">
        <ele>194.2</ele>
        <time>2023-04-10T08:18:10Z</time>
      </trkpt>
      <trkpt lat="48.12054" lon="-3.17743">
        <ele>194.2</ele>
        <time>2023-04-10T08:18:13Z</time>
      </trkpt>
      <trkpt lat="48.12053" lon="-3.17747">
        <ele>194.2</ele>
        <time>2023-04-10T08:18:14Z</time>
      </trkpt>
      <trkpt lat="48.12052" lon="-3.1775">
        <ele>194.2</ele>
        <time>2023-04-10T08:18:15Z</time>
      </trkpt>
      <trkpt lat="48.12051" lon="-3.17754">
        <ele>194.2</ele>
        <time>2023-04-10T08:18:16Z</time>
      </trkpt>
      <trkpt lat="48.12049" lon="-3.17757">
        <ele>194.2</ele>
        <time>2023-04-10T08:18:17Z</time>
      </trkpt>
      <trkpt lat="48.12046" lon="-3.17768">
        <ele>194.2</ele>
        <time>2023-04-10T08:18:20Z</time>
      </trkpt>
      <trkpt lat="48.12044" lon="-3.17772">
        <ele>194.4</ele>
        <time>2023-04-10T08:18:21Z</time>
      </trkpt>
      <trkpt lat="48.12043" lon="-3.17776">
        <ele>194.6</ele>
        <time>2023-04-10T08:18:22Z</time>
      </trkpt>
      <trkpt lat="48.12038" lon="-3.17788">
        <ele>195</ele>
        <time>2023-04-10T08:18:25Z</time>
      </trkpt>
      <trkpt lat="48.12027" lon="-3.17817">
        <ele>195.4</ele>
        <time>2023-04-10T08:18:32Z</time>
      </trkpt>
      <trkpt lat="48.12012" lon="-3.17865">
        <ele>195.6</ele>
        <time>2023-04-10T08:18:42Z</time>
      </trkpt>
      <trkpt lat="48.1201" lon="-3.17869">
        <ele>195.6</ele>
        <time>2023-04-10T08:18:43Z</time>
      </trkpt>
      <trkpt lat="48.12008" lon="-3.17874">
        <ele>195.6</ele>
        <time>2023-04-10T08:18:44Z</time>
      </trkpt>
      <trkpt lat="48.11995" lon="-3.1791">
        <ele>195.4</ele>
        <time>2023-04-10T08:18:51Z</time>
      </trkpt>
      <trkpt lat="48.11985" lon="-3.17944">
        <ele>195</ele>
        <time>2023-04-10T08:18:57Z</time>
      </trkpt>
      <trkpt lat="48.11984" lon="-3.1795">
        <ele>195</ele>
        <time>2023-04-10T08:18:58Z</time>
      </trkpt>
      <trkpt lat="48.11982" lon="-3.17955">
        <ele>194.8</ele>
        <time>2023-04-10T08:18:59Z</time>
      </trkpt>
      <trkpt lat="48.11977" lon="-3.17965">
        <ele>194.6</ele>
        <time>2023-04-10T08:19:01Z</time>
      </trkpt>
      <trkpt lat="48.11974" lon="-3.1797">
        <ele>194.6</ele>
        <time>2023-04-10T08:19:02Z</time>
      </trkpt>
      <trkpt lat="48.11971" lon="-3.17974">
        <ele>194.6</ele>
        <time>2023-04-10T08:19:03Z</time>
      </trkpt>
      <trkpt lat="48.11967" lon="-3.17978">
        <ele>194.6</ele>
        <time>2023-04-10T08:19:04Z</time>
      </trkpt>
      <trkpt lat="48.11932" lon="-3.18003">
        <ele>194.4</ele>
        <time>2023-04-10T08:19:13Z</time>
      </trkpt>
      <trkpt lat="48.11908" lon="-3.18019">
        <ele>194.6</ele>
        <time>2023-04-10T08:19:19Z</time>
      </trkpt>
      <trkpt lat="48.11904" lon="-3.18022">
        <ele>194.6</ele>
        <time>2023-04-10T08:19:20Z</time>
      </trkpt>
      <trkpt lat="48.119" lon="-3.18026">
        <ele>194.6</ele>
        <time>2023-04-10T08:19:21Z</time>
      </trkpt>
      <trkpt lat="48.11897" lon="-3.18028">
        <ele>194.6</ele>
        <time>2023-04-10T08:19:22Z</time>
      </trkpt>
      <trkpt lat="48.11893" lon="-3.18031">
        <ele>194.6</ele>
        <time>2023-04-10T08:19:23Z</time>
      </trkpt>
      <trkpt lat="48.11889" lon="-3.18034">
        <ele>194.6</ele>
        <time>2023-04-10T08:19:24Z</time>
      </trkpt>
      <trkpt lat="48.11886" lon="-3.18036">
        <ele>194.6</ele>
        <time>2023-04-10T08:19:25Z</time>
      </trkpt>
      <trkpt lat="48.11882" lon="-3.18039">
        <ele>194.6</ele>
        <time>2023-04-10T08:19:26Z</time>
      </trkpt>
      <trkpt lat="48.11878" lon="-3.18042">
        <ele>194.6</ele>
        <time>2023-04-10T08:19:27Z</time>
      </trkpt>
      <trkpt lat="48.11874" lon="-3.18045">
        <ele>194.6</ele>
        <time>2023-04-10T08:19:28Z</time>
      </trkpt>
      <trkpt lat="48.11858" lon="-3.18056">
        <ele>194.6</ele>
        <time>2023-04-10T08:19:32Z</time>
      </trkpt>
      <trkpt lat="48.11851" lon="-3.18061">
        <ele>194.6</ele>
        <time>2023-04-10T08:19:34Z</time>
      </trkpt>
      <trkpt lat="48.11848" lon="-3.18064">
        <ele>194.6</ele>
        <time>2023-04-10T08:19:35Z</time>
      </trkpt>
      <trkpt lat="48.11836" lon="-3.18072">
        <ele>194.4</ele>
        <time>2023-04-10T08:19:38Z</time>
      </trkpt>
      <trkpt lat="48.11832" lon="-3.18075">
        <ele>194.4</ele>
        <time>2023-04-10T08:19:39Z</time>
      </trkpt>
      <trkpt lat="48.11828" lon="-3.18077">
        <ele>194.4</ele>
        <time>2023-04-10T08:19:40Z</time>
      </trkpt>
      <trkpt lat="48.11824" lon="-3.1808">
        <ele>194.4</ele>
        <time>2023-04-10T08:19:41Z</time>
      </trkpt>
      <trkpt lat="48.1178" lon="-3.18112">
        <ele>194.6</ele>
        <time>2023-04-10T08:19:52Z</time>
      </trkpt>
      <trkpt lat="48.1176" lon="-3.18127">
        <ele>194.4</ele>
        <time>2023-04-10T08:19:57Z</time>
      </trkpt>
      <trkpt lat="48.11757" lon="-3.18132">
        <ele>194.4</ele>
        <time>2023-04-10T08:19:58Z</time>
      </trkpt>
      <trkpt lat="48.11755" lon="-3.18137">
        <ele>194.4</ele>
        <time>2023-04-10T08:19:59Z</time>
      </trkpt>
      <trkpt lat="48.11755" lon="-3.18137">
        <ele>194.4</ele>
        <time>2023-04-10T08:20:00Z</time>
      </trkpt>
      <trkpt lat="48.11756" lon="-3.1815">
        <ele>194.4</ele>
        <time>2023-04-10T08:20:01Z</time>
      </trkpt>
      <trkpt lat="48.11757" lon="-3.18156">
        <ele>194.4</ele>
        <time>2023-04-10T08:20:02Z</time>
      </trkpt>
      <trkpt lat="48.11759" lon="-3.18162">
        <ele>194.4</ele>
        <time>2023-04-10T08:20:03Z</time>
      </trkpt>
      <trkpt lat="48.1176" lon="-3.18167">
        <ele>194.4</ele>
        <time>2023-04-10T08:20:04Z</time>
      </trkpt>
      <trkpt lat="48.11761" lon="-3.18173">
        <ele>194.4</ele>
        <time>2023-04-10T08:20:05Z</time>
      </trkpt>
      <trkpt lat="48.11762" lon="-3.18178">
        <ele>194.4</ele>
        <time>2023-04-10T08:20:06Z</time>
      </trkpt>
      <trkpt lat="48.11764" lon="-3.18184">
        <ele>194.4</ele>
        <time>2023-04-10T08:20:07Z</time>
      </trkpt>
      <trkpt lat="48.11765" lon="-3.18189">
        <ele>194.4</ele>
        <time>2023-04-10T08:20:08Z</time>
      </trkpt>
      <trkpt lat="48.11766" lon="-3.18194">
        <ele>194.4</ele>
        <time>2023-04-10T08:20:09Z</time>
      </trkpt>
      <trkpt lat="48.11767" lon="-3.18199">
        <ele>194.4</ele>
        <time>2023-04-10T08:20:10Z</time>
      </trkpt>
      <trkpt lat="48.11769" lon="-3.18204">
        <ele>194.4</ele>
        <time>2023-04-10T08:20:11Z</time>
      </trkpt>
      <trkpt lat="48.11769" lon="-3.18209">
        <ele>194.4</ele>
        <time>2023-04-10T08:20:12Z</time>
      </trkpt>
      <trkpt lat="48.11771" lon="-3.18214">
        <ele>194.4</ele>
        <time>2023-04-10T08:20:13Z</time>
      </trkpt>
      <trkpt lat="48.11772" lon="-3.18219">
        <ele>194.6</ele>
        <time>2023-04-10T08:20:14Z</time>
      </trkpt>
      <trkpt lat="48.11773" lon="-3.18224">
        <ele>194.8</ele>
        <time>2023-04-10T08:20:15Z</time>
      </trkpt>
      <trkpt lat="48.11774" lon="-3.18229">
        <ele>194.8</ele>
        <time>2023-04-10T08:20:16Z</time>
      </trkpt>
      <trkpt lat="48.11774" lon="-3.18233">
        <ele>195.2</ele>
        <time>2023-04-10T08:20:17Z</time>
      </trkpt>
      <trkpt lat="48.11775" lon="-3.18237">
        <ele>195.4</ele>
        <time>2023-04-10T08:20:18Z</time>
      </trkpt>
      <trkpt lat="48.11776" lon="-3.18242">
        <ele>195.6</ele>
        <time>2023-04-10T08:20:19Z</time>
      </trkpt>
      <trkpt lat="48.11777" lon="-3.18246">
        <ele>195.8</ele>
        <time>2023-04-10T08:20:20Z</time>
      </trkpt>
      <trkpt lat="48.11778" lon="-3.1825">
        <ele>196.2</ele>
        <time>2023-04-10T08:20:21Z</time>
      </trkpt>
      <trkpt lat="48.11779" lon="-3.18255">
        <ele>196.4</ele>
        <time>2023-04-10T08:20:22Z</time>
      </trkpt>
      <trkpt lat="48.1178" lon="-3.18259">
        <ele>196.4</ele>
        <time>2023-04-10T08:20:23Z</time>
      </trkpt>
      <trkpt lat="48.11781" lon="-3.18263">
        <ele>196.6</ele>
        <time>2023-04-10T08:20:24Z</time>
      </trkpt>
      <trkpt lat="48.11782" lon="-3.18267">
        <ele>196.6</ele>
        <time>2023-04-10T08:20:25Z</time>
      </trkpt>
      <trkpt lat="48.11783" lon="-3.18271">
        <ele>196.8</ele>
        <time>2023-04-10T08:20:26Z</time>
      </trkpt>
      <trkpt lat="48.11784" lon="-3.18275">
        <ele>197</ele>
        <time>2023-04-10T08:20:27Z</time>
      </trkpt>
      <trkpt lat="48.11785" lon="-3.1828">
        <ele>197.4</ele>
        <time>2023-04-10T08:20:28Z</time>
      </trkpt>
      <trkpt lat="48.11786" lon="-3.18284">
        <ele>197.8</ele>
        <time>2023-04-10T08:20:29Z</time>
      </trkpt>
      <trkpt lat="48.11787" lon="-3.18288">
        <ele>198</ele>
        <time>2023-04-10T08:20:30Z</time>
      </trkpt>
      <trkpt lat="48.11787" lon="-3.18291">
        <ele>198.2</ele>
        <time>2023-04-10T08:20:31Z</time>
      </trkpt>
      <trkpt lat="48.11787" lon="-3.18291">
        <ele>198.6</ele>
        <time>2023-04-10T08:20:32Z</time>
      </trkpt>
      <trkpt lat="48.11789" lon="-3.18299">
        <ele>198.8</ele>
        <time>2023-04-10T08:20:33Z</time>
      </trkpt>
      <trkpt lat="48.1179" lon="-3.18303">
        <ele>198.8</ele>
        <time>2023-04-10T08:20:34Z</time>
      </trkpt>
      <trkpt lat="48.11791" lon="-3.18306">
        <ele>199</ele>
        <time>2023-04-10T08:20:35Z</time>
      </trkpt>
      <trkpt lat="48.11792" lon="-3.1831">
        <ele>199</ele>
        <time>2023-04-10T08:20:36Z</time>
      </trkpt>
      <trkpt lat="48.11793" lon="-3.18314">
        <ele>199.4</ele>
        <time>2023-04-10T08:20:37Z</time>
      </trkpt>
      <trkpt lat="48.11794" lon="-3.18318">
        <ele>199.6</ele>
        <time>2023-04-10T08:20:38Z</time>
      </trkpt>
      <trkpt lat="48.11795" lon="-3.18321">
        <ele>200</ele>
        <time>2023-04-10T08:20:39Z</time>
      </trkpt>
      <trkpt lat="48.11796" lon="-3.18325">
        <ele>200.2</ele>
        <time>2023-04-10T08:20:40Z</time>
      </trkpt>
      <trkpt lat="48.11797" lon="-3.18329">
        <ele>200.4</ele>
        <time>2023-04-10T08:20:41Z</time>
      </trkpt>
      <trkpt lat="48.11798" lon="-3.18333">
        <ele>200.8</ele>
        <time>2023-04-10T08:20:42Z</time>
      </trkpt>
      <trkpt lat="48.11799" lon="-3.18337">
        <ele>201.2</ele>
        <time>2023-04-10T08:20:43Z</time>
      </trkpt>
      <trkpt lat="48.118" lon="-3.18341">
        <ele>201.2</ele>
        <time>2023-04-10T08:20:44Z</time>
      </trkpt>
      <trkpt lat="48.11801" lon="-3.18345">
        <ele>201.6</ele>
        <time>2023-04-10T08:20:45Z</time>
      </trkpt>
      <trkpt lat="48.11802" lon="-3.18349">
        <ele>201.8</ele>
        <time>2023-04-10T08:20:46Z</time>
      </trkpt>
      <trkpt lat="48.11803" lon="-3.18353">
        <ele>201.8</ele>
        <time>2023-04-10T08:20:47Z</time>
      </trkpt>
      <trkpt lat="48.11804" lon="-3.18357">
        <ele>201.8</ele>
        <time>2023-04-10T08:20:48Z</time>
      </trkpt>
      <trkpt lat="48.11805" lon="-3.18361">
        <ele>202</ele>
        <time>2023-04-10T08:20:49Z</time>
      </trkpt>
      <trkpt lat="48.11806" lon="-3.18365">
        <ele>202.2</ele>
        <time>2023-04-10T08:20:50Z</time>
      </trkpt>
      <trkpt lat="48.11807" lon="-3.1837">
        <ele>202.6</ele>
        <time>2023-04-10T08:20:51Z</time>
      </trkpt>
      <trkpt lat="48.11808" lon="-3.18374">
        <ele>202.8</ele>
        <time>2023-04-10T08:20:52Z</time>
      </trkpt>
      <trkpt lat="48.11809" lon="-3.18378">
        <ele>203</ele>
        <time>2023-04-10T08:20:53Z</time>
      </trkpt>
      <trkpt lat="48.1181" lon="-3.18383">
        <ele>203.2</ele>
        <time>2023-04-10T08:20:54Z</time>
      </trkpt>
      <trkpt lat="48.11811" lon="-3.18387">
        <ele>203.4</ele>
        <time>2023-04-10T08:20:55Z</time>
      </trkpt>
      <trkpt lat="48.11812" lon="-3.18391">
        <ele>203.6</ele>
        <time>2023-04-10T08:20:56Z</time>
      </trkpt>
      <trkpt lat="48.11812" lon="-3.18396">
        <ele>203.8</ele>
        <time>2023-04-10T08:20:57Z</time>
      </trkpt>
      <trkpt lat="48.11812" lon="-3.18402">
        <ele>203.8</ele>
        <time>2023-04-10T08:20:58Z</time>
      </trkpt>
      <trkpt lat="48.11813" lon="-3.18409">
        <ele>203.8</ele>
        <time>2023-04-10T08:20:59Z</time>
      </trkpt>
      <trkpt lat="48.11813" lon="-3.18416">
        <ele>204</ele>
        <time>2023-04-10T08:21:00Z</time>
      </trkpt>
      <trkpt lat="48.11813" lon="-3.18422">
        <ele>204.4</ele>
        <time>2023-04-10T08:21:01Z</time>
      </trkpt>
      <trkpt lat="48.11813" lon="-3.18429">
        <ele>204.2</ele>
        <time>2023-04-10T08:21:02Z</time>
      </trkpt>
      <trkpt lat="48.11813" lon="-3.18435">
        <ele>204.4</ele>
        <time>2023-04-10T08:21:03Z</time>
      </trkpt>
      <trkpt lat="48.11814" lon="-3.18442">
        <ele>204.4</ele>
        <time>2023-04-10T08:21:04Z</time>
      </trkpt>
      <trkpt lat="48.11813" lon="-3.18449">
        <ele>204.4</ele>
        <time>2023-04-10T08:21:05Z</time>
      </trkpt>
      <trkpt lat="48.11813" lon="-3.18456">
        <ele>204.4</ele>
        <time>2023-04-10T08:21:06Z</time>
      </trkpt>
      <trkpt lat="48.11814" lon="-3.18464">
        <ele>204.4</ele>
        <time>2023-04-10T08:21:07Z</time>
      </trkpt>
      <trkpt lat="48.11814" lon="-3.18472">
        <ele>204.4</ele>
        <time>2023-04-10T08:21:08Z</time>
      </trkpt>
      <trkpt lat="48.11814" lon="-3.18481">
        <ele>204.4</ele>
        <time>2023-04-10T08:21:09Z</time>
      </trkpt>
      <trkpt lat="48.11814" lon="-3.18491">
        <ele>204.4</ele>
        <time>2023-04-10T08:21:10Z</time>
      </trkpt>
      <trkpt lat="48.11814" lon="-3.18502">
        <ele>204.4</ele>
        <time>2023-04-10T08:21:11Z</time>
      </trkpt>
      <trkpt lat="48.11815" lon="-3.18513">
        <ele>204.4</ele>
        <time>2023-04-10T08:21:12Z</time>
      </trkpt>
      <trkpt lat="48.11815" lon="-3.18526">
        <ele>204.2</ele>
        <time>2023-04-10T08:21:13Z</time>
      </trkpt>
      <trkpt lat="48.11815" lon="-3.18539">
        <ele>203.8</ele>
        <time>2023-04-10T08:21:14Z</time>
      </trkpt>
      <trkpt lat="48.11815" lon="-3.18553">
        <ele>203.4</ele>
        <time>2023-04-10T08:21:15Z</time>
      </trkpt>
      <trkpt lat="48.11815" lon="-3.18567">
        <ele>203.2</ele>
        <time>2023-04-10T08:21:16Z</time>
      </trkpt>
      <trkpt lat="48.11813" lon="-3.1861">
        <ele>202.2</ele>
        <time>2023-04-10T08:21:19Z</time>
      </trkpt>
      <trkpt lat="48.11812" lon="-3.18621">
        <ele>200.8</ele>
        <time>2023-04-10T08:21:20Z</time>
      </trkpt>
      <trkpt lat="48.11811" lon="-3.18631">
        <ele>200.2</ele>
        <time>2023-04-10T08:21:21Z</time>
      </trkpt>
      <trkpt lat="48.11811" lon="-3.18639">
        <ele>199.4</ele>
        <time>2023-04-10T08:21:22Z</time>
      </trkpt>
      <trkpt lat="48.11811" lon="-3.18645">
        <ele>198.2</ele>
        <time>2023-04-10T08:21:23Z</time>
      </trkpt>
      <trkpt lat="48.11811" lon="-3.18651">
        <ele>197.6</ele>
        <time>2023-04-10T08:21:24Z</time>
      </trkpt>
      <trkpt lat="48.1181" lon="-3.18657">
        <ele>196.8</ele>
        <time>2023-04-10T08:21:25Z</time>
      </trkpt>
      <trkpt lat="48.11809" lon="-3.18662">
        <ele>196.2</ele>
        <time>2023-04-10T08:21:26Z</time>
      </trkpt>
      <trkpt lat="48.11807" lon="-3.18669">
        <ele>195.6</ele>
        <time>2023-04-10T08:21:27Z</time>
      </trkpt>
      <trkpt lat="48.11806" lon="-3.18675">
        <ele>195</ele>
        <time>2023-04-10T08:21:28Z</time>
      </trkpt>
      <trkpt lat="48.11805" lon="-3.1868">
        <ele>194.2</ele>
        <time>2023-04-10T08:21:29Z</time>
      </trkpt>
      <trkpt lat="48.11804" lon="-3.18685">
        <ele>193.4</ele>
        <time>2023-04-10T08:21:30Z</time>
      </trkpt>
      <trkpt lat="48.11803" lon="-3.18691">
        <ele>192.6</ele>
        <time>2023-04-10T08:21:31Z</time>
      </trkpt>
      <trkpt lat="48.11803" lon="-3.18697">
        <ele>192.2</ele>
        <time>2023-04-10T08:21:32Z</time>
      </trkpt>
      <trkpt lat="48.11802" lon="-3.18702">
        <ele>192.2</ele>
        <time>2023-04-10T08:21:33Z</time>
      </trkpt>
      <trkpt lat="48.11802" lon="-3.18708">
        <ele>191.8</ele>
        <time>2023-04-10T08:21:34Z</time>
      </trkpt>
      <trkpt lat="48.11801" lon="-3.18713">
        <ele>191.8</ele>
        <time>2023-04-10T08:21:35Z</time>
      </trkpt>
      <trkpt lat="48.118" lon="-3.18718">
        <ele>191.8</ele>
        <time>2023-04-10T08:21:36Z</time>
      </trkpt>
      <trkpt lat="48.118" lon="-3.18723">
        <ele>191.8</ele>
        <time>2023-04-10T08:21:37Z</time>
      </trkpt>
      <trkpt lat="48.11799" lon="-3.18728">
        <ele>191.8</ele>
        <time>2023-04-10T08:21:38Z</time>
      </trkpt>
      <trkpt lat="48.11798" lon="-3.18733">
        <ele>191.6</ele>
        <time>2023-04-10T08:21:39Z</time>
      </trkpt>
      <trkpt lat="48.11798" lon="-3.18738">
        <ele>191.6</ele>
        <time>2023-04-10T08:21:40Z</time>
      </trkpt>
      <trkpt lat="48.11797" lon="-3.18743">
        <ele>191.6</ele>
        <time>2023-04-10T08:21:41Z</time>
      </trkpt>
      <trkpt lat="48.11791" lon="-3.18784">
        <ele>192.4</ele>
        <time>2023-04-10T08:21:49Z</time>
      </trkpt>
      <trkpt lat="48.1179" lon="-3.18794">
        <ele>192.6</ele>
        <time>2023-04-10T08:21:51Z</time>
      </trkpt>
      <trkpt lat="48.1179" lon="-3.18799">
        <ele>192.8</ele>
        <time>2023-04-10T08:21:52Z</time>
      </trkpt>
      <trkpt lat="48.11789" lon="-3.18804">
        <ele>193</ele>
        <time>2023-04-10T08:21:53Z</time>
      </trkpt>
      <trkpt lat="48.11788" lon="-3.18808">
        <ele>193</ele>
        <time>2023-04-10T08:21:54Z</time>
      </trkpt>
      <trkpt lat="48.11788" lon="-3.18812">
        <ele>193</ele>
        <time>2023-04-10T08:21:55Z</time>
      </trkpt>
      <trkpt lat="48.11787" lon="-3.18816">
        <ele>193.2</ele>
        <time>2023-04-10T08:21:56Z</time>
      </trkpt>
      <trkpt lat="48.11786" lon="-3.1882">
        <ele>193.4</ele>
        <time>2023-04-10T08:21:57Z</time>
      </trkpt>
      <trkpt lat="48.11786" lon="-3.18824">
        <ele>193.4</ele>
        <time>2023-04-10T08:21:58Z</time>
      </trkpt>
      <trkpt lat="48.11785" lon="-3.18827">
        <ele>193.6</ele>
        <time>2023-04-10T08:21:59Z</time>
      </trkpt>
      <trkpt lat="48.11784" lon="-3.18831">
        <ele>193.8</ele>
        <time>2023-04-10T08:22:00Z</time>
      </trkpt>
      <trkpt lat="48.11784" lon="-3.18834">
        <ele>194</ele>
        <time>2023-04-10T08:22:01Z</time>
      </trkpt>
      <trkpt lat="48.11784" lon="-3.18838">
        <ele>194.4</ele>
        <time>2023-04-10T08:22:02Z</time>
      </trkpt>
      <trkpt lat="48.11782" lon="-3.18846">
        <ele>194.8</ele>
        <time>2023-04-10T08:22:04Z</time>
      </trkpt>
      <trkpt lat="48.1178" lon="-3.18854">
        <ele>195.6</ele>
        <time>2023-04-10T08:22:06Z</time>
      </trkpt>
      <trkpt lat="48.11779" lon="-3.18857">
        <ele>196</ele>
        <time>2023-04-10T08:22:07Z</time>
      </trkpt>
      <trkpt lat="48.11779" lon="-3.18861">
        <ele>196.2</ele>
        <time>2023-04-10T08:22:08Z</time>
      </trkpt>
      <trkpt lat="48.11778" lon="-3.18864">
        <ele>196.4</ele>
        <time>2023-04-10T08:22:09Z</time>
      </trkpt>
      <trkpt lat="48.11777" lon="-3.18868">
        <ele>196.6</ele>
        <time>2023-04-10T08:22:10Z</time>
      </trkpt>
      <trkpt lat="48.11775" lon="-3.18872">
        <ele>196.8</ele>
        <time>2023-04-10T08:22:11Z</time>
      </trkpt>
      <trkpt lat="48.11774" lon="-3.18876">
        <ele>196.8</ele>
        <time>2023-04-10T08:22:12Z</time>
      </trkpt>
      <trkpt lat="48.11773" lon="-3.1888">
        <ele>197</ele>
        <time>2023-04-10T08:22:13Z</time>
      </trkpt>
      <trkpt lat="48.11772" lon="-3.18883">
        <ele>197.4</ele>
        <time>2023-04-10T08:22:14Z</time>
      </trkpt>
      <trkpt lat="48.11772" lon="-3.18887">
        <ele>198</ele>
        <time>2023-04-10T08:22:15Z</time>
      </trkpt>
      <trkpt lat="48.11771" lon="-3.1889">
        <ele>198.2</ele>
        <time>2023-04-10T08:22:16Z</time>
      </trkpt>
      <trkpt lat="48.1177" lon="-3.18894">
        <ele>198.2</ele>
        <time>2023-04-10T08:22:17Z</time>
      </trkpt>
      <trkpt lat="48.11769" lon="-3.18898">
        <ele>198.6</ele>
        <time>2023-04-10T08:22:18Z</time>
      </trkpt>
      <trkpt lat="48.11769" lon="-3.18901">
        <ele>198.8</ele>
        <time>2023-04-10T08:22:19Z</time>
      </trkpt>
      <trkpt lat="48.11768" lon="-3.18904">
        <ele>198.8</ele>
        <time>2023-04-10T08:22:20Z</time>
      </trkpt>
      <trkpt lat="48.11766" lon="-3.18908">
        <ele>199</ele>
        <time>2023-04-10T08:22:21Z</time>
      </trkpt>
      <trkpt lat="48.11766" lon="-3.18911">
        <ele>199</ele>
        <time>2023-04-10T08:22:22Z</time>
      </trkpt>
      <trkpt lat="48.11765" lon="-3.18915">
        <ele>199.2</ele>
        <time>2023-04-10T08:22:23Z</time>
      </trkpt>
      <trkpt lat="48.11764" lon="-3.18918">
        <ele>199.6</ele>
        <time>2023-04-10T08:22:24Z</time>
      </trkpt>
      <trkpt lat="48.11763" lon="-3.18922">
        <ele>199.6</ele>
        <time>2023-04-10T08:22:25Z</time>
      </trkpt>
      <trkpt lat="48.11762" lon="-3.18926">
        <ele>199.8</ele>
        <time>2023-04-10T08:22:26Z</time>
      </trkpt>
      <trkpt lat="48.11761" lon="-3.18929">
        <ele>200</ele>
        <time>2023-04-10T08:22:27Z</time>
      </trkpt>
      <trkpt lat="48.1176" lon="-3.18932">
        <ele>200.2</ele>
        <time>2023-04-10T08:22:28Z</time>
      </trkpt>
      <trkpt lat="48.1176" lon="-3.18935">
        <ele>200.6</ele>
        <time>2023-04-10T08:22:29Z</time>
      </trkpt>
      <trkpt lat="48.11759" lon="-3.18939">
        <ele>201</ele>
        <time>2023-04-10T08:22:30Z</time>
      </trkpt>
      <trkpt lat="48.11758" lon="-3.18942">
        <ele>201.4</ele>
        <time>2023-04-10T08:22:31Z</time>
      </trkpt>
      <trkpt lat="48.11757" lon="-3.18946">
        <ele>201.6</ele>
        <time>2023-04-10T08:22:32Z</time>
      </trkpt>
      <trkpt lat="48.11756" lon="-3.18949">
        <ele>201.8</ele>
        <time>2023-04-10T08:22:33Z</time>
      </trkpt>
      <trkpt lat="48.11755" lon="-3.18953">
        <ele>201.8</ele>
        <time>2023-04-10T08:22:34Z</time>
      </trkpt>
      <trkpt lat="48.11754" lon="-3.18956">
        <ele>202</ele>
        <time>2023-04-10T08:22:35Z</time>
      </trkpt>
      <trkpt lat="48.11753" lon="-3.1896">
        <ele>202.2</ele>
        <time>2023-04-10T08:22:36Z</time>
      </trkpt>
      <trkpt lat="48.11752" lon="-3.18964">
        <ele>202.6</ele>
        <time>2023-04-10T08:22:37Z</time>
      </trkpt>
      <trkpt lat="48.11751" lon="-3.18967">
        <ele>203</ele>
        <time>2023-04-10T08:22:38Z</time>
      </trkpt>
      <trkpt lat="48.1175" lon="-3.18971">
        <ele>203</ele>
        <time>2023-04-10T08:22:39Z</time>
      </trkpt>
      <trkpt lat="48.11749" lon="-3.18975">
        <ele>203.6</ele>
        <time>2023-04-10T08:22:40Z</time>
      </trkpt>
      <trkpt lat="48.11748" lon="-3.18979">
        <ele>203.8</ele>
        <time>2023-04-10T08:22:41Z</time>
      </trkpt>
      <trkpt lat="48.11746" lon="-3.18982">
        <ele>204</ele>
        <time>2023-04-10T08:22:42Z</time>
      </trkpt>
      <trkpt lat="48.11745" lon="-3.18986">
        <ele>204.2</ele>
        <time>2023-04-10T08:22:43Z</time>
      </trkpt>
      <trkpt lat="48.11743" lon="-3.18991">
        <ele>204.4</ele>
        <time>2023-04-10T08:22:44Z</time>
      </trkpt>
      <trkpt lat="48.11742" lon="-3.18995">
        <ele>204.6</ele>
        <time>2023-04-10T08:22:45Z</time>
      </trkpt>
      <trkpt lat="48.1174" lon="-3.19001">
        <ele>204.8</ele>
        <time>2023-04-10T08:22:46Z</time>
      </trkpt>
      <trkpt lat="48.11738" lon="-3.19006">
        <ele>205</ele>
        <time>2023-04-10T08:22:47Z</time>
      </trkpt>
      <trkpt lat="48.11737" lon="-3.19012">
        <ele>205.2</ele>
        <time>2023-04-10T08:22:48Z</time>
      </trkpt>
      <trkpt lat="48.11736" lon="-3.19018">
        <ele>205.2</ele>
        <time>2023-04-10T08:22:49Z</time>
      </trkpt>
      <trkpt lat="48.11734" lon="-3.19024">
        <ele>205.2</ele>
        <time>2023-04-10T08:22:50Z</time>
      </trkpt>
      <trkpt lat="48.11733" lon="-3.19031">
        <ele>205.4</ele>
        <time>2023-04-10T08:22:51Z</time>
      </trkpt>
      <trkpt lat="48.11731" lon="-3.19036">
        <ele>205.4</ele>
        <time>2023-04-10T08:22:52Z</time>
      </trkpt>
      <trkpt lat="48.11729" lon="-3.19042">
        <ele>205.4</ele>
        <time>2023-04-10T08:22:53Z</time>
      </trkpt>
      <trkpt lat="48.11727" lon="-3.19048">
        <ele>205.4</ele>
        <time>2023-04-10T08:22:54Z</time>
      </trkpt>
      <trkpt lat="48.11726" lon="-3.19054">
        <ele>205.4</ele>
        <time>2023-04-10T08:22:55Z</time>
      </trkpt>
      <trkpt lat="48.11724" lon="-3.1906">
        <ele>205.4</ele>
        <time>2023-04-10T08:22:56Z</time>
      </trkpt>
      <trkpt lat="48.11722" lon="-3.19067">
        <ele>205.4</ele>
        <time>2023-04-10T08:22:57Z</time>
      </trkpt>
      <trkpt lat="48.1172" lon="-3.19074">
        <ele>205.4</ele>
        <time>2023-04-10T08:22:58Z</time>
      </trkpt>
      <trkpt lat="48.11718" lon="-3.19081">
        <ele>205.4</ele>
        <time>2023-04-10T08:22:59Z</time>
      </trkpt>
      <trkpt lat="48.11716" lon="-3.19088">
        <ele>205.4</ele>
        <time>2023-04-10T08:23:00Z</time>
      </trkpt>
      <trkpt lat="48.11714" lon="-3.19095">
        <ele>205.2</ele>
        <time>2023-04-10T08:23:01Z</time>
      </trkpt>
      <trkpt lat="48.11712" lon="-3.19103">
        <ele>205.2</ele>
        <time>2023-04-10T08:23:02Z</time>
      </trkpt>
      <trkpt lat="48.1171" lon="-3.1911">
        <ele>205.2</ele>
        <time>2023-04-10T08:23:03Z</time>
      </trkpt>
      <trkpt lat="48.11708" lon="-3.19118">
        <ele>205</ele>
        <time>2023-04-10T08:23:04Z</time>
      </trkpt>
      <trkpt lat="48.11706" lon="-3.19125">
        <ele>204.8</ele>
        <time>2023-04-10T08:23:05Z</time>
      </trkpt>
      <trkpt lat="48.11704" lon="-3.19132">
        <ele>204.6</ele>
        <time>2023-04-10T08:23:06Z</time>
      </trkpt>
      <trkpt lat="48.117" lon="-3.19146">
        <ele>204.2</ele>
        <time>2023-04-10T08:23:08Z</time>
      </trkpt>
      <trkpt lat="48.11698" lon="-3.19153">
        <ele>204.2</ele>
        <time>2023-04-10T08:23:09Z</time>
      </trkpt>
      <trkpt lat="48.11696" lon="-3.19159">
        <ele>203.8</ele>
        <time>2023-04-10T08:23:10Z</time>
      </trkpt>
      <trkpt lat="48.11695" lon="-3.19166">
        <ele>203.8</ele>
        <time>2023-04-10T08:23:11Z</time>
      </trkpt>
      <trkpt lat="48.11692" lon="-3.19171">
        <ele>203.6</ele>
        <time>2023-04-10T08:23:12Z</time>
      </trkpt>
      <trkpt lat="48.1169" lon="-3.19177">
        <ele>203.6</ele>
        <time>2023-04-10T08:23:13Z</time>
      </trkpt>
      <trkpt lat="48.11688" lon="-3.19182">
        <ele>203.6</ele>
        <time>2023-04-10T08:23:14Z</time>
      </trkpt>
      <trkpt lat="48.11687" lon="-3.19187">
        <ele>203.6</ele>
        <time>2023-04-10T08:23:15Z</time>
      </trkpt>
      <trkpt lat="48.11686" lon="-3.19193">
        <ele>203.6</ele>
        <time>2023-04-10T08:23:16Z</time>
      </trkpt>
      <trkpt lat="48.11685" lon="-3.19199">
        <ele>203.6</ele>
        <time>2023-04-10T08:23:17Z</time>
      </trkpt>
      <trkpt lat="48.11683" lon="-3.19211">
        <ele>203.6</ele>
        <time>2023-04-10T08:23:19Z</time>
      </trkpt>
      <trkpt lat="48.11678" lon="-3.19229">
        <ele>204</ele>
        <time>2023-04-10T08:23:22Z</time>
      </trkpt>
      <trkpt lat="48.11676" lon="-3.19235">
        <ele>204</ele>
        <time>2023-04-10T08:23:23Z</time>
      </trkpt>
      <trkpt lat="48.11675" lon="-3.19241">
        <ele>204</ele>
        <time>2023-04-10T08:23:24Z</time>
      </trkpt>
      <trkpt lat="48.11669" lon="-3.19273">
        <ele>204.8</ele>
        <time>2023-04-10T08:23:29Z</time>
      </trkpt>
      <trkpt lat="48.11669" lon="-3.19279">
        <ele>204.8</ele>
        <time>2023-04-10T08:23:30Z</time>
      </trkpt>
      <trkpt lat="48.11669" lon="-3.19285">
        <ele>205</ele>
        <time>2023-04-10T08:23:31Z</time>
      </trkpt>
      <trkpt lat="48.11669" lon="-3.19292">
        <ele>205</ele>
        <time>2023-04-10T08:23:32Z</time>
      </trkpt>
      <trkpt lat="48.11668" lon="-3.19298">
        <ele>205.2</ele>
        <time>2023-04-10T08:23:33Z</time>
      </trkpt>
      <trkpt lat="48.11667" lon="-3.19316">
        <ele>205.2</ele>
        <time>2023-04-10T08:23:36Z</time>
      </trkpt>
      <trkpt lat="48.11666" lon="-3.19329">
        <ele>205.4</ele>
        <time>2023-04-10T08:23:38Z</time>
      </trkpt>
      <trkpt lat="48.11662" lon="-3.194">
        <ele>205.8</ele>
        <time>2023-04-10T08:23:49Z</time>
      </trkpt>
      <trkpt lat="48.11661" lon="-3.19406">
        <ele>205.8</ele>
        <time>2023-04-10T08:23:50Z</time>
      </trkpt>
      <trkpt lat="48.1166" lon="-3.19419">
        <ele>205.8</ele>
        <time>2023-04-10T08:23:52Z</time>
      </trkpt>
      <trkpt lat="48.11656" lon="-3.19479">
        <ele>206</ele>
        <time>2023-04-10T08:24:01Z</time>
      </trkpt>
      <trkpt lat="48.11651" lon="-3.19549">
        <ele>206.4</ele>
        <time>2023-04-10T08:24:11Z</time>
      </trkpt>
      <trkpt lat="48.11647" lon="-3.19621">
        <ele>206.2</ele>
        <time>2023-04-10T08:24:20Z</time>
      </trkpt>
      <trkpt lat="48.11644" lon="-3.19698">
        <ele>205.4</ele>
        <time>2023-04-10T08:24:29Z</time>
      </trkpt>
      <trkpt lat="48.1164" lon="-3.19763">
        <ele>204.8</ele>
        <time>2023-04-10T08:24:36Z</time>
      </trkpt>
      <trkpt lat="48.1164" lon="-3.19773">
        <ele>204.6</ele>
        <time>2023-04-10T08:24:37Z</time>
      </trkpt>
      <trkpt lat="48.11638" lon="-3.19801">
        <ele>204.2</ele>
        <time>2023-04-10T08:24:40Z</time>
      </trkpt>
      <trkpt lat="48.11637" lon="-3.1982">
        <ele>203.4</ele>
        <time>2023-04-10T08:24:42Z</time>
      </trkpt>
      <trkpt lat="48.11637" lon="-3.19829">
        <ele>203.2</ele>
        <time>2023-04-10T08:24:43Z</time>
      </trkpt>
      <trkpt lat="48.11636" lon="-3.19868">
        <ele>202.6</ele>
        <time>2023-04-10T08:24:47Z</time>
      </trkpt>
      <trkpt lat="48.11635" lon="-3.19878">
        <ele>202.4</ele>
        <time>2023-04-10T08:24:48Z</time>
      </trkpt>
      <trkpt lat="48.11632" lon="-3.19928">
        <ele>201.2</ele>
        <time>2023-04-10T08:24:53Z</time>
      </trkpt>
      <trkpt lat="48.11632" lon="-3.19948">
        <ele>200.6</ele>
        <time>2023-04-10T08:24:55Z</time>
      </trkpt>
      <trkpt lat="48.11631" lon="-3.19958">
        <ele>200.4</ele>
        <time>2023-04-10T08:24:56Z</time>
      </trkpt>
      <trkpt lat="48.1163" lon="-3.19967">
        <ele>200.4</ele>
        <time>2023-04-10T08:24:57Z</time>
      </trkpt>
      <trkpt lat="48.1163" lon="-3.19976">
        <ele>200.2</ele>
        <time>2023-04-10T08:24:58Z</time>
      </trkpt>
      <trkpt lat="48.11629" lon="-3.19983">
        <ele>200</ele>
        <time>2023-04-10T08:24:59Z</time>
      </trkpt>
      <trkpt lat="48.11629" lon="-3.19994">
        <ele>199.8</ele>
        <time>2023-04-10T08:25:00Z</time>
      </trkpt>
      <trkpt lat="48.11628" lon="-3.20002">
        <ele>199.6</ele>
        <time>2023-04-10T08:25:01Z</time>
      </trkpt>
      <trkpt lat="48.11627" lon="-3.20011">
        <ele>199.4</ele>
        <time>2023-04-10T08:25:02Z</time>
      </trkpt>
      <trkpt lat="48.11627" lon="-3.20019">
        <ele>199.2</ele>
        <time>2023-04-10T08:25:03Z</time>
      </trkpt>
      <trkpt lat="48.11626" lon="-3.20026">
        <ele>199.2</ele>
        <time>2023-04-10T08:25:04Z</time>
      </trkpt>
      <trkpt lat="48.11625" lon="-3.20034">
        <ele>199</ele>
        <time>2023-04-10T08:25:05Z</time>
      </trkpt>
      <trkpt lat="48.11625" lon="-3.20041">
        <ele>199</ele>
        <time>2023-04-10T08:25:06Z</time>
      </trkpt>
      <trkpt lat="48.11624" lon="-3.20048">
        <ele>199</ele>
        <time>2023-04-10T08:25:07Z</time>
      </trkpt>
      <trkpt lat="48.11624" lon="-3.20055">
        <ele>199</ele>
        <time>2023-04-10T08:25:08Z</time>
      </trkpt>
      <trkpt lat="48.11624" lon="-3.20062">
        <ele>198.8</ele>
        <time>2023-04-10T08:25:09Z</time>
      </trkpt>
      <trkpt lat="48.11624" lon="-3.20068">
        <ele>198.8</ele>
        <time>2023-04-10T08:25:10Z</time>
      </trkpt>
      <trkpt lat="48.11623" lon="-3.20075">
        <ele>198.8</ele>
        <time>2023-04-10T08:25:11Z</time>
      </trkpt>
      <trkpt lat="48.11622" lon="-3.20081">
        <ele>198.8</ele>
        <time>2023-04-10T08:25:12Z</time>
      </trkpt>
      <trkpt lat="48.1162" lon="-3.20086">
        <ele>198.8</ele>
        <time>2023-04-10T08:25:13Z</time>
      </trkpt>
      <trkpt lat="48.11617" lon="-3.20089">
        <ele>198.8</ele>
        <time>2023-04-10T08:25:14Z</time>
      </trkpt>
      <trkpt lat="48.11614" lon="-3.20092">
        <ele>199</ele>
        <time>2023-04-10T08:25:15Z</time>
      </trkpt>
      <trkpt lat="48.1161" lon="-3.20094">
        <ele>199</ele>
        <time>2023-04-10T08:25:16Z</time>
      </trkpt>
      <trkpt lat="48.11606" lon="-3.20096">
        <ele>199</ele>
        <time>2023-04-10T08:25:17Z</time>
      </trkpt>
      <trkpt lat="48.11601" lon="-3.20097">
        <ele>199</ele>
        <time>2023-04-10T08:25:18Z</time>
      </trkpt>
      <trkpt lat="48.11597" lon="-3.20098">
        <ele>199.2</ele>
        <time>2023-04-10T08:25:19Z</time>
      </trkpt>
      <trkpt lat="48.1158" lon="-3.20102">
        <ele>200.2</ele>
        <time>2023-04-10T08:25:23Z</time>
      </trkpt>
      <trkpt lat="48.11573" lon="-3.20108">
        <ele>200.4</ele>
        <time>2023-04-10T08:25:25Z</time>
      </trkpt>
      <trkpt lat="48.11566" lon="-3.20117">
        <ele>200.8</ele>
        <time>2023-04-10T08:25:27Z</time>
      </trkpt>
      <trkpt lat="48.11565" lon="-3.20123">
        <ele>200.8</ele>
        <time>2023-04-10T08:25:28Z</time>
      </trkpt>
      <trkpt lat="48.11565" lon="-3.20129">
        <ele>201.2</ele>
        <time>2023-04-10T08:25:29Z</time>
      </trkpt>
      <trkpt lat="48.11567" lon="-3.20142">
        <ele>201.8</ele>
        <time>2023-04-10T08:25:31Z</time>
      </trkpt>
      <trkpt lat="48.11567" lon="-3.20149">
        <ele>201.8</ele>
        <time>2023-04-10T08:25:32Z</time>
      </trkpt>
      <trkpt lat="48.11568" lon="-3.20156">
        <ele>202</ele>
        <time>2023-04-10T08:25:33Z</time>
      </trkpt>
      <trkpt lat="48.1157" lon="-3.20194">
        <ele>202.6</ele>
        <time>2023-04-10T08:25:38Z</time>
      </trkpt>
      <trkpt lat="48.11571" lon="-3.20202">
        <ele>202.6</ele>
        <time>2023-04-10T08:25:39Z</time>
      </trkpt>
      <trkpt lat="48.11571" lon="-3.20211">
        <ele>202.8</ele>
        <time>2023-04-10T08:25:40Z</time>
      </trkpt>
      <trkpt lat="48.11572" lon="-3.20219">
        <ele>202.8</ele>
        <time>2023-04-10T08:25:41Z</time>
      </trkpt>
      <trkpt lat="48.11572" lon="-3.20228">
        <ele>202.8</ele>
        <time>2023-04-10T08:25:42Z</time>
      </trkpt>
      <trkpt lat="48.11572" lon="-3.20238">
        <ele>202.8</ele>
        <time>2023-04-10T08:25:43Z</time>
      </trkpt>
      <trkpt lat="48.11573" lon="-3.20248">
        <ele>202.8</ele>
        <time>2023-04-10T08:25:44Z</time>
      </trkpt>
      <trkpt lat="48.11573" lon="-3.20258">
        <ele>202.8</ele>
        <time>2023-04-10T08:25:45Z</time>
      </trkpt>
      <trkpt lat="48.11574" lon="-3.20269">
        <ele>202.8</ele>
        <time>2023-04-10T08:25:46Z</time>
      </trkpt>
      <trkpt lat="48.11575" lon="-3.2028">
        <ele>202.8</ele>
        <time>2023-04-10T08:25:47Z</time>
      </trkpt>
      <trkpt lat="48.11575" lon="-3.20291">
        <ele>202.8</ele>
        <time>2023-04-10T08:25:48Z</time>
      </trkpt>
      <trkpt lat="48.11576" lon="-3.20303">
        <ele>202.6</ele>
        <time>2023-04-10T08:25:49Z</time>
      </trkpt>
      <trkpt lat="48.11577" lon="-3.20341">
        <ele>201.4</ele>
        <time>2023-04-10T08:25:52Z</time>
      </trkpt>
      <trkpt lat="48.1158" lon="-3.20384">
        <ele>200.2</ele>
        <time>2023-04-10T08:25:55Z</time>
      </trkpt>
      <trkpt lat="48.11581" lon="-3.20416">
        <ele>198.8</ele>
        <time>2023-04-10T08:25:57Z</time>
      </trkpt>
      <trkpt lat="48.11583" lon="-3.20451">
        <ele>197.4</ele>
        <time>2023-04-10T08:25:59Z</time>
      </trkpt>
      <trkpt lat="48.11584" lon="-3.20469">
        <ele>197.4</ele>
        <time>2023-04-10T08:26:00Z</time>
      </trkpt>
      <trkpt lat="48.11586" lon="-3.20506">
        <ele>195.8</ele>
        <time>2023-04-10T08:26:02Z</time>
      </trkpt>
      <trkpt lat="48.11588" lon="-3.20523">
        <ele>194.6</ele>
        <time>2023-04-10T08:26:03Z</time>
      </trkpt>
      <trkpt lat="48.11589" lon="-3.20539">
        <ele>193.6</ele>
        <time>2023-04-10T08:26:04Z</time>
      </trkpt>
      <trkpt lat="48.11591" lon="-3.20555">
        <ele>192.6</ele>
        <time>2023-04-10T08:26:05Z</time>
      </trkpt>
      <trkpt lat="48.11593" lon="-3.20568">
        <ele>191.6</ele>
        <time>2023-04-10T08:26:06Z</time>
      </trkpt>
      <trkpt lat="48.11595" lon="-3.20581">
        <ele>190.4</ele>
        <time>2023-04-10T08:26:07Z</time>
      </trkpt>
      <trkpt lat="48.11597" lon="-3.20593">
        <ele>189.2</ele>
        <time>2023-04-10T08:26:08Z</time>
      </trkpt>
      <trkpt lat="48.116" lon="-3.20603">
        <ele>188.2</ele>
        <time>2023-04-10T08:26:09Z</time>
      </trkpt>
      <trkpt lat="48.11603" lon="-3.20613">
        <ele>187</ele>
        <time>2023-04-10T08:26:10Z</time>
      </trkpt>
      <trkpt lat="48.11606" lon="-3.20622">
        <ele>186.2</ele>
        <time>2023-04-10T08:26:11Z</time>
      </trkpt>
      <trkpt lat="48.1161" lon="-3.20628">
        <ele>185.6</ele>
        <time>2023-04-10T08:26:12Z</time>
      </trkpt>
      <trkpt lat="48.11613" lon="-3.20634">
        <ele>185.2</ele>
        <time>2023-04-10T08:26:13Z</time>
      </trkpt>
      <trkpt lat="48.11617" lon="-3.2064">
        <ele>185</ele>
        <time>2023-04-10T08:26:14Z</time>
      </trkpt>
      <trkpt lat="48.11621" lon="-3.20645">
        <ele>184.8</ele>
        <time>2023-04-10T08:26:15Z</time>
      </trkpt>
      <trkpt lat="48.11625" lon="-3.2065">
        <ele>184.8</ele>
        <time>2023-04-10T08:26:16Z</time>
      </trkpt>
      <trkpt lat="48.1163" lon="-3.20654">
        <ele>184.8</ele>
        <time>2023-04-10T08:26:17Z</time>
      </trkpt>
      <trkpt lat="48.11635" lon="-3.20659">
        <ele>184.8</ele>
        <time>2023-04-10T08:26:18Z</time>
      </trkpt>
      <trkpt lat="48.1164" lon="-3.20663">
        <ele>184.8</ele>
        <time>2023-04-10T08:26:19Z</time>
      </trkpt>
      <trkpt lat="48.11644" lon="-3.20668">
        <ele>184.8</ele>
        <time>2023-04-10T08:26:20Z</time>
      </trkpt>
      <trkpt lat="48.11648" lon="-3.20673">
        <ele>184.8</ele>
        <time>2023-04-10T08:26:21Z</time>
      </trkpt>
      <trkpt lat="48.11651" lon="-3.20679">
        <ele>184.8</ele>
        <time>2023-04-10T08:26:22Z</time>
      </trkpt>
      <trkpt lat="48.11654" lon="-3.20685">
        <ele>184.8</ele>
        <time>2023-04-10T08:26:23Z</time>
      </trkpt>
      <trkpt lat="48.11657" lon="-3.20692">
        <ele>185</ele>
        <time>2023-04-10T08:26:24Z</time>
      </trkpt>
      <trkpt lat="48.11659" lon="-3.20699">
        <ele>185</ele>
        <time>2023-04-10T08:26:25Z</time>
      </trkpt>
      <trkpt lat="48.11661" lon="-3.20706">
        <ele>185</ele>
        <time>2023-04-10T08:26:26Z</time>
      </trkpt>
      <trkpt lat="48.11665" lon="-3.2073">
        <ele>185.2</ele>
        <time>2023-04-10T08:26:29Z</time>
      </trkpt>
      <trkpt lat="48.11664" lon="-3.20748">
        <ele>185.4</ele>
        <time>2023-04-10T08:26:31Z</time>
      </trkpt>
      <trkpt lat="48.11661" lon="-3.20757">
        <ele>185.6</ele>
        <time>2023-04-10T08:26:32Z</time>
      </trkpt>
      <trkpt lat="48.11659" lon="-3.20764">
        <ele>185.6</ele>
        <time>2023-04-10T08:26:33Z</time>
      </trkpt>
      <trkpt lat="48.11657" lon="-3.2077">
        <ele>185.6</ele>
        <time>2023-04-10T08:26:34Z</time>
      </trkpt>
      <trkpt lat="48.11655" lon="-3.20775">
        <ele>185.6</ele>
        <time>2023-04-10T08:26:35Z</time>
      </trkpt>
      <trkpt lat="48.11653" lon="-3.20781">
        <ele>185.6</ele>
        <time>2023-04-10T08:26:36Z</time>
      </trkpt>
      <trkpt lat="48.11652" lon="-3.20786">
        <ele>185.6</ele>
        <time>2023-04-10T08:26:37Z</time>
      </trkpt>
      <trkpt lat="48.1165" lon="-3.20791">
        <ele>185.8</ele>
        <time>2023-04-10T08:26:38Z</time>
      </trkpt>
      <trkpt lat="48.11648" lon="-3.20797">
        <ele>185.8</ele>
        <time>2023-04-10T08:26:39Z</time>
      </trkpt>
      <trkpt lat="48.11644" lon="-3.20809">
        <ele>185.8</ele>
        <time>2023-04-10T08:26:41Z</time>
      </trkpt>
      <trkpt lat="48.11638" lon="-3.20829">
        <ele>186.2</ele>
        <time>2023-04-10T08:26:44Z</time>
      </trkpt>
      <trkpt lat="48.11632" lon="-3.20851">
        <ele>186.6</ele>
        <time>2023-04-10T08:26:47Z</time>
      </trkpt>
      <trkpt lat="48.11627" lon="-3.20867">
        <ele>186.8</ele>
        <time>2023-04-10T08:26:49Z</time>
      </trkpt>
      <trkpt lat="48.11623" lon="-3.20884">
        <ele>186.8</ele>
        <time>2023-04-10T08:26:51Z</time>
      </trkpt>
      <trkpt lat="48.1162" lon="-3.20901">
        <ele>186.8</ele>
        <time>2023-04-10T08:26:53Z</time>
      </trkpt>
      <trkpt lat="48.11619" lon="-3.20909">
        <ele>186.8</ele>
        <time>2023-04-10T08:26:54Z</time>
      </trkpt>
      <trkpt lat="48.11618" lon="-3.20917">
        <ele>186.8</ele>
        <time>2023-04-10T08:26:55Z</time>
      </trkpt>
      <trkpt lat="48.11617" lon="-3.20925">
        <ele>187</ele>
        <time>2023-04-10T08:26:56Z</time>
      </trkpt>
      <trkpt lat="48.11616" lon="-3.20932">
        <ele>187</ele>
        <time>2023-04-10T08:26:57Z</time>
      </trkpt>
      <trkpt lat="48.11615" lon="-3.2094">
        <ele>187</ele>
        <time>2023-04-10T08:26:58Z</time>
      </trkpt>
      <trkpt lat="48.11613" lon="-3.20946">
        <ele>187</ele>
        <time>2023-04-10T08:26:59Z</time>
      </trkpt>
      <trkpt lat="48.11612" lon="-3.20953">
        <ele>187</ele>
        <time>2023-04-10T08:27:00Z</time>
      </trkpt>
      <trkpt lat="48.11612" lon="-3.20959">
        <ele>187</ele>
        <time>2023-04-10T08:27:01Z</time>
      </trkpt>
      <trkpt lat="48.11612" lon="-3.20965">
        <ele>187</ele>
        <time>2023-04-10T08:27:02Z</time>
      </trkpt>
      <trkpt lat="48.11613" lon="-3.20971">
        <ele>187</ele>
        <time>2023-04-10T08:27:03Z</time>
      </trkpt>
      <trkpt lat="48.11615" lon="-3.20975">
        <ele>187</ele>
        <time>2023-04-10T08:27:04Z</time>
      </trkpt>
      <trkpt lat="48.11616" lon="-3.20979">
        <ele>187.2</ele>
        <time>2023-04-10T08:27:05Z</time>
      </trkpt>
      <trkpt lat="48.11618" lon="-3.20982">
        <ele>187.2</ele>
        <time>2023-04-10T08:27:06Z</time>
      </trkpt>
      <trkpt lat="48.11619" lon="-3.20985">
        <ele>187.2</ele>
        <time>2023-04-10T08:27:07Z</time>
      </trkpt>
      <trkpt lat="48.11621" lon="-3.20987">
        <ele>187.4</ele>
        <time>2023-04-10T08:27:08Z</time>
      </trkpt>
      <trkpt lat="48.11623" lon="-3.2099">
        <ele>187.6</ele>
        <time>2023-04-10T08:27:09Z</time>
      </trkpt>
      <trkpt lat="48.11625" lon="-3.20992">
        <ele>187.8</ele>
        <time>2023-04-10T08:27:10Z</time>
      </trkpt>
      <trkpt lat="48.11627" lon="-3.20995">
        <ele>187.8</ele>
        <time>2023-04-10T08:27:11Z</time>
      </trkpt>
      <trkpt lat="48.11628" lon="-3.20997">
        <ele>188</ele>
        <time>2023-04-10T08:27:12Z</time>
      </trkpt>
      <trkpt lat="48.1163" lon="-3.20999">
        <ele>188.4</ele>
        <time>2023-04-10T08:27:13Z</time>
      </trkpt>
      <trkpt lat="48.11633" lon="-3.21004">
        <ele>189</ele>
        <time>2023-04-10T08:27:15Z</time>
      </trkpt>
      <trkpt lat="48.11639" lon="-3.21013">
        <ele>190</ele>
        <time>2023-04-10T08:27:18Z</time>
      </trkpt>
      <trkpt lat="48.11641" lon="-3.21016">
        <ele>190.2</ele>
        <time>2023-04-10T08:27:19Z</time>
      </trkpt>
      <trkpt lat="48.11642" lon="-3.21019">
        <ele>190.6</ele>
        <time>2023-04-10T08:27:20Z</time>
      </trkpt>
      <trkpt lat="48.11644" lon="-3.21022">
        <ele>190.8</ele>
        <time>2023-04-10T08:27:21Z</time>
      </trkpt>
      <trkpt lat="48.11645" lon="-3.21024">
        <ele>191</ele>
        <time>2023-04-10T08:27:22Z</time>
      </trkpt>
      <trkpt lat="48.11646" lon="-3.21027">
        <ele>191.2</ele>
        <time>2023-04-10T08:27:23Z</time>
      </trkpt>
      <trkpt lat="48.11648" lon="-3.2103">
        <ele>191.4</ele>
        <time>2023-04-10T08:27:24Z</time>
      </trkpt>
      <trkpt lat="48.11649" lon="-3.21033">
        <ele>191.8</ele>
        <time>2023-04-10T08:27:25Z</time>
      </trkpt>
      <trkpt lat="48.11651" lon="-3.21036">
        <ele>192</ele>
        <time>2023-04-10T08:27:26Z</time>
      </trkpt>
      <trkpt lat="48.11652" lon="-3.21039">
        <ele>192.4</ele>
        <time>2023-04-10T08:27:27Z</time>
      </trkpt>
      <trkpt lat="48.11653" lon="-3.21043">
        <ele>192.4</ele>
        <time>2023-04-10T08:27:28Z</time>
      </trkpt>
      <trkpt lat="48.11655" lon="-3.21046">
        <ele>192.6</ele>
        <time>2023-04-10T08:27:29Z</time>
      </trkpt>
      <trkpt lat="48.11655" lon="-3.2105">
        <ele>193</ele>
        <time>2023-04-10T08:27:30Z</time>
      </trkpt>
      <trkpt lat="48.11656" lon="-3.21054">
        <ele>193.2</ele>
        <time>2023-04-10T08:27:31Z</time>
      </trkpt>
      <trkpt lat="48.11657" lon="-3.21057">
        <ele>193.6</ele>
        <time>2023-04-10T08:27:32Z</time>
      </trkpt>
      <trkpt lat="48.11658" lon="-3.21061">
        <ele>193.8</ele>
        <time>2023-04-10T08:27:33Z</time>
      </trkpt>
      <trkpt lat="48.11659" lon="-3.21065">
        <ele>194</ele>
        <time>2023-04-10T08:27:34Z</time>
      </trkpt>
      <trkpt lat="48.1166" lon="-3.21069">
        <ele>194.2</ele>
        <time>2023-04-10T08:27:35Z</time>
      </trkpt>
      <trkpt lat="48.1166" lon="-3.21073">
        <ele>194.6</ele>
        <time>2023-04-10T08:27:36Z</time>
      </trkpt>
      <trkpt lat="48.11661" lon="-3.21077">
        <ele>194.8</ele>
        <time>2023-04-10T08:27:37Z</time>
      </trkpt>
      <trkpt lat="48.11662" lon="-3.2108">
        <ele>195</ele>
        <time>2023-04-10T08:27:38Z</time>
      </trkpt>
      <trkpt lat="48.11663" lon="-3.21084">
        <ele>195.2</ele>
        <time>2023-04-10T08:27:39Z</time>
      </trkpt>
      <trkpt lat="48.11664" lon="-3.21088">
        <ele>195.4</ele>
        <time>2023-04-10T08:27:40Z</time>
      </trkpt>
      <trkpt lat="48.11664" lon="-3.21091">
        <ele>195.8</ele>
        <time>2023-04-10T08:27:41Z</time>
      </trkpt>
      <trkpt lat="48.11665" lon="-3.21095">
        <ele>195.8</ele>
        <time>2023-04-10T08:27:42Z</time>
      </trkpt>
      <trkpt lat="48.11667" lon="-3.21098">
        <ele>196</ele>
        <time>2023-04-10T08:27:43Z</time>
      </trkpt>
      <trkpt lat="48.11668" lon="-3.21102">
        <ele>196.4</ele>
        <time>2023-04-10T08:27:44Z</time>
      </trkpt>
      <trkpt lat="48.1167" lon="-3.21105">
        <ele>196.6</ele>
        <time>2023-04-10T08:27:45Z</time>
      </trkpt>
      <trkpt lat="48.11671" lon="-3.21109">
        <ele>197</ele>
        <time>2023-04-10T08:27:46Z</time>
      </trkpt>
      <trkpt lat="48.11673" lon="-3.21112">
        <ele>197.4</ele>
        <time>2023-04-10T08:27:47Z</time>
      </trkpt>
      <trkpt lat="48.11675" lon="-3.21115">
        <ele>197.8</ele>
        <time>2023-04-10T08:27:48Z</time>
      </trkpt>
      <trkpt lat="48.11677" lon="-3.21119">
        <ele>198</ele>
        <time>2023-04-10T08:27:49Z</time>
      </trkpt>
      <trkpt lat="48.11679" lon="-3.21121">
        <ele>198</ele>
        <time>2023-04-10T08:27:50Z</time>
      </trkpt>
      <trkpt lat="48.11681" lon="-3.21124">
        <ele>198.4</ele>
        <time>2023-04-10T08:27:51Z</time>
      </trkpt>
      <trkpt lat="48.11683" lon="-3.21127">
        <ele>198.6</ele>
        <time>2023-04-10T08:27:52Z</time>
      </trkpt>
      <trkpt lat="48.11685" lon="-3.2113">
        <ele>198.8</ele>
        <time>2023-04-10T08:27:53Z</time>
      </trkpt>
      <trkpt lat="48.11687" lon="-3.21133">
        <ele>198.8</ele>
        <time>2023-04-10T08:27:54Z</time>
      </trkpt>
      <trkpt lat="48.11689" lon="-3.21136">
        <ele>199</ele>
        <time>2023-04-10T08:27:55Z</time>
      </trkpt>
      <trkpt lat="48.11692" lon="-3.21138">
        <ele>199.2</ele>
        <time>2023-04-10T08:27:56Z</time>
      </trkpt>
      <trkpt lat="48.11694" lon="-3.21141">
        <ele>199.2</ele>
        <time>2023-04-10T08:27:57Z</time>
      </trkpt>
      <trkpt lat="48.11696" lon="-3.21144">
        <ele>199.4</ele>
        <time>2023-04-10T08:27:58Z</time>
      </trkpt>
      <trkpt lat="48.11698" lon="-3.21146">
        <ele>199.6</ele>
        <time>2023-04-10T08:27:59Z</time>
      </trkpt>
      <trkpt lat="48.117" lon="-3.21149">
        <ele>199.8</ele>
        <time>2023-04-10T08:28:00Z</time>
      </trkpt>
      <trkpt lat="48.11703" lon="-3.21152">
        <ele>200</ele>
        <time>2023-04-10T08:28:01Z</time>
      </trkpt>
      <trkpt lat="48.11705" lon="-3.21154">
        <ele>200</ele>
        <time>2023-04-10T08:28:02Z</time>
      </trkpt>
      <trkpt lat="48.11707" lon="-3.21157">
        <ele>200.2</ele>
        <time>2023-04-10T08:28:03Z</time>
      </trkpt>
      <trkpt lat="48.11709" lon="-3.2116">
        <ele>200.6</ele>
        <time>2023-04-10T08:28:04Z</time>
      </trkpt>
      <trkpt lat="48.11712" lon="-3.21163">
        <ele>200.8</ele>
        <time>2023-04-10T08:28:05Z</time>
      </trkpt>
      <trkpt lat="48.11714" lon="-3.21166">
        <ele>201.2</ele>
        <time>2023-04-10T08:28:06Z</time>
      </trkpt>
      <trkpt lat="48.11717" lon="-3.21169">
        <ele>201.2</ele>
        <time>2023-04-10T08:28:07Z</time>
      </trkpt>
      <trkpt lat="48.11719" lon="-3.21172">
        <ele>201.4</ele>
        <time>2023-04-10T08:28:08Z</time>
      </trkpt>
      <trkpt lat="48.11721" lon="-3.21175">
        <ele>201.6</ele>
        <time>2023-04-10T08:28:09Z</time>
      </trkpt>
      <trkpt lat="48.11724" lon="-3.21178">
        <ele>202</ele>
        <time>2023-04-10T08:28:10Z</time>
      </trkpt>
      <trkpt lat="48.11726" lon="-3.21181">
        <ele>202.2</ele>
        <time>2023-04-10T08:28:11Z</time>
      </trkpt>
      <trkpt lat="48.11729" lon="-3.21184">
        <ele>202.2</ele>
        <time>2023-04-10T08:28:12Z</time>
      </trkpt>
      <trkpt lat="48.11732" lon="-3.21188">
        <ele>202.4</ele>
        <time>2023-04-10T08:28:13Z</time>
      </trkpt>
      <trkpt lat="48.11736" lon="-3.21192">
        <ele>202.6</ele>
        <time>2023-04-10T08:28:14Z</time>
      </trkpt>
      <trkpt lat="48.11739" lon="-3.21197">
        <ele>202.4</ele>
        <time>2023-04-10T08:28:15Z</time>
      </trkpt>
      <trkpt lat="48.11743" lon="-3.21202">
        <ele>202.4</ele>
        <time>2023-04-10T08:28:16Z</time>
      </trkpt>
      <trkpt lat="48.11747" lon="-3.21208">
        <ele>202.4</ele>
        <time>2023-04-10T08:28:17Z</time>
      </trkpt>
      <trkpt lat="48.11751" lon="-3.21213">
        <ele>202.4</ele>
        <time>2023-04-10T08:28:18Z</time>
      </trkpt>
      <trkpt lat="48.11756" lon="-3.21219">
        <ele>202.4</ele>
        <time>2023-04-10T08:28:19Z</time>
      </trkpt>
      <trkpt lat="48.1176" lon="-3.21224">
        <ele>202.4</ele>
        <time>2023-04-10T08:28:20Z</time>
      </trkpt>
      <trkpt lat="48.11765" lon="-3.2123">
        <ele>202.4</ele>
        <time>2023-04-10T08:28:21Z</time>
      </trkpt>
      <trkpt lat="48.11769" lon="-3.21235">
        <ele>202.4</ele>
        <time>2023-04-10T08:28:22Z</time>
      </trkpt>
      <trkpt lat="48.11774" lon="-3.21241">
        <ele>202.2</ele>
        <time>2023-04-10T08:28:23Z</time>
      </trkpt>
      <trkpt lat="48.11778" lon="-3.21247">
        <ele>202.4</ele>
        <time>2023-04-10T08:28:24Z</time>
      </trkpt>
      <trkpt lat="48.11782" lon="-3.21252">
        <ele>202.4</ele>
        <time>2023-04-10T08:28:25Z</time>
      </trkpt>
      <trkpt lat="48.11787" lon="-3.21258">
        <ele>202.2</ele>
        <time>2023-04-10T08:28:26Z</time>
      </trkpt>
      <trkpt lat="48.11791" lon="-3.21263">
        <ele>201.8</ele>
        <time>2023-04-10T08:28:27Z</time>
      </trkpt>
      <trkpt lat="48.11795" lon="-3.21269">
        <ele>201.6</ele>
        <time>2023-04-10T08:28:28Z</time>
      </trkpt>
      <trkpt lat="48.11798" lon="-3.21276">
        <ele>201.6</ele>
        <time>2023-04-10T08:28:29Z</time>
      </trkpt>
      <trkpt lat="48.11801" lon="-3.21283">
        <ele>201.6</ele>
        <time>2023-04-10T08:28:30Z</time>
      </trkpt>
      <trkpt lat="48.11803" lon="-3.21291">
        <ele>201.4</ele>
        <time>2023-04-10T08:28:31Z</time>
      </trkpt>
      <trkpt lat="48.11804" lon="-3.21299">
        <ele>201.4</ele>
        <time>2023-04-10T08:28:32Z</time>
      </trkpt>
      <trkpt lat="48.11804" lon="-3.21307">
        <ele>201.4</ele>
        <time>2023-04-10T08:28:33Z</time>
      </trkpt>
      <trkpt lat="48.11804" lon="-3.21315">
        <ele>201.4</ele>
        <time>2023-04-10T08:28:34Z</time>
      </trkpt>
      <trkpt lat="48.11804" lon="-3.21323">
        <ele>201.4</ele>
        <time>2023-04-10T08:28:35Z</time>
      </trkpt>
      <trkpt lat="48.11802" lon="-3.2133">
        <ele>201.4</ele>
        <time>2023-04-10T08:28:36Z</time>
      </trkpt>
      <trkpt lat="48.118" lon="-3.21338">
        <ele>201.4</ele>
        <time>2023-04-10T08:28:37Z</time>
      </trkpt>
      <trkpt lat="48.11781" lon="-3.21384">
        <ele>201.6</ele>
        <time>2023-04-10T08:28:43Z</time>
      </trkpt>
      <trkpt lat="48.11774" lon="-3.21399">
        <ele>201.6</ele>
        <time>2023-04-10T08:28:45Z</time>
      </trkpt>
      <trkpt lat="48.11765" lon="-3.21411">
        <ele>201.6</ele>
        <time>2023-04-10T08:28:47Z</time>
      </trkpt>
      <trkpt lat="48.1176" lon="-3.21417">
        <ele>201.6</ele>
        <time>2023-04-10T08:28:48Z</time>
      </trkpt>
      <trkpt lat="48.11755" lon="-3.21421">
        <ele>201.6</ele>
        <time>2023-04-10T08:28:49Z</time>
      </trkpt>
      <trkpt lat="48.11731" lon="-3.21436">
        <ele>201.6</ele>
        <time>2023-04-10T08:28:53Z</time>
      </trkpt>
      <trkpt lat="48.11715" lon="-3.21454">
        <ele>201.4</ele>
        <time>2023-04-10T08:28:56Z</time>
      </trkpt>
      <trkpt lat="48.1171" lon="-3.21462">
        <ele>201.4</ele>
        <time>2023-04-10T08:28:57Z</time>
      </trkpt>
      <trkpt lat="48.11702" lon="-3.2148">
        <ele>201.4</ele>
        <time>2023-04-10T08:28:59Z</time>
      </trkpt>
      <trkpt lat="48.11698" lon="-3.21489">
        <ele>201.2</ele>
        <time>2023-04-10T08:29:00Z</time>
      </trkpt>
      <trkpt lat="48.11695" lon="-3.21499">
        <ele>201.2</ele>
        <time>2023-04-10T08:29:01Z</time>
      </trkpt>
      <trkpt lat="48.11693" lon="-3.21508">
        <ele>201</ele>
        <time>2023-04-10T08:29:02Z</time>
      </trkpt>
      <trkpt lat="48.11688" lon="-3.21528">
        <ele>200</ele>
        <time>2023-04-10T08:29:04Z</time>
      </trkpt>
      <trkpt lat="48.11685" lon="-3.21539">
        <ele>199.6</ele>
        <time>2023-04-10T08:29:05Z</time>
      </trkpt>
      <trkpt lat="48.11678" lon="-3.21575">
        <ele>199</ele>
        <time>2023-04-10T08:29:08Z</time>
      </trkpt>
      <trkpt lat="48.11674" lon="-3.21599">
        <ele>198.4</ele>
        <time>2023-04-10T08:29:10Z</time>
      </trkpt>
      <trkpt lat="48.11672" lon="-3.2161">
        <ele>198</ele>
        <time>2023-04-10T08:29:11Z</time>
      </trkpt>
      <trkpt lat="48.1167" lon="-3.2162">
        <ele>197.4</ele>
        <time>2023-04-10T08:29:12Z</time>
      </trkpt>
      <trkpt lat="48.11668" lon="-3.21629">
        <ele>197</ele>
        <time>2023-04-10T08:29:13Z</time>
      </trkpt>
      <trkpt lat="48.11667" lon="-3.21638">
        <ele>196.6</ele>
        <time>2023-04-10T08:29:14Z</time>
      </trkpt>
      <trkpt lat="48.11666" lon="-3.21647">
        <ele>196</ele>
        <time>2023-04-10T08:29:15Z</time>
      </trkpt>
      <trkpt lat="48.11664" lon="-3.21654">
        <ele>195.8</ele>
        <time>2023-04-10T08:29:16Z</time>
      </trkpt>
      <trkpt lat="48.11663" lon="-3.21661">
        <ele>195.6</ele>
        <time>2023-04-10T08:29:17Z</time>
      </trkpt>
      <trkpt lat="48.11662" lon="-3.21668">
        <ele>195.6</ele>
        <time>2023-04-10T08:29:18Z</time>
      </trkpt>
      <trkpt lat="48.11661" lon="-3.21675">
        <ele>195.6</ele>
        <time>2023-04-10T08:29:19Z</time>
      </trkpt>
      <trkpt lat="48.1166" lon="-3.21681">
        <ele>195.6</ele>
        <time>2023-04-10T08:29:20Z</time>
      </trkpt>
      <trkpt lat="48.1166" lon="-3.21687">
        <ele>195.6</ele>
        <time>2023-04-10T08:29:21Z</time>
      </trkpt>
      <trkpt lat="48.11659" lon="-3.21694">
        <ele>195.6</ele>
        <time>2023-04-10T08:29:22Z</time>
      </trkpt>
      <trkpt lat="48.11662" lon="-3.21705">
        <ele>195.6</ele>
        <time>2023-04-10T08:29:24Z</time>
      </trkpt>
      <trkpt lat="48.11665" lon="-3.2171">
        <ele>195.6</ele>
        <time>2023-04-10T08:29:25Z</time>
      </trkpt>
      <trkpt lat="48.11669" lon="-3.21712">
        <ele>195.8</ele>
        <time>2023-04-10T08:29:26Z</time>
      </trkpt>
      <trkpt lat="48.11679" lon="-3.21713">
        <ele>196.2</ele>
        <time>2023-04-10T08:29:28Z</time>
      </trkpt>
      <trkpt lat="48.11684" lon="-3.21714">
        <ele>196.4</ele>
        <time>2023-04-10T08:29:29Z</time>
      </trkpt>
      <trkpt lat="48.11689" lon="-3.21714">
        <ele>196.6</ele>
        <time>2023-04-10T08:29:30Z</time>
      </trkpt>
      <trkpt lat="48.11716" lon="-3.21712">
        <ele>197.4</ele>
        <time>2023-04-10T08:29:35Z</time>
      </trkpt>
      <trkpt lat="48.11727" lon="-3.21711">
        <ele>197.8</ele>
        <time>2023-04-10T08:29:37Z</time>
      </trkpt>
      <trkpt lat="48.11732" lon="-3.2171">
        <ele>198</ele>
        <time>2023-04-10T08:29:38Z</time>
      </trkpt>
      <trkpt lat="48.11758" lon="-3.21707">
        <ele>198.8</ele>
        <time>2023-04-10T08:29:43Z</time>
      </trkpt>
      <trkpt lat="48.11785" lon="-3.21706">
        <ele>200</ele>
        <time>2023-04-10T08:29:48Z</time>
      </trkpt>
      <trkpt lat="48.1179" lon="-3.21706">
        <ele>200.2</ele>
        <time>2023-04-10T08:29:49Z</time>
      </trkpt>
      <trkpt lat="48.11795" lon="-3.21705">
        <ele>200.4</ele>
        <time>2023-04-10T08:29:50Z</time>
      </trkpt>
      <trkpt lat="48.118" lon="-3.21705">
        <ele>200.6</ele>
        <time>2023-04-10T08:29:51Z</time>
      </trkpt>
      <trkpt lat="48.11804" lon="-3.21705">
        <ele>200.6</ele>
        <time>2023-04-10T08:29:52Z</time>
      </trkpt>
      <trkpt lat="48.11809" lon="-3.21705">
        <ele>200.8</ele>
        <time>2023-04-10T08:29:53Z</time>
      </trkpt>
      <trkpt lat="48.11813" lon="-3.21706">
        <ele>201</ele>
        <time>2023-04-10T08:29:54Z</time>
      </trkpt>
      <trkpt lat="48.11818" lon="-3.21706">
        <ele>201.2</ele>
        <time>2023-04-10T08:29:55Z</time>
      </trkpt>
      <trkpt lat="48.11822" lon="-3.21706">
        <ele>201.4</ele>
        <time>2023-04-10T08:29:56Z</time>
      </trkpt>
      <trkpt lat="48.11826" lon="-3.21705">
        <ele>201.6</ele>
        <time>2023-04-10T08:29:57Z</time>
      </trkpt>
      <trkpt lat="48.1183" lon="-3.21704">
        <ele>201.6</ele>
        <time>2023-04-10T08:29:58Z</time>
      </trkpt>
      <trkpt lat="48.11835" lon="-3.21704">
        <ele>202</ele>
        <time>2023-04-10T08:29:59Z</time>
      </trkpt>
      <trkpt lat="48.11839" lon="-3.21702">
        <ele>202.2</ele>
        <time>2023-04-10T08:30:00Z</time>
      </trkpt>
      <trkpt lat="48.11843" lon="-3.21701">
        <ele>202.4</ele>
        <time>2023-04-10T08:30:01Z</time>
      </trkpt>
      <trkpt lat="48.11848" lon="-3.217">
        <ele>202.6</ele>
        <time>2023-04-10T08:30:02Z</time>
      </trkpt>
      <trkpt lat="48.11852" lon="-3.21699">
        <ele>202.6</ele>
        <time>2023-04-10T08:30:03Z</time>
      </trkpt>
      <trkpt lat="48.11856" lon="-3.21698">
        <ele>202.8</ele>
        <time>2023-04-10T08:30:04Z</time>
      </trkpt>
      <trkpt lat="48.1186" lon="-3.21696">
        <ele>203</ele>
        <time>2023-04-10T08:30:05Z</time>
      </trkpt>
      <trkpt lat="48.11864" lon="-3.21695">
        <ele>203</ele>
        <time>2023-04-10T08:30:06Z</time>
      </trkpt>
      <trkpt lat="48.11868" lon="-3.21693">
        <ele>203.2</ele>
        <time>2023-04-10T08:30:07Z</time>
      </trkpt>
      <trkpt lat="48.11873" lon="-3.21692">
        <ele>203.4</ele>
        <time>2023-04-10T08:30:08Z</time>
      </trkpt>
      <trkpt lat="48.11877" lon="-3.21691">
        <ele>203.6</ele>
        <time>2023-04-10T08:30:09Z</time>
      </trkpt>
      <trkpt lat="48.11882" lon="-3.2169">
        <ele>203.8</ele>
        <time>2023-04-10T08:30:10Z</time>
      </trkpt>
      <trkpt lat="48.11885" lon="-3.21689">
        <ele>204</ele>
        <time>2023-04-10T08:30:11Z</time>
      </trkpt>
      <trkpt lat="48.11889" lon="-3.21687">
        <ele>204.2</ele>
        <time>2023-04-10T08:30:12Z</time>
      </trkpt>
      <trkpt lat="48.11893" lon="-3.21685">
        <ele>204.4</ele>
        <time>2023-04-10T08:30:13Z</time>
      </trkpt>
      <trkpt lat="48.11897" lon="-3.21683">
        <ele>204.6</ele>
        <time>2023-04-10T08:30:14Z</time>
      </trkpt>
      <trkpt lat="48.11901" lon="-3.21681">
        <ele>204.8</ele>
        <time>2023-04-10T08:30:15Z</time>
      </trkpt>
      <trkpt lat="48.11905" lon="-3.21679">
        <ele>205</ele>
        <time>2023-04-10T08:30:16Z</time>
      </trkpt>
      <trkpt lat="48.1191" lon="-3.21678">
        <ele>205.2</ele>
        <time>2023-04-10T08:30:17Z</time>
      </trkpt>
      <trkpt lat="48.11914" lon="-3.21677">
        <ele>205.6</ele>
        <time>2023-04-10T08:30:18Z</time>
      </trkpt>
      <trkpt lat="48.11917" lon="-3.21676">
        <ele>205.8</ele>
        <time>2023-04-10T08:30:19Z</time>
      </trkpt>
      <trkpt lat="48.1192" lon="-3.21674">
        <ele>206.2</ele>
        <time>2023-04-10T08:30:20Z</time>
      </trkpt>
      <trkpt lat="48.11923" lon="-3.21673">
        <ele>206.4</ele>
        <time>2023-04-10T08:30:21Z</time>
      </trkpt>
      <trkpt lat="48.11926" lon="-3.21671">
        <ele>206.6</ele>
        <time>2023-04-10T08:30:22Z</time>
      </trkpt>
      <trkpt lat="48.1193" lon="-3.2167">
        <ele>206.8</ele>
        <time>2023-04-10T08:30:23Z</time>
      </trkpt>
      <trkpt lat="48.11934" lon="-3.21668">
        <ele>207.2</ele>
        <time>2023-04-10T08:30:24Z</time>
      </trkpt>
      <trkpt lat="48.11939" lon="-3.21667">
        <ele>207.2</ele>
        <time>2023-04-10T08:30:25Z</time>
      </trkpt>
      <trkpt lat="48.11943" lon="-3.21665">
        <ele>207.4</ele>
        <time>2023-04-10T08:30:26Z</time>
      </trkpt>
      <trkpt lat="48.11946" lon="-3.21664">
        <ele>207.6</ele>
        <time>2023-04-10T08:30:27Z</time>
      </trkpt>
      <trkpt lat="48.1195" lon="-3.21663">
        <ele>207.8</ele>
        <time>2023-04-10T08:30:28Z</time>
      </trkpt>
      <trkpt lat="48.11956" lon="-3.21662">
        <ele>208</ele>
        <time>2023-04-10T08:30:29Z</time>
      </trkpt>
      <trkpt lat="48.11959" lon="-3.21661">
        <ele>208.2</ele>
        <time>2023-04-10T08:30:30Z</time>
      </trkpt>
      <trkpt lat="48.11964" lon="-3.21661">
        <ele>208.4</ele>
        <time>2023-04-10T08:30:31Z</time>
      </trkpt>
      <trkpt lat="48.11968" lon="-3.21661">
        <ele>208.4</ele>
        <time>2023-04-10T08:30:32Z</time>
      </trkpt>
      <trkpt lat="48.11974" lon="-3.21662">
        <ele>208.6</ele>
        <time>2023-04-10T08:30:33Z</time>
      </trkpt>
      <trkpt lat="48.11979" lon="-3.21662">
        <ele>209</ele>
        <time>2023-04-10T08:30:34Z</time>
      </trkpt>
      <trkpt lat="48.11985" lon="-3.21663">
        <ele>209.2</ele>
        <time>2023-04-10T08:30:35Z</time>
      </trkpt>
      <trkpt lat="48.1199" lon="-3.21663">
        <ele>209.4</ele>
        <time>2023-04-10T08:30:36Z</time>
      </trkpt>
      <trkpt lat="48.11997" lon="-3.21664">
        <ele>209.6</ele>
        <time>2023-04-10T08:30:37Z</time>
      </trkpt>
      <trkpt lat="48.12001" lon="-3.21666">
        <ele>209.8</ele>
        <time>2023-04-10T08:30:38Z</time>
      </trkpt>
      <trkpt lat="48.12007" lon="-3.21666">
        <ele>210</ele>
        <time>2023-04-10T08:30:39Z</time>
      </trkpt>
      <trkpt lat="48.12012" lon="-3.21667">
        <ele>210.2</ele>
        <time>2023-04-10T08:30:40Z</time>
      </trkpt>
      <trkpt lat="48.12018" lon="-3.21669">
        <ele>210.4</ele>
        <time>2023-04-10T08:30:41Z</time>
      </trkpt>
      <trkpt lat="48.12022" lon="-3.2167">
        <ele>210.8</ele>
        <time>2023-04-10T08:30:42Z</time>
      </trkpt>
      <trkpt lat="48.12028" lon="-3.21672">
        <ele>211</ele>
        <time>2023-04-10T08:30:43Z</time>
      </trkpt>
      <trkpt lat="48.12034" lon="-3.21672">
        <ele>211</ele>
        <time>2023-04-10T08:30:44Z</time>
      </trkpt>
      <trkpt lat="48.12042" lon="-3.21671">
        <ele>211</ele>
        <time>2023-04-10T08:30:45Z</time>
      </trkpt>
      <trkpt lat="48.12047" lon="-3.21671">
        <ele>211</ele>
        <time>2023-04-10T08:30:46Z</time>
      </trkpt>
      <trkpt lat="48.12054" lon="-3.21671">
        <ele>211</ele>
        <time>2023-04-10T08:30:47Z</time>
      </trkpt>
      <trkpt lat="48.12061" lon="-3.2167">
        <ele>211</ele>
        <time>2023-04-10T08:30:48Z</time>
      </trkpt>
      <trkpt lat="48.12068" lon="-3.21671">
        <ele>211</ele>
        <time>2023-04-10T08:30:49Z</time>
      </trkpt>
      <trkpt lat="48.12075" lon="-3.2167">
        <ele>211</ele>
        <time>2023-04-10T08:30:50Z</time>
      </trkpt>
      <trkpt lat="48.12082" lon="-3.2167">
        <ele>211</ele>
        <time>2023-04-10T08:30:51Z</time>
      </trkpt>
      <trkpt lat="48.12089" lon="-3.2167">
        <ele>211</ele>
        <time>2023-04-10T08:30:52Z</time>
      </trkpt>
      <trkpt lat="48.12096" lon="-3.21672">
        <ele>211</ele>
        <time>2023-04-10T08:30:53Z</time>
      </trkpt>
      <trkpt lat="48.12103" lon="-3.21672">
        <ele>211</ele>
        <time>2023-04-10T08:30:54Z</time>
      </trkpt>
      <trkpt lat="48.1211" lon="-3.21672">
        <ele>211</ele>
        <time>2023-04-10T08:30:55Z</time>
      </trkpt>
      <trkpt lat="48.12117" lon="-3.21673">
        <ele>211</ele>
        <time>2023-04-10T08:30:56Z</time>
      </trkpt>
      <trkpt lat="48.12123" lon="-3.21675">
        <ele>211</ele>
        <time>2023-04-10T08:30:57Z</time>
      </trkpt>
      <trkpt lat="48.1213" lon="-3.21676">
        <ele>210.8</ele>
        <time>2023-04-10T08:30:58Z</time>
      </trkpt>
      <trkpt lat="48.12137" lon="-3.21677">
        <ele>210.8</ele>
        <time>2023-04-10T08:30:59Z</time>
      </trkpt>
      <trkpt lat="48.12145" lon="-3.21679">
        <ele>210.8</ele>
        <time>2023-04-10T08:31:00Z</time>
      </trkpt>
      <trkpt lat="48.12204" lon="-3.21695">
        <ele>210.8</ele>
        <time>2023-04-10T08:31:08Z</time>
      </trkpt>
      <trkpt lat="48.12226" lon="-3.21701">
        <ele>210.8</ele>
        <time>2023-04-10T08:31:11Z</time>
      </trkpt>
      <trkpt lat="48.12232" lon="-3.21703">
        <ele>210.8</ele>
        <time>2023-04-10T08:31:12Z</time>
      </trkpt>
      <trkpt lat="48.12239" lon="-3.21705">
        <ele>210.8</ele>
        <time>2023-04-10T08:31:13Z</time>
      </trkpt>
      <trkpt lat="48.12245" lon="-3.21708">
        <ele>210.6</ele>
        <time>2023-04-10T08:31:14Z</time>
      </trkpt>
      <trkpt lat="48.1225" lon="-3.21713">
        <ele>210.6</ele>
        <time>2023-04-10T08:31:15Z</time>
      </trkpt>
      <trkpt lat="48.12253" lon="-3.21719">
        <ele>210.6</ele>
        <time>2023-04-10T08:31:16Z</time>
      </trkpt>
      <trkpt lat="48.12254" lon="-3.21725">
        <ele>210.6</ele>
        <time>2023-04-10T08:31:17Z</time>
      </trkpt>
      <trkpt lat="48.12254" lon="-3.21731">
        <ele>210.4</ele>
        <time>2023-04-10T08:31:18Z</time>
      </trkpt>
      <trkpt lat="48.12252" lon="-3.21737">
        <ele>210.4</ele>
        <time>2023-04-10T08:31:19Z</time>
      </trkpt>
      <trkpt lat="48.1225" lon="-3.21744">
        <ele>210.2</ele>
        <time>2023-04-10T08:31:20Z</time>
      </trkpt>
      <trkpt lat="48.12248" lon="-3.2175">
        <ele>210.2</ele>
        <time>2023-04-10T08:31:21Z</time>
      </trkpt>
      <trkpt lat="48.12246" lon="-3.21757">
        <ele>210.2</ele>
        <time>2023-04-10T08:31:22Z</time>
      </trkpt>
      <trkpt lat="48.12238" lon="-3.21783">
        <ele>210</ele>
        <time>2023-04-10T08:31:25Z</time>
      </trkpt>
      <trkpt lat="48.12236" lon="-3.21792">
        <ele>209.8</ele>
        <time>2023-04-10T08:31:26Z</time>
      </trkpt>
      <trkpt lat="48.12218" lon="-3.21848">
        <ele>208.8</ele>
        <time>2023-04-10T08:31:31Z</time>
      </trkpt>
      <trkpt lat="48.12204" lon="-3.2189">
        <ele>207.6</ele>
        <time>2023-04-10T08:31:34Z</time>
      </trkpt>
      <trkpt lat="48.12199" lon="-3.21904">
        <ele>207.6</ele>
        <time>2023-04-10T08:31:35Z</time>
      </trkpt>
      <trkpt lat="48.12195" lon="-3.21917">
        <ele>207</ele>
        <time>2023-04-10T08:31:36Z</time>
      </trkpt>
      <trkpt lat="48.12191" lon="-3.21929">
        <ele>205.8</ele>
        <time>2023-04-10T08:31:37Z</time>
      </trkpt>
      <trkpt lat="48.12188" lon="-3.2194">
        <ele>204.8</ele>
        <time>2023-04-10T08:31:38Z</time>
      </trkpt>
      <trkpt lat="48.12187" lon="-3.2195">
        <ele>204</ele>
        <time>2023-04-10T08:31:39Z</time>
      </trkpt>
      <trkpt lat="48.12187" lon="-3.2196">
        <ele>203</ele>
        <time>2023-04-10T08:31:40Z</time>
      </trkpt>
      <trkpt lat="48.1219" lon="-3.2197">
        <ele>202</ele>
        <time>2023-04-10T08:31:41Z</time>
      </trkpt>
      <trkpt lat="48.12191" lon="-3.21977">
        <ele>200.8</ele>
        <time>2023-04-10T08:31:42Z</time>
      </trkpt>
      <trkpt lat="48.12194" lon="-3.21983">
        <ele>199</ele>
        <time>2023-04-10T08:31:43Z</time>
      </trkpt>
      <trkpt lat="48.12196" lon="-3.21988">
        <ele>197.2</ele>
        <time>2023-04-10T08:31:44Z</time>
      </trkpt>
      <trkpt lat="48.12198" lon="-3.21993">
        <ele>195.6</ele>
        <time>2023-04-10T08:31:45Z</time>
      </trkpt>
      <trkpt lat="48.122" lon="-3.21998">
        <ele>194</ele>
        <time>2023-04-10T08:31:46Z</time>
      </trkpt>
      <trkpt lat="48.12203" lon="-3.22003">
        <ele>192.8</ele>
        <time>2023-04-10T08:31:47Z</time>
      </trkpt>
      <trkpt lat="48.12204" lon="-3.2201">
        <ele>191.4</ele>
        <time>2023-04-10T08:31:48Z</time>
      </trkpt>
      <trkpt lat="48.12204" lon="-3.22018">
        <ele>190.2</ele>
        <time>2023-04-10T08:31:49Z</time>
      </trkpt>
      <trkpt lat="48.12202" lon="-3.22027">
        <ele>189.6</ele>
        <time>2023-04-10T08:31:50Z</time>
      </trkpt>
      <trkpt lat="48.12199" lon="-3.22037">
        <ele>189.4</ele>
        <time>2023-04-10T08:31:51Z</time>
      </trkpt>
      <trkpt lat="48.12194" lon="-3.22047">
        <ele>189.2</ele>
        <time>2023-04-10T08:31:52Z</time>
      </trkpt>
      <trkpt lat="48.12188" lon="-3.22058">
        <ele>189</ele>
        <time>2023-04-10T08:31:53Z</time>
      </trkpt>
      <trkpt lat="48.12184" lon="-3.2207">
        <ele>188.8</ele>
        <time>2023-04-10T08:31:54Z</time>
      </trkpt>
      <trkpt lat="48.12175" lon="-3.22093">
        <ele>188.6</ele>
        <time>2023-04-10T08:31:56Z</time>
      </trkpt>
      <trkpt lat="48.12171" lon="-3.22104">
        <ele>188.6</ele>
        <time>2023-04-10T08:31:57Z</time>
      </trkpt>
      <trkpt lat="48.12166" lon="-3.22114">
        <ele>188.2</ele>
        <time>2023-04-10T08:31:58Z</time>
      </trkpt>
      <trkpt lat="48.12162" lon="-3.22123">
        <ele>187.6</ele>
        <time>2023-04-10T08:31:59Z</time>
      </trkpt>
      <trkpt lat="48.12158" lon="-3.2213">
        <ele>186.8</ele>
        <time>2023-04-10T08:32:00Z</time>
      </trkpt>
      <trkpt lat="48.12154" lon="-3.2214">
        <ele>185.8</ele>
        <time>2023-04-10T08:32:01Z</time>
      </trkpt>
      <trkpt lat="48.12151" lon="-3.22148">
        <ele>184.6</ele>
        <time>2023-04-10T08:32:02Z</time>
      </trkpt>
      <trkpt lat="48.12149" lon="-3.22156">
        <ele>183.6</ele>
        <time>2023-04-10T08:32:03Z</time>
      </trkpt>
      <trkpt lat="48.12146" lon="-3.22166">
        <ele>182.8</ele>
        <time>2023-04-10T08:32:04Z</time>
      </trkpt>
      <trkpt lat="48.1214" lon="-3.22184">
        <ele>181.8</ele>
        <time>2023-04-10T08:32:06Z</time>
      </trkpt>
      <trkpt lat="48.12136" lon="-3.22194">
        <ele>181.6</ele>
        <time>2023-04-10T08:32:07Z</time>
      </trkpt>
      <trkpt lat="48.12133" lon="-3.22204">
        <ele>181.2</ele>
        <time>2023-04-10T08:32:08Z</time>
      </trkpt>
      <trkpt lat="48.1213" lon="-3.22213">
        <ele>180.4</ele>
        <time>2023-04-10T08:32:09Z</time>
      </trkpt>
      <trkpt lat="48.12127" lon="-3.22221">
        <ele>179.4</ele>
        <time>2023-04-10T08:32:10Z</time>
      </trkpt>
      <trkpt lat="48.12123" lon="-3.22229">
        <ele>178.6</ele>
        <time>2023-04-10T08:32:11Z</time>
      </trkpt>
      <trkpt lat="48.12121" lon="-3.22238">
        <ele>177.4</ele>
        <time>2023-04-10T08:32:12Z</time>
      </trkpt>
      <trkpt lat="48.12117" lon="-3.22256">
        <ele>176</ele>
        <time>2023-04-10T08:32:14Z</time>
      </trkpt>
      <trkpt lat="48.12115" lon="-3.22265">
        <ele>175</ele>
        <time>2023-04-10T08:32:15Z</time>
      </trkpt>
      <trkpt lat="48.12113" lon="-3.22274">
        <ele>174.4</ele>
        <time>2023-04-10T08:32:16Z</time>
      </trkpt>
      <trkpt lat="48.12111" lon="-3.22282">
        <ele>173.8</ele>
        <time>2023-04-10T08:32:17Z</time>
      </trkpt>
      <trkpt lat="48.12108" lon="-3.2229">
        <ele>173.2</ele>
        <time>2023-04-10T08:32:18Z</time>
      </trkpt>
      <trkpt lat="48.12106" lon="-3.22297">
        <ele>173.2</ele>
        <time>2023-04-10T08:32:19Z</time>
      </trkpt>
      <trkpt lat="48.12105" lon="-3.22304">
        <ele>172.8</ele>
        <time>2023-04-10T08:32:20Z</time>
      </trkpt>
      <trkpt lat="48.12106" lon="-3.2231">
        <ele>172.2</ele>
        <time>2023-04-10T08:32:21Z</time>
      </trkpt>
      <trkpt lat="48.12108" lon="-3.22315">
        <ele>171.8</ele>
        <time>2023-04-10T08:32:22Z</time>
      </trkpt>
      <trkpt lat="48.1211" lon="-3.2232">
        <ele>171.4</ele>
        <time>2023-04-10T08:32:23Z</time>
      </trkpt>
      <trkpt lat="48.12112" lon="-3.22325">
        <ele>170.8</ele>
        <time>2023-04-10T08:32:24Z</time>
      </trkpt>
      <trkpt lat="48.12113" lon="-3.22331">
        <ele>170.4</ele>
        <time>2023-04-10T08:32:25Z</time>
      </trkpt>
      <trkpt lat="48.12114" lon="-3.22336">
        <ele>170</ele>
        <time>2023-04-10T08:32:26Z</time>
      </trkpt>
      <trkpt lat="48.12114" lon="-3.22341">
        <ele>169.6</ele>
        <time>2023-04-10T08:32:27Z</time>
      </trkpt>
      <trkpt lat="48.12115" lon="-3.22346">
        <ele>169</ele>
        <time>2023-04-10T08:32:28Z</time>
      </trkpt>
      <trkpt lat="48.12115" lon="-3.22351">
        <ele>168.8</ele>
        <time>2023-04-10T08:32:29Z</time>
      </trkpt>
      <trkpt lat="48.12117" lon="-3.22361">
        <ele>168.4</ele>
        <time>2023-04-10T08:32:31Z</time>
      </trkpt>
      <trkpt lat="48.12118" lon="-3.22365">
        <ele>168.4</ele>
        <time>2023-04-10T08:32:32Z</time>
      </trkpt>
      <trkpt lat="48.12119" lon="-3.2237">
        <ele>168.4</ele>
        <time>2023-04-10T08:32:33Z</time>
      </trkpt>
      <trkpt lat="48.1212" lon="-3.22375">
        <ele>168.2</ele>
        <time>2023-04-10T08:32:34Z</time>
      </trkpt>
      <trkpt lat="48.12121" lon="-3.22379">
        <ele>168.2</ele>
        <time>2023-04-10T08:32:35Z</time>
      </trkpt>
      <trkpt lat="48.12123" lon="-3.22388">
        <ele>168.2</ele>
        <time>2023-04-10T08:32:37Z</time>
      </trkpt>
      <trkpt lat="48.12124" lon="-3.22397">
        <ele>168.2</ele>
        <time>2023-04-10T08:32:39Z</time>
      </trkpt>
      <trkpt lat="48.12125" lon="-3.22401">
        <ele>168.4</ele>
        <time>2023-04-10T08:32:40Z</time>
      </trkpt>
      <trkpt lat="48.12124" lon="-3.22405">
        <ele>168.4</ele>
        <time>2023-04-10T08:32:41Z</time>
      </trkpt>
      <trkpt lat="48.12123" lon="-3.22409">
        <ele>168.4</ele>
        <time>2023-04-10T08:32:42Z</time>
      </trkpt>
      <trkpt lat="48.12122" lon="-3.22413">
        <ele>168.4</ele>
        <time>2023-04-10T08:32:43Z</time>
      </trkpt>
      <trkpt lat="48.12121" lon="-3.22417">
        <ele>168.4</ele>
        <time>2023-04-10T08:32:44Z</time>
      </trkpt>
      <trkpt lat="48.12114" lon="-3.22427">
        <ele>168.6</ele>
        <time>2023-04-10T08:32:47Z</time>
      </trkpt>
      <trkpt lat="48.12113" lon="-3.22435">
        <ele>168.6</ele>
        <time>2023-04-10T08:32:49Z</time>
      </trkpt>
      <trkpt lat="48.12115" lon="-3.22439">
        <ele>168.6</ele>
        <time>2023-04-10T08:32:50Z</time>
      </trkpt>
      <trkpt lat="48.12116" lon="-3.22443">
        <ele>168.6</ele>
        <time>2023-04-10T08:32:51Z</time>
      </trkpt>
      <trkpt lat="48.12119" lon="-3.22447">
        <ele>168.8</ele>
        <time>2023-04-10T08:32:52Z</time>
      </trkpt>
      <trkpt lat="48.12121" lon="-3.22451">
        <ele>168.8</ele>
        <time>2023-04-10T08:32:53Z</time>
      </trkpt>
      <trkpt lat="48.12122" lon="-3.22455">
        <ele>168.8</ele>
        <time>2023-04-10T08:32:54Z</time>
      </trkpt>
      <trkpt lat="48.12124" lon="-3.22463">
        <ele>168.8</ele>
        <time>2023-04-10T08:32:56Z</time>
      </trkpt>
      <trkpt lat="48.12125" lon="-3.22466">
        <ele>168.8</ele>
        <time>2023-04-10T08:32:57Z</time>
      </trkpt>
      <trkpt lat="48.12126" lon="-3.2247">
        <ele>168.8</ele>
        <time>2023-04-10T08:32:58Z</time>
      </trkpt>
      <trkpt lat="48.12127" lon="-3.22474">
        <ele>168.8</ele>
        <time>2023-04-10T08:32:59Z</time>
      </trkpt>
      <trkpt lat="48.12127" lon="-3.22479">
        <ele>169</ele>
        <time>2023-04-10T08:33:00Z</time>
      </trkpt>
      <trkpt lat="48.12129" lon="-3.22487">
        <ele>169</ele>
        <time>2023-04-10T08:33:02Z</time>
      </trkpt>
      <trkpt lat="48.12135" lon="-3.22516">
        <ele>169</ele>
        <time>2023-04-10T08:33:08Z</time>
      </trkpt>
      <trkpt lat="48.12138" lon="-3.22526">
        <ele>169</ele>
        <time>2023-04-10T08:33:10Z</time>
      </trkpt>
      <trkpt lat="48.12139" lon="-3.22531">
        <ele>169</ele>
        <time>2023-04-10T08:33:11Z</time>
      </trkpt>
      <trkpt lat="48.12141" lon="-3.22535">
        <ele>169</ele>
        <time>2023-04-10T08:33:12Z</time>
      </trkpt>
      <trkpt lat="48.12142" lon="-3.22538">
        <ele>169</ele>
        <time>2023-04-10T08:33:13Z</time>
      </trkpt>
      <trkpt lat="48.12144" lon="-3.22541">
        <ele>169</ele>
        <time>2023-04-10T08:33:14Z</time>
      </trkpt>
      <trkpt lat="48.12144" lon="-3.22544">
        <ele>169</ele>
        <time>2023-04-10T08:33:15Z</time>
      </trkpt>
      <trkpt lat="48.12145" lon="-3.22547">
        <ele>169</ele>
        <time>2023-04-10T08:33:16Z</time>
      </trkpt>
      <trkpt lat="48.12147" lon="-3.22552">
        <ele>169</ele>
        <time>2023-04-10T08:33:17Z</time>
      </trkpt>
      <trkpt lat="48.12152" lon="-3.22565">
        <ele>169</ele>
        <time>2023-04-10T08:33:21Z</time>
      </trkpt>
      <trkpt lat="48.12154" lon="-3.22569">
        <ele>169</ele>
        <time>2023-04-10T08:33:22Z</time>
      </trkpt>
      <trkpt lat="48.12157" lon="-3.22581">
        <ele>169</ele>
        <time>2023-04-10T08:33:25Z</time>
      </trkpt>
      <trkpt lat="48.12158" lon="-3.22585">
        <ele>169</ele>
        <time>2023-04-10T08:33:26Z</time>
      </trkpt>
      <trkpt lat="48.12159" lon="-3.22589">
        <ele>169</ele>
        <time>2023-04-10T08:33:27Z</time>
      </trkpt>
      <trkpt lat="48.12161" lon="-3.22593">
        <ele>169</ele>
        <time>2023-04-10T08:33:28Z</time>
      </trkpt>
      <trkpt lat="48.12168" lon="-3.22608">
        <ele>169.2</ele>
        <time>2023-04-10T08:33:32Z</time>
      </trkpt>
      <trkpt lat="48.12171" lon="-3.22615">
        <ele>169.2</ele>
        <time>2023-04-10T08:33:34Z</time>
      </trkpt>
      <trkpt lat="48.12172" lon="-3.22618">
        <ele>169.2</ele>
        <time>2023-04-10T08:33:35Z</time>
      </trkpt>
      <trkpt lat="48.12173" lon="-3.22622">
        <ele>169.4</ele>
        <time>2023-04-10T08:33:36Z</time>
      </trkpt>
      <trkpt lat="48.12174" lon="-3.22626">
        <ele>169.4</ele>
        <time>2023-04-10T08:33:37Z</time>
      </trkpt>
      <trkpt lat="48.12176" lon="-3.22629">
        <ele>169.6</ele>
        <time>2023-04-10T08:33:38Z</time>
      </trkpt>
      <trkpt lat="48.12177" lon="-3.22632">
        <ele>169.6</ele>
        <time>2023-04-10T08:33:39Z</time>
      </trkpt>
      <trkpt lat="48.12179" lon="-3.22635">
        <ele>169.6</ele>
        <time>2023-04-10T08:33:40Z</time>
      </trkpt>
      <trkpt lat="48.12181" lon="-3.22638">
        <ele>169.6</ele>
        <time>2023-04-10T08:33:41Z</time>
      </trkpt>
      <trkpt lat="48.12183" lon="-3.2264">
        <ele>169.6</ele>
        <time>2023-04-10T08:33:42Z</time>
      </trkpt>
      <trkpt lat="48.12185" lon="-3.22643">
        <ele>169.6</ele>
        <time>2023-04-10T08:33:43Z</time>
      </trkpt>
      <trkpt lat="48.12187" lon="-3.22646">
        <ele>169.6</ele>
        <time>2023-04-10T08:33:44Z</time>
      </trkpt>
      <trkpt lat="48.12188" lon="-3.22649">
        <ele>169.6</ele>
        <time>2023-04-10T08:33:45Z</time>
      </trkpt>
      <trkpt lat="48.12189" lon="-3.22653">
        <ele>169.6</ele>
        <time>2023-04-10T08:33:46Z</time>
      </trkpt>
      <trkpt lat="48.12189" lon="-3.22657">
        <ele>169.6</ele>
        <time>2023-04-10T08:33:47Z</time>
      </trkpt>
      <trkpt lat="48.1219" lon="-3.22662">
        <ele>169.6</ele>
        <time>2023-04-10T08:33:48Z</time>
      </trkpt>
      <trkpt lat="48.1219" lon="-3.22666">
        <ele>169.6</ele>
        <time>2023-04-10T08:33:49Z</time>
      </trkpt>
      <trkpt lat="48.12189" lon="-3.22679">
        <ele>169.6</ele>
        <time>2023-04-10T08:33:52Z</time>
      </trkpt>
      <trkpt lat="48.12188" lon="-3.22683">
        <ele>169.6</ele>
        <time>2023-04-10T08:33:53Z</time>
      </trkpt>
      <trkpt lat="48.12186" lon="-3.22686">
        <ele>169.6</ele>
        <time>2023-04-10T08:33:54Z</time>
      </trkpt>
      <trkpt lat="48.12184" lon="-3.22688">
        <ele>169.6</ele>
        <time>2023-04-10T08:33:55Z</time>
      </trkpt>
      <trkpt lat="48.12182" lon="-3.22689">
        <ele>169.6</ele>
        <time>2023-04-10T08:33:56Z</time>
      </trkpt>
      <trkpt lat="48.1218" lon="-3.2269">
        <ele>169.6</ele>
        <time>2023-04-10T08:33:57Z</time>
      </trkpt>
      <trkpt lat="48.12177" lon="-3.22692">
        <ele>169.6</ele>
        <time>2023-04-10T08:33:58Z</time>
      </trkpt>
      <trkpt lat="48.12175" lon="-3.22694">
        <ele>169.8</ele>
        <time>2023-04-10T08:33:59Z</time>
      </trkpt>
      <trkpt lat="48.12173" lon="-3.22697">
        <ele>169.8</ele>
        <time>2023-04-10T08:34:00Z</time>
      </trkpt>
      <trkpt lat="48.12171" lon="-3.227">
        <ele>170</ele>
        <time>2023-04-10T08:34:01Z</time>
      </trkpt>
      <trkpt lat="48.1217" lon="-3.22704">
        <ele>170</ele>
        <time>2023-04-10T08:34:02Z</time>
      </trkpt>
      <trkpt lat="48.12169" lon="-3.22708">
        <ele>170.2</ele>
        <time>2023-04-10T08:34:03Z</time>
      </trkpt>
      <trkpt lat="48.12169" lon="-3.22712">
        <ele>170.2</ele>
        <time>2023-04-10T08:34:04Z</time>
      </trkpt>
      <trkpt lat="48.12169" lon="-3.22716">
        <ele>170.2</ele>
        <time>2023-04-10T08:34:05Z</time>
      </trkpt>
      <trkpt lat="48.12168" lon="-3.2272">
        <ele>170.2</ele>
        <time>2023-04-10T08:34:06Z</time>
      </trkpt>
      <trkpt lat="48.12167" lon="-3.22723">
        <ele>170.4</ele>
        <time>2023-04-10T08:34:07Z</time>
      </trkpt>
      <trkpt lat="48.12166" lon="-3.22727">
        <ele>170.6</ele>
        <time>2023-04-10T08:34:08Z</time>
      </trkpt>
      <trkpt lat="48.12166" lon="-3.2273">
        <ele>170.6</ele>
        <time>2023-04-10T08:34:09Z</time>
      </trkpt>
      <trkpt lat="48.12166" lon="-3.22733">
        <ele>170.8</ele>
        <time>2023-04-10T08:34:10Z</time>
      </trkpt>
      <trkpt lat="48.12166" lon="-3.22737">
        <ele>171.2</ele>
        <time>2023-04-10T08:34:11Z</time>
      </trkpt>
      <trkpt lat="48.12166" lon="-3.2274">
        <ele>171.2</ele>
        <time>2023-04-10T08:34:12Z</time>
      </trkpt>
      <trkpt lat="48.12166" lon="-3.22743">
        <ele>171.4</ele>
        <time>2023-04-10T08:34:13Z</time>
      </trkpt>
      <trkpt lat="48.12166" lon="-3.22746">
        <ele>171.4</ele>
        <time>2023-04-10T08:34:14Z</time>
      </trkpt>
      <trkpt lat="48.12166" lon="-3.22749">
        <ele>171.6</ele>
        <time>2023-04-10T08:34:15Z</time>
      </trkpt>
      <trkpt lat="48.12166" lon="-3.22752">
        <ele>171.6</ele>
        <time>2023-04-10T08:34:16Z</time>
      </trkpt>
      <trkpt lat="48.12167" lon="-3.22756">
        <ele>171.8</ele>
        <time>2023-04-10T08:34:17Z</time>
      </trkpt>
      <trkpt lat="48.12167" lon="-3.22758">
        <ele>172</ele>
        <time>2023-04-10T08:34:18Z</time>
      </trkpt>
      <trkpt lat="48.12168" lon="-3.22765">
        <ele>172.2</ele>
        <time>2023-04-10T08:34:20Z</time>
      </trkpt>
      <trkpt lat="48.12171" lon="-3.22776">
        <ele>172.8</ele>
        <time>2023-04-10T08:34:23Z</time>
      </trkpt>
      <trkpt lat="48.12171" lon="-3.2278">
        <ele>172.8</ele>
        <time>2023-04-10T08:34:24Z</time>
      </trkpt>
      <trkpt lat="48.12173" lon="-3.22783">
        <ele>173</ele>
        <time>2023-04-10T08:34:25Z</time>
      </trkpt>
      <trkpt lat="48.12175" lon="-3.22786">
        <ele>173.2</ele>
        <time>2023-04-10T08:34:26Z</time>
      </trkpt>
      <trkpt lat="48.12177" lon="-3.22788">
        <ele>173.4</ele>
        <time>2023-04-10T08:34:27Z</time>
      </trkpt>
      <trkpt lat="48.1218" lon="-3.22791">
        <ele>173.4</ele>
        <time>2023-04-10T08:34:28Z</time>
      </trkpt>
      <trkpt lat="48.12183" lon="-3.22793">
        <ele>173.6</ele>
        <time>2023-04-10T08:34:29Z</time>
      </trkpt>
      <trkpt lat="48.12186" lon="-3.22795">
        <ele>173.6</ele>
        <time>2023-04-10T08:34:30Z</time>
      </trkpt>
      <trkpt lat="48.1219" lon="-3.22797">
        <ele>173.6</ele>
        <time>2023-04-10T08:34:31Z</time>
      </trkpt>
      <trkpt lat="48.12193" lon="-3.22799">
        <ele>173.6</ele>
        <time>2023-04-10T08:34:32Z</time>
      </trkpt>
      <trkpt lat="48.12197" lon="-3.22802">
        <ele>173.6</ele>
        <time>2023-04-10T08:34:33Z</time>
      </trkpt>
      <trkpt lat="48.12201" lon="-3.22805">
        <ele>173.6</ele>
        <time>2023-04-10T08:34:34Z</time>
      </trkpt>
      <trkpt lat="48.12206" lon="-3.22807">
        <ele>173.6</ele>
        <time>2023-04-10T08:34:35Z</time>
      </trkpt>
      <trkpt lat="48.12211" lon="-3.22809">
        <ele>173.6</ele>
        <time>2023-04-10T08:34:36Z</time>
      </trkpt>
      <trkpt lat="48.12216" lon="-3.22811">
        <ele>173.6</ele>
        <time>2023-04-10T08:34:37Z</time>
      </trkpt>
      <trkpt lat="48.12221" lon="-3.22811">
        <ele>173.6</ele>
        <time>2023-04-10T08:34:38Z</time>
      </trkpt>
      <trkpt lat="48.12226" lon="-3.22811">
        <ele>173.6</ele>
        <time>2023-04-10T08:34:39Z</time>
      </trkpt>
      <trkpt lat="48.12236" lon="-3.22811">
        <ele>173.6</ele>
        <time>2023-04-10T08:34:41Z</time>
      </trkpt>
      <trkpt lat="48.12263" lon="-3.2281">
        <ele>173.6</ele>
        <time>2023-04-10T08:34:46Z</time>
      </trkpt>
      <trkpt lat="48.12268" lon="-3.22812">
        <ele>173.8</ele>
        <time>2023-04-10T08:34:47Z</time>
      </trkpt>
      <trkpt lat="48.12273" lon="-3.22814">
        <ele>173.8</ele>
        <time>2023-04-10T08:34:48Z</time>
      </trkpt>
      <trkpt lat="48.12278" lon="-3.22817">
        <ele>173.8</ele>
        <time>2023-04-10T08:34:49Z</time>
      </trkpt>
      <trkpt lat="48.12283" lon="-3.22819">
        <ele>173.8</ele>
        <time>2023-04-10T08:34:50Z</time>
      </trkpt>
      <trkpt lat="48.12287" lon="-3.22822">
        <ele>173.8</ele>
        <time>2023-04-10T08:34:51Z</time>
      </trkpt>
      <trkpt lat="48.12292" lon="-3.22824">
        <ele>173.8</ele>
        <time>2023-04-10T08:34:52Z</time>
      </trkpt>
      <trkpt lat="48.12296" lon="-3.22826">
        <ele>173.8</ele>
        <time>2023-04-10T08:34:53Z</time>
      </trkpt>
      <trkpt lat="48.123" lon="-3.22829">
        <ele>173.8</ele>
        <time>2023-04-10T08:34:54Z</time>
      </trkpt>
      <trkpt lat="48.12323" lon="-3.22842">
        <ele>174</ele>
        <time>2023-04-10T08:34:59Z</time>
      </trkpt>
      <trkpt lat="48.12332" lon="-3.22849">
        <ele>174</ele>
        <time>2023-04-10T08:35:01Z</time>
      </trkpt>
      <trkpt lat="48.12336" lon="-3.22853">
        <ele>174</ele>
        <time>2023-04-10T08:35:02Z</time>
      </trkpt>
      <trkpt lat="48.12338" lon="-3.22858">
        <ele>174</ele>
        <time>2023-04-10T08:35:03Z</time>
      </trkpt>
      <trkpt lat="48.1234" lon="-3.22863">
        <ele>174</ele>
        <time>2023-04-10T08:35:04Z</time>
      </trkpt>
      <trkpt lat="48.12341" lon="-3.22868">
        <ele>174</ele>
        <time>2023-04-10T08:35:05Z</time>
      </trkpt>
      <trkpt lat="48.12341" lon="-3.22872">
        <ele>174</ele>
        <time>2023-04-10T08:35:06Z</time>
      </trkpt>
      <trkpt lat="48.12342" lon="-3.22875">
        <ele>174</ele>
        <time>2023-04-10T08:35:07Z</time>
      </trkpt>
      <trkpt lat="48.12342" lon="-3.2288">
        <ele>174</ele>
        <time>2023-04-10T08:35:08Z</time>
      </trkpt>
      <trkpt lat="48.12343" lon="-3.22884">
        <ele>174</ele>
        <time>2023-04-10T08:35:09Z</time>
      </trkpt>
      <trkpt lat="48.12345" lon="-3.22887">
        <ele>174</ele>
        <time>2023-04-10T08:35:10Z</time>
      </trkpt>
      <trkpt lat="48.12348" lon="-3.22891">
        <ele>174</ele>
        <time>2023-04-10T08:35:11Z</time>
      </trkpt>
      <trkpt lat="48.12351" lon="-3.22894">
        <ele>174</ele>
        <time>2023-04-10T08:35:12Z</time>
      </trkpt>
      <trkpt lat="48.12354" lon="-3.22895">
        <ele>174</ele>
        <time>2023-04-10T08:35:13Z</time>
      </trkpt>
      <trkpt lat="48.12357" lon="-3.22896">
        <ele>174</ele>
        <time>2023-04-10T08:35:14Z</time>
      </trkpt>
      <trkpt lat="48.1236" lon="-3.22897">
        <ele>174</ele>
        <time>2023-04-10T08:35:15Z</time>
      </trkpt>
      <trkpt lat="48.12363" lon="-3.22899">
        <ele>174</ele>
        <time>2023-04-10T08:35:16Z</time>
      </trkpt>
      <trkpt lat="48.12375" lon="-3.22903">
        <ele>174</ele>
        <time>2023-04-10T08:35:19Z</time>
      </trkpt>
      <trkpt lat="48.12387" lon="-3.22904">
        <ele>174</ele>
        <time>2023-04-10T08:35:21Z</time>
      </trkpt>
      <trkpt lat="48.12415" lon="-3.22904">
        <ele>174</ele>
        <time>2023-04-10T08:35:26Z</time>
      </trkpt>
      <trkpt lat="48.1242" lon="-3.22903">
        <ele>174</ele>
        <time>2023-04-10T08:35:27Z</time>
      </trkpt>
      <trkpt lat="48.12468" lon="-3.22899">
        <ele>174</ele>
        <time>2023-04-10T08:35:35Z</time>
      </trkpt>
      <trkpt lat="48.12498" lon="-3.22904">
        <ele>174</ele>
        <time>2023-04-10T08:35:40Z</time>
      </trkpt>
      <trkpt lat="48.1251" lon="-3.22907">
        <ele>174</ele>
        <time>2023-04-10T08:35:42Z</time>
      </trkpt>
      <trkpt lat="48.12516" lon="-3.22908">
        <ele>174</ele>
        <time>2023-04-10T08:35:43Z</time>
      </trkpt>
      <trkpt lat="48.12529" lon="-3.22912">
        <ele>174</ele>
        <time>2023-04-10T08:35:45Z</time>
      </trkpt>
      <trkpt lat="48.12534" lon="-3.22913">
        <ele>174</ele>
        <time>2023-04-10T08:35:46Z</time>
      </trkpt>
      <trkpt lat="48.12563" lon="-3.22922">
        <ele>174</ele>
        <time>2023-04-10T08:35:51Z</time>
      </trkpt>
      <trkpt lat="48.12593" lon="-3.22938">
        <ele>174</ele>
        <time>2023-04-10T08:35:56Z</time>
      </trkpt>
      <trkpt lat="48.12598" lon="-3.22943">
        <ele>174</ele>
        <time>2023-04-10T08:35:57Z</time>
      </trkpt>
      <trkpt lat="48.12607" lon="-3.22956">
        <ele>174</ele>
        <time>2023-04-10T08:35:59Z</time>
      </trkpt>
      <trkpt lat="48.12619" lon="-3.22977">
        <ele>174</ele>
        <time>2023-04-10T08:36:02Z</time>
      </trkpt>
      <trkpt lat="48.12629" lon="-3.23002">
        <ele>174</ele>
        <time>2023-04-10T08:36:05Z</time>
      </trkpt>
      <trkpt lat="48.12635" lon="-3.23019">
        <ele>174</ele>
        <time>2023-04-10T08:36:07Z</time>
      </trkpt>
      <trkpt lat="48.1264" lon="-3.23036">
        <ele>174</ele>
        <time>2023-04-10T08:36:09Z</time>
      </trkpt>
      <trkpt lat="48.12644" lon="-3.23053">
        <ele>174.2</ele>
        <time>2023-04-10T08:36:11Z</time>
      </trkpt>
      <trkpt lat="48.12648" lon="-3.23071">
        <ele>174.2</ele>
        <time>2023-04-10T08:36:13Z</time>
      </trkpt>
      <trkpt lat="48.12649" lon="-3.2308">
        <ele>174.2</ele>
        <time>2023-04-10T08:36:14Z</time>
      </trkpt>
      <trkpt lat="48.12653" lon="-3.23097">
        <ele>174.2</ele>
        <time>2023-04-10T08:36:16Z</time>
      </trkpt>
      <trkpt lat="48.1266" lon="-3.2311">
        <ele>174.4</ele>
        <time>2023-04-10T08:36:18Z</time>
      </trkpt>
      <trkpt lat="48.12665" lon="-3.23116">
        <ele>174.4</ele>
        <time>2023-04-10T08:36:19Z</time>
      </trkpt>
      <trkpt lat="48.1267" lon="-3.2312">
        <ele>174.4</ele>
        <time>2023-04-10T08:36:20Z</time>
      </trkpt>
      <trkpt lat="48.12676" lon="-3.23124">
        <ele>174.4</ele>
        <time>2023-04-10T08:36:21Z</time>
      </trkpt>
      <trkpt lat="48.12681" lon="-3.23127">
        <ele>174.4</ele>
        <time>2023-04-10T08:36:22Z</time>
      </trkpt>
      <trkpt lat="48.12686" lon="-3.23131">
        <ele>174.4</ele>
        <time>2023-04-10T08:36:23Z</time>
      </trkpt>
      <trkpt lat="48.1269" lon="-3.23135">
        <ele>174.4</ele>
        <time>2023-04-10T08:36:24Z</time>
      </trkpt>
      <trkpt lat="48.12695" lon="-3.23139">
        <ele>174.4</ele>
        <time>2023-04-10T08:36:25Z</time>
      </trkpt>
      <trkpt lat="48.127" lon="-3.23142">
        <ele>174.4</ele>
        <time>2023-04-10T08:36:26Z</time>
      </trkpt>
      <trkpt lat="48.12704" lon="-3.23146">
        <ele>174.2</ele>
        <time>2023-04-10T08:36:27Z</time>
      </trkpt>
      <trkpt lat="48.12708" lon="-3.23149">
        <ele>174.2</ele>
        <time>2023-04-10T08:36:28Z</time>
      </trkpt>
      <trkpt lat="48.12711" lon="-3.23153">
        <ele>174.2</ele>
        <time>2023-04-10T08:36:29Z</time>
      </trkpt>
      <trkpt lat="48.12714" lon="-3.23157">
        <ele>174.2</ele>
        <time>2023-04-10T08:36:30Z</time>
      </trkpt>
      <trkpt lat="48.12717" lon="-3.23161">
        <ele>174</ele>
        <time>2023-04-10T08:36:31Z</time>
      </trkpt>
      <trkpt lat="48.12719" lon="-3.23164">
        <ele>174</ele>
        <time>2023-04-10T08:36:32Z</time>
      </trkpt>
      <trkpt lat="48.12718" lon="-3.23167">
        <ele>174</ele>
        <time>2023-04-10T08:36:33Z</time>
      </trkpt>
      <trkpt lat="48.12717" lon="-3.23169">
        <ele>174</ele>
        <time>2023-04-10T08:36:34Z</time>
      </trkpt>
      <trkpt lat="48.12715" lon="-3.23171">
        <ele>174</ele>
        <time>2023-04-10T08:36:35Z</time>
      </trkpt>
      <trkpt lat="48.12713" lon="-3.23173">
        <ele>174</ele>
        <time>2023-04-10T08:36:36Z</time>
      </trkpt>
      <trkpt lat="48.1271" lon="-3.23174">
        <ele>173.8</ele>
        <time>2023-04-10T08:36:37Z</time>
      </trkpt>
      <trkpt lat="48.1269" lon="-3.23181">
        <ele>173.6</ele>
        <time>2023-04-10T08:36:43Z</time>
      </trkpt>
      <trkpt lat="48.12687" lon="-3.23181">
        <ele>173.6</ele>
        <time>2023-04-10T08:36:44Z</time>
      </trkpt>
      <trkpt lat="48.12684" lon="-3.23181">
        <ele>173.6</ele>
        <time>2023-04-10T08:36:45Z</time>
      </trkpt>
      <trkpt lat="48.12681" lon="-3.2318">
        <ele>173.6</ele>
        <time>2023-04-10T08:36:46Z</time>
      </trkpt>
      <trkpt lat="48.12672" lon="-3.23177">
        <ele>173.4</ele>
        <time>2023-04-10T08:36:49Z</time>
      </trkpt>
      <trkpt lat="48.12669" lon="-3.23176">
        <ele>173.4</ele>
        <time>2023-04-10T08:36:50Z</time>
      </trkpt>
      <trkpt lat="48.12667" lon="-3.23175">
        <ele>173.4</ele>
        <time>2023-04-10T08:36:51Z</time>
      </trkpt>
      <trkpt lat="48.12664" lon="-3.23176">
        <ele>173.4</ele>
        <time>2023-04-10T08:36:52Z</time>
      </trkpt>
      <trkpt lat="48.12661" lon="-3.23177">
        <ele>173.2</ele>
        <time>2023-04-10T08:36:53Z</time>
      </trkpt>
      <trkpt lat="48.1266" lon="-3.2318">
        <ele>173.2</ele>
        <time>2023-04-10T08:36:54Z</time>
      </trkpt>
      <trkpt lat="48.12658" lon="-3.23182">
        <ele>173.2</ele>
        <time>2023-04-10T08:36:55Z</time>
      </trkpt>
      <trkpt lat="48.12657" lon="-3.23186">
        <ele>173.2</ele>
        <time>2023-04-10T08:36:56Z</time>
      </trkpt>
      <trkpt lat="48.12657" lon="-3.23189">
        <ele>173.2</ele>
        <time>2023-04-10T08:36:57Z</time>
      </trkpt>
      <trkpt lat="48.12658" lon="-3.23193">
        <ele>173</ele>
        <time>2023-04-10T08:36:58Z</time>
      </trkpt>
      <trkpt lat="48.12658" lon="-3.23197">
        <ele>173</ele>
        <time>2023-04-10T08:36:59Z</time>
      </trkpt>
      <trkpt lat="48.12659" lon="-3.23201">
        <ele>173</ele>
        <time>2023-04-10T08:37:00Z</time>
      </trkpt>
      <trkpt lat="48.12658" lon="-3.23204">
        <ele>173</ele>
        <time>2023-04-10T08:37:01Z</time>
      </trkpt>
      <trkpt lat="48.12657" lon="-3.23207">
        <ele>173</ele>
        <time>2023-04-10T08:37:02Z</time>
      </trkpt>
      <trkpt lat="48.12655" lon="-3.2321">
        <ele>173</ele>
        <time>2023-04-10T08:37:03Z</time>
      </trkpt>
      <trkpt lat="48.12651" lon="-3.23216">
        <ele>173</ele>
        <time>2023-04-10T08:37:05Z</time>
      </trkpt>
      <trkpt lat="48.12649" lon="-3.23218">
        <ele>173</ele>
        <time>2023-04-10T08:37:06Z</time>
      </trkpt>
      <trkpt lat="48.12648" lon="-3.23221">
        <ele>173</ele>
        <time>2023-04-10T08:37:07Z</time>
      </trkpt>
      <trkpt lat="48.12647" lon="-3.23224">
        <ele>173</ele>
        <time>2023-04-10T08:37:08Z</time>
      </trkpt>
      <trkpt lat="48.12647" lon="-3.23227">
        <ele>173.2</ele>
        <time>2023-04-10T08:37:09Z</time>
      </trkpt>
      <trkpt lat="48.12649" lon="-3.23229">
        <ele>173.2</ele>
        <time>2023-04-10T08:37:10Z</time>
      </trkpt>
      <trkpt lat="48.12651" lon="-3.23231">
        <ele>173.2</ele>
        <time>2023-04-10T08:37:11Z</time>
      </trkpt>
      <trkpt lat="48.1266" lon="-3.23237">
        <ele>173.2</ele>
        <time>2023-04-10T08:37:14Z</time>
      </trkpt>
      <trkpt lat="48.12674" lon="-3.23248">
        <ele>173.2</ele>
        <time>2023-04-10T08:37:19Z</time>
      </trkpt>
      <trkpt lat="48.12676" lon="-3.2325">
        <ele>173.2</ele>
        <time>2023-04-10T08:37:20Z</time>
      </trkpt>
      <trkpt lat="48.12678" lon="-3.23252">
        <ele>173.2</ele>
        <time>2023-04-10T08:37:21Z</time>
      </trkpt>
      <trkpt lat="48.1268" lon="-3.23255">
        <ele>173</ele>
        <time>2023-04-10T08:37:22Z</time>
      </trkpt>
      <trkpt lat="48.12681" lon="-3.23257">
        <ele>173</ele>
        <time>2023-04-10T08:37:23Z</time>
      </trkpt>
      <trkpt lat="48.12681" lon="-3.2326">
        <ele>173</ele>
        <time>2023-04-10T08:37:24Z</time>
      </trkpt>
      <trkpt lat="48.1268" lon="-3.23264">
        <ele>173</ele>
        <time>2023-04-10T08:37:25Z</time>
      </trkpt>
      <trkpt lat="48.12679" lon="-3.23267">
        <ele>173</ele>
        <time>2023-04-10T08:37:26Z</time>
      </trkpt>
      <trkpt lat="48.12676" lon="-3.23275">
        <ele>173</ele>
        <time>2023-04-10T08:37:28Z</time>
      </trkpt>
      <trkpt lat="48.12674" lon="-3.23279">
        <ele>173</ele>
        <time>2023-04-10T08:37:29Z</time>
      </trkpt>
      <trkpt lat="48.12673" lon="-3.23283">
        <ele>173</ele>
        <time>2023-04-10T08:37:30Z</time>
      </trkpt>
      <trkpt lat="48.12671" lon="-3.23286">
        <ele>173</ele>
        <time>2023-04-10T08:37:31Z</time>
      </trkpt>
      <trkpt lat="48.12666" lon="-3.23291">
        <ele>173</ele>
        <time>2023-04-10T08:37:33Z</time>
      </trkpt>
      <trkpt lat="48.12662" lon="-3.23294">
        <ele>173</ele>
        <time>2023-04-10T08:37:34Z</time>
      </trkpt>
      <trkpt lat="48.12659" lon="-3.23297">
        <ele>173.2</ele>
        <time>2023-04-10T08:37:35Z</time>
      </trkpt>
      <trkpt lat="48.12653" lon="-3.2331">
        <ele>173.2</ele>
        <time>2023-04-10T08:37:38Z</time>
      </trkpt>
      <trkpt lat="48.12652" lon="-3.23313">
        <ele>173.2</ele>
        <time>2023-04-10T08:37:39Z</time>
      </trkpt>
      <trkpt lat="48.1265" lon="-3.23318">
        <ele>173.2</ele>
        <time>2023-04-10T08:37:40Z</time>
      </trkpt>
      <trkpt lat="48.12647" lon="-3.23319">
        <ele>173.2</ele>
        <time>2023-04-10T08:37:41Z</time>
      </trkpt>
      <trkpt lat="48.12645" lon="-3.23318">
        <ele>173.2</ele>
        <time>2023-04-10T08:37:42Z</time>
      </trkpt>
      <trkpt lat="48.12626" lon="-3.23306">
        <ele>173.4</ele>
        <time>2023-04-10T08:37:47Z</time>
      </trkpt>
      <trkpt lat="48.12621" lon="-3.23302">
        <ele>173.4</ele>
        <time>2023-04-10T08:37:48Z</time>
      </trkpt>
      <trkpt lat="48.12601" lon="-3.23289">
        <ele>173.6</ele>
        <time>2023-04-10T08:37:52Z</time>
      </trkpt>
      <trkpt lat="48.12585" lon="-3.23278">
        <ele>173.8</ele>
        <time>2023-04-10T08:37:55Z</time>
      </trkpt>
      <trkpt lat="48.12568" lon="-3.23268">
        <ele>173.8</ele>
        <time>2023-04-10T08:37:58Z</time>
      </trkpt>
      <trkpt lat="48.12529" lon="-3.23243">
        <ele>174</ele>
        <time>2023-04-10T08:38:05Z</time>
      </trkpt>
      <trkpt lat="48.12498" lon="-3.23237">
        <ele>174</ele>
        <time>2023-04-10T08:38:10Z</time>
      </trkpt>
      <trkpt lat="48.12468" lon="-3.23229">
        <ele>174</ele>
        <time>2023-04-10T08:38:15Z</time>
      </trkpt>
      <trkpt lat="48.12462" lon="-3.23226">
        <ele>174</ele>
        <time>2023-04-10T08:38:16Z</time>
      </trkpt>
      <trkpt lat="48.12428" lon="-3.23204">
        <ele>174.2</ele>
        <time>2023-04-10T08:38:22Z</time>
      </trkpt>
      <trkpt lat="48.12423" lon="-3.23199">
        <ele>174.2</ele>
        <time>2023-04-10T08:38:23Z</time>
      </trkpt>
      <trkpt lat="48.12418" lon="-3.23195">
        <ele>174.2</ele>
        <time>2023-04-10T08:38:24Z</time>
      </trkpt>
      <trkpt lat="48.12412" lon="-3.2319">
        <ele>174.2</ele>
        <time>2023-04-10T08:38:25Z</time>
      </trkpt>
      <trkpt lat="48.12402" lon="-3.23182">
        <ele>174.2</ele>
        <time>2023-04-10T08:38:27Z</time>
      </trkpt>
      <trkpt lat="48.12396" lon="-3.23177">
        <ele>174.2</ele>
        <time>2023-04-10T08:38:28Z</time>
      </trkpt>
      <trkpt lat="48.12391" lon="-3.23173">
        <ele>174.2</ele>
        <time>2023-04-10T08:38:29Z</time>
      </trkpt>
      <trkpt lat="48.12363" lon="-3.23154">
        <ele>174.2</ele>
        <time>2023-04-10T08:38:34Z</time>
      </trkpt>
      <trkpt lat="48.12354" lon="-3.23144">
        <ele>174.2</ele>
        <time>2023-04-10T08:38:36Z</time>
      </trkpt>
      <trkpt lat="48.12349" lon="-3.23139">
        <ele>174.2</ele>
        <time>2023-04-10T08:38:37Z</time>
      </trkpt>
      <trkpt lat="48.12344" lon="-3.23135">
        <ele>174.2</ele>
        <time>2023-04-10T08:38:38Z</time>
      </trkpt>
      <trkpt lat="48.12339" lon="-3.23132">
        <ele>174.2</ele>
        <time>2023-04-10T08:38:39Z</time>
      </trkpt>
      <trkpt lat="48.12335" lon="-3.23129">
        <ele>174.2</ele>
        <time>2023-04-10T08:38:40Z</time>
      </trkpt>
      <trkpt lat="48.1233" lon="-3.23127">
        <ele>174.2</ele>
        <time>2023-04-10T08:38:41Z</time>
      </trkpt>
      <trkpt lat="48.12325" lon="-3.23125">
        <ele>174.2</ele>
        <time>2023-04-10T08:38:42Z</time>
      </trkpt>
      <trkpt lat="48.1232" lon="-3.23124">
        <ele>174.2</ele>
        <time>2023-04-10T08:38:43Z</time>
      </trkpt>
      <trkpt lat="48.12315" lon="-3.23122">
        <ele>174.2</ele>
        <time>2023-04-10T08:38:44Z</time>
      </trkpt>
      <trkpt lat="48.1231" lon="-3.23122">
        <ele>174.2</ele>
        <time>2023-04-10T08:38:45Z</time>
      </trkpt>
      <trkpt lat="48.12292" lon="-3.23118">
        <ele>174.4</ele>
        <time>2023-04-10T08:38:49Z</time>
      </trkpt>
      <trkpt lat="48.12288" lon="-3.23117">
        <ele>174.4</ele>
        <time>2023-04-10T08:38:50Z</time>
      </trkpt>
      <trkpt lat="48.12283" lon="-3.23116">
        <ele>174.4</ele>
        <time>2023-04-10T08:38:51Z</time>
      </trkpt>
      <trkpt lat="48.12279" lon="-3.23115">
        <ele>174.6</ele>
        <time>2023-04-10T08:38:52Z</time>
      </trkpt>
      <trkpt lat="48.12275" lon="-3.23113">
        <ele>174.6</ele>
        <time>2023-04-10T08:38:53Z</time>
      </trkpt>
      <trkpt lat="48.1227" lon="-3.23112">
        <ele>174.6</ele>
        <time>2023-04-10T08:38:54Z</time>
      </trkpt>
      <trkpt lat="48.12267" lon="-3.23111">
        <ele>174.6</ele>
        <time>2023-04-10T08:38:55Z</time>
      </trkpt>
      <trkpt lat="48.12263" lon="-3.2311">
        <ele>174.8</ele>
        <time>2023-04-10T08:38:56Z</time>
      </trkpt>
      <trkpt lat="48.1226" lon="-3.2311">
        <ele>175</ele>
        <time>2023-04-10T08:38:57Z</time>
      </trkpt>
      <trkpt lat="48.12257" lon="-3.2311">
        <ele>175</ele>
        <time>2023-04-10T08:38:58Z</time>
      </trkpt>
      <trkpt lat="48.12254" lon="-3.2311">
        <ele>175</ele>
        <time>2023-04-10T08:38:59Z</time>
      </trkpt>
      <trkpt lat="48.12251" lon="-3.2311">
        <ele>175.2</ele>
        <time>2023-04-10T08:39:00Z</time>
      </trkpt>
      <trkpt lat="48.12249" lon="-3.2311">
        <ele>175.2</ele>
        <time>2023-04-10T08:39:01Z</time>
      </trkpt>
      <trkpt lat="48.12247" lon="-3.23112">
        <ele>175.4</ele>
        <time>2023-04-10T08:39:02Z</time>
      </trkpt>
      <trkpt lat="48.12244" lon="-3.23113">
        <ele>175.4</ele>
        <time>2023-04-10T08:39:03Z</time>
      </trkpt>
      <trkpt lat="48.12241" lon="-3.23115">
        <ele>175.6</ele>
        <time>2023-04-10T08:39:04Z</time>
      </trkpt>
      <trkpt lat="48.12239" lon="-3.23116">
        <ele>175.8</ele>
        <time>2023-04-10T08:39:05Z</time>
      </trkpt>
      <trkpt lat="48.12236" lon="-3.23117">
        <ele>176.2</ele>
        <time>2023-04-10T08:39:06Z</time>
      </trkpt>
      <trkpt lat="48.12234" lon="-3.23118">
        <ele>176.4</ele>
        <time>2023-04-10T08:39:07Z</time>
      </trkpt>
      <trkpt lat="48.12231" lon="-3.23119">
        <ele>176.6</ele>
        <time>2023-04-10T08:39:08Z</time>
      </trkpt>
      <trkpt lat="48.12229" lon="-3.2312">
        <ele>176.8</ele>
        <time>2023-04-10T08:39:09Z</time>
      </trkpt>
      <trkpt lat="48.12227" lon="-3.23122">
        <ele>177.2</ele>
        <time>2023-04-10T08:39:10Z</time>
      </trkpt>
      <trkpt lat="48.12225" lon="-3.23124">
        <ele>177.4</ele>
        <time>2023-04-10T08:39:11Z</time>
      </trkpt>
      <trkpt lat="48.12223" lon="-3.23125">
        <ele>177.6</ele>
        <time>2023-04-10T08:39:12Z</time>
      </trkpt>
      <trkpt lat="48.1222" lon="-3.23126">
        <ele>177.8</ele>
        <time>2023-04-10T08:39:13Z</time>
      </trkpt>
      <trkpt lat="48.12218" lon="-3.23128">
        <ele>178.2</ele>
        <time>2023-04-10T08:39:14Z</time>
      </trkpt>
      <trkpt lat="48.12216" lon="-3.23129">
        <ele>178.6</ele>
        <time>2023-04-10T08:39:15Z</time>
      </trkpt>
      <trkpt lat="48.12213" lon="-3.2313">
        <ele>178.8</ele>
        <time>2023-04-10T08:39:16Z</time>
      </trkpt>
      <trkpt lat="48.12212" lon="-3.23132">
        <ele>179</ele>
        <time>2023-04-10T08:39:17Z</time>
      </trkpt>
      <trkpt lat="48.1221" lon="-3.23132">
        <ele>179.4</ele>
        <time>2023-04-10T08:39:18Z</time>
      </trkpt>
      <trkpt lat="48.12209" lon="-3.23134">
        <ele>179.6</ele>
        <time>2023-04-10T08:39:19Z</time>
      </trkpt>
      <trkpt lat="48.12207" lon="-3.23135">
        <ele>179.6</ele>
        <time>2023-04-10T08:39:20Z</time>
      </trkpt>
      <trkpt lat="48.12205" lon="-3.23137">
        <ele>180</ele>
        <time>2023-04-10T08:39:21Z</time>
      </trkpt>
      <trkpt lat="48.12204" lon="-3.23139">
        <ele>180.2</ele>
        <time>2023-04-10T08:39:22Z</time>
      </trkpt>
      <trkpt lat="48.12203" lon="-3.2314">
        <ele>180.6</ele>
        <time>2023-04-10T08:39:23Z</time>
      </trkpt>
      <trkpt lat="48.12201" lon="-3.23142">
        <ele>180.8</ele>
        <time>2023-04-10T08:39:24Z</time>
      </trkpt>
      <trkpt lat="48.122" lon="-3.23143">
        <ele>181</ele>
        <time>2023-04-10T08:39:25Z</time>
      </trkpt>
      <trkpt lat="48.12198" lon="-3.23145">
        <ele>181.4</ele>
        <time>2023-04-10T08:39:26Z</time>
      </trkpt>
      <trkpt lat="48.12197" lon="-3.23146">
        <ele>181.8</ele>
        <time>2023-04-10T08:39:27Z</time>
      </trkpt>
      <trkpt lat="48.12195" lon="-3.23148">
        <ele>182</ele>
        <time>2023-04-10T08:39:28Z</time>
      </trkpt>
      <trkpt lat="48.12193" lon="-3.2315">
        <ele>182.2</ele>
        <time>2023-04-10T08:39:29Z</time>
      </trkpt>
      <trkpt lat="48.12191" lon="-3.23152">
        <ele>182.6</ele>
        <time>2023-04-10T08:39:30Z</time>
      </trkpt>
      <trkpt lat="48.12189" lon="-3.23154">
        <ele>182.8</ele>
        <time>2023-04-10T08:39:31Z</time>
      </trkpt>
      <trkpt lat="48.12187" lon="-3.23157">
        <ele>183.2</ele>
        <time>2023-04-10T08:39:32Z</time>
      </trkpt>
      <trkpt lat="48.12185" lon="-3.23159">
        <ele>183.4</ele>
        <time>2023-04-10T08:39:33Z</time>
      </trkpt>
      <trkpt lat="48.12183" lon="-3.23161">
        <ele>183.6</ele>
        <time>2023-04-10T08:39:34Z</time>
      </trkpt>
      <trkpt lat="48.12181" lon="-3.23164">
        <ele>183.8</ele>
        <time>2023-04-10T08:39:35Z</time>
      </trkpt>
      <trkpt lat="48.1218" lon="-3.23168">
        <ele>184</ele>
        <time>2023-04-10T08:39:36Z</time>
      </trkpt>
      <trkpt lat="48.12178" lon="-3.23171">
        <ele>184.4</ele>
        <time>2023-04-10T08:39:37Z</time>
      </trkpt>
      <trkpt lat="48.12177" lon="-3.23174">
        <ele>184.6</ele>
        <time>2023-04-10T08:39:38Z</time>
      </trkpt>
      <trkpt lat="48.12177" lon="-3.23176">
        <ele>184.8</ele>
        <time>2023-04-10T08:39:39Z</time>
      </trkpt>
      <trkpt lat="48.12176" lon="-3.23179">
        <ele>185</ele>
        <time>2023-04-10T08:39:40Z</time>
      </trkpt>
      <trkpt lat="48.12174" lon="-3.23182">
        <ele>185.2</ele>
        <time>2023-04-10T08:39:41Z</time>
      </trkpt>
      <trkpt lat="48.12174" lon="-3.23185">
        <ele>185.4</ele>
        <time>2023-04-10T08:39:42Z</time>
      </trkpt>
      <trkpt lat="48.12173" lon="-3.23188">
        <ele>185.6</ele>
        <time>2023-04-10T08:39:43Z</time>
      </trkpt>
      <trkpt lat="48.12171" lon="-3.23191">
        <ele>185.6</ele>
        <time>2023-04-10T08:39:44Z</time>
      </trkpt>
      <trkpt lat="48.1217" lon="-3.23195">
        <ele>186</ele>
        <time>2023-04-10T08:39:45Z</time>
      </trkpt>
      <trkpt lat="48.12169" lon="-3.23198">
        <ele>186</ele>
        <time>2023-04-10T08:39:46Z</time>
      </trkpt>
      <trkpt lat="48.12167" lon="-3.23201">
        <ele>186.4</ele>
        <time>2023-04-10T08:39:47Z</time>
      </trkpt>
      <trkpt lat="48.12166" lon="-3.23204">
        <ele>186.8</ele>
        <time>2023-04-10T08:39:48Z</time>
      </trkpt>
      <trkpt lat="48.12165" lon="-3.23207">
        <ele>187.2</ele>
        <time>2023-04-10T08:39:49Z</time>
      </trkpt>
      <trkpt lat="48.12165" lon="-3.2321">
        <ele>187.4</ele>
        <time>2023-04-10T08:39:50Z</time>
      </trkpt>
      <trkpt lat="48.12164" lon="-3.23213">
        <ele>187.8</ele>
        <time>2023-04-10T08:39:51Z</time>
      </trkpt>
      <trkpt lat="48.12163" lon="-3.23216">
        <ele>188</ele>
        <time>2023-04-10T08:39:52Z</time>
      </trkpt>
      <trkpt lat="48.12161" lon="-3.23218">
        <ele>188.4</ele>
        <time>2023-04-10T08:39:53Z</time>
      </trkpt>
      <trkpt lat="48.1216" lon="-3.23222">
        <ele>188.6</ele>
        <time>2023-04-10T08:39:54Z</time>
      </trkpt>
      <trkpt lat="48.12159" lon="-3.23226">
        <ele>188.8</ele>
        <time>2023-04-10T08:39:55Z</time>
      </trkpt>
      <trkpt lat="48.12158" lon="-3.23229">
        <ele>189</ele>
        <time>2023-04-10T08:39:56Z</time>
      </trkpt>
      <trkpt lat="48.12157" lon="-3.23232">
        <ele>189.4</ele>
        <time>2023-04-10T08:39:57Z</time>
      </trkpt>
      <trkpt lat="48.12157" lon="-3.23235">
        <ele>190</ele>
        <time>2023-04-10T08:39:58Z</time>
      </trkpt>
      <trkpt lat="48.12156" lon="-3.23238">
        <ele>190.4</ele>
        <time>2023-04-10T08:39:59Z</time>
      </trkpt>
      <trkpt lat="48.12154" lon="-3.23242">
        <ele>190.8</ele>
        <time>2023-04-10T08:40:00Z</time>
      </trkpt>
      <trkpt lat="48.12153" lon="-3.23246">
        <ele>191</ele>
        <time>2023-04-10T08:40:01Z</time>
      </trkpt>
      <trkpt lat="48.12151" lon="-3.23249">
        <ele>191.2</ele>
        <time>2023-04-10T08:40:02Z</time>
      </trkpt>
      <trkpt lat="48.1215" lon="-3.23252">
        <ele>191.6</ele>
        <time>2023-04-10T08:40:03Z</time>
      </trkpt>
      <trkpt lat="48.12149" lon="-3.23255">
        <ele>191.8</ele>
        <time>2023-04-10T08:40:04Z</time>
      </trkpt>
      <trkpt lat="48.12148" lon="-3.23257">
        <ele>192.2</ele>
        <time>2023-04-10T08:40:05Z</time>
      </trkpt>
      <trkpt lat="48.12147" lon="-3.23261">
        <ele>192.2</ele>
        <time>2023-04-10T08:40:06Z</time>
      </trkpt>
      <trkpt lat="48.12146" lon="-3.23264">
        <ele>192.4</ele>
        <time>2023-04-10T08:40:07Z</time>
      </trkpt>
      <trkpt lat="48.12145" lon="-3.23267">
        <ele>192.6</ele>
        <time>2023-04-10T08:40:08Z</time>
      </trkpt>
      <trkpt lat="48.12144" lon="-3.23271">
        <ele>192.8</ele>
        <time>2023-04-10T08:40:09Z</time>
      </trkpt>
      <trkpt lat="48.12144" lon="-3.23274">
        <ele>193</ele>
        <time>2023-04-10T08:40:10Z</time>
      </trkpt>
      <trkpt lat="48.12144" lon="-3.23277">
        <ele>193.4</ele>
        <time>2023-04-10T08:40:11Z</time>
      </trkpt>
      <trkpt lat="48.12145" lon="-3.23281">
        <ele>193.6</ele>
        <time>2023-04-10T08:40:12Z</time>
      </trkpt>
      <trkpt lat="48.12146" lon="-3.23285">
        <ele>193.8</ele>
        <time>2023-04-10T08:40:13Z</time>
      </trkpt>
      <trkpt lat="48.12147" lon="-3.2329">
        <ele>194</ele>
        <time>2023-04-10T08:40:14Z</time>
      </trkpt>
      <trkpt lat="48.12149" lon="-3.23294">
        <ele>194.4</ele>
        <time>2023-04-10T08:40:15Z</time>
      </trkpt>
      <trkpt lat="48.12151" lon="-3.23298">
        <ele>194.6</ele>
        <time>2023-04-10T08:40:16Z</time>
      </trkpt>
      <trkpt lat="48.12153" lon="-3.23302">
        <ele>194.6</ele>
        <time>2023-04-10T08:40:17Z</time>
      </trkpt>
      <trkpt lat="48.12155" lon="-3.23307">
        <ele>194.8</ele>
        <time>2023-04-10T08:40:18Z</time>
      </trkpt>
      <trkpt lat="48.12157" lon="-3.23311">
        <ele>195</ele>
        <time>2023-04-10T08:40:19Z</time>
      </trkpt>
      <trkpt lat="48.12159" lon="-3.23315">
        <ele>195.2</ele>
        <time>2023-04-10T08:40:20Z</time>
      </trkpt>
      <trkpt lat="48.12161" lon="-3.23319">
        <ele>195.2</ele>
        <time>2023-04-10T08:40:21Z</time>
      </trkpt>
      <trkpt lat="48.12162" lon="-3.23324">
        <ele>195.2</ele>
        <time>2023-04-10T08:40:22Z</time>
      </trkpt>
      <trkpt lat="48.12164" lon="-3.23328">
        <ele>195.4</ele>
        <time>2023-04-10T08:40:23Z</time>
      </trkpt>
      <trkpt lat="48.12166" lon="-3.23332">
        <ele>195.4</ele>
        <time>2023-04-10T08:40:24Z</time>
      </trkpt>
      <trkpt lat="48.12168" lon="-3.23337">
        <ele>195.6</ele>
        <time>2023-04-10T08:40:25Z</time>
      </trkpt>
      <trkpt lat="48.12169" lon="-3.23341">
        <ele>195.6</ele>
        <time>2023-04-10T08:40:26Z</time>
      </trkpt>
      <trkpt lat="48.1217" lon="-3.23345">
        <ele>195.8</ele>
        <time>2023-04-10T08:40:27Z</time>
      </trkpt>
      <trkpt lat="48.12171" lon="-3.23349">
        <ele>195.8</ele>
        <time>2023-04-10T08:40:28Z</time>
      </trkpt>
      <trkpt lat="48.12172" lon="-3.23353">
        <ele>196</ele>
        <time>2023-04-10T08:40:29Z</time>
      </trkpt>
      <trkpt lat="48.12173" lon="-3.23358">
        <ele>196</ele>
        <time>2023-04-10T08:40:30Z</time>
      </trkpt>
      <trkpt lat="48.12174" lon="-3.23363">
        <ele>196.2</ele>
        <time>2023-04-10T08:40:31Z</time>
      </trkpt>
      <trkpt lat="48.12175" lon="-3.23368">
        <ele>196.2</ele>
        <time>2023-04-10T08:40:32Z</time>
      </trkpt>
      <trkpt lat="48.12175" lon="-3.23373">
        <ele>196.4</ele>
        <time>2023-04-10T08:40:33Z</time>
      </trkpt>
      <trkpt lat="48.12175" lon="-3.23378">
        <ele>196.6</ele>
        <time>2023-04-10T08:40:34Z</time>
      </trkpt>
      <trkpt lat="48.12175" lon="-3.23382">
        <ele>196.6</ele>
        <time>2023-04-10T08:40:35Z</time>
      </trkpt>
      <trkpt lat="48.12175" lon="-3.23387">
        <ele>196.8</ele>
        <time>2023-04-10T08:40:36Z</time>
      </trkpt>
      <trkpt lat="48.12174" lon="-3.23393">
        <ele>197</ele>
        <time>2023-04-10T08:40:37Z</time>
      </trkpt>
      <trkpt lat="48.12173" lon="-3.23398">
        <ele>197.2</ele>
        <time>2023-04-10T08:40:38Z</time>
      </trkpt>
      <trkpt lat="48.12172" lon="-3.23403">
        <ele>197.4</ele>
        <time>2023-04-10T08:40:39Z</time>
      </trkpt>
      <trkpt lat="48.1217" lon="-3.23408">
        <ele>197.6</ele>
        <time>2023-04-10T08:40:40Z</time>
      </trkpt>
      <trkpt lat="48.12168" lon="-3.23412">
        <ele>197.6</ele>
        <time>2023-04-10T08:40:41Z</time>
      </trkpt>
      <trkpt lat="48.12166" lon="-3.23415">
        <ele>197.8</ele>
        <time>2023-04-10T08:40:42Z</time>
      </trkpt>
      <trkpt lat="48.12164" lon="-3.23416">
        <ele>197.8</ele>
        <time>2023-04-10T08:40:43Z</time>
      </trkpt>
      <trkpt lat="48.12162" lon="-3.23417">
        <ele>198</ele>
        <time>2023-04-10T08:40:44Z</time>
      </trkpt>
      <trkpt lat="48.12159" lon="-3.23417">
        <ele>198</ele>
        <time>2023-04-10T08:40:45Z</time>
      </trkpt>
      <trkpt lat="48.12156" lon="-3.23416">
        <ele>198</ele>
        <time>2023-04-10T08:40:46Z</time>
      </trkpt>
      <trkpt lat="48.12152" lon="-3.23414">
        <ele>198</ele>
        <time>2023-04-10T08:40:47Z</time>
      </trkpt>
      <trkpt lat="48.12149" lon="-3.23411">
        <ele>198.2</ele>
        <time>2023-04-10T08:40:48Z</time>
      </trkpt>
      <trkpt lat="48.12145" lon="-3.23408">
        <ele>198.2</ele>
        <time>2023-04-10T08:40:49Z</time>
      </trkpt>
      <trkpt lat="48.12141" lon="-3.23406">
        <ele>198.2</ele>
        <time>2023-04-10T08:40:50Z</time>
      </trkpt>
      <trkpt lat="48.12137" lon="-3.23403">
        <ele>198.2</ele>
        <time>2023-04-10T08:40:51Z</time>
      </trkpt>
      <trkpt lat="48.12133" lon="-3.234">
        <ele>198.2</ele>
        <time>2023-04-10T08:40:52Z</time>
      </trkpt>
      <trkpt lat="48.12128" lon="-3.23397">
        <ele>198.2</ele>
        <time>2023-04-10T08:40:53Z</time>
      </trkpt>
      <trkpt lat="48.12124" lon="-3.23395">
        <ele>198.2</ele>
        <time>2023-04-10T08:40:54Z</time>
      </trkpt>
      <trkpt lat="48.12119" lon="-3.23394">
        <ele>198.2</ele>
        <time>2023-04-10T08:40:55Z</time>
      </trkpt>
      <trkpt lat="48.12115" lon="-3.23392">
        <ele>198.2</ele>
        <time>2023-04-10T08:40:56Z</time>
      </trkpt>
      <trkpt lat="48.12105" lon="-3.2339">
        <ele>198.2</ele>
        <time>2023-04-10T08:40:58Z</time>
      </trkpt>
      <trkpt lat="48.12101" lon="-3.23389">
        <ele>198.2</ele>
        <time>2023-04-10T08:40:59Z</time>
      </trkpt>
      <trkpt lat="48.12098" lon="-3.23388">
        <ele>198.4</ele>
        <time>2023-04-10T08:41:00Z</time>
      </trkpt>
      <trkpt lat="48.12093" lon="-3.23386">
        <ele>198.4</ele>
        <time>2023-04-10T08:41:01Z</time>
      </trkpt>
      <trkpt lat="48.12089" lon="-3.23385">
        <ele>198.4</ele>
        <time>2023-04-10T08:41:02Z</time>
      </trkpt>
      <trkpt lat="48.12085" lon="-3.23383">
        <ele>198.4</ele>
        <time>2023-04-10T08:41:03Z</time>
      </trkpt>
      <trkpt lat="48.12082" lon="-3.23382">
        <ele>198.4</ele>
        <time>2023-04-10T08:41:04Z</time>
      </trkpt>
      <trkpt lat="48.12078" lon="-3.23381">
        <ele>198.4</ele>
        <time>2023-04-10T08:41:05Z</time>
      </trkpt>
      <trkpt lat="48.12074" lon="-3.2338">
        <ele>198.4</ele>
        <time>2023-04-10T08:41:06Z</time>
      </trkpt>
      <trkpt lat="48.12071" lon="-3.23379">
        <ele>198.6</ele>
        <time>2023-04-10T08:41:07Z</time>
      </trkpt>
      <trkpt lat="48.12068" lon="-3.23378">
        <ele>198.8</ele>
        <time>2023-04-10T08:41:08Z</time>
      </trkpt>
      <trkpt lat="48.12064" lon="-3.23377">
        <ele>199.2</ele>
        <time>2023-04-10T08:41:09Z</time>
      </trkpt>
      <trkpt lat="48.12047" lon="-3.23363">
        <ele>199.8</ele>
        <time>2023-04-10T08:41:14Z</time>
      </trkpt>
      <trkpt lat="48.12024" lon="-3.23342">
        <ele>200.8</ele>
        <time>2023-04-10T08:41:20Z</time>
      </trkpt>
      <trkpt lat="48.1202" lon="-3.23339">
        <ele>201</ele>
        <time>2023-04-10T08:41:21Z</time>
      </trkpt>
      <trkpt lat="48.12015" lon="-3.23335">
        <ele>201</ele>
        <time>2023-04-10T08:41:22Z</time>
      </trkpt>
      <trkpt lat="48.12011" lon="-3.23331">
        <ele>201.2</ele>
        <time>2023-04-10T08:41:23Z</time>
      </trkpt>
      <trkpt lat="48.12007" lon="-3.23327">
        <ele>201.2</ele>
        <time>2023-04-10T08:41:24Z</time>
      </trkpt>
      <trkpt lat="48.12003" lon="-3.23323">
        <ele>201.2</ele>
        <time>2023-04-10T08:41:25Z</time>
      </trkpt>
      <trkpt lat="48.11999" lon="-3.23319">
        <ele>201.2</ele>
        <time>2023-04-10T08:41:26Z</time>
      </trkpt>
      <trkpt lat="48.11995" lon="-3.23314">
        <ele>201.2</ele>
        <time>2023-04-10T08:41:27Z</time>
      </trkpt>
      <trkpt lat="48.1199" lon="-3.2331">
        <ele>201.2</ele>
        <time>2023-04-10T08:41:28Z</time>
      </trkpt>
      <trkpt lat="48.11986" lon="-3.23305">
        <ele>201.2</ele>
        <time>2023-04-10T08:41:29Z</time>
      </trkpt>
      <trkpt lat="48.11981" lon="-3.23301">
        <ele>201.2</ele>
        <time>2023-04-10T08:41:30Z</time>
      </trkpt>
      <trkpt lat="48.11976" lon="-3.23297">
        <ele>201.2</ele>
        <time>2023-04-10T08:41:31Z</time>
      </trkpt>
      <trkpt lat="48.11972" lon="-3.23292">
        <ele>201.2</ele>
        <time>2023-04-10T08:41:32Z</time>
      </trkpt>
      <trkpt lat="48.11967" lon="-3.23287">
        <ele>201.2</ele>
        <time>2023-04-10T08:41:33Z</time>
      </trkpt>
      <trkpt lat="48.11962" lon="-3.23283">
        <ele>201.2</ele>
        <time>2023-04-10T08:41:34Z</time>
      </trkpt>
      <trkpt lat="48.11958" lon="-3.23279">
        <ele>201.2</ele>
        <time>2023-04-10T08:41:35Z</time>
      </trkpt>
      <trkpt lat="48.11954" lon="-3.23275">
        <ele>201.2</ele>
        <time>2023-04-10T08:41:36Z</time>
      </trkpt>
      <trkpt lat="48.1195" lon="-3.23271">
        <ele>201.2</ele>
        <time>2023-04-10T08:41:37Z</time>
      </trkpt>
      <trkpt lat="48.11946" lon="-3.23267">
        <ele>201.2</ele>
        <time>2023-04-10T08:41:38Z</time>
      </trkpt>
      <trkpt lat="48.11942" lon="-3.23263">
        <ele>201.2</ele>
        <time>2023-04-10T08:41:39Z</time>
      </trkpt>
      <trkpt lat="48.11938" lon="-3.2326">
        <ele>201.2</ele>
        <time>2023-04-10T08:41:40Z</time>
      </trkpt>
      <trkpt lat="48.11934" lon="-3.23257">
        <ele>201.2</ele>
        <time>2023-04-10T08:41:41Z</time>
      </trkpt>
      <trkpt lat="48.1193" lon="-3.23254">
        <ele>201.2</ele>
        <time>2023-04-10T08:41:42Z</time>
      </trkpt>
      <trkpt lat="48.11927" lon="-3.23251">
        <ele>201.2</ele>
        <time>2023-04-10T08:41:43Z</time>
      </trkpt>
      <trkpt lat="48.11923" lon="-3.23248">
        <ele>201.2</ele>
        <time>2023-04-10T08:41:44Z</time>
      </trkpt>
      <trkpt lat="48.11897" lon="-3.23222">
        <ele>201</ele>
        <time>2023-04-10T08:41:50Z</time>
      </trkpt>
      <trkpt lat="48.11893" lon="-3.23215">
        <ele>200.8</ele>
        <time>2023-04-10T08:41:51Z</time>
      </trkpt>
      <trkpt lat="48.11891" lon="-3.23207">
        <ele>200.8</ele>
        <time>2023-04-10T08:41:52Z</time>
      </trkpt>
      <trkpt lat="48.1189" lon="-3.23198">
        <ele>200.6</ele>
        <time>2023-04-10T08:41:53Z</time>
      </trkpt>
      <trkpt lat="48.11889" lon="-3.23189">
        <ele>200.4</ele>
        <time>2023-04-10T08:41:54Z</time>
      </trkpt>
      <trkpt lat="48.11888" lon="-3.23181">
        <ele>200.4</ele>
        <time>2023-04-10T08:41:55Z</time>
      </trkpt>
      <trkpt lat="48.11887" lon="-3.23173">
        <ele>200.2</ele>
        <time>2023-04-10T08:41:56Z</time>
      </trkpt>
      <trkpt lat="48.11886" lon="-3.23165">
        <ele>200</ele>
        <time>2023-04-10T08:41:57Z</time>
      </trkpt>
      <trkpt lat="48.11885" lon="-3.23156">
        <ele>199.8</ele>
        <time>2023-04-10T08:41:58Z</time>
      </trkpt>
      <trkpt lat="48.11883" lon="-3.23148">
        <ele>199.6</ele>
        <time>2023-04-10T08:41:59Z</time>
      </trkpt>
      <trkpt lat="48.11881" lon="-3.23141">
        <ele>199.6</ele>
        <time>2023-04-10T08:42:00Z</time>
      </trkpt>
      <trkpt lat="48.11878" lon="-3.23134">
        <ele>199.2</ele>
        <time>2023-04-10T08:42:01Z</time>
      </trkpt>
      <trkpt lat="48.11875" lon="-3.23128">
        <ele>199</ele>
        <time>2023-04-10T08:42:02Z</time>
      </trkpt>
      <trkpt lat="48.11872" lon="-3.23122">
        <ele>198.8</ele>
        <time>2023-04-10T08:42:03Z</time>
      </trkpt>
      <trkpt lat="48.11868" lon="-3.23116">
        <ele>198.6</ele>
        <time>2023-04-10T08:42:04Z</time>
      </trkpt>
      <trkpt lat="48.11864" lon="-3.23112">
        <ele>198.4</ele>
        <time>2023-04-10T08:42:05Z</time>
      </trkpt>
      <trkpt lat="48.1186" lon="-3.23107">
        <ele>198</ele>
        <time>2023-04-10T08:42:06Z</time>
      </trkpt>
      <trkpt lat="48.11848" lon="-3.231">
        <ele>197.8</ele>
        <time>2023-04-10T08:42:08Z</time>
      </trkpt>
      <trkpt lat="48.11843" lon="-3.23097">
        <ele>197.8</ele>
        <time>2023-04-10T08:42:09Z</time>
      </trkpt>
      <trkpt lat="48.11836" lon="-3.23094">
        <ele>197.6</ele>
        <time>2023-04-10T08:42:10Z</time>
      </trkpt>
      <trkpt lat="48.11831" lon="-3.23092">
        <ele>197.6</ele>
        <time>2023-04-10T08:42:11Z</time>
      </trkpt>
      <trkpt lat="48.11827" lon="-3.2309">
        <ele>197.6</ele>
        <time>2023-04-10T08:42:12Z</time>
      </trkpt>
      <trkpt lat="48.11822" lon="-3.23088">
        <ele>197.4</ele>
        <time>2023-04-10T08:42:13Z</time>
      </trkpt>
      <trkpt lat="48.11817" lon="-3.23086">
        <ele>197.4</ele>
        <time>2023-04-10T08:42:14Z</time>
      </trkpt>
      <trkpt lat="48.11811" lon="-3.23083">
        <ele>197.4</ele>
        <time>2023-04-10T08:42:15Z</time>
      </trkpt>
      <trkpt lat="48.11806" lon="-3.23081">
        <ele>197.2</ele>
        <time>2023-04-10T08:42:16Z</time>
      </trkpt>
      <trkpt lat="48.11802" lon="-3.23079">
        <ele>197.2</ele>
        <time>2023-04-10T08:42:17Z</time>
      </trkpt>
      <trkpt lat="48.11797" lon="-3.23078">
        <ele>197.2</ele>
        <time>2023-04-10T08:42:18Z</time>
      </trkpt>
      <trkpt lat="48.11793" lon="-3.23076">
        <ele>197</ele>
        <time>2023-04-10T08:42:19Z</time>
      </trkpt>
      <trkpt lat="48.11788" lon="-3.23074">
        <ele>196.8</ele>
        <time>2023-04-10T08:42:20Z</time>
      </trkpt>
      <trkpt lat="48.11784" lon="-3.23071">
        <ele>196.6</ele>
        <time>2023-04-10T08:42:21Z</time>
      </trkpt>
      <trkpt lat="48.1178" lon="-3.23069">
        <ele>196.6</ele>
        <time>2023-04-10T08:42:22Z</time>
      </trkpt>
      <trkpt lat="48.11775" lon="-3.23067">
        <ele>196.4</ele>
        <time>2023-04-10T08:42:23Z</time>
      </trkpt>
      <trkpt lat="48.11738" lon="-3.23048">
        <ele>195.8</ele>
        <time>2023-04-10T08:42:30Z</time>
      </trkpt>
      <trkpt lat="48.11725" lon="-3.23041">
        <ele>195.6</ele>
        <time>2023-04-10T08:42:32Z</time>
      </trkpt>
      <trkpt lat="48.11713" lon="-3.23034">
        <ele>195.2</ele>
        <time>2023-04-10T08:42:34Z</time>
      </trkpt>
      <trkpt lat="48.117" lon="-3.23026">
        <ele>195.2</ele>
        <time>2023-04-10T08:42:36Z</time>
      </trkpt>
      <trkpt lat="48.1167" lon="-3.23007">
        <ele>194.8</ele>
        <time>2023-04-10T08:42:41Z</time>
      </trkpt>
      <trkpt lat="48.11665" lon="-3.23003">
        <ele>194.6</ele>
        <time>2023-04-10T08:42:42Z</time>
      </trkpt>
      <trkpt lat="48.11659" lon="-3.22999">
        <ele>194.6</ele>
        <time>2023-04-10T08:42:43Z</time>
      </trkpt>
      <trkpt lat="48.11653" lon="-3.22994">
        <ele>194.6</ele>
        <time>2023-04-10T08:42:44Z</time>
      </trkpt>
      <trkpt lat="48.11646" lon="-3.22989">
        <ele>194.4</ele>
        <time>2023-04-10T08:42:45Z</time>
      </trkpt>
      <trkpt lat="48.11623" lon="-3.22972">
        <ele>193.6</ele>
        <time>2023-04-10T08:42:49Z</time>
      </trkpt>
      <trkpt lat="48.1161" lon="-3.22964">
        <ele>193.2</ele>
        <time>2023-04-10T08:42:51Z</time>
      </trkpt>
      <trkpt lat="48.11572" lon="-3.22938">
        <ele>192.6</ele>
        <time>2023-04-10T08:42:57Z</time>
      </trkpt>
      <trkpt lat="48.11561" lon="-3.22929">
        <ele>192.2</ele>
        <time>2023-04-10T08:42:59Z</time>
      </trkpt>
      <trkpt lat="48.11555" lon="-3.22924">
        <ele>192.2</ele>
        <time>2023-04-10T08:43:00Z</time>
      </trkpt>
      <trkpt lat="48.11534" lon="-3.22907">
        <ele>191.4</ele>
        <time>2023-04-10T08:43:04Z</time>
      </trkpt>
      <trkpt lat="48.11522" lon="-3.22899">
        <ele>191.4</ele>
        <time>2023-04-10T08:43:06Z</time>
      </trkpt>
      <trkpt lat="48.11515" lon="-3.22896">
        <ele>191.2</ele>
        <time>2023-04-10T08:43:07Z</time>
      </trkpt>
      <trkpt lat="48.11509" lon="-3.22891">
        <ele>191</ele>
        <time>2023-04-10T08:43:08Z</time>
      </trkpt>
      <trkpt lat="48.11498" lon="-3.22884">
        <ele>190.6</ele>
        <time>2023-04-10T08:43:10Z</time>
      </trkpt>
      <trkpt lat="48.11486" lon="-3.22875">
        <ele>190.2</ele>
        <time>2023-04-10T08:43:12Z</time>
      </trkpt>
      <trkpt lat="48.11481" lon="-3.22871">
        <ele>190</ele>
        <time>2023-04-10T08:43:13Z</time>
      </trkpt>
      <trkpt lat="48.1147" lon="-3.22863">
        <ele>189.8</ele>
        <time>2023-04-10T08:43:15Z</time>
      </trkpt>
      <trkpt lat="48.11453" lon="-3.22851">
        <ele>189</ele>
        <time>2023-04-10T08:43:18Z</time>
      </trkpt>
      <trkpt lat="48.11448" lon="-3.22848">
        <ele>188.8</ele>
        <time>2023-04-10T08:43:19Z</time>
      </trkpt>
      <trkpt lat="48.11441" lon="-3.22842">
        <ele>188.8</ele>
        <time>2023-04-10T08:43:20Z</time>
      </trkpt>
      <trkpt lat="48.11424" lon="-3.22828">
        <ele>188.4</ele>
        <time>2023-04-10T08:43:23Z</time>
      </trkpt>
      <trkpt lat="48.11418" lon="-3.22821">
        <ele>188.2</ele>
        <time>2023-04-10T08:43:24Z</time>
      </trkpt>
      <trkpt lat="48.11415" lon="-3.22817">
        <ele>188.4</ele>
        <time>2023-04-10T08:43:25Z</time>
      </trkpt>
      <trkpt lat="48.11409" lon="-3.22813">
        <ele>188.4</ele>
        <time>2023-04-10T08:43:26Z</time>
      </trkpt>
      <trkpt lat="48.11403" lon="-3.22808">
        <ele>188.2</ele>
        <time>2023-04-10T08:43:27Z</time>
      </trkpt>
      <trkpt lat="48.114" lon="-3.22804">
        <ele>188.2</ele>
        <time>2023-04-10T08:43:28Z</time>
      </trkpt>
      <trkpt lat="48.11395" lon="-3.228">
        <ele>188.2</ele>
        <time>2023-04-10T08:43:29Z</time>
      </trkpt>
      <trkpt lat="48.1139" lon="-3.22796">
        <ele>188.2</ele>
        <time>2023-04-10T08:43:30Z</time>
      </trkpt>
      <trkpt lat="48.11375" lon="-3.22781">
        <ele>188</ele>
        <time>2023-04-10T08:43:33Z</time>
      </trkpt>
      <trkpt lat="48.11371" lon="-3.22778">
        <ele>188</ele>
        <time>2023-04-10T08:43:34Z</time>
      </trkpt>
      <trkpt lat="48.11366" lon="-3.22775">
        <ele>187.8</ele>
        <time>2023-04-10T08:43:35Z</time>
      </trkpt>
      <trkpt lat="48.11362" lon="-3.22774">
        <ele>187.8</ele>
        <time>2023-04-10T08:43:36Z</time>
      </trkpt>
      <trkpt lat="48.11357" lon="-3.22773">
        <ele>187.6</ele>
        <time>2023-04-10T08:43:37Z</time>
      </trkpt>
      <trkpt lat="48.11352" lon="-3.22771">
        <ele>187.4</ele>
        <time>2023-04-10T08:43:38Z</time>
      </trkpt>
      <trkpt lat="48.11347" lon="-3.2277">
        <ele>186.8</ele>
        <time>2023-04-10T08:43:39Z</time>
      </trkpt>
      <trkpt lat="48.11341" lon="-3.22769">
        <ele>186.6</ele>
        <time>2023-04-10T08:43:40Z</time>
      </trkpt>
      <trkpt lat="48.11329" lon="-3.22767">
        <ele>185.4</ele>
        <time>2023-04-10T08:43:42Z</time>
      </trkpt>
      <trkpt lat="48.11316" lon="-3.22766">
        <ele>184.4</ele>
        <time>2023-04-10T08:43:44Z</time>
      </trkpt>
      <trkpt lat="48.11311" lon="-3.22763">
        <ele>184.2</ele>
        <time>2023-04-10T08:43:45Z</time>
      </trkpt>
      <trkpt lat="48.11306" lon="-3.22761">
        <ele>183.6</ele>
        <time>2023-04-10T08:43:46Z</time>
      </trkpt>
      <trkpt lat="48.113" lon="-3.22759">
        <ele>182.8</ele>
        <time>2023-04-10T08:43:47Z</time>
      </trkpt>
      <trkpt lat="48.11294" lon="-3.22758">
        <ele>182.2</ele>
        <time>2023-04-10T08:43:48Z</time>
      </trkpt>
      <trkpt lat="48.11289" lon="-3.22757">
        <ele>181.8</ele>
        <time>2023-04-10T08:43:49Z</time>
      </trkpt>
      <trkpt lat="48.11285" lon="-3.22755">
        <ele>181.8</ele>
        <time>2023-04-10T08:43:50Z</time>
      </trkpt>
      <trkpt lat="48.11283" lon="-3.22754">
        <ele>180.6</ele>
        <time>2023-04-10T08:43:51Z</time>
      </trkpt>
      <trkpt lat="48.11281" lon="-3.22753">
        <ele>179.4</ele>
        <time>2023-04-10T08:43:52Z</time>
      </trkpt>
      <trkpt lat="48.1128" lon="-3.22752">
        <ele>178.2</ele>
        <time>2023-04-10T08:43:53Z</time>
      </trkpt>
      <trkpt lat="48.11278" lon="-3.2275">
        <ele>177</ele>
        <time>2023-04-10T08:43:54Z</time>
      </trkpt>
      <trkpt lat="48.11277" lon="-3.22747">
        <ele>175.8</ele>
        <time>2023-04-10T08:43:55Z</time>
      </trkpt>
      <trkpt lat="48.11276" lon="-3.22743">
        <ele>174.6</ele>
        <time>2023-04-10T08:43:56Z</time>
      </trkpt>
      <trkpt lat="48.11275" lon="-3.22738">
        <ele>173.2</ele>
        <time>2023-04-10T08:43:57Z</time>
      </trkpt>
      <trkpt lat="48.11274" lon="-3.22732">
        <ele>172</ele>
        <time>2023-04-10T08:43:58Z</time>
      </trkpt>
      <trkpt lat="48.11272" lon="-3.22723">
        <ele>170.8</ele>
        <time>2023-04-10T08:43:59Z</time>
      </trkpt>
      <trkpt lat="48.11268" lon="-3.22704">
        <ele>169</ele>
        <time>2023-04-10T08:44:01Z</time>
      </trkpt>
      <trkpt lat="48.11266" lon="-3.22694">
        <ele>168.4</ele>
        <time>2023-04-10T08:44:02Z</time>
      </trkpt>
      <trkpt lat="48.11262" lon="-3.22674">
        <ele>167.8</ele>
        <time>2023-04-10T08:44:04Z</time>
      </trkpt>
      <trkpt lat="48.11254" lon="-3.22632">
        <ele>167.6</ele>
        <time>2023-04-10T08:44:08Z</time>
      </trkpt>
      <trkpt lat="48.11253" lon="-3.22622">
        <ele>167.6</ele>
        <time>2023-04-10T08:44:09Z</time>
      </trkpt>
      <trkpt lat="48.11252" lon="-3.22611">
        <ele>167.6</ele>
        <time>2023-04-10T08:44:10Z</time>
      </trkpt>
      <trkpt lat="48.11251" lon="-3.22605">
        <ele>167.6</ele>
        <time>2023-04-10T08:44:11Z</time>
      </trkpt>
      <trkpt lat="48.11249" lon="-3.22596">
        <ele>167.6</ele>
        <time>2023-04-10T08:44:12Z</time>
      </trkpt>
      <trkpt lat="48.11246" lon="-3.22586">
        <ele>167.6</ele>
        <time>2023-04-10T08:44:13Z</time>
      </trkpt>
      <trkpt lat="48.11244" lon="-3.22579">
        <ele>167.6</ele>
        <time>2023-04-10T08:44:14Z</time>
      </trkpt>
      <trkpt lat="48.11241" lon="-3.2257">
        <ele>167.6</ele>
        <time>2023-04-10T08:44:15Z</time>
      </trkpt>
      <trkpt lat="48.11238" lon="-3.22562">
        <ele>167.6</ele>
        <time>2023-04-10T08:44:16Z</time>
      </trkpt>
      <trkpt lat="48.11236" lon="-3.22553">
        <ele>167.6</ele>
        <time>2023-04-10T08:44:17Z</time>
      </trkpt>
      <trkpt lat="48.11234" lon="-3.22546">
        <ele>167.6</ele>
        <time>2023-04-10T08:44:18Z</time>
      </trkpt>
      <trkpt lat="48.11232" lon="-3.22539">
        <ele>167.6</ele>
        <time>2023-04-10T08:44:19Z</time>
      </trkpt>
      <trkpt lat="48.1123" lon="-3.22532">
        <ele>167.8</ele>
        <time>2023-04-10T08:44:20Z</time>
      </trkpt>
      <trkpt lat="48.11227" lon="-3.22526">
        <ele>167.8</ele>
        <time>2023-04-10T08:44:21Z</time>
      </trkpt>
      <trkpt lat="48.11224" lon="-3.22519">
        <ele>168</ele>
        <time>2023-04-10T08:44:22Z</time>
      </trkpt>
      <trkpt lat="48.11221" lon="-3.22513">
        <ele>168.2</ele>
        <time>2023-04-10T08:44:23Z</time>
      </trkpt>
      <trkpt lat="48.11219" lon="-3.22507">
        <ele>168.4</ele>
        <time>2023-04-10T08:44:24Z</time>
      </trkpt>
      <trkpt lat="48.11216" lon="-3.22501">
        <ele>168.2</ele>
        <time>2023-04-10T08:44:25Z</time>
      </trkpt>
      <trkpt lat="48.11213" lon="-3.22496">
        <ele>168.4</ele>
        <time>2023-04-10T08:44:26Z</time>
      </trkpt>
      <trkpt lat="48.11209" lon="-3.22491">
        <ele>168.6</ele>
        <time>2023-04-10T08:44:27Z</time>
      </trkpt>
      <trkpt lat="48.11206" lon="-3.22487">
        <ele>168.8</ele>
        <time>2023-04-10T08:44:28Z</time>
      </trkpt>
      <trkpt lat="48.11201" lon="-3.22484">
        <ele>169</ele>
        <time>2023-04-10T08:44:29Z</time>
      </trkpt>
      <trkpt lat="48.11197" lon="-3.2248">
        <ele>169.2</ele>
        <time>2023-04-10T08:44:30Z</time>
      </trkpt>
      <trkpt lat="48.11195" lon="-3.22478">
        <ele>169.4</ele>
        <time>2023-04-10T08:44:31Z</time>
      </trkpt>
      <trkpt lat="48.11191" lon="-3.22476">
        <ele>169.6</ele>
        <time>2023-04-10T08:44:32Z</time>
      </trkpt>
      <trkpt lat="48.1119" lon="-3.22475">
        <ele>169.8</ele>
        <time>2023-04-10T08:44:33Z</time>
      </trkpt>
      <trkpt lat="48.11187" lon="-3.22473">
        <ele>170</ele>
        <time>2023-04-10T08:44:34Z</time>
      </trkpt>
      <trkpt lat="48.11185" lon="-3.22471">
        <ele>170</ele>
        <time>2023-04-10T08:44:35Z</time>
      </trkpt>
      <trkpt lat="48.11182" lon="-3.22469">
        <ele>170.2</ele>
        <time>2023-04-10T08:44:36Z</time>
      </trkpt>
      <trkpt lat="48.1118" lon="-3.22467">
        <ele>170.4</ele>
        <time>2023-04-10T08:44:37Z</time>
      </trkpt>
      <trkpt lat="48.11178" lon="-3.22466">
        <ele>170.6</ele>
        <time>2023-04-10T08:44:38Z</time>
      </trkpt>
      <trkpt lat="48.11176" lon="-3.22465">
        <ele>171</ele>
        <time>2023-04-10T08:44:39Z</time>
      </trkpt>
      <trkpt lat="48.11174" lon="-3.22463">
        <ele>171.4</ele>
        <time>2023-04-10T08:44:40Z</time>
      </trkpt>
      <trkpt lat="48.11172" lon="-3.22461">
        <ele>171.6</ele>
        <time>2023-04-10T08:44:41Z</time>
      </trkpt>
      <trkpt lat="48.1117" lon="-3.2246">
        <ele>172</ele>
        <time>2023-04-10T08:44:42Z</time>
      </trkpt>
      <trkpt lat="48.11167" lon="-3.22458">
        <ele>172.4</ele>
        <time>2023-04-10T08:44:43Z</time>
      </trkpt>
      <trkpt lat="48.11165" lon="-3.22457">
        <ele>172.4</ele>
        <time>2023-04-10T08:44:44Z</time>
      </trkpt>
      <trkpt lat="48.11163" lon="-3.22456">
        <ele>172.8</ele>
        <time>2023-04-10T08:44:45Z</time>
      </trkpt>
      <trkpt lat="48.11161" lon="-3.22454">
        <ele>173</ele>
        <time>2023-04-10T08:44:46Z</time>
      </trkpt>
      <trkpt lat="48.11159" lon="-3.22452">
        <ele>173.4</ele>
        <time>2023-04-10T08:44:47Z</time>
      </trkpt>
      <trkpt lat="48.11157" lon="-3.22451">
        <ele>173.6</ele>
        <time>2023-04-10T08:44:48Z</time>
      </trkpt>
      <trkpt lat="48.11155" lon="-3.22449">
        <ele>173.8</ele>
        <time>2023-04-10T08:44:49Z</time>
      </trkpt>
      <trkpt lat="48.11153" lon="-3.22448">
        <ele>174</ele>
        <time>2023-04-10T08:44:50Z</time>
      </trkpt>
      <trkpt lat="48.11151" lon="-3.22447">
        <ele>174.4</ele>
        <time>2023-04-10T08:44:51Z</time>
      </trkpt>
      <trkpt lat="48.11149" lon="-3.22445">
        <ele>174.6</ele>
        <time>2023-04-10T08:44:52Z</time>
      </trkpt>
      <trkpt lat="48.11147" lon="-3.22443">
        <ele>175</ele>
        <time>2023-04-10T08:44:53Z</time>
      </trkpt>
      <trkpt lat="48.11145" lon="-3.22441">
        <ele>175.2</ele>
        <time>2023-04-10T08:44:54Z</time>
      </trkpt>
      <trkpt lat="48.11143" lon="-3.2244">
        <ele>175.4</ele>
        <time>2023-04-10T08:44:55Z</time>
      </trkpt>
      <trkpt lat="48.11141" lon="-3.22438">
        <ele>175.6</ele>
        <time>2023-04-10T08:44:56Z</time>
      </trkpt>
      <trkpt lat="48.11139" lon="-3.22437">
        <ele>175.6</ele>
        <time>2023-04-10T08:44:57Z</time>
      </trkpt>
      <trkpt lat="48.11137" lon="-3.22436">
        <ele>175.8</ele>
        <time>2023-04-10T08:44:58Z</time>
      </trkpt>
      <trkpt lat="48.11135" lon="-3.22434">
        <ele>176</ele>
        <time>2023-04-10T08:44:59Z</time>
      </trkpt>
      <trkpt lat="48.11133" lon="-3.22433">
        <ele>176.2</ele>
        <time>2023-04-10T08:45:00Z</time>
      </trkpt>
      <trkpt lat="48.1113" lon="-3.22432">
        <ele>176.4</ele>
        <time>2023-04-10T08:45:01Z</time>
      </trkpt>
      <trkpt lat="48.11128" lon="-3.2243">
        <ele>176.6</ele>
        <time>2023-04-10T08:45:02Z</time>
      </trkpt>
      <trkpt lat="48.11126" lon="-3.22428">
        <ele>177</ele>
        <time>2023-04-10T08:45:03Z</time>
      </trkpt>
      <trkpt lat="48.11124" lon="-3.22427">
        <ele>177.2</ele>
        <time>2023-04-10T08:45:04Z</time>
      </trkpt>
      <trkpt lat="48.11122" lon="-3.22425">
        <ele>177.4</ele>
        <time>2023-04-10T08:45:05Z</time>
      </trkpt>
      <trkpt lat="48.1112" lon="-3.22424">
        <ele>177.6</ele>
        <time>2023-04-10T08:45:06Z</time>
      </trkpt>
      <trkpt lat="48.11118" lon="-3.22422">
        <ele>177.8</ele>
        <time>2023-04-10T08:45:07Z</time>
      </trkpt>
      <trkpt lat="48.11116" lon="-3.2242">
        <ele>178.2</ele>
        <time>2023-04-10T08:45:08Z</time>
      </trkpt>
      <trkpt lat="48.11114" lon="-3.22419">
        <ele>178.4</ele>
        <time>2023-04-10T08:45:09Z</time>
      </trkpt>
      <trkpt lat="48.11111" lon="-3.22417">
        <ele>178.6</ele>
        <time>2023-04-10T08:45:10Z</time>
      </trkpt>
      <trkpt lat="48.11109" lon="-3.22416">
        <ele>178.8</ele>
        <time>2023-04-10T08:45:11Z</time>
      </trkpt>
      <trkpt lat="48.11106" lon="-3.22414">
        <ele>179.2</ele>
        <time>2023-04-10T08:45:12Z</time>
      </trkpt>
      <trkpt lat="48.11104" lon="-3.22413">
        <ele>179.2</ele>
        <time>2023-04-10T08:45:13Z</time>
      </trkpt>
      <trkpt lat="48.11102" lon="-3.22411">
        <ele>179.4</ele>
        <time>2023-04-10T08:45:14Z</time>
      </trkpt>
      <trkpt lat="48.111" lon="-3.2241">
        <ele>179.8</ele>
        <time>2023-04-10T08:45:15Z</time>
      </trkpt>
      <trkpt lat="48.11098" lon="-3.22409">
        <ele>180</ele>
        <time>2023-04-10T08:45:16Z</time>
      </trkpt>
      <trkpt lat="48.11095" lon="-3.22409">
        <ele>180.2</ele>
        <time>2023-04-10T08:45:17Z</time>
      </trkpt>
      <trkpt lat="48.11093" lon="-3.22408">
        <ele>180.4</ele>
        <time>2023-04-10T08:45:18Z</time>
      </trkpt>
      <trkpt lat="48.11091" lon="-3.22407">
        <ele>180.6</ele>
        <time>2023-04-10T08:45:19Z</time>
      </trkpt>
      <trkpt lat="48.11088" lon="-3.22406">
        <ele>181</ele>
        <time>2023-04-10T08:45:20Z</time>
      </trkpt>
      <trkpt lat="48.11086" lon="-3.22405">
        <ele>181</ele>
        <time>2023-04-10T08:45:21Z</time>
      </trkpt>
      <trkpt lat="48.11084" lon="-3.22404">
        <ele>181.2</ele>
        <time>2023-04-10T08:45:22Z</time>
      </trkpt>
      <trkpt lat="48.11082" lon="-3.22404">
        <ele>181.6</ele>
        <time>2023-04-10T08:45:23Z</time>
      </trkpt>
      <trkpt lat="48.1108" lon="-3.22403">
        <ele>181.8</ele>
        <time>2023-04-10T08:45:24Z</time>
      </trkpt>
      <trkpt lat="48.11077" lon="-3.22402">
        <ele>182</ele>
        <time>2023-04-10T08:45:25Z</time>
      </trkpt>
      <trkpt lat="48.11075" lon="-3.22401">
        <ele>182.4</ele>
        <time>2023-04-10T08:45:26Z</time>
      </trkpt>
      <trkpt lat="48.11073" lon="-3.22401">
        <ele>182.6</ele>
        <time>2023-04-10T08:45:27Z</time>
      </trkpt>
      <trkpt lat="48.11071" lon="-3.224">
        <ele>183</ele>
        <time>2023-04-10T08:45:28Z</time>
      </trkpt>
      <trkpt lat="48.11069" lon="-3.224">
        <ele>183.4</ele>
        <time>2023-04-10T08:45:29Z</time>
      </trkpt>
      <trkpt lat="48.11067" lon="-3.22399">
        <ele>183.6</ele>
        <time>2023-04-10T08:45:30Z</time>
      </trkpt>
      <trkpt lat="48.11064" lon="-3.22399">
        <ele>184</ele>
        <time>2023-04-10T08:45:31Z</time>
      </trkpt>
      <trkpt lat="48.11062" lon="-3.22399">
        <ele>184.2</ele>
        <time>2023-04-10T08:45:32Z</time>
      </trkpt>
      <trkpt lat="48.1106" lon="-3.22398">
        <ele>184.6</ele>
        <time>2023-04-10T08:45:33Z</time>
      </trkpt>
      <trkpt lat="48.11058" lon="-3.22397">
        <ele>184.8</ele>
        <time>2023-04-10T08:45:34Z</time>
      </trkpt>
      <trkpt lat="48.11056" lon="-3.22397">
        <ele>185</ele>
        <time>2023-04-10T08:45:35Z</time>
      </trkpt>
      <trkpt lat="48.11055" lon="-3.22396">
        <ele>185.4</ele>
        <time>2023-04-10T08:45:36Z</time>
      </trkpt>
      <trkpt lat="48.11053" lon="-3.22396">
        <ele>185.6</ele>
        <time>2023-04-10T08:45:37Z</time>
      </trkpt>
      <trkpt lat="48.11051" lon="-3.22395">
        <ele>186</ele>
        <time>2023-04-10T08:45:38Z</time>
      </trkpt>
      <trkpt lat="48.11049" lon="-3.22395">
        <ele>186.2</ele>
        <time>2023-04-10T08:45:39Z</time>
      </trkpt>
      <trkpt lat="48.11047" lon="-3.22394">
        <ele>186.2</ele>
        <time>2023-04-10T08:45:40Z</time>
      </trkpt>
      <trkpt lat="48.11045" lon="-3.22393">
        <ele>186.4</ele>
        <time>2023-04-10T08:45:41Z</time>
      </trkpt>
      <trkpt lat="48.11044" lon="-3.22392">
        <ele>186.6</ele>
        <time>2023-04-10T08:45:42Z</time>
      </trkpt>
      <trkpt lat="48.11042" lon="-3.22392">
        <ele>186.6</ele>
        <time>2023-04-10T08:45:43Z</time>
      </trkpt>
      <trkpt lat="48.1104" lon="-3.22391">
        <ele>186.8</ele>
        <time>2023-04-10T08:45:44Z</time>
      </trkpt>
      <trkpt lat="48.11038" lon="-3.22391">
        <ele>187</ele>
        <time>2023-04-10T08:45:45Z</time>
      </trkpt>
      <trkpt lat="48.11036" lon="-3.2239">
        <ele>187</ele>
        <time>2023-04-10T08:45:46Z</time>
      </trkpt>
      <trkpt lat="48.11034" lon="-3.22388">
        <ele>187.2</ele>
        <time>2023-04-10T08:45:47Z</time>
      </trkpt>
      <trkpt lat="48.11032" lon="-3.22388">
        <ele>187.6</ele>
        <time>2023-04-10T08:45:48Z</time>
      </trkpt>
      <trkpt lat="48.11032" lon="-3.22387">
        <ele>187.8</ele>
        <time>2023-04-10T08:45:49Z</time>
      </trkpt>
      <trkpt lat="48.11031" lon="-3.22387">
        <ele>188</ele>
        <time>2023-04-10T08:45:50Z</time>
      </trkpt>
      <trkpt lat="48.11029" lon="-3.22386">
        <ele>188</ele>
        <time>2023-04-10T08:45:51Z</time>
      </trkpt>
      <trkpt lat="48.11028" lon="-3.22385">
        <ele>188.4</ele>
        <time>2023-04-10T08:45:52Z</time>
      </trkpt>
      <trkpt lat="48.11026" lon="-3.22384">
        <ele>188.6</ele>
        <time>2023-04-10T08:45:53Z</time>
      </trkpt>
      <trkpt lat="48.11025" lon="-3.22383">
        <ele>188.8</ele>
        <time>2023-04-10T08:45:54Z</time>
      </trkpt>
      <trkpt lat="48.11023" lon="-3.2238">
        <ele>189.2</ele>
        <time>2023-04-10T08:45:55Z</time>
      </trkpt>
      <trkpt lat="48.11021" lon="-3.22379">
        <ele>189.2</ele>
        <time>2023-04-10T08:45:56Z</time>
      </trkpt>
      <trkpt lat="48.11019" lon="-3.22377">
        <ele>189.6</ele>
        <time>2023-04-10T08:45:57Z</time>
      </trkpt>
      <trkpt lat="48.11016" lon="-3.22374">
        <ele>189.8</ele>
        <time>2023-04-10T08:45:58Z</time>
      </trkpt>
      <trkpt lat="48.11013" lon="-3.22372">
        <ele>190.2</ele>
        <time>2023-04-10T08:45:59Z</time>
      </trkpt>
      <trkpt lat="48.1101" lon="-3.22371">
        <ele>190.4</ele>
        <time>2023-04-10T08:46:00Z</time>
      </trkpt>
      <trkpt lat="48.11006" lon="-3.22369">
        <ele>190.6</ele>
        <time>2023-04-10T08:46:01Z</time>
      </trkpt>
      <trkpt lat="48.11003" lon="-3.22366">
        <ele>191</ele>
        <time>2023-04-10T08:46:02Z</time>
      </trkpt>
      <trkpt lat="48.11" lon="-3.22364">
        <ele>191.2</ele>
        <time>2023-04-10T08:46:03Z</time>
      </trkpt>
      <trkpt lat="48.10998" lon="-3.22362">
        <ele>191.6</ele>
        <time>2023-04-10T08:46:04Z</time>
      </trkpt>
      <trkpt lat="48.10995" lon="-3.22361">
        <ele>191.6</ele>
        <time>2023-04-10T08:46:05Z</time>
      </trkpt>
      <trkpt lat="48.10992" lon="-3.2236">
        <ele>191.8</ele>
        <time>2023-04-10T08:46:06Z</time>
      </trkpt>
      <trkpt lat="48.10989" lon="-3.22358">
        <ele>192.2</ele>
        <time>2023-04-10T08:46:07Z</time>
      </trkpt>
      <trkpt lat="48.10987" lon="-3.22356">
        <ele>192.4</ele>
        <time>2023-04-10T08:46:08Z</time>
      </trkpt>
      <trkpt lat="48.10984" lon="-3.22355">
        <ele>192.6</ele>
        <time>2023-04-10T08:46:09Z</time>
      </trkpt>
      <trkpt lat="48.10982" lon="-3.22353">
        <ele>193</ele>
        <time>2023-04-10T08:46:10Z</time>
      </trkpt>
      <trkpt lat="48.1098" lon="-3.22351">
        <ele>193.2</ele>
        <time>2023-04-10T08:46:11Z</time>
      </trkpt>
      <trkpt lat="48.10978" lon="-3.22349">
        <ele>193.6</ele>
        <time>2023-04-10T08:46:12Z</time>
      </trkpt>
      <trkpt lat="48.10977" lon="-3.22346">
        <ele>193.8</ele>
        <time>2023-04-10T08:46:13Z</time>
      </trkpt>
      <trkpt lat="48.10975" lon="-3.22343">
        <ele>194.2</ele>
        <time>2023-04-10T08:46:14Z</time>
      </trkpt>
      <trkpt lat="48.10973" lon="-3.22342">
        <ele>194.4</ele>
        <time>2023-04-10T08:46:15Z</time>
      </trkpt>
      <trkpt lat="48.10971" lon="-3.22341">
        <ele>194.8</ele>
        <time>2023-04-10T08:46:16Z</time>
      </trkpt>
      <trkpt lat="48.1097" lon="-3.22339">
        <ele>195</ele>
        <time>2023-04-10T08:46:17Z</time>
      </trkpt>
      <trkpt lat="48.10968" lon="-3.22338">
        <ele>195.4</ele>
        <time>2023-04-10T08:46:18Z</time>
      </trkpt>
      <trkpt lat="48.10966" lon="-3.22337">
        <ele>195.6</ele>
        <time>2023-04-10T08:46:19Z</time>
      </trkpt>
      <trkpt lat="48.10964" lon="-3.22336">
        <ele>195.8</ele>
        <time>2023-04-10T08:46:20Z</time>
      </trkpt>
      <trkpt lat="48.10961" lon="-3.22334">
        <ele>196.2</ele>
        <time>2023-04-10T08:46:21Z</time>
      </trkpt>
      <trkpt lat="48.10959" lon="-3.22332">
        <ele>196.4</ele>
        <time>2023-04-10T08:46:22Z</time>
      </trkpt>
      <trkpt lat="48.10957" lon="-3.2233">
        <ele>196.6</ele>
        <time>2023-04-10T08:46:23Z</time>
      </trkpt>
      <trkpt lat="48.10955" lon="-3.22328">
        <ele>197</ele>
        <time>2023-04-10T08:46:24Z</time>
      </trkpt>
      <trkpt lat="48.10952" lon="-3.22326">
        <ele>197.2</ele>
        <time>2023-04-10T08:46:25Z</time>
      </trkpt>
      <trkpt lat="48.1095" lon="-3.22324">
        <ele>197.4</ele>
        <time>2023-04-10T08:46:26Z</time>
      </trkpt>
      <trkpt lat="48.10948" lon="-3.22324">
        <ele>197.8</ele>
        <time>2023-04-10T08:46:27Z</time>
      </trkpt>
      <trkpt lat="48.10947" lon="-3.22323">
        <ele>197.8</ele>
        <time>2023-04-10T08:46:28Z</time>
      </trkpt>
      <trkpt lat="48.10945" lon="-3.22321">
        <ele>197.8</ele>
        <time>2023-04-10T08:46:29Z</time>
      </trkpt>
      <trkpt lat="48.10943" lon="-3.22319">
        <ele>198</ele>
        <time>2023-04-10T08:46:30Z</time>
      </trkpt>
      <trkpt lat="48.1094" lon="-3.22316">
        <ele>198.4</ele>
        <time>2023-04-10T08:46:31Z</time>
      </trkpt>
      <trkpt lat="48.10937" lon="-3.22314">
        <ele>198.4</ele>
        <time>2023-04-10T08:46:32Z</time>
      </trkpt>
      <trkpt lat="48.10934" lon="-3.22311">
        <ele>198.6</ele>
        <time>2023-04-10T08:46:33Z</time>
      </trkpt>
      <trkpt lat="48.1093" lon="-3.2231">
        <ele>198.6</ele>
        <time>2023-04-10T08:46:34Z</time>
      </trkpt>
      <trkpt lat="48.10927" lon="-3.22308">
        <ele>198.8</ele>
        <time>2023-04-10T08:46:35Z</time>
      </trkpt>
      <trkpt lat="48.10925" lon="-3.22305">
        <ele>198.8</ele>
        <time>2023-04-10T08:46:36Z</time>
      </trkpt>
      <trkpt lat="48.10922" lon="-3.22303">
        <ele>198.8</ele>
        <time>2023-04-10T08:46:37Z</time>
      </trkpt>
      <trkpt lat="48.1092" lon="-3.22301">
        <ele>199</ele>
        <time>2023-04-10T08:46:38Z</time>
      </trkpt>
      <trkpt lat="48.10917" lon="-3.22299">
        <ele>199</ele>
        <time>2023-04-10T08:46:39Z</time>
      </trkpt>
      <trkpt lat="48.10914" lon="-3.22297">
        <ele>199.2</ele>
        <time>2023-04-10T08:46:40Z</time>
      </trkpt>
      <trkpt lat="48.10911" lon="-3.22295">
        <ele>199.2</ele>
        <time>2023-04-10T08:46:41Z</time>
      </trkpt>
      <trkpt lat="48.10908" lon="-3.22293">
        <ele>199.4</ele>
        <time>2023-04-10T08:46:42Z</time>
      </trkpt>
      <trkpt lat="48.10905" lon="-3.22291">
        <ele>199.6</ele>
        <time>2023-04-10T08:46:43Z</time>
      </trkpt>
      <trkpt lat="48.10903" lon="-3.2229">
        <ele>199.6</ele>
        <time>2023-04-10T08:46:44Z</time>
      </trkpt>
      <trkpt lat="48.10899" lon="-3.22289">
        <ele>199.6</ele>
        <time>2023-04-10T08:46:45Z</time>
      </trkpt>
      <trkpt lat="48.10896" lon="-3.22288">
        <ele>199.8</ele>
        <time>2023-04-10T08:46:46Z</time>
      </trkpt>
      <trkpt lat="48.10893" lon="-3.22287">
        <ele>199.8</ele>
        <time>2023-04-10T08:46:47Z</time>
      </trkpt>
      <trkpt lat="48.1089" lon="-3.22286">
        <ele>200</ele>
        <time>2023-04-10T08:46:48Z</time>
      </trkpt>
      <trkpt lat="48.10886" lon="-3.22285">
        <ele>200.2</ele>
        <time>2023-04-10T08:46:49Z</time>
      </trkpt>
      <trkpt lat="48.10883" lon="-3.22284">
        <ele>200.2</ele>
        <time>2023-04-10T08:46:50Z</time>
      </trkpt>
      <trkpt lat="48.10879" lon="-3.22283">
        <ele>200.2</ele>
        <time>2023-04-10T08:46:51Z</time>
      </trkpt>
      <trkpt lat="48.10876" lon="-3.22283">
        <ele>200.4</ele>
        <time>2023-04-10T08:46:52Z</time>
      </trkpt>
      <trkpt lat="48.10871" lon="-3.22283">
        <ele>200.6</ele>
        <time>2023-04-10T08:46:53Z</time>
      </trkpt>
      <trkpt lat="48.10867" lon="-3.22283">
        <ele>200.8</ele>
        <time>2023-04-10T08:46:54Z</time>
      </trkpt>
      <trkpt lat="48.10863" lon="-3.22283">
        <ele>201</ele>
        <time>2023-04-10T08:46:55Z</time>
      </trkpt>
      <trkpt lat="48.10859" lon="-3.22282">
        <ele>201.2</ele>
        <time>2023-04-10T08:46:56Z</time>
      </trkpt>
      <trkpt lat="48.10855" lon="-3.22282">
        <ele>201.4</ele>
        <time>2023-04-10T08:46:57Z</time>
      </trkpt>
      <trkpt lat="48.10851" lon="-3.22282">
        <ele>201.4</ele>
        <time>2023-04-10T08:46:58Z</time>
      </trkpt>
      <trkpt lat="48.10847" lon="-3.22282">
        <ele>201.6</ele>
        <time>2023-04-10T08:46:59Z</time>
      </trkpt>
      <trkpt lat="48.10842" lon="-3.22282">
        <ele>201.8</ele>
        <time>2023-04-10T08:47:00Z</time>
      </trkpt>
      <trkpt lat="48.10838" lon="-3.22282">
        <ele>201.8</ele>
        <time>2023-04-10T08:47:01Z</time>
      </trkpt>
      <trkpt lat="48.10834" lon="-3.22282">
        <ele>201.8</ele>
        <time>2023-04-10T08:47:02Z</time>
      </trkpt>
      <trkpt lat="48.1083" lon="-3.22282">
        <ele>202</ele>
        <time>2023-04-10T08:47:03Z</time>
      </trkpt>
      <trkpt lat="48.10826" lon="-3.22282">
        <ele>202</ele>
        <time>2023-04-10T08:47:04Z</time>
      </trkpt>
      <trkpt lat="48.10821" lon="-3.22282">
        <ele>202</ele>
        <time>2023-04-10T08:47:05Z</time>
      </trkpt>
      <trkpt lat="48.10817" lon="-3.22283">
        <ele>202</ele>
        <time>2023-04-10T08:47:06Z</time>
      </trkpt>
      <trkpt lat="48.10813" lon="-3.22283">
        <ele>202</ele>
        <time>2023-04-10T08:47:07Z</time>
      </trkpt>
      <trkpt lat="48.10808" lon="-3.22284">
        <ele>202.2</ele>
        <time>2023-04-10T08:47:08Z</time>
      </trkpt>
      <trkpt lat="48.10804" lon="-3.22286">
        <ele>202.2</ele>
        <time>2023-04-10T08:47:09Z</time>
      </trkpt>
      <trkpt lat="48.108" lon="-3.22287">
        <ele>202.4</ele>
        <time>2023-04-10T08:47:10Z</time>
      </trkpt>
      <trkpt lat="48.10795" lon="-3.22288">
        <ele>202.6</ele>
        <time>2023-04-10T08:47:11Z</time>
      </trkpt>
      <trkpt lat="48.10791" lon="-3.22289">
        <ele>202.6</ele>
        <time>2023-04-10T08:47:12Z</time>
      </trkpt>
      <trkpt lat="48.10786" lon="-3.2229">
        <ele>202.8</ele>
        <time>2023-04-10T08:47:13Z</time>
      </trkpt>
      <trkpt lat="48.10782" lon="-3.22291">
        <ele>202.8</ele>
        <time>2023-04-10T08:47:14Z</time>
      </trkpt>
      <trkpt lat="48.10777" lon="-3.22292">
        <ele>202.8</ele>
        <time>2023-04-10T08:47:15Z</time>
      </trkpt>
      <trkpt lat="48.10772" lon="-3.22294">
        <ele>203</ele>
        <time>2023-04-10T08:47:16Z</time>
      </trkpt>
      <trkpt lat="48.10767" lon="-3.22295">
        <ele>203</ele>
        <time>2023-04-10T08:47:17Z</time>
      </trkpt>
      <trkpt lat="48.10763" lon="-3.22297">
        <ele>203</ele>
        <time>2023-04-10T08:47:18Z</time>
      </trkpt>
      <trkpt lat="48.10758" lon="-3.22298">
        <ele>203</ele>
        <time>2023-04-10T08:47:19Z</time>
      </trkpt>
      <trkpt lat="48.10738" lon="-3.22306">
        <ele>203.6</ele>
        <time>2023-04-10T08:47:23Z</time>
      </trkpt>
      <trkpt lat="48.10728" lon="-3.22309">
        <ele>203.8</ele>
        <time>2023-04-10T08:47:25Z</time>
      </trkpt>
      <trkpt lat="48.10686" lon="-3.22316">
        <ele>203.8</ele>
        <time>2023-04-10T08:47:33Z</time>
      </trkpt>
      <trkpt lat="48.10681" lon="-3.22316">
        <ele>203.8</ele>
        <time>2023-04-10T08:47:34Z</time>
      </trkpt>
      <trkpt lat="48.10659" lon="-3.22315">
        <ele>204</ele>
        <time>2023-04-10T08:47:38Z</time>
      </trkpt>
      <trkpt lat="48.10654" lon="-3.22314">
        <ele>204</ele>
        <time>2023-04-10T08:47:39Z</time>
      </trkpt>
      <trkpt lat="48.10649" lon="-3.22313">
        <ele>204.2</ele>
        <time>2023-04-10T08:47:40Z</time>
      </trkpt>
      <trkpt lat="48.10644" lon="-3.22313">
        <ele>204.2</ele>
        <time>2023-04-10T08:47:41Z</time>
      </trkpt>
      <trkpt lat="48.1064" lon="-3.22312">
        <ele>204.2</ele>
        <time>2023-04-10T08:47:42Z</time>
      </trkpt>
      <trkpt lat="48.10635" lon="-3.22312">
        <ele>204.2</ele>
        <time>2023-04-10T08:47:43Z</time>
      </trkpt>
      <trkpt lat="48.10629" lon="-3.22311">
        <ele>204.2</ele>
        <time>2023-04-10T08:47:44Z</time>
      </trkpt>
      <trkpt lat="48.10626" lon="-3.22311">
        <ele>204.2</ele>
        <time>2023-04-10T08:47:45Z</time>
      </trkpt>
      <trkpt lat="48.10579" lon="-3.22305">
        <ele>203.8</ele>
        <time>2023-04-10T08:47:54Z</time>
      </trkpt>
      <trkpt lat="48.10542" lon="-3.22298">
        <ele>203.2</ele>
        <time>2023-04-10T08:47:59Z</time>
      </trkpt>
      <trkpt lat="48.10517" lon="-3.22284">
        <ele>202.4</ele>
        <time>2023-04-10T08:48:02Z</time>
      </trkpt>
      <trkpt lat="48.10508" lon="-3.22279">
        <ele>202.2</ele>
        <time>2023-04-10T08:48:03Z</time>
      </trkpt>
      <trkpt lat="48.10492" lon="-3.22266">
        <ele>201.4</ele>
        <time>2023-04-10T08:48:05Z</time>
      </trkpt>
      <trkpt lat="48.10475" lon="-3.22253">
        <ele>200</ele>
        <time>2023-04-10T08:48:07Z</time>
      </trkpt>
      <trkpt lat="48.10458" lon="-3.2224">
        <ele>198.6</ele>
        <time>2023-04-10T08:48:09Z</time>
      </trkpt>
      <trkpt lat="48.1045" lon="-3.22233">
        <ele>198</ele>
        <time>2023-04-10T08:48:10Z</time>
      </trkpt>
      <trkpt lat="48.10443" lon="-3.22227">
        <ele>197.2</ele>
        <time>2023-04-10T08:48:11Z</time>
      </trkpt>
      <trkpt lat="48.10435" lon="-3.2222">
        <ele>196.6</ele>
        <time>2023-04-10T08:48:12Z</time>
      </trkpt>
      <trkpt lat="48.10427" lon="-3.22213">
        <ele>195.8</ele>
        <time>2023-04-10T08:48:13Z</time>
      </trkpt>
      <trkpt lat="48.1042" lon="-3.22207">
        <ele>195.2</ele>
        <time>2023-04-10T08:48:14Z</time>
      </trkpt>
      <trkpt lat="48.10413" lon="-3.22201">
        <ele>194.8</ele>
        <time>2023-04-10T08:48:15Z</time>
      </trkpt>
      <trkpt lat="48.10407" lon="-3.22195">
        <ele>194.2</ele>
        <time>2023-04-10T08:48:16Z</time>
      </trkpt>
      <trkpt lat="48.10401" lon="-3.2219">
        <ele>193.6</ele>
        <time>2023-04-10T08:48:17Z</time>
      </trkpt>
      <trkpt lat="48.10395" lon="-3.22184">
        <ele>193</ele>
        <time>2023-04-10T08:48:18Z</time>
      </trkpt>
      <trkpt lat="48.10389" lon="-3.2218">
        <ele>193</ele>
        <time>2023-04-10T08:48:19Z</time>
      </trkpt>
      <trkpt lat="48.10383" lon="-3.22175">
        <ele>192.4</ele>
        <time>2023-04-10T08:48:20Z</time>
      </trkpt>
      <trkpt lat="48.10378" lon="-3.22171">
        <ele>192.2</ele>
        <time>2023-04-10T08:48:21Z</time>
      </trkpt>
      <trkpt lat="48.10373" lon="-3.22167">
        <ele>192</ele>
        <time>2023-04-10T08:48:22Z</time>
      </trkpt>
      <trkpt lat="48.10368" lon="-3.22163">
        <ele>191.8</ele>
        <time>2023-04-10T08:48:23Z</time>
      </trkpt>
      <trkpt lat="48.10363" lon="-3.22159">
        <ele>191.6</ele>
        <time>2023-04-10T08:48:24Z</time>
      </trkpt>
      <trkpt lat="48.10342" lon="-3.22142">
        <ele>191.2</ele>
        <time>2023-04-10T08:48:28Z</time>
      </trkpt>
      <trkpt lat="48.10337" lon="-3.22139">
        <ele>191.2</ele>
        <time>2023-04-10T08:48:29Z</time>
      </trkpt>
      <trkpt lat="48.10332" lon="-3.22135">
        <ele>191</ele>
        <time>2023-04-10T08:48:30Z</time>
      </trkpt>
      <trkpt lat="48.10322" lon="-3.22128">
        <ele>191</ele>
        <time>2023-04-10T08:48:32Z</time>
      </trkpt>
      <trkpt lat="48.10317" lon="-3.22125">
        <ele>191</ele>
        <time>2023-04-10T08:48:33Z</time>
      </trkpt>
      <trkpt lat="48.10311" lon="-3.22122">
        <ele>191</ele>
        <time>2023-04-10T08:48:34Z</time>
      </trkpt>
      <trkpt lat="48.10306" lon="-3.22119">
        <ele>190.8</ele>
        <time>2023-04-10T08:48:35Z</time>
      </trkpt>
      <trkpt lat="48.10301" lon="-3.22116">
        <ele>190.8</ele>
        <time>2023-04-10T08:48:36Z</time>
      </trkpt>
      <trkpt lat="48.10263" lon="-3.22095">
        <ele>190.6</ele>
        <time>2023-04-10T08:48:43Z</time>
      </trkpt>
      <trkpt lat="48.10246" lon="-3.22086">
        <ele>190.2</ele>
        <time>2023-04-10T08:48:46Z</time>
      </trkpt>
      <trkpt lat="48.10221" lon="-3.22073">
        <ele>189.8</ele>
        <time>2023-04-10T08:48:50Z</time>
      </trkpt>
      <trkpt lat="48.10204" lon="-3.22062">
        <ele>189.6</ele>
        <time>2023-04-10T08:48:53Z</time>
      </trkpt>
      <trkpt lat="48.10198" lon="-3.22059">
        <ele>189.6</ele>
        <time>2023-04-10T08:48:54Z</time>
      </trkpt>
      <trkpt lat="48.10193" lon="-3.22055">
        <ele>189.6</ele>
        <time>2023-04-10T08:48:55Z</time>
      </trkpt>
      <trkpt lat="48.10188" lon="-3.2205">
        <ele>189.6</ele>
        <time>2023-04-10T08:48:56Z</time>
      </trkpt>
      <trkpt lat="48.1018" lon="-3.22037">
        <ele>189.6</ele>
        <time>2023-04-10T08:48:58Z</time>
      </trkpt>
      <trkpt lat="48.10176" lon="-3.22029">
        <ele>189.6</ele>
        <time>2023-04-10T08:48:59Z</time>
      </trkpt>
      <trkpt lat="48.10174" lon="-3.2202">
        <ele>189.4</ele>
        <time>2023-04-10T08:49:00Z</time>
      </trkpt>
      <trkpt lat="48.10172" lon="-3.22011">
        <ele>189.2</ele>
        <time>2023-04-10T08:49:01Z</time>
      </trkpt>
      <trkpt lat="48.10172" lon="-3.22001">
        <ele>189</ele>
        <time>2023-04-10T08:49:02Z</time>
      </trkpt>
      <trkpt lat="48.10172" lon="-3.21991">
        <ele>189</ele>
        <time>2023-04-10T08:49:03Z</time>
      </trkpt>
      <trkpt lat="48.10173" lon="-3.2198">
        <ele>189</ele>
        <time>2023-04-10T08:49:04Z</time>
      </trkpt>
      <trkpt lat="48.10174" lon="-3.2197">
        <ele>188.8</ele>
        <time>2023-04-10T08:49:05Z</time>
      </trkpt>
      <trkpt lat="48.10174" lon="-3.2196">
        <ele>188.8</ele>
        <time>2023-04-10T08:49:06Z</time>
      </trkpt>
      <trkpt lat="48.10175" lon="-3.21949">
        <ele>188.4</ele>
        <time>2023-04-10T08:49:07Z</time>
      </trkpt>
      <trkpt lat="48.10177" lon="-3.21915">
        <ele>188.2</ele>
        <time>2023-04-10T08:49:10Z</time>
      </trkpt>
      <trkpt lat="48.10179" lon="-3.21871">
        <ele>187.8</ele>
        <time>2023-04-10T08:49:14Z</time>
      </trkpt>
      <trkpt lat="48.10179" lon="-3.21859">
        <ele>187.6</ele>
        <time>2023-04-10T08:49:15Z</time>
      </trkpt>
      <trkpt lat="48.1018" lon="-3.21848">
        <ele>187.6</ele>
        <time>2023-04-10T08:49:16Z</time>
      </trkpt>
      <trkpt lat="48.1018" lon="-3.21838">
        <ele>187.6</ele>
        <time>2023-04-10T08:49:17Z</time>
      </trkpt>
      <trkpt lat="48.1018" lon="-3.21828">
        <ele>187.6</ele>
        <time>2023-04-10T08:49:18Z</time>
      </trkpt>
      <trkpt lat="48.1018" lon="-3.21818">
        <ele>187.4</ele>
        <time>2023-04-10T08:49:19Z</time>
      </trkpt>
      <trkpt lat="48.1018" lon="-3.2181">
        <ele>187.4</ele>
        <time>2023-04-10T08:49:20Z</time>
      </trkpt>
      <trkpt lat="48.1018" lon="-3.218">
        <ele>187.4</ele>
        <time>2023-04-10T08:49:21Z</time>
      </trkpt>
      <trkpt lat="48.10179" lon="-3.21789">
        <ele>187.4</ele>
        <time>2023-04-10T08:49:22Z</time>
      </trkpt>
      <trkpt lat="48.10176" lon="-3.2177">
        <ele>187.2</ele>
        <time>2023-04-10T08:49:24Z</time>
      </trkpt>
      <trkpt lat="48.10172" lon="-3.21761">
        <ele>187.2</ele>
        <time>2023-04-10T08:49:25Z</time>
      </trkpt>
      <trkpt lat="48.10167" lon="-3.21753">
        <ele>187</ele>
        <time>2023-04-10T08:49:26Z</time>
      </trkpt>
      <trkpt lat="48.10161" lon="-3.21747">
        <ele>186.8</ele>
        <time>2023-04-10T08:49:27Z</time>
      </trkpt>
      <trkpt lat="48.10155" lon="-3.21743">
        <ele>186.8</ele>
        <time>2023-04-10T08:49:28Z</time>
      </trkpt>
      <trkpt lat="48.10149" lon="-3.21741">
        <ele>186.8</ele>
        <time>2023-04-10T08:49:29Z</time>
      </trkpt>
      <trkpt lat="48.10142" lon="-3.21739">
        <ele>186.8</ele>
        <time>2023-04-10T08:49:30Z</time>
      </trkpt>
      <trkpt lat="48.10137" lon="-3.21737">
        <ele>186.8</ele>
        <time>2023-04-10T08:49:31Z</time>
      </trkpt>
      <trkpt lat="48.10131" lon="-3.21735">
        <ele>186.6</ele>
        <time>2023-04-10T08:49:32Z</time>
      </trkpt>
      <trkpt lat="48.10126" lon="-3.21733">
        <ele>186.6</ele>
        <time>2023-04-10T08:49:33Z</time>
      </trkpt>
      <trkpt lat="48.10119" lon="-3.21729">
        <ele>186.6</ele>
        <time>2023-04-10T08:49:34Z</time>
      </trkpt>
      <trkpt lat="48.10114" lon="-3.21724">
        <ele>186.6</ele>
        <time>2023-04-10T08:49:35Z</time>
      </trkpt>
      <trkpt lat="48.101" lon="-3.21707">
        <ele>186.6</ele>
        <time>2023-04-10T08:49:38Z</time>
      </trkpt>
      <trkpt lat="48.1008" lon="-3.21684">
        <ele>186.8</ele>
        <time>2023-04-10T08:49:42Z</time>
      </trkpt>
      <trkpt lat="48.10068" lon="-3.21676">
        <ele>186.8</ele>
        <time>2023-04-10T08:49:44Z</time>
      </trkpt>
      <trkpt lat="48.1005" lon="-3.21667">
        <ele>186.8</ele>
        <time>2023-04-10T08:49:47Z</time>
      </trkpt>
      <trkpt lat="48.10046" lon="-3.21663">
        <ele>186.8</ele>
        <time>2023-04-10T08:49:48Z</time>
      </trkpt>
      <trkpt lat="48.10042" lon="-3.2166">
        <ele>186.8</ele>
        <time>2023-04-10T08:49:49Z</time>
      </trkpt>
      <trkpt lat="48.10037" lon="-3.21655">
        <ele>187</ele>
        <time>2023-04-10T08:49:50Z</time>
      </trkpt>
      <trkpt lat="48.10013" lon="-3.21634">
        <ele>186.2</ele>
        <time>2023-04-10T08:49:55Z</time>
      </trkpt>
      <trkpt lat="48.10007" lon="-3.21632">
        <ele>186</ele>
        <time>2023-04-10T08:49:56Z</time>
      </trkpt>
      <trkpt lat="48.10002" lon="-3.21631">
        <ele>185.8</ele>
        <time>2023-04-10T08:49:57Z</time>
      </trkpt>
      <trkpt lat="48.09997" lon="-3.21632">
        <ele>185.8</ele>
        <time>2023-04-10T08:49:58Z</time>
      </trkpt>
      <trkpt lat="48.09992" lon="-3.21635">
        <ele>185.8</ele>
        <time>2023-04-10T08:49:59Z</time>
      </trkpt>
      <trkpt lat="48.09987" lon="-3.21639">
        <ele>185.8</ele>
        <time>2023-04-10T08:50:00Z</time>
      </trkpt>
      <trkpt lat="48.09985" lon="-3.21644">
        <ele>185.8</ele>
        <time>2023-04-10T08:50:01Z</time>
      </trkpt>
      <trkpt lat="48.09981" lon="-3.2165">
        <ele>185.8</ele>
        <time>2023-04-10T08:50:02Z</time>
      </trkpt>
      <trkpt lat="48.0998" lon="-3.21656">
        <ele>185.8</ele>
        <time>2023-04-10T08:50:03Z</time>
      </trkpt>
      <trkpt lat="48.09979" lon="-3.21662">
        <ele>185.8</ele>
        <time>2023-04-10T08:50:04Z</time>
      </trkpt>
      <trkpt lat="48.09978" lon="-3.21667">
        <ele>185.8</ele>
        <time>2023-04-10T08:50:05Z</time>
      </trkpt>
      <trkpt lat="48.09977" lon="-3.21672">
        <ele>185.8</ele>
        <time>2023-04-10T08:50:06Z</time>
      </trkpt>
      <trkpt lat="48.09976" lon="-3.21677">
        <ele>185.8</ele>
        <time>2023-04-10T08:50:07Z</time>
      </trkpt>
      <trkpt lat="48.09974" lon="-3.21683">
        <ele>186</ele>
        <time>2023-04-10T08:50:08Z</time>
      </trkpt>
      <trkpt lat="48.09972" lon="-3.21688">
        <ele>186</ele>
        <time>2023-04-10T08:50:09Z</time>
      </trkpt>
      <trkpt lat="48.0997" lon="-3.21692">
        <ele>186.2</ele>
        <time>2023-04-10T08:50:10Z</time>
      </trkpt>
      <trkpt lat="48.09968" lon="-3.21695">
        <ele>186.4</ele>
        <time>2023-04-10T08:50:11Z</time>
      </trkpt>
      <trkpt lat="48.09963" lon="-3.217">
        <ele>186.6</ele>
        <time>2023-04-10T08:50:13Z</time>
      </trkpt>
      <trkpt lat="48.09961" lon="-3.21701">
        <ele>187.2</ele>
        <time>2023-04-10T08:50:14Z</time>
      </trkpt>
      <trkpt lat="48.09958" lon="-3.21702">
        <ele>187.4</ele>
        <time>2023-04-10T08:50:15Z</time>
      </trkpt>
      <trkpt lat="48.09954" lon="-3.21702">
        <ele>187.8</ele>
        <time>2023-04-10T08:50:16Z</time>
      </trkpt>
      <trkpt lat="48.09951" lon="-3.21703">
        <ele>188</ele>
        <time>2023-04-10T08:50:17Z</time>
      </trkpt>
      <trkpt lat="48.09948" lon="-3.21703">
        <ele>188.2</ele>
        <time>2023-04-10T08:50:18Z</time>
      </trkpt>
      <trkpt lat="48.09945" lon="-3.21702">
        <ele>188.2</ele>
        <time>2023-04-10T08:50:19Z</time>
      </trkpt>
      <trkpt lat="48.09941" lon="-3.21702">
        <ele>188.4</ele>
        <time>2023-04-10T08:50:20Z</time>
      </trkpt>
      <trkpt lat="48.09939" lon="-3.21703">
        <ele>188.6</ele>
        <time>2023-04-10T08:50:21Z</time>
      </trkpt>
      <trkpt lat="48.09936" lon="-3.21703">
        <ele>188.8</ele>
        <time>2023-04-10T08:50:22Z</time>
      </trkpt>
      <trkpt lat="48.09933" lon="-3.21704">
        <ele>188.8</ele>
        <time>2023-04-10T08:50:23Z</time>
      </trkpt>
      <trkpt lat="48.09931" lon="-3.21704">
        <ele>189</ele>
        <time>2023-04-10T08:50:24Z</time>
      </trkpt>
      <trkpt lat="48.09928" lon="-3.21704">
        <ele>189.2</ele>
        <time>2023-04-10T08:50:25Z</time>
      </trkpt>
      <trkpt lat="48.09925" lon="-3.21705">
        <ele>189.2</ele>
        <time>2023-04-10T08:50:26Z</time>
      </trkpt>
      <trkpt lat="48.09923" lon="-3.21705">
        <ele>189.4</ele>
        <time>2023-04-10T08:50:27Z</time>
      </trkpt>
      <trkpt lat="48.0992" lon="-3.21705">
        <ele>189.6</ele>
        <time>2023-04-10T08:50:28Z</time>
      </trkpt>
      <trkpt lat="48.09919" lon="-3.21705">
        <ele>189.8</ele>
        <time>2023-04-10T08:50:29Z</time>
      </trkpt>
      <trkpt lat="48.09916" lon="-3.21705">
        <ele>190</ele>
        <time>2023-04-10T08:50:30Z</time>
      </trkpt>
      <trkpt lat="48.09914" lon="-3.21706">
        <ele>190</ele>
        <time>2023-04-10T08:50:31Z</time>
      </trkpt>
      <trkpt lat="48.09912" lon="-3.21706">
        <ele>190.2</ele>
        <time>2023-04-10T08:50:32Z</time>
      </trkpt>
      <trkpt lat="48.09911" lon="-3.21707">
        <ele>190.4</ele>
        <time>2023-04-10T08:50:33Z</time>
      </trkpt>
      <trkpt lat="48.09908" lon="-3.21707">
        <ele>190.6</ele>
        <time>2023-04-10T08:50:34Z</time>
      </trkpt>
      <trkpt lat="48.09906" lon="-3.21708">
        <ele>191</ele>
        <time>2023-04-10T08:50:35Z</time>
      </trkpt>
      <trkpt lat="48.09904" lon="-3.21709">
        <ele>191.2</ele>
        <time>2023-04-10T08:50:36Z</time>
      </trkpt>
      <trkpt lat="48.09902" lon="-3.21709">
        <ele>191.6</ele>
        <time>2023-04-10T08:50:37Z</time>
      </trkpt>
      <trkpt lat="48.09899" lon="-3.21709">
        <ele>192</ele>
        <time>2023-04-10T08:50:38Z</time>
      </trkpt>
      <trkpt lat="48.09896" lon="-3.21709">
        <ele>192.2</ele>
        <time>2023-04-10T08:50:39Z</time>
      </trkpt>
      <trkpt lat="48.09893" lon="-3.2171">
        <ele>192.4</ele>
        <time>2023-04-10T08:50:40Z</time>
      </trkpt>
      <trkpt lat="48.09891" lon="-3.2171">
        <ele>192.6</ele>
        <time>2023-04-10T08:50:41Z</time>
      </trkpt>
      <trkpt lat="48.09888" lon="-3.2171">
        <ele>192.8</ele>
        <time>2023-04-10T08:50:42Z</time>
      </trkpt>
      <trkpt lat="48.09886" lon="-3.2171">
        <ele>193</ele>
        <time>2023-04-10T08:50:43Z</time>
      </trkpt>
      <trkpt lat="48.09883" lon="-3.2171">
        <ele>193.4</ele>
        <time>2023-04-10T08:50:44Z</time>
      </trkpt>
      <trkpt lat="48.09881" lon="-3.2171">
        <ele>193.6</ele>
        <time>2023-04-10T08:50:45Z</time>
      </trkpt>
      <trkpt lat="48.09879" lon="-3.2171">
        <ele>193.8</ele>
        <time>2023-04-10T08:50:46Z</time>
      </trkpt>
      <trkpt lat="48.09877" lon="-3.21711">
        <ele>194.2</ele>
        <time>2023-04-10T08:50:47Z</time>
      </trkpt>
      <trkpt lat="48.09875" lon="-3.21711">
        <ele>194.6</ele>
        <time>2023-04-10T08:50:48Z</time>
      </trkpt>
      <trkpt lat="48.09872" lon="-3.21711">
        <ele>194.8</ele>
        <time>2023-04-10T08:50:49Z</time>
      </trkpt>
      <trkpt lat="48.09868" lon="-3.21711">
        <ele>195.2</ele>
        <time>2023-04-10T08:50:50Z</time>
      </trkpt>
      <trkpt lat="48.09866" lon="-3.21711">
        <ele>195.2</ele>
        <time>2023-04-10T08:50:51Z</time>
      </trkpt>
      <trkpt lat="48.09864" lon="-3.21711">
        <ele>195.6</ele>
        <time>2023-04-10T08:50:52Z</time>
      </trkpt>
      <trkpt lat="48.09863" lon="-3.21712">
        <ele>195.6</ele>
        <time>2023-04-10T08:50:53Z</time>
      </trkpt>
      <trkpt lat="48.0986" lon="-3.21713">
        <ele>195.8</ele>
        <time>2023-04-10T08:50:54Z</time>
      </trkpt>
      <trkpt lat="48.09858" lon="-3.21713">
        <ele>196</ele>
        <time>2023-04-10T08:50:55Z</time>
      </trkpt>
      <trkpt lat="48.09857" lon="-3.21714">
        <ele>196.2</ele>
        <time>2023-04-10T08:50:56Z</time>
      </trkpt>
      <trkpt lat="48.09855" lon="-3.21715">
        <ele>196.6</ele>
        <time>2023-04-10T08:50:57Z</time>
      </trkpt>
      <trkpt lat="48.09852" lon="-3.21716">
        <ele>196.6</ele>
        <time>2023-04-10T08:50:58Z</time>
      </trkpt>
      <trkpt lat="48.0985" lon="-3.21719">
        <ele>197</ele>
        <time>2023-04-10T08:50:59Z</time>
      </trkpt>
      <trkpt lat="48.09848" lon="-3.21721">
        <ele>197.4</ele>
        <time>2023-04-10T08:51:00Z</time>
      </trkpt>
      <trkpt lat="48.09845" lon="-3.21722">
        <ele>197.6</ele>
        <time>2023-04-10T08:51:01Z</time>
      </trkpt>
      <trkpt lat="48.09842" lon="-3.21725">
        <ele>197.8</ele>
        <time>2023-04-10T08:51:02Z</time>
      </trkpt>
      <trkpt lat="48.0984" lon="-3.21728">
        <ele>198.2</ele>
        <time>2023-04-10T08:51:03Z</time>
      </trkpt>
      <trkpt lat="48.09837" lon="-3.2173">
        <ele>198.4</ele>
        <time>2023-04-10T08:51:04Z</time>
      </trkpt>
      <trkpt lat="48.09836" lon="-3.21733">
        <ele>198.8</ele>
        <time>2023-04-10T08:51:05Z</time>
      </trkpt>
      <trkpt lat="48.09835" lon="-3.21733">
        <ele>199</ele>
        <time>2023-04-10T08:51:06Z</time>
      </trkpt>
      <trkpt lat="48.09833" lon="-3.21735">
        <ele>199.2</ele>
        <time>2023-04-10T08:51:07Z</time>
      </trkpt>
      <trkpt lat="48.09831" lon="-3.21736">
        <ele>199.2</ele>
        <time>2023-04-10T08:51:08Z</time>
      </trkpt>
      <trkpt lat="48.09831" lon="-3.21739">
        <ele>199.4</ele>
        <time>2023-04-10T08:51:09Z</time>
      </trkpt>
      <trkpt lat="48.09829" lon="-3.21743">
        <ele>199.6</ele>
        <time>2023-04-10T08:51:10Z</time>
      </trkpt>
      <trkpt lat="48.09828" lon="-3.21745">
        <ele>200</ele>
        <time>2023-04-10T08:51:11Z</time>
      </trkpt>
      <trkpt lat="48.09827" lon="-3.21746">
        <ele>200.2</ele>
        <time>2023-04-10T08:51:12Z</time>
      </trkpt>
      <trkpt lat="48.09826" lon="-3.21748">
        <ele>200.4</ele>
        <time>2023-04-10T08:51:13Z</time>
      </trkpt>
      <trkpt lat="48.09825" lon="-3.21749">
        <ele>200.8</ele>
        <time>2023-04-10T08:51:14Z</time>
      </trkpt>
      <trkpt lat="48.09824" lon="-3.21751">
        <ele>200.8</ele>
        <time>2023-04-10T08:51:15Z</time>
      </trkpt>
      <trkpt lat="48.09823" lon="-3.21753">
        <ele>201</ele>
        <time>2023-04-10T08:51:16Z</time>
      </trkpt>
      <trkpt lat="48.09822" lon="-3.21755">
        <ele>201.2</ele>
        <time>2023-04-10T08:51:17Z</time>
      </trkpt>
      <trkpt lat="48.0982" lon="-3.21757">
        <ele>201.4</ele>
        <time>2023-04-10T08:51:18Z</time>
      </trkpt>
      <trkpt lat="48.0982" lon="-3.2176">
        <ele>201.6</ele>
        <time>2023-04-10T08:51:19Z</time>
      </trkpt>
      <trkpt lat="48.09819" lon="-3.21762">
        <ele>201.8</ele>
        <time>2023-04-10T08:51:20Z</time>
      </trkpt>
      <trkpt lat="48.09818" lon="-3.21763">
        <ele>202</ele>
        <time>2023-04-10T08:51:21Z</time>
      </trkpt>
      <trkpt lat="48.09817" lon="-3.21766">
        <ele>202.2</ele>
        <time>2023-04-10T08:51:22Z</time>
      </trkpt>
      <trkpt lat="48.09816" lon="-3.21767">
        <ele>202.6</ele>
        <time>2023-04-10T08:51:23Z</time>
      </trkpt>
      <trkpt lat="48.09816" lon="-3.21769">
        <ele>202.8</ele>
        <time>2023-04-10T08:51:24Z</time>
      </trkpt>
      <trkpt lat="48.09815" lon="-3.21771">
        <ele>203</ele>
        <time>2023-04-10T08:51:25Z</time>
      </trkpt>
      <trkpt lat="48.09814" lon="-3.21773">
        <ele>203.4</ele>
        <time>2023-04-10T08:51:26Z</time>
      </trkpt>
      <trkpt lat="48.09813" lon="-3.21775">
        <ele>203.8</ele>
        <time>2023-04-10T08:51:27Z</time>
      </trkpt>
      <trkpt lat="48.09812" lon="-3.21776">
        <ele>204</ele>
        <time>2023-04-10T08:51:28Z</time>
      </trkpt>
      <trkpt lat="48.0981" lon="-3.21776">
        <ele>204.2</ele>
        <time>2023-04-10T08:51:29Z</time>
      </trkpt>
      <trkpt lat="48.09808" lon="-3.21777">
        <ele>204.4</ele>
        <time>2023-04-10T08:51:30Z</time>
      </trkpt>
      <trkpt lat="48.09807" lon="-3.21777">
        <ele>204.6</ele>
        <time>2023-04-10T08:51:31Z</time>
      </trkpt>
      <trkpt lat="48.09805" lon="-3.21778">
        <ele>204.8</ele>
        <time>2023-04-10T08:51:32Z</time>
      </trkpt>
      <trkpt lat="48.09804" lon="-3.21778">
        <ele>205.2</ele>
        <time>2023-04-10T08:51:33Z</time>
      </trkpt>
      <trkpt lat="48.09802" lon="-3.21779">
        <ele>205.4</ele>
        <time>2023-04-10T08:51:34Z</time>
      </trkpt>
      <trkpt lat="48.098" lon="-3.2178">
        <ele>205.6</ele>
        <time>2023-04-10T08:51:35Z</time>
      </trkpt>
      <trkpt lat="48.09799" lon="-3.2178">
        <ele>205.8</ele>
        <time>2023-04-10T08:51:36Z</time>
      </trkpt>
      <trkpt lat="48.09797" lon="-3.21781">
        <ele>205.8</ele>
        <time>2023-04-10T08:51:37Z</time>
      </trkpt>
      <trkpt lat="48.09796" lon="-3.21781">
        <ele>206</ele>
        <time>2023-04-10T08:51:38Z</time>
      </trkpt>
      <trkpt lat="48.09794" lon="-3.21781">
        <ele>206.2</ele>
        <time>2023-04-10T08:51:39Z</time>
      </trkpt>
      <trkpt lat="48.09792" lon="-3.21781">
        <ele>206.4</ele>
        <time>2023-04-10T08:51:40Z</time>
      </trkpt>
      <trkpt lat="48.09791" lon="-3.21781">
        <ele>206.8</ele>
        <time>2023-04-10T08:51:41Z</time>
      </trkpt>
      <trkpt lat="48.09789" lon="-3.21781">
        <ele>207</ele>
        <time>2023-04-10T08:51:42Z</time>
      </trkpt>
      <trkpt lat="48.09787" lon="-3.21781">
        <ele>207.2</ele>
        <time>2023-04-10T08:51:43Z</time>
      </trkpt>
      <trkpt lat="48.09786" lon="-3.21782">
        <ele>207.4</ele>
        <time>2023-04-10T08:51:44Z</time>
      </trkpt>
      <trkpt lat="48.09785" lon="-3.21784">
        <ele>207.8</ele>
        <time>2023-04-10T08:51:45Z</time>
      </trkpt>
      <trkpt lat="48.09783" lon="-3.21785">
        <ele>208</ele>
        <time>2023-04-10T08:51:46Z</time>
      </trkpt>
      <trkpt lat="48.09781" lon="-3.21785">
        <ele>208.2</ele>
        <time>2023-04-10T08:51:47Z</time>
      </trkpt>
      <trkpt lat="48.0978" lon="-3.21785">
        <ele>208.4</ele>
        <time>2023-04-10T08:51:48Z</time>
      </trkpt>
      <trkpt lat="48.09779" lon="-3.21784">
        <ele>208.6</ele>
        <time>2023-04-10T08:51:49Z</time>
      </trkpt>
      <trkpt lat="48.09777" lon="-3.21783">
        <ele>208.8</ele>
        <time>2023-04-10T08:51:50Z</time>
      </trkpt>
      <trkpt lat="48.09776" lon="-3.21783">
        <ele>209</ele>
        <time>2023-04-10T08:51:51Z</time>
      </trkpt>
      <trkpt lat="48.09775" lon="-3.21783">
        <ele>209.4</ele>
        <time>2023-04-10T08:51:52Z</time>
      </trkpt>
      <trkpt lat="48.09773" lon="-3.21783">
        <ele>209.6</ele>
        <time>2023-04-10T08:51:53Z</time>
      </trkpt>
      <trkpt lat="48.09772" lon="-3.21782">
        <ele>210</ele>
        <time>2023-04-10T08:51:54Z</time>
      </trkpt>
      <trkpt lat="48.0977" lon="-3.21781">
        <ele>210.2</ele>
        <time>2023-04-10T08:51:55Z</time>
      </trkpt>
      <trkpt lat="48.09769" lon="-3.2178">
        <ele>210.4</ele>
        <time>2023-04-10T08:51:56Z</time>
      </trkpt>
      <trkpt lat="48.09769" lon="-3.21779">
        <ele>210.6</ele>
        <time>2023-04-10T08:51:57Z</time>
      </trkpt>
      <trkpt lat="48.09768" lon="-3.21778">
        <ele>210.8</ele>
        <time>2023-04-10T08:51:58Z</time>
      </trkpt>
      <trkpt lat="48.09767" lon="-3.21777">
        <ele>210.8</ele>
        <time>2023-04-10T08:51:59Z</time>
      </trkpt>
      <trkpt lat="48.09765" lon="-3.21777">
        <ele>211</ele>
        <time>2023-04-10T08:52:00Z</time>
      </trkpt>
      <trkpt lat="48.09764" lon="-3.21777">
        <ele>211.2</ele>
        <time>2023-04-10T08:52:01Z</time>
      </trkpt>
      <trkpt lat="48.09762" lon="-3.21776">
        <ele>211.4</ele>
        <time>2023-04-10T08:52:02Z</time>
      </trkpt>
      <trkpt lat="48.0976" lon="-3.21775">
        <ele>211.4</ele>
        <time>2023-04-10T08:52:03Z</time>
      </trkpt>
      <trkpt lat="48.09758" lon="-3.21774">
        <ele>211.6</ele>
        <time>2023-04-10T08:52:04Z</time>
      </trkpt>
      <trkpt lat="48.09757" lon="-3.21773">
        <ele>211.8</ele>
        <time>2023-04-10T08:52:05Z</time>
      </trkpt>
      <trkpt lat="48.09756" lon="-3.21771">
        <ele>212.2</ele>
        <time>2023-04-10T08:52:06Z</time>
      </trkpt>
      <trkpt lat="48.09755" lon="-3.21769">
        <ele>212.4</ele>
        <time>2023-04-10T08:52:07Z</time>
      </trkpt>
      <trkpt lat="48.09754" lon="-3.21768">
        <ele>212.6</ele>
        <time>2023-04-10T08:52:08Z</time>
      </trkpt>
      <trkpt lat="48.09753" lon="-3.21766">
        <ele>212.8</ele>
        <time>2023-04-10T08:52:09Z</time>
      </trkpt>
      <trkpt lat="48.09751" lon="-3.21765">
        <ele>213</ele>
        <time>2023-04-10T08:52:10Z</time>
      </trkpt>
      <trkpt lat="48.09749" lon="-3.21764">
        <ele>213.2</ele>
        <time>2023-04-10T08:52:11Z</time>
      </trkpt>
      <trkpt lat="48.09747" lon="-3.21763">
        <ele>213.4</ele>
        <time>2023-04-10T08:52:12Z</time>
      </trkpt>
      <trkpt lat="48.09746" lon="-3.21762">
        <ele>213.6</ele>
        <time>2023-04-10T08:52:13Z</time>
      </trkpt>
      <trkpt lat="48.09744" lon="-3.21759">
        <ele>213.6</ele>
        <time>2023-04-10T08:52:14Z</time>
      </trkpt>
      <trkpt lat="48.09742" lon="-3.21757">
        <ele>213.8</ele>
        <time>2023-04-10T08:52:15Z</time>
      </trkpt>
      <trkpt lat="48.0974" lon="-3.21754">
        <ele>213.8</ele>
        <time>2023-04-10T08:52:16Z</time>
      </trkpt>
      <trkpt lat="48.09738" lon="-3.21752">
        <ele>214</ele>
        <time>2023-04-10T08:52:17Z</time>
      </trkpt>
      <trkpt lat="48.09737" lon="-3.21749">
        <ele>214.4</ele>
        <time>2023-04-10T08:52:18Z</time>
      </trkpt>
      <trkpt lat="48.09736" lon="-3.21747">
        <ele>214.8</ele>
        <time>2023-04-10T08:52:19Z</time>
      </trkpt>
      <trkpt lat="48.09735" lon="-3.21746">
        <ele>215.2</ele>
        <time>2023-04-10T08:52:20Z</time>
      </trkpt>
      <trkpt lat="48.09734" lon="-3.21744">
        <ele>215.2</ele>
        <time>2023-04-10T08:52:21Z</time>
      </trkpt>
      <trkpt lat="48.09732" lon="-3.21742">
        <ele>215.6</ele>
        <time>2023-04-10T08:52:22Z</time>
      </trkpt>
      <trkpt lat="48.09729" lon="-3.2174">
        <ele>216</ele>
        <time>2023-04-10T08:52:23Z</time>
      </trkpt>
      <trkpt lat="48.09726" lon="-3.21738">
        <ele>216.2</ele>
        <time>2023-04-10T08:52:24Z</time>
      </trkpt>
      <trkpt lat="48.09724" lon="-3.21736">
        <ele>216.4</ele>
        <time>2023-04-10T08:52:25Z</time>
      </trkpt>
      <trkpt lat="48.09724" lon="-3.21735">
        <ele>216.6</ele>
        <time>2023-04-10T08:52:26Z</time>
      </trkpt>
      <trkpt lat="48.09723" lon="-3.21733">
        <ele>216.8</ele>
        <time>2023-04-10T08:52:27Z</time>
      </trkpt>
      <trkpt lat="48.09721" lon="-3.21732">
        <ele>217</ele>
        <time>2023-04-10T08:52:28Z</time>
      </trkpt>
      <trkpt lat="48.0972" lon="-3.21732">
        <ele>217</ele>
        <time>2023-04-10T08:52:29Z</time>
      </trkpt>
      <trkpt lat="48.0972" lon="-3.21731">
        <ele>217.2</ele>
        <time>2023-04-10T08:52:30Z</time>
      </trkpt>
      <trkpt lat="48.09719" lon="-3.21727">
        <ele>217.4</ele>
        <time>2023-04-10T08:52:31Z</time>
      </trkpt>
      <trkpt lat="48.09717" lon="-3.21722">
        <ele>217.6</ele>
        <time>2023-04-10T08:52:32Z</time>
      </trkpt>
      <trkpt lat="48.09716" lon="-3.2172">
        <ele>217.8</ele>
        <time>2023-04-10T08:52:33Z</time>
      </trkpt>
      <trkpt lat="48.09715" lon="-3.21718">
        <ele>218</ele>
        <time>2023-04-10T08:52:34Z</time>
      </trkpt>
      <trkpt lat="48.09715" lon="-3.21716">
        <ele>218</ele>
        <time>2023-04-10T08:52:35Z</time>
      </trkpt>
      <trkpt lat="48.09713" lon="-3.21714">
        <ele>218.2</ele>
        <time>2023-04-10T08:52:36Z</time>
      </trkpt>
      <trkpt lat="48.0971" lon="-3.21712">
        <ele>218.4</ele>
        <time>2023-04-10T08:52:37Z</time>
      </trkpt>
      <trkpt lat="48.09707" lon="-3.2171">
        <ele>218.6</ele>
        <time>2023-04-10T08:52:38Z</time>
      </trkpt>
      <trkpt lat="48.09707" lon="-3.21709">
        <ele>218.8</ele>
        <time>2023-04-10T08:52:39Z</time>
      </trkpt>
      <trkpt lat="48.09706" lon="-3.21706">
        <ele>219</ele>
        <time>2023-04-10T08:52:40Z</time>
      </trkpt>
      <trkpt lat="48.09706" lon="-3.21702">
        <ele>219.2</ele>
        <time>2023-04-10T08:52:41Z</time>
      </trkpt>
      <trkpt lat="48.09706" lon="-3.21698">
        <ele>219.2</ele>
        <time>2023-04-10T08:52:42Z</time>
      </trkpt>
      <trkpt lat="48.09702" lon="-3.21693">
        <ele>219.2</ele>
        <time>2023-04-10T08:52:43Z</time>
      </trkpt>
      <trkpt lat="48.09699" lon="-3.2169">
        <ele>219.2</ele>
        <time>2023-04-10T08:52:44Z</time>
      </trkpt>
      <trkpt lat="48.09697" lon="-3.21688">
        <ele>219.2</ele>
        <time>2023-04-10T08:52:45Z</time>
      </trkpt>
      <trkpt lat="48.09696" lon="-3.21686">
        <ele>219.4</ele>
        <time>2023-04-10T08:52:46Z</time>
      </trkpt>
      <trkpt lat="48.09696" lon="-3.21683">
        <ele>219.8</ele>
        <time>2023-04-10T08:52:47Z</time>
      </trkpt>
      <trkpt lat="48.09695" lon="-3.2168">
        <ele>219.8</ele>
        <time>2023-04-10T08:52:48Z</time>
      </trkpt>
      <trkpt lat="48.09694" lon="-3.2168">
        <ele>220.2</ele>
        <time>2023-04-10T08:52:49Z</time>
      </trkpt>
      <trkpt lat="48.09692" lon="-3.21678">
        <ele>220.4</ele>
        <time>2023-04-10T08:52:50Z</time>
      </trkpt>
      <trkpt lat="48.0969" lon="-3.21676">
        <ele>220.4</ele>
        <time>2023-04-10T08:52:51Z</time>
      </trkpt>
      <trkpt lat="48.09686" lon="-3.21674">
        <ele>220.6</ele>
        <time>2023-04-10T08:52:52Z</time>
      </trkpt>
      <trkpt lat="48.09684" lon="-3.21672">
        <ele>221</ele>
        <time>2023-04-10T08:52:53Z</time>
      </trkpt>
      <trkpt lat="48.09684" lon="-3.2167">
        <ele>221</ele>
        <time>2023-04-10T08:52:54Z</time>
      </trkpt>
      <trkpt lat="48.09683" lon="-3.21668">
        <ele>221.6</ele>
        <time>2023-04-10T08:52:55Z</time>
      </trkpt>
      <trkpt lat="48.09681" lon="-3.21666">
        <ele>221.8</ele>
        <time>2023-04-10T08:52:56Z</time>
      </trkpt>
      <trkpt lat="48.0968" lon="-3.21664">
        <ele>221.8</ele>
        <time>2023-04-10T08:52:57Z</time>
      </trkpt>
      <trkpt lat="48.09678" lon="-3.21662">
        <ele>221.8</ele>
        <time>2023-04-10T08:52:58Z</time>
      </trkpt>
      <trkpt lat="48.09677" lon="-3.21659">
        <ele>222</ele>
        <time>2023-04-10T08:52:59Z</time>
      </trkpt>
      <trkpt lat="48.09677" lon="-3.21656">
        <ele>222.2</ele>
        <time>2023-04-10T08:53:00Z</time>
      </trkpt>
      <trkpt lat="48.09676" lon="-3.21655">
        <ele>222.2</ele>
        <time>2023-04-10T08:53:01Z</time>
      </trkpt>
      <trkpt lat="48.09675" lon="-3.21652">
        <ele>222.4</ele>
        <time>2023-04-10T08:53:02Z</time>
      </trkpt>
      <trkpt lat="48.09674" lon="-3.2165">
        <ele>222.4</ele>
        <time>2023-04-10T08:53:03Z</time>
      </trkpt>
      <trkpt lat="48.09671" lon="-3.21647">
        <ele>222.6</ele>
        <time>2023-04-10T08:53:04Z</time>
      </trkpt>
      <trkpt lat="48.09668" lon="-3.21643">
        <ele>222.6</ele>
        <time>2023-04-10T08:53:05Z</time>
      </trkpt>
      <trkpt lat="48.09665" lon="-3.21641">
        <ele>223</ele>
        <time>2023-04-10T08:53:06Z</time>
      </trkpt>
      <trkpt lat="48.09663" lon="-3.2164">
        <ele>223.2</ele>
        <time>2023-04-10T08:53:07Z</time>
      </trkpt>
      <trkpt lat="48.09662" lon="-3.21638">
        <ele>223.4</ele>
        <time>2023-04-10T08:53:08Z</time>
      </trkpt>
      <trkpt lat="48.09661" lon="-3.21637">
        <ele>223.8</ele>
        <time>2023-04-10T08:53:09Z</time>
      </trkpt>
      <trkpt lat="48.0966" lon="-3.21633">
        <ele>223.8</ele>
        <time>2023-04-10T08:53:10Z</time>
      </trkpt>
      <trkpt lat="48.09657" lon="-3.21631">
        <ele>224.2</ele>
        <time>2023-04-10T08:53:11Z</time>
      </trkpt>
      <trkpt lat="48.09655" lon="-3.21629">
        <ele>224.2</ele>
        <time>2023-04-10T08:53:12Z</time>
      </trkpt>
      <trkpt lat="48.09653" lon="-3.21628">
        <ele>224.4</ele>
        <time>2023-04-10T08:53:13Z</time>
      </trkpt>
      <trkpt lat="48.09651" lon="-3.21626">
        <ele>224.6</ele>
        <time>2023-04-10T08:53:14Z</time>
      </trkpt>
      <trkpt lat="48.0965" lon="-3.21624">
        <ele>224.8</ele>
        <time>2023-04-10T08:53:15Z</time>
      </trkpt>
      <trkpt lat="48.09648" lon="-3.21622">
        <ele>225</ele>
        <time>2023-04-10T08:53:16Z</time>
      </trkpt>
      <trkpt lat="48.09647" lon="-3.21621">
        <ele>225.2</ele>
        <time>2023-04-10T08:53:17Z</time>
      </trkpt>
      <trkpt lat="48.09645" lon="-3.21618">
        <ele>225.4</ele>
        <time>2023-04-10T08:53:18Z</time>
      </trkpt>
      <trkpt lat="48.09644" lon="-3.21616">
        <ele>225.6</ele>
        <time>2023-04-10T08:53:19Z</time>
      </trkpt>
      <trkpt lat="48.09642" lon="-3.21614">
        <ele>225.8</ele>
        <time>2023-04-10T08:53:20Z</time>
      </trkpt>
      <trkpt lat="48.09641" lon="-3.21612">
        <ele>226</ele>
        <time>2023-04-10T08:53:21Z</time>
      </trkpt>
      <trkpt lat="48.09639" lon="-3.2161">
        <ele>226.2</ele>
        <time>2023-04-10T08:53:22Z</time>
      </trkpt>
      <trkpt lat="48.09638" lon="-3.21608">
        <ele>226.4</ele>
        <time>2023-04-10T08:53:23Z</time>
      </trkpt>
      <trkpt lat="48.09637" lon="-3.21606">
        <ele>226.6</ele>
        <time>2023-04-10T08:53:24Z</time>
      </trkpt>
      <trkpt lat="48.09635" lon="-3.21604">
        <ele>226.6</ele>
        <time>2023-04-10T08:53:25Z</time>
      </trkpt>
      <trkpt lat="48.09633" lon="-3.21602">
        <ele>226.8</ele>
        <time>2023-04-10T08:53:26Z</time>
      </trkpt>
      <trkpt lat="48.09631" lon="-3.216">
        <ele>226.8</ele>
        <time>2023-04-10T08:53:27Z</time>
      </trkpt>
      <trkpt lat="48.09629" lon="-3.21597">
        <ele>227</ele>
        <time>2023-04-10T08:53:28Z</time>
      </trkpt>
      <trkpt lat="48.09627" lon="-3.21595">
        <ele>227</ele>
        <time>2023-04-10T08:53:29Z</time>
      </trkpt>
      <trkpt lat="48.09624" lon="-3.21592">
        <ele>227.2</ele>
        <time>2023-04-10T08:53:30Z</time>
      </trkpt>
      <trkpt lat="48.09622" lon="-3.21589">
        <ele>227.4</ele>
        <time>2023-04-10T08:53:31Z</time>
      </trkpt>
      <trkpt lat="48.0962" lon="-3.21587">
        <ele>227.4</ele>
        <time>2023-04-10T08:53:32Z</time>
      </trkpt>
      <trkpt lat="48.09618" lon="-3.21585">
        <ele>227.6</ele>
        <time>2023-04-10T08:53:33Z</time>
      </trkpt>
      <trkpt lat="48.09617" lon="-3.21583">
        <ele>227.8</ele>
        <time>2023-04-10T08:53:34Z</time>
      </trkpt>
      <trkpt lat="48.09615" lon="-3.2158">
        <ele>228</ele>
        <time>2023-04-10T08:53:35Z</time>
      </trkpt>
      <trkpt lat="48.09613" lon="-3.21577">
        <ele>228</ele>
        <time>2023-04-10T08:53:36Z</time>
      </trkpt>
      <trkpt lat="48.0961" lon="-3.21576">
        <ele>228.2</ele>
        <time>2023-04-10T08:53:37Z</time>
      </trkpt>
      <trkpt lat="48.09608" lon="-3.21573">
        <ele>228.2</ele>
        <time>2023-04-10T08:53:38Z</time>
      </trkpt>
      <trkpt lat="48.09607" lon="-3.21571">
        <ele>228.4</ele>
        <time>2023-04-10T08:53:39Z</time>
      </trkpt>
      <trkpt lat="48.09605" lon="-3.21569">
        <ele>228.6</ele>
        <time>2023-04-10T08:53:40Z</time>
      </trkpt>
      <trkpt lat="48.09601" lon="-3.21564">
        <ele>228.8</ele>
        <time>2023-04-10T08:53:41Z</time>
      </trkpt>
      <trkpt lat="48.09598" lon="-3.2156">
        <ele>229</ele>
        <time>2023-04-10T08:53:42Z</time>
      </trkpt>
      <trkpt lat="48.09597" lon="-3.21558">
        <ele>229</ele>
        <time>2023-04-10T08:53:43Z</time>
      </trkpt>
      <trkpt lat="48.09595" lon="-3.21555">
        <ele>229.2</ele>
        <time>2023-04-10T08:53:44Z</time>
      </trkpt>
      <trkpt lat="48.09593" lon="-3.21552">
        <ele>229.2</ele>
        <time>2023-04-10T08:53:45Z</time>
      </trkpt>
      <trkpt lat="48.0959" lon="-3.2155">
        <ele>229.4</ele>
        <time>2023-04-10T08:53:46Z</time>
      </trkpt>
      <trkpt lat="48.09588" lon="-3.21548">
        <ele>229.4</ele>
        <time>2023-04-10T08:53:47Z</time>
      </trkpt>
      <trkpt lat="48.09585" lon="-3.21546">
        <ele>229.6</ele>
        <time>2023-04-10T08:53:48Z</time>
      </trkpt>
      <trkpt lat="48.09583" lon="-3.21542">
        <ele>229.6</ele>
        <time>2023-04-10T08:53:49Z</time>
      </trkpt>
      <trkpt lat="48.0958" lon="-3.21539">
        <ele>229.6</ele>
        <time>2023-04-10T08:53:50Z</time>
      </trkpt>
      <trkpt lat="48.09576" lon="-3.21536">
        <ele>229.6</ele>
        <time>2023-04-10T08:53:51Z</time>
      </trkpt>
      <trkpt lat="48.09572" lon="-3.21533">
        <ele>229.8</ele>
        <time>2023-04-10T08:53:52Z</time>
      </trkpt>
      <trkpt lat="48.0957" lon="-3.21531">
        <ele>229.8</ele>
        <time>2023-04-10T08:53:53Z</time>
      </trkpt>
      <trkpt lat="48.09569" lon="-3.21528">
        <ele>230</ele>
        <time>2023-04-10T08:53:54Z</time>
      </trkpt>
      <trkpt lat="48.09568" lon="-3.21523">
        <ele>230.2</ele>
        <time>2023-04-10T08:53:55Z</time>
      </trkpt>
      <trkpt lat="48.09567" lon="-3.21518">
        <ele>230.4</ele>
        <time>2023-04-10T08:53:56Z</time>
      </trkpt>
      <trkpt lat="48.09564" lon="-3.21515">
        <ele>230.4</ele>
        <time>2023-04-10T08:53:57Z</time>
      </trkpt>
      <trkpt lat="48.09562" lon="-3.21512">
        <ele>230.6</ele>
        <time>2023-04-10T08:53:58Z</time>
      </trkpt>
      <trkpt lat="48.0956" lon="-3.21509">
        <ele>230.8</ele>
        <time>2023-04-10T08:53:59Z</time>
      </trkpt>
      <trkpt lat="48.09558" lon="-3.21504">
        <ele>231</ele>
        <time>2023-04-10T08:54:00Z</time>
      </trkpt>
      <trkpt lat="48.09555" lon="-3.215">
        <ele>231</ele>
        <time>2023-04-10T08:54:01Z</time>
      </trkpt>
      <trkpt lat="48.09553" lon="-3.21497">
        <ele>231.2</ele>
        <time>2023-04-10T08:54:02Z</time>
      </trkpt>
      <trkpt lat="48.0955" lon="-3.21493">
        <ele>231.2</ele>
        <time>2023-04-10T08:54:03Z</time>
      </trkpt>
      <trkpt lat="48.09547" lon="-3.2149">
        <ele>231.4</ele>
        <time>2023-04-10T08:54:04Z</time>
      </trkpt>
      <trkpt lat="48.09546" lon="-3.21488">
        <ele>231.4</ele>
        <time>2023-04-10T08:54:05Z</time>
      </trkpt>
      <trkpt lat="48.09544" lon="-3.21483">
        <ele>231.4</ele>
        <time>2023-04-10T08:54:06Z</time>
      </trkpt>
      <trkpt lat="48.09543" lon="-3.21478">
        <ele>231.6</ele>
        <time>2023-04-10T08:54:07Z</time>
      </trkpt>
      <trkpt lat="48.09541" lon="-3.21474">
        <ele>231.8</ele>
        <time>2023-04-10T08:54:08Z</time>
      </trkpt>
      <trkpt lat="48.09539" lon="-3.21471">
        <ele>232</ele>
        <time>2023-04-10T08:54:09Z</time>
      </trkpt>
      <trkpt lat="48.09537" lon="-3.21468">
        <ele>232</ele>
        <time>2023-04-10T08:54:10Z</time>
      </trkpt>
      <trkpt lat="48.09535" lon="-3.21464">
        <ele>232</ele>
        <time>2023-04-10T08:54:11Z</time>
      </trkpt>
      <trkpt lat="48.09532" lon="-3.2146">
        <ele>232</ele>
        <time>2023-04-10T08:54:12Z</time>
      </trkpt>
      <trkpt lat="48.0953" lon="-3.21455">
        <ele>232.2</ele>
        <time>2023-04-10T08:54:13Z</time>
      </trkpt>
      <trkpt lat="48.09527" lon="-3.21451">
        <ele>232.4</ele>
        <time>2023-04-10T08:54:14Z</time>
      </trkpt>
      <trkpt lat="48.09525" lon="-3.21446">
        <ele>232.4</ele>
        <time>2023-04-10T08:54:15Z</time>
      </trkpt>
      <trkpt lat="48.09522" lon="-3.21442">
        <ele>232.6</ele>
        <time>2023-04-10T08:54:16Z</time>
      </trkpt>
      <trkpt lat="48.0952" lon="-3.21437">
        <ele>232.6</ele>
        <time>2023-04-10T08:54:17Z</time>
      </trkpt>
      <trkpt lat="48.09517" lon="-3.21433">
        <ele>232.6</ele>
        <time>2023-04-10T08:54:18Z</time>
      </trkpt>
      <trkpt lat="48.09514" lon="-3.21428">
        <ele>232.6</ele>
        <time>2023-04-10T08:54:19Z</time>
      </trkpt>
      <trkpt lat="48.09511" lon="-3.21424">
        <ele>232.6</ele>
        <time>2023-04-10T08:54:20Z</time>
      </trkpt>
      <trkpt lat="48.09508" lon="-3.2142">
        <ele>232.6</ele>
        <time>2023-04-10T08:54:21Z</time>
      </trkpt>
      <trkpt lat="48.09504" lon="-3.21416">
        <ele>232.6</ele>
        <time>2023-04-10T08:54:22Z</time>
      </trkpt>
      <trkpt lat="48.09501" lon="-3.21412">
        <ele>232.6</ele>
        <time>2023-04-10T08:54:23Z</time>
      </trkpt>
      <trkpt lat="48.0947" lon="-3.21375">
        <ele>231.6</ele>
        <time>2023-04-10T08:54:31Z</time>
      </trkpt>
      <trkpt lat="48.09447" lon="-3.21336">
        <ele>230.6</ele>
        <time>2023-04-10T08:54:36Z</time>
      </trkpt>
      <trkpt lat="48.09438" lon="-3.21316">
        <ele>230</ele>
        <time>2023-04-10T08:54:38Z</time>
      </trkpt>
      <trkpt lat="48.09431" lon="-3.2129">
        <ele>229.4</ele>
        <time>2023-04-10T08:54:40Z</time>
      </trkpt>
      <trkpt lat="48.09423" lon="-3.21265">
        <ele>228.8</ele>
        <time>2023-04-10T08:54:42Z</time>
      </trkpt>
      <trkpt lat="48.09418" lon="-3.21252">
        <ele>228.4</ele>
        <time>2023-04-10T08:54:43Z</time>
      </trkpt>
      <trkpt lat="48.09413" lon="-3.2124">
        <ele>227.6</ele>
        <time>2023-04-10T08:54:44Z</time>
      </trkpt>
      <trkpt lat="48.09407" lon="-3.21227">
        <ele>226.8</ele>
        <time>2023-04-10T08:54:45Z</time>
      </trkpt>
      <trkpt lat="48.09401" lon="-3.21215">
        <ele>226.2</ele>
        <time>2023-04-10T08:54:46Z</time>
      </trkpt>
      <trkpt lat="48.09395" lon="-3.21204">
        <ele>225.4</ele>
        <time>2023-04-10T08:54:47Z</time>
      </trkpt>
      <trkpt lat="48.09388" lon="-3.21187">
        <ele>224.8</ele>
        <time>2023-04-10T08:54:48Z</time>
      </trkpt>
      <trkpt lat="48.09383" lon="-3.21174">
        <ele>224.4</ele>
        <time>2023-04-10T08:54:49Z</time>
      </trkpt>
      <trkpt lat="48.09375" lon="-3.21155">
        <ele>223.8</ele>
        <time>2023-04-10T08:54:50Z</time>
      </trkpt>
      <trkpt lat="48.09367" lon="-3.2114">
        <ele>223</ele>
        <time>2023-04-10T08:54:51Z</time>
      </trkpt>
      <trkpt lat="48.09353" lon="-3.21107">
        <ele>221.4</ele>
        <time>2023-04-10T08:54:53Z</time>
      </trkpt>
      <trkpt lat="48.09348" lon="-3.21096">
        <ele>220.4</ele>
        <time>2023-04-10T08:54:54Z</time>
      </trkpt>
      <trkpt lat="48.09341" lon="-3.21082">
        <ele>219.4</ele>
        <time>2023-04-10T08:54:55Z</time>
      </trkpt>
      <trkpt lat="48.09332" lon="-3.21069">
        <ele>219.4</ele>
        <time>2023-04-10T08:54:56Z</time>
      </trkpt>
      <trkpt lat="48.09328" lon="-3.21064">
        <ele>218.8</ele>
        <time>2023-04-10T08:54:57Z</time>
      </trkpt>
      <trkpt lat="48.09319" lon="-3.21054">
        <ele>217.4</ele>
        <time>2023-04-10T08:54:58Z</time>
      </trkpt>
      <trkpt lat="48.09314" lon="-3.21048">
        <ele>216.2</ele>
        <time>2023-04-10T08:54:59Z</time>
      </trkpt>
      <trkpt lat="48.09309" lon="-3.21038">
        <ele>215.2</ele>
        <time>2023-04-10T08:55:00Z</time>
      </trkpt>
      <trkpt lat="48.09306" lon="-3.21032">
        <ele>214.2</ele>
        <time>2023-04-10T08:55:01Z</time>
      </trkpt>
      <trkpt lat="48.09303" lon="-3.21028">
        <ele>212.8</ele>
        <time>2023-04-10T08:55:02Z</time>
      </trkpt>
      <trkpt lat="48.09301" lon="-3.21023">
        <ele>211.6</ele>
        <time>2023-04-10T08:55:03Z</time>
      </trkpt>
      <trkpt lat="48.093" lon="-3.21018">
        <ele>210.2</ele>
        <time>2023-04-10T08:55:04Z</time>
      </trkpt>
      <trkpt lat="48.09299" lon="-3.21013">
        <ele>209</ele>
        <time>2023-04-10T08:55:05Z</time>
      </trkpt>
      <trkpt lat="48.09298" lon="-3.21007">
        <ele>207.4</ele>
        <time>2023-04-10T08:55:06Z</time>
      </trkpt>
      <trkpt lat="48.09298" lon="-3.21001">
        <ele>206.4</ele>
        <time>2023-04-10T08:55:07Z</time>
      </trkpt>
      <trkpt lat="48.09292" lon="-3.20986">
        <ele>204.8</ele>
        <time>2023-04-10T08:55:09Z</time>
      </trkpt>
      <trkpt lat="48.0929" lon="-3.2098">
        <ele>203.8</ele>
        <time>2023-04-10T08:55:10Z</time>
      </trkpt>
      <trkpt lat="48.09287" lon="-3.20972">
        <ele>203.2</ele>
        <time>2023-04-10T08:55:11Z</time>
      </trkpt>
      <trkpt lat="48.09284" lon="-3.20965">
        <ele>202.6</ele>
        <time>2023-04-10T08:55:12Z</time>
      </trkpt>
      <trkpt lat="48.09281" lon="-3.20958">
        <ele>202.4</ele>
        <time>2023-04-10T08:55:13Z</time>
      </trkpt>
      <trkpt lat="48.09277" lon="-3.20954">
        <ele>202.2</ele>
        <time>2023-04-10T08:55:14Z</time>
      </trkpt>
      <trkpt lat="48.09272" lon="-3.20946">
        <ele>202.2</ele>
        <time>2023-04-10T08:55:15Z</time>
      </trkpt>
      <trkpt lat="48.09269" lon="-3.20941">
        <ele>202.2</ele>
        <time>2023-04-10T08:55:16Z</time>
      </trkpt>
      <trkpt lat="48.09264" lon="-3.20935">
        <ele>202</ele>
        <time>2023-04-10T08:55:17Z</time>
      </trkpt>
      <trkpt lat="48.09257" lon="-3.20929">
        <ele>201.8</ele>
        <time>2023-04-10T08:55:18Z</time>
      </trkpt>
      <trkpt lat="48.09247" lon="-3.20917">
        <ele>201.6</ele>
        <time>2023-04-10T08:55:20Z</time>
      </trkpt>
      <trkpt lat="48.09238" lon="-3.20903">
        <ele>201.4</ele>
        <time>2023-04-10T08:55:22Z</time>
      </trkpt>
      <trkpt lat="48.09234" lon="-3.209">
        <ele>201.2</ele>
        <time>2023-04-10T08:55:23Z</time>
      </trkpt>
      <trkpt lat="48.09229" lon="-3.20895">
        <ele>201</ele>
        <time>2023-04-10T08:55:24Z</time>
      </trkpt>
      <trkpt lat="48.09224" lon="-3.20891">
        <ele>200.4</ele>
        <time>2023-04-10T08:55:25Z</time>
      </trkpt>
      <trkpt lat="48.09219" lon="-3.20887">
        <ele>200</ele>
        <time>2023-04-10T08:55:26Z</time>
      </trkpt>
      <trkpt lat="48.09213" lon="-3.20882">
        <ele>199.4</ele>
        <time>2023-04-10T08:55:27Z</time>
      </trkpt>
      <trkpt lat="48.09208" lon="-3.20878">
        <ele>198.4</ele>
        <time>2023-04-10T08:55:28Z</time>
      </trkpt>
      <trkpt lat="48.09204" lon="-3.20875">
        <ele>198</ele>
        <time>2023-04-10T08:55:29Z</time>
      </trkpt>
      <trkpt lat="48.09192" lon="-3.20865">
        <ele>196.8</ele>
        <time>2023-04-10T08:55:31Z</time>
      </trkpt>
      <trkpt lat="48.09189" lon="-3.20862">
        <ele>196.4</ele>
        <time>2023-04-10T08:55:32Z</time>
      </trkpt>
      <trkpt lat="48.09188" lon="-3.20861">
        <ele>196.2</ele>
        <time>2023-04-10T08:55:33Z</time>
      </trkpt>
      <trkpt lat="48.09188" lon="-3.20861">
        <ele>191.8</ele>
        <time>2023-04-10T08:55:40Z</time>
      </trkpt>
      <trkpt lat="48.09187" lon="-3.20861">
        <ele>190.4</ele>
        <time>2023-04-10T08:55:42Z</time>
      </trkpt>
      <trkpt lat="48.09185" lon="-3.2086">
        <ele>190</ele>
        <time>2023-04-10T08:55:43Z</time>
      </trkpt>
      <trkpt lat="48.09181" lon="-3.2086">
        <ele>189.6</ele>
        <time>2023-04-10T08:55:46Z</time>
      </trkpt>
      <trkpt lat="48.0918" lon="-3.2086">
        <ele>189.6</ele>
        <time>2023-04-10T08:55:47Z</time>
      </trkpt>
      <trkpt lat="48.09179" lon="-3.2086">
        <ele>189.4</ele>
        <time>2023-04-10T08:55:48Z</time>
      </trkpt>
      <trkpt lat="48.09177" lon="-3.20859">
        <ele>189.4</ele>
        <time>2023-04-10T08:55:49Z</time>
      </trkpt>
      <trkpt lat="48.09176" lon="-3.20859">
        <ele>189.4</ele>
        <time>2023-04-10T08:55:50Z</time>
      </trkpt>
      <trkpt lat="48.09175" lon="-3.20859">
        <ele>189.4</ele>
        <time>2023-04-10T08:55:51Z</time>
      </trkpt>
      <trkpt lat="48.09167" lon="-3.20858">
        <ele>189.2</ele>
        <time>2023-04-10T08:55:55Z</time>
      </trkpt>
      <trkpt lat="48.09164" lon="-3.20857">
        <ele>189.2</ele>
        <time>2023-04-10T08:55:57Z</time>
      </trkpt>
      <trkpt lat="48.09163" lon="-3.20857">
        <ele>189</ele>
        <time>2023-04-10T08:55:58Z</time>
      </trkpt>
      <trkpt lat="48.09163" lon="-3.20857">
        <ele>189</ele>
        <time>2023-04-10T08:55:59Z</time>
      </trkpt>
      <trkpt lat="48.09163" lon="-3.20857">
        <ele>188.8</ele>
        <time>2023-04-10T08:56:00Z</time>
      </trkpt>
      <trkpt lat="48.0916" lon="-3.20856">
        <ele>188.6</ele>
        <time>2023-04-10T08:56:03Z</time>
      </trkpt>
      <trkpt lat="48.09157" lon="-3.20854">
        <ele>188.6</ele>
        <time>2023-04-10T08:56:04Z</time>
      </trkpt>
      <trkpt lat="48.09153" lon="-3.20854">
        <ele>188.4</ele>
        <time>2023-04-10T08:56:06Z</time>
      </trkpt>
      <trkpt lat="48.0915" lon="-3.20853">
        <ele>188.4</ele>
        <time>2023-04-10T08:56:07Z</time>
      </trkpt>
      <trkpt lat="48.09148" lon="-3.20853">
        <ele>188.4</ele>
        <time>2023-04-10T08:56:08Z</time>
      </trkpt>
      <trkpt lat="48.09145" lon="-3.20852">
        <ele>188.2</ele>
        <time>2023-04-10T08:56:09Z</time>
      </trkpt>
      <trkpt lat="48.0914" lon="-3.2085">
        <ele>188</ele>
        <time>2023-04-10T08:56:11Z</time>
      </trkpt>
      <trkpt lat="48.09137" lon="-3.20849">
        <ele>188</ele>
        <time>2023-04-10T08:56:12Z</time>
      </trkpt>
      <trkpt lat="48.09111" lon="-3.20843">
        <ele>187.6</ele>
        <time>2023-04-10T08:56:18Z</time>
      </trkpt>
      <trkpt lat="48.09101" lon="-3.2084">
        <ele>187.2</ele>
        <time>2023-04-10T08:56:20Z</time>
      </trkpt>
      <trkpt lat="48.09092" lon="-3.20838">
        <ele>187</ele>
        <time>2023-04-10T08:56:22Z</time>
      </trkpt>
      <trkpt lat="48.09081" lon="-3.20833">
        <ele>186.6</ele>
        <time>2023-04-10T08:56:24Z</time>
      </trkpt>
      <trkpt lat="48.09074" lon="-3.20828">
        <ele>186.4</ele>
        <time>2023-04-10T08:56:25Z</time>
      </trkpt>
      <trkpt lat="48.09067" lon="-3.20823">
        <ele>186.2</ele>
        <time>2023-04-10T08:56:26Z</time>
      </trkpt>
      <trkpt lat="48.09061" lon="-3.20819">
        <ele>185.8</ele>
        <time>2023-04-10T08:56:27Z</time>
      </trkpt>
      <trkpt lat="48.09051" lon="-3.20806">
        <ele>185.2</ele>
        <time>2023-04-10T08:56:29Z</time>
      </trkpt>
      <trkpt lat="48.09046" lon="-3.20801">
        <ele>184.6</ele>
        <time>2023-04-10T08:56:30Z</time>
      </trkpt>
      <trkpt lat="48.0904" lon="-3.20795">
        <ele>184</ele>
        <time>2023-04-10T08:56:31Z</time>
      </trkpt>
      <trkpt lat="48.09032" lon="-3.20788">
        <ele>183.2</ele>
        <time>2023-04-10T08:56:32Z</time>
      </trkpt>
      <trkpt lat="48.09019" lon="-3.20777">
        <ele>181.8</ele>
        <time>2023-04-10T08:56:34Z</time>
      </trkpt>
      <trkpt lat="48.09008" lon="-3.20765">
        <ele>180.4</ele>
        <time>2023-04-10T08:56:36Z</time>
      </trkpt>
      <trkpt lat="48.09005" lon="-3.20759">
        <ele>179.4</ele>
        <time>2023-04-10T08:56:37Z</time>
      </trkpt>
      <trkpt lat="48.08999" lon="-3.2075">
        <ele>178.4</ele>
        <time>2023-04-10T08:56:38Z</time>
      </trkpt>
      <trkpt lat="48.08996" lon="-3.20745">
        <ele>177.2</ele>
        <time>2023-04-10T08:56:39Z</time>
      </trkpt>
      <trkpt lat="48.08992" lon="-3.20743">
        <ele>176.4</ele>
        <time>2023-04-10T08:56:40Z</time>
      </trkpt>
      <trkpt lat="48.0899" lon="-3.20741">
        <ele>175.6</ele>
        <time>2023-04-10T08:56:41Z</time>
      </trkpt>
      <trkpt lat="48.08988" lon="-3.20738">
        <ele>175</ele>
        <time>2023-04-10T08:56:42Z</time>
      </trkpt>
      <trkpt lat="48.08987" lon="-3.20736">
        <ele>174</ele>
        <time>2023-04-10T08:56:43Z</time>
      </trkpt>
      <trkpt lat="48.08985" lon="-3.20732">
        <ele>173.4</ele>
        <time>2023-04-10T08:56:44Z</time>
      </trkpt>
      <trkpt lat="48.08982" lon="-3.2073">
        <ele>172.6</ele>
        <time>2023-04-10T08:56:45Z</time>
      </trkpt>
      <trkpt lat="48.08972" lon="-3.20724">
        <ele>171.6</ele>
        <time>2023-04-10T08:56:47Z</time>
      </trkpt>
      <trkpt lat="48.08967" lon="-3.20723">
        <ele>171</ele>
        <time>2023-04-10T08:56:48Z</time>
      </trkpt>
      <trkpt lat="48.08961" lon="-3.20721">
        <ele>170.8</ele>
        <time>2023-04-10T08:56:49Z</time>
      </trkpt>
      <trkpt lat="48.08955" lon="-3.2072">
        <ele>170.4</ele>
        <time>2023-04-10T08:56:50Z</time>
      </trkpt>
      <trkpt lat="48.08948" lon="-3.20718">
        <ele>170.4</ele>
        <time>2023-04-10T08:56:51Z</time>
      </trkpt>
      <trkpt lat="48.08929" lon="-3.20709">
        <ele>169.8</ele>
        <time>2023-04-10T08:56:54Z</time>
      </trkpt>
      <trkpt lat="48.08917" lon="-3.20709">
        <ele>169.6</ele>
        <time>2023-04-10T08:56:56Z</time>
      </trkpt>
      <trkpt lat="48.08903" lon="-3.20708">
        <ele>169.2</ele>
        <time>2023-04-10T08:56:58Z</time>
      </trkpt>
      <trkpt lat="48.08897" lon="-3.20706">
        <ele>169</ele>
        <time>2023-04-10T08:56:59Z</time>
      </trkpt>
      <trkpt lat="48.08891" lon="-3.20703">
        <ele>168.6</ele>
        <time>2023-04-10T08:57:00Z</time>
      </trkpt>
      <trkpt lat="48.08886" lon="-3.20702">
        <ele>168.2</ele>
        <time>2023-04-10T08:57:01Z</time>
      </trkpt>
      <trkpt lat="48.08881" lon="-3.20703">
        <ele>168</ele>
        <time>2023-04-10T08:57:02Z</time>
      </trkpt>
      <trkpt lat="48.08874" lon="-3.20704">
        <ele>167.6</ele>
        <time>2023-04-10T08:57:03Z</time>
      </trkpt>
      <trkpt lat="48.08863" lon="-3.20705">
        <ele>167.2</ele>
        <time>2023-04-10T08:57:05Z</time>
      </trkpt>
      <trkpt lat="48.08858" lon="-3.20706">
        <ele>166.8</ele>
        <time>2023-04-10T08:57:06Z</time>
      </trkpt>
      <trkpt lat="48.08853" lon="-3.20707">
        <ele>166.6</ele>
        <time>2023-04-10T08:57:07Z</time>
      </trkpt>
      <trkpt lat="48.08848" lon="-3.20709">
        <ele>166.6</ele>
        <time>2023-04-10T08:57:08Z</time>
      </trkpt>
      <trkpt lat="48.08835" lon="-3.20711">
        <ele>166.4</ele>
        <time>2023-04-10T08:57:10Z</time>
      </trkpt>
      <trkpt lat="48.08813" lon="-3.20715">
        <ele>166.2</ele>
        <time>2023-04-10T08:57:14Z</time>
      </trkpt>
      <trkpt lat="48.088" lon="-3.20717">
        <ele>166.2</ele>
        <time>2023-04-10T08:57:16Z</time>
      </trkpt>
      <trkpt lat="48.08795" lon="-3.20718">
        <ele>166</ele>
        <time>2023-04-10T08:57:17Z</time>
      </trkpt>
      <trkpt lat="48.08791" lon="-3.20718">
        <ele>166</ele>
        <time>2023-04-10T08:57:18Z</time>
      </trkpt>
      <trkpt lat="48.08784" lon="-3.20718">
        <ele>166</ele>
        <time>2023-04-10T08:57:19Z</time>
      </trkpt>
      <trkpt lat="48.08779" lon="-3.20719">
        <ele>166</ele>
        <time>2023-04-10T08:57:20Z</time>
      </trkpt>
      <trkpt lat="48.08769" lon="-3.20721">
        <ele>166</ele>
        <time>2023-04-10T08:57:22Z</time>
      </trkpt>
      <trkpt lat="48.08764" lon="-3.20721">
        <ele>166</ele>
        <time>2023-04-10T08:57:23Z</time>
      </trkpt>
      <trkpt lat="48.08759" lon="-3.20722">
        <ele>166</ele>
        <time>2023-04-10T08:57:24Z</time>
      </trkpt>
      <trkpt lat="48.08754" lon="-3.20722">
        <ele>166.2</ele>
        <time>2023-04-10T08:57:25Z</time>
      </trkpt>
      <trkpt lat="48.08748" lon="-3.20722">
        <ele>166.2</ele>
        <time>2023-04-10T08:57:26Z</time>
      </trkpt>
      <trkpt lat="48.08745" lon="-3.20723">
        <ele>166.2</ele>
        <time>2023-04-10T08:57:27Z</time>
      </trkpt>
      <trkpt lat="48.0873" lon="-3.20722">
        <ele>166.4</ele>
        <time>2023-04-10T08:57:30Z</time>
      </trkpt>
      <trkpt lat="48.08715" lon="-3.2072">
        <ele>166.4</ele>
        <time>2023-04-10T08:57:33Z</time>
      </trkpt>
      <trkpt lat="48.08711" lon="-3.20719">
        <ele>166.6</ele>
        <time>2023-04-10T08:57:34Z</time>
      </trkpt>
      <trkpt lat="48.08706" lon="-3.20717">
        <ele>166.6</ele>
        <time>2023-04-10T08:57:35Z</time>
      </trkpt>
      <trkpt lat="48.08678" lon="-3.20708">
        <ele>166.6</ele>
        <time>2023-04-10T08:57:40Z</time>
      </trkpt>
      <trkpt lat="48.08673" lon="-3.20707">
        <ele>166.6</ele>
        <time>2023-04-10T08:57:41Z</time>
      </trkpt>
      <trkpt lat="48.08661" lon="-3.20705">
        <ele>166.4</ele>
        <time>2023-04-10T08:57:43Z</time>
      </trkpt>
      <trkpt lat="48.08657" lon="-3.20704">
        <ele>166.4</ele>
        <time>2023-04-10T08:57:44Z</time>
      </trkpt>
      <trkpt lat="48.08647" lon="-3.20702">
        <ele>166.4</ele>
        <time>2023-04-10T08:57:46Z</time>
      </trkpt>
      <trkpt lat="48.08642" lon="-3.20701">
        <ele>166.4</ele>
        <time>2023-04-10T08:57:47Z</time>
      </trkpt>
      <trkpt lat="48.08637" lon="-3.207">
        <ele>166.2</ele>
        <time>2023-04-10T08:57:48Z</time>
      </trkpt>
      <trkpt lat="48.08632" lon="-3.20699">
        <ele>166</ele>
        <time>2023-04-10T08:57:49Z</time>
      </trkpt>
      <trkpt lat="48.08627" lon="-3.20698">
        <ele>166</ele>
        <time>2023-04-10T08:57:50Z</time>
      </trkpt>
      <trkpt lat="48.08621" lon="-3.20695">
        <ele>165.6</ele>
        <time>2023-04-10T08:57:51Z</time>
      </trkpt>
      <trkpt lat="48.08616" lon="-3.20692">
        <ele>165.4</ele>
        <time>2023-04-10T08:57:52Z</time>
      </trkpt>
      <trkpt lat="48.0861" lon="-3.2069">
        <ele>165.2</ele>
        <time>2023-04-10T08:57:53Z</time>
      </trkpt>
      <trkpt lat="48.08599" lon="-3.20687">
        <ele>164.8</ele>
        <time>2023-04-10T08:57:55Z</time>
      </trkpt>
      <trkpt lat="48.08594" lon="-3.20687">
        <ele>164.6</ele>
        <time>2023-04-10T08:57:56Z</time>
      </trkpt>
      <trkpt lat="48.08589" lon="-3.20686">
        <ele>164.6</ele>
        <time>2023-04-10T08:57:57Z</time>
      </trkpt>
      <trkpt lat="48.08583" lon="-3.20684">
        <ele>164.6</ele>
        <time>2023-04-10T08:57:58Z</time>
      </trkpt>
      <trkpt lat="48.08578" lon="-3.20682">
        <ele>164.4</ele>
        <time>2023-04-10T08:57:59Z</time>
      </trkpt>
      <trkpt lat="48.08566" lon="-3.20682">
        <ele>164.2</ele>
        <time>2023-04-10T08:58:01Z</time>
      </trkpt>
      <trkpt lat="48.08559" lon="-3.20681">
        <ele>164.2</ele>
        <time>2023-04-10T08:58:02Z</time>
      </trkpt>
      <trkpt lat="48.08555" lon="-3.2068">
        <ele>164</ele>
        <time>2023-04-10T08:58:03Z</time>
      </trkpt>
      <trkpt lat="48.0855" lon="-3.20677">
        <ele>163.8</ele>
        <time>2023-04-10T08:58:04Z</time>
      </trkpt>
      <trkpt lat="48.08544" lon="-3.20671">
        <ele>163.8</ele>
        <time>2023-04-10T08:58:05Z</time>
      </trkpt>
      <trkpt lat="48.08541" lon="-3.20666">
        <ele>163.6</ele>
        <time>2023-04-10T08:58:06Z</time>
      </trkpt>
      <trkpt lat="48.08536" lon="-3.20658">
        <ele>163.2</ele>
        <time>2023-04-10T08:58:07Z</time>
      </trkpt>
      <trkpt lat="48.08532" lon="-3.20654">
        <ele>162.8</ele>
        <time>2023-04-10T08:58:08Z</time>
      </trkpt>
      <trkpt lat="48.08522" lon="-3.20646">
        <ele>162.2</ele>
        <time>2023-04-10T08:58:10Z</time>
      </trkpt>
      <trkpt lat="48.08516" lon="-3.20645">
        <ele>161.8</ele>
        <time>2023-04-10T08:58:11Z</time>
      </trkpt>
      <trkpt lat="48.08511" lon="-3.20645">
        <ele>161.6</ele>
        <time>2023-04-10T08:58:12Z</time>
      </trkpt>
      <trkpt lat="48.08504" lon="-3.20646">
        <ele>160.8</ele>
        <time>2023-04-10T08:58:13Z</time>
      </trkpt>
      <trkpt lat="48.08495" lon="-3.20649">
        <ele>160.2</ele>
        <time>2023-04-10T08:58:14Z</time>
      </trkpt>
      <trkpt lat="48.08488" lon="-3.20652">
        <ele>159.2</ele>
        <time>2023-04-10T08:58:15Z</time>
      </trkpt>
      <trkpt lat="48.08473" lon="-3.20657">
        <ele>157.6</ele>
        <time>2023-04-10T08:58:17Z</time>
      </trkpt>
      <trkpt lat="48.08466" lon="-3.2066">
        <ele>156.8</ele>
        <time>2023-04-10T08:58:18Z</time>
      </trkpt>
      <trkpt lat="48.08458" lon="-3.20663">
        <ele>155.8</ele>
        <time>2023-04-10T08:58:19Z</time>
      </trkpt>
      <trkpt lat="48.08453" lon="-3.20664">
        <ele>154.4</ele>
        <time>2023-04-10T08:58:20Z</time>
      </trkpt>
      <trkpt lat="48.08448" lon="-3.20665">
        <ele>153.8</ele>
        <time>2023-04-10T08:58:21Z</time>
      </trkpt>
      <trkpt lat="48.08442" lon="-3.20666">
        <ele>153.8</ele>
        <time>2023-04-10T08:58:22Z</time>
      </trkpt>
      <trkpt lat="48.08436" lon="-3.20667">
        <ele>152.6</ele>
        <time>2023-04-10T08:58:23Z</time>
      </trkpt>
      <trkpt lat="48.08431" lon="-3.20668">
        <ele>151.6</ele>
        <time>2023-04-10T08:58:24Z</time>
      </trkpt>
      <trkpt lat="48.08426" lon="-3.20667">
        <ele>150.4</ele>
        <time>2023-04-10T08:58:25Z</time>
      </trkpt>
      <trkpt lat="48.08422" lon="-3.20665">
        <ele>149.2</ele>
        <time>2023-04-10T08:58:26Z</time>
      </trkpt>
      <trkpt lat="48.08418" lon="-3.20663">
        <ele>148</ele>
        <time>2023-04-10T08:58:27Z</time>
      </trkpt>
      <trkpt lat="48.08415" lon="-3.20659">
        <ele>147</ele>
        <time>2023-04-10T08:58:28Z</time>
      </trkpt>
      <trkpt lat="48.08413" lon="-3.20657">
        <ele>146</ele>
        <time>2023-04-10T08:58:29Z</time>
      </trkpt>
      <trkpt lat="48.08411" lon="-3.20656">
        <ele>144.6</ele>
        <time>2023-04-10T08:58:30Z</time>
      </trkpt>
      <trkpt lat="48.08409" lon="-3.20653">
        <ele>143.4</ele>
        <time>2023-04-10T08:58:31Z</time>
      </trkpt>
      <trkpt lat="48.08407" lon="-3.20651">
        <ele>142.8</ele>
        <time>2023-04-10T08:58:32Z</time>
      </trkpt>
      <trkpt lat="48.08404" lon="-3.2065">
        <ele>142.4</ele>
        <time>2023-04-10T08:58:33Z</time>
      </trkpt>
      <trkpt lat="48.08401" lon="-3.2065">
        <ele>142.2</ele>
        <time>2023-04-10T08:58:34Z</time>
      </trkpt>
      <trkpt lat="48.08399" lon="-3.2065">
        <ele>142</ele>
        <time>2023-04-10T08:58:35Z</time>
      </trkpt>
      <trkpt lat="48.08396" lon="-3.20651">
        <ele>141.6</ele>
        <time>2023-04-10T08:58:36Z</time>
      </trkpt>
      <trkpt lat="48.08393" lon="-3.20651">
        <ele>141.4</ele>
        <time>2023-04-10T08:58:37Z</time>
      </trkpt>
      <trkpt lat="48.08382" lon="-3.20652">
        <ele>141</ele>
        <time>2023-04-10T08:58:41Z</time>
      </trkpt>
      <trkpt lat="48.08376" lon="-3.20652">
        <ele>141</ele>
        <time>2023-04-10T08:58:43Z</time>
      </trkpt>
      <trkpt lat="48.08372" lon="-3.20652">
        <ele>141</ele>
        <time>2023-04-10T08:58:44Z</time>
      </trkpt>
      <trkpt lat="48.08368" lon="-3.2065">
        <ele>141</ele>
        <time>2023-04-10T08:58:45Z</time>
      </trkpt>
      <trkpt lat="48.08365" lon="-3.20648">
        <ele>141</ele>
        <time>2023-04-10T08:58:46Z</time>
      </trkpt>
      <trkpt lat="48.08363" lon="-3.20647">
        <ele>141</ele>
        <time>2023-04-10T08:58:47Z</time>
      </trkpt>
      <trkpt lat="48.0836" lon="-3.20644">
        <ele>141</ele>
        <time>2023-04-10T08:58:48Z</time>
      </trkpt>
      <trkpt lat="48.08357" lon="-3.20642">
        <ele>140.8</ele>
        <time>2023-04-10T08:58:49Z</time>
      </trkpt>
      <trkpt lat="48.08354" lon="-3.2064">
        <ele>141.2</ele>
        <time>2023-04-10T08:58:50Z</time>
      </trkpt>
      <trkpt lat="48.08345" lon="-3.20635">
        <ele>141.2</ele>
        <time>2023-04-10T08:58:52Z</time>
      </trkpt>
      <trkpt lat="48.08342" lon="-3.20634">
        <ele>141</ele>
        <time>2023-04-10T08:58:53Z</time>
      </trkpt>
      <trkpt lat="48.0834" lon="-3.2063">
        <ele>141.2</ele>
        <time>2023-04-10T08:58:54Z</time>
      </trkpt>
      <trkpt lat="48.08337" lon="-3.20624">
        <ele>141.2</ele>
        <time>2023-04-10T08:58:55Z</time>
      </trkpt>
      <trkpt lat="48.08319" lon="-3.20609">
        <ele>141.2</ele>
        <time>2023-04-10T08:58:59Z</time>
      </trkpt>
      <trkpt lat="48.08316" lon="-3.20606">
        <ele>141.2</ele>
        <time>2023-04-10T08:59:00Z</time>
      </trkpt>
      <trkpt lat="48.08311" lon="-3.20603">
        <ele>141.2</ele>
        <time>2023-04-10T08:59:01Z</time>
      </trkpt>
      <trkpt lat="48.08308" lon="-3.206">
        <ele>141.2</ele>
        <time>2023-04-10T08:59:02Z</time>
      </trkpt>
      <trkpt lat="48.08304" lon="-3.20595">
        <ele>141.2</ele>
        <time>2023-04-10T08:59:03Z</time>
      </trkpt>
      <trkpt lat="48.08301" lon="-3.20592">
        <ele>141.2</ele>
        <time>2023-04-10T08:59:04Z</time>
      </trkpt>
      <trkpt lat="48.08297" lon="-3.2059">
        <ele>141.4</ele>
        <time>2023-04-10T08:59:05Z</time>
      </trkpt>
      <trkpt lat="48.08294" lon="-3.20589">
        <ele>141.4</ele>
        <time>2023-04-10T08:59:06Z</time>
      </trkpt>
      <trkpt lat="48.08291" lon="-3.20586">
        <ele>141.4</ele>
        <time>2023-04-10T08:59:07Z</time>
      </trkpt>
      <trkpt lat="48.08288" lon="-3.20579">
        <ele>141.4</ele>
        <time>2023-04-10T08:59:08Z</time>
      </trkpt>
      <trkpt lat="48.08283" lon="-3.20575">
        <ele>141.4</ele>
        <time>2023-04-10T08:59:09Z</time>
      </trkpt>
      <trkpt lat="48.08279" lon="-3.20571">
        <ele>141.4</ele>
        <time>2023-04-10T08:59:10Z</time>
      </trkpt>
      <trkpt lat="48.08266" lon="-3.20562">
        <ele>141.6</ele>
        <time>2023-04-10T08:59:13Z</time>
      </trkpt>
      <trkpt lat="48.0826" lon="-3.20559">
        <ele>141.6</ele>
        <time>2023-04-10T08:59:14Z</time>
      </trkpt>
      <trkpt lat="48.08255" lon="-3.20558">
        <ele>141.6</ele>
        <time>2023-04-10T08:59:15Z</time>
      </trkpt>
      <trkpt lat="48.08251" lon="-3.20554">
        <ele>141.8</ele>
        <time>2023-04-10T08:59:16Z</time>
      </trkpt>
      <trkpt lat="48.08249" lon="-3.20551">
        <ele>141.8</ele>
        <time>2023-04-10T08:59:17Z</time>
      </trkpt>
      <trkpt lat="48.08245" lon="-3.20551">
        <ele>142</ele>
        <time>2023-04-10T08:59:18Z</time>
      </trkpt>
      <trkpt lat="48.08241" lon="-3.20549">
        <ele>142</ele>
        <time>2023-04-10T08:59:19Z</time>
      </trkpt>
      <trkpt lat="48.08237" lon="-3.20548">
        <ele>142</ele>
        <time>2023-04-10T08:59:20Z</time>
      </trkpt>
      <trkpt lat="48.08234" lon="-3.20546">
        <ele>142</ele>
        <time>2023-04-10T08:59:21Z</time>
      </trkpt>
      <trkpt lat="48.08231" lon="-3.20544">
        <ele>142</ele>
        <time>2023-04-10T08:59:22Z</time>
      </trkpt>
      <trkpt lat="48.08228" lon="-3.20543">
        <ele>142</ele>
        <time>2023-04-10T08:59:23Z</time>
      </trkpt>
      <trkpt lat="48.08225" lon="-3.20542">
        <ele>142</ele>
        <time>2023-04-10T08:59:24Z</time>
      </trkpt>
      <trkpt lat="48.08222" lon="-3.20541">
        <ele>142</ele>
        <time>2023-04-10T08:59:25Z</time>
      </trkpt>
      <trkpt lat="48.08219" lon="-3.20539">
        <ele>141.8</ele>
        <time>2023-04-10T08:59:26Z</time>
      </trkpt>
      <trkpt lat="48.08217" lon="-3.20539">
        <ele>141.8</ele>
        <time>2023-04-10T08:59:27Z</time>
      </trkpt>
      <trkpt lat="48.08214" lon="-3.20538">
        <ele>141.6</ele>
        <time>2023-04-10T08:59:28Z</time>
      </trkpt>
      <trkpt lat="48.08211" lon="-3.20539">
        <ele>141.4</ele>
        <time>2023-04-10T08:59:29Z</time>
      </trkpt>
      <trkpt lat="48.08209" lon="-3.20538">
        <ele>141.4</ele>
        <time>2023-04-10T08:59:30Z</time>
      </trkpt>
      <trkpt lat="48.08206" lon="-3.20538">
        <ele>141.4</ele>
        <time>2023-04-10T08:59:31Z</time>
      </trkpt>
      <trkpt lat="48.08203" lon="-3.20538">
        <ele>141.4</ele>
        <time>2023-04-10T08:59:32Z</time>
      </trkpt>
      <trkpt lat="48.082" lon="-3.20538">
        <ele>141.4</ele>
        <time>2023-04-10T08:59:33Z</time>
      </trkpt>
      <trkpt lat="48.08197" lon="-3.20538">
        <ele>141.4</ele>
        <time>2023-04-10T08:59:34Z</time>
      </trkpt>
      <trkpt lat="48.0818" lon="-3.20538">
        <ele>141.4</ele>
        <time>2023-04-10T08:59:39Z</time>
      </trkpt>
      <trkpt lat="48.0817" lon="-3.20539">
        <ele>141.6</ele>
        <time>2023-04-10T08:59:42Z</time>
      </trkpt>
      <trkpt lat="48.08157" lon="-3.20537">
        <ele>141.6</ele>
        <time>2023-04-10T08:59:46Z</time>
      </trkpt>
      <trkpt lat="48.08154" lon="-3.20537">
        <ele>141.8</ele>
        <time>2023-04-10T08:59:47Z</time>
      </trkpt>
      <trkpt lat="48.08151" lon="-3.20536">
        <ele>141.8</ele>
        <time>2023-04-10T08:59:48Z</time>
      </trkpt>
      <trkpt lat="48.08148" lon="-3.20536">
        <ele>141.8</ele>
        <time>2023-04-10T08:59:49Z</time>
      </trkpt>
      <trkpt lat="48.08144" lon="-3.20536">
        <ele>142</ele>
        <time>2023-04-10T08:59:50Z</time>
      </trkpt>
      <trkpt lat="48.08141" lon="-3.20536">
        <ele>142.2</ele>
        <time>2023-04-10T08:59:51Z</time>
      </trkpt>
      <trkpt lat="48.08138" lon="-3.20535">
        <ele>142.2</ele>
        <time>2023-04-10T08:59:52Z</time>
      </trkpt>
      <trkpt lat="48.08136" lon="-3.20535">
        <ele>142.2</ele>
        <time>2023-04-10T08:59:53Z</time>
      </trkpt>
      <trkpt lat="48.08133" lon="-3.20533">
        <ele>142.2</ele>
        <time>2023-04-10T08:59:54Z</time>
      </trkpt>
      <trkpt lat="48.0813" lon="-3.20531">
        <ele>142.4</ele>
        <time>2023-04-10T08:59:55Z</time>
      </trkpt>
      <trkpt lat="48.08128" lon="-3.2053">
        <ele>142.6</ele>
        <time>2023-04-10T08:59:56Z</time>
      </trkpt>
      <trkpt lat="48.08126" lon="-3.20528">
        <ele>142.8</ele>
        <time>2023-04-10T08:59:57Z</time>
      </trkpt>
      <trkpt lat="48.08123" lon="-3.20526">
        <ele>142.8</ele>
        <time>2023-04-10T08:59:58Z</time>
      </trkpt>
      <trkpt lat="48.08118" lon="-3.20521">
        <ele>143.2</ele>
        <time>2023-04-10T09:00:00Z</time>
      </trkpt>
      <trkpt lat="48.08116" lon="-3.20519">
        <ele>143.2</ele>
        <time>2023-04-10T09:00:01Z</time>
      </trkpt>
      <trkpt lat="48.08107" lon="-3.20518">
        <ele>143.6</ele>
        <time>2023-04-10T09:00:04Z</time>
      </trkpt>
      <trkpt lat="48.08105" lon="-3.20517">
        <ele>143.8</ele>
        <time>2023-04-10T09:00:05Z</time>
      </trkpt>
      <trkpt lat="48.08103" lon="-3.20516">
        <ele>144</ele>
        <time>2023-04-10T09:00:06Z</time>
      </trkpt>
      <trkpt lat="48.08101" lon="-3.20514">
        <ele>144</ele>
        <time>2023-04-10T09:00:07Z</time>
      </trkpt>
      <trkpt lat="48.08099" lon="-3.20512">
        <ele>144.2</ele>
        <time>2023-04-10T09:00:08Z</time>
      </trkpt>
      <trkpt lat="48.08096" lon="-3.20511">
        <ele>144.2</ele>
        <time>2023-04-10T09:00:09Z</time>
      </trkpt>
      <trkpt lat="48.08094" lon="-3.20508">
        <ele>144.2</ele>
        <time>2023-04-10T09:00:10Z</time>
      </trkpt>
      <trkpt lat="48.08093" lon="-3.20506">
        <ele>144.4</ele>
        <time>2023-04-10T09:00:11Z</time>
      </trkpt>
      <trkpt lat="48.08091" lon="-3.20504">
        <ele>144.4</ele>
        <time>2023-04-10T09:00:12Z</time>
      </trkpt>
      <trkpt lat="48.08089" lon="-3.20501">
        <ele>144.6</ele>
        <time>2023-04-10T09:00:13Z</time>
      </trkpt>
      <trkpt lat="48.08087" lon="-3.205">
        <ele>144.6</ele>
        <time>2023-04-10T09:00:14Z</time>
      </trkpt>
      <trkpt lat="48.08086" lon="-3.20498">
        <ele>144.8</ele>
        <time>2023-04-10T09:00:15Z</time>
      </trkpt>
      <trkpt lat="48.08085" lon="-3.20496">
        <ele>144.8</ele>
        <time>2023-04-10T09:00:16Z</time>
      </trkpt>
      <trkpt lat="48.08084" lon="-3.20494">
        <ele>145</ele>
        <time>2023-04-10T09:00:17Z</time>
      </trkpt>
      <trkpt lat="48.08082" lon="-3.20492">
        <ele>145</ele>
        <time>2023-04-10T09:00:18Z</time>
      </trkpt>
      <trkpt lat="48.0808" lon="-3.20489">
        <ele>145.2</ele>
        <time>2023-04-10T09:00:19Z</time>
      </trkpt>
      <trkpt lat="48.08079" lon="-3.20486">
        <ele>145.4</ele>
        <time>2023-04-10T09:00:20Z</time>
      </trkpt>
      <trkpt lat="48.08079" lon="-3.20483">
        <ele>145.6</ele>
        <time>2023-04-10T09:00:21Z</time>
      </trkpt>
      <trkpt lat="48.08078" lon="-3.20479">
        <ele>145.6</ele>
        <time>2023-04-10T09:00:22Z</time>
      </trkpt>
      <trkpt lat="48.08076" lon="-3.20475">
        <ele>145.8</ele>
        <time>2023-04-10T09:00:23Z</time>
      </trkpt>
      <trkpt lat="48.08076" lon="-3.20472">
        <ele>146</ele>
        <time>2023-04-10T09:00:24Z</time>
      </trkpt>
      <trkpt lat="48.08076" lon="-3.2047">
        <ele>146.2</ele>
        <time>2023-04-10T09:00:25Z</time>
      </trkpt>
      <trkpt lat="48.08075" lon="-3.20468">
        <ele>146.2</ele>
        <time>2023-04-10T09:00:26Z</time>
      </trkpt>
      <trkpt lat="48.08074" lon="-3.20466">
        <ele>146.4</ele>
        <time>2023-04-10T09:00:27Z</time>
      </trkpt>
      <trkpt lat="48.08074" lon="-3.2046">
        <ele>146.6</ele>
        <time>2023-04-10T09:00:28Z</time>
      </trkpt>
      <trkpt lat="48.08074" lon="-3.20457">
        <ele>146.8</ele>
        <time>2023-04-10T09:00:29Z</time>
      </trkpt>
      <trkpt lat="48.08074" lon="-3.20453">
        <ele>147</ele>
        <time>2023-04-10T09:00:30Z</time>
      </trkpt>
      <trkpt lat="48.08072" lon="-3.20449">
        <ele>147.2</ele>
        <time>2023-04-10T09:00:31Z</time>
      </trkpt>
      <trkpt lat="48.08071" lon="-3.20446">
        <ele>147.4</ele>
        <time>2023-04-10T09:00:32Z</time>
      </trkpt>
      <trkpt lat="48.0807" lon="-3.20439">
        <ele>147.4</ele>
        <time>2023-04-10T09:00:33Z</time>
      </trkpt>
      <trkpt lat="48.08069" lon="-3.20434">
        <ele>147.4</ele>
        <time>2023-04-10T09:00:34Z</time>
      </trkpt>
      <trkpt lat="48.08069" lon="-3.20428">
        <ele>147.6</ele>
        <time>2023-04-10T09:00:35Z</time>
      </trkpt>
      <trkpt lat="48.08068" lon="-3.20424">
        <ele>147.8</ele>
        <time>2023-04-10T09:00:36Z</time>
      </trkpt>
      <trkpt lat="48.08069" lon="-3.20422">
        <ele>147.8</ele>
        <time>2023-04-10T09:00:37Z</time>
      </trkpt>
      <trkpt lat="48.08069" lon="-3.20421">
        <ele>147.8</ele>
        <time>2023-04-10T09:00:38Z</time>
      </trkpt>
      <trkpt lat="48.0807" lon="-3.20418">
        <ele>148</ele>
        <time>2023-04-10T09:00:39Z</time>
      </trkpt>
      <trkpt lat="48.08071" lon="-3.20415">
        <ele>148</ele>
        <time>2023-04-10T09:00:40Z</time>
      </trkpt>
      <trkpt lat="48.0807" lon="-3.20411">
        <ele>148</ele>
        <time>2023-04-10T09:00:41Z</time>
      </trkpt>
      <trkpt lat="48.08069" lon="-3.20408">
        <ele>148.2</ele>
        <time>2023-04-10T09:00:42Z</time>
      </trkpt>
      <trkpt lat="48.08068" lon="-3.20405">
        <ele>148.2</ele>
        <time>2023-04-10T09:00:43Z</time>
      </trkpt>
      <trkpt lat="48.08068" lon="-3.20399">
        <ele>148.2</ele>
        <time>2023-04-10T09:00:44Z</time>
      </trkpt>
      <trkpt lat="48.08068" lon="-3.20395">
        <ele>148.4</ele>
        <time>2023-04-10T09:00:45Z</time>
      </trkpt>
      <trkpt lat="48.08068" lon="-3.20393">
        <ele>148.6</ele>
        <time>2023-04-10T09:00:46Z</time>
      </trkpt>
      <trkpt lat="48.08068" lon="-3.20391">
        <ele>148.8</ele>
        <time>2023-04-10T09:00:47Z</time>
      </trkpt>
      <trkpt lat="48.08068" lon="-3.20388">
        <ele>148.8</ele>
        <time>2023-04-10T09:00:48Z</time>
      </trkpt>
      <trkpt lat="48.08068" lon="-3.20384">
        <ele>149</ele>
        <time>2023-04-10T09:00:49Z</time>
      </trkpt>
      <trkpt lat="48.08068" lon="-3.2038">
        <ele>149.2</ele>
        <time>2023-04-10T09:00:50Z</time>
      </trkpt>
      <trkpt lat="48.08067" lon="-3.20376">
        <ele>149.2</ele>
        <time>2023-04-10T09:00:51Z</time>
      </trkpt>
      <trkpt lat="48.08066" lon="-3.20374">
        <ele>149.4</ele>
        <time>2023-04-10T09:00:52Z</time>
      </trkpt>
      <trkpt lat="48.08065" lon="-3.20372">
        <ele>149.4</ele>
        <time>2023-04-10T09:00:53Z</time>
      </trkpt>
      <trkpt lat="48.08065" lon="-3.20369">
        <ele>149.6</ele>
        <time>2023-04-10T09:00:54Z</time>
      </trkpt>
      <trkpt lat="48.08065" lon="-3.20366">
        <ele>149.6</ele>
        <time>2023-04-10T09:00:55Z</time>
      </trkpt>
      <trkpt lat="48.08066" lon="-3.20364">
        <ele>149.8</ele>
        <time>2023-04-10T09:00:56Z</time>
      </trkpt>
      <trkpt lat="48.08067" lon="-3.20361">
        <ele>149.8</ele>
        <time>2023-04-10T09:00:57Z</time>
      </trkpt>
      <trkpt lat="48.08068" lon="-3.20359">
        <ele>149.8</ele>
        <time>2023-04-10T09:00:58Z</time>
      </trkpt>
      <trkpt lat="48.08068" lon="-3.20355">
        <ele>150</ele>
        <time>2023-04-10T09:00:59Z</time>
      </trkpt>
      <trkpt lat="48.08068" lon="-3.20352">
        <ele>150.2</ele>
        <time>2023-04-10T09:01:00Z</time>
      </trkpt>
      <trkpt lat="48.08068" lon="-3.20348">
        <ele>150.2</ele>
        <time>2023-04-10T09:01:01Z</time>
      </trkpt>
      <trkpt lat="48.08069" lon="-3.20343">
        <ele>150.2</ele>
        <time>2023-04-10T09:01:02Z</time>
      </trkpt>
      <trkpt lat="48.08069" lon="-3.20339">
        <ele>150.2</ele>
        <time>2023-04-10T09:01:03Z</time>
      </trkpt>
      <trkpt lat="48.08069" lon="-3.20333">
        <ele>150.2</ele>
        <time>2023-04-10T09:01:04Z</time>
      </trkpt>
      <trkpt lat="48.08069" lon="-3.20328">
        <ele>150.4</ele>
        <time>2023-04-10T09:01:05Z</time>
      </trkpt>
      <trkpt lat="48.0807" lon="-3.20323">
        <ele>150.6</ele>
        <time>2023-04-10T09:01:06Z</time>
      </trkpt>
      <trkpt lat="48.0807" lon="-3.20319">
        <ele>150.6</ele>
        <time>2023-04-10T09:01:07Z</time>
      </trkpt>
      <trkpt lat="48.0807" lon="-3.20315">
        <ele>150.6</ele>
        <time>2023-04-10T09:01:08Z</time>
      </trkpt>
      <trkpt lat="48.0807" lon="-3.20311">
        <ele>150.8</ele>
        <time>2023-04-10T09:01:09Z</time>
      </trkpt>
      <trkpt lat="48.08069" lon="-3.20306">
        <ele>150.8</ele>
        <time>2023-04-10T09:01:10Z</time>
      </trkpt>
      <trkpt lat="48.08069" lon="-3.20302">
        <ele>150.8</ele>
        <time>2023-04-10T09:01:11Z</time>
      </trkpt>
      <trkpt lat="48.08067" lon="-3.20297">
        <ele>150.8</ele>
        <time>2023-04-10T09:01:12Z</time>
      </trkpt>
      <trkpt lat="48.08066" lon="-3.20292">
        <ele>150.8</ele>
        <time>2023-04-10T09:01:13Z</time>
      </trkpt>
      <trkpt lat="48.08065" lon="-3.20288">
        <ele>150.8</ele>
        <time>2023-04-10T09:01:14Z</time>
      </trkpt>
      <trkpt lat="48.08064" lon="-3.20285">
        <ele>151</ele>
        <time>2023-04-10T09:01:15Z</time>
      </trkpt>
      <trkpt lat="48.08062" lon="-3.20281">
        <ele>151</ele>
        <time>2023-04-10T09:01:16Z</time>
      </trkpt>
      <trkpt lat="48.08061" lon="-3.20278">
        <ele>151</ele>
        <time>2023-04-10T09:01:17Z</time>
      </trkpt>
      <trkpt lat="48.0806" lon="-3.20275">
        <ele>151</ele>
        <time>2023-04-10T09:01:18Z</time>
      </trkpt>
      <trkpt lat="48.08059" lon="-3.20272">
        <ele>151.2</ele>
        <time>2023-04-10T09:01:19Z</time>
      </trkpt>
      <trkpt lat="48.08059" lon="-3.2027">
        <ele>151.2</ele>
        <time>2023-04-10T09:01:20Z</time>
      </trkpt>
      <trkpt lat="48.08057" lon="-3.20267">
        <ele>151.4</ele>
        <time>2023-04-10T09:01:21Z</time>
      </trkpt>
      <trkpt lat="48.08056" lon="-3.20263">
        <ele>151.4</ele>
        <time>2023-04-10T09:01:22Z</time>
      </trkpt>
      <trkpt lat="48.08052" lon="-3.20255">
        <ele>151.6</ele>
        <time>2023-04-10T09:01:24Z</time>
      </trkpt>
      <trkpt lat="48.08051" lon="-3.20253">
        <ele>151.8</ele>
        <time>2023-04-10T09:01:25Z</time>
      </trkpt>
      <trkpt lat="48.08049" lon="-3.2025">
        <ele>152</ele>
        <time>2023-04-10T09:01:26Z</time>
      </trkpt>
      <trkpt lat="48.08048" lon="-3.20247">
        <ele>152.4</ele>
        <time>2023-04-10T09:01:27Z</time>
      </trkpt>
      <trkpt lat="48.08047" lon="-3.20244">
        <ele>152.6</ele>
        <time>2023-04-10T09:01:28Z</time>
      </trkpt>
      <trkpt lat="48.08046" lon="-3.2024">
        <ele>152.8</ele>
        <time>2023-04-10T09:01:29Z</time>
      </trkpt>
      <trkpt lat="48.08047" lon="-3.20235">
        <ele>153</ele>
        <time>2023-04-10T09:01:30Z</time>
      </trkpt>
      <trkpt lat="48.08048" lon="-3.20231">
        <ele>153.2</ele>
        <time>2023-04-10T09:01:31Z</time>
      </trkpt>
      <trkpt lat="48.08048" lon="-3.20228">
        <ele>153.4</ele>
        <time>2023-04-10T09:01:32Z</time>
      </trkpt>
      <trkpt lat="48.08048" lon="-3.20226">
        <ele>153.6</ele>
        <time>2023-04-10T09:01:33Z</time>
      </trkpt>
      <trkpt lat="48.08049" lon="-3.20224">
        <ele>153.6</ele>
        <time>2023-04-10T09:01:34Z</time>
      </trkpt>
      <trkpt lat="48.08049" lon="-3.20221">
        <ele>153.6</ele>
        <time>2023-04-10T09:01:35Z</time>
      </trkpt>
      <trkpt lat="48.08049" lon="-3.20217">
        <ele>153.8</ele>
        <time>2023-04-10T09:01:36Z</time>
      </trkpt>
      <trkpt lat="48.08049" lon="-3.20213">
        <ele>153.8</ele>
        <time>2023-04-10T09:01:37Z</time>
      </trkpt>
      <trkpt lat="48.08048" lon="-3.2021">
        <ele>154</ele>
        <time>2023-04-10T09:01:38Z</time>
      </trkpt>
      <trkpt lat="48.08048" lon="-3.20207">
        <ele>154</ele>
        <time>2023-04-10T09:01:39Z</time>
      </trkpt>
      <trkpt lat="48.08047" lon="-3.20205">
        <ele>154.2</ele>
        <time>2023-04-10T09:01:40Z</time>
      </trkpt>
      <trkpt lat="48.08048" lon="-3.20202">
        <ele>154.2</ele>
        <time>2023-04-10T09:01:41Z</time>
      </trkpt>
      <trkpt lat="48.08049" lon="-3.20197">
        <ele>154.4</ele>
        <time>2023-04-10T09:01:42Z</time>
      </trkpt>
      <trkpt lat="48.08051" lon="-3.20195">
        <ele>154.4</ele>
        <time>2023-04-10T09:01:43Z</time>
      </trkpt>
      <trkpt lat="48.08052" lon="-3.20193">
        <ele>154.4</ele>
        <time>2023-04-10T09:01:44Z</time>
      </trkpt>
      <trkpt lat="48.08053" lon="-3.2019">
        <ele>154.4</ele>
        <time>2023-04-10T09:01:45Z</time>
      </trkpt>
      <trkpt lat="48.08054" lon="-3.20188">
        <ele>154.6</ele>
        <time>2023-04-10T09:01:46Z</time>
      </trkpt>
      <trkpt lat="48.08055" lon="-3.20187">
        <ele>154.8</ele>
        <time>2023-04-10T09:01:47Z</time>
      </trkpt>
      <trkpt lat="48.08055" lon="-3.20186">
        <ele>155</ele>
        <time>2023-04-10T09:01:48Z</time>
      </trkpt>
      <trkpt lat="48.08056" lon="-3.20186">
        <ele>155.2</ele>
        <time>2023-04-10T09:01:49Z</time>
      </trkpt>
      <trkpt lat="48.08057" lon="-3.20185">
        <ele>155.2</ele>
        <time>2023-04-10T09:01:50Z</time>
      </trkpt>
      <trkpt lat="48.08058" lon="-3.20183">
        <ele>155.4</ele>
        <time>2023-04-10T09:01:51Z</time>
      </trkpt>
      <trkpt lat="48.08058" lon="-3.20181">
        <ele>155.6</ele>
        <time>2023-04-10T09:01:52Z</time>
      </trkpt>
      <trkpt lat="48.08059" lon="-3.2018">
        <ele>155.8</ele>
        <time>2023-04-10T09:01:53Z</time>
      </trkpt>
      <trkpt lat="48.0806" lon="-3.20177">
        <ele>155.8</ele>
        <time>2023-04-10T09:01:54Z</time>
      </trkpt>
      <trkpt lat="48.08061" lon="-3.20175">
        <ele>156</ele>
        <time>2023-04-10T09:01:55Z</time>
      </trkpt>
      <trkpt lat="48.08062" lon="-3.20173">
        <ele>156.2</ele>
        <time>2023-04-10T09:01:56Z</time>
      </trkpt>
      <trkpt lat="48.08064" lon="-3.20172">
        <ele>156.4</ele>
        <time>2023-04-10T09:01:57Z</time>
      </trkpt>
      <trkpt lat="48.08065" lon="-3.20169">
        <ele>156.6</ele>
        <time>2023-04-10T09:01:58Z</time>
      </trkpt>
      <trkpt lat="48.08066" lon="-3.20167">
        <ele>156.8</ele>
        <time>2023-04-10T09:01:59Z</time>
      </trkpt>
      <trkpt lat="48.08068" lon="-3.20164">
        <ele>156.8</ele>
        <time>2023-04-10T09:02:00Z</time>
      </trkpt>
      <trkpt lat="48.08069" lon="-3.20161">
        <ele>157</ele>
        <time>2023-04-10T09:02:01Z</time>
      </trkpt>
      <trkpt lat="48.08071" lon="-3.20159">
        <ele>157</ele>
        <time>2023-04-10T09:02:02Z</time>
      </trkpt>
      <trkpt lat="48.08072" lon="-3.20158">
        <ele>157</ele>
        <time>2023-04-10T09:02:03Z</time>
      </trkpt>
      <trkpt lat="48.08073" lon="-3.20156">
        <ele>157.2</ele>
        <time>2023-04-10T09:02:04Z</time>
      </trkpt>
      <trkpt lat="48.08074" lon="-3.20155">
        <ele>157.2</ele>
        <time>2023-04-10T09:02:05Z</time>
      </trkpt>
      <trkpt lat="48.08075" lon="-3.20152">
        <ele>157.4</ele>
        <time>2023-04-10T09:02:06Z</time>
      </trkpt>
      <trkpt lat="48.08076" lon="-3.20149">
        <ele>157.4</ele>
        <time>2023-04-10T09:02:07Z</time>
      </trkpt>
      <trkpt lat="48.08078" lon="-3.20146">
        <ele>157.4</ele>
        <time>2023-04-10T09:02:08Z</time>
      </trkpt>
      <trkpt lat="48.08079" lon="-3.20144">
        <ele>157.4</ele>
        <time>2023-04-10T09:02:09Z</time>
      </trkpt>
      <trkpt lat="48.0808" lon="-3.20143">
        <ele>157.6</ele>
        <time>2023-04-10T09:02:10Z</time>
      </trkpt>
      <trkpt lat="48.08081" lon="-3.20141">
        <ele>157.6</ele>
        <time>2023-04-10T09:02:11Z</time>
      </trkpt>
      <trkpt lat="48.08081" lon="-3.20138">
        <ele>157.8</ele>
        <time>2023-04-10T09:02:12Z</time>
      </trkpt>
      <trkpt lat="48.08081" lon="-3.20134">
        <ele>158</ele>
        <time>2023-04-10T09:02:13Z</time>
      </trkpt>
      <trkpt lat="48.08081" lon="-3.20129">
        <ele>158.2</ele>
        <time>2023-04-10T09:02:14Z</time>
      </trkpt>
      <trkpt lat="48.08082" lon="-3.20126">
        <ele>158.6</ele>
        <time>2023-04-10T09:02:15Z</time>
      </trkpt>
      <trkpt lat="48.08083" lon="-3.20123">
        <ele>158.8</ele>
        <time>2023-04-10T09:02:16Z</time>
      </trkpt>
      <trkpt lat="48.08083" lon="-3.2012">
        <ele>159</ele>
        <time>2023-04-10T09:02:17Z</time>
      </trkpt>
      <trkpt lat="48.08084" lon="-3.2012">
        <ele>159.2</ele>
        <time>2023-04-10T09:02:18Z</time>
      </trkpt>
      <trkpt lat="48.08084" lon="-3.20118">
        <ele>159.4</ele>
        <time>2023-04-10T09:02:19Z</time>
      </trkpt>
      <trkpt lat="48.08085" lon="-3.20116">
        <ele>159.8</ele>
        <time>2023-04-10T09:02:20Z</time>
      </trkpt>
      <trkpt lat="48.08086" lon="-3.20115">
        <ele>159.8</ele>
        <time>2023-04-10T09:02:21Z</time>
      </trkpt>
      <trkpt lat="48.08086" lon="-3.20113">
        <ele>160.2</ele>
        <time>2023-04-10T09:02:22Z</time>
      </trkpt>
      <trkpt lat="48.08087" lon="-3.20111">
        <ele>160.4</ele>
        <time>2023-04-10T09:02:23Z</time>
      </trkpt>
      <trkpt lat="48.08087" lon="-3.20109">
        <ele>160.8</ele>
        <time>2023-04-10T09:02:24Z</time>
      </trkpt>
      <trkpt lat="48.08088" lon="-3.20108">
        <ele>161</ele>
        <time>2023-04-10T09:02:25Z</time>
      </trkpt>
      <trkpt lat="48.08088" lon="-3.20107">
        <ele>161.2</ele>
        <time>2023-04-10T09:02:26Z</time>
      </trkpt>
      <trkpt lat="48.08088" lon="-3.20105">
        <ele>161.4</ele>
        <time>2023-04-10T09:02:27Z</time>
      </trkpt>
      <trkpt lat="48.08089" lon="-3.20103">
        <ele>161.6</ele>
        <time>2023-04-10T09:02:28Z</time>
      </trkpt>
      <trkpt lat="48.0809" lon="-3.20101">
        <ele>161.6</ele>
        <time>2023-04-10T09:02:29Z</time>
      </trkpt>
      <trkpt lat="48.08091" lon="-3.201">
        <ele>161.8</ele>
        <time>2023-04-10T09:02:30Z</time>
      </trkpt>
      <trkpt lat="48.08091" lon="-3.201">
        <ele>162.2</ele>
        <time>2023-04-10T09:02:31Z</time>
      </trkpt>
      <trkpt lat="48.08091" lon="-3.20096">
        <ele>163</ele>
        <time>2023-04-10T09:02:36Z</time>
      </trkpt>
      <trkpt lat="48.08091" lon="-3.20095">
        <ele>163</ele>
        <time>2023-04-10T09:02:37Z</time>
      </trkpt>
      <trkpt lat="48.08091" lon="-3.20095">
        <ele>163.2</ele>
        <time>2023-04-10T09:02:38Z</time>
      </trkpt>
      <trkpt lat="48.08091" lon="-3.20093">
        <ele>163.2</ele>
        <time>2023-04-10T09:02:39Z</time>
      </trkpt>
      <trkpt lat="48.08091" lon="-3.20092">
        <ele>163.4</ele>
        <time>2023-04-10T09:02:40Z</time>
      </trkpt>
      <trkpt lat="48.08092" lon="-3.2009">
        <ele>163.4</ele>
        <time>2023-04-10T09:02:41Z</time>
      </trkpt>
      <trkpt lat="48.08092" lon="-3.20088">
        <ele>163.4</ele>
        <time>2023-04-10T09:02:42Z</time>
      </trkpt>
      <trkpt lat="48.08093" lon="-3.20086">
        <ele>163.4</ele>
        <time>2023-04-10T09:02:43Z</time>
      </trkpt>
      <trkpt lat="48.08094" lon="-3.20084">
        <ele>163.6</ele>
        <time>2023-04-10T09:02:44Z</time>
      </trkpt>
      <trkpt lat="48.08094" lon="-3.20083">
        <ele>163.6</ele>
        <time>2023-04-10T09:02:45Z</time>
      </trkpt>
      <trkpt lat="48.08095" lon="-3.20081">
        <ele>163.6</ele>
        <time>2023-04-10T09:02:46Z</time>
      </trkpt>
      <trkpt lat="48.08095" lon="-3.20079">
        <ele>163.8</ele>
        <time>2023-04-10T09:02:47Z</time>
      </trkpt>
      <trkpt lat="48.08096" lon="-3.20076">
        <ele>163.8</ele>
        <time>2023-04-10T09:02:48Z</time>
      </trkpt>
      <trkpt lat="48.08097" lon="-3.20073">
        <ele>164</ele>
        <time>2023-04-10T09:02:49Z</time>
      </trkpt>
      <trkpt lat="48.08099" lon="-3.2007">
        <ele>164</ele>
        <time>2023-04-10T09:02:50Z</time>
      </trkpt>
      <trkpt lat="48.081" lon="-3.20068">
        <ele>164.2</ele>
        <time>2023-04-10T09:02:51Z</time>
      </trkpt>
      <trkpt lat="48.081" lon="-3.20068">
        <ele>164.2</ele>
        <time>2023-04-10T09:02:52Z</time>
      </trkpt>
      <trkpt lat="48.081" lon="-3.20067">
        <ele>164.2</ele>
        <time>2023-04-10T09:02:53Z</time>
      </trkpt>
      <trkpt lat="48.08102" lon="-3.20064">
        <ele>164.4</ele>
        <time>2023-04-10T09:02:55Z</time>
      </trkpt>
      <trkpt lat="48.08103" lon="-3.20061">
        <ele>164.4</ele>
        <time>2023-04-10T09:02:56Z</time>
      </trkpt>
      <trkpt lat="48.08104" lon="-3.20059">
        <ele>164.6</ele>
        <time>2023-04-10T09:02:57Z</time>
      </trkpt>
      <trkpt lat="48.08105" lon="-3.20056">
        <ele>164.6</ele>
        <time>2023-04-10T09:02:58Z</time>
      </trkpt>
      <trkpt lat="48.08106" lon="-3.20053">
        <ele>164.6</ele>
        <time>2023-04-10T09:02:59Z</time>
      </trkpt>
      <trkpt lat="48.08107" lon="-3.20049">
        <ele>164.6</ele>
        <time>2023-04-10T09:03:00Z</time>
      </trkpt>
      <trkpt lat="48.08108" lon="-3.20046">
        <ele>164.8</ele>
        <time>2023-04-10T09:03:01Z</time>
      </trkpt>
      <trkpt lat="48.08112" lon="-3.20035">
        <ele>164.8</ele>
        <time>2023-04-10T09:03:04Z</time>
      </trkpt>
      <trkpt lat="48.0812" lon="-3.20003">
        <ele>165.4</ele>
        <time>2023-04-10T09:03:11Z</time>
      </trkpt>
      <trkpt lat="48.0812" lon="-3.19997">
        <ele>165.6</ele>
        <time>2023-04-10T09:03:12Z</time>
      </trkpt>
      <trkpt lat="48.08122" lon="-3.19958">
        <ele>166.2</ele>
        <time>2023-04-10T09:03:19Z</time>
      </trkpt>
      <trkpt lat="48.08121" lon="-3.19953">
        <ele>166.4</ele>
        <time>2023-04-10T09:03:20Z</time>
      </trkpt>
      <trkpt lat="48.08121" lon="-3.19947">
        <ele>166.4</ele>
        <time>2023-04-10T09:03:21Z</time>
      </trkpt>
      <trkpt lat="48.08117" lon="-3.19917">
        <ele>166.8</ele>
        <time>2023-04-10T09:03:26Z</time>
      </trkpt>
      <trkpt lat="48.08116" lon="-3.19911">
        <ele>167</ele>
        <time>2023-04-10T09:03:27Z</time>
      </trkpt>
      <trkpt lat="48.08111" lon="-3.19885">
        <ele>167.2</ele>
        <time>2023-04-10T09:03:31Z</time>
      </trkpt>
      <trkpt lat="48.08107" lon="-3.19865">
        <ele>167.2</ele>
        <time>2023-04-10T09:03:34Z</time>
      </trkpt>
      <trkpt lat="48.08106" lon="-3.19859">
        <ele>167.2</ele>
        <time>2023-04-10T09:03:35Z</time>
      </trkpt>
      <trkpt lat="48.08105" lon="-3.19853">
        <ele>167.2</ele>
        <time>2023-04-10T09:03:36Z</time>
      </trkpt>
      <trkpt lat="48.08103" lon="-3.19847">
        <ele>167.2</ele>
        <time>2023-04-10T09:03:37Z</time>
      </trkpt>
      <trkpt lat="48.08101" lon="-3.19841">
        <ele>167.2</ele>
        <time>2023-04-10T09:03:38Z</time>
      </trkpt>
      <trkpt lat="48.08096" lon="-3.19822">
        <ele>167.2</ele>
        <time>2023-04-10T09:03:41Z</time>
      </trkpt>
      <trkpt lat="48.08087" lon="-3.19784">
        <ele>167.4</ele>
        <time>2023-04-10T09:03:47Z</time>
      </trkpt>
      <trkpt lat="48.0808" lon="-3.19759">
        <ele>167.8</ele>
        <time>2023-04-10T09:03:51Z</time>
      </trkpt>
      <trkpt lat="48.08072" lon="-3.19724">
        <ele>168</ele>
        <time>2023-04-10T09:03:56Z</time>
      </trkpt>
      <trkpt lat="48.0807" lon="-3.19711">
        <ele>168</ele>
        <time>2023-04-10T09:03:58Z</time>
      </trkpt>
      <trkpt lat="48.08068" lon="-3.19705">
        <ele>168</ele>
        <time>2023-04-10T09:03:59Z</time>
      </trkpt>
      <trkpt lat="48.08066" lon="-3.19699">
        <ele>168</ele>
        <time>2023-04-10T09:04:00Z</time>
      </trkpt>
      <trkpt lat="48.08059" lon="-3.19689">
        <ele>168.2</ele>
        <time>2023-04-10T09:04:02Z</time>
      </trkpt>
      <trkpt lat="48.08055" lon="-3.19687">
        <ele>168.2</ele>
        <time>2023-04-10T09:04:03Z</time>
      </trkpt>
      <trkpt lat="48.08051" lon="-3.19685">
        <ele>168.2</ele>
        <time>2023-04-10T09:04:04Z</time>
      </trkpt>
      <trkpt lat="48.08047" lon="-3.19683">
        <ele>168.4</ele>
        <time>2023-04-10T09:04:05Z</time>
      </trkpt>
      <trkpt lat="48.08042" lon="-3.1968">
        <ele>168.6</ele>
        <time>2023-04-10T09:04:06Z</time>
      </trkpt>
      <trkpt lat="48.08035" lon="-3.19676">
        <ele>168.8</ele>
        <time>2023-04-10T09:04:08Z</time>
      </trkpt>
      <trkpt lat="48.08012" lon="-3.19661">
        <ele>169</ele>
        <time>2023-04-10T09:04:14Z</time>
      </trkpt>
      <trkpt lat="48.07998" lon="-3.19651">
        <ele>169.4</ele>
        <time>2023-04-10T09:04:17Z</time>
      </trkpt>
      <trkpt lat="48.07989" lon="-3.19644">
        <ele>169.6</ele>
        <time>2023-04-10T09:04:19Z</time>
      </trkpt>
      <trkpt lat="48.07978" lon="-3.19634">
        <ele>170</ele>
        <time>2023-04-10T09:04:22Z</time>
      </trkpt>
      <trkpt lat="48.07965" lon="-3.19623">
        <ele>170.2</ele>
        <time>2023-04-10T09:04:25Z</time>
      </trkpt>
      <trkpt lat="48.07957" lon="-3.19616">
        <ele>170.4</ele>
        <time>2023-04-10T09:04:27Z</time>
      </trkpt>
      <trkpt lat="48.07952" lon="-3.19611">
        <ele>170.6</ele>
        <time>2023-04-10T09:04:28Z</time>
      </trkpt>
      <trkpt lat="48.07948" lon="-3.19607">
        <ele>170.6</ele>
        <time>2023-04-10T09:04:29Z</time>
      </trkpt>
      <trkpt lat="48.07941" lon="-3.196">
        <ele>170.8</ele>
        <time>2023-04-10T09:04:31Z</time>
      </trkpt>
      <trkpt lat="48.07919" lon="-3.19581">
        <ele>170.8</ele>
        <time>2023-04-10T09:04:36Z</time>
      </trkpt>
      <trkpt lat="48.07915" lon="-3.19576">
        <ele>171</ele>
        <time>2023-04-10T09:04:37Z</time>
      </trkpt>
      <trkpt lat="48.07885" lon="-3.19543">
        <ele>171.4</ele>
        <time>2023-04-10T09:04:44Z</time>
      </trkpt>
      <trkpt lat="48.07849" lon="-3.19499">
        <ele>171.6</ele>
        <time>2023-04-10T09:04:52Z</time>
      </trkpt>
      <trkpt lat="48.07822" lon="-3.19447">
        <ele>171.6</ele>
        <time>2023-04-10T09:04:59Z</time>
      </trkpt>
      <trkpt lat="48.07815" lon="-3.19431">
        <ele>171.4</ele>
        <time>2023-04-10T09:05:01Z</time>
      </trkpt>
      <trkpt lat="48.07811" lon="-3.19423">
        <ele>171.4</ele>
        <time>2023-04-10T09:05:02Z</time>
      </trkpt>
      <trkpt lat="48.07808" lon="-3.19417">
        <ele>171.4</ele>
        <time>2023-04-10T09:05:03Z</time>
      </trkpt>
      <trkpt lat="48.07805" lon="-3.19408">
        <ele>171.4</ele>
        <time>2023-04-10T09:05:04Z</time>
      </trkpt>
      <trkpt lat="48.07801" lon="-3.19401">
        <ele>171.4</ele>
        <time>2023-04-10T09:05:05Z</time>
      </trkpt>
      <trkpt lat="48.07798" lon="-3.19394">
        <ele>171.4</ele>
        <time>2023-04-10T09:05:06Z</time>
      </trkpt>
      <trkpt lat="48.07796" lon="-3.19388">
        <ele>171.4</ele>
        <time>2023-04-10T09:05:07Z</time>
      </trkpt>
      <trkpt lat="48.07793" lon="-3.19381">
        <ele>171.4</ele>
        <time>2023-04-10T09:05:08Z</time>
      </trkpt>
      <trkpt lat="48.0779" lon="-3.19374">
        <ele>171.4</ele>
        <time>2023-04-10T09:05:09Z</time>
      </trkpt>
      <trkpt lat="48.07788" lon="-3.19368">
        <ele>171.4</ele>
        <time>2023-04-10T09:05:10Z</time>
      </trkpt>
      <trkpt lat="48.07786" lon="-3.19362">
        <ele>171.4</ele>
        <time>2023-04-10T09:05:11Z</time>
      </trkpt>
      <trkpt lat="48.07783" lon="-3.19356">
        <ele>171.4</ele>
        <time>2023-04-10T09:05:12Z</time>
      </trkpt>
      <trkpt lat="48.07781" lon="-3.1935">
        <ele>171.4</ele>
        <time>2023-04-10T09:05:13Z</time>
      </trkpt>
      <trkpt lat="48.07778" lon="-3.19345">
        <ele>171.4</ele>
        <time>2023-04-10T09:05:14Z</time>
      </trkpt>
      <trkpt lat="48.07776" lon="-3.19339">
        <ele>171.8</ele>
        <time>2023-04-10T09:05:15Z</time>
      </trkpt>
      <trkpt lat="48.07773" lon="-3.19333">
        <ele>171.8</ele>
        <time>2023-04-10T09:05:16Z</time>
      </trkpt>
      <trkpt lat="48.0777" lon="-3.19327">
        <ele>172</ele>
        <time>2023-04-10T09:05:17Z</time>
      </trkpt>
      <trkpt lat="48.07766" lon="-3.1932">
        <ele>172.2</ele>
        <time>2023-04-10T09:05:18Z</time>
      </trkpt>
      <trkpt lat="48.07764" lon="-3.19315">
        <ele>172.4</ele>
        <time>2023-04-10T09:05:19Z</time>
      </trkpt>
      <trkpt lat="48.07761" lon="-3.19308">
        <ele>172.6</ele>
        <time>2023-04-10T09:05:20Z</time>
      </trkpt>
      <trkpt lat="48.07758" lon="-3.19302">
        <ele>172.8</ele>
        <time>2023-04-10T09:05:21Z</time>
      </trkpt>
      <trkpt lat="48.07756" lon="-3.19297">
        <ele>173</ele>
        <time>2023-04-10T09:05:22Z</time>
      </trkpt>
      <trkpt lat="48.0775" lon="-3.19286">
        <ele>173.4</ele>
        <time>2023-04-10T09:05:24Z</time>
      </trkpt>
      <trkpt lat="48.07745" lon="-3.19274">
        <ele>174</ele>
        <time>2023-04-10T09:05:26Z</time>
      </trkpt>
      <trkpt lat="48.07742" lon="-3.19268">
        <ele>174</ele>
        <time>2023-04-10T09:05:27Z</time>
      </trkpt>
      <trkpt lat="48.07739" lon="-3.19263">
        <ele>174.2</ele>
        <time>2023-04-10T09:05:28Z</time>
      </trkpt>
      <trkpt lat="48.07736" lon="-3.19257">
        <ele>174.2</ele>
        <time>2023-04-10T09:05:29Z</time>
      </trkpt>
      <trkpt lat="48.07733" lon="-3.19251">
        <ele>174.4</ele>
        <time>2023-04-10T09:05:30Z</time>
      </trkpt>
      <trkpt lat="48.07731" lon="-3.19246">
        <ele>174.4</ele>
        <time>2023-04-10T09:05:31Z</time>
      </trkpt>
      <trkpt lat="48.07728" lon="-3.19241">
        <ele>174.6</ele>
        <time>2023-04-10T09:05:32Z</time>
      </trkpt>
      <trkpt lat="48.07725" lon="-3.19237">
        <ele>174.8</ele>
        <time>2023-04-10T09:05:33Z</time>
      </trkpt>
      <trkpt lat="48.07722" lon="-3.19232">
        <ele>175</ele>
        <time>2023-04-10T09:05:34Z</time>
      </trkpt>
      <trkpt lat="48.07719" lon="-3.19226">
        <ele>175.4</ele>
        <time>2023-04-10T09:05:35Z</time>
      </trkpt>
      <trkpt lat="48.07716" lon="-3.19221">
        <ele>175.6</ele>
        <time>2023-04-10T09:05:36Z</time>
      </trkpt>
      <trkpt lat="48.07713" lon="-3.19217">
        <ele>175.8</ele>
        <time>2023-04-10T09:05:37Z</time>
      </trkpt>
      <trkpt lat="48.0771" lon="-3.19212">
        <ele>176</ele>
        <time>2023-04-10T09:05:38Z</time>
      </trkpt>
      <trkpt lat="48.07706" lon="-3.19207">
        <ele>176</ele>
        <time>2023-04-10T09:05:39Z</time>
      </trkpt>
      <trkpt lat="48.07702" lon="-3.19202">
        <ele>176.2</ele>
        <time>2023-04-10T09:05:40Z</time>
      </trkpt>
      <trkpt lat="48.077" lon="-3.19198">
        <ele>176.4</ele>
        <time>2023-04-10T09:05:41Z</time>
      </trkpt>
      <trkpt lat="48.07696" lon="-3.19194">
        <ele>176.6</ele>
        <time>2023-04-10T09:05:42Z</time>
      </trkpt>
      <trkpt lat="48.07692" lon="-3.1919">
        <ele>176.8</ele>
        <time>2023-04-10T09:05:43Z</time>
      </trkpt>
      <trkpt lat="48.07688" lon="-3.19186">
        <ele>177.2</ele>
        <time>2023-04-10T09:05:44Z</time>
      </trkpt>
      <trkpt lat="48.07685" lon="-3.19182">
        <ele>177.4</ele>
        <time>2023-04-10T09:05:45Z</time>
      </trkpt>
      <trkpt lat="48.07681" lon="-3.19178">
        <ele>177.6</ele>
        <time>2023-04-10T09:05:46Z</time>
      </trkpt>
      <trkpt lat="48.07677" lon="-3.19174">
        <ele>177.8</ele>
        <time>2023-04-10T09:05:47Z</time>
      </trkpt>
      <trkpt lat="48.07673" lon="-3.1917">
        <ele>178</ele>
        <time>2023-04-10T09:05:48Z</time>
      </trkpt>
      <trkpt lat="48.07669" lon="-3.19166">
        <ele>178</ele>
        <time>2023-04-10T09:05:49Z</time>
      </trkpt>
      <trkpt lat="48.07666" lon="-3.19163">
        <ele>178</ele>
        <time>2023-04-10T09:05:50Z</time>
      </trkpt>
      <trkpt lat="48.07662" lon="-3.19159">
        <ele>178.2</ele>
        <time>2023-04-10T09:05:51Z</time>
      </trkpt>
      <trkpt lat="48.07658" lon="-3.19156">
        <ele>178.2</ele>
        <time>2023-04-10T09:05:52Z</time>
      </trkpt>
      <trkpt lat="48.07655" lon="-3.19152">
        <ele>178.4</ele>
        <time>2023-04-10T09:05:53Z</time>
      </trkpt>
      <trkpt lat="48.07651" lon="-3.19148">
        <ele>178.4</ele>
        <time>2023-04-10T09:05:54Z</time>
      </trkpt>
      <trkpt lat="48.07647" lon="-3.19144">
        <ele>178.4</ele>
        <time>2023-04-10T09:05:55Z</time>
      </trkpt>
      <trkpt lat="48.07643" lon="-3.1914">
        <ele>178.4</ele>
        <time>2023-04-10T09:05:56Z</time>
      </trkpt>
      <trkpt lat="48.07639" lon="-3.19136">
        <ele>178.4</ele>
        <time>2023-04-10T09:05:57Z</time>
      </trkpt>
      <trkpt lat="48.07637" lon="-3.19133">
        <ele>178.4</ele>
        <time>2023-04-10T09:05:58Z</time>
      </trkpt>
      <trkpt lat="48.07634" lon="-3.19131">
        <ele>178.4</ele>
        <time>2023-04-10T09:05:59Z</time>
      </trkpt>
      <trkpt lat="48.07632" lon="-3.19129">
        <ele>178.4</ele>
        <time>2023-04-10T09:06:00Z</time>
      </trkpt>
      <trkpt lat="48.0763" lon="-3.19126">
        <ele>178.4</ele>
        <time>2023-04-10T09:06:01Z</time>
      </trkpt>
      <trkpt lat="48.07626" lon="-3.19123">
        <ele>178.4</ele>
        <time>2023-04-10T09:06:02Z</time>
      </trkpt>
      <trkpt lat="48.07622" lon="-3.19118">
        <ele>178.4</ele>
        <time>2023-04-10T09:06:03Z</time>
      </trkpt>
      <trkpt lat="48.07619" lon="-3.19113">
        <ele>178.2</ele>
        <time>2023-04-10T09:06:04Z</time>
      </trkpt>
      <trkpt lat="48.07615" lon="-3.19107">
        <ele>178.2</ele>
        <time>2023-04-10T09:06:05Z</time>
      </trkpt>
      <trkpt lat="48.07611" lon="-3.19101">
        <ele>178</ele>
        <time>2023-04-10T09:06:06Z</time>
      </trkpt>
      <trkpt lat="48.07596" lon="-3.19071">
        <ele>177.4</ele>
        <time>2023-04-10T09:06:10Z</time>
      </trkpt>
      <trkpt lat="48.07569" lon="-3.19014">
        <ele>176.6</ele>
        <time>2023-04-10T09:06:16Z</time>
      </trkpt>
      <trkpt lat="48.07564" lon="-3.19004">
        <ele>176.4</ele>
        <time>2023-04-10T09:06:17Z</time>
      </trkpt>
      <trkpt lat="48.07555" lon="-3.18982">
        <ele>175.8</ele>
        <time>2023-04-10T09:06:19Z</time>
      </trkpt>
      <trkpt lat="48.07545" lon="-3.1896">
        <ele>175.2</ele>
        <time>2023-04-10T09:06:21Z</time>
      </trkpt>
      <trkpt lat="48.07536" lon="-3.18937">
        <ele>174.6</ele>
        <time>2023-04-10T09:06:23Z</time>
      </trkpt>
      <trkpt lat="48.07533" lon="-3.18925">
        <ele>174.2</ele>
        <time>2023-04-10T09:06:24Z</time>
      </trkpt>
      <trkpt lat="48.0753" lon="-3.18912">
        <ele>173.8</ele>
        <time>2023-04-10T09:06:25Z</time>
      </trkpt>
      <trkpt lat="48.07527" lon="-3.18889">
        <ele>172.6</ele>
        <time>2023-04-10T09:06:27Z</time>
      </trkpt>
      <trkpt lat="48.07523" lon="-3.18861">
        <ele>171.8</ele>
        <time>2023-04-10T09:06:29Z</time>
      </trkpt>
      <trkpt lat="48.0752" lon="-3.18848">
        <ele>171.4</ele>
        <time>2023-04-10T09:06:30Z</time>
      </trkpt>
      <trkpt lat="48.07517" lon="-3.18836">
        <ele>171</ele>
        <time>2023-04-10T09:06:31Z</time>
      </trkpt>
      <trkpt lat="48.07511" lon="-3.18826">
        <ele>170.6</ele>
        <time>2023-04-10T09:06:32Z</time>
      </trkpt>
      <trkpt lat="48.07505" lon="-3.18818">
        <ele>170.2</ele>
        <time>2023-04-10T09:06:33Z</time>
      </trkpt>
      <trkpt lat="48.07499" lon="-3.18812">
        <ele>169.8</ele>
        <time>2023-04-10T09:06:34Z</time>
      </trkpt>
      <trkpt lat="48.07493" lon="-3.18808">
        <ele>169.8</ele>
        <time>2023-04-10T09:06:35Z</time>
      </trkpt>
      <trkpt lat="48.07485" lon="-3.18803">
        <ele>169.4</ele>
        <time>2023-04-10T09:06:36Z</time>
      </trkpt>
      <trkpt lat="48.07477" lon="-3.188">
        <ele>169</ele>
        <time>2023-04-10T09:06:37Z</time>
      </trkpt>
      <trkpt lat="48.07462" lon="-3.18793">
        <ele>168.2</ele>
        <time>2023-04-10T09:06:39Z</time>
      </trkpt>
      <trkpt lat="48.07447" lon="-3.18786">
        <ele>167.6</ele>
        <time>2023-04-10T09:06:41Z</time>
      </trkpt>
      <trkpt lat="48.07424" lon="-3.18775">
        <ele>167.2</ele>
        <time>2023-04-10T09:06:44Z</time>
      </trkpt>
      <trkpt lat="48.07418" lon="-3.18772">
        <ele>166.8</ele>
        <time>2023-04-10T09:06:45Z</time>
      </trkpt>
      <trkpt lat="48.07411" lon="-3.18768">
        <ele>166.6</ele>
        <time>2023-04-10T09:06:46Z</time>
      </trkpt>
      <trkpt lat="48.07402" lon="-3.18763">
        <ele>166.6</ele>
        <time>2023-04-10T09:06:47Z</time>
      </trkpt>
      <trkpt lat="48.07395" lon="-3.1876">
        <ele>166.4</ele>
        <time>2023-04-10T09:06:48Z</time>
      </trkpt>
      <trkpt lat="48.07388" lon="-3.18757">
        <ele>166</ele>
        <time>2023-04-10T09:06:49Z</time>
      </trkpt>
      <trkpt lat="48.07381" lon="-3.18753">
        <ele>165.8</ele>
        <time>2023-04-10T09:06:50Z</time>
      </trkpt>
      <trkpt lat="48.07375" lon="-3.1875">
        <ele>165.6</ele>
        <time>2023-04-10T09:06:51Z</time>
      </trkpt>
      <trkpt lat="48.0737" lon="-3.18747">
        <ele>165.4</ele>
        <time>2023-04-10T09:06:52Z</time>
      </trkpt>
      <trkpt lat="48.07364" lon="-3.18745">
        <ele>165.2</ele>
        <time>2023-04-10T09:06:53Z</time>
      </trkpt>
      <trkpt lat="48.07356" lon="-3.18741">
        <ele>164.8</ele>
        <time>2023-04-10T09:06:54Z</time>
      </trkpt>
      <trkpt lat="48.07351" lon="-3.18739">
        <ele>164.6</ele>
        <time>2023-04-10T09:06:55Z</time>
      </trkpt>
      <trkpt lat="48.07344" lon="-3.18735">
        <ele>164.4</ele>
        <time>2023-04-10T09:06:56Z</time>
      </trkpt>
      <trkpt lat="48.07339" lon="-3.18732">
        <ele>164.4</ele>
        <time>2023-04-10T09:06:57Z</time>
      </trkpt>
      <trkpt lat="48.07332" lon="-3.18728">
        <ele>164.4</ele>
        <time>2023-04-10T09:06:58Z</time>
      </trkpt>
      <trkpt lat="48.07326" lon="-3.18725">
        <ele>164.2</ele>
        <time>2023-04-10T09:06:59Z</time>
      </trkpt>
      <trkpt lat="48.07314" lon="-3.18719">
        <ele>164</ele>
        <time>2023-04-10T09:07:01Z</time>
      </trkpt>
      <trkpt lat="48.07298" lon="-3.1871">
        <ele>163.4</ele>
        <time>2023-04-10T09:07:04Z</time>
      </trkpt>
      <trkpt lat="48.07285" lon="-3.18704">
        <ele>163.4</ele>
        <time>2023-04-10T09:07:06Z</time>
      </trkpt>
      <trkpt lat="48.07274" lon="-3.18701">
        <ele>163.2</ele>
        <time>2023-04-10T09:07:08Z</time>
      </trkpt>
      <trkpt lat="48.07268" lon="-3.187">
        <ele>163</ele>
        <time>2023-04-10T09:07:09Z</time>
      </trkpt>
      <trkpt lat="48.07261" lon="-3.18698">
        <ele>162.8</ele>
        <time>2023-04-10T09:07:10Z</time>
      </trkpt>
      <trkpt lat="48.07255" lon="-3.18697">
        <ele>162.6</ele>
        <time>2023-04-10T09:07:11Z</time>
      </trkpt>
      <trkpt lat="48.0725" lon="-3.18696">
        <ele>162.4</ele>
        <time>2023-04-10T09:07:12Z</time>
      </trkpt>
      <trkpt lat="48.07238" lon="-3.18688">
        <ele>162</ele>
        <time>2023-04-10T09:07:14Z</time>
      </trkpt>
      <trkpt lat="48.07234" lon="-3.18681">
        <ele>161.8</ele>
        <time>2023-04-10T09:07:15Z</time>
      </trkpt>
      <trkpt lat="48.0723" lon="-3.18674">
        <ele>161.8</ele>
        <time>2023-04-10T09:07:16Z</time>
      </trkpt>
      <trkpt lat="48.07227" lon="-3.18667">
        <ele>161.8</ele>
        <time>2023-04-10T09:07:17Z</time>
      </trkpt>
      <trkpt lat="48.07224" lon="-3.18659">
        <ele>161.6</ele>
        <time>2023-04-10T09:07:18Z</time>
      </trkpt>
      <trkpt lat="48.07213" lon="-3.18635">
        <ele>161.2</ele>
        <time>2023-04-10T09:07:21Z</time>
      </trkpt>
      <trkpt lat="48.07209" lon="-3.18629">
        <ele>160.8</ele>
        <time>2023-04-10T09:07:22Z</time>
      </trkpt>
      <trkpt lat="48.07205" lon="-3.18624">
        <ele>160.6</ele>
        <time>2023-04-10T09:07:23Z</time>
      </trkpt>
      <trkpt lat="48.072" lon="-3.1862">
        <ele>160.4</ele>
        <time>2023-04-10T09:07:24Z</time>
      </trkpt>
      <trkpt lat="48.07196" lon="-3.1862">
        <ele>160.4</ele>
        <time>2023-04-10T09:07:25Z</time>
      </trkpt>
      <trkpt lat="48.07192" lon="-3.1862">
        <ele>160</ele>
        <time>2023-04-10T09:07:26Z</time>
      </trkpt>
      <trkpt lat="48.07189" lon="-3.18619">
        <ele>159.8</ele>
        <time>2023-04-10T09:07:27Z</time>
      </trkpt>
      <trkpt lat="48.07185" lon="-3.18617">
        <ele>159.6</ele>
        <time>2023-04-10T09:07:28Z</time>
      </trkpt>
      <trkpt lat="48.07182" lon="-3.18614">
        <ele>159.6</ele>
        <time>2023-04-10T09:07:29Z</time>
      </trkpt>
      <trkpt lat="48.07178" lon="-3.18611">
        <ele>159.4</ele>
        <time>2023-04-10T09:07:30Z</time>
      </trkpt>
      <trkpt lat="48.07174" lon="-3.18604">
        <ele>159</ele>
        <time>2023-04-10T09:07:31Z</time>
      </trkpt>
      <trkpt lat="48.07173" lon="-3.18598">
        <ele>158.8</ele>
        <time>2023-04-10T09:07:32Z</time>
      </trkpt>
      <trkpt lat="48.07171" lon="-3.1859">
        <ele>158.4</ele>
        <time>2023-04-10T09:07:33Z</time>
      </trkpt>
      <trkpt lat="48.07168" lon="-3.18582">
        <ele>158.2</ele>
        <time>2023-04-10T09:07:34Z</time>
      </trkpt>
      <trkpt lat="48.07166" lon="-3.18573">
        <ele>157.8</ele>
        <time>2023-04-10T09:07:35Z</time>
      </trkpt>
      <trkpt lat="48.07163" lon="-3.18565">
        <ele>157.8</ele>
        <time>2023-04-10T09:07:36Z</time>
      </trkpt>
      <trkpt lat="48.0716" lon="-3.18557">
        <ele>157.6</ele>
        <time>2023-04-10T09:07:37Z</time>
      </trkpt>
      <trkpt lat="48.07157" lon="-3.1855">
        <ele>157.6</ele>
        <time>2023-04-10T09:07:38Z</time>
      </trkpt>
      <trkpt lat="48.07155" lon="-3.18544">
        <ele>157.4</ele>
        <time>2023-04-10T09:07:39Z</time>
      </trkpt>
      <trkpt lat="48.07151" lon="-3.1854">
        <ele>157</ele>
        <time>2023-04-10T09:07:40Z</time>
      </trkpt>
      <trkpt lat="48.07147" lon="-3.18536">
        <ele>157</ele>
        <time>2023-04-10T09:07:41Z</time>
      </trkpt>
      <trkpt lat="48.07142" lon="-3.18534">
        <ele>156.4</ele>
        <time>2023-04-10T09:07:42Z</time>
      </trkpt>
      <trkpt lat="48.07138" lon="-3.18533">
        <ele>156.2</ele>
        <time>2023-04-10T09:07:43Z</time>
      </trkpt>
      <trkpt lat="48.07134" lon="-3.18534">
        <ele>155.8</ele>
        <time>2023-04-10T09:07:44Z</time>
      </trkpt>
      <trkpt lat="48.07131" lon="-3.18535">
        <ele>155.6</ele>
        <time>2023-04-10T09:07:45Z</time>
      </trkpt>
      <trkpt lat="48.07128" lon="-3.18536">
        <ele>155.4</ele>
        <time>2023-04-10T09:07:46Z</time>
      </trkpt>
      <trkpt lat="48.07124" lon="-3.18538">
        <ele>155.4</ele>
        <time>2023-04-10T09:07:47Z</time>
      </trkpt>
      <trkpt lat="48.07121" lon="-3.18539">
        <ele>155.2</ele>
        <time>2023-04-10T09:07:48Z</time>
      </trkpt>
      <trkpt lat="48.07118" lon="-3.18541">
        <ele>155.2</ele>
        <time>2023-04-10T09:07:49Z</time>
      </trkpt>
      <trkpt lat="48.07115" lon="-3.18544">
        <ele>155.2</ele>
        <time>2023-04-10T09:07:50Z</time>
      </trkpt>
      <trkpt lat="48.07111" lon="-3.18551">
        <ele>155.2</ele>
        <time>2023-04-10T09:07:52Z</time>
      </trkpt>
      <trkpt lat="48.07108" lon="-3.18557">
        <ele>155.2</ele>
        <time>2023-04-10T09:07:53Z</time>
      </trkpt>
      <trkpt lat="48.07106" lon="-3.18563">
        <ele>155.2</ele>
        <time>2023-04-10T09:07:54Z</time>
      </trkpt>
      <trkpt lat="48.07104" lon="-3.1857">
        <ele>155.2</ele>
        <time>2023-04-10T09:07:55Z</time>
      </trkpt>
      <trkpt lat="48.071" lon="-3.18585">
        <ele>155.2</ele>
        <time>2023-04-10T09:07:57Z</time>
      </trkpt>
      <trkpt lat="48.0709" lon="-3.18625">
        <ele>155</ele>
        <time>2023-04-10T09:08:02Z</time>
      </trkpt>
      <trkpt lat="48.07087" lon="-3.18631">
        <ele>155</ele>
        <time>2023-04-10T09:08:03Z</time>
      </trkpt>
      <trkpt lat="48.07086" lon="-3.18636">
        <ele>155</ele>
        <time>2023-04-10T09:08:04Z</time>
      </trkpt>
      <trkpt lat="48.07085" lon="-3.18641">
        <ele>155</ele>
        <time>2023-04-10T09:08:05Z</time>
      </trkpt>
      <trkpt lat="48.07087" lon="-3.18646">
        <ele>155</ele>
        <time>2023-04-10T09:08:06Z</time>
      </trkpt>
      <trkpt lat="48.0709" lon="-3.18653">
        <ele>154.8</ele>
        <time>2023-04-10T09:08:07Z</time>
      </trkpt>
      <trkpt lat="48.07092" lon="-3.1866">
        <ele>154.8</ele>
        <time>2023-04-10T09:08:08Z</time>
      </trkpt>
      <trkpt lat="48.07093" lon="-3.18667">
        <ele>154.6</ele>
        <time>2023-04-10T09:08:09Z</time>
      </trkpt>
      <trkpt lat="48.07093" lon="-3.18677">
        <ele>154.6</ele>
        <time>2023-04-10T09:08:10Z</time>
      </trkpt>
      <trkpt lat="48.07092" lon="-3.18685">
        <ele>154.4</ele>
        <time>2023-04-10T09:08:11Z</time>
      </trkpt>
      <trkpt lat="48.0709" lon="-3.18692">
        <ele>154.4</ele>
        <time>2023-04-10T09:08:12Z</time>
      </trkpt>
      <trkpt lat="48.07087" lon="-3.18697">
        <ele>154.2</ele>
        <time>2023-04-10T09:08:13Z</time>
      </trkpt>
      <trkpt lat="48.07083" lon="-3.18702">
        <ele>154.2</ele>
        <time>2023-04-10T09:08:14Z</time>
      </trkpt>
      <trkpt lat="48.07078" lon="-3.18707">
        <ele>154.2</ele>
        <time>2023-04-10T09:08:15Z</time>
      </trkpt>
      <trkpt lat="48.07075" lon="-3.18712">
        <ele>153.8</ele>
        <time>2023-04-10T09:08:16Z</time>
      </trkpt>
      <trkpt lat="48.07072" lon="-3.18719">
        <ele>153.4</ele>
        <time>2023-04-10T09:08:17Z</time>
      </trkpt>
      <trkpt lat="48.07068" lon="-3.18724">
        <ele>153</ele>
        <time>2023-04-10T09:08:18Z</time>
      </trkpt>
      <trkpt lat="48.07063" lon="-3.18729">
        <ele>152.6</ele>
        <time>2023-04-10T09:08:19Z</time>
      </trkpt>
      <trkpt lat="48.07053" lon="-3.18744">
        <ele>152</ele>
        <time>2023-04-10T09:08:22Z</time>
      </trkpt>
      <trkpt lat="48.0705" lon="-3.18747">
        <ele>152</ele>
        <time>2023-04-10T09:08:23Z</time>
      </trkpt>
      <trkpt lat="48.07046" lon="-3.18751">
        <ele>151.8</ele>
        <time>2023-04-10T09:08:24Z</time>
      </trkpt>
      <trkpt lat="48.07043" lon="-3.18754">
        <ele>151.8</ele>
        <time>2023-04-10T09:08:25Z</time>
      </trkpt>
      <trkpt lat="48.07041" lon="-3.18757">
        <ele>151.8</ele>
        <time>2023-04-10T09:08:26Z</time>
      </trkpt>
      <trkpt lat="48.07038" lon="-3.1876">
        <ele>151.8</ele>
        <time>2023-04-10T09:08:27Z</time>
      </trkpt>
      <trkpt lat="48.07034" lon="-3.18763">
        <ele>151.6</ele>
        <time>2023-04-10T09:08:28Z</time>
      </trkpt>
      <trkpt lat="48.07026" lon="-3.18768">
        <ele>151.6</ele>
        <time>2023-04-10T09:08:30Z</time>
      </trkpt>
      <trkpt lat="48.07022" lon="-3.18769">
        <ele>151.4</ele>
        <time>2023-04-10T09:08:31Z</time>
      </trkpt>
      <trkpt lat="48.07018" lon="-3.18768">
        <ele>151.4</ele>
        <time>2023-04-10T09:08:32Z</time>
      </trkpt>
      <trkpt lat="48.07013" lon="-3.18765">
        <ele>151.4</ele>
        <time>2023-04-10T09:08:33Z</time>
      </trkpt>
      <trkpt lat="48.07009" lon="-3.18761">
        <ele>151.2</ele>
        <time>2023-04-10T09:08:34Z</time>
      </trkpt>
      <trkpt lat="48.07004" lon="-3.18759">
        <ele>151.2</ele>
        <time>2023-04-10T09:08:35Z</time>
      </trkpt>
      <trkpt lat="48.07001" lon="-3.18756">
        <ele>151.2</ele>
        <time>2023-04-10T09:08:36Z</time>
      </trkpt>
      <trkpt lat="48.06997" lon="-3.18753">
        <ele>151.2</ele>
        <time>2023-04-10T09:08:37Z</time>
      </trkpt>
      <trkpt lat="48.06992" lon="-3.18749">
        <ele>151.2</ele>
        <time>2023-04-10T09:08:38Z</time>
      </trkpt>
      <trkpt lat="48.06989" lon="-3.18743">
        <ele>151</ele>
        <time>2023-04-10T09:08:39Z</time>
      </trkpt>
      <trkpt lat="48.06985" lon="-3.18736">
        <ele>151</ele>
        <time>2023-04-10T09:08:40Z</time>
      </trkpt>
      <trkpt lat="48.06983" lon="-3.1873">
        <ele>151</ele>
        <time>2023-04-10T09:08:41Z</time>
      </trkpt>
      <trkpt lat="48.06981" lon="-3.18725">
        <ele>150.8</ele>
        <time>2023-04-10T09:08:42Z</time>
      </trkpt>
      <trkpt lat="48.06974" lon="-3.18713">
        <ele>150.4</ele>
        <time>2023-04-10T09:08:44Z</time>
      </trkpt>
      <trkpt lat="48.06971" lon="-3.18708">
        <ele>150.4</ele>
        <time>2023-04-10T09:08:45Z</time>
      </trkpt>
      <trkpt lat="48.06969" lon="-3.18702">
        <ele>150.2</ele>
        <time>2023-04-10T09:08:46Z</time>
      </trkpt>
      <trkpt lat="48.06955" lon="-3.18667">
        <ele>149.4</ele>
        <time>2023-04-10T09:08:51Z</time>
      </trkpt>
      <trkpt lat="48.06943" lon="-3.18639">
        <ele>148.6</ele>
        <time>2023-04-10T09:08:55Z</time>
      </trkpt>
      <trkpt lat="48.0694" lon="-3.18632">
        <ele>148.6</ele>
        <time>2023-04-10T09:08:56Z</time>
      </trkpt>
      <trkpt lat="48.06937" lon="-3.18626">
        <ele>148.6</ele>
        <time>2023-04-10T09:08:57Z</time>
      </trkpt>
      <trkpt lat="48.06929" lon="-3.18605">
        <ele>148.6</ele>
        <time>2023-04-10T09:09:00Z</time>
      </trkpt>
      <trkpt lat="48.06926" lon="-3.18598">
        <ele>148.6</ele>
        <time>2023-04-10T09:09:01Z</time>
      </trkpt>
      <trkpt lat="48.06924" lon="-3.18591">
        <ele>148.6</ele>
        <time>2023-04-10T09:09:02Z</time>
      </trkpt>
      <trkpt lat="48.06922" lon="-3.18584">
        <ele>148.6</ele>
        <time>2023-04-10T09:09:03Z</time>
      </trkpt>
      <trkpt lat="48.0692" lon="-3.18578">
        <ele>148.6</ele>
        <time>2023-04-10T09:09:04Z</time>
      </trkpt>
      <trkpt lat="48.06918" lon="-3.18571">
        <ele>148.6</ele>
        <time>2023-04-10T09:09:05Z</time>
      </trkpt>
      <trkpt lat="48.06911" lon="-3.18545">
        <ele>148.8</ele>
        <time>2023-04-10T09:09:09Z</time>
      </trkpt>
      <trkpt lat="48.06912" lon="-3.18528">
        <ele>148.8</ele>
        <time>2023-04-10T09:09:11Z</time>
      </trkpt>
      <trkpt lat="48.06912" lon="-3.18522">
        <ele>148.8</ele>
        <time>2023-04-10T09:09:12Z</time>
      </trkpt>
      <trkpt lat="48.06913" lon="-3.18517">
        <ele>149</ele>
        <time>2023-04-10T09:09:13Z</time>
      </trkpt>
      <trkpt lat="48.06914" lon="-3.1851">
        <ele>149</ele>
        <time>2023-04-10T09:09:14Z</time>
      </trkpt>
      <trkpt lat="48.06914" lon="-3.18507">
        <ele>148.8</ele>
        <time>2023-04-10T09:09:15Z</time>
      </trkpt>
      <trkpt lat="48.06914" lon="-3.18504">
        <ele>148.8</ele>
        <time>2023-04-10T09:09:16Z</time>
      </trkpt>
      <trkpt lat="48.06913" lon="-3.18499">
        <ele>148.8</ele>
        <time>2023-04-10T09:09:17Z</time>
      </trkpt>
      <trkpt lat="48.06913" lon="-3.18494">
        <ele>148.8</ele>
        <time>2023-04-10T09:09:18Z</time>
      </trkpt>
      <trkpt lat="48.06913" lon="-3.18488">
        <ele>148.8</ele>
        <time>2023-04-10T09:09:19Z</time>
      </trkpt>
      <trkpt lat="48.06914" lon="-3.18478">
        <ele>149</ele>
        <time>2023-04-10T09:09:21Z</time>
      </trkpt>
      <trkpt lat="48.06914" lon="-3.18472">
        <ele>149</ele>
        <time>2023-04-10T09:09:22Z</time>
      </trkpt>
      <trkpt lat="48.06914" lon="-3.18462">
        <ele>149.2</ele>
        <time>2023-04-10T09:09:24Z</time>
      </trkpt>
      <trkpt lat="48.06913" lon="-3.18446">
        <ele>149.2</ele>
        <time>2023-04-10T09:09:27Z</time>
      </trkpt>
      <trkpt lat="48.06913" lon="-3.1844">
        <ele>149.4</ele>
        <time>2023-04-10T09:09:28Z</time>
      </trkpt>
      <trkpt lat="48.06914" lon="-3.18432">
        <ele>149.6</ele>
        <time>2023-04-10T09:09:29Z</time>
      </trkpt>
      <trkpt lat="48.06914" lon="-3.18418">
        <ele>150</ele>
        <time>2023-04-10T09:09:31Z</time>
      </trkpt>
      <trkpt lat="48.06914" lon="-3.18412">
        <ele>150.2</ele>
        <time>2023-04-10T09:09:32Z</time>
      </trkpt>
      <trkpt lat="48.06914" lon="-3.184">
        <ele>150.2</ele>
        <time>2023-04-10T09:09:34Z</time>
      </trkpt>
      <trkpt lat="48.06915" lon="-3.18395">
        <ele>150.2</ele>
        <time>2023-04-10T09:09:35Z</time>
      </trkpt>
      <trkpt lat="48.06915" lon="-3.18389">
        <ele>150.4</ele>
        <time>2023-04-10T09:09:36Z</time>
      </trkpt>
      <trkpt lat="48.06916" lon="-3.18381">
        <ele>150.4</ele>
        <time>2023-04-10T09:09:37Z</time>
      </trkpt>
      <trkpt lat="48.06916" lon="-3.18374">
        <ele>150.4</ele>
        <time>2023-04-10T09:09:38Z</time>
      </trkpt>
      <trkpt lat="48.06917" lon="-3.18367">
        <ele>150.4</ele>
        <time>2023-04-10T09:09:39Z</time>
      </trkpt>
      <trkpt lat="48.06917" lon="-3.18359">
        <ele>150.4</ele>
        <time>2023-04-10T09:09:40Z</time>
      </trkpt>
      <trkpt lat="48.06916" lon="-3.18353">
        <ele>150.6</ele>
        <time>2023-04-10T09:09:41Z</time>
      </trkpt>
      <trkpt lat="48.06916" lon="-3.18345">
        <ele>150.6</ele>
        <time>2023-04-10T09:09:42Z</time>
      </trkpt>
      <trkpt lat="48.06915" lon="-3.18338">
        <ele>150.6</ele>
        <time>2023-04-10T09:09:43Z</time>
      </trkpt>
      <trkpt lat="48.06913" lon="-3.18335">
        <ele>150.6</ele>
        <time>2023-04-10T09:09:44Z</time>
      </trkpt>
      <trkpt lat="48.06912" lon="-3.18333">
        <ele>150.8</ele>
        <time>2023-04-10T09:09:45Z</time>
      </trkpt>
      <trkpt lat="48.06909" lon="-3.1833">
        <ele>150.8</ele>
        <time>2023-04-10T09:09:46Z</time>
      </trkpt>
      <trkpt lat="48.06907" lon="-3.18329">
        <ele>150.8</ele>
        <time>2023-04-10T09:09:47Z</time>
      </trkpt>
      <trkpt lat="48.06906" lon="-3.18329">
        <ele>151</ele>
        <time>2023-04-10T09:09:48Z</time>
      </trkpt>
      <trkpt lat="48.06904" lon="-3.1833">
        <ele>151</ele>
        <time>2023-04-10T09:09:49Z</time>
      </trkpt>
      <trkpt lat="48.06902" lon="-3.18332">
        <ele>151.2</ele>
        <time>2023-04-10T09:09:50Z</time>
      </trkpt>
      <trkpt lat="48.06899" lon="-3.18332">
        <ele>151.4</ele>
        <time>2023-04-10T09:09:51Z</time>
      </trkpt>
      <trkpt lat="48.06897" lon="-3.18331">
        <ele>151.6</ele>
        <time>2023-04-10T09:09:52Z</time>
      </trkpt>
      <trkpt lat="48.06894" lon="-3.18331">
        <ele>152</ele>
        <time>2023-04-10T09:09:53Z</time>
      </trkpt>
      <trkpt lat="48.06889" lon="-3.18331">
        <ele>152.4</ele>
        <time>2023-04-10T09:09:55Z</time>
      </trkpt>
      <trkpt lat="48.06884" lon="-3.18333">
        <ele>152.6</ele>
        <time>2023-04-10T09:09:57Z</time>
      </trkpt>
      <trkpt lat="48.06881" lon="-3.18334">
        <ele>152.6</ele>
        <time>2023-04-10T09:09:58Z</time>
      </trkpt>
      <trkpt lat="48.06879" lon="-3.18335">
        <ele>152.8</ele>
        <time>2023-04-10T09:09:59Z</time>
      </trkpt>
      <trkpt lat="48.06877" lon="-3.18337">
        <ele>153</ele>
        <time>2023-04-10T09:10:00Z</time>
      </trkpt>
      <trkpt lat="48.06874" lon="-3.18338">
        <ele>153.2</ele>
        <time>2023-04-10T09:10:01Z</time>
      </trkpt>
      <trkpt lat="48.06871" lon="-3.18339">
        <ele>153.2</ele>
        <time>2023-04-10T09:10:02Z</time>
      </trkpt>
      <trkpt lat="48.06868" lon="-3.18341">
        <ele>153.4</ele>
        <time>2023-04-10T09:10:03Z</time>
      </trkpt>
      <trkpt lat="48.06866" lon="-3.18341">
        <ele>153.6</ele>
        <time>2023-04-10T09:10:04Z</time>
      </trkpt>
      <trkpt lat="48.06863" lon="-3.18342">
        <ele>154</ele>
        <time>2023-04-10T09:10:05Z</time>
      </trkpt>
      <trkpt lat="48.0686" lon="-3.18343">
        <ele>154.2</ele>
        <time>2023-04-10T09:10:06Z</time>
      </trkpt>
      <trkpt lat="48.06857" lon="-3.18343">
        <ele>154.6</ele>
        <time>2023-04-10T09:10:07Z</time>
      </trkpt>
      <trkpt lat="48.06854" lon="-3.18343">
        <ele>155</ele>
        <time>2023-04-10T09:10:08Z</time>
      </trkpt>
      <trkpt lat="48.06852" lon="-3.18344">
        <ele>155.2</ele>
        <time>2023-04-10T09:10:09Z</time>
      </trkpt>
      <trkpt lat="48.06849" lon="-3.18344">
        <ele>155.4</ele>
        <time>2023-04-10T09:10:10Z</time>
      </trkpt>
      <trkpt lat="48.06846" lon="-3.18344">
        <ele>155.4</ele>
        <time>2023-04-10T09:10:11Z</time>
      </trkpt>
      <trkpt lat="48.06843" lon="-3.18344">
        <ele>155.6</ele>
        <time>2023-04-10T09:10:12Z</time>
      </trkpt>
      <trkpt lat="48.06841" lon="-3.18344">
        <ele>155.8</ele>
        <time>2023-04-10T09:10:13Z</time>
      </trkpt>
      <trkpt lat="48.06838" lon="-3.18344">
        <ele>156</ele>
        <time>2023-04-10T09:10:14Z</time>
      </trkpt>
      <trkpt lat="48.06835" lon="-3.18344">
        <ele>156.2</ele>
        <time>2023-04-10T09:10:15Z</time>
      </trkpt>
      <trkpt lat="48.06832" lon="-3.18343">
        <ele>156.4</ele>
        <time>2023-04-10T09:10:16Z</time>
      </trkpt>
      <trkpt lat="48.06829" lon="-3.18343">
        <ele>156.6</ele>
        <time>2023-04-10T09:10:17Z</time>
      </trkpt>
      <trkpt lat="48.06826" lon="-3.18342">
        <ele>156.6</ele>
        <time>2023-04-10T09:10:18Z</time>
      </trkpt>
      <trkpt lat="48.06823" lon="-3.18342">
        <ele>156.8</ele>
        <time>2023-04-10T09:10:19Z</time>
      </trkpt>
      <trkpt lat="48.06821" lon="-3.18341">
        <ele>157</ele>
        <time>2023-04-10T09:10:20Z</time>
      </trkpt>
      <trkpt lat="48.06818" lon="-3.1834">
        <ele>157.2</ele>
        <time>2023-04-10T09:10:21Z</time>
      </trkpt>
      <trkpt lat="48.06816" lon="-3.1834">
        <ele>157.4</ele>
        <time>2023-04-10T09:10:22Z</time>
      </trkpt>
      <trkpt lat="48.06813" lon="-3.18339">
        <ele>157.6</ele>
        <time>2023-04-10T09:10:23Z</time>
      </trkpt>
      <trkpt lat="48.0681" lon="-3.18338">
        <ele>157.8</ele>
        <time>2023-04-10T09:10:24Z</time>
      </trkpt>
      <trkpt lat="48.06807" lon="-3.18337">
        <ele>157.8</ele>
        <time>2023-04-10T09:10:25Z</time>
      </trkpt>
      <trkpt lat="48.06804" lon="-3.18337">
        <ele>158</ele>
        <time>2023-04-10T09:10:26Z</time>
      </trkpt>
      <trkpt lat="48.06801" lon="-3.18336">
        <ele>158.4</ele>
        <time>2023-04-10T09:10:27Z</time>
      </trkpt>
      <trkpt lat="48.06798" lon="-3.18335">
        <ele>158.8</ele>
        <time>2023-04-10T09:10:28Z</time>
      </trkpt>
      <trkpt lat="48.06795" lon="-3.18334">
        <ele>159</ele>
        <time>2023-04-10T09:10:29Z</time>
      </trkpt>
      <trkpt lat="48.06792" lon="-3.18334">
        <ele>159.2</ele>
        <time>2023-04-10T09:10:30Z</time>
      </trkpt>
      <trkpt lat="48.06789" lon="-3.18333">
        <ele>159.2</ele>
        <time>2023-04-10T09:10:31Z</time>
      </trkpt>
      <trkpt lat="48.06786" lon="-3.18333">
        <ele>159.4</ele>
        <time>2023-04-10T09:10:32Z</time>
      </trkpt>
      <trkpt lat="48.06783" lon="-3.18333">
        <ele>159.6</ele>
        <time>2023-04-10T09:10:33Z</time>
      </trkpt>
      <trkpt lat="48.0678" lon="-3.18332">
        <ele>159.6</ele>
        <time>2023-04-10T09:10:34Z</time>
      </trkpt>
      <trkpt lat="48.06776" lon="-3.18332">
        <ele>159.8</ele>
        <time>2023-04-10T09:10:35Z</time>
      </trkpt>
      <trkpt lat="48.06773" lon="-3.18331">
        <ele>160.2</ele>
        <time>2023-04-10T09:10:36Z</time>
      </trkpt>
      <trkpt lat="48.06769" lon="-3.18331">
        <ele>160.4</ele>
        <time>2023-04-10T09:10:37Z</time>
      </trkpt>
      <trkpt lat="48.06765" lon="-3.18331">
        <ele>160.6</ele>
        <time>2023-04-10T09:10:38Z</time>
      </trkpt>
      <trkpt lat="48.06761" lon="-3.18331">
        <ele>160.8</ele>
        <time>2023-04-10T09:10:39Z</time>
      </trkpt>
      <trkpt lat="48.06757" lon="-3.1833">
        <ele>160.8</ele>
        <time>2023-04-10T09:10:40Z</time>
      </trkpt>
      <trkpt lat="48.06753" lon="-3.1833">
        <ele>161</ele>
        <time>2023-04-10T09:10:41Z</time>
      </trkpt>
      <trkpt lat="48.06747" lon="-3.1833">
        <ele>161</ele>
        <time>2023-04-10T09:10:42Z</time>
      </trkpt>
      <trkpt lat="48.06744" lon="-3.18329">
        <ele>161.2</ele>
        <time>2023-04-10T09:10:43Z</time>
      </trkpt>
      <trkpt lat="48.06739" lon="-3.18328">
        <ele>161.2</ele>
        <time>2023-04-10T09:10:44Z</time>
      </trkpt>
      <trkpt lat="48.06735" lon="-3.18327">
        <ele>161.2</ele>
        <time>2023-04-10T09:10:45Z</time>
      </trkpt>
      <trkpt lat="48.0673" lon="-3.18325">
        <ele>161.4</ele>
        <time>2023-04-10T09:10:46Z</time>
      </trkpt>
      <trkpt lat="48.06725" lon="-3.18323">
        <ele>161.4</ele>
        <time>2023-04-10T09:10:47Z</time>
      </trkpt>
      <trkpt lat="48.0672" lon="-3.18321">
        <ele>161.4</ele>
        <time>2023-04-10T09:10:48Z</time>
      </trkpt>
      <trkpt lat="48.06716" lon="-3.18318">
        <ele>161.4</ele>
        <time>2023-04-10T09:10:49Z</time>
      </trkpt>
      <trkpt lat="48.06711" lon="-3.18315">
        <ele>161.4</ele>
        <time>2023-04-10T09:10:50Z</time>
      </trkpt>
      <trkpt lat="48.06707" lon="-3.18313">
        <ele>161.4</ele>
        <time>2023-04-10T09:10:51Z</time>
      </trkpt>
      <trkpt lat="48.06702" lon="-3.1831">
        <ele>161.4</ele>
        <time>2023-04-10T09:10:52Z</time>
      </trkpt>
      <trkpt lat="48.06698" lon="-3.18306">
        <ele>161.4</ele>
        <time>2023-04-10T09:10:53Z</time>
      </trkpt>
      <trkpt lat="48.06694" lon="-3.18303">
        <ele>161.2</ele>
        <time>2023-04-10T09:10:54Z</time>
      </trkpt>
      <trkpt lat="48.06689" lon="-3.18298">
        <ele>161.2</ele>
        <time>2023-04-10T09:10:55Z</time>
      </trkpt>
      <trkpt lat="48.06684" lon="-3.18294">
        <ele>161.2</ele>
        <time>2023-04-10T09:10:56Z</time>
      </trkpt>
      <trkpt lat="48.0668" lon="-3.1829">
        <ele>161.2</ele>
        <time>2023-04-10T09:10:57Z</time>
      </trkpt>
      <trkpt lat="48.06675" lon="-3.18286">
        <ele>161.2</ele>
        <time>2023-04-10T09:10:58Z</time>
      </trkpt>
      <trkpt lat="48.06671" lon="-3.18282">
        <ele>161</ele>
        <time>2023-04-10T09:10:59Z</time>
      </trkpt>
      <trkpt lat="48.06667" lon="-3.18278">
        <ele>161</ele>
        <time>2023-04-10T09:11:00Z</time>
      </trkpt>
      <trkpt lat="48.06649" lon="-3.18263">
        <ele>160.8</ele>
        <time>2023-04-10T09:11:04Z</time>
      </trkpt>
      <trkpt lat="48.06644" lon="-3.18258">
        <ele>160.8</ele>
        <time>2023-04-10T09:11:05Z</time>
      </trkpt>
      <trkpt lat="48.0664" lon="-3.18255">
        <ele>160.8</ele>
        <time>2023-04-10T09:11:06Z</time>
      </trkpt>
      <trkpt lat="48.06636" lon="-3.18252">
        <ele>160.8</ele>
        <time>2023-04-10T09:11:07Z</time>
      </trkpt>
      <trkpt lat="48.06606" lon="-3.18225">
        <ele>161.4</ele>
        <time>2023-04-10T09:11:14Z</time>
      </trkpt>
      <trkpt lat="48.06602" lon="-3.1822">
        <ele>161.6</ele>
        <time>2023-04-10T09:11:15Z</time>
      </trkpt>
      <trkpt lat="48.06598" lon="-3.18217">
        <ele>161.6</ele>
        <time>2023-04-10T09:11:16Z</time>
      </trkpt>
      <trkpt lat="48.06595" lon="-3.18214">
        <ele>162</ele>
        <time>2023-04-10T09:11:17Z</time>
      </trkpt>
      <trkpt lat="48.06568" lon="-3.18194">
        <ele>162.8</ele>
        <time>2023-04-10T09:11:23Z</time>
      </trkpt>
      <trkpt lat="48.06559" lon="-3.18189">
        <ele>162.8</ele>
        <time>2023-04-10T09:11:25Z</time>
      </trkpt>
      <trkpt lat="48.06545" lon="-3.18182">
        <ele>162.8</ele>
        <time>2023-04-10T09:11:28Z</time>
      </trkpt>
      <trkpt lat="48.0653" lon="-3.18176">
        <ele>162.8</ele>
        <time>2023-04-10T09:11:31Z</time>
      </trkpt>
      <trkpt lat="48.06525" lon="-3.18173">
        <ele>162.8</ele>
        <time>2023-04-10T09:11:32Z</time>
      </trkpt>
      <trkpt lat="48.06498" lon="-3.18162">
        <ele>162.2</ele>
        <time>2023-04-10T09:11:37Z</time>
      </trkpt>
      <trkpt lat="48.06494" lon="-3.18164">
        <ele>162</ele>
        <time>2023-04-10T09:11:38Z</time>
      </trkpt>
      <trkpt lat="48.06492" lon="-3.18168">
        <ele>161.6</ele>
        <time>2023-04-10T09:11:39Z</time>
      </trkpt>
      <trkpt lat="48.06492" lon="-3.18173">
        <ele>161.4</ele>
        <time>2023-04-10T09:11:40Z</time>
      </trkpt>
      <trkpt lat="48.06492" lon="-3.18177">
        <ele>161.4</ele>
        <time>2023-04-10T09:11:41Z</time>
      </trkpt>
      <trkpt lat="48.06492" lon="-3.18179">
        <ele>161.2</ele>
        <time>2023-04-10T09:11:42Z</time>
      </trkpt>
      <trkpt lat="48.06492" lon="-3.1818">
        <ele>161.2</ele>
        <time>2023-04-10T09:11:43Z</time>
      </trkpt>
      <trkpt lat="48.06492" lon="-3.18183">
        <ele>161</ele>
        <time>2023-04-10T09:11:44Z</time>
      </trkpt>
      <trkpt lat="48.06492" lon="-3.18187">
        <ele>160.8</ele>
        <time>2023-04-10T09:11:45Z</time>
      </trkpt>
      <trkpt lat="48.06489" lon="-3.18205">
        <ele>160.6</ele>
        <time>2023-04-10T09:11:48Z</time>
      </trkpt>
      <trkpt lat="48.06489" lon="-3.18213">
        <ele>160.6</ele>
        <time>2023-04-10T09:11:49Z</time>
      </trkpt>
      <trkpt lat="48.06488" lon="-3.18231">
        <ele>160.6</ele>
        <time>2023-04-10T09:11:51Z</time>
      </trkpt>
      <trkpt lat="48.06486" lon="-3.18256">
        <ele>160.6</ele>
        <time>2023-04-10T09:11:54Z</time>
      </trkpt>
      <trkpt lat="48.06482" lon="-3.18298">
        <ele>160.6</ele>
        <time>2023-04-10T09:11:59Z</time>
      </trkpt>
      <trkpt lat="48.06479" lon="-3.18319">
        <ele>160.8</ele>
        <time>2023-04-10T09:12:01Z</time>
      </trkpt>
      <trkpt lat="48.06478" lon="-3.18328">
        <ele>160.8</ele>
        <time>2023-04-10T09:12:02Z</time>
      </trkpt>
      <trkpt lat="48.06476" lon="-3.18343">
        <ele>160.8</ele>
        <time>2023-04-10T09:12:04Z</time>
      </trkpt>
      <trkpt lat="48.06476" lon="-3.18352">
        <ele>160.8</ele>
        <time>2023-04-10T09:12:05Z</time>
      </trkpt>
      <trkpt lat="48.06475" lon="-3.18361">
        <ele>160.8</ele>
        <time>2023-04-10T09:12:06Z</time>
      </trkpt>
      <trkpt lat="48.06474" lon="-3.1837">
        <ele>160.8</ele>
        <time>2023-04-10T09:12:07Z</time>
      </trkpt>
      <trkpt lat="48.06473" lon="-3.18378">
        <ele>160.8</ele>
        <time>2023-04-10T09:12:08Z</time>
      </trkpt>
      <trkpt lat="48.06466" lon="-3.18409">
        <ele>160.6</ele>
        <time>2023-04-10T09:12:12Z</time>
      </trkpt>
      <trkpt lat="48.06467" lon="-3.18429">
        <ele>160.6</ele>
        <time>2023-04-10T09:12:14Z</time>
      </trkpt>
      <trkpt lat="48.06467" lon="-3.18436">
        <ele>160.6</ele>
        <time>2023-04-10T09:12:15Z</time>
      </trkpt>
      <trkpt lat="48.06466" lon="-3.1844">
        <ele>160.6</ele>
        <time>2023-04-10T09:12:16Z</time>
      </trkpt>
      <trkpt lat="48.06465" lon="-3.18448">
        <ele>160.6</ele>
        <time>2023-04-10T09:12:17Z</time>
      </trkpt>
      <trkpt lat="48.06465" lon="-3.18455">
        <ele>160.6</ele>
        <time>2023-04-10T09:12:18Z</time>
      </trkpt>
      <trkpt lat="48.06462" lon="-3.18484">
        <ele>160.4</ele>
        <time>2023-04-10T09:12:21Z</time>
      </trkpt>
      <trkpt lat="48.06461" lon="-3.18507">
        <ele>160.2</ele>
        <time>2023-04-10T09:12:23Z</time>
      </trkpt>
      <trkpt lat="48.0646" lon="-3.18528">
        <ele>159.8</ele>
        <time>2023-04-10T09:12:25Z</time>
      </trkpt>
      <trkpt lat="48.0646" lon="-3.18547">
        <ele>159.4</ele>
        <time>2023-04-10T09:12:27Z</time>
      </trkpt>
      <trkpt lat="48.0646" lon="-3.18566">
        <ele>158.8</ele>
        <time>2023-04-10T09:12:29Z</time>
      </trkpt>
      <trkpt lat="48.06459" lon="-3.18576">
        <ele>158.6</ele>
        <time>2023-04-10T09:12:30Z</time>
      </trkpt>
      <trkpt lat="48.06459" lon="-3.18586">
        <ele>158.4</ele>
        <time>2023-04-10T09:12:31Z</time>
      </trkpt>
      <trkpt lat="48.06458" lon="-3.18595">
        <ele>158.2</ele>
        <time>2023-04-10T09:12:32Z</time>
      </trkpt>
      <trkpt lat="48.06458" lon="-3.18601">
        <ele>158.2</ele>
        <time>2023-04-10T09:12:33Z</time>
      </trkpt>
      <trkpt lat="48.06457" lon="-3.18616">
        <ele>157.4</ele>
        <time>2023-04-10T09:12:35Z</time>
      </trkpt>
      <trkpt lat="48.06458" lon="-3.18624">
        <ele>157.2</ele>
        <time>2023-04-10T09:12:36Z</time>
      </trkpt>
      <trkpt lat="48.06457" lon="-3.18649">
        <ele>156.4</ele>
        <time>2023-04-10T09:12:39Z</time>
      </trkpt>
      <trkpt lat="48.06455" lon="-3.18666">
        <ele>156</ele>
        <time>2023-04-10T09:12:41Z</time>
      </trkpt>
      <trkpt lat="48.0645" lon="-3.18714">
        <ele>154.8</ele>
        <time>2023-04-10T09:12:46Z</time>
      </trkpt>
      <trkpt lat="48.06446" lon="-3.18759">
        <ele>153.2</ele>
        <time>2023-04-10T09:12:50Z</time>
      </trkpt>
      <trkpt lat="48.06447" lon="-3.18772">
        <ele>152.8</ele>
        <time>2023-04-10T09:12:51Z</time>
      </trkpt>
      <trkpt lat="48.06449" lon="-3.18784">
        <ele>152.4</ele>
        <time>2023-04-10T09:12:52Z</time>
      </trkpt>
      <trkpt lat="48.06453" lon="-3.18794">
        <ele>152</ele>
        <time>2023-04-10T09:12:53Z</time>
      </trkpt>
      <trkpt lat="48.06456" lon="-3.18802">
        <ele>151.8</ele>
        <time>2023-04-10T09:12:54Z</time>
      </trkpt>
      <trkpt lat="48.06462" lon="-3.18813">
        <ele>151.8</ele>
        <time>2023-04-10T09:12:55Z</time>
      </trkpt>
      <trkpt lat="48.06467" lon="-3.18823">
        <ele>151.6</ele>
        <time>2023-04-10T09:12:56Z</time>
      </trkpt>
      <trkpt lat="48.0647" lon="-3.18829">
        <ele>151.2</ele>
        <time>2023-04-10T09:12:57Z</time>
      </trkpt>
      <trkpt lat="48.06475" lon="-3.18836">
        <ele>150.8</ele>
        <time>2023-04-10T09:12:58Z</time>
      </trkpt>
      <trkpt lat="48.06477" lon="-3.1884">
        <ele>150.4</ele>
        <time>2023-04-10T09:12:59Z</time>
      </trkpt>
      <trkpt lat="48.0648" lon="-3.18845">
        <ele>149.6</ele>
        <time>2023-04-10T09:13:00Z</time>
      </trkpt>
      <trkpt lat="48.06479" lon="-3.18849">
        <ele>149</ele>
        <time>2023-04-10T09:13:01Z</time>
      </trkpt>
      <trkpt lat="48.06477" lon="-3.18853">
        <ele>148.2</ele>
        <time>2023-04-10T09:13:02Z</time>
      </trkpt>
      <trkpt lat="48.06476" lon="-3.18855">
        <ele>147.4</ele>
        <time>2023-04-10T09:13:03Z</time>
      </trkpt>
      <trkpt lat="48.06476" lon="-3.18859">
        <ele>147</ele>
        <time>2023-04-10T09:13:04Z</time>
      </trkpt>
      <trkpt lat="48.0648" lon="-3.18867">
        <ele>145.8</ele>
        <time>2023-04-10T09:13:06Z</time>
      </trkpt>
      <trkpt lat="48.06486" lon="-3.1888">
        <ele>145</ele>
        <time>2023-04-10T09:13:09Z</time>
      </trkpt>
      <trkpt lat="48.06486" lon="-3.18882">
        <ele>144.8</ele>
        <time>2023-04-10T09:13:10Z</time>
      </trkpt>
      <trkpt lat="48.06485" lon="-3.18885">
        <ele>144.6</ele>
        <time>2023-04-10T09:13:11Z</time>
      </trkpt>
      <trkpt lat="48.06481" lon="-3.18882">
        <ele>144.4</ele>
        <time>2023-04-10T09:13:13Z</time>
      </trkpt>
      <trkpt lat="48.06479" lon="-3.18879">
        <ele>144.2</ele>
        <time>2023-04-10T09:13:14Z</time>
      </trkpt>
      <trkpt lat="48.06476" lon="-3.18874">
        <ele>144</ele>
        <time>2023-04-10T09:13:16Z</time>
      </trkpt>
      <trkpt lat="48.06475" lon="-3.18871">
        <ele>144</ele>
        <time>2023-04-10T09:13:17Z</time>
      </trkpt>
      <trkpt lat="48.06474" lon="-3.18869">
        <ele>143.8</ele>
        <time>2023-04-10T09:13:18Z</time>
      </trkpt>
      <trkpt lat="48.06471" lon="-3.18866">
        <ele>143.6</ele>
        <time>2023-04-10T09:13:19Z</time>
      </trkpt>
      <trkpt lat="48.06464" lon="-3.18856">
        <ele>142.6</ele>
        <time>2023-04-10T09:13:22Z</time>
      </trkpt>
      <trkpt lat="48.06461" lon="-3.18852">
        <ele>142.4</ele>
        <time>2023-04-10T09:13:23Z</time>
      </trkpt>
      <trkpt lat="48.06452" lon="-3.18841">
        <ele>142</ele>
        <time>2023-04-10T09:13:26Z</time>
      </trkpt>
      <trkpt lat="48.0645" lon="-3.18838">
        <ele>142</ele>
        <time>2023-04-10T09:13:27Z</time>
      </trkpt>
      <trkpt lat="48.06449" lon="-3.18836">
        <ele>142</ele>
        <time>2023-04-10T09:13:28Z</time>
      </trkpt>
      <trkpt lat="48.06448" lon="-3.18834">
        <ele>142</ele>
        <time>2023-04-10T09:13:29Z</time>
      </trkpt>
      <trkpt lat="48.06447" lon="-3.18831">
        <ele>142</ele>
        <time>2023-04-10T09:13:30Z</time>
      </trkpt>
      <trkpt lat="48.06445" lon="-3.18829">
        <ele>142</ele>
        <time>2023-04-10T09:13:31Z</time>
      </trkpt>
      <trkpt lat="48.06439" lon="-3.18825">
        <ele>142</ele>
        <time>2023-04-10T09:13:33Z</time>
      </trkpt>
      <trkpt lat="48.06435" lon="-3.18822">
        <ele>142</ele>
        <time>2023-04-10T09:13:34Z</time>
      </trkpt>
      <trkpt lat="48.06431" lon="-3.18819">
        <ele>142</ele>
        <time>2023-04-10T09:13:35Z</time>
      </trkpt>
      <trkpt lat="48.06428" lon="-3.18818">
        <ele>142</ele>
        <time>2023-04-10T09:13:36Z</time>
      </trkpt>
      <trkpt lat="48.06425" lon="-3.18816">
        <ele>142</ele>
        <time>2023-04-10T09:13:37Z</time>
      </trkpt>
      <trkpt lat="48.06422" lon="-3.18814">
        <ele>142</ele>
        <time>2023-04-10T09:13:38Z</time>
      </trkpt>
      <trkpt lat="48.06419" lon="-3.18813">
        <ele>142</ele>
        <time>2023-04-10T09:13:39Z</time>
      </trkpt>
      <trkpt lat="48.06415" lon="-3.18811">
        <ele>142</ele>
        <time>2023-04-10T09:13:40Z</time>
      </trkpt>
      <trkpt lat="48.06411" lon="-3.18808">
        <ele>142</ele>
        <time>2023-04-10T09:13:41Z</time>
      </trkpt>
      <trkpt lat="48.06406" lon="-3.18802">
        <ele>142</ele>
        <time>2023-04-10T09:13:42Z</time>
      </trkpt>
      <trkpt lat="48.06398" lon="-3.18795">
        <ele>141.8</ele>
        <time>2023-04-10T09:13:44Z</time>
      </trkpt>
      <trkpt lat="48.06392" lon="-3.18791">
        <ele>141.8</ele>
        <time>2023-04-10T09:13:45Z</time>
      </trkpt>
      <trkpt lat="48.06387" lon="-3.18788">
        <ele>141.6</ele>
        <time>2023-04-10T09:13:46Z</time>
      </trkpt>
      <trkpt lat="48.06383" lon="-3.18784">
        <ele>141.6</ele>
        <time>2023-04-10T09:13:47Z</time>
      </trkpt>
      <trkpt lat="48.0638" lon="-3.18783">
        <ele>141.6</ele>
        <time>2023-04-10T09:13:48Z</time>
      </trkpt>
      <trkpt lat="48.06368" lon="-3.18773">
        <ele>141.4</ele>
        <time>2023-04-10T09:13:52Z</time>
      </trkpt>
      <trkpt lat="48.06364" lon="-3.18769">
        <ele>141.4</ele>
        <time>2023-04-10T09:13:53Z</time>
      </trkpt>
      <trkpt lat="48.06359" lon="-3.18766">
        <ele>141.4</ele>
        <time>2023-04-10T09:13:54Z</time>
      </trkpt>
      <trkpt lat="48.06355" lon="-3.18765">
        <ele>141.4</ele>
        <time>2023-04-10T09:13:55Z</time>
      </trkpt>
      <trkpt lat="48.06346" lon="-3.18767">
        <ele>141.4</ele>
        <time>2023-04-10T09:13:57Z</time>
      </trkpt>
      <trkpt lat="48.06342" lon="-3.18767">
        <ele>141.4</ele>
        <time>2023-04-10T09:13:58Z</time>
      </trkpt>
      <trkpt lat="48.06339" lon="-3.18765">
        <ele>141.4</ele>
        <time>2023-04-10T09:13:59Z</time>
      </trkpt>
      <trkpt lat="48.06336" lon="-3.18763">
        <ele>141.4</ele>
        <time>2023-04-10T09:14:00Z</time>
      </trkpt>
      <trkpt lat="48.06324" lon="-3.18758">
        <ele>141.4</ele>
        <time>2023-04-10T09:14:03Z</time>
      </trkpt>
      <trkpt lat="48.0632" lon="-3.18757">
        <ele>141.4</ele>
        <time>2023-04-10T09:14:04Z</time>
      </trkpt>
      <trkpt lat="48.06315" lon="-3.18757">
        <ele>141.2</ele>
        <time>2023-04-10T09:14:05Z</time>
      </trkpt>
      <trkpt lat="48.06306" lon="-3.18757">
        <ele>141</ele>
        <time>2023-04-10T09:14:08Z</time>
      </trkpt>
      <trkpt lat="48.06295" lon="-3.18758">
        <ele>141</ele>
        <time>2023-04-10T09:14:11Z</time>
      </trkpt>
      <trkpt lat="48.06289" lon="-3.18755">
        <ele>140.8</ele>
        <time>2023-04-10T09:14:13Z</time>
      </trkpt>
      <trkpt lat="48.06287" lon="-3.18753">
        <ele>140.8</ele>
        <time>2023-04-10T09:14:14Z</time>
      </trkpt>
      <trkpt lat="48.06285" lon="-3.1875">
        <ele>140.8</ele>
        <time>2023-04-10T09:14:15Z</time>
      </trkpt>
      <trkpt lat="48.06282" lon="-3.18748">
        <ele>140.8</ele>
        <time>2023-04-10T09:14:16Z</time>
      </trkpt>
      <trkpt lat="48.06278" lon="-3.18745">
        <ele>140.6</ele>
        <time>2023-04-10T09:14:17Z</time>
      </trkpt>
      <trkpt lat="48.06275" lon="-3.18742">
        <ele>140.6</ele>
        <time>2023-04-10T09:14:18Z</time>
      </trkpt>
      <trkpt lat="48.06274" lon="-3.18739">
        <ele>140.4</ele>
        <time>2023-04-10T09:14:19Z</time>
      </trkpt>
      <trkpt lat="48.0627" lon="-3.18732">
        <ele>140.2</ele>
        <time>2023-04-10T09:14:21Z</time>
      </trkpt>
      <trkpt lat="48.06268" lon="-3.18729">
        <ele>140.2</ele>
        <time>2023-04-10T09:14:22Z</time>
      </trkpt>
      <trkpt lat="48.06265" lon="-3.18725">
        <ele>140.2</ele>
        <time>2023-04-10T09:14:23Z</time>
      </trkpt>
      <trkpt lat="48.06263" lon="-3.18722">
        <ele>140.2</ele>
        <time>2023-04-10T09:14:24Z</time>
      </trkpt>
      <trkpt lat="48.06263" lon="-3.1872">
        <ele>140.2</ele>
        <time>2023-04-10T09:14:25Z</time>
      </trkpt>
      <trkpt lat="48.06261" lon="-3.18717">
        <ele>140.2</ele>
        <time>2023-04-10T09:14:26Z</time>
      </trkpt>
      <trkpt lat="48.06258" lon="-3.18713">
        <ele>140.2</ele>
        <time>2023-04-10T09:14:27Z</time>
      </trkpt>
      <trkpt lat="48.06255" lon="-3.18709">
        <ele>140.2</ele>
        <time>2023-04-10T09:14:28Z</time>
      </trkpt>
      <trkpt lat="48.06252" lon="-3.18707">
        <ele>140.2</ele>
        <time>2023-04-10T09:14:29Z</time>
      </trkpt>
      <trkpt lat="48.06248" lon="-3.18705">
        <ele>140.2</ele>
        <time>2023-04-10T09:14:30Z</time>
      </trkpt>
      <trkpt lat="48.06244" lon="-3.18704">
        <ele>140.2</ele>
        <time>2023-04-10T09:14:31Z</time>
      </trkpt>
      <trkpt lat="48.06241" lon="-3.18704">
        <ele>140.2</ele>
        <time>2023-04-10T09:14:32Z</time>
      </trkpt>
      <trkpt lat="48.06237" lon="-3.18705">
        <ele>140.2</ele>
        <time>2023-04-10T09:14:33Z</time>
      </trkpt>
      <trkpt lat="48.06233" lon="-3.18707">
        <ele>140.2</ele>
        <time>2023-04-10T09:14:34Z</time>
      </trkpt>
      <trkpt lat="48.0623" lon="-3.18708">
        <ele>140.2</ele>
        <time>2023-04-10T09:14:35Z</time>
      </trkpt>
      <trkpt lat="48.06227" lon="-3.18709">
        <ele>140.2</ele>
        <time>2023-04-10T09:14:36Z</time>
      </trkpt>
      <trkpt lat="48.06223" lon="-3.18709">
        <ele>140.2</ele>
        <time>2023-04-10T09:14:37Z</time>
      </trkpt>
      <trkpt lat="48.06218" lon="-3.18709">
        <ele>140.2</ele>
        <time>2023-04-10T09:14:38Z</time>
      </trkpt>
      <trkpt lat="48.06214" lon="-3.18709">
        <ele>140</ele>
        <time>2023-04-10T09:14:39Z</time>
      </trkpt>
      <trkpt lat="48.06212" lon="-3.18708">
        <ele>140</ele>
        <time>2023-04-10T09:14:40Z</time>
      </trkpt>
      <trkpt lat="48.06212" lon="-3.18706">
        <ele>140</ele>
        <time>2023-04-10T09:14:41Z</time>
      </trkpt>
      <trkpt lat="48.06211" lon="-3.18701">
        <ele>139.8</ele>
        <time>2023-04-10T09:14:42Z</time>
      </trkpt>
      <trkpt lat="48.06209" lon="-3.18696">
        <ele>139.8</ele>
        <time>2023-04-10T09:14:43Z</time>
      </trkpt>
      <trkpt lat="48.06207" lon="-3.18692">
        <ele>139.6</ele>
        <time>2023-04-10T09:14:44Z</time>
      </trkpt>
      <trkpt lat="48.06202" lon="-3.18687">
        <ele>139.6</ele>
        <time>2023-04-10T09:14:45Z</time>
      </trkpt>
      <trkpt lat="48.06197" lon="-3.18683">
        <ele>139.6</ele>
        <time>2023-04-10T09:14:46Z</time>
      </trkpt>
      <trkpt lat="48.06193" lon="-3.1868">
        <ele>139.6</ele>
        <time>2023-04-10T09:14:47Z</time>
      </trkpt>
      <trkpt lat="48.06191" lon="-3.18677">
        <ele>139.4</ele>
        <time>2023-04-10T09:14:48Z</time>
      </trkpt>
      <trkpt lat="48.06187" lon="-3.18673">
        <ele>139.2</ele>
        <time>2023-04-10T09:14:49Z</time>
      </trkpt>
      <trkpt lat="48.06178" lon="-3.18669">
        <ele>139.2</ele>
        <time>2023-04-10T09:14:51Z</time>
      </trkpt>
      <trkpt lat="48.06173" lon="-3.18667">
        <ele>139.2</ele>
        <time>2023-04-10T09:14:52Z</time>
      </trkpt>
      <trkpt lat="48.06169" lon="-3.18667">
        <ele>139.2</ele>
        <time>2023-04-10T09:14:53Z</time>
      </trkpt>
      <trkpt lat="48.06158" lon="-3.18666">
        <ele>139.2</ele>
        <time>2023-04-10T09:14:55Z</time>
      </trkpt>
      <trkpt lat="48.06152" lon="-3.18664">
        <ele>139.2</ele>
        <time>2023-04-10T09:14:56Z</time>
      </trkpt>
      <trkpt lat="48.06147" lon="-3.18664">
        <ele>139.2</ele>
        <time>2023-04-10T09:14:57Z</time>
      </trkpt>
      <trkpt lat="48.06143" lon="-3.18666">
        <ele>139.2</ele>
        <time>2023-04-10T09:14:58Z</time>
      </trkpt>
      <trkpt lat="48.06139" lon="-3.18669">
        <ele>139.2</ele>
        <time>2023-04-10T09:14:59Z</time>
      </trkpt>
      <trkpt lat="48.06135" lon="-3.18674">
        <ele>139.2</ele>
        <time>2023-04-10T09:15:00Z</time>
      </trkpt>
      <trkpt lat="48.06132" lon="-3.18676">
        <ele>139.2</ele>
        <time>2023-04-10T09:15:01Z</time>
      </trkpt>
      <trkpt lat="48.06129" lon="-3.18681">
        <ele>139.2</ele>
        <time>2023-04-10T09:15:02Z</time>
      </trkpt>
      <trkpt lat="48.06127" lon="-3.18686">
        <ele>139.2</ele>
        <time>2023-04-10T09:15:03Z</time>
      </trkpt>
      <trkpt lat="48.06121" lon="-3.18693">
        <ele>139.2</ele>
        <time>2023-04-10T09:15:05Z</time>
      </trkpt>
      <trkpt lat="48.06118" lon="-3.18696">
        <ele>139.2</ele>
        <time>2023-04-10T09:15:06Z</time>
      </trkpt>
      <trkpt lat="48.06115" lon="-3.18698">
        <ele>139.2</ele>
        <time>2023-04-10T09:15:07Z</time>
      </trkpt>
      <trkpt lat="48.06112" lon="-3.187">
        <ele>139.2</ele>
        <time>2023-04-10T09:15:08Z</time>
      </trkpt>
      <trkpt lat="48.06108" lon="-3.18701">
        <ele>139.2</ele>
        <time>2023-04-10T09:15:09Z</time>
      </trkpt>
      <trkpt lat="48.06104" lon="-3.187">
        <ele>139.2</ele>
        <time>2023-04-10T09:15:10Z</time>
      </trkpt>
      <trkpt lat="48.061" lon="-3.18699">
        <ele>139.4</ele>
        <time>2023-04-10T09:15:11Z</time>
      </trkpt>
      <trkpt lat="48.06097" lon="-3.18698">
        <ele>139.4</ele>
        <time>2023-04-10T09:15:12Z</time>
      </trkpt>
      <trkpt lat="48.06093" lon="-3.18697">
        <ele>139.4</ele>
        <time>2023-04-10T09:15:13Z</time>
      </trkpt>
      <trkpt lat="48.06086" lon="-3.18694">
        <ele>139.4</ele>
        <time>2023-04-10T09:15:16Z</time>
      </trkpt>
      <trkpt lat="48.06086" lon="-3.18694">
        <ele>139.4</ele>
        <time>2023-04-10T09:15:17Z</time>
      </trkpt>
      <trkpt lat="48.06085" lon="-3.18694">
        <ele>139.4</ele>
        <time>2023-04-10T09:15:18Z</time>
      </trkpt>
      <trkpt lat="48.06084" lon="-3.18694">
        <ele>139.4</ele>
        <time>2023-04-10T09:15:20Z</time>
      </trkpt>
      <trkpt lat="48.06081" lon="-3.18694">
        <ele>139</ele>
        <time>2023-04-10T09:15:21Z</time>
      </trkpt>
      <trkpt lat="48.06078" lon="-3.18694">
        <ele>138.8</ele>
        <time>2023-04-10T09:15:22Z</time>
      </trkpt>
      <trkpt lat="48.06075" lon="-3.18694">
        <ele>138.6</ele>
        <time>2023-04-10T09:15:23Z</time>
      </trkpt>
      <trkpt lat="48.06073" lon="-3.18692">
        <ele>138.6</ele>
        <time>2023-04-10T09:15:24Z</time>
      </trkpt>
      <trkpt lat="48.06067" lon="-3.18688">
        <ele>138.2</ele>
        <time>2023-04-10T09:15:26Z</time>
      </trkpt>
      <trkpt lat="48.06064" lon="-3.18685">
        <ele>138.2</ele>
        <time>2023-04-10T09:15:27Z</time>
      </trkpt>
      <trkpt lat="48.06058" lon="-3.18678">
        <ele>138</ele>
        <time>2023-04-10T09:15:29Z</time>
      </trkpt>
      <trkpt lat="48.06043" lon="-3.1866">
        <ele>138</ele>
        <time>2023-04-10T09:15:33Z</time>
      </trkpt>
      <trkpt lat="48.0604" lon="-3.18655">
        <ele>138</ele>
        <time>2023-04-10T09:15:34Z</time>
      </trkpt>
      <trkpt lat="48.06037" lon="-3.18649">
        <ele>138</ele>
        <time>2023-04-10T09:15:35Z</time>
      </trkpt>
      <trkpt lat="48.06035" lon="-3.18642">
        <ele>138</ele>
        <time>2023-04-10T09:15:36Z</time>
      </trkpt>
      <trkpt lat="48.0603" lon="-3.18631">
        <ele>137.8</ele>
        <time>2023-04-10T09:15:38Z</time>
      </trkpt>
      <trkpt lat="48.06027" lon="-3.18619">
        <ele>137.8</ele>
        <time>2023-04-10T09:15:40Z</time>
      </trkpt>
      <trkpt lat="48.0602" lon="-3.18607">
        <ele>137.8</ele>
        <time>2023-04-10T09:15:42Z</time>
      </trkpt>
      <trkpt lat="48.06017" lon="-3.18602">
        <ele>137.8</ele>
        <time>2023-04-10T09:15:43Z</time>
      </trkpt>
      <trkpt lat="48.06013" lon="-3.18598">
        <ele>137.8</ele>
        <time>2023-04-10T09:15:44Z</time>
      </trkpt>
      <trkpt lat="48.06007" lon="-3.18588">
        <ele>138</ele>
        <time>2023-04-10T09:15:46Z</time>
      </trkpt>
      <trkpt lat="48.06006" lon="-3.18583">
        <ele>138</ele>
        <time>2023-04-10T09:15:47Z</time>
      </trkpt>
      <trkpt lat="48.06004" lon="-3.18578">
        <ele>138</ele>
        <time>2023-04-10T09:15:48Z</time>
      </trkpt>
      <trkpt lat="48.06003" lon="-3.18574">
        <ele>138</ele>
        <time>2023-04-10T09:15:49Z</time>
      </trkpt>
      <trkpt lat="48.06002" lon="-3.1857">
        <ele>138.2</ele>
        <time>2023-04-10T09:15:50Z</time>
      </trkpt>
      <trkpt lat="48.06001" lon="-3.18567">
        <ele>138.2</ele>
        <time>2023-04-10T09:15:51Z</time>
      </trkpt>
      <trkpt lat="48.06" lon="-3.18565">
        <ele>138.2</ele>
        <time>2023-04-10T09:15:52Z</time>
      </trkpt>
      <trkpt lat="48.05999" lon="-3.18564">
        <ele>138.2</ele>
        <time>2023-04-10T09:15:55Z</time>
      </trkpt>
      <trkpt lat="48.05998" lon="-3.18563">
        <ele>138.2</ele>
        <time>2023-04-10T09:15:56Z</time>
      </trkpt>
      <trkpt lat="48.05995" lon="-3.18554">
        <ele>138.2</ele>
        <time>2023-04-10T09:15:59Z</time>
      </trkpt>
      <trkpt lat="48.05993" lon="-3.1855">
        <ele>138.2</ele>
        <time>2023-04-10T09:16:00Z</time>
      </trkpt>
      <trkpt lat="48.0599" lon="-3.18546">
        <ele>138.2</ele>
        <time>2023-04-10T09:16:01Z</time>
      </trkpt>
      <trkpt lat="48.05982" lon="-3.1853">
        <ele>138</ele>
        <time>2023-04-10T09:16:04Z</time>
      </trkpt>
      <trkpt lat="48.05979" lon="-3.18525">
        <ele>137.8</ele>
        <time>2023-04-10T09:16:05Z</time>
      </trkpt>
      <trkpt lat="48.0597" lon="-3.18507">
        <ele>137.8</ele>
        <time>2023-04-10T09:16:08Z</time>
      </trkpt>
      <trkpt lat="48.05968" lon="-3.18503">
        <ele>137.8</ele>
        <time>2023-04-10T09:16:09Z</time>
      </trkpt>
      <trkpt lat="48.05959" lon="-3.18488">
        <ele>137.6</ele>
        <time>2023-04-10T09:16:12Z</time>
      </trkpt>
      <trkpt lat="48.05951" lon="-3.18477">
        <ele>137.6</ele>
        <time>2023-04-10T09:16:14Z</time>
      </trkpt>
      <trkpt lat="48.05947" lon="-3.18471">
        <ele>137.4</ele>
        <time>2023-04-10T09:16:15Z</time>
      </trkpt>
      <trkpt lat="48.05936" lon="-3.18458">
        <ele>137.6</ele>
        <time>2023-04-10T09:16:17Z</time>
      </trkpt>
      <trkpt lat="48.05927" lon="-3.18445">
        <ele>137.4</ele>
        <time>2023-04-10T09:16:19Z</time>
      </trkpt>
      <trkpt lat="48.05923" lon="-3.18439">
        <ele>137.4</ele>
        <time>2023-04-10T09:16:20Z</time>
      </trkpt>
      <trkpt lat="48.05919" lon="-3.18433">
        <ele>137.4</ele>
        <time>2023-04-10T09:16:21Z</time>
      </trkpt>
      <trkpt lat="48.05915" lon="-3.18428">
        <ele>137.2</ele>
        <time>2023-04-10T09:16:22Z</time>
      </trkpt>
      <trkpt lat="48.05912" lon="-3.1842">
        <ele>137.2</ele>
        <time>2023-04-10T09:16:23Z</time>
      </trkpt>
      <trkpt lat="48.0591" lon="-3.18414">
        <ele>137</ele>
        <time>2023-04-10T09:16:24Z</time>
      </trkpt>
      <trkpt lat="48.0591" lon="-3.18408">
        <ele>136.8</ele>
        <time>2023-04-10T09:16:25Z</time>
      </trkpt>
      <trkpt lat="48.0591" lon="-3.18402">
        <ele>136.4</ele>
        <time>2023-04-10T09:16:26Z</time>
      </trkpt>
      <trkpt lat="48.05909" lon="-3.18397">
        <ele>136.4</ele>
        <time>2023-04-10T09:16:27Z</time>
      </trkpt>
      <trkpt lat="48.05908" lon="-3.18393">
        <ele>136.2</ele>
        <time>2023-04-10T09:16:28Z</time>
      </trkpt>
      <trkpt lat="48.05907" lon="-3.18389">
        <ele>136</ele>
        <time>2023-04-10T09:16:29Z</time>
      </trkpt>
      <trkpt lat="48.05907" lon="-3.18385">
        <ele>135.8</ele>
        <time>2023-04-10T09:16:30Z</time>
      </trkpt>
      <trkpt lat="48.05907" lon="-3.1838">
        <ele>135.8</ele>
        <time>2023-04-10T09:16:31Z</time>
      </trkpt>
      <trkpt lat="48.05907" lon="-3.18374">
        <ele>135.6</ele>
        <time>2023-04-10T09:16:32Z</time>
      </trkpt>
      <trkpt lat="48.05906" lon="-3.18368">
        <ele>135.6</ele>
        <time>2023-04-10T09:16:33Z</time>
      </trkpt>
      <trkpt lat="48.05905" lon="-3.18349">
        <ele>135.2</ele>
        <time>2023-04-10T09:16:36Z</time>
      </trkpt>
      <trkpt lat="48.05905" lon="-3.18344">
        <ele>135.2</ele>
        <time>2023-04-10T09:16:37Z</time>
      </trkpt>
      <trkpt lat="48.05903" lon="-3.18341">
        <ele>135.2</ele>
        <time>2023-04-10T09:16:38Z</time>
      </trkpt>
      <trkpt lat="48.05901" lon="-3.18337">
        <ele>135</ele>
        <time>2023-04-10T09:16:39Z</time>
      </trkpt>
      <trkpt lat="48.05899" lon="-3.18333">
        <ele>135</ele>
        <time>2023-04-10T09:16:40Z</time>
      </trkpt>
      <trkpt lat="48.05896" lon="-3.18329">
        <ele>135</ele>
        <time>2023-04-10T09:16:41Z</time>
      </trkpt>
      <trkpt lat="48.05893" lon="-3.18327">
        <ele>134.8</ele>
        <time>2023-04-10T09:16:42Z</time>
      </trkpt>
      <trkpt lat="48.05889" lon="-3.18324">
        <ele>134.8</ele>
        <time>2023-04-10T09:16:43Z</time>
      </trkpt>
      <trkpt lat="48.05881" lon="-3.18316">
        <ele>134.4</ele>
        <time>2023-04-10T09:16:45Z</time>
      </trkpt>
      <trkpt lat="48.05879" lon="-3.18312">
        <ele>134.2</ele>
        <time>2023-04-10T09:16:46Z</time>
      </trkpt>
      <trkpt lat="48.05877" lon="-3.18307">
        <ele>134</ele>
        <time>2023-04-10T09:16:47Z</time>
      </trkpt>
      <trkpt lat="48.05874" lon="-3.18303">
        <ele>134</ele>
        <time>2023-04-10T09:16:48Z</time>
      </trkpt>
      <trkpt lat="48.05871" lon="-3.18299">
        <ele>133.8</ele>
        <time>2023-04-10T09:16:49Z</time>
      </trkpt>
      <trkpt lat="48.05868" lon="-3.18296">
        <ele>133.8</ele>
        <time>2023-04-10T09:16:50Z</time>
      </trkpt>
      <trkpt lat="48.05866" lon="-3.18292">
        <ele>133.6</ele>
        <time>2023-04-10T09:16:51Z</time>
      </trkpt>
      <trkpt lat="48.05866" lon="-3.18288">
        <ele>133.6</ele>
        <time>2023-04-10T09:16:52Z</time>
      </trkpt>
      <trkpt lat="48.05865" lon="-3.18284">
        <ele>133.4</ele>
        <time>2023-04-10T09:16:53Z</time>
      </trkpt>
      <trkpt lat="48.05863" lon="-3.18281">
        <ele>133.4</ele>
        <time>2023-04-10T09:16:54Z</time>
      </trkpt>
      <trkpt lat="48.0586" lon="-3.1828">
        <ele>133.2</ele>
        <time>2023-04-10T09:16:55Z</time>
      </trkpt>
      <trkpt lat="48.05857" lon="-3.18279">
        <ele>133.2</ele>
        <time>2023-04-10T09:16:56Z</time>
      </trkpt>
      <trkpt lat="48.05849" lon="-3.18278">
        <ele>133.2</ele>
        <time>2023-04-10T09:16:58Z</time>
      </trkpt>
      <trkpt lat="48.05845" lon="-3.18275">
        <ele>133.2</ele>
        <time>2023-04-10T09:16:59Z</time>
      </trkpt>
      <trkpt lat="48.05841" lon="-3.18274">
        <ele>133.2</ele>
        <time>2023-04-10T09:17:00Z</time>
      </trkpt>
      <trkpt lat="48.05838" lon="-3.18276">
        <ele>133.2</ele>
        <time>2023-04-10T09:17:01Z</time>
      </trkpt>
      <trkpt lat="48.05836" lon="-3.18278">
        <ele>133.2</ele>
        <time>2023-04-10T09:17:02Z</time>
      </trkpt>
      <trkpt lat="48.05835" lon="-3.18279">
        <ele>133.2</ele>
        <time>2023-04-10T09:17:03Z</time>
      </trkpt>
      <trkpt lat="48.05832" lon="-3.18279">
        <ele>133.2</ele>
        <time>2023-04-10T09:17:04Z</time>
      </trkpt>
      <trkpt lat="48.0583" lon="-3.18279">
        <ele>133.2</ele>
        <time>2023-04-10T09:17:05Z</time>
      </trkpt>
      <trkpt lat="48.05826" lon="-3.18276">
        <ele>133.2</ele>
        <time>2023-04-10T09:17:06Z</time>
      </trkpt>
      <trkpt lat="48.05801" lon="-3.18262">
        <ele>133.2</ele>
        <time>2023-04-10T09:17:14Z</time>
      </trkpt>
      <trkpt lat="48.05794" lon="-3.18259">
        <ele>133.2</ele>
        <time>2023-04-10T09:17:17Z</time>
      </trkpt>
      <trkpt lat="48.05792" lon="-3.18258">
        <ele>133.2</ele>
        <time>2023-04-10T09:17:18Z</time>
      </trkpt>
      <trkpt lat="48.0579" lon="-3.18258">
        <ele>133.2</ele>
        <time>2023-04-10T09:17:19Z</time>
      </trkpt>
      <trkpt lat="48.05787" lon="-3.18257">
        <ele>133.2</ele>
        <time>2023-04-10T09:17:20Z</time>
      </trkpt>
      <trkpt lat="48.05777" lon="-3.18254">
        <ele>133.2</ele>
        <time>2023-04-10T09:17:23Z</time>
      </trkpt>
      <trkpt lat="48.05769" lon="-3.18256">
        <ele>133.2</ele>
        <time>2023-04-10T09:17:26Z</time>
      </trkpt>
      <trkpt lat="48.05766" lon="-3.18258">
        <ele>133.2</ele>
        <time>2023-04-10T09:17:27Z</time>
      </trkpt>
      <trkpt lat="48.05763" lon="-3.1826">
        <ele>133.2</ele>
        <time>2023-04-10T09:17:28Z</time>
      </trkpt>
      <trkpt lat="48.05761" lon="-3.18262">
        <ele>133.2</ele>
        <time>2023-04-10T09:17:29Z</time>
      </trkpt>
      <trkpt lat="48.05749" lon="-3.18274">
        <ele>133.2</ele>
        <time>2023-04-10T09:17:33Z</time>
      </trkpt>
      <trkpt lat="48.05746" lon="-3.18277">
        <ele>133.2</ele>
        <time>2023-04-10T09:17:34Z</time>
      </trkpt>
      <trkpt lat="48.05735" lon="-3.18288">
        <ele>133.2</ele>
        <time>2023-04-10T09:17:37Z</time>
      </trkpt>
      <trkpt lat="48.0573" lon="-3.18292">
        <ele>133.2</ele>
        <time>2023-04-10T09:17:38Z</time>
      </trkpt>
      <trkpt lat="48.05728" lon="-3.18295">
        <ele>133.2</ele>
        <time>2023-04-10T09:17:39Z</time>
      </trkpt>
      <trkpt lat="48.05726" lon="-3.18299">
        <ele>133.2</ele>
        <time>2023-04-10T09:17:40Z</time>
      </trkpt>
      <trkpt lat="48.05726" lon="-3.18301">
        <ele>133.2</ele>
        <time>2023-04-10T09:17:41Z</time>
      </trkpt>
      <trkpt lat="48.05725" lon="-3.18301">
        <ele>133.2</ele>
        <time>2023-04-10T09:17:42Z</time>
      </trkpt>
      <trkpt lat="48.05722" lon="-3.18305">
        <ele>134.6</ele>
        <time>2023-04-10T09:18:02Z</time>
      </trkpt>
      <trkpt lat="48.05721" lon="-3.18307">
        <ele>134.6</ele>
        <time>2023-04-10T09:18:03Z</time>
      </trkpt>
      <trkpt lat="48.05717" lon="-3.18314">
        <ele>134.8</ele>
        <time>2023-04-10T09:18:06Z</time>
      </trkpt>
      <trkpt lat="48.05716" lon="-3.18316">
        <ele>134.8</ele>
        <time>2023-04-10T09:18:07Z</time>
      </trkpt>
      <trkpt lat="48.05711" lon="-3.18327">
        <ele>134.8</ele>
        <time>2023-04-10T09:18:10Z</time>
      </trkpt>
      <trkpt lat="48.05707" lon="-3.18338">
        <ele>135</ele>
        <time>2023-04-10T09:18:12Z</time>
      </trkpt>
      <trkpt lat="48.05704" lon="-3.18352">
        <ele>134.8</ele>
        <time>2023-04-10T09:18:14Z</time>
      </trkpt>
      <trkpt lat="48.05697" lon="-3.18372">
        <ele>134.8</ele>
        <time>2023-04-10T09:18:17Z</time>
      </trkpt>
      <trkpt lat="48.05696" lon="-3.18379">
        <ele>134.8</ele>
        <time>2023-04-10T09:18:18Z</time>
      </trkpt>
      <trkpt lat="48.05695" lon="-3.18386">
        <ele>134.8</ele>
        <time>2023-04-10T09:18:19Z</time>
      </trkpt>
      <trkpt lat="48.05693" lon="-3.18393">
        <ele>134.8</ele>
        <time>2023-04-10T09:18:20Z</time>
      </trkpt>
      <trkpt lat="48.05692" lon="-3.18398">
        <ele>134.8</ele>
        <time>2023-04-10T09:18:21Z</time>
      </trkpt>
      <trkpt lat="48.05691" lon="-3.18404">
        <ele>134.8</ele>
        <time>2023-04-10T09:18:22Z</time>
      </trkpt>
      <trkpt lat="48.0569" lon="-3.18409">
        <ele>134.8</ele>
        <time>2023-04-10T09:18:23Z</time>
      </trkpt>
      <trkpt lat="48.0569" lon="-3.18413">
        <ele>134.8</ele>
        <time>2023-04-10T09:18:24Z</time>
      </trkpt>
      <trkpt lat="48.05689" lon="-3.18418">
        <ele>134.8</ele>
        <time>2023-04-10T09:18:25Z</time>
      </trkpt>
      <trkpt lat="48.05688" lon="-3.18422">
        <ele>134.8</ele>
        <time>2023-04-10T09:18:26Z</time>
      </trkpt>
      <trkpt lat="48.05688" lon="-3.18425">
        <ele>134.8</ele>
        <time>2023-04-10T09:18:27Z</time>
      </trkpt>
      <trkpt lat="48.05688" lon="-3.18426">
        <ele>134.8</ele>
        <time>2023-04-10T09:18:28Z</time>
      </trkpt>
      <trkpt lat="48.05688" lon="-3.18426">
        <ele>134.8</ele>
        <time>2023-04-10T09:18:29Z</time>
      </trkpt>
      <trkpt lat="48.05687" lon="-3.18425">
        <ele>134.8</ele>
        <time>2023-04-10T09:18:30Z</time>
      </trkpt>
      <trkpt lat="48.05687" lon="-3.18424">
        <ele>134.8</ele>
        <time>2023-04-10T09:18:31Z</time>
      </trkpt>
      <trkpt lat="48.05688" lon="-3.18422">
        <ele>134.8</ele>
        <time>2023-04-10T09:18:32Z</time>
      </trkpt>
      <trkpt lat="48.05688" lon="-3.18419">
        <ele>134.8</ele>
        <time>2023-04-10T09:18:33Z</time>
      </trkpt>
      <trkpt lat="48.05688" lon="-3.18416">
        <ele>134.8</ele>
        <time>2023-04-10T09:18:34Z</time>
      </trkpt>
      <trkpt lat="48.05688" lon="-3.18413">
        <ele>134.8</ele>
        <time>2023-04-10T09:18:35Z</time>
      </trkpt>
      <trkpt lat="48.05689" lon="-3.18406">
        <ele>134.6</ele>
        <time>2023-04-10T09:18:37Z</time>
      </trkpt>
      <trkpt lat="48.05693" lon="-3.18384">
        <ele>134.2</ele>
        <time>2023-04-10T09:18:42Z</time>
      </trkpt>
      <trkpt lat="48.05695" lon="-3.18374">
        <ele>134</ele>
        <time>2023-04-10T09:18:44Z</time>
      </trkpt>
      <trkpt lat="48.05696" lon="-3.18369">
        <ele>134</ele>
        <time>2023-04-10T09:18:45Z</time>
      </trkpt>
      <trkpt lat="48.05697" lon="-3.18366">
        <ele>134</ele>
        <time>2023-04-10T09:18:46Z</time>
      </trkpt>
      <trkpt lat="48.05698" lon="-3.1836">
        <ele>134</ele>
        <time>2023-04-10T09:18:47Z</time>
      </trkpt>
      <trkpt lat="48.05699" lon="-3.18355">
        <ele>134</ele>
        <time>2023-04-10T09:18:48Z</time>
      </trkpt>
      <trkpt lat="48.05702" lon="-3.1834">
        <ele>134</ele>
        <time>2023-04-10T09:18:51Z</time>
      </trkpt>
      <trkpt lat="48.05708" lon="-3.18326">
        <ele>134</ele>
        <time>2023-04-10T09:18:54Z</time>
      </trkpt>
      <trkpt lat="48.0571" lon="-3.18321">
        <ele>134</ele>
        <time>2023-04-10T09:18:55Z</time>
      </trkpt>
      <trkpt lat="48.05712" lon="-3.18318">
        <ele>134</ele>
        <time>2023-04-10T09:18:56Z</time>
      </trkpt>
      <trkpt lat="48.05712" lon="-3.18315">
        <ele>134</ele>
        <time>2023-04-10T09:18:57Z</time>
      </trkpt>
      <trkpt lat="48.05713" lon="-3.18314">
        <ele>134</ele>
        <time>2023-04-10T09:18:58Z</time>
      </trkpt>
      <trkpt lat="48.05712" lon="-3.18313">
        <ele>134.2</ele>
        <time>2023-04-10T09:19:00Z</time>
      </trkpt>
      <trkpt lat="48.05711" lon="-3.18312">
        <ele>134.2</ele>
        <time>2023-04-10T09:19:02Z</time>
      </trkpt>
      <trkpt lat="48.05711" lon="-3.18312">
        <ele>134.2</ele>
        <time>2023-04-10T09:19:04Z</time>
      </trkpt>
      <trkpt lat="48.05711" lon="-3.18312">
        <ele>134.2</ele>
        <time>2023-04-10T09:19:05Z</time>
      </trkpt>
      <trkpt lat="48.05711" lon="-3.18312">
        <ele>134.2</ele>
        <time>2023-04-10T09:19:06Z</time>
      </trkpt>
      <trkpt lat="48.05711" lon="-3.18314">
        <ele>134.2</ele>
        <time>2023-04-10T09:19:07Z</time>
      </trkpt>
      <trkpt lat="48.0571" lon="-3.18314">
        <ele>134.2</ele>
        <time>2023-04-10T09:19:08Z</time>
      </trkpt>
      <trkpt lat="48.05709" lon="-3.18317">
        <ele>134</ele>
        <time>2023-04-10T09:19:10Z</time>
      </trkpt>
      <trkpt lat="48.05708" lon="-3.18318">
        <ele>133.6</ele>
        <time>2023-04-10T09:19:11Z</time>
      </trkpt>
      <trkpt lat="48.05707" lon="-3.18319">
        <ele>133.4</ele>
        <time>2023-04-10T09:19:12Z</time>
      </trkpt>
      <trkpt lat="48.05702" lon="-3.18328">
        <ele>132.8</ele>
        <time>2023-04-10T09:19:15Z</time>
      </trkpt>
      <trkpt lat="48.05696" lon="-3.18341">
        <ele>132.4</ele>
        <time>2023-04-10T09:19:18Z</time>
      </trkpt>
      <trkpt lat="48.05691" lon="-3.18349">
        <ele>132.2</ele>
        <time>2023-04-10T09:19:20Z</time>
      </trkpt>
      <trkpt lat="48.05684" lon="-3.18355">
        <ele>132.2</ele>
        <time>2023-04-10T09:19:22Z</time>
      </trkpt>
      <trkpt lat="48.05681" lon="-3.18358">
        <ele>132</ele>
        <time>2023-04-10T09:19:23Z</time>
      </trkpt>
      <trkpt lat="48.05678" lon="-3.18361">
        <ele>132</ele>
        <time>2023-04-10T09:19:24Z</time>
      </trkpt>
      <trkpt lat="48.05677" lon="-3.18364">
        <ele>132</ele>
        <time>2023-04-10T09:19:25Z</time>
      </trkpt>
      <trkpt lat="48.05676" lon="-3.18366">
        <ele>132</ele>
        <time>2023-04-10T09:19:26Z</time>
      </trkpt>
      <trkpt lat="48.05675" lon="-3.18368">
        <ele>132</ele>
        <time>2023-04-10T09:19:27Z</time>
      </trkpt>
      <trkpt lat="48.05674" lon="-3.18368">
        <ele>132</ele>
        <time>2023-04-10T09:19:28Z</time>
      </trkpt>
      <trkpt lat="48.05673" lon="-3.18366">
        <ele>132</ele>
        <time>2023-04-10T09:19:29Z</time>
      </trkpt>
      <trkpt lat="48.05671" lon="-3.18365">
        <ele>132</ele>
        <time>2023-04-10T09:19:30Z</time>
      </trkpt>
      <trkpt lat="48.05668" lon="-3.18366">
        <ele>132</ele>
        <time>2023-04-10T09:19:31Z</time>
      </trkpt>
      <trkpt lat="48.05665" lon="-3.18369">
        <ele>132</ele>
        <time>2023-04-10T09:19:32Z</time>
      </trkpt>
      <trkpt lat="48.05661" lon="-3.18372">
        <ele>132</ele>
        <time>2023-04-10T09:19:33Z</time>
      </trkpt>
      <trkpt lat="48.05659" lon="-3.18371">
        <ele>132</ele>
        <time>2023-04-10T09:19:35Z</time>
      </trkpt>
      <trkpt lat="48.05658" lon="-3.18369">
        <ele>132</ele>
        <time>2023-04-10T09:19:36Z</time>
      </trkpt>
      <trkpt lat="48.05656" lon="-3.18368">
        <ele>132</ele>
        <time>2023-04-10T09:19:37Z</time>
      </trkpt>
      <trkpt lat="48.05654" lon="-3.18368">
        <ele>132</ele>
        <time>2023-04-10T09:19:38Z</time>
      </trkpt>
      <trkpt lat="48.05651" lon="-3.18367">
        <ele>132</ele>
        <time>2023-04-10T09:19:39Z</time>
      </trkpt>
      <trkpt lat="48.05647" lon="-3.18366">
        <ele>132</ele>
        <time>2023-04-10T09:19:40Z</time>
      </trkpt>
      <trkpt lat="48.05644" lon="-3.18364">
        <ele>132</ele>
        <time>2023-04-10T09:19:41Z</time>
      </trkpt>
      <trkpt lat="48.05641" lon="-3.18361">
        <ele>132</ele>
        <time>2023-04-10T09:19:42Z</time>
      </trkpt>
      <trkpt lat="48.05638" lon="-3.18359">
        <ele>132</ele>
        <time>2023-04-10T09:19:43Z</time>
      </trkpt>
      <trkpt lat="48.05635" lon="-3.18359">
        <ele>131.8</ele>
        <time>2023-04-10T09:19:44Z</time>
      </trkpt>
      <trkpt lat="48.05632" lon="-3.1836">
        <ele>131.8</ele>
        <time>2023-04-10T09:19:45Z</time>
      </trkpt>
      <trkpt lat="48.05629" lon="-3.18364">
        <ele>131.6</ele>
        <time>2023-04-10T09:19:46Z</time>
      </trkpt>
      <trkpt lat="48.05625" lon="-3.1837">
        <ele>131.4</ele>
        <time>2023-04-10T09:19:48Z</time>
      </trkpt>
      <trkpt lat="48.05623" lon="-3.18374">
        <ele>131.4</ele>
        <time>2023-04-10T09:19:49Z</time>
      </trkpt>
      <trkpt lat="48.05616" lon="-3.18381">
        <ele>131.4</ele>
        <time>2023-04-10T09:19:52Z</time>
      </trkpt>
      <trkpt lat="48.05613" lon="-3.18381">
        <ele>131.2</ele>
        <time>2023-04-10T09:19:53Z</time>
      </trkpt>
      <trkpt lat="48.05611" lon="-3.1838">
        <ele>131.2</ele>
        <time>2023-04-10T09:19:54Z</time>
      </trkpt>
      <trkpt lat="48.05605" lon="-3.18377">
        <ele>131.2</ele>
        <time>2023-04-10T09:19:56Z</time>
      </trkpt>
      <trkpt lat="48.05602" lon="-3.18375">
        <ele>131.2</ele>
        <time>2023-04-10T09:19:57Z</time>
      </trkpt>
      <trkpt lat="48.056" lon="-3.18373">
        <ele>131.2</ele>
        <time>2023-04-10T09:19:58Z</time>
      </trkpt>
      <trkpt lat="48.05598" lon="-3.1837">
        <ele>131.2</ele>
        <time>2023-04-10T09:19:59Z</time>
      </trkpt>
      <trkpt lat="48.05598" lon="-3.18367">
        <ele>131.2</ele>
        <time>2023-04-10T09:20:00Z</time>
      </trkpt>
      <trkpt lat="48.05598" lon="-3.18364">
        <ele>131.2</ele>
        <time>2023-04-10T09:20:01Z</time>
      </trkpt>
      <trkpt lat="48.05597" lon="-3.18356">
        <ele>131.2</ele>
        <time>2023-04-10T09:20:03Z</time>
      </trkpt>
      <trkpt lat="48.05596" lon="-3.18353">
        <ele>131.2</ele>
        <time>2023-04-10T09:20:04Z</time>
      </trkpt>
      <trkpt lat="48.05594" lon="-3.18351">
        <ele>131.2</ele>
        <time>2023-04-10T09:20:05Z</time>
      </trkpt>
      <trkpt lat="48.05592" lon="-3.18349">
        <ele>131.2</ele>
        <time>2023-04-10T09:20:06Z</time>
      </trkpt>
      <trkpt lat="48.0559" lon="-3.18347">
        <ele>131.2</ele>
        <time>2023-04-10T09:20:07Z</time>
      </trkpt>
      <trkpt lat="48.05589" lon="-3.18345">
        <ele>131</ele>
        <time>2023-04-10T09:20:08Z</time>
      </trkpt>
      <trkpt lat="48.05587" lon="-3.18338">
        <ele>131</ele>
        <time>2023-04-10T09:20:10Z</time>
      </trkpt>
      <trkpt lat="48.05584" lon="-3.18334">
        <ele>131</ele>
        <time>2023-04-10T09:20:11Z</time>
      </trkpt>
      <trkpt lat="48.05571" lon="-3.18331">
        <ele>131</ele>
        <time>2023-04-10T09:20:15Z</time>
      </trkpt>
      <trkpt lat="48.05568" lon="-3.18331">
        <ele>131</ele>
        <time>2023-04-10T09:20:16Z</time>
      </trkpt>
      <trkpt lat="48.05561" lon="-3.18334">
        <ele>130.8</ele>
        <time>2023-04-10T09:20:18Z</time>
      </trkpt>
      <trkpt lat="48.05559" lon="-3.18335">
        <ele>130.8</ele>
        <time>2023-04-10T09:20:19Z</time>
      </trkpt>
      <trkpt lat="48.05557" lon="-3.18335">
        <ele>130.8</ele>
        <time>2023-04-10T09:20:20Z</time>
      </trkpt>
      <trkpt lat="48.05555" lon="-3.18335">
        <ele>130.8</ele>
        <time>2023-04-10T09:20:21Z</time>
      </trkpt>
      <trkpt lat="48.05553" lon="-3.18333">
        <ele>130.8</ele>
        <time>2023-04-10T09:20:22Z</time>
      </trkpt>
      <trkpt lat="48.05551" lon="-3.1833">
        <ele>130.8</ele>
        <time>2023-04-10T09:20:23Z</time>
      </trkpt>
      <trkpt lat="48.05549" lon="-3.18326">
        <ele>130.6</ele>
        <time>2023-04-10T09:20:24Z</time>
      </trkpt>
      <trkpt lat="48.05544" lon="-3.18321">
        <ele>130.6</ele>
        <time>2023-04-10T09:20:26Z</time>
      </trkpt>
      <trkpt lat="48.05541" lon="-3.1832">
        <ele>130.6</ele>
        <time>2023-04-10T09:20:27Z</time>
      </trkpt>
      <trkpt lat="48.05538" lon="-3.18319">
        <ele>130.6</ele>
        <time>2023-04-10T09:20:28Z</time>
      </trkpt>
      <trkpt lat="48.05537" lon="-3.18316">
        <ele>130.6</ele>
        <time>2023-04-10T09:20:29Z</time>
      </trkpt>
      <trkpt lat="48.05536" lon="-3.18313">
        <ele>130.4</ele>
        <time>2023-04-10T09:20:30Z</time>
      </trkpt>
      <trkpt lat="48.05534" lon="-3.183">
        <ele>130.4</ele>
        <time>2023-04-10T09:20:33Z</time>
      </trkpt>
      <trkpt lat="48.05532" lon="-3.18297">
        <ele>130.4</ele>
        <time>2023-04-10T09:20:34Z</time>
      </trkpt>
      <trkpt lat="48.0553" lon="-3.18295">
        <ele>130.4</ele>
        <time>2023-04-10T09:20:35Z</time>
      </trkpt>
      <trkpt lat="48.05528" lon="-3.18294">
        <ele>130.4</ele>
        <time>2023-04-10T09:20:36Z</time>
      </trkpt>
      <trkpt lat="48.05526" lon="-3.18293">
        <ele>130.4</ele>
        <time>2023-04-10T09:20:37Z</time>
      </trkpt>
      <trkpt lat="48.05523" lon="-3.18292">
        <ele>130.4</ele>
        <time>2023-04-10T09:20:38Z</time>
      </trkpt>
      <trkpt lat="48.05521" lon="-3.1829">
        <ele>130.4</ele>
        <time>2023-04-10T09:20:39Z</time>
      </trkpt>
      <trkpt lat="48.05519" lon="-3.1829">
        <ele>130.4</ele>
        <time>2023-04-10T09:20:40Z</time>
      </trkpt>
      <trkpt lat="48.05517" lon="-3.18291">
        <ele>130.4</ele>
        <time>2023-04-10T09:20:41Z</time>
      </trkpt>
      <trkpt lat="48.05516" lon="-3.18293">
        <ele>130.4</ele>
        <time>2023-04-10T09:20:42Z</time>
      </trkpt>
      <trkpt lat="48.05515" lon="-3.18295">
        <ele>130.4</ele>
        <time>2023-04-10T09:20:43Z</time>
      </trkpt>
      <trkpt lat="48.05514" lon="-3.18298">
        <ele>130.4</ele>
        <time>2023-04-10T09:20:44Z</time>
      </trkpt>
      <trkpt lat="48.05514" lon="-3.18301">
        <ele>130.4</ele>
        <time>2023-04-10T09:20:45Z</time>
      </trkpt>
      <trkpt lat="48.05513" lon="-3.18303">
        <ele>130.4</ele>
        <time>2023-04-10T09:20:46Z</time>
      </trkpt>
      <trkpt lat="48.0551" lon="-3.18306">
        <ele>130.2</ele>
        <time>2023-04-10T09:20:48Z</time>
      </trkpt>
      <trkpt lat="48.0551" lon="-3.18308">
        <ele>130.2</ele>
        <time>2023-04-10T09:20:49Z</time>
      </trkpt>
      <trkpt lat="48.05509" lon="-3.18314">
        <ele>130.4</ele>
        <time>2023-04-10T09:20:51Z</time>
      </trkpt>
      <trkpt lat="48.05509" lon="-3.18318">
        <ele>130.4</ele>
        <time>2023-04-10T09:20:52Z</time>
      </trkpt>
      <trkpt lat="48.05508" lon="-3.18322">
        <ele>130.4</ele>
        <time>2023-04-10T09:20:53Z</time>
      </trkpt>
      <trkpt lat="48.05509" lon="-3.18326">
        <ele>130.4</ele>
        <time>2023-04-10T09:20:54Z</time>
      </trkpt>
      <trkpt lat="48.0551" lon="-3.18329">
        <ele>130.4</ele>
        <time>2023-04-10T09:20:55Z</time>
      </trkpt>
      <trkpt lat="48.05511" lon="-3.18333">
        <ele>130.6</ele>
        <time>2023-04-10T09:20:56Z</time>
      </trkpt>
      <trkpt lat="48.05512" lon="-3.18343">
        <ele>130.8</ele>
        <time>2023-04-10T09:20:58Z</time>
      </trkpt>
      <trkpt lat="48.05512" lon="-3.18347">
        <ele>131</ele>
        <time>2023-04-10T09:20:59Z</time>
      </trkpt>
      <trkpt lat="48.05512" lon="-3.18351">
        <ele>131.2</ele>
        <time>2023-04-10T09:21:00Z</time>
      </trkpt>
      <trkpt lat="48.05512" lon="-3.18355">
        <ele>131.4</ele>
        <time>2023-04-10T09:21:01Z</time>
      </trkpt>
      <trkpt lat="48.05511" lon="-3.18359">
        <ele>131.4</ele>
        <time>2023-04-10T09:21:02Z</time>
      </trkpt>
      <trkpt lat="48.05509" lon="-3.18363">
        <ele>131.6</ele>
        <time>2023-04-10T09:21:03Z</time>
      </trkpt>
      <trkpt lat="48.05508" lon="-3.18366">
        <ele>131.8</ele>
        <time>2023-04-10T09:21:04Z</time>
      </trkpt>
      <trkpt lat="48.05506" lon="-3.18371">
        <ele>131.8</ele>
        <time>2023-04-10T09:21:05Z</time>
      </trkpt>
      <trkpt lat="48.05505" lon="-3.18375">
        <ele>131.8</ele>
        <time>2023-04-10T09:21:06Z</time>
      </trkpt>
      <trkpt lat="48.05503" lon="-3.18378">
        <ele>132.2</ele>
        <time>2023-04-10T09:21:07Z</time>
      </trkpt>
      <trkpt lat="48.05502" lon="-3.18382">
        <ele>132.2</ele>
        <time>2023-04-10T09:21:08Z</time>
      </trkpt>
      <trkpt lat="48.05496" lon="-3.18403">
        <ele>133.2</ele>
        <time>2023-04-10T09:21:12Z</time>
      </trkpt>
      <trkpt lat="48.05492" lon="-3.18414">
        <ele>133.4</ele>
        <time>2023-04-10T09:21:14Z</time>
      </trkpt>
      <trkpt lat="48.05491" lon="-3.1842">
        <ele>133.4</ele>
        <time>2023-04-10T09:21:15Z</time>
      </trkpt>
      <trkpt lat="48.05488" lon="-3.18428">
        <ele>133.6</ele>
        <time>2023-04-10T09:21:16Z</time>
      </trkpt>
      <trkpt lat="48.05487" lon="-3.18433">
        <ele>133.8</ele>
        <time>2023-04-10T09:21:17Z</time>
      </trkpt>
      <trkpt lat="48.05485" lon="-3.18438">
        <ele>133.8</ele>
        <time>2023-04-10T09:21:18Z</time>
      </trkpt>
      <trkpt lat="48.05483" lon="-3.1844">
        <ele>133.8</ele>
        <time>2023-04-10T09:21:19Z</time>
      </trkpt>
      <trkpt lat="48.05481" lon="-3.18441">
        <ele>134</ele>
        <time>2023-04-10T09:21:20Z</time>
      </trkpt>
      <trkpt lat="48.05478" lon="-3.18441">
        <ele>134</ele>
        <time>2023-04-10T09:21:21Z</time>
      </trkpt>
      <trkpt lat="48.05476" lon="-3.1844">
        <ele>134.2</ele>
        <time>2023-04-10T09:21:22Z</time>
      </trkpt>
      <trkpt lat="48.05474" lon="-3.18439">
        <ele>134.2</ele>
        <time>2023-04-10T09:21:23Z</time>
      </trkpt>
      <trkpt lat="48.05473" lon="-3.1844">
        <ele>134.2</ele>
        <time>2023-04-10T09:21:24Z</time>
      </trkpt>
      <trkpt lat="48.05471" lon="-3.18442">
        <ele>134.2</ele>
        <time>2023-04-10T09:21:25Z</time>
      </trkpt>
      <trkpt lat="48.0547" lon="-3.18444">
        <ele>134.4</ele>
        <time>2023-04-10T09:21:26Z</time>
      </trkpt>
      <trkpt lat="48.05469" lon="-3.18445">
        <ele>134.4</ele>
        <time>2023-04-10T09:21:27Z</time>
      </trkpt>
      <trkpt lat="48.05467" lon="-3.18447">
        <ele>134.4</ele>
        <time>2023-04-10T09:21:28Z</time>
      </trkpt>
      <trkpt lat="48.05466" lon="-3.18448">
        <ele>134.6</ele>
        <time>2023-04-10T09:21:29Z</time>
      </trkpt>
      <trkpt lat="48.05466" lon="-3.1845">
        <ele>134.8</ele>
        <time>2023-04-10T09:21:30Z</time>
      </trkpt>
      <trkpt lat="48.05465" lon="-3.18455">
        <ele>135</ele>
        <time>2023-04-10T09:21:31Z</time>
      </trkpt>
      <trkpt lat="48.05466" lon="-3.18459">
        <ele>135.4</ele>
        <time>2023-04-10T09:21:32Z</time>
      </trkpt>
      <trkpt lat="48.05466" lon="-3.18462">
        <ele>135.8</ele>
        <time>2023-04-10T09:21:33Z</time>
      </trkpt>
      <trkpt lat="48.05466" lon="-3.18466">
        <ele>136.2</ele>
        <time>2023-04-10T09:21:34Z</time>
      </trkpt>
      <trkpt lat="48.05465" lon="-3.18469">
        <ele>136.6</ele>
        <time>2023-04-10T09:21:35Z</time>
      </trkpt>
      <trkpt lat="48.05464" lon="-3.18471">
        <ele>137</ele>
        <time>2023-04-10T09:21:36Z</time>
      </trkpt>
      <trkpt lat="48.05462" lon="-3.18473">
        <ele>137.4</ele>
        <time>2023-04-10T09:21:37Z</time>
      </trkpt>
      <trkpt lat="48.05461" lon="-3.18474">
        <ele>137.6</ele>
        <time>2023-04-10T09:21:38Z</time>
      </trkpt>
      <trkpt lat="48.05461" lon="-3.18476">
        <ele>138</ele>
        <time>2023-04-10T09:21:39Z</time>
      </trkpt>
      <trkpt lat="48.0546" lon="-3.18477">
        <ele>138.2</ele>
        <time>2023-04-10T09:21:40Z</time>
      </trkpt>
      <trkpt lat="48.05458" lon="-3.18478">
        <ele>138.4</ele>
        <time>2023-04-10T09:21:41Z</time>
      </trkpt>
      <trkpt lat="48.05457" lon="-3.1848">
        <ele>138.6</ele>
        <time>2023-04-10T09:21:42Z</time>
      </trkpt>
      <trkpt lat="48.05456" lon="-3.18482">
        <ele>138.8</ele>
        <time>2023-04-10T09:21:43Z</time>
      </trkpt>
      <trkpt lat="48.05455" lon="-3.18483">
        <ele>138.8</ele>
        <time>2023-04-10T09:21:44Z</time>
      </trkpt>
      <trkpt lat="48.05455" lon="-3.18484">
        <ele>139.2</ele>
        <time>2023-04-10T09:21:45Z</time>
      </trkpt>
      <trkpt lat="48.05455" lon="-3.18485">
        <ele>139.4</ele>
        <time>2023-04-10T09:21:46Z</time>
      </trkpt>
      <trkpt lat="48.05454" lon="-3.18486">
        <ele>139.8</ele>
        <time>2023-04-10T09:21:47Z</time>
      </trkpt>
      <trkpt lat="48.05453" lon="-3.18487">
        <ele>140</ele>
        <time>2023-04-10T09:21:48Z</time>
      </trkpt>
      <trkpt lat="48.05452" lon="-3.18488">
        <ele>140.6</ele>
        <time>2023-04-10T09:21:49Z</time>
      </trkpt>
      <trkpt lat="48.05451" lon="-3.1849">
        <ele>140.6</ele>
        <time>2023-04-10T09:21:50Z</time>
      </trkpt>
      <trkpt lat="48.05449" lon="-3.18492">
        <ele>140.8</ele>
        <time>2023-04-10T09:21:51Z</time>
      </trkpt>
      <trkpt lat="48.05447" lon="-3.18494">
        <ele>141.2</ele>
        <time>2023-04-10T09:21:52Z</time>
      </trkpt>
      <trkpt lat="48.05445" lon="-3.18498">
        <ele>141.4</ele>
        <time>2023-04-10T09:21:53Z</time>
      </trkpt>
      <trkpt lat="48.05443" lon="-3.18502">
        <ele>141.8</ele>
        <time>2023-04-10T09:21:54Z</time>
      </trkpt>
      <trkpt lat="48.05441" lon="-3.18505">
        <ele>142</ele>
        <time>2023-04-10T09:21:55Z</time>
      </trkpt>
      <trkpt lat="48.05441" lon="-3.18508">
        <ele>142.2</ele>
        <time>2023-04-10T09:21:56Z</time>
      </trkpt>
      <trkpt lat="48.0544" lon="-3.18511">
        <ele>142.6</ele>
        <time>2023-04-10T09:21:57Z</time>
      </trkpt>
      <trkpt lat="48.05438" lon="-3.18513">
        <ele>142.8</ele>
        <time>2023-04-10T09:21:58Z</time>
      </trkpt>
      <trkpt lat="48.05438" lon="-3.18517">
        <ele>143</ele>
        <time>2023-04-10T09:21:59Z</time>
      </trkpt>
      <trkpt lat="48.05436" lon="-3.1852">
        <ele>143.2</ele>
        <time>2023-04-10T09:22:00Z</time>
      </trkpt>
      <trkpt lat="48.05436" lon="-3.18524">
        <ele>143.4</ele>
        <time>2023-04-10T09:22:01Z</time>
      </trkpt>
      <trkpt lat="48.05435" lon="-3.18527">
        <ele>143.6</ele>
        <time>2023-04-10T09:22:02Z</time>
      </trkpt>
      <trkpt lat="48.05434" lon="-3.1853">
        <ele>143.8</ele>
        <time>2023-04-10T09:22:03Z</time>
      </trkpt>
      <trkpt lat="48.05433" lon="-3.18532">
        <ele>144</ele>
        <time>2023-04-10T09:22:04Z</time>
      </trkpt>
      <trkpt lat="48.05432" lon="-3.18535">
        <ele>144.2</ele>
        <time>2023-04-10T09:22:05Z</time>
      </trkpt>
      <trkpt lat="48.05432" lon="-3.18538">
        <ele>144.2</ele>
        <time>2023-04-10T09:22:06Z</time>
      </trkpt>
      <trkpt lat="48.05431" lon="-3.1854">
        <ele>144.4</ele>
        <time>2023-04-10T09:22:07Z</time>
      </trkpt>
      <trkpt lat="48.05429" lon="-3.18542">
        <ele>144.4</ele>
        <time>2023-04-10T09:22:08Z</time>
      </trkpt>
      <trkpt lat="48.05428" lon="-3.18544">
        <ele>144.6</ele>
        <time>2023-04-10T09:22:09Z</time>
      </trkpt>
      <trkpt lat="48.05425" lon="-3.18547">
        <ele>144.6</ele>
        <time>2023-04-10T09:22:10Z</time>
      </trkpt>
      <trkpt lat="48.05423" lon="-3.18548">
        <ele>144.6</ele>
        <time>2023-04-10T09:22:11Z</time>
      </trkpt>
      <trkpt lat="48.05421" lon="-3.1855">
        <ele>144.6</ele>
        <time>2023-04-10T09:22:12Z</time>
      </trkpt>
      <trkpt lat="48.05419" lon="-3.18551">
        <ele>144.8</ele>
        <time>2023-04-10T09:22:13Z</time>
      </trkpt>
      <trkpt lat="48.05417" lon="-3.18552">
        <ele>145</ele>
        <time>2023-04-10T09:22:14Z</time>
      </trkpt>
      <trkpt lat="48.05415" lon="-3.18553">
        <ele>145.2</ele>
        <time>2023-04-10T09:22:15Z</time>
      </trkpt>
      <trkpt lat="48.05414" lon="-3.18554">
        <ele>145.4</ele>
        <time>2023-04-10T09:22:16Z</time>
      </trkpt>
      <trkpt lat="48.05413" lon="-3.18555">
        <ele>145.6</ele>
        <time>2023-04-10T09:22:17Z</time>
      </trkpt>
      <trkpt lat="48.05411" lon="-3.18557">
        <ele>145.8</ele>
        <time>2023-04-10T09:22:18Z</time>
      </trkpt>
      <trkpt lat="48.05409" lon="-3.18558">
        <ele>146</ele>
        <time>2023-04-10T09:22:19Z</time>
      </trkpt>
      <trkpt lat="48.05408" lon="-3.18559">
        <ele>146.2</ele>
        <time>2023-04-10T09:22:20Z</time>
      </trkpt>
      <trkpt lat="48.05406" lon="-3.1856">
        <ele>146.4</ele>
        <time>2023-04-10T09:22:21Z</time>
      </trkpt>
      <trkpt lat="48.05405" lon="-3.18562">
        <ele>146.6</ele>
        <time>2023-04-10T09:22:22Z</time>
      </trkpt>
      <trkpt lat="48.05404" lon="-3.18564">
        <ele>147</ele>
        <time>2023-04-10T09:22:23Z</time>
      </trkpt>
      <trkpt lat="48.05402" lon="-3.18567">
        <ele>147.2</ele>
        <time>2023-04-10T09:22:24Z</time>
      </trkpt>
      <trkpt lat="48.05401" lon="-3.1857">
        <ele>147.4</ele>
        <time>2023-04-10T09:22:25Z</time>
      </trkpt>
      <trkpt lat="48.054" lon="-3.18573">
        <ele>147.6</ele>
        <time>2023-04-10T09:22:26Z</time>
      </trkpt>
      <trkpt lat="48.054" lon="-3.18576">
        <ele>147.8</ele>
        <time>2023-04-10T09:22:27Z</time>
      </trkpt>
      <trkpt lat="48.05398" lon="-3.1858">
        <ele>148</ele>
        <time>2023-04-10T09:22:28Z</time>
      </trkpt>
      <trkpt lat="48.05397" lon="-3.18583">
        <ele>148.2</ele>
        <time>2023-04-10T09:22:29Z</time>
      </trkpt>
      <trkpt lat="48.05396" lon="-3.18586">
        <ele>148.4</ele>
        <time>2023-04-10T09:22:30Z</time>
      </trkpt>
      <trkpt lat="48.05395" lon="-3.18589">
        <ele>148.8</ele>
        <time>2023-04-10T09:22:31Z</time>
      </trkpt>
      <trkpt lat="48.05394" lon="-3.18592">
        <ele>149</ele>
        <time>2023-04-10T09:22:32Z</time>
      </trkpt>
      <trkpt lat="48.05392" lon="-3.18595">
        <ele>149.2</ele>
        <time>2023-04-10T09:22:33Z</time>
      </trkpt>
      <trkpt lat="48.0539" lon="-3.18595">
        <ele>149.4</ele>
        <time>2023-04-10T09:22:34Z</time>
      </trkpt>
      <trkpt lat="48.05388" lon="-3.18596">
        <ele>149.4</ele>
        <time>2023-04-10T09:22:35Z</time>
      </trkpt>
      <trkpt lat="48.05386" lon="-3.18595">
        <ele>149.4</ele>
        <time>2023-04-10T09:22:36Z</time>
      </trkpt>
      <trkpt lat="48.05384" lon="-3.18593">
        <ele>149.4</ele>
        <time>2023-04-10T09:22:37Z</time>
      </trkpt>
      <trkpt lat="48.05383" lon="-3.18591">
        <ele>149.6</ele>
        <time>2023-04-10T09:22:38Z</time>
      </trkpt>
      <trkpt lat="48.05381" lon="-3.18588">
        <ele>149.6</ele>
        <time>2023-04-10T09:22:39Z</time>
      </trkpt>
      <trkpt lat="48.0538" lon="-3.18585">
        <ele>149.6</ele>
        <time>2023-04-10T09:22:40Z</time>
      </trkpt>
      <trkpt lat="48.05378" lon="-3.18583">
        <ele>149.6</ele>
        <time>2023-04-10T09:22:41Z</time>
      </trkpt>
      <trkpt lat="48.05376" lon="-3.1858">
        <ele>149.6</ele>
        <time>2023-04-10T09:22:42Z</time>
      </trkpt>
      <trkpt lat="48.05374" lon="-3.18577">
        <ele>149.6</ele>
        <time>2023-04-10T09:22:43Z</time>
      </trkpt>
      <trkpt lat="48.05372" lon="-3.18573">
        <ele>149.8</ele>
        <time>2023-04-10T09:22:44Z</time>
      </trkpt>
      <trkpt lat="48.05371" lon="-3.18571">
        <ele>149.8</ele>
        <time>2023-04-10T09:22:45Z</time>
      </trkpt>
      <trkpt lat="48.05369" lon="-3.18568">
        <ele>149.8</ele>
        <time>2023-04-10T09:22:46Z</time>
      </trkpt>
      <trkpt lat="48.05368" lon="-3.18565">
        <ele>149.8</ele>
        <time>2023-04-10T09:22:47Z</time>
      </trkpt>
      <trkpt lat="48.05365" lon="-3.18563">
        <ele>149.8</ele>
        <time>2023-04-10T09:22:48Z</time>
      </trkpt>
      <trkpt lat="48.05363" lon="-3.1856">
        <ele>149.6</ele>
        <time>2023-04-10T09:22:49Z</time>
      </trkpt>
      <trkpt lat="48.05361" lon="-3.18556">
        <ele>149.6</ele>
        <time>2023-04-10T09:22:50Z</time>
      </trkpt>
      <trkpt lat="48.05359" lon="-3.18554">
        <ele>149.6</ele>
        <time>2023-04-10T09:22:51Z</time>
      </trkpt>
      <trkpt lat="48.05357" lon="-3.18552">
        <ele>149.6</ele>
        <time>2023-04-10T09:22:52Z</time>
      </trkpt>
      <trkpt lat="48.05354" lon="-3.18554">
        <ele>149.6</ele>
        <time>2023-04-10T09:22:53Z</time>
      </trkpt>
      <trkpt lat="48.0535" lon="-3.18559">
        <ele>149.6</ele>
        <time>2023-04-10T09:22:55Z</time>
      </trkpt>
      <trkpt lat="48.05349" lon="-3.18567">
        <ele>149.6</ele>
        <time>2023-04-10T09:22:57Z</time>
      </trkpt>
      <trkpt lat="48.05348" lon="-3.18571">
        <ele>149.6</ele>
        <time>2023-04-10T09:22:58Z</time>
      </trkpt>
      <trkpt lat="48.05348" lon="-3.18575">
        <ele>149.6</ele>
        <time>2023-04-10T09:22:59Z</time>
      </trkpt>
      <trkpt lat="48.05347" lon="-3.18579">
        <ele>149.6</ele>
        <time>2023-04-10T09:23:00Z</time>
      </trkpt>
      <trkpt lat="48.05343" lon="-3.186">
        <ele>149.6</ele>
        <time>2023-04-10T09:23:05Z</time>
      </trkpt>
      <trkpt lat="48.05326" lon="-3.18649">
        <ele>150.4</ele>
        <time>2023-04-10T09:23:16Z</time>
      </trkpt>
      <trkpt lat="48.05324" lon="-3.18653">
        <ele>150.6</ele>
        <time>2023-04-10T09:23:17Z</time>
      </trkpt>
      <trkpt lat="48.05321" lon="-3.18661">
        <ele>150.8</ele>
        <time>2023-04-10T09:23:19Z</time>
      </trkpt>
      <trkpt lat="48.05319" lon="-3.18666">
        <ele>151</ele>
        <time>2023-04-10T09:23:20Z</time>
      </trkpt>
      <trkpt lat="48.05309" lon="-3.18692">
        <ele>151.6</ele>
        <time>2023-04-10T09:23:26Z</time>
      </trkpt>
      <trkpt lat="48.05307" lon="-3.18696">
        <ele>151.8</ele>
        <time>2023-04-10T09:23:27Z</time>
      </trkpt>
      <trkpt lat="48.05305" lon="-3.187">
        <ele>152</ele>
        <time>2023-04-10T09:23:28Z</time>
      </trkpt>
      <trkpt lat="48.05304" lon="-3.18704">
        <ele>152.2</ele>
        <time>2023-04-10T09:23:29Z</time>
      </trkpt>
      <trkpt lat="48.05297" lon="-3.1872">
        <ele>152.6</ele>
        <time>2023-04-10T09:23:33Z</time>
      </trkpt>
      <trkpt lat="48.05296" lon="-3.18724">
        <ele>152.8</ele>
        <time>2023-04-10T09:23:34Z</time>
      </trkpt>
      <trkpt lat="48.05294" lon="-3.18728">
        <ele>152.8</ele>
        <time>2023-04-10T09:23:35Z</time>
      </trkpt>
      <trkpt lat="48.05292" lon="-3.18732">
        <ele>153.2</ele>
        <time>2023-04-10T09:23:36Z</time>
      </trkpt>
      <trkpt lat="48.05291" lon="-3.18737">
        <ele>153.6</ele>
        <time>2023-04-10T09:23:37Z</time>
      </trkpt>
      <trkpt lat="48.05289" lon="-3.18742">
        <ele>153.4</ele>
        <time>2023-04-10T09:23:38Z</time>
      </trkpt>
      <trkpt lat="48.05288" lon="-3.18746">
        <ele>153.6</ele>
        <time>2023-04-10T09:23:39Z</time>
      </trkpt>
      <trkpt lat="48.05286" lon="-3.1875">
        <ele>154</ele>
        <time>2023-04-10T09:23:40Z</time>
      </trkpt>
      <trkpt lat="48.05284" lon="-3.18754">
        <ele>154</ele>
        <time>2023-04-10T09:23:41Z</time>
      </trkpt>
      <trkpt lat="48.05282" lon="-3.18758">
        <ele>154</ele>
        <time>2023-04-10T09:23:42Z</time>
      </trkpt>
      <trkpt lat="48.05281" lon="-3.18762">
        <ele>154.2</ele>
        <time>2023-04-10T09:23:43Z</time>
      </trkpt>
      <trkpt lat="48.05279" lon="-3.18767">
        <ele>154.4</ele>
        <time>2023-04-10T09:23:44Z</time>
      </trkpt>
      <trkpt lat="48.05277" lon="-3.18771">
        <ele>154.4</ele>
        <time>2023-04-10T09:23:45Z</time>
      </trkpt>
      <trkpt lat="48.05275" lon="-3.18775">
        <ele>154.6</ele>
        <time>2023-04-10T09:23:46Z</time>
      </trkpt>
      <trkpt lat="48.05273" lon="-3.1878">
        <ele>154.8</ele>
        <time>2023-04-10T09:23:47Z</time>
      </trkpt>
      <trkpt lat="48.05271" lon="-3.18784">
        <ele>155</ele>
        <time>2023-04-10T09:23:48Z</time>
      </trkpt>
      <trkpt lat="48.05269" lon="-3.18789">
        <ele>155.2</ele>
        <time>2023-04-10T09:23:49Z</time>
      </trkpt>
      <trkpt lat="48.05267" lon="-3.18793">
        <ele>155.2</ele>
        <time>2023-04-10T09:23:50Z</time>
      </trkpt>
      <trkpt lat="48.05265" lon="-3.18798">
        <ele>155.4</ele>
        <time>2023-04-10T09:23:51Z</time>
      </trkpt>
      <trkpt lat="48.05263" lon="-3.18803">
        <ele>155.6</ele>
        <time>2023-04-10T09:23:52Z</time>
      </trkpt>
      <trkpt lat="48.05262" lon="-3.18808">
        <ele>155.6</ele>
        <time>2023-04-10T09:23:53Z</time>
      </trkpt>
      <trkpt lat="48.0526" lon="-3.18813">
        <ele>155.6</ele>
        <time>2023-04-10T09:23:54Z</time>
      </trkpt>
      <trkpt lat="48.05257" lon="-3.18819">
        <ele>155.8</ele>
        <time>2023-04-10T09:23:55Z</time>
      </trkpt>
      <trkpt lat="48.05255" lon="-3.18824">
        <ele>155.8</ele>
        <time>2023-04-10T09:23:56Z</time>
      </trkpt>
      <trkpt lat="48.05253" lon="-3.18829">
        <ele>156</ele>
        <time>2023-04-10T09:23:57Z</time>
      </trkpt>
      <trkpt lat="48.05251" lon="-3.18834">
        <ele>156</ele>
        <time>2023-04-10T09:23:58Z</time>
      </trkpt>
      <trkpt lat="48.05248" lon="-3.1884">
        <ele>156.2</ele>
        <time>2023-04-10T09:23:59Z</time>
      </trkpt>
      <trkpt lat="48.05246" lon="-3.18845">
        <ele>156.2</ele>
        <time>2023-04-10T09:24:00Z</time>
      </trkpt>
      <trkpt lat="48.05243" lon="-3.18851">
        <ele>156.2</ele>
        <time>2023-04-10T09:24:01Z</time>
      </trkpt>
      <trkpt lat="48.05241" lon="-3.18856">
        <ele>156.2</ele>
        <time>2023-04-10T09:24:02Z</time>
      </trkpt>
      <trkpt lat="48.05238" lon="-3.18862">
        <ele>156.2</ele>
        <time>2023-04-10T09:24:03Z</time>
      </trkpt>
      <trkpt lat="48.05235" lon="-3.18867">
        <ele>156.2</ele>
        <time>2023-04-10T09:24:04Z</time>
      </trkpt>
      <trkpt lat="48.05233" lon="-3.18873">
        <ele>156.2</ele>
        <time>2023-04-10T09:24:05Z</time>
      </trkpt>
      <trkpt lat="48.0523" lon="-3.18878">
        <ele>156.2</ele>
        <time>2023-04-10T09:24:06Z</time>
      </trkpt>
      <trkpt lat="48.05227" lon="-3.18884">
        <ele>156.2</ele>
        <time>2023-04-10T09:24:07Z</time>
      </trkpt>
      <trkpt lat="48.05224" lon="-3.1889">
        <ele>156.2</ele>
        <time>2023-04-10T09:24:08Z</time>
      </trkpt>
      <trkpt lat="48.05221" lon="-3.18897">
        <ele>156.2</ele>
        <time>2023-04-10T09:24:09Z</time>
      </trkpt>
      <trkpt lat="48.05217" lon="-3.18903">
        <ele>156.2</ele>
        <time>2023-04-10T09:24:10Z</time>
      </trkpt>
      <trkpt lat="48.05202" lon="-3.18933">
        <ele>155.6</ele>
        <time>2023-04-10T09:24:14Z</time>
      </trkpt>
      <trkpt lat="48.05194" lon="-3.18948">
        <ele>155.2</ele>
        <time>2023-04-10T09:24:16Z</time>
      </trkpt>
      <trkpt lat="48.0519" lon="-3.18954">
        <ele>155</ele>
        <time>2023-04-10T09:24:17Z</time>
      </trkpt>
      <trkpt lat="48.05185" lon="-3.18958">
        <ele>154.6</ele>
        <time>2023-04-10T09:24:18Z</time>
      </trkpt>
      <trkpt lat="48.0518" lon="-3.1896">
        <ele>154.6</ele>
        <time>2023-04-10T09:24:19Z</time>
      </trkpt>
      <trkpt lat="48.05174" lon="-3.18958">
        <ele>154.2</ele>
        <time>2023-04-10T09:24:20Z</time>
      </trkpt>
      <trkpt lat="48.05163" lon="-3.18949">
        <ele>153.6</ele>
        <time>2023-04-10T09:24:22Z</time>
      </trkpt>
      <trkpt lat="48.05157" lon="-3.18943">
        <ele>153.4</ele>
        <time>2023-04-10T09:24:23Z</time>
      </trkpt>
      <trkpt lat="48.05152" lon="-3.18937">
        <ele>153</ele>
        <time>2023-04-10T09:24:24Z</time>
      </trkpt>
      <trkpt lat="48.05146" lon="-3.18931">
        <ele>152.4</ele>
        <time>2023-04-10T09:24:25Z</time>
      </trkpt>
      <trkpt lat="48.05134" lon="-3.18919">
        <ele>150.6</ele>
        <time>2023-04-10T09:24:27Z</time>
      </trkpt>
      <trkpt lat="48.05121" lon="-3.18906">
        <ele>150</ele>
        <time>2023-04-10T09:24:29Z</time>
      </trkpt>
      <trkpt lat="48.05115" lon="-3.18899">
        <ele>149.6</ele>
        <time>2023-04-10T09:24:30Z</time>
      </trkpt>
      <trkpt lat="48.051" lon="-3.18885">
        <ele>149.2</ele>
        <time>2023-04-10T09:24:32Z</time>
      </trkpt>
      <trkpt lat="48.05084" lon="-3.18869">
        <ele>148.6</ele>
        <time>2023-04-10T09:24:34Z</time>
      </trkpt>
      <trkpt lat="48.05076" lon="-3.18861">
        <ele>148.2</ele>
        <time>2023-04-10T09:24:35Z</time>
      </trkpt>
      <trkpt lat="48.05059" lon="-3.18846">
        <ele>147.4</ele>
        <time>2023-04-10T09:24:37Z</time>
      </trkpt>
      <trkpt lat="48.05035" lon="-3.18821">
        <ele>146</ele>
        <time>2023-04-10T09:24:40Z</time>
      </trkpt>
      <trkpt lat="48.05019" lon="-3.18804">
        <ele>144.8</ele>
        <time>2023-04-10T09:24:42Z</time>
      </trkpt>
      <trkpt lat="48.0501" lon="-3.18797">
        <ele>144.2</ele>
        <time>2023-04-10T09:24:43Z</time>
      </trkpt>
      <trkpt lat="48.05002" lon="-3.18789">
        <ele>143.6</ele>
        <time>2023-04-10T09:24:44Z</time>
      </trkpt>
      <trkpt lat="48.04994" lon="-3.18783">
        <ele>143</ele>
        <time>2023-04-10T09:24:45Z</time>
      </trkpt>
      <trkpt lat="48.04985" lon="-3.18776">
        <ele>142.2</ele>
        <time>2023-04-10T09:24:46Z</time>
      </trkpt>
      <trkpt lat="48.04978" lon="-3.1877">
        <ele>141.4</ele>
        <time>2023-04-10T09:24:47Z</time>
      </trkpt>
      <trkpt lat="48.04971" lon="-3.18764">
        <ele>141</ele>
        <time>2023-04-10T09:24:48Z</time>
      </trkpt>
      <trkpt lat="48.04964" lon="-3.18759">
        <ele>140.4</ele>
        <time>2023-04-10T09:24:49Z</time>
      </trkpt>
      <trkpt lat="48.04958" lon="-3.18754">
        <ele>139.8</ele>
        <time>2023-04-10T09:24:50Z</time>
      </trkpt>
      <trkpt lat="48.04951" lon="-3.18748">
        <ele>139.8</ele>
        <time>2023-04-10T09:24:51Z</time>
      </trkpt>
      <trkpt lat="48.04945" lon="-3.18744">
        <ele>139.2</ele>
        <time>2023-04-10T09:24:52Z</time>
      </trkpt>
      <trkpt lat="48.0494" lon="-3.18739">
        <ele>138.8</ele>
        <time>2023-04-10T09:24:53Z</time>
      </trkpt>
      <trkpt lat="48.04935" lon="-3.18735">
        <ele>138.4</ele>
        <time>2023-04-10T09:24:54Z</time>
      </trkpt>
      <trkpt lat="48.0493" lon="-3.18731">
        <ele>138.4</ele>
        <time>2023-04-10T09:24:55Z</time>
      </trkpt>
      <trkpt lat="48.04926" lon="-3.18729">
        <ele>138.2</ele>
        <time>2023-04-10T09:24:56Z</time>
      </trkpt>
      <trkpt lat="48.04921" lon="-3.18724">
        <ele>138.2</ele>
        <time>2023-04-10T09:24:57Z</time>
      </trkpt>
      <trkpt lat="48.04916" lon="-3.1872">
        <ele>138.2</ele>
        <time>2023-04-10T09:24:58Z</time>
      </trkpt>
      <trkpt lat="48.04913" lon="-3.18717">
        <ele>138.2</ele>
        <time>2023-04-10T09:24:59Z</time>
      </trkpt>
      <trkpt lat="48.04909" lon="-3.18713">
        <ele>138.2</ele>
        <time>2023-04-10T09:25:00Z</time>
      </trkpt>
      <trkpt lat="48.04905" lon="-3.18709">
        <ele>138.2</ele>
        <time>2023-04-10T09:25:01Z</time>
      </trkpt>
      <trkpt lat="48.049" lon="-3.18706">
        <ele>138.2</ele>
        <time>2023-04-10T09:25:02Z</time>
      </trkpt>
      <trkpt lat="48.04895" lon="-3.18702">
        <ele>138.2</ele>
        <time>2023-04-10T09:25:03Z</time>
      </trkpt>
      <trkpt lat="48.04891" lon="-3.18699">
        <ele>138.2</ele>
        <time>2023-04-10T09:25:04Z</time>
      </trkpt>
      <trkpt lat="48.04887" lon="-3.18696">
        <ele>138.4</ele>
        <time>2023-04-10T09:25:05Z</time>
      </trkpt>
      <trkpt lat="48.04882" lon="-3.18693">
        <ele>138.6</ele>
        <time>2023-04-10T09:25:06Z</time>
      </trkpt>
      <trkpt lat="48.04878" lon="-3.1869">
        <ele>138.8</ele>
        <time>2023-04-10T09:25:07Z</time>
      </trkpt>
      <trkpt lat="48.04874" lon="-3.18688">
        <ele>139</ele>
        <time>2023-04-10T09:25:08Z</time>
      </trkpt>
      <trkpt lat="48.04871" lon="-3.18686">
        <ele>139.2</ele>
        <time>2023-04-10T09:25:09Z</time>
      </trkpt>
      <trkpt lat="48.04868" lon="-3.18685">
        <ele>139.4</ele>
        <time>2023-04-10T09:25:10Z</time>
      </trkpt>
      <trkpt lat="48.04866" lon="-3.18684">
        <ele>139.6</ele>
        <time>2023-04-10T09:25:11Z</time>
      </trkpt>
      <trkpt lat="48.04865" lon="-3.18682">
        <ele>139.8</ele>
        <time>2023-04-10T09:25:12Z</time>
      </trkpt>
      <trkpt lat="48.04863" lon="-3.1868">
        <ele>139.8</ele>
        <time>2023-04-10T09:25:13Z</time>
      </trkpt>
      <trkpt lat="48.04861" lon="-3.18678">
        <ele>139.8</ele>
        <time>2023-04-10T09:25:14Z</time>
      </trkpt>
      <trkpt lat="48.04858" lon="-3.18675">
        <ele>139.8</ele>
        <time>2023-04-10T09:25:15Z</time>
      </trkpt>
      <trkpt lat="48.04849" lon="-3.18663">
        <ele>139.8</ele>
        <time>2023-04-10T09:25:18Z</time>
      </trkpt>
      <trkpt lat="48.04846" lon="-3.1866">
        <ele>139.8</ele>
        <time>2023-04-10T09:25:19Z</time>
      </trkpt>
      <trkpt lat="48.04842" lon="-3.18655">
        <ele>139.8</ele>
        <time>2023-04-10T09:25:20Z</time>
      </trkpt>
      <trkpt lat="48.04824" lon="-3.18636">
        <ele>139.4</ele>
        <time>2023-04-10T09:25:23Z</time>
      </trkpt>
      <trkpt lat="48.0482" lon="-3.18633">
        <ele>139</ele>
        <time>2023-04-10T09:25:24Z</time>
      </trkpt>
      <trkpt lat="48.04815" lon="-3.18629">
        <ele>138.6</ele>
        <time>2023-04-10T09:25:25Z</time>
      </trkpt>
      <trkpt lat="48.04809" lon="-3.18624">
        <ele>138.2</ele>
        <time>2023-04-10T09:25:26Z</time>
      </trkpt>
      <trkpt lat="48.04803" lon="-3.1862">
        <ele>137.6</ele>
        <time>2023-04-10T09:25:27Z</time>
      </trkpt>
      <trkpt lat="48.04798" lon="-3.18618">
        <ele>137</ele>
        <time>2023-04-10T09:25:28Z</time>
      </trkpt>
      <trkpt lat="48.04791" lon="-3.18613">
        <ele>136.6</ele>
        <time>2023-04-10T09:25:29Z</time>
      </trkpt>
      <trkpt lat="48.04787" lon="-3.18611">
        <ele>136.2</ele>
        <time>2023-04-10T09:25:30Z</time>
      </trkpt>
      <trkpt lat="48.04782" lon="-3.18608">
        <ele>135.8</ele>
        <time>2023-04-10T09:25:31Z</time>
      </trkpt>
      <trkpt lat="48.04777" lon="-3.18605">
        <ele>135.4</ele>
        <time>2023-04-10T09:25:32Z</time>
      </trkpt>
      <trkpt lat="48.04772" lon="-3.18601">
        <ele>135</ele>
        <time>2023-04-10T09:25:33Z</time>
      </trkpt>
      <trkpt lat="48.04769" lon="-3.18598">
        <ele>134.6</ele>
        <time>2023-04-10T09:25:34Z</time>
      </trkpt>
      <trkpt lat="48.04765" lon="-3.18595">
        <ele>134.6</ele>
        <time>2023-04-10T09:25:35Z</time>
      </trkpt>
      <trkpt lat="48.04751" lon="-3.18578">
        <ele>133.8</ele>
        <time>2023-04-10T09:25:38Z</time>
      </trkpt>
      <trkpt lat="48.04748" lon="-3.18573">
        <ele>133.6</ele>
        <time>2023-04-10T09:25:39Z</time>
      </trkpt>
      <trkpt lat="48.04743" lon="-3.18569">
        <ele>133.4</ele>
        <time>2023-04-10T09:25:40Z</time>
      </trkpt>
      <trkpt lat="48.04737" lon="-3.18561">
        <ele>133</ele>
        <time>2023-04-10T09:25:41Z</time>
      </trkpt>
      <trkpt lat="48.04732" lon="-3.18556">
        <ele>132.6</ele>
        <time>2023-04-10T09:25:42Z</time>
      </trkpt>
      <trkpt lat="48.04729" lon="-3.18552">
        <ele>132.2</ele>
        <time>2023-04-10T09:25:43Z</time>
      </trkpt>
      <trkpt lat="48.04722" lon="-3.18546">
        <ele>131.8</ele>
        <time>2023-04-10T09:25:44Z</time>
      </trkpt>
      <trkpt lat="48.04717" lon="-3.18541">
        <ele>131.2</ele>
        <time>2023-04-10T09:25:45Z</time>
      </trkpt>
      <trkpt lat="48.04704" lon="-3.1853">
        <ele>130</ele>
        <time>2023-04-10T09:25:47Z</time>
      </trkpt>
      <trkpt lat="48.0469" lon="-3.18521">
        <ele>129</ele>
        <time>2023-04-10T09:25:49Z</time>
      </trkpt>
      <trkpt lat="48.04669" lon="-3.18506">
        <ele>128</ele>
        <time>2023-04-10T09:25:52Z</time>
      </trkpt>
      <trkpt lat="48.04662" lon="-3.185">
        <ele>127.8</ele>
        <time>2023-04-10T09:25:53Z</time>
      </trkpt>
      <trkpt lat="48.04655" lon="-3.18494">
        <ele>127.4</ele>
        <time>2023-04-10T09:25:54Z</time>
      </trkpt>
      <trkpt lat="48.04649" lon="-3.18489">
        <ele>127.2</ele>
        <time>2023-04-10T09:25:55Z</time>
      </trkpt>
      <trkpt lat="48.04636" lon="-3.18478">
        <ele>127</ele>
        <time>2023-04-10T09:25:57Z</time>
      </trkpt>
      <trkpt lat="48.04632" lon="-3.18475">
        <ele>126.6</ele>
        <time>2023-04-10T09:25:58Z</time>
      </trkpt>
      <trkpt lat="48.04626" lon="-3.1847">
        <ele>126.4</ele>
        <time>2023-04-10T09:25:59Z</time>
      </trkpt>
      <trkpt lat="48.0462" lon="-3.18463">
        <ele>126.2</ele>
        <time>2023-04-10T09:26:00Z</time>
      </trkpt>
      <trkpt lat="48.04617" lon="-3.1846">
        <ele>126</ele>
        <time>2023-04-10T09:26:01Z</time>
      </trkpt>
      <trkpt lat="48.04613" lon="-3.18457">
        <ele>125.8</ele>
        <time>2023-04-10T09:26:02Z</time>
      </trkpt>
      <trkpt lat="48.04611" lon="-3.18454">
        <ele>125.6</ele>
        <time>2023-04-10T09:26:03Z</time>
      </trkpt>
      <trkpt lat="48.04609" lon="-3.18453">
        <ele>125.4</ele>
        <time>2023-04-10T09:26:04Z</time>
      </trkpt>
      <trkpt lat="48.04606" lon="-3.18451">
        <ele>125.6</ele>
        <time>2023-04-10T09:26:05Z</time>
      </trkpt>
      <trkpt lat="48.04604" lon="-3.18449">
        <ele>125.4</ele>
        <time>2023-04-10T09:26:06Z</time>
      </trkpt>
      <trkpt lat="48.04602" lon="-3.18448">
        <ele>125.6</ele>
        <time>2023-04-10T09:26:07Z</time>
      </trkpt>
      <trkpt lat="48.04599" lon="-3.18448">
        <ele>125.4</ele>
        <time>2023-04-10T09:26:08Z</time>
      </trkpt>
      <trkpt lat="48.04596" lon="-3.18448">
        <ele>125.4</ele>
        <time>2023-04-10T09:26:09Z</time>
      </trkpt>
      <trkpt lat="48.04594" lon="-3.18448">
        <ele>125.4</ele>
        <time>2023-04-10T09:26:10Z</time>
      </trkpt>
      <trkpt lat="48.04592" lon="-3.18448">
        <ele>125.4</ele>
        <time>2023-04-10T09:26:11Z</time>
      </trkpt>
      <trkpt lat="48.0459" lon="-3.18448">
        <ele>125.6</ele>
        <time>2023-04-10T09:26:12Z</time>
      </trkpt>
      <trkpt lat="48.04587" lon="-3.18447">
        <ele>125.8</ele>
        <time>2023-04-10T09:26:13Z</time>
      </trkpt>
      <trkpt lat="48.04585" lon="-3.18446">
        <ele>126.2</ele>
        <time>2023-04-10T09:26:14Z</time>
      </trkpt>
      <trkpt lat="48.04583" lon="-3.18446">
        <ele>126.4</ele>
        <time>2023-04-10T09:26:15Z</time>
      </trkpt>
      <trkpt lat="48.04578" lon="-3.18444">
        <ele>126.6</ele>
        <time>2023-04-10T09:26:17Z</time>
      </trkpt>
      <trkpt lat="48.04568" lon="-3.18437">
        <ele>127.2</ele>
        <time>2023-04-10T09:26:22Z</time>
      </trkpt>
      <trkpt lat="48.04566" lon="-3.18436">
        <ele>127.2</ele>
        <time>2023-04-10T09:26:23Z</time>
      </trkpt>
      <trkpt lat="48.04563" lon="-3.18435">
        <ele>127.2</ele>
        <time>2023-04-10T09:26:24Z</time>
      </trkpt>
      <trkpt lat="48.04558" lon="-3.1843">
        <ele>127.6</ele>
        <time>2023-04-10T09:26:27Z</time>
      </trkpt>
      <trkpt lat="48.04556" lon="-3.18429">
        <ele>127.8</ele>
        <time>2023-04-10T09:26:28Z</time>
      </trkpt>
      <trkpt lat="48.04553" lon="-3.18428">
        <ele>127.8</ele>
        <time>2023-04-10T09:26:29Z</time>
      </trkpt>
      <trkpt lat="48.04552" lon="-3.18427">
        <ele>128</ele>
        <time>2023-04-10T09:26:30Z</time>
      </trkpt>
      <trkpt lat="48.0455" lon="-3.18426">
        <ele>128.4</ele>
        <time>2023-04-10T09:26:31Z</time>
      </trkpt>
      <trkpt lat="48.04548" lon="-3.18424">
        <ele>128.8</ele>
        <time>2023-04-10T09:26:32Z</time>
      </trkpt>
      <trkpt lat="48.04543" lon="-3.18421">
        <ele>129</ele>
        <time>2023-04-10T09:26:34Z</time>
      </trkpt>
      <trkpt lat="48.04542" lon="-3.18419">
        <ele>129.2</ele>
        <time>2023-04-10T09:26:35Z</time>
      </trkpt>
      <trkpt lat="48.0454" lon="-3.18417">
        <ele>129.4</ele>
        <time>2023-04-10T09:26:36Z</time>
      </trkpt>
      <trkpt lat="48.04538" lon="-3.18415">
        <ele>129.6</ele>
        <time>2023-04-10T09:26:37Z</time>
      </trkpt>
      <trkpt lat="48.04537" lon="-3.18413">
        <ele>129.8</ele>
        <time>2023-04-10T09:26:38Z</time>
      </trkpt>
      <trkpt lat="48.04535" lon="-3.18411">
        <ele>130</ele>
        <time>2023-04-10T09:26:39Z</time>
      </trkpt>
      <trkpt lat="48.04535" lon="-3.18409">
        <ele>130.2</ele>
        <time>2023-04-10T09:26:40Z</time>
      </trkpt>
      <trkpt lat="48.04533" lon="-3.18408">
        <ele>130.2</ele>
        <time>2023-04-10T09:26:41Z</time>
      </trkpt>
      <trkpt lat="48.04532" lon="-3.18407">
        <ele>130.6</ele>
        <time>2023-04-10T09:26:42Z</time>
      </trkpt>
      <trkpt lat="48.04529" lon="-3.18405">
        <ele>130.8</ele>
        <time>2023-04-10T09:26:43Z</time>
      </trkpt>
      <trkpt lat="48.04526" lon="-3.18402">
        <ele>131.2</ele>
        <time>2023-04-10T09:26:44Z</time>
      </trkpt>
      <trkpt lat="48.04525" lon="-3.184">
        <ele>131.4</ele>
        <time>2023-04-10T09:26:45Z</time>
      </trkpt>
      <trkpt lat="48.04523" lon="-3.18398">
        <ele>131.6</ele>
        <time>2023-04-10T09:26:46Z</time>
      </trkpt>
      <trkpt lat="48.04522" lon="-3.18397">
        <ele>131.6</ele>
        <time>2023-04-10T09:26:47Z</time>
      </trkpt>
      <trkpt lat="48.0452" lon="-3.18395">
        <ele>132</ele>
        <time>2023-04-10T09:26:48Z</time>
      </trkpt>
      <trkpt lat="48.04518" lon="-3.18393">
        <ele>132.2</ele>
        <time>2023-04-10T09:26:49Z</time>
      </trkpt>
      <trkpt lat="48.04516" lon="-3.18391">
        <ele>132.2</ele>
        <time>2023-04-10T09:26:50Z</time>
      </trkpt>
      <trkpt lat="48.04514" lon="-3.1839">
        <ele>132.4</ele>
        <time>2023-04-10T09:26:51Z</time>
      </trkpt>
      <trkpt lat="48.04512" lon="-3.18389">
        <ele>132.8</ele>
        <time>2023-04-10T09:26:52Z</time>
      </trkpt>
      <trkpt lat="48.0451" lon="-3.18388">
        <ele>132.8</ele>
        <time>2023-04-10T09:26:53Z</time>
      </trkpt>
      <trkpt lat="48.04509" lon="-3.18387">
        <ele>133</ele>
        <time>2023-04-10T09:26:54Z</time>
      </trkpt>
      <trkpt lat="48.04508" lon="-3.18386">
        <ele>133.2</ele>
        <time>2023-04-10T09:26:55Z</time>
      </trkpt>
      <trkpt lat="48.04507" lon="-3.18385">
        <ele>133.4</ele>
        <time>2023-04-10T09:26:56Z</time>
      </trkpt>
      <trkpt lat="48.04506" lon="-3.18385">
        <ele>133.6</ele>
        <time>2023-04-10T09:26:57Z</time>
      </trkpt>
      <trkpt lat="48.04505" lon="-3.18384">
        <ele>133.8</ele>
        <time>2023-04-10T09:26:58Z</time>
      </trkpt>
      <trkpt lat="48.04504" lon="-3.18383">
        <ele>134</ele>
        <time>2023-04-10T09:26:59Z</time>
      </trkpt>
      <trkpt lat="48.04503" lon="-3.18383">
        <ele>134.2</ele>
        <time>2023-04-10T09:27:00Z</time>
      </trkpt>
      <trkpt lat="48.04501" lon="-3.18383">
        <ele>134.4</ele>
        <time>2023-04-10T09:27:01Z</time>
      </trkpt>
      <trkpt lat="48.045" lon="-3.18382">
        <ele>134.6</ele>
        <time>2023-04-10T09:27:02Z</time>
      </trkpt>
      <trkpt lat="48.04499" lon="-3.18382">
        <ele>134.6</ele>
        <time>2023-04-10T09:27:03Z</time>
      </trkpt>
      <trkpt lat="48.04498" lon="-3.18382">
        <ele>134.8</ele>
        <time>2023-04-10T09:27:04Z</time>
      </trkpt>
      <trkpt lat="48.04496" lon="-3.18381">
        <ele>134.6</ele>
        <time>2023-04-10T09:27:05Z</time>
      </trkpt>
      <trkpt lat="48.04495" lon="-3.18382">
        <ele>135</ele>
        <time>2023-04-10T09:27:06Z</time>
      </trkpt>
      <trkpt lat="48.04494" lon="-3.18382">
        <ele>135.2</ele>
        <time>2023-04-10T09:27:07Z</time>
      </trkpt>
      <trkpt lat="48.04494" lon="-3.18382">
        <ele>135.6</ele>
        <time>2023-04-10T09:27:08Z</time>
      </trkpt>
      <trkpt lat="48.04493" lon="-3.18382">
        <ele>135.8</ele>
        <time>2023-04-10T09:27:09Z</time>
      </trkpt>
      <trkpt lat="48.04492" lon="-3.18381">
        <ele>136.2</ele>
        <time>2023-04-10T09:27:10Z</time>
      </trkpt>
      <trkpt lat="48.04491" lon="-3.18379">
        <ele>136.6</ele>
        <time>2023-04-10T09:27:11Z</time>
      </trkpt>
      <trkpt lat="48.0449" lon="-3.18378">
        <ele>136.8</ele>
        <time>2023-04-10T09:27:12Z</time>
      </trkpt>
      <trkpt lat="48.04489" lon="-3.18376">
        <ele>137.2</ele>
        <time>2023-04-10T09:27:13Z</time>
      </trkpt>
      <trkpt lat="48.04489" lon="-3.18375">
        <ele>137.6</ele>
        <time>2023-04-10T09:27:14Z</time>
      </trkpt>
      <trkpt lat="48.04488" lon="-3.18373">
        <ele>138.2</ele>
        <time>2023-04-10T09:27:15Z</time>
      </trkpt>
      <trkpt lat="48.04487" lon="-3.1837">
        <ele>138.8</ele>
        <time>2023-04-10T09:27:16Z</time>
      </trkpt>
      <trkpt lat="48.04487" lon="-3.18369">
        <ele>139.4</ele>
        <time>2023-04-10T09:27:17Z</time>
      </trkpt>
      <trkpt lat="48.04486" lon="-3.18368">
        <ele>139.8</ele>
        <time>2023-04-10T09:27:18Z</time>
      </trkpt>
      <trkpt lat="48.04485" lon="-3.18367">
        <ele>140.2</ele>
        <time>2023-04-10T09:27:19Z</time>
      </trkpt>
      <trkpt lat="48.04483" lon="-3.18366">
        <ele>140.4</ele>
        <time>2023-04-10T09:27:20Z</time>
      </trkpt>
      <trkpt lat="48.04483" lon="-3.18365">
        <ele>140.6</ele>
        <time>2023-04-10T09:27:21Z</time>
      </trkpt>
      <trkpt lat="48.04482" lon="-3.18364">
        <ele>140.8</ele>
        <time>2023-04-10T09:27:22Z</time>
      </trkpt>
      <trkpt lat="48.04481" lon="-3.18362">
        <ele>140.8</ele>
        <time>2023-04-10T09:27:23Z</time>
      </trkpt>
      <trkpt lat="48.0448" lon="-3.18361">
        <ele>141</ele>
        <time>2023-04-10T09:27:24Z</time>
      </trkpt>
      <trkpt lat="48.04479" lon="-3.18359">
        <ele>141</ele>
        <time>2023-04-10T09:27:25Z</time>
      </trkpt>
      <trkpt lat="48.04477" lon="-3.18357">
        <ele>141</ele>
        <time>2023-04-10T09:27:26Z</time>
      </trkpt>
      <trkpt lat="48.04476" lon="-3.18355">
        <ele>141.2</ele>
        <time>2023-04-10T09:27:27Z</time>
      </trkpt>
      <trkpt lat="48.04474" lon="-3.18354">
        <ele>141.2</ele>
        <time>2023-04-10T09:27:28Z</time>
      </trkpt>
      <trkpt lat="48.04472" lon="-3.18352">
        <ele>141.4</ele>
        <time>2023-04-10T09:27:29Z</time>
      </trkpt>
      <trkpt lat="48.0447" lon="-3.18351">
        <ele>141.6</ele>
        <time>2023-04-10T09:27:30Z</time>
      </trkpt>
      <trkpt lat="48.04469" lon="-3.1835">
        <ele>141.8</ele>
        <time>2023-04-10T09:27:31Z</time>
      </trkpt>
      <trkpt lat="48.04469" lon="-3.18349">
        <ele>141.8</ele>
        <time>2023-04-10T09:27:32Z</time>
      </trkpt>
      <trkpt lat="48.04468" lon="-3.18347">
        <ele>142</ele>
        <time>2023-04-10T09:27:33Z</time>
      </trkpt>
      <trkpt lat="48.04467" lon="-3.18347">
        <ele>142.2</ele>
        <time>2023-04-10T09:27:34Z</time>
      </trkpt>
      <trkpt lat="48.04467" lon="-3.18346">
        <ele>142.2</ele>
        <time>2023-04-10T09:27:35Z</time>
      </trkpt>
      <trkpt lat="48.04465" lon="-3.18345">
        <ele>142.4</ele>
        <time>2023-04-10T09:27:36Z</time>
      </trkpt>
      <trkpt lat="48.04464" lon="-3.18344">
        <ele>142.6</ele>
        <time>2023-04-10T09:27:37Z</time>
      </trkpt>
      <trkpt lat="48.04463" lon="-3.18344">
        <ele>142.6</ele>
        <time>2023-04-10T09:27:38Z</time>
      </trkpt>
      <trkpt lat="48.04462" lon="-3.18344">
        <ele>142.8</ele>
        <time>2023-04-10T09:27:39Z</time>
      </trkpt>
      <trkpt lat="48.04462" lon="-3.18344">
        <ele>143</ele>
        <time>2023-04-10T09:27:40Z</time>
      </trkpt>
      <trkpt lat="48.04462" lon="-3.18344">
        <ele>143.2</ele>
        <time>2023-04-10T09:27:41Z</time>
      </trkpt>
      <trkpt lat="48.04462" lon="-3.18344">
        <ele>143.4</ele>
        <time>2023-04-10T09:27:42Z</time>
      </trkpt>
      <trkpt lat="48.04462" lon="-3.18343">
        <ele>143.6</ele>
        <time>2023-04-10T09:27:43Z</time>
      </trkpt>
      <trkpt lat="48.04461" lon="-3.18342">
        <ele>143.8</ele>
        <time>2023-04-10T09:27:44Z</time>
      </trkpt>
      <trkpt lat="48.0446" lon="-3.18341">
        <ele>144</ele>
        <time>2023-04-10T09:27:45Z</time>
      </trkpt>
      <trkpt lat="48.0446" lon="-3.18341">
        <ele>144</ele>
        <time>2023-04-10T09:27:46Z</time>
      </trkpt>
      <trkpt lat="48.0446" lon="-3.18341">
        <ele>144</ele>
        <time>2023-04-10T09:27:47Z</time>
      </trkpt>
      <trkpt lat="48.0446" lon="-3.18341">
        <ele>144.2</ele>
        <time>2023-04-10T09:27:48Z</time>
      </trkpt>
      <trkpt lat="48.0446" lon="-3.1834">
        <ele>144.4</ele>
        <time>2023-04-10T09:27:49Z</time>
      </trkpt>
      <trkpt lat="48.04459" lon="-3.18339">
        <ele>144.4</ele>
        <time>2023-04-10T09:27:50Z</time>
      </trkpt>
      <trkpt lat="48.04459" lon="-3.18339">
        <ele>144.6</ele>
        <time>2023-04-10T09:27:51Z</time>
      </trkpt>
      <trkpt lat="48.04459" lon="-3.18339">
        <ele>144.8</ele>
        <time>2023-04-10T09:27:52Z</time>
      </trkpt>
      <trkpt lat="48.04459" lon="-3.18339">
        <ele>145</ele>
        <time>2023-04-10T09:27:53Z</time>
      </trkpt>
      <trkpt lat="48.04459" lon="-3.18339">
        <ele>145.4</ele>
        <time>2023-04-10T09:27:54Z</time>
      </trkpt>
      <trkpt lat="48.04458" lon="-3.18339">
        <ele>145.6</ele>
        <time>2023-04-10T09:27:55Z</time>
      </trkpt>
      <trkpt lat="48.04457" lon="-3.18338">
        <ele>145.8</ele>
        <time>2023-04-10T09:27:56Z</time>
      </trkpt>
      <trkpt lat="48.04456" lon="-3.18336">
        <ele>146</ele>
        <time>2023-04-10T09:27:57Z</time>
      </trkpt>
      <trkpt lat="48.04455" lon="-3.18335">
        <ele>146.2</ele>
        <time>2023-04-10T09:27:58Z</time>
      </trkpt>
      <trkpt lat="48.04453" lon="-3.18334">
        <ele>146.6</ele>
        <time>2023-04-10T09:27:59Z</time>
      </trkpt>
      <trkpt lat="48.04452" lon="-3.18333">
        <ele>146.8</ele>
        <time>2023-04-10T09:28:00Z</time>
      </trkpt>
      <trkpt lat="48.04451" lon="-3.18331">
        <ele>147</ele>
        <time>2023-04-10T09:28:01Z</time>
      </trkpt>
      <trkpt lat="48.0445" lon="-3.18331">
        <ele>147.2</ele>
        <time>2023-04-10T09:28:02Z</time>
      </trkpt>
      <trkpt lat="48.0445" lon="-3.18331">
        <ele>147.4</ele>
        <time>2023-04-10T09:28:03Z</time>
      </trkpt>
      <trkpt lat="48.04449" lon="-3.1833">
        <ele>147.8</ele>
        <time>2023-04-10T09:28:04Z</time>
      </trkpt>
      <trkpt lat="48.04448" lon="-3.18329">
        <ele>148</ele>
        <time>2023-04-10T09:28:05Z</time>
      </trkpt>
      <trkpt lat="48.04447" lon="-3.18328">
        <ele>148.4</ele>
        <time>2023-04-10T09:28:06Z</time>
      </trkpt>
      <trkpt lat="48.04446" lon="-3.18327">
        <ele>148.6</ele>
        <time>2023-04-10T09:28:07Z</time>
      </trkpt>
      <trkpt lat="48.04444" lon="-3.18325">
        <ele>149</ele>
        <time>2023-04-10T09:28:08Z</time>
      </trkpt>
      <trkpt lat="48.04443" lon="-3.18325">
        <ele>149</ele>
        <time>2023-04-10T09:28:09Z</time>
      </trkpt>
      <trkpt lat="48.04442" lon="-3.18325">
        <ele>149.2</ele>
        <time>2023-04-10T09:28:10Z</time>
      </trkpt>
      <trkpt lat="48.04441" lon="-3.18324">
        <ele>149.4</ele>
        <time>2023-04-10T09:28:11Z</time>
      </trkpt>
      <trkpt lat="48.04436" lon="-3.18322">
        <ele>149.8</ele>
        <time>2023-04-10T09:28:12Z</time>
      </trkpt>
      <trkpt lat="48.04434" lon="-3.1832">
        <ele>150.2</ele>
        <time>2023-04-10T09:28:13Z</time>
      </trkpt>
      <trkpt lat="48.04432" lon="-3.18319">
        <ele>150.4</ele>
        <time>2023-04-10T09:28:14Z</time>
      </trkpt>
      <trkpt lat="48.04431" lon="-3.18318">
        <ele>150.8</ele>
        <time>2023-04-10T09:28:15Z</time>
      </trkpt>
      <trkpt lat="48.0443" lon="-3.18317">
        <ele>151.2</ele>
        <time>2023-04-10T09:28:16Z</time>
      </trkpt>
      <trkpt lat="48.04427" lon="-3.18315">
        <ele>151.4</ele>
        <time>2023-04-10T09:28:17Z</time>
      </trkpt>
      <trkpt lat="48.04425" lon="-3.18313">
        <ele>151.8</ele>
        <time>2023-04-10T09:28:18Z</time>
      </trkpt>
      <trkpt lat="48.04424" lon="-3.18311">
        <ele>152</ele>
        <time>2023-04-10T09:28:19Z</time>
      </trkpt>
      <trkpt lat="48.04421" lon="-3.18308">
        <ele>152</ele>
        <time>2023-04-10T09:28:20Z</time>
      </trkpt>
      <trkpt lat="48.04418" lon="-3.18306">
        <ele>152.4</ele>
        <time>2023-04-10T09:28:21Z</time>
      </trkpt>
      <trkpt lat="48.04416" lon="-3.18305">
        <ele>152.6</ele>
        <time>2023-04-10T09:28:22Z</time>
      </trkpt>
      <trkpt lat="48.04414" lon="-3.18303">
        <ele>153</ele>
        <time>2023-04-10T09:28:23Z</time>
      </trkpt>
      <trkpt lat="48.04411" lon="-3.18301">
        <ele>153</ele>
        <time>2023-04-10T09:28:24Z</time>
      </trkpt>
      <trkpt lat="48.04409" lon="-3.18299">
        <ele>153.4</ele>
        <time>2023-04-10T09:28:25Z</time>
      </trkpt>
      <trkpt lat="48.04408" lon="-3.18299">
        <ele>153.6</ele>
        <time>2023-04-10T09:28:26Z</time>
      </trkpt>
      <trkpt lat="48.04406" lon="-3.18299">
        <ele>153.8</ele>
        <time>2023-04-10T09:28:27Z</time>
      </trkpt>
      <trkpt lat="48.04404" lon="-3.18297">
        <ele>154</ele>
        <time>2023-04-10T09:28:28Z</time>
      </trkpt>
      <trkpt lat="48.04402" lon="-3.18295">
        <ele>154.2</ele>
        <time>2023-04-10T09:28:29Z</time>
      </trkpt>
      <trkpt lat="48.04399" lon="-3.18292">
        <ele>154.4</ele>
        <time>2023-04-10T09:28:30Z</time>
      </trkpt>
      <trkpt lat="48.04398" lon="-3.1829">
        <ele>154.4</ele>
        <time>2023-04-10T09:28:31Z</time>
      </trkpt>
      <trkpt lat="48.04397" lon="-3.18289">
        <ele>154.6</ele>
        <time>2023-04-10T09:28:32Z</time>
      </trkpt>
      <trkpt lat="48.04395" lon="-3.18287">
        <ele>154.8</ele>
        <time>2023-04-10T09:28:33Z</time>
      </trkpt>
      <trkpt lat="48.04395" lon="-3.18285">
        <ele>155.2</ele>
        <time>2023-04-10T09:28:34Z</time>
      </trkpt>
      <trkpt lat="48.04394" lon="-3.18282">
        <ele>155.2</ele>
        <time>2023-04-10T09:28:35Z</time>
      </trkpt>
      <trkpt lat="48.0439" lon="-3.1828">
        <ele>155.4</ele>
        <time>2023-04-10T09:28:36Z</time>
      </trkpt>
      <trkpt lat="48.04387" lon="-3.18277">
        <ele>155.8</ele>
        <time>2023-04-10T09:28:37Z</time>
      </trkpt>
      <trkpt lat="48.04384" lon="-3.18275">
        <ele>156</ele>
        <time>2023-04-10T09:28:38Z</time>
      </trkpt>
      <trkpt lat="48.0438" lon="-3.18272">
        <ele>156</ele>
        <time>2023-04-10T09:28:39Z</time>
      </trkpt>
      <trkpt lat="48.04378" lon="-3.18271">
        <ele>156.2</ele>
        <time>2023-04-10T09:28:40Z</time>
      </trkpt>
      <trkpt lat="48.04377" lon="-3.18269">
        <ele>156.4</ele>
        <time>2023-04-10T09:28:41Z</time>
      </trkpt>
      <trkpt lat="48.04376" lon="-3.18268">
        <ele>156.6</ele>
        <time>2023-04-10T09:28:42Z</time>
      </trkpt>
      <trkpt lat="48.04376" lon="-3.18268">
        <ele>156.8</ele>
        <time>2023-04-10T09:28:43Z</time>
      </trkpt>
      <trkpt lat="48.04375" lon="-3.18267">
        <ele>157.2</ele>
        <time>2023-04-10T09:28:44Z</time>
      </trkpt>
      <trkpt lat="48.04373" lon="-3.18266">
        <ele>157.4</ele>
        <time>2023-04-10T09:28:45Z</time>
      </trkpt>
      <trkpt lat="48.04372" lon="-3.18265">
        <ele>157.4</ele>
        <time>2023-04-10T09:28:46Z</time>
      </trkpt>
      <trkpt lat="48.0437" lon="-3.18263">
        <ele>157.6</ele>
        <time>2023-04-10T09:28:47Z</time>
      </trkpt>
      <trkpt lat="48.04367" lon="-3.18262">
        <ele>157.6</ele>
        <time>2023-04-10T09:28:48Z</time>
      </trkpt>
      <trkpt lat="48.04366" lon="-3.18261">
        <ele>157.8</ele>
        <time>2023-04-10T09:28:49Z</time>
      </trkpt>
      <trkpt lat="48.04364" lon="-3.18259">
        <ele>157.8</ele>
        <time>2023-04-10T09:28:50Z</time>
      </trkpt>
      <trkpt lat="48.04362" lon="-3.18258">
        <ele>157.8</ele>
        <time>2023-04-10T09:28:51Z</time>
      </trkpt>
      <trkpt lat="48.04361" lon="-3.18256">
        <ele>157.8</ele>
        <time>2023-04-10T09:28:52Z</time>
      </trkpt>
      <trkpt lat="48.04359" lon="-3.18254">
        <ele>157.8</ele>
        <time>2023-04-10T09:28:53Z</time>
      </trkpt>
      <trkpt lat="48.04356" lon="-3.18252">
        <ele>157.8</ele>
        <time>2023-04-10T09:28:54Z</time>
      </trkpt>
      <trkpt lat="48.04354" lon="-3.1825">
        <ele>157.8</ele>
        <time>2023-04-10T09:28:55Z</time>
      </trkpt>
      <trkpt lat="48.04353" lon="-3.18249">
        <ele>157.8</ele>
        <time>2023-04-10T09:28:56Z</time>
      </trkpt>
      <trkpt lat="48.04352" lon="-3.18248">
        <ele>157.8</ele>
        <time>2023-04-10T09:28:57Z</time>
      </trkpt>
      <trkpt lat="48.0435" lon="-3.18246">
        <ele>157.8</ele>
        <time>2023-04-10T09:28:58Z</time>
      </trkpt>
      <trkpt lat="48.04348" lon="-3.18244">
        <ele>157.8</ele>
        <time>2023-04-10T09:28:59Z</time>
      </trkpt>
      <trkpt lat="48.04347" lon="-3.18243">
        <ele>158</ele>
        <time>2023-04-10T09:29:00Z</time>
      </trkpt>
      <trkpt lat="48.04346" lon="-3.18241">
        <ele>158</ele>
        <time>2023-04-10T09:29:01Z</time>
      </trkpt>
      <trkpt lat="48.04344" lon="-3.18239">
        <ele>158</ele>
        <time>2023-04-10T09:29:02Z</time>
      </trkpt>
      <trkpt lat="48.04342" lon="-3.18237">
        <ele>158</ele>
        <time>2023-04-10T09:29:03Z</time>
      </trkpt>
      <trkpt lat="48.0434" lon="-3.18235">
        <ele>158</ele>
        <time>2023-04-10T09:29:04Z</time>
      </trkpt>
      <trkpt lat="48.04338" lon="-3.18234">
        <ele>158.2</ele>
        <time>2023-04-10T09:29:05Z</time>
      </trkpt>
      <trkpt lat="48.04337" lon="-3.18232">
        <ele>158.2</ele>
        <time>2023-04-10T09:29:06Z</time>
      </trkpt>
      <trkpt lat="48.04335" lon="-3.1823">
        <ele>158.2</ele>
        <time>2023-04-10T09:29:07Z</time>
      </trkpt>
      <trkpt lat="48.04333" lon="-3.18227">
        <ele>158.4</ele>
        <time>2023-04-10T09:29:08Z</time>
      </trkpt>
      <trkpt lat="48.04332" lon="-3.18224">
        <ele>158.4</ele>
        <time>2023-04-10T09:29:09Z</time>
      </trkpt>
      <trkpt lat="48.0433" lon="-3.18222">
        <ele>158.6</ele>
        <time>2023-04-10T09:29:10Z</time>
      </trkpt>
      <trkpt lat="48.04328" lon="-3.18221">
        <ele>158.8</ele>
        <time>2023-04-10T09:29:11Z</time>
      </trkpt>
      <trkpt lat="48.04326" lon="-3.1822">
        <ele>159</ele>
        <time>2023-04-10T09:29:12Z</time>
      </trkpt>
      <trkpt lat="48.04325" lon="-3.18219">
        <ele>159.4</ele>
        <time>2023-04-10T09:29:13Z</time>
      </trkpt>
      <trkpt lat="48.04322" lon="-3.18217">
        <ele>159.6</ele>
        <time>2023-04-10T09:29:14Z</time>
      </trkpt>
      <trkpt lat="48.04318" lon="-3.18218">
        <ele>159.6</ele>
        <time>2023-04-10T09:29:16Z</time>
      </trkpt>
      <trkpt lat="48.04315" lon="-3.18219">
        <ele>160</ele>
        <time>2023-04-10T09:29:17Z</time>
      </trkpt>
      <trkpt lat="48.04308" lon="-3.18219">
        <ele>160.6</ele>
        <time>2023-04-10T09:29:20Z</time>
      </trkpt>
      <trkpt lat="48.04306" lon="-3.18218">
        <ele>160.8</ele>
        <time>2023-04-10T09:29:21Z</time>
      </trkpt>
      <trkpt lat="48.04304" lon="-3.18218">
        <ele>161.2</ele>
        <time>2023-04-10T09:29:22Z</time>
      </trkpt>
      <trkpt lat="48.04302" lon="-3.18218">
        <ele>161.2</ele>
        <time>2023-04-10T09:29:23Z</time>
      </trkpt>
      <trkpt lat="48.043" lon="-3.18219">
        <ele>161.2</ele>
        <time>2023-04-10T09:29:24Z</time>
      </trkpt>
      <trkpt lat="48.04298" lon="-3.1822">
        <ele>161.2</ele>
        <time>2023-04-10T09:29:25Z</time>
      </trkpt>
      <trkpt lat="48.04296" lon="-3.1822">
        <ele>161.2</ele>
        <time>2023-04-10T09:29:26Z</time>
      </trkpt>
      <trkpt lat="48.04294" lon="-3.18221">
        <ele>161.2</ele>
        <time>2023-04-10T09:29:27Z</time>
      </trkpt>
      <trkpt lat="48.04291" lon="-3.18223">
        <ele>161.2</ele>
        <time>2023-04-10T09:29:28Z</time>
      </trkpt>
      <trkpt lat="48.04289" lon="-3.18223">
        <ele>161.4</ele>
        <time>2023-04-10T09:29:29Z</time>
      </trkpt>
      <trkpt lat="48.04286" lon="-3.18222">
        <ele>161.4</ele>
        <time>2023-04-10T09:29:30Z</time>
      </trkpt>
      <trkpt lat="48.04284" lon="-3.18223">
        <ele>161.4</ele>
        <time>2023-04-10T09:29:31Z</time>
      </trkpt>
      <trkpt lat="48.04282" lon="-3.18223">
        <ele>161.4</ele>
        <time>2023-04-10T09:29:32Z</time>
      </trkpt>
      <trkpt lat="48.04279" lon="-3.18224">
        <ele>161.4</ele>
        <time>2023-04-10T09:29:33Z</time>
      </trkpt>
      <trkpt lat="48.04277" lon="-3.18224">
        <ele>161.4</ele>
        <time>2023-04-10T09:29:34Z</time>
      </trkpt>
      <trkpt lat="48.04274" lon="-3.18225">
        <ele>161.4</ele>
        <time>2023-04-10T09:29:35Z</time>
      </trkpt>
      <trkpt lat="48.04272" lon="-3.18225">
        <ele>161.4</ele>
        <time>2023-04-10T09:29:36Z</time>
      </trkpt>
      <trkpt lat="48.0427" lon="-3.18227">
        <ele>161.4</ele>
        <time>2023-04-10T09:29:37Z</time>
      </trkpt>
      <trkpt lat="48.04257" lon="-3.1823">
        <ele>161.4</ele>
        <time>2023-04-10T09:29:41Z</time>
      </trkpt>
      <trkpt lat="48.04253" lon="-3.1823">
        <ele>161.4</ele>
        <time>2023-04-10T09:29:42Z</time>
      </trkpt>
      <trkpt lat="48.0425" lon="-3.1823">
        <ele>161.4</ele>
        <time>2023-04-10T09:29:43Z</time>
      </trkpt>
      <trkpt lat="48.04241" lon="-3.18231">
        <ele>161.8</ele>
        <time>2023-04-10T09:29:46Z</time>
      </trkpt>
      <trkpt lat="48.04238" lon="-3.18232">
        <ele>162</ele>
        <time>2023-04-10T09:29:47Z</time>
      </trkpt>
      <trkpt lat="48.04235" lon="-3.18233">
        <ele>162</ele>
        <time>2023-04-10T09:29:48Z</time>
      </trkpt>
      <trkpt lat="48.04227" lon="-3.18234">
        <ele>162.2</ele>
        <time>2023-04-10T09:29:50Z</time>
      </trkpt>
      <trkpt lat="48.04223" lon="-3.18235">
        <ele>162.2</ele>
        <time>2023-04-10T09:29:51Z</time>
      </trkpt>
      <trkpt lat="48.04219" lon="-3.18237">
        <ele>162.4</ele>
        <time>2023-04-10T09:29:52Z</time>
      </trkpt>
      <trkpt lat="48.04211" lon="-3.18241">
        <ele>162.4</ele>
        <time>2023-04-10T09:29:54Z</time>
      </trkpt>
      <trkpt lat="48.04197" lon="-3.18243">
        <ele>162.6</ele>
        <time>2023-04-10T09:29:57Z</time>
      </trkpt>
      <trkpt lat="48.04193" lon="-3.18244">
        <ele>162.6</ele>
        <time>2023-04-10T09:29:58Z</time>
      </trkpt>
      <trkpt lat="48.04176" lon="-3.18247">
        <ele>162.6</ele>
        <time>2023-04-10T09:30:02Z</time>
      </trkpt>
      <trkpt lat="48.04168" lon="-3.18248">
        <ele>162.6</ele>
        <time>2023-04-10T09:30:04Z</time>
      </trkpt>
      <trkpt lat="48.04164" lon="-3.18248">
        <ele>162.6</ele>
        <time>2023-04-10T09:30:05Z</time>
      </trkpt>
      <trkpt lat="48.0416" lon="-3.18247">
        <ele>162.6</ele>
        <time>2023-04-10T09:30:06Z</time>
      </trkpt>
      <trkpt lat="48.04156" lon="-3.18246">
        <ele>162.6</ele>
        <time>2023-04-10T09:30:07Z</time>
      </trkpt>
      <trkpt lat="48.04152" lon="-3.18245">
        <ele>162.6</ele>
        <time>2023-04-10T09:30:08Z</time>
      </trkpt>
      <trkpt lat="48.04148" lon="-3.18244">
        <ele>162.4</ele>
        <time>2023-04-10T09:30:09Z</time>
      </trkpt>
      <trkpt lat="48.04137" lon="-3.18239">
        <ele>162.4</ele>
        <time>2023-04-10T09:30:12Z</time>
      </trkpt>
      <trkpt lat="48.04126" lon="-3.18231">
        <ele>162.2</ele>
        <time>2023-04-10T09:30:15Z</time>
      </trkpt>
      <trkpt lat="48.04122" lon="-3.18229">
        <ele>162.2</ele>
        <time>2023-04-10T09:30:16Z</time>
      </trkpt>
      <trkpt lat="48.04119" lon="-3.18226">
        <ele>162.2</ele>
        <time>2023-04-10T09:30:17Z</time>
      </trkpt>
      <trkpt lat="48.04115" lon="-3.18224">
        <ele>162.2</ele>
        <time>2023-04-10T09:30:18Z</time>
      </trkpt>
      <trkpt lat="48.04112" lon="-3.18221">
        <ele>162.2</ele>
        <time>2023-04-10T09:30:19Z</time>
      </trkpt>
      <trkpt lat="48.04109" lon="-3.1822">
        <ele>162.2</ele>
        <time>2023-04-10T09:30:20Z</time>
      </trkpt>
      <trkpt lat="48.04106" lon="-3.18218">
        <ele>162.2</ele>
        <time>2023-04-10T09:30:21Z</time>
      </trkpt>
      <trkpt lat="48.04103" lon="-3.18216">
        <ele>162.2</ele>
        <time>2023-04-10T09:30:22Z</time>
      </trkpt>
      <trkpt lat="48.04101" lon="-3.18214">
        <ele>162.2</ele>
        <time>2023-04-10T09:30:23Z</time>
      </trkpt>
      <trkpt lat="48.041" lon="-3.18213">
        <ele>162.2</ele>
        <time>2023-04-10T09:30:24Z</time>
      </trkpt>
      <trkpt lat="48.04098" lon="-3.18212">
        <ele>162.2</ele>
        <time>2023-04-10T09:30:25Z</time>
      </trkpt>
      <trkpt lat="48.04097" lon="-3.18212">
        <ele>162.2</ele>
        <time>2023-04-10T09:30:26Z</time>
      </trkpt>
      <trkpt lat="48.04095" lon="-3.18212">
        <ele>162</ele>
        <time>2023-04-10T09:30:27Z</time>
      </trkpt>
      <trkpt lat="48.04093" lon="-3.18211">
        <ele>162</ele>
        <time>2023-04-10T09:30:28Z</time>
      </trkpt>
      <trkpt lat="48.0409" lon="-3.18205">
        <ele>162</ele>
        <time>2023-04-10T09:30:30Z</time>
      </trkpt>
      <trkpt lat="48.04091" lon="-3.18201">
        <ele>161.8</ele>
        <time>2023-04-10T09:30:31Z</time>
      </trkpt>
      <trkpt lat="48.04091" lon="-3.18197">
        <ele>162</ele>
        <time>2023-04-10T09:30:32Z</time>
      </trkpt>
      <trkpt lat="48.04092" lon="-3.18193">
        <ele>162</ele>
        <time>2023-04-10T09:30:33Z</time>
      </trkpt>
      <trkpt lat="48.04093" lon="-3.1819">
        <ele>162</ele>
        <time>2023-04-10T09:30:34Z</time>
      </trkpt>
      <trkpt lat="48.04093" lon="-3.18186">
        <ele>161.8</ele>
        <time>2023-04-10T09:30:35Z</time>
      </trkpt>
      <trkpt lat="48.04094" lon="-3.18183">
        <ele>161.8</ele>
        <time>2023-04-10T09:30:36Z</time>
      </trkpt>
      <trkpt lat="48.04095" lon="-3.18179">
        <ele>161.8</ele>
        <time>2023-04-10T09:30:37Z</time>
      </trkpt>
      <trkpt lat="48.04096" lon="-3.18175">
        <ele>161.8</ele>
        <time>2023-04-10T09:30:38Z</time>
      </trkpt>
      <trkpt lat="48.04096" lon="-3.18171">
        <ele>161.8</ele>
        <time>2023-04-10T09:30:39Z</time>
      </trkpt>
      <trkpt lat="48.04101" lon="-3.18146">
        <ele>163</ele>
        <time>2023-04-10T09:30:45Z</time>
      </trkpt>
      <trkpt lat="48.04103" lon="-3.18129">
        <ele>164</ele>
        <time>2023-04-10T09:30:49Z</time>
      </trkpt>
      <trkpt lat="48.04103" lon="-3.18125">
        <ele>164.2</ele>
        <time>2023-04-10T09:30:50Z</time>
      </trkpt>
      <trkpt lat="48.04104" lon="-3.1812">
        <ele>164.4</ele>
        <time>2023-04-10T09:30:51Z</time>
      </trkpt>
      <trkpt lat="48.04104" lon="-3.18104">
        <ele>165</ele>
        <time>2023-04-10T09:30:54Z</time>
      </trkpt>
      <trkpt lat="48.04105" lon="-3.18099">
        <ele>165.4</ele>
        <time>2023-04-10T09:30:55Z</time>
      </trkpt>
      <trkpt lat="48.04105" lon="-3.18093">
        <ele>165.6</ele>
        <time>2023-04-10T09:30:56Z</time>
      </trkpt>
      <trkpt lat="48.04105" lon="-3.18087">
        <ele>165.6</ele>
        <time>2023-04-10T09:30:57Z</time>
      </trkpt>
      <trkpt lat="48.04105" lon="-3.18081">
        <ele>165.8</ele>
        <time>2023-04-10T09:30:58Z</time>
      </trkpt>
      <trkpt lat="48.04106" lon="-3.18074">
        <ele>166</ele>
        <time>2023-04-10T09:30:59Z</time>
      </trkpt>
      <trkpt lat="48.04106" lon="-3.18068">
        <ele>166</ele>
        <time>2023-04-10T09:31:00Z</time>
      </trkpt>
      <trkpt lat="48.04106" lon="-3.18062">
        <ele>166</ele>
        <time>2023-04-10T09:31:01Z</time>
      </trkpt>
      <trkpt lat="48.04106" lon="-3.18056">
        <ele>166.2</ele>
        <time>2023-04-10T09:31:02Z</time>
      </trkpt>
      <trkpt lat="48.04106" lon="-3.18049">
        <ele>166.2</ele>
        <time>2023-04-10T09:31:03Z</time>
      </trkpt>
      <trkpt lat="48.04106" lon="-3.18042">
        <ele>166.2</ele>
        <time>2023-04-10T09:31:04Z</time>
      </trkpt>
      <trkpt lat="48.04107" lon="-3.18035">
        <ele>166.2</ele>
        <time>2023-04-10T09:31:05Z</time>
      </trkpt>
      <trkpt lat="48.04108" lon="-3.18028">
        <ele>166.2</ele>
        <time>2023-04-10T09:31:06Z</time>
      </trkpt>
      <trkpt lat="48.04108" lon="-3.1802">
        <ele>166.2</ele>
        <time>2023-04-10T09:31:07Z</time>
      </trkpt>
      <trkpt lat="48.04109" lon="-3.18012">
        <ele>166.2</ele>
        <time>2023-04-10T09:31:08Z</time>
      </trkpt>
      <trkpt lat="48.0411" lon="-3.18004">
        <ele>166.2</ele>
        <time>2023-04-10T09:31:09Z</time>
      </trkpt>
      <trkpt lat="48.04111" lon="-3.17995">
        <ele>166.2</ele>
        <time>2023-04-10T09:31:10Z</time>
      </trkpt>
      <trkpt lat="48.04113" lon="-3.17986">
        <ele>166</ele>
        <time>2023-04-10T09:31:11Z</time>
      </trkpt>
      <trkpt lat="48.04114" lon="-3.17978">
        <ele>166</ele>
        <time>2023-04-10T09:31:12Z</time>
      </trkpt>
      <trkpt lat="48.04116" lon="-3.17969">
        <ele>165.8</ele>
        <time>2023-04-10T09:31:13Z</time>
      </trkpt>
      <trkpt lat="48.04117" lon="-3.17961">
        <ele>165.8</ele>
        <time>2023-04-10T09:31:14Z</time>
      </trkpt>
      <trkpt lat="48.04118" lon="-3.17953">
        <ele>165.8</ele>
        <time>2023-04-10T09:31:15Z</time>
      </trkpt>
      <trkpt lat="48.04119" lon="-3.17945">
        <ele>165.6</ele>
        <time>2023-04-10T09:31:16Z</time>
      </trkpt>
      <trkpt lat="48.0412" lon="-3.17938">
        <ele>165.2</ele>
        <time>2023-04-10T09:31:17Z</time>
      </trkpt>
      <trkpt lat="48.0412" lon="-3.17931">
        <ele>165.2</ele>
        <time>2023-04-10T09:31:18Z</time>
      </trkpt>
      <trkpt lat="48.0412" lon="-3.17923">
        <ele>165</ele>
        <time>2023-04-10T09:31:19Z</time>
      </trkpt>
      <trkpt lat="48.04119" lon="-3.17916">
        <ele>165</ele>
        <time>2023-04-10T09:31:20Z</time>
      </trkpt>
      <trkpt lat="48.04118" lon="-3.17909">
        <ele>165</ele>
        <time>2023-04-10T09:31:21Z</time>
      </trkpt>
      <trkpt lat="48.04117" lon="-3.17902">
        <ele>165</ele>
        <time>2023-04-10T09:31:22Z</time>
      </trkpt>
      <trkpt lat="48.04108" lon="-3.17867">
        <ele>165</ele>
        <time>2023-04-10T09:31:27Z</time>
      </trkpt>
      <trkpt lat="48.04106" lon="-3.17861">
        <ele>165</ele>
        <time>2023-04-10T09:31:28Z</time>
      </trkpt>
      <trkpt lat="48.04105" lon="-3.17855">
        <ele>165.2</ele>
        <time>2023-04-10T09:31:29Z</time>
      </trkpt>
      <trkpt lat="48.04104" lon="-3.17849">
        <ele>165.2</ele>
        <time>2023-04-10T09:31:30Z</time>
      </trkpt>
      <trkpt lat="48.04102" lon="-3.17843">
        <ele>165.4</ele>
        <time>2023-04-10T09:31:31Z</time>
      </trkpt>
      <trkpt lat="48.04101" lon="-3.17838">
        <ele>165.4</ele>
        <time>2023-04-10T09:31:32Z</time>
      </trkpt>
      <trkpt lat="48.04101" lon="-3.17833">
        <ele>165.6</ele>
        <time>2023-04-10T09:31:33Z</time>
      </trkpt>
      <trkpt lat="48.04099" lon="-3.17827">
        <ele>165.6</ele>
        <time>2023-04-10T09:31:34Z</time>
      </trkpt>
      <trkpt lat="48.04097" lon="-3.17822">
        <ele>165.8</ele>
        <time>2023-04-10T09:31:35Z</time>
      </trkpt>
      <trkpt lat="48.04095" lon="-3.17817">
        <ele>165.8</ele>
        <time>2023-04-10T09:31:36Z</time>
      </trkpt>
      <trkpt lat="48.04092" lon="-3.17812">
        <ele>165.8</ele>
        <time>2023-04-10T09:31:37Z</time>
      </trkpt>
      <trkpt lat="48.04088" lon="-3.17808">
        <ele>166</ele>
        <time>2023-04-10T09:31:38Z</time>
      </trkpt>
      <trkpt lat="48.04084" lon="-3.17805">
        <ele>166.4</ele>
        <time>2023-04-10T09:31:39Z</time>
      </trkpt>
      <trkpt lat="48.04079" lon="-3.17804">
        <ele>166.4</ele>
        <time>2023-04-10T09:31:40Z</time>
      </trkpt>
      <trkpt lat="48.04074" lon="-3.17803">
        <ele>166.8</ele>
        <time>2023-04-10T09:31:41Z</time>
      </trkpt>
      <trkpt lat="48.04069" lon="-3.17802">
        <ele>167</ele>
        <time>2023-04-10T09:31:42Z</time>
      </trkpt>
      <trkpt lat="48.04064" lon="-3.17801">
        <ele>167.4</ele>
        <time>2023-04-10T09:31:43Z</time>
      </trkpt>
      <trkpt lat="48.04054" lon="-3.17797">
        <ele>167.6</ele>
        <time>2023-04-10T09:31:45Z</time>
      </trkpt>
      <trkpt lat="48.04049" lon="-3.17793">
        <ele>167.8</ele>
        <time>2023-04-10T09:31:46Z</time>
      </trkpt>
      <trkpt lat="48.04045" lon="-3.1779">
        <ele>168</ele>
        <time>2023-04-10T09:31:47Z</time>
      </trkpt>
      <trkpt lat="48.04026" lon="-3.17775">
        <ele>168.4</ele>
        <time>2023-04-10T09:31:51Z</time>
      </trkpt>
      <trkpt lat="48.04021" lon="-3.17772">
        <ele>168.4</ele>
        <time>2023-04-10T09:31:52Z</time>
      </trkpt>
      <trkpt lat="48.04017" lon="-3.17768">
        <ele>168.4</ele>
        <time>2023-04-10T09:31:53Z</time>
      </trkpt>
      <trkpt lat="48.04013" lon="-3.17762">
        <ele>168.4</ele>
        <time>2023-04-10T09:31:54Z</time>
      </trkpt>
      <trkpt lat="48.0401" lon="-3.17757">
        <ele>168.4</ele>
        <time>2023-04-10T09:31:55Z</time>
      </trkpt>
      <trkpt lat="48.04006" lon="-3.17751">
        <ele>168.4</ele>
        <time>2023-04-10T09:31:56Z</time>
      </trkpt>
      <trkpt lat="48.04001" lon="-3.17744">
        <ele>168.4</ele>
        <time>2023-04-10T09:31:57Z</time>
      </trkpt>
      <trkpt lat="48.03997" lon="-3.17736">
        <ele>168.4</ele>
        <time>2023-04-10T09:31:58Z</time>
      </trkpt>
      <trkpt lat="48.03993" lon="-3.17728">
        <ele>168.4</ele>
        <time>2023-04-10T09:31:59Z</time>
      </trkpt>
      <trkpt lat="48.03989" lon="-3.17718">
        <ele>168.4</ele>
        <time>2023-04-10T09:32:00Z</time>
      </trkpt>
      <trkpt lat="48.03985" lon="-3.17708">
        <ele>168.4</ele>
        <time>2023-04-10T09:32:01Z</time>
      </trkpt>
      <trkpt lat="48.0398" lon="-3.17698">
        <ele>168.4</ele>
        <time>2023-04-10T09:32:02Z</time>
      </trkpt>
      <trkpt lat="48.03966" lon="-3.17651">
        <ele>167</ele>
        <time>2023-04-10T09:32:06Z</time>
      </trkpt>
      <trkpt lat="48.03964" lon="-3.1764">
        <ele>166.6</ele>
        <time>2023-04-10T09:32:07Z</time>
      </trkpt>
      <trkpt lat="48.03958" lon="-3.17616">
        <ele>165</ele>
        <time>2023-04-10T09:32:09Z</time>
      </trkpt>
      <trkpt lat="48.03952" lon="-3.17593">
        <ele>163.6</ele>
        <time>2023-04-10T09:32:11Z</time>
      </trkpt>
      <trkpt lat="48.03948" lon="-3.17582">
        <ele>163.6</ele>
        <time>2023-04-10T09:32:12Z</time>
      </trkpt>
      <trkpt lat="48.03944" lon="-3.17572">
        <ele>163</ele>
        <time>2023-04-10T09:32:13Z</time>
      </trkpt>
      <trkpt lat="48.03939" lon="-3.17564">
        <ele>162.4</ele>
        <time>2023-04-10T09:32:14Z</time>
      </trkpt>
      <trkpt lat="48.03932" lon="-3.17558">
        <ele>162.2</ele>
        <time>2023-04-10T09:32:15Z</time>
      </trkpt>
      <trkpt lat="48.03926" lon="-3.17554">
        <ele>161.6</ele>
        <time>2023-04-10T09:32:16Z</time>
      </trkpt>
      <trkpt lat="48.03919" lon="-3.17552">
        <ele>161.2</ele>
        <time>2023-04-10T09:32:17Z</time>
      </trkpt>
      <trkpt lat="48.03912" lon="-3.17549">
        <ele>160.8</ele>
        <time>2023-04-10T09:32:18Z</time>
      </trkpt>
      <trkpt lat="48.03907" lon="-3.17547">
        <ele>160.2</ele>
        <time>2023-04-10T09:32:19Z</time>
      </trkpt>
      <trkpt lat="48.03898" lon="-3.17545">
        <ele>159.8</ele>
        <time>2023-04-10T09:32:20Z</time>
      </trkpt>
      <trkpt lat="48.03884" lon="-3.17541">
        <ele>159</ele>
        <time>2023-04-10T09:32:22Z</time>
      </trkpt>
      <trkpt lat="48.03877" lon="-3.17539">
        <ele>158.8</ele>
        <time>2023-04-10T09:32:23Z</time>
      </trkpt>
      <trkpt lat="48.03863" lon="-3.17537">
        <ele>158.6</ele>
        <time>2023-04-10T09:32:25Z</time>
      </trkpt>
      <trkpt lat="48.03856" lon="-3.17537">
        <ele>158.2</ele>
        <time>2023-04-10T09:32:26Z</time>
      </trkpt>
      <trkpt lat="48.03849" lon="-3.17536">
        <ele>157.8</ele>
        <time>2023-04-10T09:32:27Z</time>
      </trkpt>
      <trkpt lat="48.03842" lon="-3.17535">
        <ele>157.6</ele>
        <time>2023-04-10T09:32:28Z</time>
      </trkpt>
      <trkpt lat="48.03835" lon="-3.17536">
        <ele>157.4</ele>
        <time>2023-04-10T09:32:29Z</time>
      </trkpt>
      <trkpt lat="48.03829" lon="-3.17536">
        <ele>157.2</ele>
        <time>2023-04-10T09:32:30Z</time>
      </trkpt>
      <trkpt lat="48.03823" lon="-3.17536">
        <ele>157</ele>
        <time>2023-04-10T09:32:31Z</time>
      </trkpt>
      <trkpt lat="48.03816" lon="-3.17537">
        <ele>156.6</ele>
        <time>2023-04-10T09:32:32Z</time>
      </trkpt>
      <trkpt lat="48.0381" lon="-3.17537">
        <ele>156.4</ele>
        <time>2023-04-10T09:32:33Z</time>
      </trkpt>
      <trkpt lat="48.03803" lon="-3.17537">
        <ele>156.4</ele>
        <time>2023-04-10T09:32:34Z</time>
      </trkpt>
      <trkpt lat="48.03797" lon="-3.17538">
        <ele>156.4</ele>
        <time>2023-04-10T09:32:35Z</time>
      </trkpt>
      <trkpt lat="48.03792" lon="-3.17538">
        <ele>156.2</ele>
        <time>2023-04-10T09:32:36Z</time>
      </trkpt>
      <trkpt lat="48.03786" lon="-3.17538">
        <ele>156.2</ele>
        <time>2023-04-10T09:32:37Z</time>
      </trkpt>
      <trkpt lat="48.0378" lon="-3.17538">
        <ele>156</ele>
        <time>2023-04-10T09:32:38Z</time>
      </trkpt>
      <trkpt lat="48.03775" lon="-3.17538">
        <ele>156</ele>
        <time>2023-04-10T09:32:39Z</time>
      </trkpt>
      <trkpt lat="48.03764" lon="-3.17538">
        <ele>155.8</ele>
        <time>2023-04-10T09:32:41Z</time>
      </trkpt>
      <trkpt lat="48.03758" lon="-3.17537">
        <ele>155.8</ele>
        <time>2023-04-10T09:32:42Z</time>
      </trkpt>
      <trkpt lat="48.03752" lon="-3.17537">
        <ele>155.8</ele>
        <time>2023-04-10T09:32:43Z</time>
      </trkpt>
      <trkpt lat="48.03747" lon="-3.17538">
        <ele>155.8</ele>
        <time>2023-04-10T09:32:44Z</time>
      </trkpt>
      <trkpt lat="48.03741" lon="-3.17538">
        <ele>155.8</ele>
        <time>2023-04-10T09:32:45Z</time>
      </trkpt>
      <trkpt lat="48.03735" lon="-3.17539">
        <ele>155.8</ele>
        <time>2023-04-10T09:32:46Z</time>
      </trkpt>
      <trkpt lat="48.03725" lon="-3.17539">
        <ele>156</ele>
        <time>2023-04-10T09:32:48Z</time>
      </trkpt>
      <trkpt lat="48.03719" lon="-3.17539">
        <ele>156</ele>
        <time>2023-04-10T09:32:49Z</time>
      </trkpt>
      <trkpt lat="48.03714" lon="-3.17538">
        <ele>156</ele>
        <time>2023-04-10T09:32:50Z</time>
      </trkpt>
      <trkpt lat="48.03708" lon="-3.17538">
        <ele>156</ele>
        <time>2023-04-10T09:32:51Z</time>
      </trkpt>
      <trkpt lat="48.03703" lon="-3.17538">
        <ele>156</ele>
        <time>2023-04-10T09:32:52Z</time>
      </trkpt>
      <trkpt lat="48.03698" lon="-3.17538">
        <ele>156</ele>
        <time>2023-04-10T09:32:53Z</time>
      </trkpt>
      <trkpt lat="48.03694" lon="-3.17537">
        <ele>156.2</ele>
        <time>2023-04-10T09:32:54Z</time>
      </trkpt>
      <trkpt lat="48.03689" lon="-3.17538">
        <ele>156.2</ele>
        <time>2023-04-10T09:32:55Z</time>
      </trkpt>
      <trkpt lat="48.03684" lon="-3.17538">
        <ele>156.2</ele>
        <time>2023-04-10T09:32:56Z</time>
      </trkpt>
      <trkpt lat="48.0368" lon="-3.17539">
        <ele>156.2</ele>
        <time>2023-04-10T09:32:57Z</time>
      </trkpt>
      <trkpt lat="48.03675" lon="-3.1754">
        <ele>156.4</ele>
        <time>2023-04-10T09:32:58Z</time>
      </trkpt>
      <trkpt lat="48.0367" lon="-3.17541">
        <ele>156.4</ele>
        <time>2023-04-10T09:32:59Z</time>
      </trkpt>
      <trkpt lat="48.03665" lon="-3.17541">
        <ele>156.6</ele>
        <time>2023-04-10T09:33:00Z</time>
      </trkpt>
      <trkpt lat="48.03661" lon="-3.17542">
        <ele>156.6</ele>
        <time>2023-04-10T09:33:01Z</time>
      </trkpt>
      <trkpt lat="48.03657" lon="-3.17543">
        <ele>156.8</ele>
        <time>2023-04-10T09:33:02Z</time>
      </trkpt>
      <trkpt lat="48.03652" lon="-3.17543">
        <ele>156.8</ele>
        <time>2023-04-10T09:33:03Z</time>
      </trkpt>
      <trkpt lat="48.03648" lon="-3.17544">
        <ele>156.8</ele>
        <time>2023-04-10T09:33:04Z</time>
      </trkpt>
      <trkpt lat="48.03644" lon="-3.17546">
        <ele>157</ele>
        <time>2023-04-10T09:33:05Z</time>
      </trkpt>
      <trkpt lat="48.0364" lon="-3.17547">
        <ele>157.4</ele>
        <time>2023-04-10T09:33:06Z</time>
      </trkpt>
      <trkpt lat="48.03637" lon="-3.17548">
        <ele>157.6</ele>
        <time>2023-04-10T09:33:07Z</time>
      </trkpt>
      <trkpt lat="48.03633" lon="-3.1755">
        <ele>158</ele>
        <time>2023-04-10T09:33:08Z</time>
      </trkpt>
      <trkpt lat="48.03629" lon="-3.17552">
        <ele>158.2</ele>
        <time>2023-04-10T09:33:09Z</time>
      </trkpt>
      <trkpt lat="48.03626" lon="-3.17554">
        <ele>158.2</ele>
        <time>2023-04-10T09:33:10Z</time>
      </trkpt>
      <trkpt lat="48.03622" lon="-3.17556">
        <ele>158.4</ele>
        <time>2023-04-10T09:33:11Z</time>
      </trkpt>
      <trkpt lat="48.03618" lon="-3.17557">
        <ele>158.6</ele>
        <time>2023-04-10T09:33:12Z</time>
      </trkpt>
      <trkpt lat="48.03614" lon="-3.17558">
        <ele>159</ele>
        <time>2023-04-10T09:33:13Z</time>
      </trkpt>
      <trkpt lat="48.03611" lon="-3.1756">
        <ele>159.2</ele>
        <time>2023-04-10T09:33:14Z</time>
      </trkpt>
      <trkpt lat="48.03607" lon="-3.17561">
        <ele>159.4</ele>
        <time>2023-04-10T09:33:15Z</time>
      </trkpt>
      <trkpt lat="48.03604" lon="-3.17563">
        <ele>159.4</ele>
        <time>2023-04-10T09:33:16Z</time>
      </trkpt>
      <trkpt lat="48.03601" lon="-3.17565">
        <ele>159.6</ele>
        <time>2023-04-10T09:33:17Z</time>
      </trkpt>
      <trkpt lat="48.03598" lon="-3.17567">
        <ele>159.8</ele>
        <time>2023-04-10T09:33:18Z</time>
      </trkpt>
      <trkpt lat="48.03595" lon="-3.17569">
        <ele>159.8</ele>
        <time>2023-04-10T09:33:19Z</time>
      </trkpt>
      <trkpt lat="48.03591" lon="-3.17571">
        <ele>160</ele>
        <time>2023-04-10T09:33:20Z</time>
      </trkpt>
      <trkpt lat="48.03588" lon="-3.17572">
        <ele>160.2</ele>
        <time>2023-04-10T09:33:21Z</time>
      </trkpt>
      <trkpt lat="48.03584" lon="-3.17574">
        <ele>160.4</ele>
        <time>2023-04-10T09:33:22Z</time>
      </trkpt>
      <trkpt lat="48.03581" lon="-3.17576">
        <ele>160.6</ele>
        <time>2023-04-10T09:33:23Z</time>
      </trkpt>
      <trkpt lat="48.03577" lon="-3.17578">
        <ele>161</ele>
        <time>2023-04-10T09:33:24Z</time>
      </trkpt>
      <trkpt lat="48.03574" lon="-3.1758">
        <ele>161.2</ele>
        <time>2023-04-10T09:33:25Z</time>
      </trkpt>
      <trkpt lat="48.0357" lon="-3.17581">
        <ele>161.6</ele>
        <time>2023-04-10T09:33:26Z</time>
      </trkpt>
      <trkpt lat="48.03567" lon="-3.17583">
        <ele>161.8</ele>
        <time>2023-04-10T09:33:27Z</time>
      </trkpt>
      <trkpt lat="48.03564" lon="-3.17585">
        <ele>162</ele>
        <time>2023-04-10T09:33:28Z</time>
      </trkpt>
      <trkpt lat="48.0356" lon="-3.17586">
        <ele>162.2</ele>
        <time>2023-04-10T09:33:29Z</time>
      </trkpt>
      <trkpt lat="48.03556" lon="-3.17588">
        <ele>162.4</ele>
        <time>2023-04-10T09:33:30Z</time>
      </trkpt>
      <trkpt lat="48.03553" lon="-3.1759">
        <ele>162.6</ele>
        <time>2023-04-10T09:33:31Z</time>
      </trkpt>
      <trkpt lat="48.03549" lon="-3.17593">
        <ele>162.8</ele>
        <time>2023-04-10T09:33:32Z</time>
      </trkpt>
      <trkpt lat="48.03546" lon="-3.17596">
        <ele>162.8</ele>
        <time>2023-04-10T09:33:33Z</time>
      </trkpt>
      <trkpt lat="48.03542" lon="-3.17598">
        <ele>162.8</ele>
        <time>2023-04-10T09:33:34Z</time>
      </trkpt>
      <trkpt lat="48.03539" lon="-3.17601">
        <ele>163</ele>
        <time>2023-04-10T09:33:35Z</time>
      </trkpt>
      <trkpt lat="48.03535" lon="-3.17605">
        <ele>163</ele>
        <time>2023-04-10T09:33:36Z</time>
      </trkpt>
      <trkpt lat="48.03532" lon="-3.17608">
        <ele>163</ele>
        <time>2023-04-10T09:33:37Z</time>
      </trkpt>
      <trkpt lat="48.03529" lon="-3.17612">
        <ele>163.2</ele>
        <time>2023-04-10T09:33:38Z</time>
      </trkpt>
      <trkpt lat="48.03525" lon="-3.17616">
        <ele>163.2</ele>
        <time>2023-04-10T09:33:39Z</time>
      </trkpt>
      <trkpt lat="48.03521" lon="-3.1762">
        <ele>163.4</ele>
        <time>2023-04-10T09:33:40Z</time>
      </trkpt>
      <trkpt lat="48.03518" lon="-3.17625">
        <ele>163.4</ele>
        <time>2023-04-10T09:33:41Z</time>
      </trkpt>
      <trkpt lat="48.03515" lon="-3.17629">
        <ele>163.6</ele>
        <time>2023-04-10T09:33:42Z</time>
      </trkpt>
      <trkpt lat="48.03512" lon="-3.17634">
        <ele>163.6</ele>
        <time>2023-04-10T09:33:43Z</time>
      </trkpt>
      <trkpt lat="48.0351" lon="-3.17639">
        <ele>163.6</ele>
        <time>2023-04-10T09:33:44Z</time>
      </trkpt>
      <trkpt lat="48.03506" lon="-3.17644">
        <ele>163.6</ele>
        <time>2023-04-10T09:33:45Z</time>
      </trkpt>
      <trkpt lat="48.03503" lon="-3.17648">
        <ele>163.6</ele>
        <time>2023-04-10T09:33:46Z</time>
      </trkpt>
      <trkpt lat="48.035" lon="-3.17652">
        <ele>163.8</ele>
        <time>2023-04-10T09:33:47Z</time>
      </trkpt>
      <trkpt lat="48.03497" lon="-3.17657">
        <ele>163.8</ele>
        <time>2023-04-10T09:33:48Z</time>
      </trkpt>
      <trkpt lat="48.03494" lon="-3.17661">
        <ele>163.8</ele>
        <time>2023-04-10T09:33:49Z</time>
      </trkpt>
      <trkpt lat="48.03491" lon="-3.17666">
        <ele>163.8</ele>
        <time>2023-04-10T09:33:50Z</time>
      </trkpt>
      <trkpt lat="48.03488" lon="-3.17672">
        <ele>163.8</ele>
        <time>2023-04-10T09:33:51Z</time>
      </trkpt>
      <trkpt lat="48.03485" lon="-3.17678">
        <ele>163.8</ele>
        <time>2023-04-10T09:33:52Z</time>
      </trkpt>
      <trkpt lat="48.03481" lon="-3.17683">
        <ele>163.8</ele>
        <time>2023-04-10T09:33:53Z</time>
      </trkpt>
      <trkpt lat="48.03478" lon="-3.17688">
        <ele>163.8</ele>
        <time>2023-04-10T09:33:54Z</time>
      </trkpt>
      <trkpt lat="48.03474" lon="-3.17692">
        <ele>163.8</ele>
        <time>2023-04-10T09:33:55Z</time>
      </trkpt>
      <trkpt lat="48.03467" lon="-3.17701">
        <ele>164</ele>
        <time>2023-04-10T09:33:57Z</time>
      </trkpt>
      <trkpt lat="48.03463" lon="-3.17705">
        <ele>164</ele>
        <time>2023-04-10T09:33:58Z</time>
      </trkpt>
      <trkpt lat="48.0346" lon="-3.17708">
        <ele>164</ele>
        <time>2023-04-10T09:33:59Z</time>
      </trkpt>
      <trkpt lat="48.03456" lon="-3.17712">
        <ele>164.2</ele>
        <time>2023-04-10T09:34:00Z</time>
      </trkpt>
      <trkpt lat="48.03453" lon="-3.17716">
        <ele>164.2</ele>
        <time>2023-04-10T09:34:01Z</time>
      </trkpt>
      <trkpt lat="48.0345" lon="-3.1772">
        <ele>164.2</ele>
        <time>2023-04-10T09:34:02Z</time>
      </trkpt>
      <trkpt lat="48.03447" lon="-3.17723">
        <ele>164.2</ele>
        <time>2023-04-10T09:34:03Z</time>
      </trkpt>
      <trkpt lat="48.03447" lon="-3.17726">
        <ele>164.2</ele>
        <time>2023-04-10T09:34:04Z</time>
      </trkpt>
      <trkpt lat="48.03446" lon="-3.17728">
        <ele>164.2</ele>
        <time>2023-04-10T09:34:05Z</time>
      </trkpt>
      <trkpt lat="48.03445" lon="-3.17731">
        <ele>164.2</ele>
        <time>2023-04-10T09:34:06Z</time>
      </trkpt>
      <trkpt lat="48.03445" lon="-3.17734">
        <ele>164.2</ele>
        <time>2023-04-10T09:34:07Z</time>
      </trkpt>
      <trkpt lat="48.03443" lon="-3.17736">
        <ele>164.2</ele>
        <time>2023-04-10T09:34:08Z</time>
      </trkpt>
      <trkpt lat="48.03439" lon="-3.17737">
        <ele>164.2</ele>
        <time>2023-04-10T09:34:09Z</time>
      </trkpt>
      <trkpt lat="48.03436" lon="-3.17736">
        <ele>164.2</ele>
        <time>2023-04-10T09:34:10Z</time>
      </trkpt>
      <trkpt lat="48.03431" lon="-3.17735">
        <ele>164.2</ele>
        <time>2023-04-10T09:34:11Z</time>
      </trkpt>
      <trkpt lat="48.03426" lon="-3.17733">
        <ele>164.2</ele>
        <time>2023-04-10T09:34:12Z</time>
      </trkpt>
      <trkpt lat="48.0342" lon="-3.17731">
        <ele>164</ele>
        <time>2023-04-10T09:34:13Z</time>
      </trkpt>
      <trkpt lat="48.03409" lon="-3.17726">
        <ele>163.8</ele>
        <time>2023-04-10T09:34:15Z</time>
      </trkpt>
      <trkpt lat="48.03386" lon="-3.17715">
        <ele>163.4</ele>
        <time>2023-04-10T09:34:18Z</time>
      </trkpt>
      <trkpt lat="48.0338" lon="-3.17715">
        <ele>163.2</ele>
        <time>2023-04-10T09:34:19Z</time>
      </trkpt>
      <trkpt lat="48.03372" lon="-3.17714">
        <ele>163</ele>
        <time>2023-04-10T09:34:20Z</time>
      </trkpt>
      <trkpt lat="48.03365" lon="-3.1771">
        <ele>162.8</ele>
        <time>2023-04-10T09:34:21Z</time>
      </trkpt>
      <trkpt lat="48.03353" lon="-3.17702">
        <ele>162</ele>
        <time>2023-04-10T09:34:23Z</time>
      </trkpt>
      <trkpt lat="48.03348" lon="-3.17699">
        <ele>161.6</ele>
        <time>2023-04-10T09:34:24Z</time>
      </trkpt>
      <trkpt lat="48.03344" lon="-3.17694">
        <ele>161.6</ele>
        <time>2023-04-10T09:34:25Z</time>
      </trkpt>
      <trkpt lat="48.03341" lon="-3.17687">
        <ele>161.4</ele>
        <time>2023-04-10T09:34:26Z</time>
      </trkpt>
      <trkpt lat="48.03339" lon="-3.17678">
        <ele>160.8</ele>
        <time>2023-04-10T09:34:27Z</time>
      </trkpt>
      <trkpt lat="48.03339" lon="-3.1767">
        <ele>160.6</ele>
        <time>2023-04-10T09:34:28Z</time>
      </trkpt>
      <trkpt lat="48.03339" lon="-3.17661">
        <ele>160.2</ele>
        <time>2023-04-10T09:34:29Z</time>
      </trkpt>
      <trkpt lat="48.03338" lon="-3.17651">
        <ele>159.8</ele>
        <time>2023-04-10T09:34:30Z</time>
      </trkpt>
      <trkpt lat="48.03339" lon="-3.17631">
        <ele>158.6</ele>
        <time>2023-04-10T09:34:32Z</time>
      </trkpt>
      <trkpt lat="48.0334" lon="-3.17622">
        <ele>157.8</ele>
        <time>2023-04-10T09:34:33Z</time>
      </trkpt>
      <trkpt lat="48.03343" lon="-3.17614">
        <ele>157.2</ele>
        <time>2023-04-10T09:34:34Z</time>
      </trkpt>
      <trkpt lat="48.03347" lon="-3.17609">
        <ele>156.4</ele>
        <time>2023-04-10T09:34:35Z</time>
      </trkpt>
      <trkpt lat="48.03351" lon="-3.17606">
        <ele>156</ele>
        <time>2023-04-10T09:34:36Z</time>
      </trkpt>
      <trkpt lat="48.03356" lon="-3.17603">
        <ele>155.8</ele>
        <time>2023-04-10T09:34:37Z</time>
      </trkpt>
      <trkpt lat="48.0336" lon="-3.17601">
        <ele>155.6</ele>
        <time>2023-04-10T09:34:38Z</time>
      </trkpt>
      <trkpt lat="48.03363" lon="-3.17599">
        <ele>155.6</ele>
        <time>2023-04-10T09:34:39Z</time>
      </trkpt>
      <trkpt lat="48.03367" lon="-3.17598">
        <ele>155.4</ele>
        <time>2023-04-10T09:34:40Z</time>
      </trkpt>
      <trkpt lat="48.03371" lon="-3.17596">
        <ele>155.4</ele>
        <time>2023-04-10T09:34:41Z</time>
      </trkpt>
      <trkpt lat="48.03374" lon="-3.17593">
        <ele>155.4</ele>
        <time>2023-04-10T09:34:42Z</time>
      </trkpt>
      <trkpt lat="48.03382" lon="-3.17587">
        <ele>155.4</ele>
        <time>2023-04-10T09:34:44Z</time>
      </trkpt>
      <trkpt lat="48.03399" lon="-3.17566">
        <ele>155.6</ele>
        <time>2023-04-10T09:34:49Z</time>
      </trkpt>
      <trkpt lat="48.03403" lon="-3.17561">
        <ele>155.8</ele>
        <time>2023-04-10T09:34:50Z</time>
      </trkpt>
      <trkpt lat="48.03406" lon="-3.17556">
        <ele>156.2</ele>
        <time>2023-04-10T09:34:51Z</time>
      </trkpt>
      <trkpt lat="48.03408" lon="-3.1755">
        <ele>156.6</ele>
        <time>2023-04-10T09:34:52Z</time>
      </trkpt>
      <trkpt lat="48.03408" lon="-3.17543">
        <ele>157</ele>
        <time>2023-04-10T09:34:53Z</time>
      </trkpt>
      <trkpt lat="48.03407" lon="-3.17536">
        <ele>157.4</ele>
        <time>2023-04-10T09:34:54Z</time>
      </trkpt>
      <trkpt lat="48.03404" lon="-3.1752">
        <ele>158</ele>
        <time>2023-04-10T09:34:56Z</time>
      </trkpt>
      <trkpt lat="48.03403" lon="-3.17511">
        <ele>158.4</ele>
        <time>2023-04-10T09:34:57Z</time>
      </trkpt>
      <trkpt lat="48.03402" lon="-3.17502">
        <ele>158.6</ele>
        <time>2023-04-10T09:34:58Z</time>
      </trkpt>
      <trkpt lat="48.03399" lon="-3.17484">
        <ele>159</ele>
        <time>2023-04-10T09:35:00Z</time>
      </trkpt>
      <trkpt lat="48.03397" lon="-3.17475">
        <ele>159</ele>
        <time>2023-04-10T09:35:01Z</time>
      </trkpt>
      <trkpt lat="48.03397" lon="-3.17468">
        <ele>159</ele>
        <time>2023-04-10T09:35:02Z</time>
      </trkpt>
      <trkpt lat="48.03396" lon="-3.17457">
        <ele>159</ele>
        <time>2023-04-10T09:35:03Z</time>
      </trkpt>
      <trkpt lat="48.03394" lon="-3.17448">
        <ele>159</ele>
        <time>2023-04-10T09:35:04Z</time>
      </trkpt>
      <trkpt lat="48.03393" lon="-3.1744">
        <ele>159</ele>
        <time>2023-04-10T09:35:05Z</time>
      </trkpt>
      <trkpt lat="48.03392" lon="-3.17432">
        <ele>159</ele>
        <time>2023-04-10T09:35:06Z</time>
      </trkpt>
      <trkpt lat="48.03391" lon="-3.17424">
        <ele>159</ele>
        <time>2023-04-10T09:35:07Z</time>
      </trkpt>
      <trkpt lat="48.0339" lon="-3.17416">
        <ele>158.8</ele>
        <time>2023-04-10T09:35:08Z</time>
      </trkpt>
      <trkpt lat="48.03386" lon="-3.174">
        <ele>158.8</ele>
        <time>2023-04-10T09:35:10Z</time>
      </trkpt>
      <trkpt lat="48.03385" lon="-3.17392">
        <ele>158.6</ele>
        <time>2023-04-10T09:35:11Z</time>
      </trkpt>
      <trkpt lat="48.03383" lon="-3.17384">
        <ele>158.6</ele>
        <time>2023-04-10T09:35:12Z</time>
      </trkpt>
      <trkpt lat="48.03381" lon="-3.17376">
        <ele>158.6</ele>
        <time>2023-04-10T09:35:13Z</time>
      </trkpt>
      <trkpt lat="48.0338" lon="-3.17369">
        <ele>158.6</ele>
        <time>2023-04-10T09:35:14Z</time>
      </trkpt>
      <trkpt lat="48.03377" lon="-3.17354">
        <ele>158.6</ele>
        <time>2023-04-10T09:35:16Z</time>
      </trkpt>
      <trkpt lat="48.03375" lon="-3.17347">
        <ele>158.6</ele>
        <time>2023-04-10T09:35:17Z</time>
      </trkpt>
      <trkpt lat="48.0337" lon="-3.17324">
        <ele>159.2</ele>
        <time>2023-04-10T09:35:20Z</time>
      </trkpt>
      <trkpt lat="48.03365" lon="-3.17285">
        <ele>159.6</ele>
        <time>2023-04-10T09:35:25Z</time>
      </trkpt>
      <trkpt lat="48.03364" lon="-3.17268">
        <ele>159.8</ele>
        <time>2023-04-10T09:35:27Z</time>
      </trkpt>
      <trkpt lat="48.03363" lon="-3.17251">
        <ele>160.2</ele>
        <time>2023-04-10T09:35:29Z</time>
      </trkpt>
      <trkpt lat="48.03362" lon="-3.17234">
        <ele>160.4</ele>
        <time>2023-04-10T09:35:31Z</time>
      </trkpt>
      <trkpt lat="48.03361" lon="-3.17217">
        <ele>160.6</ele>
        <time>2023-04-10T09:35:33Z</time>
      </trkpt>
      <trkpt lat="48.03358" lon="-3.17192">
        <ele>160.8</ele>
        <time>2023-04-10T09:35:36Z</time>
      </trkpt>
      <trkpt lat="48.03356" lon="-3.17184">
        <ele>160.8</ele>
        <time>2023-04-10T09:35:37Z</time>
      </trkpt>
      <trkpt lat="48.03351" lon="-3.17168">
        <ele>160.8</ele>
        <time>2023-04-10T09:35:39Z</time>
      </trkpt>
      <trkpt lat="48.03342" lon="-3.17134">
        <ele>161.4</ele>
        <time>2023-04-10T09:35:43Z</time>
      </trkpt>
      <trkpt lat="48.03339" lon="-3.17125">
        <ele>161.6</ele>
        <time>2023-04-10T09:35:44Z</time>
      </trkpt>
      <trkpt lat="48.03338" lon="-3.17116">
        <ele>161.8</ele>
        <time>2023-04-10T09:35:45Z</time>
      </trkpt>
      <trkpt lat="48.03336" lon="-3.17107">
        <ele>161.8</ele>
        <time>2023-04-10T09:35:46Z</time>
      </trkpt>
      <trkpt lat="48.03335" lon="-3.17099">
        <ele>161.8</ele>
        <time>2023-04-10T09:35:47Z</time>
      </trkpt>
      <trkpt lat="48.03334" lon="-3.1709">
        <ele>161.8</ele>
        <time>2023-04-10T09:35:48Z</time>
      </trkpt>
      <trkpt lat="48.03333" lon="-3.17082">
        <ele>161.8</ele>
        <time>2023-04-10T09:35:49Z</time>
      </trkpt>
      <trkpt lat="48.0333" lon="-3.17065">
        <ele>161.8</ele>
        <time>2023-04-10T09:35:51Z</time>
      </trkpt>
      <trkpt lat="48.03324" lon="-3.17019">
        <ele>161.8</ele>
        <time>2023-04-10T09:35:56Z</time>
      </trkpt>
      <trkpt lat="48.0332" lon="-3.1699">
        <ele>161.8</ele>
        <time>2023-04-10T09:35:59Z</time>
      </trkpt>
      <trkpt lat="48.03312" lon="-3.16925">
        <ele>160.8</ele>
        <time>2023-04-10T09:36:05Z</time>
      </trkpt>
      <trkpt lat="48.0331" lon="-3.16914">
        <ele>160.8</ele>
        <time>2023-04-10T09:36:06Z</time>
      </trkpt>
      <trkpt lat="48.03309" lon="-3.16902">
        <ele>160.6</ele>
        <time>2023-04-10T09:36:07Z</time>
      </trkpt>
      <trkpt lat="48.03304" lon="-3.16857">
        <ele>159.4</ele>
        <time>2023-04-10T09:36:11Z</time>
      </trkpt>
      <trkpt lat="48.03302" lon="-3.16834">
        <ele>158.6</ele>
        <time>2023-04-10T09:36:13Z</time>
      </trkpt>
      <trkpt lat="48.033" lon="-3.16823">
        <ele>158.2</ele>
        <time>2023-04-10T09:36:14Z</time>
      </trkpt>
      <trkpt lat="48.03294" lon="-3.16776">
        <ele>157</ele>
        <time>2023-04-10T09:36:18Z</time>
      </trkpt>
      <trkpt lat="48.0329" lon="-3.1675">
        <ele>156.4</ele>
        <time>2023-04-10T09:36:20Z</time>
      </trkpt>
      <trkpt lat="48.03289" lon="-3.16737">
        <ele>156</ele>
        <time>2023-04-10T09:36:21Z</time>
      </trkpt>
      <trkpt lat="48.03286" lon="-3.16696">
        <ele>154.8</ele>
        <time>2023-04-10T09:36:24Z</time>
      </trkpt>
      <trkpt lat="48.03286" lon="-3.16682">
        <ele>154.4</ele>
        <time>2023-04-10T09:36:25Z</time>
      </trkpt>
      <trkpt lat="48.03286" lon="-3.16668">
        <ele>154.2</ele>
        <time>2023-04-10T09:36:26Z</time>
      </trkpt>
      <trkpt lat="48.03287" lon="-3.16655">
        <ele>153.6</ele>
        <time>2023-04-10T09:36:27Z</time>
      </trkpt>
      <trkpt lat="48.03288" lon="-3.16643">
        <ele>153.2</ele>
        <time>2023-04-10T09:36:28Z</time>
      </trkpt>
      <trkpt lat="48.03289" lon="-3.1663">
        <ele>153</ele>
        <time>2023-04-10T09:36:29Z</time>
      </trkpt>
      <trkpt lat="48.03289" lon="-3.16617">
        <ele>152.4</ele>
        <time>2023-04-10T09:36:30Z</time>
      </trkpt>
      <trkpt lat="48.0329" lon="-3.16604">
        <ele>152</ele>
        <time>2023-04-10T09:36:31Z</time>
      </trkpt>
      <trkpt lat="48.0329" lon="-3.16593">
        <ele>151.8</ele>
        <time>2023-04-10T09:36:32Z</time>
      </trkpt>
      <trkpt lat="48.03291" lon="-3.16581">
        <ele>151.4</ele>
        <time>2023-04-10T09:36:33Z</time>
      </trkpt>
      <trkpt lat="48.03292" lon="-3.1657">
        <ele>151.4</ele>
        <time>2023-04-10T09:36:34Z</time>
      </trkpt>
      <trkpt lat="48.03293" lon="-3.16559">
        <ele>151.4</ele>
        <time>2023-04-10T09:36:35Z</time>
      </trkpt>
      <trkpt lat="48.03293" lon="-3.16548">
        <ele>151.2</ele>
        <time>2023-04-10T09:36:36Z</time>
      </trkpt>
      <trkpt lat="48.03293" lon="-3.16537">
        <ele>151.2</ele>
        <time>2023-04-10T09:36:37Z</time>
      </trkpt>
      <trkpt lat="48.03294" lon="-3.16526">
        <ele>151.2</ele>
        <time>2023-04-10T09:36:38Z</time>
      </trkpt>
      <trkpt lat="48.03294" lon="-3.16515">
        <ele>151.2</ele>
        <time>2023-04-10T09:36:39Z</time>
      </trkpt>
      <trkpt lat="48.03294" lon="-3.16504">
        <ele>151.2</ele>
        <time>2023-04-10T09:36:40Z</time>
      </trkpt>
      <trkpt lat="48.03294" lon="-3.16493">
        <ele>151</ele>
        <time>2023-04-10T09:36:41Z</time>
      </trkpt>
      <trkpt lat="48.03294" lon="-3.16481">
        <ele>151</ele>
        <time>2023-04-10T09:36:42Z</time>
      </trkpt>
      <trkpt lat="48.03295" lon="-3.1647">
        <ele>151</ele>
        <time>2023-04-10T09:36:43Z</time>
      </trkpt>
      <trkpt lat="48.03295" lon="-3.1646">
        <ele>151</ele>
        <time>2023-04-10T09:36:44Z</time>
      </trkpt>
      <trkpt lat="48.03295" lon="-3.1645">
        <ele>150.8</ele>
        <time>2023-04-10T09:36:45Z</time>
      </trkpt>
      <trkpt lat="48.03296" lon="-3.1644">
        <ele>150.8</ele>
        <time>2023-04-10T09:36:46Z</time>
      </trkpt>
      <trkpt lat="48.03296" lon="-3.1643">
        <ele>150.8</ele>
        <time>2023-04-10T09:36:47Z</time>
      </trkpt>
      <trkpt lat="48.03296" lon="-3.16421">
        <ele>150.8</ele>
        <time>2023-04-10T09:36:48Z</time>
      </trkpt>
      <trkpt lat="48.03297" lon="-3.16412">
        <ele>150.8</ele>
        <time>2023-04-10T09:36:49Z</time>
      </trkpt>
      <trkpt lat="48.03297" lon="-3.16404">
        <ele>150.6</ele>
        <time>2023-04-10T09:36:50Z</time>
      </trkpt>
      <trkpt lat="48.03297" lon="-3.16398">
        <ele>150.6</ele>
        <time>2023-04-10T09:36:51Z</time>
      </trkpt>
      <trkpt lat="48.03297" lon="-3.16393">
        <ele>150.6</ele>
        <time>2023-04-10T09:36:52Z</time>
      </trkpt>
      <trkpt lat="48.03297" lon="-3.1639">
        <ele>150.6</ele>
        <time>2023-04-10T09:36:53Z</time>
      </trkpt>
      <trkpt lat="48.03296" lon="-3.16388">
        <ele>150.6</ele>
        <time>2023-04-10T09:36:54Z</time>
      </trkpt>
      <trkpt lat="48.03296" lon="-3.16385">
        <ele>150.4</ele>
        <time>2023-04-10T09:36:55Z</time>
      </trkpt>
      <trkpt lat="48.03297" lon="-3.16382">
        <ele>150.4</ele>
        <time>2023-04-10T09:36:56Z</time>
      </trkpt>
      <trkpt lat="48.03297" lon="-3.1638">
        <ele>150.4</ele>
        <time>2023-04-10T09:36:57Z</time>
      </trkpt>
      <trkpt lat="48.03298" lon="-3.16377">
        <ele>150.4</ele>
        <time>2023-04-10T09:36:58Z</time>
      </trkpt>
      <trkpt lat="48.03298" lon="-3.16374">
        <ele>150.2</ele>
        <time>2023-04-10T09:36:59Z</time>
      </trkpt>
      <trkpt lat="48.03299" lon="-3.16372">
        <ele>150.2</ele>
        <time>2023-04-10T09:37:00Z</time>
      </trkpt>
      <trkpt lat="48.033" lon="-3.1637">
        <ele>150</ele>
        <time>2023-04-10T09:37:01Z</time>
      </trkpt>
      <trkpt lat="48.03301" lon="-3.16368">
        <ele>149.8</ele>
        <time>2023-04-10T09:37:02Z</time>
      </trkpt>
      <trkpt lat="48.03302" lon="-3.16369">
        <ele>149.6</ele>
        <time>2023-04-10T09:37:03Z</time>
      </trkpt>
      <trkpt lat="48.033" lon="-3.16381">
        <ele>149.6</ele>
        <time>2023-04-10T09:37:07Z</time>
      </trkpt>
      <trkpt lat="48.03298" lon="-3.16383">
        <ele>149.6</ele>
        <time>2023-04-10T09:37:08Z</time>
      </trkpt>
      <trkpt lat="48.03296" lon="-3.16384">
        <ele>149.6</ele>
        <time>2023-04-10T09:37:09Z</time>
      </trkpt>
      <trkpt lat="48.03292" lon="-3.16384">
        <ele>149.6</ele>
        <time>2023-04-10T09:37:11Z</time>
      </trkpt>
      <trkpt lat="48.0329" lon="-3.16384">
        <ele>149.6</ele>
        <time>2023-04-10T09:37:12Z</time>
      </trkpt>
      <trkpt lat="48.03287" lon="-3.16383">
        <ele>149.6</ele>
        <time>2023-04-10T09:37:13Z</time>
      </trkpt>
      <trkpt lat="48.03268" lon="-3.1638">
        <ele>149.6</ele>
        <time>2023-04-10T09:37:17Z</time>
      </trkpt>
      <trkpt lat="48.0325" lon="-3.16374">
        <ele>149.6</ele>
        <time>2023-04-10T09:37:20Z</time>
      </trkpt>
      <trkpt lat="48.03231" lon="-3.16369">
        <ele>149.6</ele>
        <time>2023-04-10T09:37:23Z</time>
      </trkpt>
      <trkpt lat="48.03224" lon="-3.16367">
        <ele>149.6</ele>
        <time>2023-04-10T09:37:24Z</time>
      </trkpt>
      <trkpt lat="48.03218" lon="-3.16366">
        <ele>149.4</ele>
        <time>2023-04-10T09:37:25Z</time>
      </trkpt>
      <trkpt lat="48.03212" lon="-3.16366">
        <ele>149.4</ele>
        <time>2023-04-10T09:37:26Z</time>
      </trkpt>
      <trkpt lat="48.03206" lon="-3.16365">
        <ele>149.2</ele>
        <time>2023-04-10T09:37:27Z</time>
      </trkpt>
      <trkpt lat="48.03187" lon="-3.16365">
        <ele>148.8</ele>
        <time>2023-04-10T09:37:30Z</time>
      </trkpt>
      <trkpt lat="48.03174" lon="-3.16365">
        <ele>148.6</ele>
        <time>2023-04-10T09:37:32Z</time>
      </trkpt>
      <trkpt lat="48.03168" lon="-3.16365">
        <ele>148.6</ele>
        <time>2023-04-10T09:37:33Z</time>
      </trkpt>
      <trkpt lat="48.03162" lon="-3.16366">
        <ele>148.6</ele>
        <time>2023-04-10T09:37:34Z</time>
      </trkpt>
      <trkpt lat="48.03155" lon="-3.16366">
        <ele>148.4</ele>
        <time>2023-04-10T09:37:35Z</time>
      </trkpt>
      <trkpt lat="48.03149" lon="-3.16367">
        <ele>148.4</ele>
        <time>2023-04-10T09:37:36Z</time>
      </trkpt>
      <trkpt lat="48.03136" lon="-3.16367">
        <ele>148.2</ele>
        <time>2023-04-10T09:37:38Z</time>
      </trkpt>
      <trkpt lat="48.03123" lon="-3.16367">
        <ele>148.2</ele>
        <time>2023-04-10T09:37:40Z</time>
      </trkpt>
      <trkpt lat="48.03117" lon="-3.16367">
        <ele>148.2</ele>
        <time>2023-04-10T09:37:41Z</time>
      </trkpt>
      <trkpt lat="48.03068" lon="-3.16369">
        <ele>148.2</ele>
        <time>2023-04-10T09:37:49Z</time>
      </trkpt>
      <trkpt lat="48.03062" lon="-3.16368">
        <ele>148.2</ele>
        <time>2023-04-10T09:37:50Z</time>
      </trkpt>
      <trkpt lat="48.03056" lon="-3.16367">
        <ele>148.2</ele>
        <time>2023-04-10T09:37:51Z</time>
      </trkpt>
      <trkpt lat="48.0305" lon="-3.16365">
        <ele>148.4</ele>
        <time>2023-04-10T09:37:52Z</time>
      </trkpt>
      <trkpt lat="48.03039" lon="-3.1636">
        <ele>148.6</ele>
        <time>2023-04-10T09:37:54Z</time>
      </trkpt>
      <trkpt lat="48.03009" lon="-3.1633">
        <ele>149.2</ele>
        <time>2023-04-10T09:38:00Z</time>
      </trkpt>
      <trkpt lat="48.03004" lon="-3.16324">
        <ele>149.2</ele>
        <time>2023-04-10T09:38:01Z</time>
      </trkpt>
      <trkpt lat="48.03" lon="-3.16318">
        <ele>149.2</ele>
        <time>2023-04-10T09:38:02Z</time>
      </trkpt>
      <trkpt lat="48.02995" lon="-3.16312">
        <ele>149.2</ele>
        <time>2023-04-10T09:38:03Z</time>
      </trkpt>
      <trkpt lat="48.02991" lon="-3.16306">
        <ele>149.2</ele>
        <time>2023-04-10T09:38:04Z</time>
      </trkpt>
      <trkpt lat="48.02988" lon="-3.16302">
        <ele>149.2</ele>
        <time>2023-04-10T09:38:05Z</time>
      </trkpt>
      <trkpt lat="48.02983" lon="-3.16295">
        <ele>149.4</ele>
        <time>2023-04-10T09:38:06Z</time>
      </trkpt>
      <trkpt lat="48.02978" lon="-3.1629">
        <ele>149.4</ele>
        <time>2023-04-10T09:38:07Z</time>
      </trkpt>
      <trkpt lat="48.02974" lon="-3.16284">
        <ele>149.4</ele>
        <time>2023-04-10T09:38:08Z</time>
      </trkpt>
      <trkpt lat="48.0297" lon="-3.16278">
        <ele>149.4</ele>
        <time>2023-04-10T09:38:09Z</time>
      </trkpt>
      <trkpt lat="48.02966" lon="-3.16273">
        <ele>149.4</ele>
        <time>2023-04-10T09:38:10Z</time>
      </trkpt>
      <trkpt lat="48.02963" lon="-3.16268">
        <ele>149.4</ele>
        <time>2023-04-10T09:38:11Z</time>
      </trkpt>
      <trkpt lat="48.02945" lon="-3.16245">
        <ele>150</ele>
        <time>2023-04-10T09:38:15Z</time>
      </trkpt>
      <trkpt lat="48.02937" lon="-3.16233">
        <ele>150.2</ele>
        <time>2023-04-10T09:38:17Z</time>
      </trkpt>
      <trkpt lat="48.02932" lon="-3.16228">
        <ele>150.2</ele>
        <time>2023-04-10T09:38:18Z</time>
      </trkpt>
      <trkpt lat="48.02928" lon="-3.16222">
        <ele>150.4</ele>
        <time>2023-04-10T09:38:19Z</time>
      </trkpt>
      <trkpt lat="48.02924" lon="-3.16217">
        <ele>150.4</ele>
        <time>2023-04-10T09:38:20Z</time>
      </trkpt>
      <trkpt lat="48.0292" lon="-3.16211">
        <ele>150.6</ele>
        <time>2023-04-10T09:38:21Z</time>
      </trkpt>
      <trkpt lat="48.02916" lon="-3.16206">
        <ele>150.6</ele>
        <time>2023-04-10T09:38:22Z</time>
      </trkpt>
      <trkpt lat="48.02912" lon="-3.162">
        <ele>150.6</ele>
        <time>2023-04-10T09:38:23Z</time>
      </trkpt>
      <trkpt lat="48.02907" lon="-3.16195">
        <ele>150.8</ele>
        <time>2023-04-10T09:38:24Z</time>
      </trkpt>
      <trkpt lat="48.02903" lon="-3.1619">
        <ele>150.8</ele>
        <time>2023-04-10T09:38:25Z</time>
      </trkpt>
      <trkpt lat="48.029" lon="-3.16186">
        <ele>150.8</ele>
        <time>2023-04-10T09:38:26Z</time>
      </trkpt>
      <trkpt lat="48.02897" lon="-3.16181">
        <ele>151</ele>
        <time>2023-04-10T09:38:27Z</time>
      </trkpt>
      <trkpt lat="48.02893" lon="-3.16177">
        <ele>151</ele>
        <time>2023-04-10T09:38:28Z</time>
      </trkpt>
      <trkpt lat="48.02889" lon="-3.16172">
        <ele>151</ele>
        <time>2023-04-10T09:38:29Z</time>
      </trkpt>
      <trkpt lat="48.02886" lon="-3.16168">
        <ele>151</ele>
        <time>2023-04-10T09:38:30Z</time>
      </trkpt>
      <trkpt lat="48.02877" lon="-3.16159">
        <ele>151.4</ele>
        <time>2023-04-10T09:38:32Z</time>
      </trkpt>
      <trkpt lat="48.02872" lon="-3.16155">
        <ele>151.6</ele>
        <time>2023-04-10T09:38:33Z</time>
      </trkpt>
      <trkpt lat="48.02851" lon="-3.1614">
        <ele>152</ele>
        <time>2023-04-10T09:38:37Z</time>
      </trkpt>
      <trkpt lat="48.02815" lon="-3.16113">
        <ele>152.2</ele>
        <time>2023-04-10T09:38:44Z</time>
      </trkpt>
      <trkpt lat="48.02777" lon="-3.16065">
        <ele>151.8</ele>
        <time>2023-04-10T09:38:52Z</time>
      </trkpt>
      <trkpt lat="48.02767" lon="-3.16056">
        <ele>151.6</ele>
        <time>2023-04-10T09:38:54Z</time>
      </trkpt>
      <trkpt lat="48.02761" lon="-3.16052">
        <ele>151.6</ele>
        <time>2023-04-10T09:38:55Z</time>
      </trkpt>
      <trkpt lat="48.02756" lon="-3.16048">
        <ele>151.4</ele>
        <time>2023-04-10T09:38:56Z</time>
      </trkpt>
      <trkpt lat="48.02749" lon="-3.16043">
        <ele>151.4</ele>
        <time>2023-04-10T09:38:57Z</time>
      </trkpt>
      <trkpt lat="48.02744" lon="-3.16039">
        <ele>151</ele>
        <time>2023-04-10T09:38:58Z</time>
      </trkpt>
      <trkpt lat="48.02739" lon="-3.16035">
        <ele>151</ele>
        <time>2023-04-10T09:38:59Z</time>
      </trkpt>
      <trkpt lat="48.02734" lon="-3.16032">
        <ele>150.8</ele>
        <time>2023-04-10T09:39:00Z</time>
      </trkpt>
      <trkpt lat="48.02728" lon="-3.16028">
        <ele>150.6</ele>
        <time>2023-04-10T09:39:01Z</time>
      </trkpt>
      <trkpt lat="48.02724" lon="-3.16025">
        <ele>150.6</ele>
        <time>2023-04-10T09:39:02Z</time>
      </trkpt>
      <trkpt lat="48.02718" lon="-3.1602">
        <ele>150.4</ele>
        <time>2023-04-10T09:39:03Z</time>
      </trkpt>
      <trkpt lat="48.02712" lon="-3.16017">
        <ele>150.4</ele>
        <time>2023-04-10T09:39:04Z</time>
      </trkpt>
      <trkpt lat="48.02708" lon="-3.16013">
        <ele>150.2</ele>
        <time>2023-04-10T09:39:05Z</time>
      </trkpt>
      <trkpt lat="48.02689" lon="-3.15998">
        <ele>150.2</ele>
        <time>2023-04-10T09:39:09Z</time>
      </trkpt>
      <trkpt lat="48.02677" lon="-3.15984">
        <ele>150.2</ele>
        <time>2023-04-10T09:39:12Z</time>
      </trkpt>
      <trkpt lat="48.0267" lon="-3.1597">
        <ele>150.4</ele>
        <time>2023-04-10T09:39:14Z</time>
      </trkpt>
      <trkpt lat="48.02659" lon="-3.1592">
        <ele>151</ele>
        <time>2023-04-10T09:39:20Z</time>
      </trkpt>
      <trkpt lat="48.02652" lon="-3.1587">
        <ele>151.4</ele>
        <time>2023-04-10T09:39:26Z</time>
      </trkpt>
      <trkpt lat="48.02647" lon="-3.15841">
        <ele>151.6</ele>
        <time>2023-04-10T09:39:29Z</time>
      </trkpt>
      <trkpt lat="48.02646" lon="-3.15834">
        <ele>151.6</ele>
        <time>2023-04-10T09:39:30Z</time>
      </trkpt>
      <trkpt lat="48.02642" lon="-3.15817">
        <ele>151.8</ele>
        <time>2023-04-10T09:39:32Z</time>
      </trkpt>
      <trkpt lat="48.02639" lon="-3.15809">
        <ele>151.8</ele>
        <time>2023-04-10T09:39:33Z</time>
      </trkpt>
      <trkpt lat="48.02635" lon="-3.15802">
        <ele>151.8</ele>
        <time>2023-04-10T09:39:34Z</time>
      </trkpt>
      <trkpt lat="48.02631" lon="-3.15794">
        <ele>151.8</ele>
        <time>2023-04-10T09:39:35Z</time>
      </trkpt>
      <trkpt lat="48.02627" lon="-3.15788">
        <ele>151.8</ele>
        <time>2023-04-10T09:39:36Z</time>
      </trkpt>
      <trkpt lat="48.02623" lon="-3.15783">
        <ele>151.8</ele>
        <time>2023-04-10T09:39:37Z</time>
      </trkpt>
      <trkpt lat="48.02619" lon="-3.15778">
        <ele>151.8</ele>
        <time>2023-04-10T09:39:38Z</time>
      </trkpt>
      <trkpt lat="48.02615" lon="-3.15774">
        <ele>152</ele>
        <time>2023-04-10T09:39:39Z</time>
      </trkpt>
      <trkpt lat="48.0261" lon="-3.1577">
        <ele>152</ele>
        <time>2023-04-10T09:39:40Z</time>
      </trkpt>
      <trkpt lat="48.02606" lon="-3.15766">
        <ele>152</ele>
        <time>2023-04-10T09:39:41Z</time>
      </trkpt>
      <trkpt lat="48.02602" lon="-3.15762">
        <ele>152</ele>
        <time>2023-04-10T09:39:42Z</time>
      </trkpt>
      <trkpt lat="48.02598" lon="-3.15758">
        <ele>152.2</ele>
        <time>2023-04-10T09:39:43Z</time>
      </trkpt>
      <trkpt lat="48.02594" lon="-3.15754">
        <ele>152.2</ele>
        <time>2023-04-10T09:39:44Z</time>
      </trkpt>
      <trkpt lat="48.02589" lon="-3.15752">
        <ele>152.2</ele>
        <time>2023-04-10T09:39:45Z</time>
      </trkpt>
      <trkpt lat="48.02585" lon="-3.15749">
        <ele>152.2</ele>
        <time>2023-04-10T09:39:46Z</time>
      </trkpt>
      <trkpt lat="48.0258" lon="-3.15747">
        <ele>152.4</ele>
        <time>2023-04-10T09:39:47Z</time>
      </trkpt>
      <trkpt lat="48.02575" lon="-3.15746">
        <ele>152.6</ele>
        <time>2023-04-10T09:39:48Z</time>
      </trkpt>
      <trkpt lat="48.02566" lon="-3.15744">
        <ele>153</ele>
        <time>2023-04-10T09:39:50Z</time>
      </trkpt>
      <trkpt lat="48.02552" lon="-3.15745">
        <ele>153.6</ele>
        <time>2023-04-10T09:39:53Z</time>
      </trkpt>
      <trkpt lat="48.02543" lon="-3.15747">
        <ele>154</ele>
        <time>2023-04-10T09:39:55Z</time>
      </trkpt>
      <trkpt lat="48.02534" lon="-3.15748">
        <ele>154.2</ele>
        <time>2023-04-10T09:39:57Z</time>
      </trkpt>
      <trkpt lat="48.02529" lon="-3.15749">
        <ele>154.4</ele>
        <time>2023-04-10T09:39:58Z</time>
      </trkpt>
      <trkpt lat="48.0252" lon="-3.15748">
        <ele>154.4</ele>
        <time>2023-04-10T09:40:00Z</time>
      </trkpt>
      <trkpt lat="48.02515" lon="-3.15748">
        <ele>154.4</ele>
        <time>2023-04-10T09:40:01Z</time>
      </trkpt>
      <trkpt lat="48.0251" lon="-3.15748">
        <ele>154.6</ele>
        <time>2023-04-10T09:40:02Z</time>
      </trkpt>
      <trkpt lat="48.02507" lon="-3.15748">
        <ele>154.8</ele>
        <time>2023-04-10T09:40:03Z</time>
      </trkpt>
      <trkpt lat="48.02503" lon="-3.15748">
        <ele>155</ele>
        <time>2023-04-10T09:40:04Z</time>
      </trkpt>
      <trkpt lat="48.02497" lon="-3.15748">
        <ele>155.2</ele>
        <time>2023-04-10T09:40:05Z</time>
      </trkpt>
      <trkpt lat="48.02492" lon="-3.15747">
        <ele>155.4</ele>
        <time>2023-04-10T09:40:06Z</time>
      </trkpt>
      <trkpt lat="48.02486" lon="-3.15747">
        <ele>155.6</ele>
        <time>2023-04-10T09:40:07Z</time>
      </trkpt>
      <trkpt lat="48.02482" lon="-3.15747">
        <ele>155.6</ele>
        <time>2023-04-10T09:40:08Z</time>
      </trkpt>
      <trkpt lat="48.02477" lon="-3.15747">
        <ele>155.8</ele>
        <time>2023-04-10T09:40:09Z</time>
      </trkpt>
      <trkpt lat="48.02473" lon="-3.15747">
        <ele>156</ele>
        <time>2023-04-10T09:40:10Z</time>
      </trkpt>
      <trkpt lat="48.02469" lon="-3.15747">
        <ele>156.2</ele>
        <time>2023-04-10T09:40:11Z</time>
      </trkpt>
      <trkpt lat="48.02465" lon="-3.15746">
        <ele>156.4</ele>
        <time>2023-04-10T09:40:12Z</time>
      </trkpt>
      <trkpt lat="48.0246" lon="-3.15746">
        <ele>156.4</ele>
        <time>2023-04-10T09:40:13Z</time>
      </trkpt>
      <trkpt lat="48.02456" lon="-3.15745">
        <ele>156.6</ele>
        <time>2023-04-10T09:40:14Z</time>
      </trkpt>
      <trkpt lat="48.02452" lon="-3.15744">
        <ele>156.8</ele>
        <time>2023-04-10T09:40:15Z</time>
      </trkpt>
      <trkpt lat="48.02448" lon="-3.15742">
        <ele>156.8</ele>
        <time>2023-04-10T09:40:16Z</time>
      </trkpt>
      <trkpt lat="48.02445" lon="-3.15741">
        <ele>157</ele>
        <time>2023-04-10T09:40:17Z</time>
      </trkpt>
      <trkpt lat="48.02441" lon="-3.15739">
        <ele>157.2</ele>
        <time>2023-04-10T09:40:18Z</time>
      </trkpt>
      <trkpt lat="48.02437" lon="-3.15737">
        <ele>157.4</ele>
        <time>2023-04-10T09:40:19Z</time>
      </trkpt>
      <trkpt lat="48.02433" lon="-3.15735">
        <ele>157.6</ele>
        <time>2023-04-10T09:40:20Z</time>
      </trkpt>
      <trkpt lat="48.02429" lon="-3.15733">
        <ele>157.6</ele>
        <time>2023-04-10T09:40:21Z</time>
      </trkpt>
      <trkpt lat="48.02426" lon="-3.15731">
        <ele>157.8</ele>
        <time>2023-04-10T09:40:22Z</time>
      </trkpt>
      <trkpt lat="48.02422" lon="-3.15729">
        <ele>157.8</ele>
        <time>2023-04-10T09:40:23Z</time>
      </trkpt>
      <trkpt lat="48.02419" lon="-3.15727">
        <ele>158</ele>
        <time>2023-04-10T09:40:24Z</time>
      </trkpt>
      <trkpt lat="48.02415" lon="-3.15725">
        <ele>158.2</ele>
        <time>2023-04-10T09:40:25Z</time>
      </trkpt>
      <trkpt lat="48.02412" lon="-3.15723">
        <ele>158.2</ele>
        <time>2023-04-10T09:40:26Z</time>
      </trkpt>
      <trkpt lat="48.02408" lon="-3.15721">
        <ele>158.4</ele>
        <time>2023-04-10T09:40:27Z</time>
      </trkpt>
      <trkpt lat="48.02404" lon="-3.1572">
        <ele>158.6</ele>
        <time>2023-04-10T09:40:28Z</time>
      </trkpt>
      <trkpt lat="48.024" lon="-3.15719">
        <ele>158.6</ele>
        <time>2023-04-10T09:40:29Z</time>
      </trkpt>
      <trkpt lat="48.02397" lon="-3.15717">
        <ele>158.8</ele>
        <time>2023-04-10T09:40:30Z</time>
      </trkpt>
      <trkpt lat="48.02393" lon="-3.15716">
        <ele>159</ele>
        <time>2023-04-10T09:40:31Z</time>
      </trkpt>
      <trkpt lat="48.0239" lon="-3.15715">
        <ele>159.2</ele>
        <time>2023-04-10T09:40:32Z</time>
      </trkpt>
      <trkpt lat="48.02387" lon="-3.15714">
        <ele>159.4</ele>
        <time>2023-04-10T09:40:33Z</time>
      </trkpt>
      <trkpt lat="48.02383" lon="-3.15713">
        <ele>159.6</ele>
        <time>2023-04-10T09:40:34Z</time>
      </trkpt>
      <trkpt lat="48.0238" lon="-3.15713">
        <ele>160</ele>
        <time>2023-04-10T09:40:35Z</time>
      </trkpt>
      <trkpt lat="48.02377" lon="-3.15712">
        <ele>160.2</ele>
        <time>2023-04-10T09:40:36Z</time>
      </trkpt>
      <trkpt lat="48.02373" lon="-3.15711">
        <ele>160.4</ele>
        <time>2023-04-10T09:40:37Z</time>
      </trkpt>
      <trkpt lat="48.02369" lon="-3.15711">
        <ele>160.6</ele>
        <time>2023-04-10T09:40:38Z</time>
      </trkpt>
      <trkpt lat="48.02365" lon="-3.1571">
        <ele>160.8</ele>
        <time>2023-04-10T09:40:39Z</time>
      </trkpt>
      <trkpt lat="48.02362" lon="-3.1571">
        <ele>161</ele>
        <time>2023-04-10T09:40:40Z</time>
      </trkpt>
      <trkpt lat="48.02359" lon="-3.1571">
        <ele>161.2</ele>
        <time>2023-04-10T09:40:41Z</time>
      </trkpt>
      <trkpt lat="48.02356" lon="-3.1571">
        <ele>161.4</ele>
        <time>2023-04-10T09:40:42Z</time>
      </trkpt>
      <trkpt lat="48.02352" lon="-3.15709">
        <ele>161.6</ele>
        <time>2023-04-10T09:40:43Z</time>
      </trkpt>
      <trkpt lat="48.02349" lon="-3.15709">
        <ele>161.8</ele>
        <time>2023-04-10T09:40:44Z</time>
      </trkpt>
      <trkpt lat="48.02346" lon="-3.15709">
        <ele>161.8</ele>
        <time>2023-04-10T09:40:45Z</time>
      </trkpt>
      <trkpt lat="48.02343" lon="-3.15709">
        <ele>161.8</ele>
        <time>2023-04-10T09:40:46Z</time>
      </trkpt>
      <trkpt lat="48.0234" lon="-3.15708">
        <ele>162</ele>
        <time>2023-04-10T09:40:47Z</time>
      </trkpt>
      <trkpt lat="48.02337" lon="-3.15707">
        <ele>162.2</ele>
        <time>2023-04-10T09:40:48Z</time>
      </trkpt>
      <trkpt lat="48.02333" lon="-3.15706">
        <ele>162.4</ele>
        <time>2023-04-10T09:40:49Z</time>
      </trkpt>
      <trkpt lat="48.0233" lon="-3.15704">
        <ele>162.6</ele>
        <time>2023-04-10T09:40:50Z</time>
      </trkpt>
      <trkpt lat="48.02326" lon="-3.15703">
        <ele>162.8</ele>
        <time>2023-04-10T09:40:51Z</time>
      </trkpt>
      <trkpt lat="48.02323" lon="-3.15701">
        <ele>163</ele>
        <time>2023-04-10T09:40:52Z</time>
      </trkpt>
      <trkpt lat="48.02319" lon="-3.15699">
        <ele>163.2</ele>
        <time>2023-04-10T09:40:53Z</time>
      </trkpt>
      <trkpt lat="48.02316" lon="-3.15697">
        <ele>163.4</ele>
        <time>2023-04-10T09:40:54Z</time>
      </trkpt>
      <trkpt lat="48.02313" lon="-3.15695">
        <ele>163.6</ele>
        <time>2023-04-10T09:40:55Z</time>
      </trkpt>
      <trkpt lat="48.02311" lon="-3.15693">
        <ele>164</ele>
        <time>2023-04-10T09:40:56Z</time>
      </trkpt>
      <trkpt lat="48.02308" lon="-3.1569">
        <ele>164</ele>
        <time>2023-04-10T09:40:57Z</time>
      </trkpt>
      <trkpt lat="48.02306" lon="-3.15688">
        <ele>164.2</ele>
        <time>2023-04-10T09:40:58Z</time>
      </trkpt>
      <trkpt lat="48.02303" lon="-3.15684">
        <ele>164.4</ele>
        <time>2023-04-10T09:40:59Z</time>
      </trkpt>
      <trkpt lat="48.02299" lon="-3.15681">
        <ele>164.6</ele>
        <time>2023-04-10T09:41:00Z</time>
      </trkpt>
      <trkpt lat="48.02296" lon="-3.15677">
        <ele>165</ele>
        <time>2023-04-10T09:41:01Z</time>
      </trkpt>
      <trkpt lat="48.02293" lon="-3.15674">
        <ele>165</ele>
        <time>2023-04-10T09:41:02Z</time>
      </trkpt>
      <trkpt lat="48.0229" lon="-3.15671">
        <ele>165.2</ele>
        <time>2023-04-10T09:41:03Z</time>
      </trkpt>
      <trkpt lat="48.02287" lon="-3.15669">
        <ele>165.2</ele>
        <time>2023-04-10T09:41:04Z</time>
      </trkpt>
      <trkpt lat="48.02284" lon="-3.15666">
        <ele>165.4</ele>
        <time>2023-04-10T09:41:05Z</time>
      </trkpt>
      <trkpt lat="48.02281" lon="-3.15663">
        <ele>165.6</ele>
        <time>2023-04-10T09:41:06Z</time>
      </trkpt>
      <trkpt lat="48.02278" lon="-3.1566">
        <ele>165.6</ele>
        <time>2023-04-10T09:41:07Z</time>
      </trkpt>
      <trkpt lat="48.02275" lon="-3.15657">
        <ele>165.8</ele>
        <time>2023-04-10T09:41:08Z</time>
      </trkpt>
      <trkpt lat="48.02273" lon="-3.15654">
        <ele>165.8</ele>
        <time>2023-04-10T09:41:09Z</time>
      </trkpt>
      <trkpt lat="48.0227" lon="-3.15649">
        <ele>166.2</ele>
        <time>2023-04-10T09:41:10Z</time>
      </trkpt>
      <trkpt lat="48.02269" lon="-3.15644">
        <ele>166.4</ele>
        <time>2023-04-10T09:41:11Z</time>
      </trkpt>
      <trkpt lat="48.0227" lon="-3.15639">
        <ele>166.6</ele>
        <time>2023-04-10T09:41:12Z</time>
      </trkpt>
      <trkpt lat="48.02273" lon="-3.15635">
        <ele>167</ele>
        <time>2023-04-10T09:41:13Z</time>
      </trkpt>
      <trkpt lat="48.02275" lon="-3.15631">
        <ele>167.2</ele>
        <time>2023-04-10T09:41:14Z</time>
      </trkpt>
      <trkpt lat="48.02278" lon="-3.15627">
        <ele>167.4</ele>
        <time>2023-04-10T09:41:15Z</time>
      </trkpt>
      <trkpt lat="48.02282" lon="-3.15622">
        <ele>167.4</ele>
        <time>2023-04-10T09:41:16Z</time>
      </trkpt>
      <trkpt lat="48.02285" lon="-3.15617">
        <ele>167.6</ele>
        <time>2023-04-10T09:41:17Z</time>
      </trkpt>
      <trkpt lat="48.02289" lon="-3.15612">
        <ele>167.6</ele>
        <time>2023-04-10T09:41:18Z</time>
      </trkpt>
      <trkpt lat="48.02292" lon="-3.15606">
        <ele>167.6</ele>
        <time>2023-04-10T09:41:19Z</time>
      </trkpt>
      <trkpt lat="48.02295" lon="-3.15601">
        <ele>167.8</ele>
        <time>2023-04-10T09:41:20Z</time>
      </trkpt>
      <trkpt lat="48.02298" lon="-3.15595">
        <ele>167.8</ele>
        <time>2023-04-10T09:41:21Z</time>
      </trkpt>
      <trkpt lat="48.023" lon="-3.15588">
        <ele>168</ele>
        <time>2023-04-10T09:41:22Z</time>
      </trkpt>
      <trkpt lat="48.02302" lon="-3.15582">
        <ele>168</ele>
        <time>2023-04-10T09:41:23Z</time>
      </trkpt>
      <trkpt lat="48.02305" lon="-3.15575">
        <ele>168</ele>
        <time>2023-04-10T09:41:24Z</time>
      </trkpt>
      <trkpt lat="48.02307" lon="-3.15568">
        <ele>168</ele>
        <time>2023-04-10T09:41:25Z</time>
      </trkpt>
      <trkpt lat="48.02309" lon="-3.15561">
        <ele>168</ele>
        <time>2023-04-10T09:41:26Z</time>
      </trkpt>
      <trkpt lat="48.02311" lon="-3.15553">
        <ele>168</ele>
        <time>2023-04-10T09:41:27Z</time>
      </trkpt>
      <trkpt lat="48.02313" lon="-3.15545">
        <ele>168</ele>
        <time>2023-04-10T09:41:28Z</time>
      </trkpt>
      <trkpt lat="48.02315" lon="-3.15537">
        <ele>168</ele>
        <time>2023-04-10T09:41:29Z</time>
      </trkpt>
      <trkpt lat="48.02317" lon="-3.15529">
        <ele>168</ele>
        <time>2023-04-10T09:41:30Z</time>
      </trkpt>
      <trkpt lat="48.02318" lon="-3.15519">
        <ele>168</ele>
        <time>2023-04-10T09:41:31Z</time>
      </trkpt>
      <trkpt lat="48.02319" lon="-3.1551">
        <ele>168</ele>
        <time>2023-04-10T09:41:32Z</time>
      </trkpt>
      <trkpt lat="48.02321" lon="-3.155">
        <ele>168</ele>
        <time>2023-04-10T09:41:33Z</time>
      </trkpt>
      <trkpt lat="48.02322" lon="-3.15489">
        <ele>167.8</ele>
        <time>2023-04-10T09:41:34Z</time>
      </trkpt>
      <trkpt lat="48.02323" lon="-3.15479">
        <ele>167.4</ele>
        <time>2023-04-10T09:41:35Z</time>
      </trkpt>
      <trkpt lat="48.02324" lon="-3.15468">
        <ele>167.4</ele>
        <time>2023-04-10T09:41:36Z</time>
      </trkpt>
      <trkpt lat="48.02327" lon="-3.1544">
        <ele>166.8</ele>
        <time>2023-04-10T09:41:39Z</time>
      </trkpt>
      <trkpt lat="48.02329" lon="-3.15428">
        <ele>166.6</ele>
        <time>2023-04-10T09:41:40Z</time>
      </trkpt>
      <trkpt lat="48.02332" lon="-3.15419">
        <ele>166.4</ele>
        <time>2023-04-10T09:41:41Z</time>
      </trkpt>
      <trkpt lat="48.02335" lon="-3.15411">
        <ele>166</ele>
        <time>2023-04-10T09:41:42Z</time>
      </trkpt>
      <trkpt lat="48.02339" lon="-3.15404">
        <ele>165.8</ele>
        <time>2023-04-10T09:41:43Z</time>
      </trkpt>
      <trkpt lat="48.02343" lon="-3.15397">
        <ele>165.6</ele>
        <time>2023-04-10T09:41:44Z</time>
      </trkpt>
      <trkpt lat="48.02351" lon="-3.15385">
        <ele>165</ele>
        <time>2023-04-10T09:41:46Z</time>
      </trkpt>
      <trkpt lat="48.02356" lon="-3.15377">
        <ele>164.8</ele>
        <time>2023-04-10T09:41:47Z</time>
      </trkpt>
      <trkpt lat="48.02386" lon="-3.15317">
        <ele>164.6</ele>
        <time>2023-04-10T09:41:55Z</time>
      </trkpt>
      <trkpt lat="48.0239" lon="-3.15309">
        <ele>164.6</ele>
        <time>2023-04-10T09:41:56Z</time>
      </trkpt>
      <trkpt lat="48.02393" lon="-3.15301">
        <ele>164.6</ele>
        <time>2023-04-10T09:41:57Z</time>
      </trkpt>
      <trkpt lat="48.02395" lon="-3.15292">
        <ele>164.6</ele>
        <time>2023-04-10T09:41:58Z</time>
      </trkpt>
      <trkpt lat="48.02396" lon="-3.15282">
        <ele>164.6</ele>
        <time>2023-04-10T09:41:59Z</time>
      </trkpt>
      <trkpt lat="48.02396" lon="-3.15273">
        <ele>164.6</ele>
        <time>2023-04-10T09:42:00Z</time>
      </trkpt>
      <trkpt lat="48.02395" lon="-3.15263">
        <ele>164.6</ele>
        <time>2023-04-10T09:42:01Z</time>
      </trkpt>
      <trkpt lat="48.02393" lon="-3.15254">
        <ele>164.6</ele>
        <time>2023-04-10T09:42:02Z</time>
      </trkpt>
      <trkpt lat="48.0239" lon="-3.15245">
        <ele>164.6</ele>
        <time>2023-04-10T09:42:03Z</time>
      </trkpt>
      <trkpt lat="48.02381" lon="-3.15202">
        <ele>164.6</ele>
        <time>2023-04-10T09:42:08Z</time>
      </trkpt>
      <trkpt lat="48.02381" lon="-3.15184">
        <ele>164.6</ele>
        <time>2023-04-10T09:42:10Z</time>
      </trkpt>
      <trkpt lat="48.02383" lon="-3.15174">
        <ele>164.6</ele>
        <time>2023-04-10T09:42:11Z</time>
      </trkpt>
      <trkpt lat="48.02385" lon="-3.15165">
        <ele>164.6</ele>
        <time>2023-04-10T09:42:12Z</time>
      </trkpt>
      <trkpt lat="48.02387" lon="-3.15158">
        <ele>164.6</ele>
        <time>2023-04-10T09:42:13Z</time>
      </trkpt>
      <trkpt lat="48.0239" lon="-3.1515">
        <ele>164.6</ele>
        <time>2023-04-10T09:42:14Z</time>
      </trkpt>
      <trkpt lat="48.02393" lon="-3.15143">
        <ele>164.6</ele>
        <time>2023-04-10T09:42:15Z</time>
      </trkpt>
      <trkpt lat="48.02396" lon="-3.15136">
        <ele>164.6</ele>
        <time>2023-04-10T09:42:16Z</time>
      </trkpt>
      <trkpt lat="48.02398" lon="-3.1513">
        <ele>164.6</ele>
        <time>2023-04-10T09:42:17Z</time>
      </trkpt>
      <trkpt lat="48.02401" lon="-3.15125">
        <ele>164.8</ele>
        <time>2023-04-10T09:42:18Z</time>
      </trkpt>
      <trkpt lat="48.02404" lon="-3.15119">
        <ele>164.8</ele>
        <time>2023-04-10T09:42:19Z</time>
      </trkpt>
      <trkpt lat="48.02407" lon="-3.15112">
        <ele>164.8</ele>
        <time>2023-04-10T09:42:20Z</time>
      </trkpt>
      <trkpt lat="48.0241" lon="-3.15105">
        <ele>164.8</ele>
        <time>2023-04-10T09:42:21Z</time>
      </trkpt>
      <trkpt lat="48.02416" lon="-3.15084">
        <ele>165.4</ele>
        <time>2023-04-10T09:42:24Z</time>
      </trkpt>
      <trkpt lat="48.02418" lon="-3.15076">
        <ele>165.4</ele>
        <time>2023-04-10T09:42:25Z</time>
      </trkpt>
      <trkpt lat="48.02426" lon="-3.15038">
        <ele>166</ele>
        <time>2023-04-10T09:42:29Z</time>
      </trkpt>
      <trkpt lat="48.02428" lon="-3.15027">
        <ele>166</ele>
        <time>2023-04-10T09:42:30Z</time>
      </trkpt>
      <trkpt lat="48.02439" lon="-3.14974">
        <ele>166.2</ele>
        <time>2023-04-10T09:42:35Z</time>
      </trkpt>
      <trkpt lat="48.02453" lon="-3.14893">
        <ele>165.2</ele>
        <time>2023-04-10T09:42:42Z</time>
      </trkpt>
      <trkpt lat="48.02454" lon="-3.14859">
        <ele>164.6</ele>
        <time>2023-04-10T09:42:45Z</time>
      </trkpt>
      <trkpt lat="48.02454" lon="-3.14847">
        <ele>164.4</ele>
        <time>2023-04-10T09:42:46Z</time>
      </trkpt>
      <trkpt lat="48.02455" lon="-3.14836">
        <ele>164</ele>
        <time>2023-04-10T09:42:47Z</time>
      </trkpt>
      <trkpt lat="48.02455" lon="-3.14824">
        <ele>163.8</ele>
        <time>2023-04-10T09:42:48Z</time>
      </trkpt>
      <trkpt lat="48.02456" lon="-3.14813">
        <ele>163.4</ele>
        <time>2023-04-10T09:42:49Z</time>
      </trkpt>
      <trkpt lat="48.02456" lon="-3.14802">
        <ele>163.2</ele>
        <time>2023-04-10T09:42:50Z</time>
      </trkpt>
      <trkpt lat="48.02457" lon="-3.14792">
        <ele>162.6</ele>
        <time>2023-04-10T09:42:51Z</time>
      </trkpt>
      <trkpt lat="48.02459" lon="-3.14782">
        <ele>162.2</ele>
        <time>2023-04-10T09:42:52Z</time>
      </trkpt>
      <trkpt lat="48.0246" lon="-3.14773">
        <ele>161.8</ele>
        <time>2023-04-10T09:42:53Z</time>
      </trkpt>
      <trkpt lat="48.02462" lon="-3.14764">
        <ele>161.4</ele>
        <time>2023-04-10T09:42:54Z</time>
      </trkpt>
      <trkpt lat="48.02463" lon="-3.14755">
        <ele>161</ele>
        <time>2023-04-10T09:42:55Z</time>
      </trkpt>
      <trkpt lat="48.02465" lon="-3.14746">
        <ele>160.6</ele>
        <time>2023-04-10T09:42:56Z</time>
      </trkpt>
      <trkpt lat="48.02467" lon="-3.14738">
        <ele>160.6</ele>
        <time>2023-04-10T09:42:57Z</time>
      </trkpt>
      <trkpt lat="48.02469" lon="-3.1473">
        <ele>160.4</ele>
        <time>2023-04-10T09:42:58Z</time>
      </trkpt>
      <trkpt lat="48.02471" lon="-3.14722">
        <ele>160.4</ele>
        <time>2023-04-10T09:42:59Z</time>
      </trkpt>
      <trkpt lat="48.02473" lon="-3.14714">
        <ele>160.4</ele>
        <time>2023-04-10T09:43:00Z</time>
      </trkpt>
      <trkpt lat="48.02475" lon="-3.14706">
        <ele>160.4</ele>
        <time>2023-04-10T09:43:01Z</time>
      </trkpt>
      <trkpt lat="48.02477" lon="-3.14699">
        <ele>160.4</ele>
        <time>2023-04-10T09:43:02Z</time>
      </trkpt>
      <trkpt lat="48.02478" lon="-3.14692">
        <ele>160.4</ele>
        <time>2023-04-10T09:43:03Z</time>
      </trkpt>
      <trkpt lat="48.0248" lon="-3.14685">
        <ele>160.4</ele>
        <time>2023-04-10T09:43:04Z</time>
      </trkpt>
      <trkpt lat="48.02482" lon="-3.14678">
        <ele>160.4</ele>
        <time>2023-04-10T09:43:05Z</time>
      </trkpt>
      <trkpt lat="48.02485" lon="-3.14672">
        <ele>160.4</ele>
        <time>2023-04-10T09:43:06Z</time>
      </trkpt>
      <trkpt lat="48.02487" lon="-3.14666">
        <ele>160.4</ele>
        <time>2023-04-10T09:43:07Z</time>
      </trkpt>
      <trkpt lat="48.02489" lon="-3.1466">
        <ele>160.4</ele>
        <time>2023-04-10T09:43:08Z</time>
      </trkpt>
      <trkpt lat="48.02492" lon="-3.14655">
        <ele>160.6</ele>
        <time>2023-04-10T09:43:09Z</time>
      </trkpt>
      <trkpt lat="48.02494" lon="-3.14649">
        <ele>160.8</ele>
        <time>2023-04-10T09:43:10Z</time>
      </trkpt>
      <trkpt lat="48.02501" lon="-3.14633">
        <ele>161.8</ele>
        <time>2023-04-10T09:43:13Z</time>
      </trkpt>
      <trkpt lat="48.02506" lon="-3.14624">
        <ele>162.4</ele>
        <time>2023-04-10T09:43:15Z</time>
      </trkpt>
      <trkpt lat="48.02508" lon="-3.1462">
        <ele>162.8</ele>
        <time>2023-04-10T09:43:16Z</time>
      </trkpt>
      <trkpt lat="48.02511" lon="-3.14615">
        <ele>163</ele>
        <time>2023-04-10T09:43:17Z</time>
      </trkpt>
      <trkpt lat="48.02514" lon="-3.14611">
        <ele>163.2</ele>
        <time>2023-04-10T09:43:18Z</time>
      </trkpt>
      <trkpt lat="48.02517" lon="-3.14606">
        <ele>163.4</ele>
        <time>2023-04-10T09:43:19Z</time>
      </trkpt>
      <trkpt lat="48.0252" lon="-3.14602">
        <ele>163.6</ele>
        <time>2023-04-10T09:43:20Z</time>
      </trkpt>
      <trkpt lat="48.02522" lon="-3.14597">
        <ele>163.8</ele>
        <time>2023-04-10T09:43:21Z</time>
      </trkpt>
      <trkpt lat="48.02524" lon="-3.14592">
        <ele>164</ele>
        <time>2023-04-10T09:43:22Z</time>
      </trkpt>
      <trkpt lat="48.02524" lon="-3.14587">
        <ele>164.2</ele>
        <time>2023-04-10T09:43:23Z</time>
      </trkpt>
      <trkpt lat="48.02524" lon="-3.14581">
        <ele>164.6</ele>
        <time>2023-04-10T09:43:24Z</time>
      </trkpt>
      <trkpt lat="48.02524" lon="-3.14576">
        <ele>164.6</ele>
        <time>2023-04-10T09:43:25Z</time>
      </trkpt>
      <trkpt lat="48.02523" lon="-3.14571">
        <ele>164.8</ele>
        <time>2023-04-10T09:43:26Z</time>
      </trkpt>
      <trkpt lat="48.02522" lon="-3.14567">
        <ele>165</ele>
        <time>2023-04-10T09:43:27Z</time>
      </trkpt>
      <trkpt lat="48.0252" lon="-3.14562">
        <ele>165.4</ele>
        <time>2023-04-10T09:43:28Z</time>
      </trkpt>
      <trkpt lat="48.02518" lon="-3.14557">
        <ele>165.6</ele>
        <time>2023-04-10T09:43:29Z</time>
      </trkpt>
      <trkpt lat="48.02515" lon="-3.14553">
        <ele>166</ele>
        <time>2023-04-10T09:43:30Z</time>
      </trkpt>
      <trkpt lat="48.02513" lon="-3.14548">
        <ele>166.2</ele>
        <time>2023-04-10T09:43:31Z</time>
      </trkpt>
      <trkpt lat="48.0251" lon="-3.14544">
        <ele>166.4</ele>
        <time>2023-04-10T09:43:32Z</time>
      </trkpt>
      <trkpt lat="48.02507" lon="-3.14539">
        <ele>166.8</ele>
        <time>2023-04-10T09:43:33Z</time>
      </trkpt>
      <trkpt lat="48.02504" lon="-3.14534">
        <ele>167.2</ele>
        <time>2023-04-10T09:43:34Z</time>
      </trkpt>
      <trkpt lat="48.025" lon="-3.1453">
        <ele>167.4</ele>
        <time>2023-04-10T09:43:35Z</time>
      </trkpt>
      <trkpt lat="48.02497" lon="-3.14527">
        <ele>167.6</ele>
        <time>2023-04-10T09:43:36Z</time>
      </trkpt>
      <trkpt lat="48.02493" lon="-3.14523">
        <ele>167.8</ele>
        <time>2023-04-10T09:43:37Z</time>
      </trkpt>
      <trkpt lat="48.0249" lon="-3.1452">
        <ele>168</ele>
        <time>2023-04-10T09:43:38Z</time>
      </trkpt>
      <trkpt lat="48.02487" lon="-3.14517">
        <ele>168</ele>
        <time>2023-04-10T09:43:39Z</time>
      </trkpt>
      <trkpt lat="48.02483" lon="-3.14514">
        <ele>168</ele>
        <time>2023-04-10T09:43:40Z</time>
      </trkpt>
      <trkpt lat="48.02481" lon="-3.14512">
        <ele>168.2</ele>
        <time>2023-04-10T09:43:41Z</time>
      </trkpt>
      <trkpt lat="48.0248" lon="-3.14511">
        <ele>168.4</ele>
        <time>2023-04-10T09:43:42Z</time>
      </trkpt>
      <trkpt lat="48.02477" lon="-3.14509">
        <ele>168.6</ele>
        <time>2023-04-10T09:43:43Z</time>
      </trkpt>
      <trkpt lat="48.02475" lon="-3.14507">
        <ele>168.6</ele>
        <time>2023-04-10T09:43:44Z</time>
      </trkpt>
      <trkpt lat="48.02472" lon="-3.14504">
        <ele>168.8</ele>
        <time>2023-04-10T09:43:45Z</time>
      </trkpt>
      <trkpt lat="48.02469" lon="-3.14502">
        <ele>169</ele>
        <time>2023-04-10T09:43:46Z</time>
      </trkpt>
      <trkpt lat="48.02467" lon="-3.145">
        <ele>169</ele>
        <time>2023-04-10T09:43:47Z</time>
      </trkpt>
      <trkpt lat="48.02465" lon="-3.14498">
        <ele>169.2</ele>
        <time>2023-04-10T09:43:48Z</time>
      </trkpt>
      <trkpt lat="48.02463" lon="-3.14496">
        <ele>169.6</ele>
        <time>2023-04-10T09:43:49Z</time>
      </trkpt>
      <trkpt lat="48.0246" lon="-3.14494">
        <ele>169.8</ele>
        <time>2023-04-10T09:43:50Z</time>
      </trkpt>
      <trkpt lat="48.02458" lon="-3.14492">
        <ele>169.8</ele>
        <time>2023-04-10T09:43:51Z</time>
      </trkpt>
      <trkpt lat="48.02456" lon="-3.1449">
        <ele>170</ele>
        <time>2023-04-10T09:43:52Z</time>
      </trkpt>
      <trkpt lat="48.02453" lon="-3.14487">
        <ele>170</ele>
        <time>2023-04-10T09:43:53Z</time>
      </trkpt>
      <trkpt lat="48.0245" lon="-3.14485">
        <ele>170.2</ele>
        <time>2023-04-10T09:43:54Z</time>
      </trkpt>
      <trkpt lat="48.02448" lon="-3.14482">
        <ele>170.2</ele>
        <time>2023-04-10T09:43:55Z</time>
      </trkpt>
      <trkpt lat="48.02445" lon="-3.1448">
        <ele>170.4</ele>
        <time>2023-04-10T09:43:56Z</time>
      </trkpt>
      <trkpt lat="48.02443" lon="-3.14477">
        <ele>170.4</ele>
        <time>2023-04-10T09:43:57Z</time>
      </trkpt>
      <trkpt lat="48.02441" lon="-3.14475">
        <ele>170.6</ele>
        <time>2023-04-10T09:43:58Z</time>
      </trkpt>
      <trkpt lat="48.02439" lon="-3.14472">
        <ele>170.8</ele>
        <time>2023-04-10T09:43:59Z</time>
      </trkpt>
      <trkpt lat="48.02437" lon="-3.14469">
        <ele>171</ele>
        <time>2023-04-10T09:44:00Z</time>
      </trkpt>
      <trkpt lat="48.02436" lon="-3.14466">
        <ele>171</ele>
        <time>2023-04-10T09:44:01Z</time>
      </trkpt>
      <trkpt lat="48.02434" lon="-3.14462">
        <ele>171</ele>
        <time>2023-04-10T09:44:02Z</time>
      </trkpt>
      <trkpt lat="48.02434" lon="-3.14459">
        <ele>171.2</ele>
        <time>2023-04-10T09:44:03Z</time>
      </trkpt>
      <trkpt lat="48.02434" lon="-3.14456">
        <ele>171.2</ele>
        <time>2023-04-10T09:44:04Z</time>
      </trkpt>
      <trkpt lat="48.02433" lon="-3.14454">
        <ele>171.2</ele>
        <time>2023-04-10T09:44:05Z</time>
      </trkpt>
      <trkpt lat="48.02433" lon="-3.14451">
        <ele>171.4</ele>
        <time>2023-04-10T09:44:06Z</time>
      </trkpt>
      <trkpt lat="48.02431" lon="-3.14448">
        <ele>171.6</ele>
        <time>2023-04-10T09:44:07Z</time>
      </trkpt>
      <trkpt lat="48.0243" lon="-3.14445">
        <ele>171.8</ele>
        <time>2023-04-10T09:44:08Z</time>
      </trkpt>
      <trkpt lat="48.02428" lon="-3.14442">
        <ele>171.8</ele>
        <time>2023-04-10T09:44:09Z</time>
      </trkpt>
      <trkpt lat="48.02427" lon="-3.14438">
        <ele>172.2</ele>
        <time>2023-04-10T09:44:10Z</time>
      </trkpt>
      <trkpt lat="48.02425" lon="-3.14436">
        <ele>172.6</ele>
        <time>2023-04-10T09:44:11Z</time>
      </trkpt>
      <trkpt lat="48.02423" lon="-3.14433">
        <ele>172.8</ele>
        <time>2023-04-10T09:44:12Z</time>
      </trkpt>
      <trkpt lat="48.02421" lon="-3.14431">
        <ele>173.2</ele>
        <time>2023-04-10T09:44:13Z</time>
      </trkpt>
      <trkpt lat="48.02419" lon="-3.14428">
        <ele>173.4</ele>
        <time>2023-04-10T09:44:14Z</time>
      </trkpt>
      <trkpt lat="48.02417" lon="-3.14426">
        <ele>173.6</ele>
        <time>2023-04-10T09:44:15Z</time>
      </trkpt>
      <trkpt lat="48.02415" lon="-3.14424">
        <ele>173.8</ele>
        <time>2023-04-10T09:44:16Z</time>
      </trkpt>
      <trkpt lat="48.02412" lon="-3.1442">
        <ele>174.2</ele>
        <time>2023-04-10T09:44:17Z</time>
      </trkpt>
      <trkpt lat="48.0241" lon="-3.14417">
        <ele>174.4</ele>
        <time>2023-04-10T09:44:18Z</time>
      </trkpt>
      <trkpt lat="48.02407" lon="-3.14414">
        <ele>174.6</ele>
        <time>2023-04-10T09:44:19Z</time>
      </trkpt>
      <trkpt lat="48.02406" lon="-3.14412">
        <ele>175</ele>
        <time>2023-04-10T09:44:20Z</time>
      </trkpt>
      <trkpt lat="48.02404" lon="-3.1441">
        <ele>175.2</ele>
        <time>2023-04-10T09:44:21Z</time>
      </trkpt>
      <trkpt lat="48.02401" lon="-3.14407">
        <ele>175.2</ele>
        <time>2023-04-10T09:44:22Z</time>
      </trkpt>
      <trkpt lat="48.02399" lon="-3.14405">
        <ele>175.4</ele>
        <time>2023-04-10T09:44:23Z</time>
      </trkpt>
      <trkpt lat="48.02397" lon="-3.14402">
        <ele>175.6</ele>
        <time>2023-04-10T09:44:24Z</time>
      </trkpt>
      <trkpt lat="48.02395" lon="-3.14399">
        <ele>175.8</ele>
        <time>2023-04-10T09:44:25Z</time>
      </trkpt>
      <trkpt lat="48.02393" lon="-3.14397">
        <ele>176</ele>
        <time>2023-04-10T09:44:26Z</time>
      </trkpt>
      <trkpt lat="48.0239" lon="-3.14395">
        <ele>176</ele>
        <time>2023-04-10T09:44:27Z</time>
      </trkpt>
      <trkpt lat="48.02388" lon="-3.14392">
        <ele>176.2</ele>
        <time>2023-04-10T09:44:28Z</time>
      </trkpt>
      <trkpt lat="48.02386" lon="-3.1439">
        <ele>176.4</ele>
        <time>2023-04-10T09:44:29Z</time>
      </trkpt>
      <trkpt lat="48.02384" lon="-3.14387">
        <ele>176.4</ele>
        <time>2023-04-10T09:44:30Z</time>
      </trkpt>
      <trkpt lat="48.02382" lon="-3.14385">
        <ele>176.4</ele>
        <time>2023-04-10T09:44:31Z</time>
      </trkpt>
      <trkpt lat="48.0238" lon="-3.14382">
        <ele>176.6</ele>
        <time>2023-04-10T09:44:32Z</time>
      </trkpt>
      <trkpt lat="48.02379" lon="-3.1438">
        <ele>176.6</ele>
        <time>2023-04-10T09:44:33Z</time>
      </trkpt>
      <trkpt lat="48.02376" lon="-3.14376">
        <ele>176.8</ele>
        <time>2023-04-10T09:44:34Z</time>
      </trkpt>
      <trkpt lat="48.02372" lon="-3.14373">
        <ele>177</ele>
        <time>2023-04-10T09:44:35Z</time>
      </trkpt>
      <trkpt lat="48.02369" lon="-3.1437">
        <ele>177</ele>
        <time>2023-04-10T09:44:36Z</time>
      </trkpt>
      <trkpt lat="48.02366" lon="-3.14367">
        <ele>177</ele>
        <time>2023-04-10T09:44:37Z</time>
      </trkpt>
      <trkpt lat="48.02363" lon="-3.14365">
        <ele>177.2</ele>
        <time>2023-04-10T09:44:38Z</time>
      </trkpt>
      <trkpt lat="48.0236" lon="-3.1436">
        <ele>177.2</ele>
        <time>2023-04-10T09:44:39Z</time>
      </trkpt>
      <trkpt lat="48.02356" lon="-3.14358">
        <ele>177.4</ele>
        <time>2023-04-10T09:44:40Z</time>
      </trkpt>
      <trkpt lat="48.02354" lon="-3.14355">
        <ele>177.4</ele>
        <time>2023-04-10T09:44:41Z</time>
      </trkpt>
      <trkpt lat="48.02352" lon="-3.14352">
        <ele>177.6</ele>
        <time>2023-04-10T09:44:42Z</time>
      </trkpt>
      <trkpt lat="48.02349" lon="-3.1435">
        <ele>177.6</ele>
        <time>2023-04-10T09:44:43Z</time>
      </trkpt>
      <trkpt lat="48.02346" lon="-3.14349">
        <ele>177.8</ele>
        <time>2023-04-10T09:44:44Z</time>
      </trkpt>
      <trkpt lat="48.02343" lon="-3.14348">
        <ele>177.8</ele>
        <time>2023-04-10T09:44:45Z</time>
      </trkpt>
      <trkpt lat="48.0234" lon="-3.14346">
        <ele>177.8</ele>
        <time>2023-04-10T09:44:46Z</time>
      </trkpt>
      <trkpt lat="48.02336" lon="-3.14344">
        <ele>178</ele>
        <time>2023-04-10T09:44:47Z</time>
      </trkpt>
      <trkpt lat="48.02332" lon="-3.14343">
        <ele>178</ele>
        <time>2023-04-10T09:44:48Z</time>
      </trkpt>
      <trkpt lat="48.02329" lon="-3.14341">
        <ele>178</ele>
        <time>2023-04-10T09:44:49Z</time>
      </trkpt>
      <trkpt lat="48.02326" lon="-3.14339">
        <ele>178</ele>
        <time>2023-04-10T09:44:50Z</time>
      </trkpt>
      <trkpt lat="48.02321" lon="-3.14336">
        <ele>178</ele>
        <time>2023-04-10T09:44:51Z</time>
      </trkpt>
      <trkpt lat="48.02318" lon="-3.14333">
        <ele>178</ele>
        <time>2023-04-10T09:44:52Z</time>
      </trkpt>
      <trkpt lat="48.02313" lon="-3.1433">
        <ele>178</ele>
        <time>2023-04-10T09:44:53Z</time>
      </trkpt>
      <trkpt lat="48.02309" lon="-3.14327">
        <ele>178</ele>
        <time>2023-04-10T09:44:54Z</time>
      </trkpt>
      <trkpt lat="48.02303" lon="-3.14326">
        <ele>178</ele>
        <time>2023-04-10T09:44:55Z</time>
      </trkpt>
      <trkpt lat="48.02289" lon="-3.14324">
        <ele>177.8</ele>
        <time>2023-04-10T09:44:57Z</time>
      </trkpt>
      <trkpt lat="48.02275" lon="-3.14318">
        <ele>177.4</ele>
        <time>2023-04-10T09:44:59Z</time>
      </trkpt>
      <trkpt lat="48.02268" lon="-3.1431">
        <ele>177.4</ele>
        <time>2023-04-10T09:45:00Z</time>
      </trkpt>
      <trkpt lat="48.02262" lon="-3.14301">
        <ele>177</ele>
        <time>2023-04-10T09:45:01Z</time>
      </trkpt>
      <trkpt lat="48.02256" lon="-3.1429">
        <ele>176.8</ele>
        <time>2023-04-10T09:45:02Z</time>
      </trkpt>
      <trkpt lat="48.0225" lon="-3.1428">
        <ele>176.2</ele>
        <time>2023-04-10T09:45:03Z</time>
      </trkpt>
      <trkpt lat="48.02243" lon="-3.14269">
        <ele>176</ele>
        <time>2023-04-10T09:45:04Z</time>
      </trkpt>
      <trkpt lat="48.02229" lon="-3.14248">
        <ele>174.2</ele>
        <time>2023-04-10T09:45:06Z</time>
      </trkpt>
      <trkpt lat="48.02223" lon="-3.14236">
        <ele>172.8</ele>
        <time>2023-04-10T09:45:07Z</time>
      </trkpt>
      <trkpt lat="48.02219" lon="-3.14224">
        <ele>171.6</ele>
        <time>2023-04-10T09:45:08Z</time>
      </trkpt>
      <trkpt lat="48.02214" lon="-3.14212">
        <ele>170.4</ele>
        <time>2023-04-10T09:45:09Z</time>
      </trkpt>
      <trkpt lat="48.0221" lon="-3.14199">
        <ele>169.8</ele>
        <time>2023-04-10T09:45:10Z</time>
      </trkpt>
      <trkpt lat="48.02205" lon="-3.14188">
        <ele>168.8</ele>
        <time>2023-04-10T09:45:11Z</time>
      </trkpt>
      <trkpt lat="48.02201" lon="-3.1418">
        <ele>167.6</ele>
        <time>2023-04-10T09:45:12Z</time>
      </trkpt>
      <trkpt lat="48.02194" lon="-3.14171">
        <ele>166.6</ele>
        <time>2023-04-10T09:45:13Z</time>
      </trkpt>
      <trkpt lat="48.02186" lon="-3.14164">
        <ele>165.6</ele>
        <time>2023-04-10T09:45:14Z</time>
      </trkpt>
      <trkpt lat="48.02176" lon="-3.14158">
        <ele>165</ele>
        <time>2023-04-10T09:45:15Z</time>
      </trkpt>
      <trkpt lat="48.02167" lon="-3.14155">
        <ele>164.6</ele>
        <time>2023-04-10T09:45:16Z</time>
      </trkpt>
      <trkpt lat="48.02156" lon="-3.14154">
        <ele>163.4</ele>
        <time>2023-04-10T09:45:17Z</time>
      </trkpt>
      <trkpt lat="48.02145" lon="-3.14154">
        <ele>163.4</ele>
        <time>2023-04-10T09:45:18Z</time>
      </trkpt>
      <trkpt lat="48.02135" lon="-3.14152">
        <ele>162.6</ele>
        <time>2023-04-10T09:45:19Z</time>
      </trkpt>
      <trkpt lat="48.02125" lon="-3.14148">
        <ele>161.4</ele>
        <time>2023-04-10T09:45:20Z</time>
      </trkpt>
      <trkpt lat="48.02116" lon="-3.14141">
        <ele>160.2</ele>
        <time>2023-04-10T09:45:21Z</time>
      </trkpt>
      <trkpt lat="48.02108" lon="-3.14132">
        <ele>158.6</ele>
        <time>2023-04-10T09:45:22Z</time>
      </trkpt>
      <trkpt lat="48.02101" lon="-3.14123">
        <ele>157.2</ele>
        <time>2023-04-10T09:45:23Z</time>
      </trkpt>
      <trkpt lat="48.02094" lon="-3.14113">
        <ele>155.4</ele>
        <time>2023-04-10T09:45:24Z</time>
      </trkpt>
      <trkpt lat="48.02086" lon="-3.14103">
        <ele>153.8</ele>
        <time>2023-04-10T09:45:25Z</time>
      </trkpt>
      <trkpt lat="48.02078" lon="-3.14094">
        <ele>152.2</ele>
        <time>2023-04-10T09:45:26Z</time>
      </trkpt>
      <trkpt lat="48.02069" lon="-3.14086">
        <ele>151.2</ele>
        <time>2023-04-10T09:45:27Z</time>
      </trkpt>
      <trkpt lat="48.02061" lon="-3.1408">
        <ele>150</ele>
        <time>2023-04-10T09:45:28Z</time>
      </trkpt>
      <trkpt lat="48.02052" lon="-3.14076">
        <ele>149.6</ele>
        <time>2023-04-10T09:45:29Z</time>
      </trkpt>
      <trkpt lat="48.02044" lon="-3.14075">
        <ele>149</ele>
        <time>2023-04-10T09:45:30Z</time>
      </trkpt>
      <trkpt lat="48.02038" lon="-3.14075">
        <ele>147.8</ele>
        <time>2023-04-10T09:45:31Z</time>
      </trkpt>
      <trkpt lat="48.0203" lon="-3.14077">
        <ele>147.2</ele>
        <time>2023-04-10T09:45:32Z</time>
      </trkpt>
      <trkpt lat="48.02024" lon="-3.14081">
        <ele>146.2</ele>
        <time>2023-04-10T09:45:33Z</time>
      </trkpt>
      <trkpt lat="48.02016" lon="-3.14087">
        <ele>145</ele>
        <time>2023-04-10T09:45:34Z</time>
      </trkpt>
      <trkpt lat="48.02009" lon="-3.14094">
        <ele>143.6</ele>
        <time>2023-04-10T09:45:35Z</time>
      </trkpt>
      <trkpt lat="48.02002" lon="-3.141">
        <ele>141.8</ele>
        <time>2023-04-10T09:45:36Z</time>
      </trkpt>
      <trkpt lat="48.01996" lon="-3.14103">
        <ele>140.4</ele>
        <time>2023-04-10T09:45:37Z</time>
      </trkpt>
      <trkpt lat="48.01989" lon="-3.14104">
        <ele>139.2</ele>
        <time>2023-04-10T09:45:38Z</time>
      </trkpt>
      <trkpt lat="48.01984" lon="-3.14101">
        <ele>137.6</ele>
        <time>2023-04-10T09:45:39Z</time>
      </trkpt>
      <trkpt lat="48.01981" lon="-3.14097">
        <ele>137.6</ele>
        <time>2023-04-10T09:45:40Z</time>
      </trkpt>
      <trkpt lat="48.01976" lon="-3.14091">
        <ele>136</ele>
        <time>2023-04-10T09:45:41Z</time>
      </trkpt>
      <trkpt lat="48.01972" lon="-3.14085">
        <ele>134.8</ele>
        <time>2023-04-10T09:45:42Z</time>
      </trkpt>
      <trkpt lat="48.01969" lon="-3.14081">
        <ele>133.2</ele>
        <time>2023-04-10T09:45:43Z</time>
      </trkpt>
      <trkpt lat="48.01966" lon="-3.14076">
        <ele>131.8</ele>
        <time>2023-04-10T09:45:44Z</time>
      </trkpt>
      <trkpt lat="48.01962" lon="-3.14071">
        <ele>130</ele>
        <time>2023-04-10T09:45:45Z</time>
      </trkpt>
      <trkpt lat="48.01959" lon="-3.14069">
        <ele>128.2</ele>
        <time>2023-04-10T09:45:46Z</time>
      </trkpt>
      <trkpt lat="48.01955" lon="-3.14069">
        <ele>127</ele>
        <time>2023-04-10T09:45:47Z</time>
      </trkpt>
      <trkpt lat="48.01952" lon="-3.14068">
        <ele>126</ele>
        <time>2023-04-10T09:45:48Z</time>
      </trkpt>
      <trkpt lat="48.01948" lon="-3.14067">
        <ele>125.4</ele>
        <time>2023-04-10T09:45:49Z</time>
      </trkpt>
      <trkpt lat="48.01945" lon="-3.14065">
        <ele>124.8</ele>
        <time>2023-04-10T09:45:50Z</time>
      </trkpt>
      <trkpt lat="48.01942" lon="-3.14062">
        <ele>124.6</ele>
        <time>2023-04-10T09:45:51Z</time>
      </trkpt>
      <trkpt lat="48.0194" lon="-3.1406">
        <ele>124.4</ele>
        <time>2023-04-10T09:45:52Z</time>
      </trkpt>
      <trkpt lat="48.01937" lon="-3.14058">
        <ele>124.4</ele>
        <time>2023-04-10T09:45:53Z</time>
      </trkpt>
      <trkpt lat="48.01935" lon="-3.14056">
        <ele>124.4</ele>
        <time>2023-04-10T09:45:54Z</time>
      </trkpt>
      <trkpt lat="48.01933" lon="-3.14054">
        <ele>124.4</ele>
        <time>2023-04-10T09:45:55Z</time>
      </trkpt>
      <trkpt lat="48.01931" lon="-3.14052">
        <ele>124.4</ele>
        <time>2023-04-10T09:45:56Z</time>
      </trkpt>
      <trkpt lat="48.01929" lon="-3.1405">
        <ele>124.4</ele>
        <time>2023-04-10T09:45:57Z</time>
      </trkpt>
      <trkpt lat="48.01927" lon="-3.14049">
        <ele>124.4</ele>
        <time>2023-04-10T09:45:58Z</time>
      </trkpt>
      <trkpt lat="48.01926" lon="-3.14047">
        <ele>124.4</ele>
        <time>2023-04-10T09:45:59Z</time>
      </trkpt>
      <trkpt lat="48.01924" lon="-3.14045">
        <ele>124.4</ele>
        <time>2023-04-10T09:46:00Z</time>
      </trkpt>
      <trkpt lat="48.01922" lon="-3.14044">
        <ele>124.2</ele>
        <time>2023-04-10T09:46:01Z</time>
      </trkpt>
      <trkpt lat="48.0192" lon="-3.14042">
        <ele>124.2</ele>
        <time>2023-04-10T09:46:02Z</time>
      </trkpt>
      <trkpt lat="48.01917" lon="-3.14039">
        <ele>124.4</ele>
        <time>2023-04-10T09:46:03Z</time>
      </trkpt>
      <trkpt lat="48.01916" lon="-3.14037">
        <ele>124.6</ele>
        <time>2023-04-10T09:46:04Z</time>
      </trkpt>
      <trkpt lat="48.01914" lon="-3.14035">
        <ele>124.8</ele>
        <time>2023-04-10T09:46:05Z</time>
      </trkpt>
      <trkpt lat="48.01911" lon="-3.14034">
        <ele>124.8</ele>
        <time>2023-04-10T09:46:06Z</time>
      </trkpt>
      <trkpt lat="48.01908" lon="-3.14032">
        <ele>125.2</ele>
        <time>2023-04-10T09:46:07Z</time>
      </trkpt>
      <trkpt lat="48.01906" lon="-3.14031">
        <ele>125.2</ele>
        <time>2023-04-10T09:46:08Z</time>
      </trkpt>
      <trkpt lat="48.01904" lon="-3.1403">
        <ele>125.6</ele>
        <time>2023-04-10T09:46:09Z</time>
      </trkpt>
      <trkpt lat="48.01899" lon="-3.14027">
        <ele>126.2</ele>
        <time>2023-04-10T09:46:11Z</time>
      </trkpt>
      <trkpt lat="48.01897" lon="-3.14026">
        <ele>126.6</ele>
        <time>2023-04-10T09:46:12Z</time>
      </trkpt>
      <trkpt lat="48.01893" lon="-3.14024">
        <ele>127.2</ele>
        <time>2023-04-10T09:46:14Z</time>
      </trkpt>
      <trkpt lat="48.01892" lon="-3.14022">
        <ele>127.6</ele>
        <time>2023-04-10T09:46:15Z</time>
      </trkpt>
      <trkpt lat="48.01889" lon="-3.1402">
        <ele>127.8</ele>
        <time>2023-04-10T09:46:16Z</time>
      </trkpt>
      <trkpt lat="48.01886" lon="-3.14018">
        <ele>128.2</ele>
        <time>2023-04-10T09:46:17Z</time>
      </trkpt>
      <trkpt lat="48.01884" lon="-3.14016">
        <ele>128.6</ele>
        <time>2023-04-10T09:46:18Z</time>
      </trkpt>
      <trkpt lat="48.01883" lon="-3.14014">
        <ele>129.2</ele>
        <time>2023-04-10T09:46:19Z</time>
      </trkpt>
      <trkpt lat="48.0188" lon="-3.14013">
        <ele>129.4</ele>
        <time>2023-04-10T09:46:20Z</time>
      </trkpt>
      <trkpt lat="48.01874" lon="-3.14011">
        <ele>130</ele>
        <time>2023-04-10T09:46:22Z</time>
      </trkpt>
      <trkpt lat="48.01871" lon="-3.14009">
        <ele>130.4</ele>
        <time>2023-04-10T09:46:23Z</time>
      </trkpt>
      <trkpt lat="48.0187" lon="-3.14005">
        <ele>130.4</ele>
        <time>2023-04-10T09:46:24Z</time>
      </trkpt>
      <trkpt lat="48.01868" lon="-3.14001">
        <ele>130.8</ele>
        <time>2023-04-10T09:46:25Z</time>
      </trkpt>
      <trkpt lat="48.01866" lon="-3.13998">
        <ele>131</ele>
        <time>2023-04-10T09:46:26Z</time>
      </trkpt>
      <trkpt lat="48.01864" lon="-3.13996">
        <ele>131.4</ele>
        <time>2023-04-10T09:46:27Z</time>
      </trkpt>
      <trkpt lat="48.01861" lon="-3.13994">
        <ele>131.6</ele>
        <time>2023-04-10T09:46:28Z</time>
      </trkpt>
      <trkpt lat="48.01859" lon="-3.13992">
        <ele>132</ele>
        <time>2023-04-10T09:46:29Z</time>
      </trkpt>
      <trkpt lat="48.01857" lon="-3.1399">
        <ele>132.4</ele>
        <time>2023-04-10T09:46:30Z</time>
      </trkpt>
      <trkpt lat="48.01854" lon="-3.13987">
        <ele>132.6</ele>
        <time>2023-04-10T09:46:31Z</time>
      </trkpt>
      <trkpt lat="48.01852" lon="-3.13984">
        <ele>133</ele>
        <time>2023-04-10T09:46:32Z</time>
      </trkpt>
      <trkpt lat="48.01851" lon="-3.13981">
        <ele>133.4</ele>
        <time>2023-04-10T09:46:33Z</time>
      </trkpt>
      <trkpt lat="48.01849" lon="-3.13979">
        <ele>133.8</ele>
        <time>2023-04-10T09:46:34Z</time>
      </trkpt>
      <trkpt lat="48.01848" lon="-3.13976">
        <ele>134</ele>
        <time>2023-04-10T09:46:35Z</time>
      </trkpt>
      <trkpt lat="48.01846" lon="-3.13973">
        <ele>134.4</ele>
        <time>2023-04-10T09:46:36Z</time>
      </trkpt>
      <trkpt lat="48.01842" lon="-3.1397">
        <ele>134.6</ele>
        <time>2023-04-10T09:46:37Z</time>
      </trkpt>
      <trkpt lat="48.01839" lon="-3.13968">
        <ele>134.8</ele>
        <time>2023-04-10T09:46:38Z</time>
      </trkpt>
      <trkpt lat="48.01837" lon="-3.13966">
        <ele>135.2</ele>
        <time>2023-04-10T09:46:39Z</time>
      </trkpt>
      <trkpt lat="48.01835" lon="-3.13964">
        <ele>135.2</ele>
        <time>2023-04-10T09:46:40Z</time>
      </trkpt>
      <trkpt lat="48.01832" lon="-3.13962">
        <ele>135.4</ele>
        <time>2023-04-10T09:46:41Z</time>
      </trkpt>
      <trkpt lat="48.0183" lon="-3.13959">
        <ele>135.4</ele>
        <time>2023-04-10T09:46:42Z</time>
      </trkpt>
      <trkpt lat="48.01828" lon="-3.13956">
        <ele>135.4</ele>
        <time>2023-04-10T09:46:43Z</time>
      </trkpt>
      <trkpt lat="48.01825" lon="-3.13953">
        <ele>135.4</ele>
        <time>2023-04-10T09:46:44Z</time>
      </trkpt>
      <trkpt lat="48.01822" lon="-3.1395">
        <ele>135.4</ele>
        <time>2023-04-10T09:46:45Z</time>
      </trkpt>
      <trkpt lat="48.01818" lon="-3.13947">
        <ele>135.4</ele>
        <time>2023-04-10T09:46:46Z</time>
      </trkpt>
      <trkpt lat="48.01814" lon="-3.13943">
        <ele>135.4</ele>
        <time>2023-04-10T09:46:47Z</time>
      </trkpt>
      <trkpt lat="48.01808" lon="-3.13938">
        <ele>135.4</ele>
        <time>2023-04-10T09:46:48Z</time>
      </trkpt>
      <trkpt lat="48.01802" lon="-3.13933">
        <ele>135.4</ele>
        <time>2023-04-10T09:46:49Z</time>
      </trkpt>
      <trkpt lat="48.01797" lon="-3.13928">
        <ele>135.4</ele>
        <time>2023-04-10T09:46:50Z</time>
      </trkpt>
      <trkpt lat="48.01792" lon="-3.13923">
        <ele>135.2</ele>
        <time>2023-04-10T09:46:51Z</time>
      </trkpt>
      <trkpt lat="48.01787" lon="-3.13919">
        <ele>134.6</ele>
        <time>2023-04-10T09:46:52Z</time>
      </trkpt>
      <trkpt lat="48.01781" lon="-3.13915">
        <ele>134.2</ele>
        <time>2023-04-10T09:46:53Z</time>
      </trkpt>
      <trkpt lat="48.01775" lon="-3.13912">
        <ele>134</ele>
        <time>2023-04-10T09:46:54Z</time>
      </trkpt>
      <trkpt lat="48.01769" lon="-3.13908">
        <ele>133.4</ele>
        <time>2023-04-10T09:46:55Z</time>
      </trkpt>
      <trkpt lat="48.01763" lon="-3.13905">
        <ele>133</ele>
        <time>2023-04-10T09:46:56Z</time>
      </trkpt>
      <trkpt lat="48.01757" lon="-3.13902">
        <ele>132.8</ele>
        <time>2023-04-10T09:46:57Z</time>
      </trkpt>
      <trkpt lat="48.01752" lon="-3.13899">
        <ele>131.8</ele>
        <time>2023-04-10T09:46:58Z</time>
      </trkpt>
      <trkpt lat="48.01748" lon="-3.13897">
        <ele>131.2</ele>
        <time>2023-04-10T09:46:59Z</time>
      </trkpt>
      <trkpt lat="48.01743" lon="-3.13893">
        <ele>131</ele>
        <time>2023-04-10T09:47:00Z</time>
      </trkpt>
      <trkpt lat="48.01737" lon="-3.1389">
        <ele>130.6</ele>
        <time>2023-04-10T09:47:01Z</time>
      </trkpt>
      <trkpt lat="48.01731" lon="-3.13885">
        <ele>130</ele>
        <time>2023-04-10T09:47:02Z</time>
      </trkpt>
      <trkpt lat="48.01719" lon="-3.13875">
        <ele>129.2</ele>
        <time>2023-04-10T09:47:04Z</time>
      </trkpt>
      <trkpt lat="48.01694" lon="-3.1385">
        <ele>128.6</ele>
        <time>2023-04-10T09:47:08Z</time>
      </trkpt>
      <trkpt lat="48.01686" lon="-3.13844">
        <ele>128.6</ele>
        <time>2023-04-10T09:47:09Z</time>
      </trkpt>
      <trkpt lat="48.01681" lon="-3.13838">
        <ele>128.2</ele>
        <time>2023-04-10T09:47:10Z</time>
      </trkpt>
      <trkpt lat="48.01677" lon="-3.13832">
        <ele>127.8</ele>
        <time>2023-04-10T09:47:11Z</time>
      </trkpt>
      <trkpt lat="48.01673" lon="-3.13826">
        <ele>127</ele>
        <time>2023-04-10T09:47:12Z</time>
      </trkpt>
      <trkpt lat="48.01669" lon="-3.13819">
        <ele>126.6</ele>
        <time>2023-04-10T09:47:13Z</time>
      </trkpt>
      <trkpt lat="48.01666" lon="-3.13813">
        <ele>125.8</ele>
        <time>2023-04-10T09:47:14Z</time>
      </trkpt>
      <trkpt lat="48.01664" lon="-3.13808">
        <ele>125.2</ele>
        <time>2023-04-10T09:47:15Z</time>
      </trkpt>
      <trkpt lat="48.01662" lon="-3.13803">
        <ele>124.6</ele>
        <time>2023-04-10T09:47:16Z</time>
      </trkpt>
      <trkpt lat="48.01661" lon="-3.138">
        <ele>124.4</ele>
        <time>2023-04-10T09:47:17Z</time>
      </trkpt>
      <trkpt lat="48.01661" lon="-3.13798">
        <ele>124</ele>
        <time>2023-04-10T09:47:18Z</time>
      </trkpt>
      <trkpt lat="48.01662" lon="-3.13797">
        <ele>123.8</ele>
        <time>2023-04-10T09:47:19Z</time>
      </trkpt>
      <trkpt lat="48.01663" lon="-3.13794">
        <ele>123.6</ele>
        <time>2023-04-10T09:47:20Z</time>
      </trkpt>
      <trkpt lat="48.01663" lon="-3.13791">
        <ele>123.4</ele>
        <time>2023-04-10T09:47:21Z</time>
      </trkpt>
      <trkpt lat="48.01663" lon="-3.13791">
        <ele>123.4</ele>
        <time>2023-04-10T09:47:22Z</time>
      </trkpt>
      <trkpt lat="48.01663" lon="-3.1379">
        <ele>123.4</ele>
        <time>2023-04-10T09:47:23Z</time>
      </trkpt>
      <trkpt lat="48.01663" lon="-3.13789">
        <ele>123.4</ele>
        <time>2023-04-10T09:47:24Z</time>
      </trkpt>
      <trkpt lat="48.01664" lon="-3.13788">
        <ele>123.4</ele>
        <time>2023-04-10T09:47:25Z</time>
      </trkpt>
      <trkpt lat="48.01664" lon="-3.13786">
        <ele>123.4</ele>
        <time>2023-04-10T09:47:26Z</time>
      </trkpt>
      <trkpt lat="48.01664" lon="-3.13784">
        <ele>123.4</ele>
        <time>2023-04-10T09:47:27Z</time>
      </trkpt>
      <trkpt lat="48.01664" lon="-3.13782">
        <ele>123.4</ele>
        <time>2023-04-10T09:47:28Z</time>
      </trkpt>
      <trkpt lat="48.01664" lon="-3.1378">
        <ele>123.4</ele>
        <time>2023-04-10T09:47:29Z</time>
      </trkpt>
      <trkpt lat="48.01664" lon="-3.13778">
        <ele>123.4</ele>
        <time>2023-04-10T09:47:30Z</time>
      </trkpt>
      <trkpt lat="48.01664" lon="-3.13776">
        <ele>123.8</ele>
        <time>2023-04-10T09:47:31Z</time>
      </trkpt>
      <trkpt lat="48.01664" lon="-3.13775">
        <ele>123.8</ele>
        <time>2023-04-10T09:47:32Z</time>
      </trkpt>
      <trkpt lat="48.01665" lon="-3.13774">
        <ele>123.8</ele>
        <time>2023-04-10T09:47:33Z</time>
      </trkpt>
      <trkpt lat="48.01665" lon="-3.13772">
        <ele>124.4</ele>
        <time>2023-04-10T09:47:35Z</time>
      </trkpt>
      <trkpt lat="48.01665" lon="-3.13772">
        <ele>124.8</ele>
        <time>2023-04-10T09:47:36Z</time>
      </trkpt>
      <trkpt lat="48.01664" lon="-3.13771">
        <ele>125.6</ele>
        <time>2023-04-10T09:47:38Z</time>
      </trkpt>
      <trkpt lat="48.01664" lon="-3.1377">
        <ele>126</ele>
        <time>2023-04-10T09:47:39Z</time>
      </trkpt>
      <trkpt lat="48.01665" lon="-3.13769">
        <ele>126.2</ele>
        <time>2023-04-10T09:47:40Z</time>
      </trkpt>
      <trkpt lat="48.01665" lon="-3.13769">
        <ele>126.4</ele>
        <time>2023-04-10T09:47:41Z</time>
      </trkpt>
      <trkpt lat="48.01665" lon="-3.13768">
        <ele>126.8</ele>
        <time>2023-04-10T09:47:42Z</time>
      </trkpt>
      <trkpt lat="48.01665" lon="-3.13766">
        <ele>127</ele>
        <time>2023-04-10T09:47:43Z</time>
      </trkpt>
      <trkpt lat="48.01665" lon="-3.13762">
        <ele>127.8</ele>
        <time>2023-04-10T09:47:45Z</time>
      </trkpt>
      <trkpt lat="48.01665" lon="-3.13762">
        <ele>128</ele>
        <time>2023-04-10T09:47:46Z</time>
      </trkpt>
      <trkpt lat="48.01664" lon="-3.1376">
        <ele>128.4</ele>
        <time>2023-04-10T09:47:47Z</time>
      </trkpt>
      <trkpt lat="48.01663" lon="-3.13758">
        <ele>128.6</ele>
        <time>2023-04-10T09:47:48Z</time>
      </trkpt>
      <trkpt lat="48.01663" lon="-3.13755">
        <ele>129</ele>
        <time>2023-04-10T09:47:49Z</time>
      </trkpt>
      <trkpt lat="48.01662" lon="-3.13753">
        <ele>129.2</ele>
        <time>2023-04-10T09:47:50Z</time>
      </trkpt>
      <trkpt lat="48.01662" lon="-3.13751">
        <ele>129.4</ele>
        <time>2023-04-10T09:47:51Z</time>
      </trkpt>
      <trkpt lat="48.01661" lon="-3.13748">
        <ele>129.6</ele>
        <time>2023-04-10T09:47:52Z</time>
      </trkpt>
      <trkpt lat="48.01661" lon="-3.13746">
        <ele>129.8</ele>
        <time>2023-04-10T09:47:53Z</time>
      </trkpt>
      <trkpt lat="48.0166" lon="-3.13744">
        <ele>129.8</ele>
        <time>2023-04-10T09:47:54Z</time>
      </trkpt>
      <trkpt lat="48.0166" lon="-3.13742">
        <ele>130</ele>
        <time>2023-04-10T09:47:55Z</time>
      </trkpt>
      <trkpt lat="48.01659" lon="-3.13739">
        <ele>130.2</ele>
        <time>2023-04-10T09:47:56Z</time>
      </trkpt>
      <trkpt lat="48.01659" lon="-3.13737">
        <ele>130.2</ele>
        <time>2023-04-10T09:47:57Z</time>
      </trkpt>
      <trkpt lat="48.01658" lon="-3.13734">
        <ele>130.4</ele>
        <time>2023-04-10T09:47:58Z</time>
      </trkpt>
      <trkpt lat="48.01657" lon="-3.13732">
        <ele>130.6</ele>
        <time>2023-04-10T09:47:59Z</time>
      </trkpt>
      <trkpt lat="48.01656" lon="-3.1373">
        <ele>130.8</ele>
        <time>2023-04-10T09:48:00Z</time>
      </trkpt>
      <trkpt lat="48.01653" lon="-3.13726">
        <ele>131</ele>
        <time>2023-04-10T09:48:01Z</time>
      </trkpt>
      <trkpt lat="48.01651" lon="-3.13723">
        <ele>131.2</ele>
        <time>2023-04-10T09:48:02Z</time>
      </trkpt>
      <trkpt lat="48.0165" lon="-3.13719">
        <ele>131.4</ele>
        <time>2023-04-10T09:48:03Z</time>
      </trkpt>
      <trkpt lat="48.0165" lon="-3.13717">
        <ele>131.6</ele>
        <time>2023-04-10T09:48:04Z</time>
      </trkpt>
      <trkpt lat="48.0165" lon="-3.13715">
        <ele>131.8</ele>
        <time>2023-04-10T09:48:05Z</time>
      </trkpt>
      <trkpt lat="48.0165" lon="-3.13713">
        <ele>132</ele>
        <time>2023-04-10T09:48:06Z</time>
      </trkpt>
      <trkpt lat="48.0165" lon="-3.13712">
        <ele>132.2</ele>
        <time>2023-04-10T09:48:07Z</time>
      </trkpt>
      <trkpt lat="48.01649" lon="-3.13709">
        <ele>132.2</ele>
        <time>2023-04-10T09:48:08Z</time>
      </trkpt>
      <trkpt lat="48.01648" lon="-3.13707">
        <ele>132.6</ele>
        <time>2023-04-10T09:48:09Z</time>
      </trkpt>
      <trkpt lat="48.01648" lon="-3.13705">
        <ele>132.6</ele>
        <time>2023-04-10T09:48:10Z</time>
      </trkpt>
      <trkpt lat="48.01648" lon="-3.13705">
        <ele>133</ele>
        <time>2023-04-10T09:48:11Z</time>
      </trkpt>
      <trkpt lat="48.01648" lon="-3.13705">
        <ele>133.2</ele>
        <time>2023-04-10T09:48:12Z</time>
      </trkpt>
      <trkpt lat="48.01648" lon="-3.13704">
        <ele>133.4</ele>
        <time>2023-04-10T09:48:13Z</time>
      </trkpt>
      <trkpt lat="48.01648" lon="-3.13702">
        <ele>133.8</ele>
        <time>2023-04-10T09:48:14Z</time>
      </trkpt>
      <trkpt lat="48.01647" lon="-3.137">
        <ele>134</ele>
        <time>2023-04-10T09:48:15Z</time>
      </trkpt>
      <trkpt lat="48.01647" lon="-3.13698">
        <ele>134</ele>
        <time>2023-04-10T09:48:16Z</time>
      </trkpt>
      <trkpt lat="48.01646" lon="-3.13697">
        <ele>134.2</ele>
        <time>2023-04-10T09:48:17Z</time>
      </trkpt>
      <trkpt lat="48.01646" lon="-3.13696">
        <ele>134.4</ele>
        <time>2023-04-10T09:48:18Z</time>
      </trkpt>
      <trkpt lat="48.01646" lon="-3.13695">
        <ele>134.6</ele>
        <time>2023-04-10T09:48:19Z</time>
      </trkpt>
      <trkpt lat="48.01646" lon="-3.13694">
        <ele>134.8</ele>
        <time>2023-04-10T09:48:20Z</time>
      </trkpt>
      <trkpt lat="48.01646" lon="-3.13693">
        <ele>135</ele>
        <time>2023-04-10T09:48:21Z</time>
      </trkpt>
      <trkpt lat="48.01645" lon="-3.13691">
        <ele>135.4</ele>
        <time>2023-04-10T09:48:22Z</time>
      </trkpt>
      <trkpt lat="48.01645" lon="-3.13689">
        <ele>135.6</ele>
        <time>2023-04-10T09:48:23Z</time>
      </trkpt>
      <trkpt lat="48.01645" lon="-3.13687">
        <ele>135.8</ele>
        <time>2023-04-10T09:48:24Z</time>
      </trkpt>
      <trkpt lat="48.01645" lon="-3.13685">
        <ele>136</ele>
        <time>2023-04-10T09:48:25Z</time>
      </trkpt>
      <trkpt lat="48.01645" lon="-3.13685">
        <ele>136.2</ele>
        <time>2023-04-10T09:48:26Z</time>
      </trkpt>
      <trkpt lat="48.01645" lon="-3.13685">
        <ele>136.4</ele>
        <time>2023-04-10T09:48:27Z</time>
      </trkpt>
      <trkpt lat="48.01645" lon="-3.13684">
        <ele>136.8</ele>
        <time>2023-04-10T09:48:28Z</time>
      </trkpt>
      <trkpt lat="48.01645" lon="-3.13683">
        <ele>137.2</ele>
        <time>2023-04-10T09:48:29Z</time>
      </trkpt>
      <trkpt lat="48.01644" lon="-3.13682">
        <ele>137.4</ele>
        <time>2023-04-10T09:48:30Z</time>
      </trkpt>
      <trkpt lat="48.01644" lon="-3.13682">
        <ele>137.8</ele>
        <time>2023-04-10T09:48:31Z</time>
      </trkpt>
      <trkpt lat="48.01644" lon="-3.1368">
        <ele>138</ele>
        <time>2023-04-10T09:48:32Z</time>
      </trkpt>
      <trkpt lat="48.01643" lon="-3.13678">
        <ele>138.2</ele>
        <time>2023-04-10T09:48:33Z</time>
      </trkpt>
      <trkpt lat="48.01642" lon="-3.13676">
        <ele>138.6</ele>
        <time>2023-04-10T09:48:34Z</time>
      </trkpt>
      <trkpt lat="48.01641" lon="-3.13674">
        <ele>138.8</ele>
        <time>2023-04-10T09:48:35Z</time>
      </trkpt>
      <trkpt lat="48.01641" lon="-3.13673">
        <ele>139</ele>
        <time>2023-04-10T09:48:36Z</time>
      </trkpt>
      <trkpt lat="48.0164" lon="-3.13673">
        <ele>139.2</ele>
        <time>2023-04-10T09:48:37Z</time>
      </trkpt>
      <trkpt lat="48.01639" lon="-3.13671">
        <ele>139.2</ele>
        <time>2023-04-10T09:48:38Z</time>
      </trkpt>
      <trkpt lat="48.01638" lon="-3.1367">
        <ele>139.4</ele>
        <time>2023-04-10T09:48:39Z</time>
      </trkpt>
      <trkpt lat="48.01637" lon="-3.1367">
        <ele>139.4</ele>
        <time>2023-04-10T09:48:40Z</time>
      </trkpt>
      <trkpt lat="48.01637" lon="-3.13669">
        <ele>139.6</ele>
        <time>2023-04-10T09:48:41Z</time>
      </trkpt>
      <trkpt lat="48.01636" lon="-3.13667">
        <ele>139.6</ele>
        <time>2023-04-10T09:48:42Z</time>
      </trkpt>
      <trkpt lat="48.01635" lon="-3.13665">
        <ele>139.6</ele>
        <time>2023-04-10T09:48:43Z</time>
      </trkpt>
      <trkpt lat="48.01634" lon="-3.13662">
        <ele>139.8</ele>
        <time>2023-04-10T09:48:44Z</time>
      </trkpt>
      <trkpt lat="48.01633" lon="-3.13659">
        <ele>139.8</ele>
        <time>2023-04-10T09:48:45Z</time>
      </trkpt>
      <trkpt lat="48.01631" lon="-3.13657">
        <ele>140</ele>
        <time>2023-04-10T09:48:46Z</time>
      </trkpt>
      <trkpt lat="48.01629" lon="-3.13654">
        <ele>140.2</ele>
        <time>2023-04-10T09:48:47Z</time>
      </trkpt>
      <trkpt lat="48.01628" lon="-3.13651">
        <ele>140.2</ele>
        <time>2023-04-10T09:48:48Z</time>
      </trkpt>
      <trkpt lat="48.01628" lon="-3.13651">
        <ele>140.2</ele>
        <time>2023-04-10T09:48:49Z</time>
      </trkpt>
      <trkpt lat="48.01627" lon="-3.1365">
        <ele>140.4</ele>
        <time>2023-04-10T09:48:50Z</time>
      </trkpt>
      <trkpt lat="48.01625" lon="-3.13647">
        <ele>140.4</ele>
        <time>2023-04-10T09:48:51Z</time>
      </trkpt>
      <trkpt lat="48.01624" lon="-3.13645">
        <ele>140.6</ele>
        <time>2023-04-10T09:48:52Z</time>
      </trkpt>
      <trkpt lat="48.01622" lon="-3.13642">
        <ele>140.6</ele>
        <time>2023-04-10T09:48:53Z</time>
      </trkpt>
      <trkpt lat="48.0162" lon="-3.1364">
        <ele>140.6</ele>
        <time>2023-04-10T09:48:54Z</time>
      </trkpt>
      <trkpt lat="48.01618" lon="-3.13636">
        <ele>140.8</ele>
        <time>2023-04-10T09:48:55Z</time>
      </trkpt>
      <trkpt lat="48.01617" lon="-3.13632">
        <ele>140.8</ele>
        <time>2023-04-10T09:48:56Z</time>
      </trkpt>
      <trkpt lat="48.01616" lon="-3.13628">
        <ele>141</ele>
        <time>2023-04-10T09:48:57Z</time>
      </trkpt>
      <trkpt lat="48.01616" lon="-3.13628">
        <ele>141</ele>
        <time>2023-04-10T09:48:58Z</time>
      </trkpt>
      <trkpt lat="48.01615" lon="-3.13627">
        <ele>141</ele>
        <time>2023-04-10T09:48:59Z</time>
      </trkpt>
      <trkpt lat="48.01614" lon="-3.13625">
        <ele>141.2</ele>
        <time>2023-04-10T09:49:00Z</time>
      </trkpt>
      <trkpt lat="48.01613" lon="-3.13622">
        <ele>141.2</ele>
        <time>2023-04-10T09:49:01Z</time>
      </trkpt>
      <trkpt lat="48.01611" lon="-3.1362">
        <ele>141.2</ele>
        <time>2023-04-10T09:49:02Z</time>
      </trkpt>
      <trkpt lat="48.0161" lon="-3.13618">
        <ele>141.2</ele>
        <time>2023-04-10T09:49:03Z</time>
      </trkpt>
      <trkpt lat="48.01609" lon="-3.13615">
        <ele>141.2</ele>
        <time>2023-04-10T09:49:04Z</time>
      </trkpt>
      <trkpt lat="48.01607" lon="-3.13613">
        <ele>141.2</ele>
        <time>2023-04-10T09:49:05Z</time>
      </trkpt>
      <trkpt lat="48.01604" lon="-3.1361">
        <ele>141.2</ele>
        <time>2023-04-10T09:49:06Z</time>
      </trkpt>
      <trkpt lat="48.01603" lon="-3.13609">
        <ele>141.2</ele>
        <time>2023-04-10T09:49:07Z</time>
      </trkpt>
      <trkpt lat="48.01593" lon="-3.13598">
        <ele>141.4</ele>
        <time>2023-04-10T09:49:11Z</time>
      </trkpt>
      <trkpt lat="48.01592" lon="-3.13593">
        <ele>141.4</ele>
        <time>2023-04-10T09:49:12Z</time>
      </trkpt>
      <trkpt lat="48.0159" lon="-3.1359">
        <ele>141.4</ele>
        <time>2023-04-10T09:49:13Z</time>
      </trkpt>
      <trkpt lat="48.0158" lon="-3.13581">
        <ele>141.4</ele>
        <time>2023-04-10T09:49:16Z</time>
      </trkpt>
      <trkpt lat="48.01578" lon="-3.13579">
        <ele>141.4</ele>
        <time>2023-04-10T09:49:17Z</time>
      </trkpt>
      <trkpt lat="48.01576" lon="-3.13577">
        <ele>141.4</ele>
        <time>2023-04-10T09:49:18Z</time>
      </trkpt>
      <trkpt lat="48.01559" lon="-3.1356">
        <ele>141.2</ele>
        <time>2023-04-10T09:49:23Z</time>
      </trkpt>
      <trkpt lat="48.01556" lon="-3.13555">
        <ele>140.8</ele>
        <time>2023-04-10T09:49:24Z</time>
      </trkpt>
      <trkpt lat="48.01551" lon="-3.13543">
        <ele>140.6</ele>
        <time>2023-04-10T09:49:27Z</time>
      </trkpt>
      <trkpt lat="48.01544" lon="-3.13534">
        <ele>140.2</ele>
        <time>2023-04-10T09:49:30Z</time>
      </trkpt>
      <trkpt lat="48.0154" lon="-3.13531">
        <ele>140.2</ele>
        <time>2023-04-10T09:49:31Z</time>
      </trkpt>
      <trkpt lat="48.01536" lon="-3.13527">
        <ele>140</ele>
        <time>2023-04-10T09:49:32Z</time>
      </trkpt>
      <trkpt lat="48.01533" lon="-3.13524">
        <ele>139.6</ele>
        <time>2023-04-10T09:49:33Z</time>
      </trkpt>
      <trkpt lat="48.01527" lon="-3.13514">
        <ele>139.6</ele>
        <time>2023-04-10T09:49:35Z</time>
      </trkpt>
      <trkpt lat="48.01521" lon="-3.13509">
        <ele>139.4</ele>
        <time>2023-04-10T09:49:37Z</time>
      </trkpt>
      <trkpt lat="48.01517" lon="-3.13506">
        <ele>139.2</ele>
        <time>2023-04-10T09:49:38Z</time>
      </trkpt>
      <trkpt lat="48.01509" lon="-3.13492">
        <ele>139</ele>
        <time>2023-04-10T09:49:42Z</time>
      </trkpt>
      <trkpt lat="48.01507" lon="-3.13488">
        <ele>139</ele>
        <time>2023-04-10T09:49:43Z</time>
      </trkpt>
      <trkpt lat="48.01506" lon="-3.13485">
        <ele>139</ele>
        <time>2023-04-10T09:49:44Z</time>
      </trkpt>
      <trkpt lat="48.01505" lon="-3.13481">
        <ele>139</ele>
        <time>2023-04-10T09:49:45Z</time>
      </trkpt>
      <trkpt lat="48.01503" lon="-3.13479">
        <ele>138.8</ele>
        <time>2023-04-10T09:49:46Z</time>
      </trkpt>
      <trkpt lat="48.015" lon="-3.13477">
        <ele>138.8</ele>
        <time>2023-04-10T09:49:47Z</time>
      </trkpt>
      <trkpt lat="48.01495" lon="-3.13475">
        <ele>138.6</ele>
        <time>2023-04-10T09:49:48Z</time>
      </trkpt>
      <trkpt lat="48.01493" lon="-3.13473">
        <ele>138.6</ele>
        <time>2023-04-10T09:49:49Z</time>
      </trkpt>
      <trkpt lat="48.01487" lon="-3.13464">
        <ele>138.2</ele>
        <time>2023-04-10T09:49:52Z</time>
      </trkpt>
      <trkpt lat="48.01483" lon="-3.13461">
        <ele>138</ele>
        <time>2023-04-10T09:49:53Z</time>
      </trkpt>
      <trkpt lat="48.01483" lon="-3.13459">
        <ele>137.8</ele>
        <time>2023-04-10T09:49:54Z</time>
      </trkpt>
      <trkpt lat="48.01482" lon="-3.13456">
        <ele>137.4</ele>
        <time>2023-04-10T09:49:55Z</time>
      </trkpt>
      <trkpt lat="48.01481" lon="-3.13453">
        <ele>137.4</ele>
        <time>2023-04-10T09:49:56Z</time>
      </trkpt>
      <trkpt lat="48.01485" lon="-3.13441">
        <ele>136.8</ele>
        <time>2023-04-10T09:49:59Z</time>
      </trkpt>
      <trkpt lat="48.01485" lon="-3.13436">
        <ele>136.4</ele>
        <time>2023-04-10T09:50:00Z</time>
      </trkpt>
      <trkpt lat="48.01485" lon="-3.13431">
        <ele>136.2</ele>
        <time>2023-04-10T09:50:01Z</time>
      </trkpt>
      <trkpt lat="48.01485" lon="-3.13427">
        <ele>136</ele>
        <time>2023-04-10T09:50:02Z</time>
      </trkpt>
      <trkpt lat="48.01489" lon="-3.13414">
        <ele>135.8</ele>
        <time>2023-04-10T09:50:05Z</time>
      </trkpt>
      <trkpt lat="48.01491" lon="-3.13406">
        <ele>135.6</ele>
        <time>2023-04-10T09:50:06Z</time>
      </trkpt>
      <trkpt lat="48.01493" lon="-3.13399">
        <ele>135.6</ele>
        <time>2023-04-10T09:50:07Z</time>
      </trkpt>
      <trkpt lat="48.01494" lon="-3.13395">
        <ele>135.6</ele>
        <time>2023-04-10T09:50:08Z</time>
      </trkpt>
      <trkpt lat="48.01496" lon="-3.13393">
        <ele>135.6</ele>
        <time>2023-04-10T09:50:09Z</time>
      </trkpt>
      <trkpt lat="48.01497" lon="-3.13389">
        <ele>135.4</ele>
        <time>2023-04-10T09:50:10Z</time>
      </trkpt>
      <trkpt lat="48.01499" lon="-3.13387">
        <ele>135.4</ele>
        <time>2023-04-10T09:50:11Z</time>
      </trkpt>
      <trkpt lat="48.01499" lon="-3.1338">
        <ele>135.4</ele>
        <time>2023-04-10T09:50:13Z</time>
      </trkpt>
      <trkpt lat="48.01497" lon="-3.13375">
        <ele>135.4</ele>
        <time>2023-04-10T09:50:14Z</time>
      </trkpt>
      <trkpt lat="48.01495" lon="-3.13371">
        <ele>135.4</ele>
        <time>2023-04-10T09:50:15Z</time>
      </trkpt>
      <trkpt lat="48.01497" lon="-3.13369">
        <ele>135.4</ele>
        <time>2023-04-10T09:50:16Z</time>
      </trkpt>
      <trkpt lat="48.01498" lon="-3.13364">
        <ele>135.4</ele>
        <time>2023-04-10T09:50:17Z</time>
      </trkpt>
      <trkpt lat="48.01497" lon="-3.13355">
        <ele>135.4</ele>
        <time>2023-04-10T09:50:19Z</time>
      </trkpt>
      <trkpt lat="48.01497" lon="-3.13352">
        <ele>135.4</ele>
        <time>2023-04-10T09:50:20Z</time>
      </trkpt>
      <trkpt lat="48.01501" lon="-3.13345">
        <ele>135.4</ele>
        <time>2023-04-10T09:50:22Z</time>
      </trkpt>
      <trkpt lat="48.01502" lon="-3.13341">
        <ele>135.4</ele>
        <time>2023-04-10T09:50:23Z</time>
      </trkpt>
      <trkpt lat="48.01503" lon="-3.13337">
        <ele>135.4</ele>
        <time>2023-04-10T09:50:24Z</time>
      </trkpt>
      <trkpt lat="48.01504" lon="-3.13333">
        <ele>135.4</ele>
        <time>2023-04-10T09:50:25Z</time>
      </trkpt>
      <trkpt lat="48.01504" lon="-3.1333">
        <ele>135.4</ele>
        <time>2023-04-10T09:50:26Z</time>
      </trkpt>
      <trkpt lat="48.01505" lon="-3.13326">
        <ele>135.4</ele>
        <time>2023-04-10T09:50:27Z</time>
      </trkpt>
      <trkpt lat="48.01507" lon="-3.13319">
        <ele>135.8</ele>
        <time>2023-04-10T09:50:29Z</time>
      </trkpt>
      <trkpt lat="48.01508" lon="-3.13315">
        <ele>136.2</ele>
        <time>2023-04-10T09:50:30Z</time>
      </trkpt>
      <trkpt lat="48.01508" lon="-3.13311">
        <ele>136.4</ele>
        <time>2023-04-10T09:50:31Z</time>
      </trkpt>
      <trkpt lat="48.01509" lon="-3.13307">
        <ele>136.6</ele>
        <time>2023-04-10T09:50:32Z</time>
      </trkpt>
      <trkpt lat="48.01512" lon="-3.13291">
        <ele>137.6</ele>
        <time>2023-04-10T09:50:36Z</time>
      </trkpt>
      <trkpt lat="48.01514" lon="-3.13275">
        <ele>138.8</ele>
        <time>2023-04-10T09:50:40Z</time>
      </trkpt>
      <trkpt lat="48.01515" lon="-3.13272">
        <ele>139.2</ele>
        <time>2023-04-10T09:50:41Z</time>
      </trkpt>
      <trkpt lat="48.01516" lon="-3.13268">
        <ele>139.6</ele>
        <time>2023-04-10T09:50:42Z</time>
      </trkpt>
      <trkpt lat="48.01517" lon="-3.13265">
        <ele>140</ele>
        <time>2023-04-10T09:50:43Z</time>
      </trkpt>
      <trkpt lat="48.01518" lon="-3.13261">
        <ele>140.4</ele>
        <time>2023-04-10T09:50:44Z</time>
      </trkpt>
      <trkpt lat="48.01518" lon="-3.13258">
        <ele>140.6</ele>
        <time>2023-04-10T09:50:45Z</time>
      </trkpt>
      <trkpt lat="48.01519" lon="-3.13254">
        <ele>141</ele>
        <time>2023-04-10T09:50:46Z</time>
      </trkpt>
      <trkpt lat="48.0152" lon="-3.13251">
        <ele>141.2</ele>
        <time>2023-04-10T09:50:47Z</time>
      </trkpt>
      <trkpt lat="48.01521" lon="-3.13247">
        <ele>141.4</ele>
        <time>2023-04-10T09:50:48Z</time>
      </trkpt>
      <trkpt lat="48.01522" lon="-3.13243">
        <ele>141.8</ele>
        <time>2023-04-10T09:50:49Z</time>
      </trkpt>
      <trkpt lat="48.01523" lon="-3.1324">
        <ele>142.2</ele>
        <time>2023-04-10T09:50:50Z</time>
      </trkpt>
      <trkpt lat="48.01524" lon="-3.13236">
        <ele>142.4</ele>
        <time>2023-04-10T09:50:51Z</time>
      </trkpt>
      <trkpt lat="48.01525" lon="-3.13232">
        <ele>142.4</ele>
        <time>2023-04-10T09:50:52Z</time>
      </trkpt>
      <trkpt lat="48.01526" lon="-3.13229">
        <ele>142.6</ele>
        <time>2023-04-10T09:50:53Z</time>
      </trkpt>
      <trkpt lat="48.01527" lon="-3.13225">
        <ele>142.6</ele>
        <time>2023-04-10T09:50:54Z</time>
      </trkpt>
      <trkpt lat="48.01529" lon="-3.13222">
        <ele>142.6</ele>
        <time>2023-04-10T09:50:55Z</time>
      </trkpt>
      <trkpt lat="48.0153" lon="-3.13219">
        <ele>143</ele>
        <time>2023-04-10T09:50:56Z</time>
      </trkpt>
      <trkpt lat="48.01531" lon="-3.13215">
        <ele>143.2</ele>
        <time>2023-04-10T09:50:57Z</time>
      </trkpt>
      <trkpt lat="48.01532" lon="-3.13212">
        <ele>143.6</ele>
        <time>2023-04-10T09:50:58Z</time>
      </trkpt>
      <trkpt lat="48.01534" lon="-3.13209">
        <ele>143.8</ele>
        <time>2023-04-10T09:50:59Z</time>
      </trkpt>
      <trkpt lat="48.01536" lon="-3.13206">
        <ele>144.2</ele>
        <time>2023-04-10T09:51:00Z</time>
      </trkpt>
      <trkpt lat="48.01538" lon="-3.13202">
        <ele>144.6</ele>
        <time>2023-04-10T09:51:01Z</time>
      </trkpt>
      <trkpt lat="48.01539" lon="-3.13199">
        <ele>144.8</ele>
        <time>2023-04-10T09:51:02Z</time>
      </trkpt>
      <trkpt lat="48.01541" lon="-3.13196">
        <ele>145</ele>
        <time>2023-04-10T09:51:03Z</time>
      </trkpt>
      <trkpt lat="48.01543" lon="-3.13194">
        <ele>145.4</ele>
        <time>2023-04-10T09:51:04Z</time>
      </trkpt>
      <trkpt lat="48.01545" lon="-3.13191">
        <ele>145.6</ele>
        <time>2023-04-10T09:51:05Z</time>
      </trkpt>
      <trkpt lat="48.01547" lon="-3.13188">
        <ele>145.8</ele>
        <time>2023-04-10T09:51:06Z</time>
      </trkpt>
      <trkpt lat="48.01549" lon="-3.13185">
        <ele>146.2</ele>
        <time>2023-04-10T09:51:07Z</time>
      </trkpt>
      <trkpt lat="48.01552" lon="-3.13183">
        <ele>146.4</ele>
        <time>2023-04-10T09:51:08Z</time>
      </trkpt>
      <trkpt lat="48.01554" lon="-3.13181">
        <ele>146.4</ele>
        <time>2023-04-10T09:51:09Z</time>
      </trkpt>
      <trkpt lat="48.01557" lon="-3.13178">
        <ele>146.6</ele>
        <time>2023-04-10T09:51:10Z</time>
      </trkpt>
      <trkpt lat="48.01559" lon="-3.13176">
        <ele>147</ele>
        <time>2023-04-10T09:51:11Z</time>
      </trkpt>
      <trkpt lat="48.01562" lon="-3.13174">
        <ele>147.2</ele>
        <time>2023-04-10T09:51:12Z</time>
      </trkpt>
      <trkpt lat="48.01564" lon="-3.13172">
        <ele>147.4</ele>
        <time>2023-04-10T09:51:13Z</time>
      </trkpt>
      <trkpt lat="48.01567" lon="-3.1317">
        <ele>147.6</ele>
        <time>2023-04-10T09:51:14Z</time>
      </trkpt>
      <trkpt lat="48.0157" lon="-3.13168">
        <ele>147.8</ele>
        <time>2023-04-10T09:51:15Z</time>
      </trkpt>
      <trkpt lat="48.01572" lon="-3.13166">
        <ele>148</ele>
        <time>2023-04-10T09:51:16Z</time>
      </trkpt>
      <trkpt lat="48.01575" lon="-3.13164">
        <ele>148</ele>
        <time>2023-04-10T09:51:17Z</time>
      </trkpt>
      <trkpt lat="48.01578" lon="-3.13162">
        <ele>148.2</ele>
        <time>2023-04-10T09:51:18Z</time>
      </trkpt>
      <trkpt lat="48.0158" lon="-3.1316">
        <ele>148.4</ele>
        <time>2023-04-10T09:51:19Z</time>
      </trkpt>
      <trkpt lat="48.01583" lon="-3.13158">
        <ele>148.8</ele>
        <time>2023-04-10T09:51:20Z</time>
      </trkpt>
      <trkpt lat="48.01585" lon="-3.13157">
        <ele>149</ele>
        <time>2023-04-10T09:51:21Z</time>
      </trkpt>
      <trkpt lat="48.01588" lon="-3.13155">
        <ele>149.2</ele>
        <time>2023-04-10T09:51:22Z</time>
      </trkpt>
      <trkpt lat="48.01591" lon="-3.13153">
        <ele>149.2</ele>
        <time>2023-04-10T09:51:23Z</time>
      </trkpt>
      <trkpt lat="48.01594" lon="-3.13151">
        <ele>149.4</ele>
        <time>2023-04-10T09:51:24Z</time>
      </trkpt>
      <trkpt lat="48.01596" lon="-3.13149">
        <ele>149.6</ele>
        <time>2023-04-10T09:51:25Z</time>
      </trkpt>
      <trkpt lat="48.01599" lon="-3.13147">
        <ele>149.8</ele>
        <time>2023-04-10T09:51:26Z</time>
      </trkpt>
      <trkpt lat="48.01602" lon="-3.13144">
        <ele>150</ele>
        <time>2023-04-10T09:51:27Z</time>
      </trkpt>
      <trkpt lat="48.01605" lon="-3.13142">
        <ele>150</ele>
        <time>2023-04-10T09:51:28Z</time>
      </trkpt>
      <trkpt lat="48.01607" lon="-3.1314">
        <ele>150</ele>
        <time>2023-04-10T09:51:29Z</time>
      </trkpt>
      <trkpt lat="48.0161" lon="-3.13138">
        <ele>150.2</ele>
        <time>2023-04-10T09:51:30Z</time>
      </trkpt>
      <trkpt lat="48.01613" lon="-3.13136">
        <ele>150.4</ele>
        <time>2023-04-10T09:51:31Z</time>
      </trkpt>
      <trkpt lat="48.01616" lon="-3.13133">
        <ele>150.6</ele>
        <time>2023-04-10T09:51:32Z</time>
      </trkpt>
      <trkpt lat="48.01619" lon="-3.13131">
        <ele>151</ele>
        <time>2023-04-10T09:51:33Z</time>
      </trkpt>
      <trkpt lat="48.01622" lon="-3.13129">
        <ele>151</ele>
        <time>2023-04-10T09:51:34Z</time>
      </trkpt>
      <trkpt lat="48.01624" lon="-3.13126">
        <ele>151.2</ele>
        <time>2023-04-10T09:51:35Z</time>
      </trkpt>
      <trkpt lat="48.01627" lon="-3.13124">
        <ele>151.4</ele>
        <time>2023-04-10T09:51:36Z</time>
      </trkpt>
      <trkpt lat="48.0163" lon="-3.13121">
        <ele>151.6</ele>
        <time>2023-04-10T09:51:37Z</time>
      </trkpt>
      <trkpt lat="48.01632" lon="-3.13119">
        <ele>151.8</ele>
        <time>2023-04-10T09:51:38Z</time>
      </trkpt>
      <trkpt lat="48.01635" lon="-3.13116">
        <ele>152</ele>
        <time>2023-04-10T09:51:39Z</time>
      </trkpt>
      <trkpt lat="48.01638" lon="-3.13113">
        <ele>152</ele>
        <time>2023-04-10T09:51:40Z</time>
      </trkpt>
      <trkpt lat="48.0164" lon="-3.1311">
        <ele>152.4</ele>
        <time>2023-04-10T09:51:41Z</time>
      </trkpt>
      <trkpt lat="48.01643" lon="-3.13107">
        <ele>152.4</ele>
        <time>2023-04-10T09:51:42Z</time>
      </trkpt>
      <trkpt lat="48.01646" lon="-3.13104">
        <ele>152.8</ele>
        <time>2023-04-10T09:51:43Z</time>
      </trkpt>
      <trkpt lat="48.01649" lon="-3.13102">
        <ele>153</ele>
        <time>2023-04-10T09:51:44Z</time>
      </trkpt>
      <trkpt lat="48.01651" lon="-3.13099">
        <ele>153</ele>
        <time>2023-04-10T09:51:45Z</time>
      </trkpt>
      <trkpt lat="48.01654" lon="-3.13095">
        <ele>153.2</ele>
        <time>2023-04-10T09:51:46Z</time>
      </trkpt>
      <trkpt lat="48.01657" lon="-3.13091">
        <ele>153.4</ele>
        <time>2023-04-10T09:51:47Z</time>
      </trkpt>
      <trkpt lat="48.01659" lon="-3.13087">
        <ele>153.4</ele>
        <time>2023-04-10T09:51:48Z</time>
      </trkpt>
      <trkpt lat="48.01662" lon="-3.13083">
        <ele>153.6</ele>
        <time>2023-04-10T09:51:49Z</time>
      </trkpt>
      <trkpt lat="48.01664" lon="-3.13079">
        <ele>153.8</ele>
        <time>2023-04-10T09:51:50Z</time>
      </trkpt>
      <trkpt lat="48.01666" lon="-3.13074">
        <ele>153.8</ele>
        <time>2023-04-10T09:51:51Z</time>
      </trkpt>
      <trkpt lat="48.01667" lon="-3.13069">
        <ele>154</ele>
        <time>2023-04-10T09:51:52Z</time>
      </trkpt>
      <trkpt lat="48.01669" lon="-3.13064">
        <ele>154</ele>
        <time>2023-04-10T09:51:53Z</time>
      </trkpt>
      <trkpt lat="48.0167" lon="-3.13059">
        <ele>154</ele>
        <time>2023-04-10T09:51:54Z</time>
      </trkpt>
      <trkpt lat="48.01672" lon="-3.13054">
        <ele>154</ele>
        <time>2023-04-10T09:51:55Z</time>
      </trkpt>
      <trkpt lat="48.01674" lon="-3.13048">
        <ele>154.2</ele>
        <time>2023-04-10T09:51:56Z</time>
      </trkpt>
      <trkpt lat="48.01675" lon="-3.13043">
        <ele>154.4</ele>
        <time>2023-04-10T09:51:57Z</time>
      </trkpt>
      <trkpt lat="48.01676" lon="-3.13037">
        <ele>154.6</ele>
        <time>2023-04-10T09:51:58Z</time>
      </trkpt>
      <trkpt lat="48.01676" lon="-3.13031">
        <ele>154.8</ele>
        <time>2023-04-10T09:51:59Z</time>
      </trkpt>
      <trkpt lat="48.01677" lon="-3.13025">
        <ele>154.8</ele>
        <time>2023-04-10T09:52:00Z</time>
      </trkpt>
      <trkpt lat="48.01678" lon="-3.13019">
        <ele>155</ele>
        <time>2023-04-10T09:52:01Z</time>
      </trkpt>
      <trkpt lat="48.01678" lon="-3.13013">
        <ele>155</ele>
        <time>2023-04-10T09:52:02Z</time>
      </trkpt>
      <trkpt lat="48.01679" lon="-3.13007">
        <ele>155</ele>
        <time>2023-04-10T09:52:03Z</time>
      </trkpt>
      <trkpt lat="48.0168" lon="-3.13001">
        <ele>155.2</ele>
        <time>2023-04-10T09:52:04Z</time>
      </trkpt>
      <trkpt lat="48.0168" lon="-3.12994">
        <ele>155.2</ele>
        <time>2023-04-10T09:52:05Z</time>
      </trkpt>
      <trkpt lat="48.0168" lon="-3.12988">
        <ele>155.4</ele>
        <time>2023-04-10T09:52:06Z</time>
      </trkpt>
      <trkpt lat="48.01681" lon="-3.12981">
        <ele>155.4</ele>
        <time>2023-04-10T09:52:07Z</time>
      </trkpt>
      <trkpt lat="48.01681" lon="-3.12975">
        <ele>155.4</ele>
        <time>2023-04-10T09:52:08Z</time>
      </trkpt>
      <trkpt lat="48.01681" lon="-3.12968">
        <ele>155.4</ele>
        <time>2023-04-10T09:52:09Z</time>
      </trkpt>
      <trkpt lat="48.01681" lon="-3.12962">
        <ele>155.6</ele>
        <time>2023-04-10T09:52:10Z</time>
      </trkpt>
      <trkpt lat="48.01681" lon="-3.12955">
        <ele>155.6</ele>
        <time>2023-04-10T09:52:11Z</time>
      </trkpt>
      <trkpt lat="48.01681" lon="-3.12949">
        <ele>155.6</ele>
        <time>2023-04-10T09:52:12Z</time>
      </trkpt>
      <trkpt lat="48.01681" lon="-3.12942">
        <ele>155.6</ele>
        <time>2023-04-10T09:52:13Z</time>
      </trkpt>
      <trkpt lat="48.01681" lon="-3.12936">
        <ele>155.6</ele>
        <time>2023-04-10T09:52:14Z</time>
      </trkpt>
      <trkpt lat="48.01681" lon="-3.12929">
        <ele>155.8</ele>
        <time>2023-04-10T09:52:15Z</time>
      </trkpt>
      <trkpt lat="48.0168" lon="-3.12922">
        <ele>155.8</ele>
        <time>2023-04-10T09:52:16Z</time>
      </trkpt>
      <trkpt lat="48.01678" lon="-3.12909">
        <ele>156</ele>
        <time>2023-04-10T09:52:18Z</time>
      </trkpt>
      <trkpt lat="48.01677" lon="-3.12903">
        <ele>156</ele>
        <time>2023-04-10T09:52:19Z</time>
      </trkpt>
      <trkpt lat="48.01677" lon="-3.12897">
        <ele>156.4</ele>
        <time>2023-04-10T09:52:20Z</time>
      </trkpt>
      <trkpt lat="48.01676" lon="-3.12891">
        <ele>156.4</ele>
        <time>2023-04-10T09:52:21Z</time>
      </trkpt>
      <trkpt lat="48.01676" lon="-3.12885">
        <ele>156.6</ele>
        <time>2023-04-10T09:52:22Z</time>
      </trkpt>
      <trkpt lat="48.01675" lon="-3.12879">
        <ele>156.8</ele>
        <time>2023-04-10T09:52:23Z</time>
      </trkpt>
      <trkpt lat="48.01674" lon="-3.12873">
        <ele>156.8</ele>
        <time>2023-04-10T09:52:24Z</time>
      </trkpt>
      <trkpt lat="48.01673" lon="-3.12867">
        <ele>156.8</ele>
        <time>2023-04-10T09:52:25Z</time>
      </trkpt>
      <trkpt lat="48.01672" lon="-3.12862">
        <ele>157</ele>
        <time>2023-04-10T09:52:26Z</time>
      </trkpt>
      <trkpt lat="48.0167" lon="-3.12851">
        <ele>157.4</ele>
        <time>2023-04-10T09:52:28Z</time>
      </trkpt>
      <trkpt lat="48.01669" lon="-3.12839">
        <ele>157.8</ele>
        <time>2023-04-10T09:52:30Z</time>
      </trkpt>
      <trkpt lat="48.01668" lon="-3.12833">
        <ele>158.2</ele>
        <time>2023-04-10T09:52:31Z</time>
      </trkpt>
      <trkpt lat="48.01667" lon="-3.12827">
        <ele>158.4</ele>
        <time>2023-04-10T09:52:32Z</time>
      </trkpt>
      <trkpt lat="48.01666" lon="-3.12821">
        <ele>158.6</ele>
        <time>2023-04-10T09:52:33Z</time>
      </trkpt>
      <trkpt lat="48.01665" lon="-3.12814">
        <ele>158.8</ele>
        <time>2023-04-10T09:52:34Z</time>
      </trkpt>
      <trkpt lat="48.01665" lon="-3.12808">
        <ele>159</ele>
        <time>2023-04-10T09:52:35Z</time>
      </trkpt>
      <trkpt lat="48.01665" lon="-3.12802">
        <ele>159</ele>
        <time>2023-04-10T09:52:36Z</time>
      </trkpt>
      <trkpt lat="48.01664" lon="-3.12795">
        <ele>159.4</ele>
        <time>2023-04-10T09:52:37Z</time>
      </trkpt>
      <trkpt lat="48.01664" lon="-3.12789">
        <ele>159.6</ele>
        <time>2023-04-10T09:52:38Z</time>
      </trkpt>
      <trkpt lat="48.01664" lon="-3.12782">
        <ele>159.8</ele>
        <time>2023-04-10T09:52:39Z</time>
      </trkpt>
      <trkpt lat="48.01664" lon="-3.12776">
        <ele>160</ele>
        <time>2023-04-10T09:52:40Z</time>
      </trkpt>
      <trkpt lat="48.01663" lon="-3.12769">
        <ele>160.2</ele>
        <time>2023-04-10T09:52:41Z</time>
      </trkpt>
      <trkpt lat="48.01663" lon="-3.12763">
        <ele>160.4</ele>
        <time>2023-04-10T09:52:42Z</time>
      </trkpt>
      <trkpt lat="48.01662" lon="-3.12756">
        <ele>160.6</ele>
        <time>2023-04-10T09:52:43Z</time>
      </trkpt>
      <trkpt lat="48.01662" lon="-3.1275">
        <ele>160.8</ele>
        <time>2023-04-10T09:52:44Z</time>
      </trkpt>
      <trkpt lat="48.01662" lon="-3.12744">
        <ele>161</ele>
        <time>2023-04-10T09:52:45Z</time>
      </trkpt>
      <trkpt lat="48.01661" lon="-3.12737">
        <ele>161.4</ele>
        <time>2023-04-10T09:52:46Z</time>
      </trkpt>
      <trkpt lat="48.01661" lon="-3.12731">
        <ele>161.6</ele>
        <time>2023-04-10T09:52:47Z</time>
      </trkpt>
      <trkpt lat="48.01661" lon="-3.12724">
        <ele>161.6</ele>
        <time>2023-04-10T09:52:48Z</time>
      </trkpt>
      <trkpt lat="48.01661" lon="-3.12717">
        <ele>161.6</ele>
        <time>2023-04-10T09:52:49Z</time>
      </trkpt>
      <trkpt lat="48.01661" lon="-3.12711">
        <ele>161.8</ele>
        <time>2023-04-10T09:52:50Z</time>
      </trkpt>
      <trkpt lat="48.01661" lon="-3.12704">
        <ele>161.8</ele>
        <time>2023-04-10T09:52:51Z</time>
      </trkpt>
      <trkpt lat="48.0166" lon="-3.12698">
        <ele>162</ele>
        <time>2023-04-10T09:52:52Z</time>
      </trkpt>
      <trkpt lat="48.0166" lon="-3.12692">
        <ele>162</ele>
        <time>2023-04-10T09:52:53Z</time>
      </trkpt>
      <trkpt lat="48.01659" lon="-3.12685">
        <ele>162.2</ele>
        <time>2023-04-10T09:52:54Z</time>
      </trkpt>
      <trkpt lat="48.01659" lon="-3.12678">
        <ele>162.4</ele>
        <time>2023-04-10T09:52:55Z</time>
      </trkpt>
      <trkpt lat="48.01659" lon="-3.12672">
        <ele>162.4</ele>
        <time>2023-04-10T09:52:56Z</time>
      </trkpt>
      <trkpt lat="48.01659" lon="-3.12665">
        <ele>162.6</ele>
        <time>2023-04-10T09:52:57Z</time>
      </trkpt>
      <trkpt lat="48.01659" lon="-3.12659">
        <ele>162.8</ele>
        <time>2023-04-10T09:52:58Z</time>
      </trkpt>
      <trkpt lat="48.0166" lon="-3.12652">
        <ele>162.8</ele>
        <time>2023-04-10T09:52:59Z</time>
      </trkpt>
      <trkpt lat="48.01661" lon="-3.12646">
        <ele>162.8</ele>
        <time>2023-04-10T09:53:00Z</time>
      </trkpt>
      <trkpt lat="48.01663" lon="-3.1264">
        <ele>163</ele>
        <time>2023-04-10T09:53:01Z</time>
      </trkpt>
      <trkpt lat="48.01666" lon="-3.12635">
        <ele>163.2</ele>
        <time>2023-04-10T09:53:02Z</time>
      </trkpt>
      <trkpt lat="48.0167" lon="-3.12631">
        <ele>163.4</ele>
        <time>2023-04-10T09:53:03Z</time>
      </trkpt>
      <trkpt lat="48.01674" lon="-3.12629">
        <ele>163.6</ele>
        <time>2023-04-10T09:53:04Z</time>
      </trkpt>
      <trkpt lat="48.01678" lon="-3.12629">
        <ele>163.8</ele>
        <time>2023-04-10T09:53:05Z</time>
      </trkpt>
      <trkpt lat="48.01682" lon="-3.12631">
        <ele>164</ele>
        <time>2023-04-10T09:53:06Z</time>
      </trkpt>
      <trkpt lat="48.01687" lon="-3.12633">
        <ele>164</ele>
        <time>2023-04-10T09:53:07Z</time>
      </trkpt>
      <trkpt lat="48.01692" lon="-3.12635">
        <ele>164.2</ele>
        <time>2023-04-10T09:53:08Z</time>
      </trkpt>
      <trkpt lat="48.01697" lon="-3.12637">
        <ele>164.4</ele>
        <time>2023-04-10T09:53:09Z</time>
      </trkpt>
      <trkpt lat="48.01701" lon="-3.1264">
        <ele>164.6</ele>
        <time>2023-04-10T09:53:10Z</time>
      </trkpt>
      <trkpt lat="48.01706" lon="-3.12642">
        <ele>164.6</ele>
        <time>2023-04-10T09:53:11Z</time>
      </trkpt>
      <trkpt lat="48.0171" lon="-3.12644">
        <ele>164.8</ele>
        <time>2023-04-10T09:53:12Z</time>
      </trkpt>
      <trkpt lat="48.01714" lon="-3.12645">
        <ele>164.8</ele>
        <time>2023-04-10T09:53:13Z</time>
      </trkpt>
      <trkpt lat="48.01719" lon="-3.12648">
        <ele>165</ele>
        <time>2023-04-10T09:53:14Z</time>
      </trkpt>
      <trkpt lat="48.01724" lon="-3.1265">
        <ele>165.2</ele>
        <time>2023-04-10T09:53:15Z</time>
      </trkpt>
      <trkpt lat="48.01728" lon="-3.12652">
        <ele>165.2</ele>
        <time>2023-04-10T09:53:16Z</time>
      </trkpt>
      <trkpt lat="48.01733" lon="-3.12654">
        <ele>165.2</ele>
        <time>2023-04-10T09:53:17Z</time>
      </trkpt>
      <trkpt lat="48.01738" lon="-3.12655">
        <ele>165.2</ele>
        <time>2023-04-10T09:53:18Z</time>
      </trkpt>
      <trkpt lat="48.01742" lon="-3.12656">
        <ele>165.2</ele>
        <time>2023-04-10T09:53:19Z</time>
      </trkpt>
      <trkpt lat="48.01747" lon="-3.12658">
        <ele>165.2</ele>
        <time>2023-04-10T09:53:20Z</time>
      </trkpt>
      <trkpt lat="48.01751" lon="-3.12659">
        <ele>165.2</ele>
        <time>2023-04-10T09:53:21Z</time>
      </trkpt>
      <trkpt lat="48.01756" lon="-3.12661">
        <ele>165.2</ele>
        <time>2023-04-10T09:53:22Z</time>
      </trkpt>
      <trkpt lat="48.0176" lon="-3.12663">
        <ele>165.2</ele>
        <time>2023-04-10T09:53:23Z</time>
      </trkpt>
      <trkpt lat="48.01764" lon="-3.12664">
        <ele>165.2</ele>
        <time>2023-04-10T09:53:24Z</time>
      </trkpt>
      <trkpt lat="48.01768" lon="-3.12664">
        <ele>165.4</ele>
        <time>2023-04-10T09:53:25Z</time>
      </trkpt>
      <trkpt lat="48.01772" lon="-3.12665">
        <ele>165.4</ele>
        <time>2023-04-10T09:53:26Z</time>
      </trkpt>
      <trkpt lat="48.01776" lon="-3.12666">
        <ele>165.4</ele>
        <time>2023-04-10T09:53:27Z</time>
      </trkpt>
      <trkpt lat="48.0178" lon="-3.12667">
        <ele>165.4</ele>
        <time>2023-04-10T09:53:28Z</time>
      </trkpt>
      <trkpt lat="48.01788" lon="-3.12668">
        <ele>165.4</ele>
        <time>2023-04-10T09:53:30Z</time>
      </trkpt>
      <trkpt lat="48.01791" lon="-3.12669">
        <ele>165.4</ele>
        <time>2023-04-10T09:53:31Z</time>
      </trkpt>
      <trkpt lat="48.01796" lon="-3.1267">
        <ele>165.6</ele>
        <time>2023-04-10T09:53:32Z</time>
      </trkpt>
      <trkpt lat="48.018" lon="-3.12671">
        <ele>165.8</ele>
        <time>2023-04-10T09:53:33Z</time>
      </trkpt>
      <trkpt lat="48.01812" lon="-3.12671">
        <ele>166.2</ele>
        <time>2023-04-10T09:53:36Z</time>
      </trkpt>
      <trkpt lat="48.01816" lon="-3.1267">
        <ele>166.4</ele>
        <time>2023-04-10T09:53:37Z</time>
      </trkpt>
      <trkpt lat="48.01838" lon="-3.12667">
        <ele>167.2</ele>
        <time>2023-04-10T09:53:42Z</time>
      </trkpt>
      <trkpt lat="48.01848" lon="-3.12666">
        <ele>167.4</ele>
        <time>2023-04-10T09:53:44Z</time>
      </trkpt>
      <trkpt lat="48.01852" lon="-3.12666">
        <ele>167.4</ele>
        <time>2023-04-10T09:53:45Z</time>
      </trkpt>
      <trkpt lat="48.01874" lon="-3.12662">
        <ele>167.4</ele>
        <time>2023-04-10T09:53:49Z</time>
      </trkpt>
      <trkpt lat="48.0188" lon="-3.12661">
        <ele>167.4</ele>
        <time>2023-04-10T09:53:50Z</time>
      </trkpt>
      <trkpt lat="48.01914" lon="-3.12665">
        <ele>167.2</ele>
        <time>2023-04-10T09:53:55Z</time>
      </trkpt>
      <trkpt lat="48.01951" lon="-3.12678">
        <ele>166</ele>
        <time>2023-04-10T09:54:00Z</time>
      </trkpt>
      <trkpt lat="48.01957" lon="-3.12679">
        <ele>165.8</ele>
        <time>2023-04-10T09:54:01Z</time>
      </trkpt>
      <trkpt lat="48.01965" lon="-3.12682">
        <ele>165.6</ele>
        <time>2023-04-10T09:54:02Z</time>
      </trkpt>
      <trkpt lat="48.01972" lon="-3.12684">
        <ele>165</ele>
        <time>2023-04-10T09:54:03Z</time>
      </trkpt>
      <trkpt lat="48.01978" lon="-3.12686">
        <ele>164.6</ele>
        <time>2023-04-10T09:54:04Z</time>
      </trkpt>
      <trkpt lat="48.01985" lon="-3.12688">
        <ele>164.4</ele>
        <time>2023-04-10T09:54:05Z</time>
      </trkpt>
      <trkpt lat="48.01989" lon="-3.12689">
        <ele>164.4</ele>
        <time>2023-04-10T09:54:06Z</time>
      </trkpt>
      <trkpt lat="48.01996" lon="-3.12691">
        <ele>164</ele>
        <time>2023-04-10T09:54:07Z</time>
      </trkpt>
      <trkpt lat="48.02002" lon="-3.12692">
        <ele>163.8</ele>
        <time>2023-04-10T09:54:08Z</time>
      </trkpt>
      <trkpt lat="48.02006" lon="-3.12694">
        <ele>163.6</ele>
        <time>2023-04-10T09:54:09Z</time>
      </trkpt>
      <trkpt lat="48.02012" lon="-3.12696">
        <ele>163.2</ele>
        <time>2023-04-10T09:54:10Z</time>
      </trkpt>
      <trkpt lat="48.02018" lon="-3.12697">
        <ele>163</ele>
        <time>2023-04-10T09:54:11Z</time>
      </trkpt>
      <trkpt lat="48.02023" lon="-3.12698">
        <ele>163</ele>
        <time>2023-04-10T09:54:12Z</time>
      </trkpt>
      <trkpt lat="48.02029" lon="-3.127">
        <ele>163</ele>
        <time>2023-04-10T09:54:13Z</time>
      </trkpt>
      <trkpt lat="48.02034" lon="-3.12701">
        <ele>162.8</ele>
        <time>2023-04-10T09:54:14Z</time>
      </trkpt>
      <trkpt lat="48.02039" lon="-3.12701">
        <ele>162.8</ele>
        <time>2023-04-10T09:54:15Z</time>
      </trkpt>
      <trkpt lat="48.02044" lon="-3.12702">
        <ele>162.8</ele>
        <time>2023-04-10T09:54:17Z</time>
      </trkpt>
      <trkpt lat="48.02048" lon="-3.12703">
        <ele>162.8</ele>
        <time>2023-04-10T09:54:18Z</time>
      </trkpt>
      <trkpt lat="48.02054" lon="-3.12704">
        <ele>162.8</ele>
        <time>2023-04-10T09:54:19Z</time>
      </trkpt>
      <trkpt lat="48.02058" lon="-3.12705">
        <ele>162.8</ele>
        <time>2023-04-10T09:54:20Z</time>
      </trkpt>
      <trkpt lat="48.02073" lon="-3.12709">
        <ele>163</ele>
        <time>2023-04-10T09:54:23Z</time>
      </trkpt>
      <trkpt lat="48.02096" lon="-3.12714">
        <ele>163.6</ele>
        <time>2023-04-10T09:54:28Z</time>
      </trkpt>
      <trkpt lat="48.02116" lon="-3.12717">
        <ele>164.4</ele>
        <time>2023-04-10T09:54:32Z</time>
      </trkpt>
      <trkpt lat="48.02126" lon="-3.12717">
        <ele>165</ele>
        <time>2023-04-10T09:54:34Z</time>
      </trkpt>
      <trkpt lat="48.02148" lon="-3.12715">
        <ele>165.8</ele>
        <time>2023-04-10T09:54:38Z</time>
      </trkpt>
      <trkpt lat="48.02159" lon="-3.12713">
        <ele>166</ele>
        <time>2023-04-10T09:54:40Z</time>
      </trkpt>
      <trkpt lat="48.02188" lon="-3.12706">
        <ele>166.4</ele>
        <time>2023-04-10T09:54:45Z</time>
      </trkpt>
      <trkpt lat="48.02193" lon="-3.12705">
        <ele>166.4</ele>
        <time>2023-04-10T09:54:46Z</time>
      </trkpt>
      <trkpt lat="48.02199" lon="-3.12703">
        <ele>166.6</ele>
        <time>2023-04-10T09:54:47Z</time>
      </trkpt>
      <trkpt lat="48.02204" lon="-3.12702">
        <ele>166.6</ele>
        <time>2023-04-10T09:54:48Z</time>
      </trkpt>
      <trkpt lat="48.0221" lon="-3.12701">
        <ele>166.6</ele>
        <time>2023-04-10T09:54:49Z</time>
      </trkpt>
      <trkpt lat="48.02216" lon="-3.12699">
        <ele>166.6</ele>
        <time>2023-04-10T09:54:50Z</time>
      </trkpt>
      <trkpt lat="48.02221" lon="-3.12698">
        <ele>166.6</ele>
        <time>2023-04-10T09:54:51Z</time>
      </trkpt>
      <trkpt lat="48.02227" lon="-3.12697">
        <ele>166.8</ele>
        <time>2023-04-10T09:54:52Z</time>
      </trkpt>
      <trkpt lat="48.02233" lon="-3.12695">
        <ele>166.8</ele>
        <time>2023-04-10T09:54:53Z</time>
      </trkpt>
      <trkpt lat="48.02239" lon="-3.12694">
        <ele>166.8</ele>
        <time>2023-04-10T09:54:54Z</time>
      </trkpt>
      <trkpt lat="48.02245" lon="-3.12693">
        <ele>166.8</ele>
        <time>2023-04-10T09:54:55Z</time>
      </trkpt>
      <trkpt lat="48.02251" lon="-3.12691">
        <ele>167</ele>
        <time>2023-04-10T09:54:56Z</time>
      </trkpt>
      <trkpt lat="48.02257" lon="-3.12689">
        <ele>167</ele>
        <time>2023-04-10T09:54:57Z</time>
      </trkpt>
      <trkpt lat="48.02263" lon="-3.12688">
        <ele>167</ele>
        <time>2023-04-10T09:54:58Z</time>
      </trkpt>
      <trkpt lat="48.02282" lon="-3.12682">
        <ele>167</ele>
        <time>2023-04-10T09:55:01Z</time>
      </trkpt>
      <trkpt lat="48.02288" lon="-3.12678">
        <ele>167</ele>
        <time>2023-04-10T09:55:02Z</time>
      </trkpt>
      <trkpt lat="48.02307" lon="-3.12661">
        <ele>167</ele>
        <time>2023-04-10T09:55:05Z</time>
      </trkpt>
      <trkpt lat="48.02344" lon="-3.12615">
        <ele>166.4</ele>
        <time>2023-04-10T09:55:11Z</time>
      </trkpt>
      <trkpt lat="48.02361" lon="-3.12597">
        <ele>165.8</ele>
        <time>2023-04-10T09:55:13Z</time>
      </trkpt>
      <trkpt lat="48.02377" lon="-3.12582">
        <ele>164.8</ele>
        <time>2023-04-10T09:55:15Z</time>
      </trkpt>
      <trkpt lat="48.02384" lon="-3.12576">
        <ele>164.4</ele>
        <time>2023-04-10T09:55:16Z</time>
      </trkpt>
      <trkpt lat="48.02404" lon="-3.12562">
        <ele>163.4</ele>
        <time>2023-04-10T09:55:18Z</time>
      </trkpt>
      <trkpt lat="48.02435" lon="-3.12548">
        <ele>162.4</ele>
        <time>2023-04-10T09:55:21Z</time>
      </trkpt>
      <trkpt lat="48.02446" lon="-3.12546">
        <ele>162</ele>
        <time>2023-04-10T09:55:22Z</time>
      </trkpt>
      <trkpt lat="48.02457" lon="-3.12545">
        <ele>161.2</ele>
        <time>2023-04-10T09:55:23Z</time>
      </trkpt>
      <trkpt lat="48.02468" lon="-3.12545">
        <ele>160.2</ele>
        <time>2023-04-10T09:55:24Z</time>
      </trkpt>
      <trkpt lat="48.02479" lon="-3.12545">
        <ele>159.2</ele>
        <time>2023-04-10T09:55:25Z</time>
      </trkpt>
      <trkpt lat="48.0249" lon="-3.12545">
        <ele>159.2</ele>
        <time>2023-04-10T09:55:26Z</time>
      </trkpt>
      <trkpt lat="48.02501" lon="-3.12546">
        <ele>158.4</ele>
        <time>2023-04-10T09:55:27Z</time>
      </trkpt>
      <trkpt lat="48.02511" lon="-3.12546">
        <ele>157.6</ele>
        <time>2023-04-10T09:55:28Z</time>
      </trkpt>
      <trkpt lat="48.02521" lon="-3.12546">
        <ele>156.8</ele>
        <time>2023-04-10T09:55:29Z</time>
      </trkpt>
      <trkpt lat="48.02531" lon="-3.12546">
        <ele>156.4</ele>
        <time>2023-04-10T09:55:30Z</time>
      </trkpt>
      <trkpt lat="48.02541" lon="-3.12546">
        <ele>156</ele>
        <time>2023-04-10T09:55:31Z</time>
      </trkpt>
      <trkpt lat="48.0255" lon="-3.12545">
        <ele>155.6</ele>
        <time>2023-04-10T09:55:32Z</time>
      </trkpt>
      <trkpt lat="48.02558" lon="-3.12545">
        <ele>154.8</ele>
        <time>2023-04-10T09:55:33Z</time>
      </trkpt>
      <trkpt lat="48.02569" lon="-3.12545">
        <ele>154.2</ele>
        <time>2023-04-10T09:55:34Z</time>
      </trkpt>
      <trkpt lat="48.02576" lon="-3.12547">
        <ele>153.6</ele>
        <time>2023-04-10T09:55:35Z</time>
      </trkpt>
      <trkpt lat="48.02585" lon="-3.12551">
        <ele>153.2</ele>
        <time>2023-04-10T09:55:36Z</time>
      </trkpt>
      <trkpt lat="48.02601" lon="-3.12565">
        <ele>152.6</ele>
        <time>2023-04-10T09:55:38Z</time>
      </trkpt>
      <trkpt lat="48.02608" lon="-3.12573">
        <ele>152.4</ele>
        <time>2023-04-10T09:55:39Z</time>
      </trkpt>
      <trkpt lat="48.02613" lon="-3.12582">
        <ele>152.2</ele>
        <time>2023-04-10T09:55:40Z</time>
      </trkpt>
      <trkpt lat="48.02618" lon="-3.12588">
        <ele>151.8</ele>
        <time>2023-04-10T09:55:41Z</time>
      </trkpt>
      <trkpt lat="48.02622" lon="-3.12589">
        <ele>151.6</ele>
        <time>2023-04-10T09:55:42Z</time>
      </trkpt>
      <trkpt lat="48.02628" lon="-3.12584">
        <ele>151.4</ele>
        <time>2023-04-10T09:55:43Z</time>
      </trkpt>
      <trkpt lat="48.0263" lon="-3.12576">
        <ele>151</ele>
        <time>2023-04-10T09:55:44Z</time>
      </trkpt>
      <trkpt lat="48.02631" lon="-3.12568">
        <ele>150.6</ele>
        <time>2023-04-10T09:55:45Z</time>
      </trkpt>
      <trkpt lat="48.0263" lon="-3.12555">
        <ele>150</ele>
        <time>2023-04-10T09:55:46Z</time>
      </trkpt>
      <trkpt lat="48.02629" lon="-3.12543">
        <ele>149</ele>
        <time>2023-04-10T09:55:47Z</time>
      </trkpt>
      <trkpt lat="48.02626" lon="-3.12535">
        <ele>149</ele>
        <time>2023-04-10T09:55:48Z</time>
      </trkpt>
      <trkpt lat="48.02621" lon="-3.12522">
        <ele>147.8</ele>
        <time>2023-04-10T09:55:49Z</time>
      </trkpt>
      <trkpt lat="48.02615" lon="-3.12512">
        <ele>146.8</ele>
        <time>2023-04-10T09:55:50Z</time>
      </trkpt>
      <trkpt lat="48.02608" lon="-3.12502">
        <ele>145.6</ele>
        <time>2023-04-10T09:55:51Z</time>
      </trkpt>
      <trkpt lat="48.02602" lon="-3.1249">
        <ele>144.6</ele>
        <time>2023-04-10T09:55:52Z</time>
      </trkpt>
      <trkpt lat="48.02591" lon="-3.12463">
        <ele>143.2</ele>
        <time>2023-04-10T09:55:54Z</time>
      </trkpt>
      <trkpt lat="48.02585" lon="-3.12435">
        <ele>142</ele>
        <time>2023-04-10T09:55:56Z</time>
      </trkpt>
      <trkpt lat="48.02581" lon="-3.12416">
        <ele>141.4</ele>
        <time>2023-04-10T09:55:57Z</time>
      </trkpt>
      <trkpt lat="48.02577" lon="-3.124">
        <ele>141</ele>
        <time>2023-04-10T09:55:58Z</time>
      </trkpt>
      <trkpt lat="48.02572" lon="-3.12371">
        <ele>139.8</ele>
        <time>2023-04-10T09:56:00Z</time>
      </trkpt>
      <trkpt lat="48.02566" lon="-3.12338">
        <ele>138.6</ele>
        <time>2023-04-10T09:56:02Z</time>
      </trkpt>
      <trkpt lat="48.02561" lon="-3.12304">
        <ele>137.2</ele>
        <time>2023-04-10T09:56:04Z</time>
      </trkpt>
      <trkpt lat="48.0255" lon="-3.12273">
        <ele>135.6</ele>
        <time>2023-04-10T09:56:06Z</time>
      </trkpt>
      <trkpt lat="48.02544" lon="-3.12258">
        <ele>135</ele>
        <time>2023-04-10T09:56:07Z</time>
      </trkpt>
      <trkpt lat="48.02538" lon="-3.12242">
        <ele>134.2</ele>
        <time>2023-04-10T09:56:08Z</time>
      </trkpt>
      <trkpt lat="48.02531" lon="-3.12207">
        <ele>133.6</ele>
        <time>2023-04-10T09:56:10Z</time>
      </trkpt>
      <trkpt lat="48.0253" lon="-3.1219">
        <ele>132.8</ele>
        <time>2023-04-10T09:56:11Z</time>
      </trkpt>
      <trkpt lat="48.02529" lon="-3.12175">
        <ele>132.2</ele>
        <time>2023-04-10T09:56:12Z</time>
      </trkpt>
      <trkpt lat="48.02528" lon="-3.12159">
        <ele>131.4</ele>
        <time>2023-04-10T09:56:13Z</time>
      </trkpt>
      <trkpt lat="48.02529" lon="-3.1214">
        <ele>130.4</ele>
        <time>2023-04-10T09:56:14Z</time>
      </trkpt>
      <trkpt lat="48.0253" lon="-3.12128">
        <ele>129.6</ele>
        <time>2023-04-10T09:56:15Z</time>
      </trkpt>
      <trkpt lat="48.02534" lon="-3.12114">
        <ele>128.8</ele>
        <time>2023-04-10T09:56:16Z</time>
      </trkpt>
      <trkpt lat="48.02538" lon="-3.12101">
        <ele>128.2</ele>
        <time>2023-04-10T09:56:17Z</time>
      </trkpt>
      <trkpt lat="48.02543" lon="-3.12089">
        <ele>127.4</ele>
        <time>2023-04-10T09:56:18Z</time>
      </trkpt>
      <trkpt lat="48.02547" lon="-3.12078">
        <ele>126.6</ele>
        <time>2023-04-10T09:56:19Z</time>
      </trkpt>
      <trkpt lat="48.02551" lon="-3.12067">
        <ele>125.8</ele>
        <time>2023-04-10T09:56:20Z</time>
      </trkpt>
      <trkpt lat="48.02555" lon="-3.12056">
        <ele>125.4</ele>
        <time>2023-04-10T09:56:21Z</time>
      </trkpt>
      <trkpt lat="48.02558" lon="-3.12046">
        <ele>124.8</ele>
        <time>2023-04-10T09:56:22Z</time>
      </trkpt>
      <trkpt lat="48.0256" lon="-3.12036">
        <ele>124</ele>
        <time>2023-04-10T09:56:23Z</time>
      </trkpt>
      <trkpt lat="48.02563" lon="-3.12026">
        <ele>123.4</ele>
        <time>2023-04-10T09:56:24Z</time>
      </trkpt>
      <trkpt lat="48.02565" lon="-3.12018">
        <ele>123.2</ele>
        <time>2023-04-10T09:56:25Z</time>
      </trkpt>
      <trkpt lat="48.02568" lon="-3.12011">
        <ele>123</ele>
        <time>2023-04-10T09:56:26Z</time>
      </trkpt>
      <trkpt lat="48.02572" lon="-3.12007">
        <ele>123</ele>
        <time>2023-04-10T09:56:27Z</time>
      </trkpt>
      <trkpt lat="48.02578" lon="-3.12004">
        <ele>122.8</ele>
        <time>2023-04-10T09:56:28Z</time>
      </trkpt>
      <trkpt lat="48.02584" lon="-3.12">
        <ele>122.8</ele>
        <time>2023-04-10T09:56:29Z</time>
      </trkpt>
      <trkpt lat="48.0259" lon="-3.11996">
        <ele>122.8</ele>
        <time>2023-04-10T09:56:30Z</time>
      </trkpt>
      <trkpt lat="48.0261" lon="-3.11979">
        <ele>122.6</ele>
        <time>2023-04-10T09:56:33Z</time>
      </trkpt>
      <trkpt lat="48.02631" lon="-3.11963">
        <ele>122.4</ele>
        <time>2023-04-10T09:56:36Z</time>
      </trkpt>
      <trkpt lat="48.02638" lon="-3.11957">
        <ele>122.4</ele>
        <time>2023-04-10T09:56:37Z</time>
      </trkpt>
      <trkpt lat="48.02646" lon="-3.11953">
        <ele>122.2</ele>
        <time>2023-04-10T09:56:38Z</time>
      </trkpt>
      <trkpt lat="48.02652" lon="-3.11948">
        <ele>121.8</ele>
        <time>2023-04-10T09:56:39Z</time>
      </trkpt>
      <trkpt lat="48.02657" lon="-3.11943">
        <ele>121.2</ele>
        <time>2023-04-10T09:56:40Z</time>
      </trkpt>
      <trkpt lat="48.02663" lon="-3.11937">
        <ele>120.8</ele>
        <time>2023-04-10T09:56:41Z</time>
      </trkpt>
      <trkpt lat="48.02667" lon="-3.1193">
        <ele>120.4</ele>
        <time>2023-04-10T09:56:42Z</time>
      </trkpt>
      <trkpt lat="48.02671" lon="-3.11923">
        <ele>120</ele>
        <time>2023-04-10T09:56:43Z</time>
      </trkpt>
      <trkpt lat="48.02675" lon="-3.11915">
        <ele>119.6</ele>
        <time>2023-04-10T09:56:44Z</time>
      </trkpt>
      <trkpt lat="48.02677" lon="-3.11909">
        <ele>119.4</ele>
        <time>2023-04-10T09:56:45Z</time>
      </trkpt>
      <trkpt lat="48.0268" lon="-3.11903">
        <ele>119.4</ele>
        <time>2023-04-10T09:56:46Z</time>
      </trkpt>
      <trkpt lat="48.02681" lon="-3.11897">
        <ele>119.2</ele>
        <time>2023-04-10T09:56:47Z</time>
      </trkpt>
      <trkpt lat="48.02682" lon="-3.11892">
        <ele>119.2</ele>
        <time>2023-04-10T09:56:48Z</time>
      </trkpt>
      <trkpt lat="48.02684" lon="-3.11887">
        <ele>119.2</ele>
        <time>2023-04-10T09:56:49Z</time>
      </trkpt>
      <trkpt lat="48.02685" lon="-3.11883">
        <ele>119.2</ele>
        <time>2023-04-10T09:56:50Z</time>
      </trkpt>
      <trkpt lat="48.02686" lon="-3.11879">
        <ele>119.2</ele>
        <time>2023-04-10T09:56:51Z</time>
      </trkpt>
      <trkpt lat="48.02686" lon="-3.11875">
        <ele>119.2</ele>
        <time>2023-04-10T09:56:52Z</time>
      </trkpt>
      <trkpt lat="48.02687" lon="-3.1187">
        <ele>119.2</ele>
        <time>2023-04-10T09:56:53Z</time>
      </trkpt>
      <trkpt lat="48.02688" lon="-3.11866">
        <ele>119.2</ele>
        <time>2023-04-10T09:56:54Z</time>
      </trkpt>
      <trkpt lat="48.02689" lon="-3.11861">
        <ele>119.2</ele>
        <time>2023-04-10T09:56:55Z</time>
      </trkpt>
      <trkpt lat="48.0269" lon="-3.11856">
        <ele>119.4</ele>
        <time>2023-04-10T09:56:56Z</time>
      </trkpt>
      <trkpt lat="48.0269" lon="-3.11852">
        <ele>119.8</ele>
        <time>2023-04-10T09:56:57Z</time>
      </trkpt>
      <trkpt lat="48.02691" lon="-3.11848">
        <ele>120</ele>
        <time>2023-04-10T09:56:58Z</time>
      </trkpt>
      <trkpt lat="48.02692" lon="-3.11844">
        <ele>120.4</ele>
        <time>2023-04-10T09:56:59Z</time>
      </trkpt>
      <trkpt lat="48.02692" lon="-3.11839">
        <ele>120.8</ele>
        <time>2023-04-10T09:57:00Z</time>
      </trkpt>
      <trkpt lat="48.02693" lon="-3.11835">
        <ele>121</ele>
        <time>2023-04-10T09:57:01Z</time>
      </trkpt>
      <trkpt lat="48.02694" lon="-3.11831">
        <ele>121.4</ele>
        <time>2023-04-10T09:57:02Z</time>
      </trkpt>
      <trkpt lat="48.02695" lon="-3.11828">
        <ele>121.6</ele>
        <time>2023-04-10T09:57:03Z</time>
      </trkpt>
      <trkpt lat="48.02696" lon="-3.11824">
        <ele>121.8</ele>
        <time>2023-04-10T09:57:04Z</time>
      </trkpt>
      <trkpt lat="48.02697" lon="-3.1182">
        <ele>122.2</ele>
        <time>2023-04-10T09:57:05Z</time>
      </trkpt>
      <trkpt lat="48.02699" lon="-3.11813">
        <ele>122.8</ele>
        <time>2023-04-10T09:57:07Z</time>
      </trkpt>
      <trkpt lat="48.02699" lon="-3.11809">
        <ele>123</ele>
        <time>2023-04-10T09:57:08Z</time>
      </trkpt>
      <trkpt lat="48.027" lon="-3.11806">
        <ele>123.4</ele>
        <time>2023-04-10T09:57:09Z</time>
      </trkpt>
      <trkpt lat="48.02701" lon="-3.11802">
        <ele>123.8</ele>
        <time>2023-04-10T09:57:10Z</time>
      </trkpt>
      <trkpt lat="48.02702" lon="-3.11799">
        <ele>124</ele>
        <time>2023-04-10T09:57:11Z</time>
      </trkpt>
      <trkpt lat="48.02703" lon="-3.11796">
        <ele>124.4</ele>
        <time>2023-04-10T09:57:12Z</time>
      </trkpt>
      <trkpt lat="48.02705" lon="-3.11793">
        <ele>124.6</ele>
        <time>2023-04-10T09:57:13Z</time>
      </trkpt>
      <trkpt lat="48.02706" lon="-3.1179">
        <ele>125</ele>
        <time>2023-04-10T09:57:14Z</time>
      </trkpt>
      <trkpt lat="48.02707" lon="-3.11786">
        <ele>125.4</ele>
        <time>2023-04-10T09:57:15Z</time>
      </trkpt>
      <trkpt lat="48.02708" lon="-3.11783">
        <ele>125.6</ele>
        <time>2023-04-10T09:57:16Z</time>
      </trkpt>
      <trkpt lat="48.02709" lon="-3.1178">
        <ele>125.6</ele>
        <time>2023-04-10T09:57:17Z</time>
      </trkpt>
      <trkpt lat="48.0271" lon="-3.11776">
        <ele>126</ele>
        <time>2023-04-10T09:57:18Z</time>
      </trkpt>
      <trkpt lat="48.02711" lon="-3.11774">
        <ele>126.4</ele>
        <time>2023-04-10T09:57:19Z</time>
      </trkpt>
      <trkpt lat="48.02712" lon="-3.11771">
        <ele>126.8</ele>
        <time>2023-04-10T09:57:20Z</time>
      </trkpt>
      <trkpt lat="48.02713" lon="-3.11768">
        <ele>127</ele>
        <time>2023-04-10T09:57:21Z</time>
      </trkpt>
      <trkpt lat="48.02715" lon="-3.11765">
        <ele>127.2</ele>
        <time>2023-04-10T09:57:22Z</time>
      </trkpt>
      <trkpt lat="48.02716" lon="-3.11762">
        <ele>127.6</ele>
        <time>2023-04-10T09:57:23Z</time>
      </trkpt>
      <trkpt lat="48.02718" lon="-3.11759">
        <ele>128</ele>
        <time>2023-04-10T09:57:24Z</time>
      </trkpt>
      <trkpt lat="48.0272" lon="-3.11757">
        <ele>128.4</ele>
        <time>2023-04-10T09:57:25Z</time>
      </trkpt>
      <trkpt lat="48.02722" lon="-3.11753">
        <ele>128.8</ele>
        <time>2023-04-10T09:57:26Z</time>
      </trkpt>
      <trkpt lat="48.02724" lon="-3.11751">
        <ele>129.2</ele>
        <time>2023-04-10T09:57:27Z</time>
      </trkpt>
      <trkpt lat="48.02726" lon="-3.11748">
        <ele>129.4</ele>
        <time>2023-04-10T09:57:28Z</time>
      </trkpt>
      <trkpt lat="48.02728" lon="-3.11745">
        <ele>129.8</ele>
        <time>2023-04-10T09:57:29Z</time>
      </trkpt>
      <trkpt lat="48.0273" lon="-3.11742">
        <ele>130.2</ele>
        <time>2023-04-10T09:57:30Z</time>
      </trkpt>
      <trkpt lat="48.02732" lon="-3.11739">
        <ele>130.4</ele>
        <time>2023-04-10T09:57:31Z</time>
      </trkpt>
      <trkpt lat="48.02734" lon="-3.11736">
        <ele>130.8</ele>
        <time>2023-04-10T09:57:32Z</time>
      </trkpt>
      <trkpt lat="48.02736" lon="-3.11734">
        <ele>131</ele>
        <time>2023-04-10T09:57:33Z</time>
      </trkpt>
      <trkpt lat="48.02739" lon="-3.11731">
        <ele>131.2</ele>
        <time>2023-04-10T09:57:34Z</time>
      </trkpt>
      <trkpt lat="48.02742" lon="-3.11727">
        <ele>131.6</ele>
        <time>2023-04-10T09:57:35Z</time>
      </trkpt>
      <trkpt lat="48.02745" lon="-3.11723">
        <ele>131.8</ele>
        <time>2023-04-10T09:57:36Z</time>
      </trkpt>
      <trkpt lat="48.02748" lon="-3.11719">
        <ele>132.2</ele>
        <time>2023-04-10T09:57:37Z</time>
      </trkpt>
      <trkpt lat="48.02752" lon="-3.11715">
        <ele>132.4</ele>
        <time>2023-04-10T09:57:38Z</time>
      </trkpt>
      <trkpt lat="48.02757" lon="-3.1171">
        <ele>132.6</ele>
        <time>2023-04-10T09:57:39Z</time>
      </trkpt>
      <trkpt lat="48.02763" lon="-3.11705">
        <ele>132.6</ele>
        <time>2023-04-10T09:57:40Z</time>
      </trkpt>
      <trkpt lat="48.02771" lon="-3.11699">
        <ele>132.6</ele>
        <time>2023-04-10T09:57:41Z</time>
      </trkpt>
      <trkpt lat="48.02779" lon="-3.11694">
        <ele>132.6</ele>
        <time>2023-04-10T09:57:42Z</time>
      </trkpt>
      <trkpt lat="48.02788" lon="-3.11688">
        <ele>132.6</ele>
        <time>2023-04-10T09:57:43Z</time>
      </trkpt>
      <trkpt lat="48.02798" lon="-3.11682">
        <ele>132.6</ele>
        <time>2023-04-10T09:57:44Z</time>
      </trkpt>
      <trkpt lat="48.02808" lon="-3.11675">
        <ele>132.6</ele>
        <time>2023-04-10T09:57:45Z</time>
      </trkpt>
      <trkpt lat="48.02817" lon="-3.11666">
        <ele>132.6</ele>
        <time>2023-04-10T09:57:46Z</time>
      </trkpt>
      <trkpt lat="48.02824" lon="-3.11658">
        <ele>132.6</ele>
        <time>2023-04-10T09:57:47Z</time>
      </trkpt>
      <trkpt lat="48.02833" lon="-3.11648">
        <ele>132.6</ele>
        <time>2023-04-10T09:57:48Z</time>
      </trkpt>
      <trkpt lat="48.02842" lon="-3.11637">
        <ele>132.4</ele>
        <time>2023-04-10T09:57:49Z</time>
      </trkpt>
      <trkpt lat="48.02851" lon="-3.11626">
        <ele>131.8</ele>
        <time>2023-04-10T09:57:50Z</time>
      </trkpt>
      <trkpt lat="48.02859" lon="-3.11616">
        <ele>131.2</ele>
        <time>2023-04-10T09:57:51Z</time>
      </trkpt>
      <trkpt lat="48.02868" lon="-3.11606">
        <ele>130.6</ele>
        <time>2023-04-10T09:57:52Z</time>
      </trkpt>
      <trkpt lat="48.02875" lon="-3.11597">
        <ele>129.8</ele>
        <time>2023-04-10T09:57:53Z</time>
      </trkpt>
      <trkpt lat="48.02881" lon="-3.11586">
        <ele>129.2</ele>
        <time>2023-04-10T09:57:54Z</time>
      </trkpt>
      <trkpt lat="48.02889" lon="-3.11578">
        <ele>128.6</ele>
        <time>2023-04-10T09:57:55Z</time>
      </trkpt>
      <trkpt lat="48.02894" lon="-3.11573">
        <ele>127.8</ele>
        <time>2023-04-10T09:57:56Z</time>
      </trkpt>
      <trkpt lat="48.02902" lon="-3.11565">
        <ele>127.2</ele>
        <time>2023-04-10T09:57:57Z</time>
      </trkpt>
      <trkpt lat="48.02907" lon="-3.1156">
        <ele>126.8</ele>
        <time>2023-04-10T09:57:58Z</time>
      </trkpt>
      <trkpt lat="48.02913" lon="-3.11554">
        <ele>126</ele>
        <time>2023-04-10T09:57:59Z</time>
      </trkpt>
      <trkpt lat="48.02919" lon="-3.11549">
        <ele>125.2</ele>
        <time>2023-04-10T09:58:00Z</time>
      </trkpt>
      <trkpt lat="48.02925" lon="-3.11544">
        <ele>124.6</ele>
        <time>2023-04-10T09:58:01Z</time>
      </trkpt>
      <trkpt lat="48.0293" lon="-3.1154">
        <ele>124.2</ele>
        <time>2023-04-10T09:58:02Z</time>
      </trkpt>
      <trkpt lat="48.02937" lon="-3.11537">
        <ele>124.2</ele>
        <time>2023-04-10T09:58:03Z</time>
      </trkpt>
      <trkpt lat="48.02942" lon="-3.11535">
        <ele>124</ele>
        <time>2023-04-10T09:58:04Z</time>
      </trkpt>
      <trkpt lat="48.02947" lon="-3.11534">
        <ele>123.8</ele>
        <time>2023-04-10T09:58:05Z</time>
      </trkpt>
      <trkpt lat="48.02952" lon="-3.11533">
        <ele>123.8</ele>
        <time>2023-04-10T09:58:06Z</time>
      </trkpt>
      <trkpt lat="48.02957" lon="-3.11533">
        <ele>123.8</ele>
        <time>2023-04-10T09:58:07Z</time>
      </trkpt>
      <trkpt lat="48.02962" lon="-3.11533">
        <ele>123.8</ele>
        <time>2023-04-10T09:58:08Z</time>
      </trkpt>
      <trkpt lat="48.02967" lon="-3.11533">
        <ele>123.8</ele>
        <time>2023-04-10T09:58:09Z</time>
      </trkpt>
      <trkpt lat="48.02972" lon="-3.11533">
        <ele>123.8</ele>
        <time>2023-04-10T09:58:10Z</time>
      </trkpt>
      <trkpt lat="48.02977" lon="-3.11535">
        <ele>123.8</ele>
        <time>2023-04-10T09:58:11Z</time>
      </trkpt>
      <trkpt lat="48.02981" lon="-3.11536">
        <ele>124</ele>
        <time>2023-04-10T09:58:12Z</time>
      </trkpt>
      <trkpt lat="48.02986" lon="-3.11537">
        <ele>124.2</ele>
        <time>2023-04-10T09:58:13Z</time>
      </trkpt>
      <trkpt lat="48.02989" lon="-3.1154">
        <ele>124.6</ele>
        <time>2023-04-10T09:58:14Z</time>
      </trkpt>
      <trkpt lat="48.02993" lon="-3.11542">
        <ele>124.8</ele>
        <time>2023-04-10T09:58:15Z</time>
      </trkpt>
      <trkpt lat="48.02997" lon="-3.11545">
        <ele>125</ele>
        <time>2023-04-10T09:58:16Z</time>
      </trkpt>
      <trkpt lat="48.03002" lon="-3.11547">
        <ele>125</ele>
        <time>2023-04-10T09:58:17Z</time>
      </trkpt>
      <trkpt lat="48.03005" lon="-3.11549">
        <ele>125.2</ele>
        <time>2023-04-10T09:58:18Z</time>
      </trkpt>
      <trkpt lat="48.03009" lon="-3.11551">
        <ele>125.4</ele>
        <time>2023-04-10T09:58:19Z</time>
      </trkpt>
      <trkpt lat="48.03012" lon="-3.11553">
        <ele>125.6</ele>
        <time>2023-04-10T09:58:20Z</time>
      </trkpt>
      <trkpt lat="48.03016" lon="-3.11555">
        <ele>125.8</ele>
        <time>2023-04-10T09:58:21Z</time>
      </trkpt>
      <trkpt lat="48.03019" lon="-3.11556">
        <ele>126</ele>
        <time>2023-04-10T09:58:22Z</time>
      </trkpt>
      <trkpt lat="48.03023" lon="-3.11558">
        <ele>126.2</ele>
        <time>2023-04-10T09:58:23Z</time>
      </trkpt>
      <trkpt lat="48.03026" lon="-3.1156">
        <ele>126.2</ele>
        <time>2023-04-10T09:58:24Z</time>
      </trkpt>
      <trkpt lat="48.0303" lon="-3.11562">
        <ele>126.2</ele>
        <time>2023-04-10T09:58:25Z</time>
      </trkpt>
      <trkpt lat="48.03033" lon="-3.11564">
        <ele>126.4</ele>
        <time>2023-04-10T09:58:26Z</time>
      </trkpt>
      <trkpt lat="48.03036" lon="-3.11566">
        <ele>126.6</ele>
        <time>2023-04-10T09:58:27Z</time>
      </trkpt>
      <trkpt lat="48.03054" lon="-3.11576">
        <ele>127.8</ele>
        <time>2023-04-10T09:58:32Z</time>
      </trkpt>
      <trkpt lat="48.03065" lon="-3.1158">
        <ele>128.4</ele>
        <time>2023-04-10T09:58:35Z</time>
      </trkpt>
      <trkpt lat="48.03069" lon="-3.11581">
        <ele>128.8</ele>
        <time>2023-04-10T09:58:36Z</time>
      </trkpt>
      <trkpt lat="48.03072" lon="-3.11581">
        <ele>129</ele>
        <time>2023-04-10T09:58:37Z</time>
      </trkpt>
      <trkpt lat="48.03076" lon="-3.11582">
        <ele>129</ele>
        <time>2023-04-10T09:58:38Z</time>
      </trkpt>
      <trkpt lat="48.03079" lon="-3.11582">
        <ele>129.2</ele>
        <time>2023-04-10T09:58:39Z</time>
      </trkpt>
      <trkpt lat="48.03083" lon="-3.11583">
        <ele>129.2</ele>
        <time>2023-04-10T09:58:40Z</time>
      </trkpt>
      <trkpt lat="48.03086" lon="-3.11583">
        <ele>129.2</ele>
        <time>2023-04-10T09:58:41Z</time>
      </trkpt>
      <trkpt lat="48.0309" lon="-3.11583">
        <ele>129.2</ele>
        <time>2023-04-10T09:58:42Z</time>
      </trkpt>
      <trkpt lat="48.03093" lon="-3.11583">
        <ele>129.2</ele>
        <time>2023-04-10T09:58:43Z</time>
      </trkpt>
      <trkpt lat="48.03096" lon="-3.11584">
        <ele>129.4</ele>
        <time>2023-04-10T09:58:44Z</time>
      </trkpt>
      <trkpt lat="48.03099" lon="-3.11584">
        <ele>129.4</ele>
        <time>2023-04-10T09:58:45Z</time>
      </trkpt>
      <trkpt lat="48.03102" lon="-3.11584">
        <ele>129.6</ele>
        <time>2023-04-10T09:58:46Z</time>
      </trkpt>
      <trkpt lat="48.03106" lon="-3.11585">
        <ele>129.6</ele>
        <time>2023-04-10T09:58:47Z</time>
      </trkpt>
      <trkpt lat="48.03108" lon="-3.11587">
        <ele>130</ele>
        <time>2023-04-10T09:58:48Z</time>
      </trkpt>
      <trkpt lat="48.03111" lon="-3.11588">
        <ele>130.4</ele>
        <time>2023-04-10T09:58:49Z</time>
      </trkpt>
      <trkpt lat="48.03113" lon="-3.11589">
        <ele>130.6</ele>
        <time>2023-04-10T09:58:50Z</time>
      </trkpt>
      <trkpt lat="48.03116" lon="-3.1159">
        <ele>130.6</ele>
        <time>2023-04-10T09:58:51Z</time>
      </trkpt>
      <trkpt lat="48.03117" lon="-3.11592">
        <ele>130.8</ele>
        <time>2023-04-10T09:58:52Z</time>
      </trkpt>
      <trkpt lat="48.0312" lon="-3.11593">
        <ele>131</ele>
        <time>2023-04-10T09:58:53Z</time>
      </trkpt>
      <trkpt lat="48.03122" lon="-3.11594">
        <ele>131.2</ele>
        <time>2023-04-10T09:58:54Z</time>
      </trkpt>
      <trkpt lat="48.03124" lon="-3.11595">
        <ele>131.4</ele>
        <time>2023-04-10T09:58:55Z</time>
      </trkpt>
      <trkpt lat="48.03127" lon="-3.11596">
        <ele>131.6</ele>
        <time>2023-04-10T09:58:56Z</time>
      </trkpt>
      <trkpt lat="48.03129" lon="-3.11598">
        <ele>132</ele>
        <time>2023-04-10T09:58:57Z</time>
      </trkpt>
      <trkpt lat="48.03131" lon="-3.11599">
        <ele>132</ele>
        <time>2023-04-10T09:58:58Z</time>
      </trkpt>
      <trkpt lat="48.03133" lon="-3.116">
        <ele>132.4</ele>
        <time>2023-04-10T09:58:59Z</time>
      </trkpt>
      <trkpt lat="48.03135" lon="-3.11601">
        <ele>132.6</ele>
        <time>2023-04-10T09:59:00Z</time>
      </trkpt>
      <trkpt lat="48.03137" lon="-3.11603">
        <ele>133</ele>
        <time>2023-04-10T09:59:01Z</time>
      </trkpt>
      <trkpt lat="48.03138" lon="-3.11604">
        <ele>133.6</ele>
        <time>2023-04-10T09:59:02Z</time>
      </trkpt>
      <trkpt lat="48.0314" lon="-3.11606">
        <ele>134</ele>
        <time>2023-04-10T09:59:03Z</time>
      </trkpt>
      <trkpt lat="48.03142" lon="-3.11607">
        <ele>134.2</ele>
        <time>2023-04-10T09:59:04Z</time>
      </trkpt>
      <trkpt lat="48.03144" lon="-3.11609">
        <ele>134.6</ele>
        <time>2023-04-10T09:59:05Z</time>
      </trkpt>
      <trkpt lat="48.03145" lon="-3.1161">
        <ele>135</ele>
        <time>2023-04-10T09:59:06Z</time>
      </trkpt>
      <trkpt lat="48.03149" lon="-3.11612">
        <ele>135.2</ele>
        <time>2023-04-10T09:59:07Z</time>
      </trkpt>
      <trkpt lat="48.03151" lon="-3.11613">
        <ele>135.4</ele>
        <time>2023-04-10T09:59:08Z</time>
      </trkpt>
      <trkpt lat="48.03154" lon="-3.11615">
        <ele>135.4</ele>
        <time>2023-04-10T09:59:09Z</time>
      </trkpt>
      <trkpt lat="48.03157" lon="-3.11616">
        <ele>135.4</ele>
        <time>2023-04-10T09:59:10Z</time>
      </trkpt>
      <trkpt lat="48.0316" lon="-3.11618">
        <ele>135.6</ele>
        <time>2023-04-10T09:59:11Z</time>
      </trkpt>
      <trkpt lat="48.03163" lon="-3.1162">
        <ele>135.6</ele>
        <time>2023-04-10T09:59:12Z</time>
      </trkpt>
      <trkpt lat="48.03165" lon="-3.11621">
        <ele>136</ele>
        <time>2023-04-10T09:59:13Z</time>
      </trkpt>
      <trkpt lat="48.03168" lon="-3.11623">
        <ele>136</ele>
        <time>2023-04-10T09:59:14Z</time>
      </trkpt>
      <trkpt lat="48.03171" lon="-3.11623">
        <ele>136.4</ele>
        <time>2023-04-10T09:59:15Z</time>
      </trkpt>
      <trkpt lat="48.03173" lon="-3.11625">
        <ele>136.4</ele>
        <time>2023-04-10T09:59:16Z</time>
      </trkpt>
      <trkpt lat="48.03175" lon="-3.11626">
        <ele>136.8</ele>
        <time>2023-04-10T09:59:17Z</time>
      </trkpt>
      <trkpt lat="48.03178" lon="-3.11626">
        <ele>137.2</ele>
        <time>2023-04-10T09:59:18Z</time>
      </trkpt>
      <trkpt lat="48.03181" lon="-3.11626">
        <ele>137.4</ele>
        <time>2023-04-10T09:59:19Z</time>
      </trkpt>
      <trkpt lat="48.03183" lon="-3.11625">
        <ele>137.6</ele>
        <time>2023-04-10T09:59:20Z</time>
      </trkpt>
      <trkpt lat="48.03185" lon="-3.11624">
        <ele>137.8</ele>
        <time>2023-04-10T09:59:21Z</time>
      </trkpt>
      <trkpt lat="48.03188" lon="-3.11624">
        <ele>138</ele>
        <time>2023-04-10T09:59:22Z</time>
      </trkpt>
      <trkpt lat="48.03192" lon="-3.11622">
        <ele>138.2</ele>
        <time>2023-04-10T09:59:23Z</time>
      </trkpt>
      <trkpt lat="48.03194" lon="-3.11619">
        <ele>138.6</ele>
        <time>2023-04-10T09:59:24Z</time>
      </trkpt>
      <trkpt lat="48.03198" lon="-3.11617">
        <ele>138.8</ele>
        <time>2023-04-10T09:59:25Z</time>
      </trkpt>
      <trkpt lat="48.03201" lon="-3.11616">
        <ele>139</ele>
        <time>2023-04-10T09:59:26Z</time>
      </trkpt>
      <trkpt lat="48.03206" lon="-3.11613">
        <ele>139.4</ele>
        <time>2023-04-10T09:59:27Z</time>
      </trkpt>
      <trkpt lat="48.03209" lon="-3.1161">
        <ele>139.6</ele>
        <time>2023-04-10T09:59:28Z</time>
      </trkpt>
      <trkpt lat="48.03212" lon="-3.11609">
        <ele>140</ele>
        <time>2023-04-10T09:59:29Z</time>
      </trkpt>
      <trkpt lat="48.03216" lon="-3.11607">
        <ele>140.2</ele>
        <time>2023-04-10T09:59:30Z</time>
      </trkpt>
      <trkpt lat="48.03221" lon="-3.11604">
        <ele>140.4</ele>
        <time>2023-04-10T09:59:31Z</time>
      </trkpt>
      <trkpt lat="48.03227" lon="-3.116">
        <ele>140.4</ele>
        <time>2023-04-10T09:59:32Z</time>
      </trkpt>
      <trkpt lat="48.03232" lon="-3.11597">
        <ele>140.6</ele>
        <time>2023-04-10T09:59:33Z</time>
      </trkpt>
      <trkpt lat="48.03237" lon="-3.11593">
        <ele>140.6</ele>
        <time>2023-04-10T09:59:34Z</time>
      </trkpt>
      <trkpt lat="48.03244" lon="-3.11589">
        <ele>140.6</ele>
        <time>2023-04-10T09:59:35Z</time>
      </trkpt>
      <trkpt lat="48.03252" lon="-3.11583">
        <ele>140.6</ele>
        <time>2023-04-10T09:59:36Z</time>
      </trkpt>
      <trkpt lat="48.03257" lon="-3.11579">
        <ele>140.6</ele>
        <time>2023-04-10T09:59:37Z</time>
      </trkpt>
      <trkpt lat="48.03265" lon="-3.11571">
        <ele>140.6</ele>
        <time>2023-04-10T09:59:38Z</time>
      </trkpt>
      <trkpt lat="48.03268" lon="-3.11562">
        <ele>140.6</ele>
        <time>2023-04-10T09:59:39Z</time>
      </trkpt>
      <trkpt lat="48.03273" lon="-3.11554">
        <ele>140.6</ele>
        <time>2023-04-10T09:59:40Z</time>
      </trkpt>
      <trkpt lat="48.03279" lon="-3.11541">
        <ele>140.6</ele>
        <time>2023-04-10T09:59:41Z</time>
      </trkpt>
      <trkpt lat="48.03284" lon="-3.1153">
        <ele>140.4</ele>
        <time>2023-04-10T09:59:42Z</time>
      </trkpt>
      <trkpt lat="48.03289" lon="-3.11522">
        <ele>140.2</ele>
        <time>2023-04-10T09:59:43Z</time>
      </trkpt>
      <trkpt lat="48.03295" lon="-3.11509">
        <ele>139.6</ele>
        <time>2023-04-10T09:59:44Z</time>
      </trkpt>
      <trkpt lat="48.03301" lon="-3.115">
        <ele>139</ele>
        <time>2023-04-10T09:59:45Z</time>
      </trkpt>
      <trkpt lat="48.03304" lon="-3.1149">
        <ele>138.6</ele>
        <time>2023-04-10T09:59:46Z</time>
      </trkpt>
      <trkpt lat="48.03307" lon="-3.1148">
        <ele>138.2</ele>
        <time>2023-04-10T09:59:47Z</time>
      </trkpt>
      <trkpt lat="48.03312" lon="-3.1147">
        <ele>138</ele>
        <time>2023-04-10T09:59:48Z</time>
      </trkpt>
      <trkpt lat="48.03314" lon="-3.11462">
        <ele>137.8</ele>
        <time>2023-04-10T09:59:49Z</time>
      </trkpt>
      <trkpt lat="48.03318" lon="-3.11451">
        <ele>137.6</ele>
        <time>2023-04-10T09:59:50Z</time>
      </trkpt>
      <trkpt lat="48.03322" lon="-3.11439">
        <ele>136.8</ele>
        <time>2023-04-10T09:59:51Z</time>
      </trkpt>
      <trkpt lat="48.03326" lon="-3.11431">
        <ele>136.4</ele>
        <time>2023-04-10T09:59:52Z</time>
      </trkpt>
      <trkpt lat="48.03343" lon="-3.11387">
        <ele>135</ele>
        <time>2023-04-10T09:59:56Z</time>
      </trkpt>
      <trkpt lat="48.03352" lon="-3.11365">
        <ele>134.4</ele>
        <time>2023-04-10T09:59:58Z</time>
      </trkpt>
      <trkpt lat="48.03362" lon="-3.11345">
        <ele>133.8</ele>
        <time>2023-04-10T10:00:00Z</time>
      </trkpt>
      <trkpt lat="48.03378" lon="-3.11302">
        <ele>132.6</ele>
        <time>2023-04-10T10:00:04Z</time>
      </trkpt>
      <trkpt lat="48.03396" lon="-3.11258">
        <ele>131.6</ele>
        <time>2023-04-10T10:00:08Z</time>
      </trkpt>
      <trkpt lat="48.03401" lon="-3.11248">
        <ele>131.4</ele>
        <time>2023-04-10T10:00:09Z</time>
      </trkpt>
      <trkpt lat="48.03414" lon="-3.11216">
        <ele>131</ele>
        <time>2023-04-10T10:00:12Z</time>
      </trkpt>
      <trkpt lat="48.03427" lon="-3.11184">
        <ele>130.4</ele>
        <time>2023-04-10T10:00:15Z</time>
      </trkpt>
      <trkpt lat="48.0344" lon="-3.11152">
        <ele>130.2</ele>
        <time>2023-04-10T10:00:18Z</time>
      </trkpt>
      <trkpt lat="48.03464" lon="-3.11096">
        <ele>130.2</ele>
        <time>2023-04-10T10:00:23Z</time>
      </trkpt>
      <trkpt lat="48.03468" lon="-3.11088">
        <ele>130.2</ele>
        <time>2023-04-10T10:00:24Z</time>
      </trkpt>
      <trkpt lat="48.03473" lon="-3.11078">
        <ele>130</ele>
        <time>2023-04-10T10:00:25Z</time>
      </trkpt>
      <trkpt lat="48.03479" lon="-3.1107">
        <ele>130</ele>
        <time>2023-04-10T10:00:26Z</time>
      </trkpt>
      <trkpt lat="48.03484" lon="-3.11061">
        <ele>130</ele>
        <time>2023-04-10T10:00:27Z</time>
      </trkpt>
      <trkpt lat="48.0349" lon="-3.11053">
        <ele>130</ele>
        <time>2023-04-10T10:00:28Z</time>
      </trkpt>
      <trkpt lat="48.03496" lon="-3.11045">
        <ele>130</ele>
        <time>2023-04-10T10:00:29Z</time>
      </trkpt>
      <trkpt lat="48.03501" lon="-3.11038">
        <ele>130</ele>
        <time>2023-04-10T10:00:30Z</time>
      </trkpt>
      <trkpt lat="48.03506" lon="-3.11031">
        <ele>130</ele>
        <time>2023-04-10T10:00:31Z</time>
      </trkpt>
      <trkpt lat="48.03511" lon="-3.11024">
        <ele>130</ele>
        <time>2023-04-10T10:00:32Z</time>
      </trkpt>
      <trkpt lat="48.03516" lon="-3.11016">
        <ele>130</ele>
        <time>2023-04-10T10:00:33Z</time>
      </trkpt>
      <trkpt lat="48.0352" lon="-3.11008">
        <ele>130</ele>
        <time>2023-04-10T10:00:34Z</time>
      </trkpt>
      <trkpt lat="48.03524" lon="-3.11001">
        <ele>130</ele>
        <time>2023-04-10T10:00:35Z</time>
      </trkpt>
      <trkpt lat="48.03527" lon="-3.10993">
        <ele>130</ele>
        <time>2023-04-10T10:00:36Z</time>
      </trkpt>
      <trkpt lat="48.03529" lon="-3.10985">
        <ele>130.2</ele>
        <time>2023-04-10T10:00:37Z</time>
      </trkpt>
      <trkpt lat="48.03529" lon="-3.10976">
        <ele>130.4</ele>
        <time>2023-04-10T10:00:38Z</time>
      </trkpt>
      <trkpt lat="48.03529" lon="-3.10967">
        <ele>130.4</ele>
        <time>2023-04-10T10:00:39Z</time>
      </trkpt>
      <trkpt lat="48.0353" lon="-3.10958">
        <ele>130.4</ele>
        <time>2023-04-10T10:00:40Z</time>
      </trkpt>
      <trkpt lat="48.0353" lon="-3.10949">
        <ele>130.8</ele>
        <time>2023-04-10T10:00:41Z</time>
      </trkpt>
      <trkpt lat="48.03532" lon="-3.10932">
        <ele>131.4</ele>
        <time>2023-04-10T10:00:43Z</time>
      </trkpt>
      <trkpt lat="48.03532" lon="-3.10915">
        <ele>131.8</ele>
        <time>2023-04-10T10:00:45Z</time>
      </trkpt>
      <trkpt lat="48.03531" lon="-3.10906">
        <ele>132</ele>
        <time>2023-04-10T10:00:46Z</time>
      </trkpt>
      <trkpt lat="48.0353" lon="-3.109">
        <ele>132.4</ele>
        <time>2023-04-10T10:00:47Z</time>
      </trkpt>
      <trkpt lat="48.03528" lon="-3.10893">
        <ele>132.6</ele>
        <time>2023-04-10T10:00:48Z</time>
      </trkpt>
      <trkpt lat="48.03526" lon="-3.10886">
        <ele>132.8</ele>
        <time>2023-04-10T10:00:49Z</time>
      </trkpt>
      <trkpt lat="48.03524" lon="-3.10881">
        <ele>132.8</ele>
        <time>2023-04-10T10:00:50Z</time>
      </trkpt>
      <trkpt lat="48.03522" lon="-3.10875">
        <ele>133</ele>
        <time>2023-04-10T10:00:51Z</time>
      </trkpt>
      <trkpt lat="48.0352" lon="-3.10869">
        <ele>133.2</ele>
        <time>2023-04-10T10:00:52Z</time>
      </trkpt>
      <trkpt lat="48.03518" lon="-3.10863">
        <ele>133.4</ele>
        <time>2023-04-10T10:00:53Z</time>
      </trkpt>
      <trkpt lat="48.03516" lon="-3.10857">
        <ele>133.6</ele>
        <time>2023-04-10T10:00:54Z</time>
      </trkpt>
      <trkpt lat="48.03514" lon="-3.10852">
        <ele>134</ele>
        <time>2023-04-10T10:00:55Z</time>
      </trkpt>
      <trkpt lat="48.03512" lon="-3.10846">
        <ele>134.4</ele>
        <time>2023-04-10T10:00:56Z</time>
      </trkpt>
      <trkpt lat="48.03511" lon="-3.1084">
        <ele>134.8</ele>
        <time>2023-04-10T10:00:57Z</time>
      </trkpt>
      <trkpt lat="48.03508" lon="-3.10835">
        <ele>135</ele>
        <time>2023-04-10T10:00:58Z</time>
      </trkpt>
      <trkpt lat="48.03506" lon="-3.10829">
        <ele>135.4</ele>
        <time>2023-04-10T10:00:59Z</time>
      </trkpt>
      <trkpt lat="48.03504" lon="-3.10823">
        <ele>135.6</ele>
        <time>2023-04-10T10:01:00Z</time>
      </trkpt>
      <trkpt lat="48.03502" lon="-3.10817">
        <ele>135.6</ele>
        <time>2023-04-10T10:01:01Z</time>
      </trkpt>
      <trkpt lat="48.03501" lon="-3.1081">
        <ele>136</ele>
        <time>2023-04-10T10:01:02Z</time>
      </trkpt>
      <trkpt lat="48.03499" lon="-3.10804">
        <ele>136.2</ele>
        <time>2023-04-10T10:01:03Z</time>
      </trkpt>
      <trkpt lat="48.03498" lon="-3.10798">
        <ele>136.4</ele>
        <time>2023-04-10T10:01:04Z</time>
      </trkpt>
      <trkpt lat="48.03497" lon="-3.10792">
        <ele>136.6</ele>
        <time>2023-04-10T10:01:05Z</time>
      </trkpt>
      <trkpt lat="48.03496" lon="-3.10785">
        <ele>136.8</ele>
        <time>2023-04-10T10:01:06Z</time>
      </trkpt>
      <trkpt lat="48.03496" lon="-3.10779">
        <ele>137</ele>
        <time>2023-04-10T10:01:07Z</time>
      </trkpt>
      <trkpt lat="48.03495" lon="-3.10773">
        <ele>137.4</ele>
        <time>2023-04-10T10:01:08Z</time>
      </trkpt>
      <trkpt lat="48.03495" lon="-3.10767">
        <ele>137.8</ele>
        <time>2023-04-10T10:01:09Z</time>
      </trkpt>
      <trkpt lat="48.03494" lon="-3.10761">
        <ele>137.8</ele>
        <time>2023-04-10T10:01:10Z</time>
      </trkpt>
      <trkpt lat="48.03494" lon="-3.10754">
        <ele>138</ele>
        <time>2023-04-10T10:01:11Z</time>
      </trkpt>
      <trkpt lat="48.03494" lon="-3.10748">
        <ele>138.4</ele>
        <time>2023-04-10T10:01:12Z</time>
      </trkpt>
      <trkpt lat="48.03494" lon="-3.10742">
        <ele>138.6</ele>
        <time>2023-04-10T10:01:13Z</time>
      </trkpt>
      <trkpt lat="48.03494" lon="-3.10735">
        <ele>138.8</ele>
        <time>2023-04-10T10:01:14Z</time>
      </trkpt>
      <trkpt lat="48.03496" lon="-3.10729">
        <ele>139</ele>
        <time>2023-04-10T10:01:15Z</time>
      </trkpt>
      <trkpt lat="48.035" lon="-3.10725">
        <ele>139.2</ele>
        <time>2023-04-10T10:01:16Z</time>
      </trkpt>
      <trkpt lat="48.03504" lon="-3.10721">
        <ele>139.4</ele>
        <time>2023-04-10T10:01:17Z</time>
      </trkpt>
      <trkpt lat="48.03508" lon="-3.10719">
        <ele>139.6</ele>
        <time>2023-04-10T10:01:18Z</time>
      </trkpt>
      <trkpt lat="48.03513" lon="-3.10717">
        <ele>139.8</ele>
        <time>2023-04-10T10:01:19Z</time>
      </trkpt>
      <trkpt lat="48.03517" lon="-3.10716">
        <ele>140</ele>
        <time>2023-04-10T10:01:20Z</time>
      </trkpt>
      <trkpt lat="48.03522" lon="-3.10715">
        <ele>140.2</ele>
        <time>2023-04-10T10:01:21Z</time>
      </trkpt>
      <trkpt lat="48.03527" lon="-3.10714">
        <ele>140.2</ele>
        <time>2023-04-10T10:01:22Z</time>
      </trkpt>
      <trkpt lat="48.03531" lon="-3.10713">
        <ele>140.4</ele>
        <time>2023-04-10T10:01:23Z</time>
      </trkpt>
      <trkpt lat="48.03536" lon="-3.10711">
        <ele>140.4</ele>
        <time>2023-04-10T10:01:24Z</time>
      </trkpt>
      <trkpt lat="48.0354" lon="-3.1071">
        <ele>140.6</ele>
        <time>2023-04-10T10:01:25Z</time>
      </trkpt>
      <trkpt lat="48.03545" lon="-3.1071">
        <ele>140.6</ele>
        <time>2023-04-10T10:01:26Z</time>
      </trkpt>
      <trkpt lat="48.03549" lon="-3.10709">
        <ele>140.8</ele>
        <time>2023-04-10T10:01:27Z</time>
      </trkpt>
      <trkpt lat="48.03554" lon="-3.10708">
        <ele>140.8</ele>
        <time>2023-04-10T10:01:28Z</time>
      </trkpt>
      <trkpt lat="48.03558" lon="-3.10707">
        <ele>140.8</ele>
        <time>2023-04-10T10:01:29Z</time>
      </trkpt>
      <trkpt lat="48.03562" lon="-3.10706">
        <ele>140.8</ele>
        <time>2023-04-10T10:01:30Z</time>
      </trkpt>
      <trkpt lat="48.03566" lon="-3.10705">
        <ele>141</ele>
        <time>2023-04-10T10:01:31Z</time>
      </trkpt>
      <trkpt lat="48.0357" lon="-3.10703">
        <ele>141</ele>
        <time>2023-04-10T10:01:32Z</time>
      </trkpt>
      <trkpt lat="48.03574" lon="-3.10702">
        <ele>141.4</ele>
        <time>2023-04-10T10:01:33Z</time>
      </trkpt>
      <trkpt lat="48.03578" lon="-3.10701">
        <ele>141.6</ele>
        <time>2023-04-10T10:01:34Z</time>
      </trkpt>
      <trkpt lat="48.03578" lon="-3.10701">
        <ele>141.6</ele>
        <time>2023-04-10T10:01:35Z</time>
      </trkpt>
      <trkpt lat="48.03585" lon="-3.10699">
        <ele>141.6</ele>
        <time>2023-04-10T10:01:36Z</time>
      </trkpt>
      <trkpt lat="48.03589" lon="-3.10698">
        <ele>141.8</ele>
        <time>2023-04-10T10:01:37Z</time>
      </trkpt>
      <trkpt lat="48.03593" lon="-3.10697">
        <ele>141.8</ele>
        <time>2023-04-10T10:01:38Z</time>
      </trkpt>
      <trkpt lat="48.03596" lon="-3.10697">
        <ele>141.8</ele>
        <time>2023-04-10T10:01:39Z</time>
      </trkpt>
      <trkpt lat="48.036" lon="-3.10696">
        <ele>142</ele>
        <time>2023-04-10T10:01:40Z</time>
      </trkpt>
      <trkpt lat="48.03603" lon="-3.10694">
        <ele>142.2</ele>
        <time>2023-04-10T10:01:41Z</time>
      </trkpt>
      <trkpt lat="48.03607" lon="-3.10694">
        <ele>142.4</ele>
        <time>2023-04-10T10:01:42Z</time>
      </trkpt>
      <trkpt lat="48.0361" lon="-3.10692">
        <ele>142.6</ele>
        <time>2023-04-10T10:01:43Z</time>
      </trkpt>
      <trkpt lat="48.03614" lon="-3.10691">
        <ele>142.8</ele>
        <time>2023-04-10T10:01:44Z</time>
      </trkpt>
      <trkpt lat="48.03617" lon="-3.10691">
        <ele>143</ele>
        <time>2023-04-10T10:01:45Z</time>
      </trkpt>
      <trkpt lat="48.03621" lon="-3.1069">
        <ele>143</ele>
        <time>2023-04-10T10:01:46Z</time>
      </trkpt>
      <trkpt lat="48.03624" lon="-3.10689">
        <ele>143.2</ele>
        <time>2023-04-10T10:01:47Z</time>
      </trkpt>
      <trkpt lat="48.03628" lon="-3.10689">
        <ele>143.4</ele>
        <time>2023-04-10T10:01:48Z</time>
      </trkpt>
      <trkpt lat="48.03631" lon="-3.10688">
        <ele>143.6</ele>
        <time>2023-04-10T10:01:49Z</time>
      </trkpt>
      <trkpt lat="48.03635" lon="-3.10687">
        <ele>143.8</ele>
        <time>2023-04-10T10:01:50Z</time>
      </trkpt>
      <trkpt lat="48.03638" lon="-3.10687">
        <ele>144</ele>
        <time>2023-04-10T10:01:51Z</time>
      </trkpt>
      <trkpt lat="48.03642" lon="-3.10686">
        <ele>144.2</ele>
        <time>2023-04-10T10:01:52Z</time>
      </trkpt>
      <trkpt lat="48.03645" lon="-3.10685">
        <ele>144.4</ele>
        <time>2023-04-10T10:01:53Z</time>
      </trkpt>
      <trkpt lat="48.03649" lon="-3.10684">
        <ele>144.6</ele>
        <time>2023-04-10T10:01:54Z</time>
      </trkpt>
      <trkpt lat="48.03652" lon="-3.10683">
        <ele>144.8</ele>
        <time>2023-04-10T10:01:55Z</time>
      </trkpt>
      <trkpt lat="48.03655" lon="-3.10682">
        <ele>145</ele>
        <time>2023-04-10T10:01:56Z</time>
      </trkpt>
      <trkpt lat="48.03659" lon="-3.10681">
        <ele>145.2</ele>
        <time>2023-04-10T10:01:57Z</time>
      </trkpt>
      <trkpt lat="48.03663" lon="-3.1068">
        <ele>145.4</ele>
        <time>2023-04-10T10:01:58Z</time>
      </trkpt>
      <trkpt lat="48.03666" lon="-3.1068">
        <ele>145.6</ele>
        <time>2023-04-10T10:01:59Z</time>
      </trkpt>
      <trkpt lat="48.0367" lon="-3.10679">
        <ele>146</ele>
        <time>2023-04-10T10:02:00Z</time>
      </trkpt>
      <trkpt lat="48.03673" lon="-3.10678">
        <ele>146.2</ele>
        <time>2023-04-10T10:02:01Z</time>
      </trkpt>
      <trkpt lat="48.03677" lon="-3.10677">
        <ele>146.6</ele>
        <time>2023-04-10T10:02:02Z</time>
      </trkpt>
      <trkpt lat="48.0368" lon="-3.10676">
        <ele>146.6</ele>
        <time>2023-04-10T10:02:03Z</time>
      </trkpt>
      <trkpt lat="48.03684" lon="-3.10675">
        <ele>146.8</ele>
        <time>2023-04-10T10:02:04Z</time>
      </trkpt>
      <trkpt lat="48.03687" lon="-3.10674">
        <ele>147</ele>
        <time>2023-04-10T10:02:05Z</time>
      </trkpt>
      <trkpt lat="48.03691" lon="-3.10673">
        <ele>147.4</ele>
        <time>2023-04-10T10:02:06Z</time>
      </trkpt>
      <trkpt lat="48.03695" lon="-3.10672">
        <ele>147.4</ele>
        <time>2023-04-10T10:02:07Z</time>
      </trkpt>
      <trkpt lat="48.03698" lon="-3.10671">
        <ele>147.4</ele>
        <time>2023-04-10T10:02:08Z</time>
      </trkpt>
      <trkpt lat="48.03702" lon="-3.1067">
        <ele>147.8</ele>
        <time>2023-04-10T10:02:09Z</time>
      </trkpt>
      <trkpt lat="48.03706" lon="-3.10669">
        <ele>148</ele>
        <time>2023-04-10T10:02:10Z</time>
      </trkpt>
      <trkpt lat="48.0371" lon="-3.10669">
        <ele>148.4</ele>
        <time>2023-04-10T10:02:11Z</time>
      </trkpt>
      <trkpt lat="48.03714" lon="-3.10668">
        <ele>148.6</ele>
        <time>2023-04-10T10:02:12Z</time>
      </trkpt>
      <trkpt lat="48.03718" lon="-3.10667">
        <ele>148.8</ele>
        <time>2023-04-10T10:02:13Z</time>
      </trkpt>
      <trkpt lat="48.03722" lon="-3.10666">
        <ele>149</ele>
        <time>2023-04-10T10:02:14Z</time>
      </trkpt>
      <trkpt lat="48.03726" lon="-3.10665">
        <ele>149.2</ele>
        <time>2023-04-10T10:02:15Z</time>
      </trkpt>
      <trkpt lat="48.0373" lon="-3.10664">
        <ele>149.4</ele>
        <time>2023-04-10T10:02:16Z</time>
      </trkpt>
      <trkpt lat="48.03734" lon="-3.10662">
        <ele>149.6</ele>
        <time>2023-04-10T10:02:17Z</time>
      </trkpt>
      <trkpt lat="48.03739" lon="-3.10661">
        <ele>149.8</ele>
        <time>2023-04-10T10:02:18Z</time>
      </trkpt>
      <trkpt lat="48.03743" lon="-3.1066">
        <ele>150</ele>
        <time>2023-04-10T10:02:19Z</time>
      </trkpt>
      <trkpt lat="48.03748" lon="-3.1066">
        <ele>150</ele>
        <time>2023-04-10T10:02:20Z</time>
      </trkpt>
      <trkpt lat="48.03751" lon="-3.10659">
        <ele>150.2</ele>
        <time>2023-04-10T10:02:21Z</time>
      </trkpt>
      <trkpt lat="48.03756" lon="-3.10658">
        <ele>150.4</ele>
        <time>2023-04-10T10:02:22Z</time>
      </trkpt>
      <trkpt lat="48.03761" lon="-3.10657">
        <ele>150.2</ele>
        <time>2023-04-10T10:02:23Z</time>
      </trkpt>
      <trkpt lat="48.03766" lon="-3.10656">
        <ele>150.4</ele>
        <time>2023-04-10T10:02:24Z</time>
      </trkpt>
      <trkpt lat="48.0377" lon="-3.10656">
        <ele>150.4</ele>
        <time>2023-04-10T10:02:25Z</time>
      </trkpt>
      <trkpt lat="48.03776" lon="-3.10654">
        <ele>150.4</ele>
        <time>2023-04-10T10:02:26Z</time>
      </trkpt>
      <trkpt lat="48.0378" lon="-3.10652">
        <ele>150.4</ele>
        <time>2023-04-10T10:02:27Z</time>
      </trkpt>
      <trkpt lat="48.03787" lon="-3.1065">
        <ele>150.4</ele>
        <time>2023-04-10T10:02:28Z</time>
      </trkpt>
      <trkpt lat="48.03794" lon="-3.10649">
        <ele>150.4</ele>
        <time>2023-04-10T10:02:29Z</time>
      </trkpt>
      <trkpt lat="48.03799" lon="-3.10648">
        <ele>150.4</ele>
        <time>2023-04-10T10:02:30Z</time>
      </trkpt>
      <trkpt lat="48.03805" lon="-3.10646">
        <ele>150.4</ele>
        <time>2023-04-10T10:02:31Z</time>
      </trkpt>
      <trkpt lat="48.03812" lon="-3.10645">
        <ele>150.4</ele>
        <time>2023-04-10T10:02:32Z</time>
      </trkpt>
      <trkpt lat="48.03818" lon="-3.10643">
        <ele>150.2</ele>
        <time>2023-04-10T10:02:33Z</time>
      </trkpt>
      <trkpt lat="48.03824" lon="-3.10642">
        <ele>150</ele>
        <time>2023-04-10T10:02:34Z</time>
      </trkpt>
      <trkpt lat="48.0383" lon="-3.10641">
        <ele>150</ele>
        <time>2023-04-10T10:02:35Z</time>
      </trkpt>
      <trkpt lat="48.03836" lon="-3.10638">
        <ele>149.8</ele>
        <time>2023-04-10T10:02:36Z</time>
      </trkpt>
      <trkpt lat="48.03839" lon="-3.10636">
        <ele>149.6</ele>
        <time>2023-04-10T10:02:37Z</time>
      </trkpt>
      <trkpt lat="48.03841" lon="-3.10634">
        <ele>149.4</ele>
        <time>2023-04-10T10:02:38Z</time>
      </trkpt>
      <trkpt lat="48.03843" lon="-3.10632">
        <ele>149</ele>
        <time>2023-04-10T10:02:39Z</time>
      </trkpt>
      <trkpt lat="48.03845" lon="-3.10633">
        <ele>148.8</ele>
        <time>2023-04-10T10:02:40Z</time>
      </trkpt>
      <trkpt lat="48.03845" lon="-3.10636">
        <ele>148.4</ele>
        <time>2023-04-10T10:02:41Z</time>
      </trkpt>
      <trkpt lat="48.03844" lon="-3.10639">
        <ele>147.8</ele>
        <time>2023-04-10T10:02:42Z</time>
      </trkpt>
      <trkpt lat="48.03842" lon="-3.1064">
        <ele>147.4</ele>
        <time>2023-04-10T10:02:43Z</time>
      </trkpt>
      <trkpt lat="48.03839" lon="-3.10639">
        <ele>146.8</ele>
        <time>2023-04-10T10:02:44Z</time>
      </trkpt>
      <trkpt lat="48.0383" lon="-3.10634">
        <ele>146.2</ele>
        <time>2023-04-10T10:02:47Z</time>
      </trkpt>
      <trkpt lat="48.03828" lon="-3.10631">
        <ele>146.2</ele>
        <time>2023-04-10T10:02:48Z</time>
      </trkpt>
      <trkpt lat="48.03826" lon="-3.10629">
        <ele>146.2</ele>
        <time>2023-04-10T10:02:49Z</time>
      </trkpt>
      <trkpt lat="48.03823" lon="-3.10628">
        <ele>146.2</ele>
        <time>2023-04-10T10:02:50Z</time>
      </trkpt>
      <trkpt lat="48.0381" lon="-3.1062">
        <ele>146.2</ele>
        <time>2023-04-10T10:02:54Z</time>
      </trkpt>
      <trkpt lat="48.03787" lon="-3.10596">
        <ele>147.4</ele>
        <time>2023-04-10T10:03:02Z</time>
      </trkpt>
      <trkpt lat="48.03771" lon="-3.10573">
        <ele>147.8</ele>
        <time>2023-04-10T10:03:08Z</time>
      </trkpt>
      <trkpt lat="48.03769" lon="-3.1057">
        <ele>148</ele>
        <time>2023-04-10T10:03:09Z</time>
      </trkpt>
      <trkpt lat="48.03767" lon="-3.10567">
        <ele>148</ele>
        <time>2023-04-10T10:03:10Z</time>
      </trkpt>
      <trkpt lat="48.03761" lon="-3.10553">
        <ele>148</ele>
        <time>2023-04-10T10:03:13Z</time>
      </trkpt>
      <trkpt lat="48.03753" lon="-3.1054">
        <ele>148.2</ele>
        <time>2023-04-10T10:03:16Z</time>
      </trkpt>
      <trkpt lat="48.03748" lon="-3.10531">
        <ele>148.4</ele>
        <time>2023-04-10T10:03:18Z</time>
      </trkpt>
      <trkpt lat="48.03747" lon="-3.10528">
        <ele>148.6</ele>
        <time>2023-04-10T10:03:19Z</time>
      </trkpt>
      <trkpt lat="48.03744" lon="-3.10523">
        <ele>148.6</ele>
        <time>2023-04-10T10:03:20Z</time>
      </trkpt>
      <trkpt lat="48.03733" lon="-3.10512">
        <ele>149</ele>
        <time>2023-04-10T10:03:24Z</time>
      </trkpt>
      <trkpt lat="48.03724" lon="-3.10504">
        <ele>149.2</ele>
        <time>2023-04-10T10:03:26Z</time>
      </trkpt>
      <trkpt lat="48.03722" lon="-3.10501">
        <ele>149.2</ele>
        <time>2023-04-10T10:03:27Z</time>
      </trkpt>
      <trkpt lat="48.03717" lon="-3.10494">
        <ele>149.4</ele>
        <time>2023-04-10T10:03:29Z</time>
      </trkpt>
      <trkpt lat="48.03712" lon="-3.10488">
        <ele>149.6</ele>
        <time>2023-04-10T10:03:31Z</time>
      </trkpt>
      <trkpt lat="48.03709" lon="-3.10487">
        <ele>149.8</ele>
        <time>2023-04-10T10:03:32Z</time>
      </trkpt>
      <trkpt lat="48.03705" lon="-3.10486">
        <ele>150</ele>
        <time>2023-04-10T10:03:33Z</time>
      </trkpt>
      <trkpt lat="48.03703" lon="-3.10485">
        <ele>150</ele>
        <time>2023-04-10T10:03:34Z</time>
      </trkpt>
      <trkpt lat="48.03701" lon="-3.10483">
        <ele>150.2</ele>
        <time>2023-04-10T10:03:35Z</time>
      </trkpt>
      <trkpt lat="48.03699" lon="-3.10482">
        <ele>150.4</ele>
        <time>2023-04-10T10:03:36Z</time>
      </trkpt>
      <trkpt lat="48.03696" lon="-3.1048">
        <ele>150.4</ele>
        <time>2023-04-10T10:03:37Z</time>
      </trkpt>
      <trkpt lat="48.03691" lon="-3.10477">
        <ele>150.6</ele>
        <time>2023-04-10T10:03:39Z</time>
      </trkpt>
      <trkpt lat="48.03679" lon="-3.10471">
        <ele>151.6</ele>
        <time>2023-04-10T10:03:43Z</time>
      </trkpt>
      <trkpt lat="48.03676" lon="-3.10469">
        <ele>151.8</ele>
        <time>2023-04-10T10:03:44Z</time>
      </trkpt>
      <trkpt lat="48.03673" lon="-3.10467">
        <ele>152</ele>
        <time>2023-04-10T10:03:45Z</time>
      </trkpt>
      <trkpt lat="48.0367" lon="-3.10465">
        <ele>152.2</ele>
        <time>2023-04-10T10:03:46Z</time>
      </trkpt>
      <trkpt lat="48.03667" lon="-3.10463">
        <ele>152.2</ele>
        <time>2023-04-10T10:03:47Z</time>
      </trkpt>
      <trkpt lat="48.03664" lon="-3.10461">
        <ele>152.2</ele>
        <time>2023-04-10T10:03:48Z</time>
      </trkpt>
      <trkpt lat="48.0366" lon="-3.10458">
        <ele>152.2</ele>
        <time>2023-04-10T10:03:49Z</time>
      </trkpt>
      <trkpt lat="48.03657" lon="-3.10456">
        <ele>152.4</ele>
        <time>2023-04-10T10:03:50Z</time>
      </trkpt>
      <trkpt lat="48.03654" lon="-3.10453">
        <ele>152.4</ele>
        <time>2023-04-10T10:03:51Z</time>
      </trkpt>
      <trkpt lat="48.03651" lon="-3.10451">
        <ele>152.4</ele>
        <time>2023-04-10T10:03:52Z</time>
      </trkpt>
      <trkpt lat="48.03647" lon="-3.10448">
        <ele>152.4</ele>
        <time>2023-04-10T10:03:53Z</time>
      </trkpt>
      <trkpt lat="48.03644" lon="-3.10446">
        <ele>152.4</ele>
        <time>2023-04-10T10:03:54Z</time>
      </trkpt>
      <trkpt lat="48.03641" lon="-3.10443">
        <ele>152.4</ele>
        <time>2023-04-10T10:03:55Z</time>
      </trkpt>
      <trkpt lat="48.03638" lon="-3.10441">
        <ele>152.4</ele>
        <time>2023-04-10T10:03:56Z</time>
      </trkpt>
      <trkpt lat="48.03635" lon="-3.10439">
        <ele>152.6</ele>
        <time>2023-04-10T10:03:57Z</time>
      </trkpt>
      <trkpt lat="48.03632" lon="-3.10437">
        <ele>152.6</ele>
        <time>2023-04-10T10:03:58Z</time>
      </trkpt>
      <trkpt lat="48.03629" lon="-3.10434">
        <ele>152.6</ele>
        <time>2023-04-10T10:03:59Z</time>
      </trkpt>
      <trkpt lat="48.03626" lon="-3.10432">
        <ele>152.6</ele>
        <time>2023-04-10T10:04:00Z</time>
      </trkpt>
      <trkpt lat="48.03623" lon="-3.10429">
        <ele>152.6</ele>
        <time>2023-04-10T10:04:01Z</time>
      </trkpt>
      <trkpt lat="48.0362" lon="-3.10426">
        <ele>152.8</ele>
        <time>2023-04-10T10:04:02Z</time>
      </trkpt>
      <trkpt lat="48.03618" lon="-3.10423">
        <ele>152.8</ele>
        <time>2023-04-10T10:04:03Z</time>
      </trkpt>
      <trkpt lat="48.03607" lon="-3.10405">
        <ele>153.2</ele>
        <time>2023-04-10T10:04:08Z</time>
      </trkpt>
      <trkpt lat="48.03605" lon="-3.10401">
        <ele>153.4</ele>
        <time>2023-04-10T10:04:09Z</time>
      </trkpt>
      <trkpt lat="48.03603" lon="-3.10397">
        <ele>153.4</ele>
        <time>2023-04-10T10:04:10Z</time>
      </trkpt>
      <trkpt lat="48.03601" lon="-3.10394">
        <ele>153.4</ele>
        <time>2023-04-10T10:04:11Z</time>
      </trkpt>
      <trkpt lat="48.036" lon="-3.1039">
        <ele>153.4</ele>
        <time>2023-04-10T10:04:12Z</time>
      </trkpt>
      <trkpt lat="48.03598" lon="-3.10386">
        <ele>153.4</ele>
        <time>2023-04-10T10:04:13Z</time>
      </trkpt>
      <trkpt lat="48.03595" lon="-3.10382">
        <ele>153.4</ele>
        <time>2023-04-10T10:04:14Z</time>
      </trkpt>
      <trkpt lat="48.03593" lon="-3.10378">
        <ele>153.4</ele>
        <time>2023-04-10T10:04:15Z</time>
      </trkpt>
      <trkpt lat="48.03591" lon="-3.10374">
        <ele>153.6</ele>
        <time>2023-04-10T10:04:16Z</time>
      </trkpt>
      <trkpt lat="48.03588" lon="-3.10371">
        <ele>153.6</ele>
        <time>2023-04-10T10:04:17Z</time>
      </trkpt>
      <trkpt lat="48.03573" lon="-3.10345">
        <ele>153.6</ele>
        <time>2023-04-10T10:04:23Z</time>
      </trkpt>
      <trkpt lat="48.03571" lon="-3.10341">
        <ele>153.6</ele>
        <time>2023-04-10T10:04:24Z</time>
      </trkpt>
      <trkpt lat="48.03568" lon="-3.10337">
        <ele>153.6</ele>
        <time>2023-04-10T10:04:25Z</time>
      </trkpt>
      <trkpt lat="48.03558" lon="-3.10311">
        <ele>153.8</ele>
        <time>2023-04-10T10:04:30Z</time>
      </trkpt>
      <trkpt lat="48.03556" lon="-3.10307">
        <ele>153.8</ele>
        <time>2023-04-10T10:04:31Z</time>
      </trkpt>
      <trkpt lat="48.03554" lon="-3.10302">
        <ele>153.8</ele>
        <time>2023-04-10T10:04:32Z</time>
      </trkpt>
      <trkpt lat="48.03546" lon="-3.10281">
        <ele>154</ele>
        <time>2023-04-10T10:04:36Z</time>
      </trkpt>
      <trkpt lat="48.03544" lon="-3.10276">
        <ele>154</ele>
        <time>2023-04-10T10:04:37Z</time>
      </trkpt>
      <trkpt lat="48.03535" lon="-3.10258">
        <ele>154</ele>
        <time>2023-04-10T10:04:40Z</time>
      </trkpt>
      <trkpt lat="48.03529" lon="-3.10244">
        <ele>154</ele>
        <time>2023-04-10T10:04:42Z</time>
      </trkpt>
      <trkpt lat="48.03516" lon="-3.10207">
        <ele>154</ele>
        <time>2023-04-10T10:04:46Z</time>
      </trkpt>
      <trkpt lat="48.03499" lon="-3.10167">
        <ele>153.2</ele>
        <time>2023-04-10T10:04:50Z</time>
      </trkpt>
      <trkpt lat="48.03495" lon="-3.10157">
        <ele>152.8</ele>
        <time>2023-04-10T10:04:51Z</time>
      </trkpt>
      <trkpt lat="48.0349" lon="-3.10146">
        <ele>152.4</ele>
        <time>2023-04-10T10:04:52Z</time>
      </trkpt>
      <trkpt lat="48.03482" lon="-3.10126">
        <ele>151.2</ele>
        <time>2023-04-10T10:04:54Z</time>
      </trkpt>
      <trkpt lat="48.0347" lon="-3.10105">
        <ele>150</ele>
        <time>2023-04-10T10:04:56Z</time>
      </trkpt>
      <trkpt lat="48.03463" lon="-3.10098">
        <ele>149.2</ele>
        <time>2023-04-10T10:04:57Z</time>
      </trkpt>
      <trkpt lat="48.03457" lon="-3.10091">
        <ele>148.4</ele>
        <time>2023-04-10T10:04:58Z</time>
      </trkpt>
      <trkpt lat="48.03452" lon="-3.10085">
        <ele>147.8</ele>
        <time>2023-04-10T10:04:59Z</time>
      </trkpt>
      <trkpt lat="48.03445" lon="-3.10077">
        <ele>147.6</ele>
        <time>2023-04-10T10:05:00Z</time>
      </trkpt>
      <trkpt lat="48.03441" lon="-3.10073">
        <ele>147.4</ele>
        <time>2023-04-10T10:05:01Z</time>
      </trkpt>
      <trkpt lat="48.03436" lon="-3.10068">
        <ele>147.2</ele>
        <time>2023-04-10T10:05:02Z</time>
      </trkpt>
      <trkpt lat="48.03432" lon="-3.10064">
        <ele>147</ele>
        <time>2023-04-10T10:05:03Z</time>
      </trkpt>
      <trkpt lat="48.03428" lon="-3.10058">
        <ele>146.2</ele>
        <time>2023-04-10T10:05:04Z</time>
      </trkpt>
      <trkpt lat="48.03424" lon="-3.10051">
        <ele>145.8</ele>
        <time>2023-04-10T10:05:05Z</time>
      </trkpt>
      <trkpt lat="48.03419" lon="-3.10044">
        <ele>145.6</ele>
        <time>2023-04-10T10:05:06Z</time>
      </trkpt>
      <trkpt lat="48.03414" lon="-3.10035">
        <ele>145.4</ele>
        <time>2023-04-10T10:05:07Z</time>
      </trkpt>
      <trkpt lat="48.03389" lon="-3.09984">
        <ele>144.8</ele>
        <time>2023-04-10T10:05:12Z</time>
      </trkpt>
      <trkpt lat="48.03378" lon="-3.09961">
        <ele>143.6</ele>
        <time>2023-04-10T10:05:14Z</time>
      </trkpt>
      <trkpt lat="48.03355" lon="-3.09919">
        <ele>142.2</ele>
        <time>2023-04-10T10:05:18Z</time>
      </trkpt>
      <trkpt lat="48.03348" lon="-3.09909">
        <ele>141.4</ele>
        <time>2023-04-10T10:05:19Z</time>
      </trkpt>
      <trkpt lat="48.03342" lon="-3.09899">
        <ele>140.8</ele>
        <time>2023-04-10T10:05:20Z</time>
      </trkpt>
      <trkpt lat="48.03331" lon="-3.09877">
        <ele>139.8</ele>
        <time>2023-04-10T10:05:22Z</time>
      </trkpt>
      <trkpt lat="48.03325" lon="-3.09853">
        <ele>138.2</ele>
        <time>2023-04-10T10:05:24Z</time>
      </trkpt>
      <trkpt lat="48.03322" lon="-3.0984">
        <ele>137.6</ele>
        <time>2023-04-10T10:05:25Z</time>
      </trkpt>
      <trkpt lat="48.03319" lon="-3.09828">
        <ele>136.6</ele>
        <time>2023-04-10T10:05:26Z</time>
      </trkpt>
      <trkpt lat="48.03314" lon="-3.09817">
        <ele>135.8</ele>
        <time>2023-04-10T10:05:27Z</time>
      </trkpt>
      <trkpt lat="48.03309" lon="-3.09808">
        <ele>135</ele>
        <time>2023-04-10T10:05:28Z</time>
      </trkpt>
      <trkpt lat="48.03304" lon="-3.09799">
        <ele>134.2</ele>
        <time>2023-04-10T10:05:29Z</time>
      </trkpt>
      <trkpt lat="48.03299" lon="-3.09792">
        <ele>133.8</ele>
        <time>2023-04-10T10:05:30Z</time>
      </trkpt>
      <trkpt lat="48.03293" lon="-3.09786">
        <ele>133.8</ele>
        <time>2023-04-10T10:05:31Z</time>
      </trkpt>
      <trkpt lat="48.03287" lon="-3.09781">
        <ele>133.2</ele>
        <time>2023-04-10T10:05:32Z</time>
      </trkpt>
      <trkpt lat="48.03282" lon="-3.09777">
        <ele>133</ele>
        <time>2023-04-10T10:05:33Z</time>
      </trkpt>
      <trkpt lat="48.03279" lon="-3.09772">
        <ele>132.4</ele>
        <time>2023-04-10T10:05:34Z</time>
      </trkpt>
      <trkpt lat="48.03275" lon="-3.09766">
        <ele>132</ele>
        <time>2023-04-10T10:05:35Z</time>
      </trkpt>
      <trkpt lat="48.03272" lon="-3.09759">
        <ele>131.6</ele>
        <time>2023-04-10T10:05:36Z</time>
      </trkpt>
      <trkpt lat="48.03268" lon="-3.09752">
        <ele>131.2</ele>
        <time>2023-04-10T10:05:37Z</time>
      </trkpt>
      <trkpt lat="48.03259" lon="-3.0972">
        <ele>130</ele>
        <time>2023-04-10T10:05:41Z</time>
      </trkpt>
      <trkpt lat="48.03248" lon="-3.09694">
        <ele>129.2</ele>
        <time>2023-04-10T10:05:44Z</time>
      </trkpt>
      <trkpt lat="48.03245" lon="-3.09686">
        <ele>129.2</ele>
        <time>2023-04-10T10:05:45Z</time>
      </trkpt>
      <trkpt lat="48.03233" lon="-3.09653">
        <ele>129</ele>
        <time>2023-04-10T10:05:49Z</time>
      </trkpt>
      <trkpt lat="48.03227" lon="-3.09637">
        <ele>129</ele>
        <time>2023-04-10T10:05:51Z</time>
      </trkpt>
      <trkpt lat="48.03223" lon="-3.09629">
        <ele>128.8</ele>
        <time>2023-04-10T10:05:52Z</time>
      </trkpt>
      <trkpt lat="48.03219" lon="-3.09622">
        <ele>128.8</ele>
        <time>2023-04-10T10:05:53Z</time>
      </trkpt>
      <trkpt lat="48.03215" lon="-3.09615">
        <ele>128.8</ele>
        <time>2023-04-10T10:05:54Z</time>
      </trkpt>
      <trkpt lat="48.03211" lon="-3.09607">
        <ele>128.8</ele>
        <time>2023-04-10T10:05:55Z</time>
      </trkpt>
      <trkpt lat="48.03205" lon="-3.09592">
        <ele>128.8</ele>
        <time>2023-04-10T10:05:57Z</time>
      </trkpt>
      <trkpt lat="48.03201" lon="-3.09585">
        <ele>128.8</ele>
        <time>2023-04-10T10:05:58Z</time>
      </trkpt>
      <trkpt lat="48.03199" lon="-3.0958">
        <ele>128.8</ele>
        <time>2023-04-10T10:05:59Z</time>
      </trkpt>
      <trkpt lat="48.03183" lon="-3.09543">
        <ele>129</ele>
        <time>2023-04-10T10:06:04Z</time>
      </trkpt>
      <trkpt lat="48.0318" lon="-3.09536">
        <ele>129</ele>
        <time>2023-04-10T10:06:05Z</time>
      </trkpt>
      <trkpt lat="48.0317" lon="-3.09513">
        <ele>129.4</ele>
        <time>2023-04-10T10:06:08Z</time>
      </trkpt>
      <trkpt lat="48.03167" lon="-3.09505">
        <ele>129.6</ele>
        <time>2023-04-10T10:06:09Z</time>
      </trkpt>
      <trkpt lat="48.03164" lon="-3.09498">
        <ele>129.4</ele>
        <time>2023-04-10T10:06:10Z</time>
      </trkpt>
      <trkpt lat="48.03161" lon="-3.0949">
        <ele>129.6</ele>
        <time>2023-04-10T10:06:11Z</time>
      </trkpt>
      <trkpt lat="48.03155" lon="-3.09475">
        <ele>129.8</ele>
        <time>2023-04-10T10:06:13Z</time>
      </trkpt>
      <trkpt lat="48.03153" lon="-3.09467">
        <ele>129.8</ele>
        <time>2023-04-10T10:06:14Z</time>
      </trkpt>
      <trkpt lat="48.0315" lon="-3.09459">
        <ele>130</ele>
        <time>2023-04-10T10:06:15Z</time>
      </trkpt>
      <trkpt lat="48.03148" lon="-3.09452">
        <ele>130</ele>
        <time>2023-04-10T10:06:16Z</time>
      </trkpt>
      <trkpt lat="48.03145" lon="-3.09444">
        <ele>130</ele>
        <time>2023-04-10T10:06:17Z</time>
      </trkpt>
      <trkpt lat="48.03143" lon="-3.09437">
        <ele>130.2</ele>
        <time>2023-04-10T10:06:18Z</time>
      </trkpt>
      <trkpt lat="48.0314" lon="-3.0943">
        <ele>130.4</ele>
        <time>2023-04-10T10:06:19Z</time>
      </trkpt>
      <trkpt lat="48.03139" lon="-3.09423">
        <ele>130.6</ele>
        <time>2023-04-10T10:06:20Z</time>
      </trkpt>
      <trkpt lat="48.03137" lon="-3.09417">
        <ele>130.6</ele>
        <time>2023-04-10T10:06:21Z</time>
      </trkpt>
      <trkpt lat="48.03135" lon="-3.0941">
        <ele>130.8</ele>
        <time>2023-04-10T10:06:22Z</time>
      </trkpt>
      <trkpt lat="48.03132" lon="-3.09404">
        <ele>131</ele>
        <time>2023-04-10T10:06:23Z</time>
      </trkpt>
      <trkpt lat="48.03129" lon="-3.09398">
        <ele>131.2</ele>
        <time>2023-04-10T10:06:24Z</time>
      </trkpt>
      <trkpt lat="48.03126" lon="-3.09391">
        <ele>131.4</ele>
        <time>2023-04-10T10:06:25Z</time>
      </trkpt>
      <trkpt lat="48.03123" lon="-3.09385">
        <ele>131.4</ele>
        <time>2023-04-10T10:06:26Z</time>
      </trkpt>
      <trkpt lat="48.03121" lon="-3.09379">
        <ele>131.6</ele>
        <time>2023-04-10T10:06:27Z</time>
      </trkpt>
      <trkpt lat="48.03118" lon="-3.09373">
        <ele>131.8</ele>
        <time>2023-04-10T10:06:28Z</time>
      </trkpt>
      <trkpt lat="48.03116" lon="-3.09368">
        <ele>132</ele>
        <time>2023-04-10T10:06:29Z</time>
      </trkpt>
      <trkpt lat="48.03114" lon="-3.09362">
        <ele>132.2</ele>
        <time>2023-04-10T10:06:30Z</time>
      </trkpt>
      <trkpt lat="48.03112" lon="-3.09355">
        <ele>132.4</ele>
        <time>2023-04-10T10:06:31Z</time>
      </trkpt>
      <trkpt lat="48.03109" lon="-3.0935">
        <ele>132.6</ele>
        <time>2023-04-10T10:06:32Z</time>
      </trkpt>
      <trkpt lat="48.03107" lon="-3.09345">
        <ele>132.8</ele>
        <time>2023-04-10T10:06:33Z</time>
      </trkpt>
      <trkpt lat="48.03104" lon="-3.0934">
        <ele>133</ele>
        <time>2023-04-10T10:06:34Z</time>
      </trkpt>
      <trkpt lat="48.03102" lon="-3.09335">
        <ele>133.2</ele>
        <time>2023-04-10T10:06:35Z</time>
      </trkpt>
      <trkpt lat="48.03099" lon="-3.0933">
        <ele>133.4</ele>
        <time>2023-04-10T10:06:36Z</time>
      </trkpt>
      <trkpt lat="48.03097" lon="-3.09325">
        <ele>133.6</ele>
        <time>2023-04-10T10:06:37Z</time>
      </trkpt>
      <trkpt lat="48.03094" lon="-3.0932">
        <ele>133.6</ele>
        <time>2023-04-10T10:06:38Z</time>
      </trkpt>
      <trkpt lat="48.03092" lon="-3.09315">
        <ele>133.6</ele>
        <time>2023-04-10T10:06:39Z</time>
      </trkpt>
      <trkpt lat="48.0309" lon="-3.0931">
        <ele>133.8</ele>
        <time>2023-04-10T10:06:40Z</time>
      </trkpt>
      <trkpt lat="48.03088" lon="-3.09305">
        <ele>133.8</ele>
        <time>2023-04-10T10:06:41Z</time>
      </trkpt>
      <trkpt lat="48.03087" lon="-3.09299">
        <ele>133.8</ele>
        <time>2023-04-10T10:06:42Z</time>
      </trkpt>
      <trkpt lat="48.03085" lon="-3.09295">
        <ele>134.2</ele>
        <time>2023-04-10T10:06:43Z</time>
      </trkpt>
      <trkpt lat="48.03083" lon="-3.0929">
        <ele>134.6</ele>
        <time>2023-04-10T10:06:44Z</time>
      </trkpt>
      <trkpt lat="48.0308" lon="-3.09286">
        <ele>135</ele>
        <time>2023-04-10T10:06:45Z</time>
      </trkpt>
      <trkpt lat="48.03078" lon="-3.09281">
        <ele>135.4</ele>
        <time>2023-04-10T10:06:46Z</time>
      </trkpt>
      <trkpt lat="48.03076" lon="-3.09276">
        <ele>135.8</ele>
        <time>2023-04-10T10:06:47Z</time>
      </trkpt>
      <trkpt lat="48.03075" lon="-3.0927">
        <ele>136</ele>
        <time>2023-04-10T10:06:48Z</time>
      </trkpt>
      <trkpt lat="48.03073" lon="-3.09264">
        <ele>136.2</ele>
        <time>2023-04-10T10:06:49Z</time>
      </trkpt>
      <trkpt lat="48.03071" lon="-3.09259">
        <ele>136.4</ele>
        <time>2023-04-10T10:06:50Z</time>
      </trkpt>
      <trkpt lat="48.03069" lon="-3.09254">
        <ele>136.6</ele>
        <time>2023-04-10T10:06:51Z</time>
      </trkpt>
      <trkpt lat="48.03066" lon="-3.09249">
        <ele>136.8</ele>
        <time>2023-04-10T10:06:52Z</time>
      </trkpt>
      <trkpt lat="48.03063" lon="-3.09244">
        <ele>137</ele>
        <time>2023-04-10T10:06:53Z</time>
      </trkpt>
      <trkpt lat="48.03061" lon="-3.09239">
        <ele>137.2</ele>
        <time>2023-04-10T10:06:54Z</time>
      </trkpt>
      <trkpt lat="48.03058" lon="-3.09234">
        <ele>137.2</ele>
        <time>2023-04-10T10:06:55Z</time>
      </trkpt>
      <trkpt lat="48.03056" lon="-3.09229">
        <ele>137.4</ele>
        <time>2023-04-10T10:06:56Z</time>
      </trkpt>
      <trkpt lat="48.03054" lon="-3.09223">
        <ele>137.6</ele>
        <time>2023-04-10T10:06:57Z</time>
      </trkpt>
      <trkpt lat="48.03051" lon="-3.09217">
        <ele>137.8</ele>
        <time>2023-04-10T10:06:58Z</time>
      </trkpt>
      <trkpt lat="48.03049" lon="-3.09211">
        <ele>138</ele>
        <time>2023-04-10T10:06:59Z</time>
      </trkpt>
      <trkpt lat="48.03047" lon="-3.09205">
        <ele>138.2</ele>
        <time>2023-04-10T10:07:00Z</time>
      </trkpt>
      <trkpt lat="48.03045" lon="-3.092">
        <ele>138.4</ele>
        <time>2023-04-10T10:07:01Z</time>
      </trkpt>
      <trkpt lat="48.03044" lon="-3.09195">
        <ele>138.4</ele>
        <time>2023-04-10T10:07:02Z</time>
      </trkpt>
      <trkpt lat="48.03042" lon="-3.09189">
        <ele>138.8</ele>
        <time>2023-04-10T10:07:03Z</time>
      </trkpt>
      <trkpt lat="48.0304" lon="-3.09184">
        <ele>139</ele>
        <time>2023-04-10T10:07:04Z</time>
      </trkpt>
      <trkpt lat="48.03038" lon="-3.09179">
        <ele>139.2</ele>
        <time>2023-04-10T10:07:05Z</time>
      </trkpt>
      <trkpt lat="48.03036" lon="-3.09174">
        <ele>139.4</ele>
        <time>2023-04-10T10:07:06Z</time>
      </trkpt>
      <trkpt lat="48.03035" lon="-3.09169">
        <ele>139.6</ele>
        <time>2023-04-10T10:07:07Z</time>
      </trkpt>
      <trkpt lat="48.03032" lon="-3.09164">
        <ele>139.8</ele>
        <time>2023-04-10T10:07:08Z</time>
      </trkpt>
      <trkpt lat="48.0303" lon="-3.09159">
        <ele>139.8</ele>
        <time>2023-04-10T10:07:09Z</time>
      </trkpt>
      <trkpt lat="48.03028" lon="-3.09154">
        <ele>140</ele>
        <time>2023-04-10T10:07:10Z</time>
      </trkpt>
      <trkpt lat="48.03026" lon="-3.09149">
        <ele>140.2</ele>
        <time>2023-04-10T10:07:11Z</time>
      </trkpt>
      <trkpt lat="48.03024" lon="-3.09145">
        <ele>140.2</ele>
        <time>2023-04-10T10:07:12Z</time>
      </trkpt>
      <trkpt lat="48.03021" lon="-3.09141">
        <ele>140.2</ele>
        <time>2023-04-10T10:07:13Z</time>
      </trkpt>
      <trkpt lat="48.03017" lon="-3.0914">
        <ele>140.2</ele>
        <time>2023-04-10T10:07:14Z</time>
      </trkpt>
      <trkpt lat="48.03011" lon="-3.09141">
        <ele>140.2</ele>
        <time>2023-04-10T10:07:15Z</time>
      </trkpt>
      <trkpt lat="48.03005" lon="-3.09143">
        <ele>140.2</ele>
        <time>2023-04-10T10:07:16Z</time>
      </trkpt>
      <trkpt lat="48.02998" lon="-3.09144">
        <ele>140.2</ele>
        <time>2023-04-10T10:07:17Z</time>
      </trkpt>
      <trkpt lat="48.02991" lon="-3.09144">
        <ele>140.2</ele>
        <time>2023-04-10T10:07:18Z</time>
      </trkpt>
      <trkpt lat="48.02987" lon="-3.0914">
        <ele>140.2</ele>
        <time>2023-04-10T10:07:19Z</time>
      </trkpt>
      <trkpt lat="48.02984" lon="-3.09133">
        <ele>140.2</ele>
        <time>2023-04-10T10:07:20Z</time>
      </trkpt>
      <trkpt lat="48.02982" lon="-3.09126">
        <ele>140.2</ele>
        <time>2023-04-10T10:07:21Z</time>
      </trkpt>
      <trkpt lat="48.02979" lon="-3.09119">
        <ele>140</ele>
        <time>2023-04-10T10:07:22Z</time>
      </trkpt>
      <trkpt lat="48.02976" lon="-3.09111">
        <ele>140</ele>
        <time>2023-04-10T10:07:23Z</time>
      </trkpt>
      <trkpt lat="48.02977" lon="-3.09104">
        <ele>140</ele>
        <time>2023-04-10T10:07:24Z</time>
      </trkpt>
      <trkpt lat="48.02977" lon="-3.09097">
        <ele>139.8</ele>
        <time>2023-04-10T10:07:25Z</time>
      </trkpt>
      <trkpt lat="48.02977" lon="-3.09091">
        <ele>139.8</ele>
        <time>2023-04-10T10:07:26Z</time>
      </trkpt>
      <trkpt lat="48.02978" lon="-3.09084">
        <ele>139.4</ele>
        <time>2023-04-10T10:07:27Z</time>
      </trkpt>
      <trkpt lat="48.02978" lon="-3.09077">
        <ele>139.2</ele>
        <time>2023-04-10T10:07:28Z</time>
      </trkpt>
      <trkpt lat="48.02979" lon="-3.0907">
        <ele>138.6</ele>
        <time>2023-04-10T10:07:29Z</time>
      </trkpt>
      <trkpt lat="48.0298" lon="-3.09063">
        <ele>138.4</ele>
        <time>2023-04-10T10:07:30Z</time>
      </trkpt>
      <trkpt lat="48.0298" lon="-3.09055">
        <ele>138.2</ele>
        <time>2023-04-10T10:07:31Z</time>
      </trkpt>
      <trkpt lat="48.0298" lon="-3.09049">
        <ele>138</ele>
        <time>2023-04-10T10:07:32Z</time>
      </trkpt>
      <trkpt lat="48.02978" lon="-3.09041">
        <ele>138</ele>
        <time>2023-04-10T10:07:33Z</time>
      </trkpt>
      <trkpt lat="48.02975" lon="-3.09024">
        <ele>138</ele>
        <time>2023-04-10T10:07:35Z</time>
      </trkpt>
      <trkpt lat="48.02967" lon="-3.08986">
        <ele>137.8</ele>
        <time>2023-04-10T10:07:39Z</time>
      </trkpt>
      <trkpt lat="48.02964" lon="-3.08978">
        <ele>137.6</ele>
        <time>2023-04-10T10:07:40Z</time>
      </trkpt>
      <trkpt lat="48.02961" lon="-3.0897">
        <ele>137.6</ele>
        <time>2023-04-10T10:07:41Z</time>
      </trkpt>
      <trkpt lat="48.02947" lon="-3.08931">
        <ele>137.4</ele>
        <time>2023-04-10T10:07:46Z</time>
      </trkpt>
      <trkpt lat="48.02943" lon="-3.08923">
        <ele>137.4</ele>
        <time>2023-04-10T10:07:47Z</time>
      </trkpt>
      <trkpt lat="48.02924" lon="-3.08886">
        <ele>137.2</ele>
        <time>2023-04-10T10:07:52Z</time>
      </trkpt>
      <trkpt lat="48.02921" lon="-3.08878">
        <ele>137.2</ele>
        <time>2023-04-10T10:07:53Z</time>
      </trkpt>
      <trkpt lat="48.02918" lon="-3.08871">
        <ele>137.2</ele>
        <time>2023-04-10T10:07:54Z</time>
      </trkpt>
      <trkpt lat="48.02901" lon="-3.08832">
        <ele>137.2</ele>
        <time>2023-04-10T10:07:59Z</time>
      </trkpt>
      <trkpt lat="48.02886" lon="-3.0879">
        <ele>137</ele>
        <time>2023-04-10T10:08:04Z</time>
      </trkpt>
      <trkpt lat="48.0288" lon="-3.08775">
        <ele>137</ele>
        <time>2023-04-10T10:08:06Z</time>
      </trkpt>
      <trkpt lat="48.02877" lon="-3.08768">
        <ele>136.8</ele>
        <time>2023-04-10T10:08:07Z</time>
      </trkpt>
      <trkpt lat="48.02873" lon="-3.08761">
        <ele>136.6</ele>
        <time>2023-04-10T10:08:08Z</time>
      </trkpt>
      <trkpt lat="48.02869" lon="-3.08754">
        <ele>136.6</ele>
        <time>2023-04-10T10:08:09Z</time>
      </trkpt>
      <trkpt lat="48.02865" lon="-3.08748">
        <ele>136.6</ele>
        <time>2023-04-10T10:08:10Z</time>
      </trkpt>
      <trkpt lat="48.02861" lon="-3.08743">
        <ele>136.4</ele>
        <time>2023-04-10T10:08:11Z</time>
      </trkpt>
      <trkpt lat="48.02844" lon="-3.08721">
        <ele>136</ele>
        <time>2023-04-10T10:08:15Z</time>
      </trkpt>
      <trkpt lat="48.02839" lon="-3.08716">
        <ele>135.8</ele>
        <time>2023-04-10T10:08:16Z</time>
      </trkpt>
      <trkpt lat="48.02836" lon="-3.08712">
        <ele>135.8</ele>
        <time>2023-04-10T10:08:17Z</time>
      </trkpt>
      <trkpt lat="48.02832" lon="-3.08706">
        <ele>135.6</ele>
        <time>2023-04-10T10:08:18Z</time>
      </trkpt>
      <trkpt lat="48.02827" lon="-3.08701">
        <ele>135.6</ele>
        <time>2023-04-10T10:08:19Z</time>
      </trkpt>
      <trkpt lat="48.02823" lon="-3.08696">
        <ele>135.6</ele>
        <time>2023-04-10T10:08:20Z</time>
      </trkpt>
      <trkpt lat="48.02819" lon="-3.0869">
        <ele>135.6</ele>
        <time>2023-04-10T10:08:21Z</time>
      </trkpt>
      <trkpt lat="48.02816" lon="-3.08682">
        <ele>135.4</ele>
        <time>2023-04-10T10:08:22Z</time>
      </trkpt>
      <trkpt lat="48.02813" lon="-3.08676">
        <ele>135.4</ele>
        <time>2023-04-10T10:08:23Z</time>
      </trkpt>
      <trkpt lat="48.0281" lon="-3.08668">
        <ele>135.4</ele>
        <time>2023-04-10T10:08:24Z</time>
      </trkpt>
      <trkpt lat="48.028" lon="-3.08647">
        <ele>135.4</ele>
        <time>2023-04-10T10:08:27Z</time>
      </trkpt>
      <trkpt lat="48.02797" lon="-3.0864">
        <ele>135.6</ele>
        <time>2023-04-10T10:08:28Z</time>
      </trkpt>
      <trkpt lat="48.02796" lon="-3.08634">
        <ele>135.6</ele>
        <time>2023-04-10T10:08:29Z</time>
      </trkpt>
      <trkpt lat="48.02794" lon="-3.08627">
        <ele>135.6</ele>
        <time>2023-04-10T10:08:30Z</time>
      </trkpt>
      <trkpt lat="48.02792" lon="-3.08621">
        <ele>135.8</ele>
        <time>2023-04-10T10:08:31Z</time>
      </trkpt>
      <trkpt lat="48.0279" lon="-3.08615">
        <ele>135.8</ele>
        <time>2023-04-10T10:08:32Z</time>
      </trkpt>
      <trkpt lat="48.02787" lon="-3.08609">
        <ele>135.8</ele>
        <time>2023-04-10T10:08:33Z</time>
      </trkpt>
      <trkpt lat="48.02785" lon="-3.08604">
        <ele>136</ele>
        <time>2023-04-10T10:08:34Z</time>
      </trkpt>
      <trkpt lat="48.02783" lon="-3.08601">
        <ele>136.2</ele>
        <time>2023-04-10T10:08:35Z</time>
      </trkpt>
      <trkpt lat="48.02779" lon="-3.08597">
        <ele>136.2</ele>
        <time>2023-04-10T10:08:36Z</time>
      </trkpt>
      <trkpt lat="48.02776" lon="-3.08593">
        <ele>136.4</ele>
        <time>2023-04-10T10:08:37Z</time>
      </trkpt>
      <trkpt lat="48.02773" lon="-3.08589">
        <ele>136.4</ele>
        <time>2023-04-10T10:08:38Z</time>
      </trkpt>
      <trkpt lat="48.02767" lon="-3.08584">
        <ele>136.4</ele>
        <time>2023-04-10T10:08:39Z</time>
      </trkpt>
      <trkpt lat="48.02763" lon="-3.0858">
        <ele>136.6</ele>
        <time>2023-04-10T10:08:40Z</time>
      </trkpt>
      <trkpt lat="48.02746" lon="-3.08563">
        <ele>137.8</ele>
        <time>2023-04-10T10:08:44Z</time>
      </trkpt>
      <trkpt lat="48.02742" lon="-3.0856">
        <ele>138</ele>
        <time>2023-04-10T10:08:45Z</time>
      </trkpt>
      <trkpt lat="48.02733" lon="-3.08556">
        <ele>138.8</ele>
        <time>2023-04-10T10:08:48Z</time>
      </trkpt>
      <trkpt lat="48.02731" lon="-3.08554">
        <ele>139</ele>
        <time>2023-04-10T10:08:49Z</time>
      </trkpt>
      <trkpt lat="48.02727" lon="-3.08552">
        <ele>139.2</ele>
        <time>2023-04-10T10:08:50Z</time>
      </trkpt>
      <trkpt lat="48.02724" lon="-3.08551">
        <ele>139.4</ele>
        <time>2023-04-10T10:08:51Z</time>
      </trkpt>
      <trkpt lat="48.02721" lon="-3.08548">
        <ele>139.6</ele>
        <time>2023-04-10T10:08:52Z</time>
      </trkpt>
      <trkpt lat="48.02718" lon="-3.08546">
        <ele>139.8</ele>
        <time>2023-04-10T10:08:53Z</time>
      </trkpt>
      <trkpt lat="48.02716" lon="-3.08545">
        <ele>140</ele>
        <time>2023-04-10T10:08:54Z</time>
      </trkpt>
      <trkpt lat="48.02713" lon="-3.08543">
        <ele>140</ele>
        <time>2023-04-10T10:08:55Z</time>
      </trkpt>
      <trkpt lat="48.0271" lon="-3.08541">
        <ele>140.2</ele>
        <time>2023-04-10T10:08:56Z</time>
      </trkpt>
      <trkpt lat="48.02707" lon="-3.08539">
        <ele>140.4</ele>
        <time>2023-04-10T10:08:57Z</time>
      </trkpt>
      <trkpt lat="48.02704" lon="-3.08537">
        <ele>140.6</ele>
        <time>2023-04-10T10:08:58Z</time>
      </trkpt>
      <trkpt lat="48.02702" lon="-3.08534">
        <ele>140.8</ele>
        <time>2023-04-10T10:08:59Z</time>
      </trkpt>
      <trkpt lat="48.02698" lon="-3.08532">
        <ele>141</ele>
        <time>2023-04-10T10:09:00Z</time>
      </trkpt>
      <trkpt lat="48.02695" lon="-3.0853">
        <ele>141.4</ele>
        <time>2023-04-10T10:09:01Z</time>
      </trkpt>
      <trkpt lat="48.02692" lon="-3.08528">
        <ele>141.6</ele>
        <time>2023-04-10T10:09:02Z</time>
      </trkpt>
      <trkpt lat="48.02688" lon="-3.08526">
        <ele>141.6</ele>
        <time>2023-04-10T10:09:03Z</time>
      </trkpt>
      <trkpt lat="48.02685" lon="-3.08524">
        <ele>141.8</ele>
        <time>2023-04-10T10:09:04Z</time>
      </trkpt>
      <trkpt lat="48.02681" lon="-3.08521">
        <ele>142</ele>
        <time>2023-04-10T10:09:05Z</time>
      </trkpt>
      <trkpt lat="48.02677" lon="-3.08518">
        <ele>142</ele>
        <time>2023-04-10T10:09:06Z</time>
      </trkpt>
      <trkpt lat="48.02673" lon="-3.08514">
        <ele>142.2</ele>
        <time>2023-04-10T10:09:07Z</time>
      </trkpt>
      <trkpt lat="48.0267" lon="-3.08511">
        <ele>142.2</ele>
        <time>2023-04-10T10:09:08Z</time>
      </trkpt>
      <trkpt lat="48.02666" lon="-3.08508">
        <ele>142.4</ele>
        <time>2023-04-10T10:09:09Z</time>
      </trkpt>
      <trkpt lat="48.02663" lon="-3.08505">
        <ele>142.4</ele>
        <time>2023-04-10T10:09:10Z</time>
      </trkpt>
      <trkpt lat="48.0266" lon="-3.08501">
        <ele>142.4</ele>
        <time>2023-04-10T10:09:11Z</time>
      </trkpt>
      <trkpt lat="48.02656" lon="-3.08497">
        <ele>142.4</ele>
        <time>2023-04-10T10:09:12Z</time>
      </trkpt>
      <trkpt lat="48.02653" lon="-3.08493">
        <ele>142.4</ele>
        <time>2023-04-10T10:09:13Z</time>
      </trkpt>
      <trkpt lat="48.02649" lon="-3.08488">
        <ele>142.4</ele>
        <time>2023-04-10T10:09:14Z</time>
      </trkpt>
      <trkpt lat="48.02645" lon="-3.08484">
        <ele>142.4</ele>
        <time>2023-04-10T10:09:15Z</time>
      </trkpt>
      <trkpt lat="48.02641" lon="-3.0848">
        <ele>142.4</ele>
        <time>2023-04-10T10:09:16Z</time>
      </trkpt>
      <trkpt lat="48.02638" lon="-3.08476">
        <ele>142.4</ele>
        <time>2023-04-10T10:09:17Z</time>
      </trkpt>
      <trkpt lat="48.02634" lon="-3.08471">
        <ele>142.4</ele>
        <time>2023-04-10T10:09:18Z</time>
      </trkpt>
      <trkpt lat="48.02631" lon="-3.08467">
        <ele>142.4</ele>
        <time>2023-04-10T10:09:19Z</time>
      </trkpt>
      <trkpt lat="48.02627" lon="-3.08462">
        <ele>142.4</ele>
        <time>2023-04-10T10:09:20Z</time>
      </trkpt>
      <trkpt lat="48.02623" lon="-3.08457">
        <ele>142.4</ele>
        <time>2023-04-10T10:09:21Z</time>
      </trkpt>
      <trkpt lat="48.02619" lon="-3.08452">
        <ele>142.4</ele>
        <time>2023-04-10T10:09:22Z</time>
      </trkpt>
      <trkpt lat="48.02615" lon="-3.08447">
        <ele>142.4</ele>
        <time>2023-04-10T10:09:23Z</time>
      </trkpt>
      <trkpt lat="48.02611" lon="-3.08441">
        <ele>142.4</ele>
        <time>2023-04-10T10:09:24Z</time>
      </trkpt>
      <trkpt lat="48.02598" lon="-3.08426">
        <ele>142</ele>
        <time>2023-04-10T10:09:27Z</time>
      </trkpt>
      <trkpt lat="48.02589" lon="-3.08417">
        <ele>141.8</ele>
        <time>2023-04-10T10:09:29Z</time>
      </trkpt>
      <trkpt lat="48.02584" lon="-3.08413">
        <ele>141.6</ele>
        <time>2023-04-10T10:09:30Z</time>
      </trkpt>
      <trkpt lat="48.02575" lon="-3.08405">
        <ele>141</ele>
        <time>2023-04-10T10:09:32Z</time>
      </trkpt>
      <trkpt lat="48.02567" lon="-3.08398">
        <ele>140.4</ele>
        <time>2023-04-10T10:09:34Z</time>
      </trkpt>
      <trkpt lat="48.02562" lon="-3.08395">
        <ele>140.2</ele>
        <time>2023-04-10T10:09:35Z</time>
      </trkpt>
      <trkpt lat="48.02557" lon="-3.08392">
        <ele>140.2</ele>
        <time>2023-04-10T10:09:36Z</time>
      </trkpt>
      <trkpt lat="48.02553" lon="-3.0839">
        <ele>140</ele>
        <time>2023-04-10T10:09:37Z</time>
      </trkpt>
      <trkpt lat="48.02543" lon="-3.08384">
        <ele>139.8</ele>
        <time>2023-04-10T10:09:39Z</time>
      </trkpt>
      <trkpt lat="48.02538" lon="-3.08381">
        <ele>139.8</ele>
        <time>2023-04-10T10:09:40Z</time>
      </trkpt>
      <trkpt lat="48.02534" lon="-3.08378">
        <ele>139.6</ele>
        <time>2023-04-10T10:09:41Z</time>
      </trkpt>
      <trkpt lat="48.0253" lon="-3.08374">
        <ele>139.6</ele>
        <time>2023-04-10T10:09:42Z</time>
      </trkpt>
      <trkpt lat="48.02526" lon="-3.08372">
        <ele>139.6</ele>
        <time>2023-04-10T10:09:43Z</time>
      </trkpt>
      <trkpt lat="48.02522" lon="-3.08369">
        <ele>139.6</ele>
        <time>2023-04-10T10:09:44Z</time>
      </trkpt>
      <trkpt lat="48.02513" lon="-3.08362">
        <ele>139.6</ele>
        <time>2023-04-10T10:09:46Z</time>
      </trkpt>
      <trkpt lat="48.02509" lon="-3.08359">
        <ele>139.6</ele>
        <time>2023-04-10T10:09:47Z</time>
      </trkpt>
      <trkpt lat="48.02505" lon="-3.08355">
        <ele>139.6</ele>
        <time>2023-04-10T10:09:48Z</time>
      </trkpt>
      <trkpt lat="48.02502" lon="-3.08351">
        <ele>139.6</ele>
        <time>2023-04-10T10:09:49Z</time>
      </trkpt>
      <trkpt lat="48.02477" lon="-3.08324">
        <ele>140</ele>
        <time>2023-04-10T10:09:55Z</time>
      </trkpt>
      <trkpt lat="48.02473" lon="-3.08319">
        <ele>140</ele>
        <time>2023-04-10T10:09:56Z</time>
      </trkpt>
      <trkpt lat="48.02448" lon="-3.08289">
        <ele>140.6</ele>
        <time>2023-04-10T10:10:02Z</time>
      </trkpt>
      <trkpt lat="48.02444" lon="-3.08284">
        <ele>140.6</ele>
        <time>2023-04-10T10:10:03Z</time>
      </trkpt>
      <trkpt lat="48.02425" lon="-3.08255">
        <ele>140.6</ele>
        <time>2023-04-10T10:10:08Z</time>
      </trkpt>
      <trkpt lat="48.02422" lon="-3.08251">
        <ele>140.6</ele>
        <time>2023-04-10T10:10:09Z</time>
      </trkpt>
      <trkpt lat="48.0242" lon="-3.08246">
        <ele>140.6</ele>
        <time>2023-04-10T10:10:10Z</time>
      </trkpt>
      <trkpt lat="48.02418" lon="-3.0824">
        <ele>140.6</ele>
        <time>2023-04-10T10:10:11Z</time>
      </trkpt>
      <trkpt lat="48.0242" lon="-3.08236">
        <ele>140.4</ele>
        <time>2023-04-10T10:10:12Z</time>
      </trkpt>
      <trkpt lat="48.02422" lon="-3.08231">
        <ele>140.2</ele>
        <time>2023-04-10T10:10:13Z</time>
      </trkpt>
      <trkpt lat="48.02426" lon="-3.08226">
        <ele>140</ele>
        <time>2023-04-10T10:10:14Z</time>
      </trkpt>
      <trkpt lat="48.02429" lon="-3.08221">
        <ele>139.6</ele>
        <time>2023-04-10T10:10:15Z</time>
      </trkpt>
      <trkpt lat="48.02431" lon="-3.08215">
        <ele>139.4</ele>
        <time>2023-04-10T10:10:16Z</time>
      </trkpt>
      <trkpt lat="48.02432" lon="-3.08208">
        <ele>139</ele>
        <time>2023-04-10T10:10:17Z</time>
      </trkpt>
      <trkpt lat="48.02433" lon="-3.08187">
        <ele>138.8</ele>
        <time>2023-04-10T10:10:20Z</time>
      </trkpt>
      <trkpt lat="48.02433" lon="-3.08165">
        <ele>138.8</ele>
        <time>2023-04-10T10:10:23Z</time>
      </trkpt>
      <trkpt lat="48.02436" lon="-3.08153">
        <ele>138.6</ele>
        <time>2023-04-10T10:10:25Z</time>
      </trkpt>
      <trkpt lat="48.02433" lon="-3.08133">
        <ele>138.6</ele>
        <time>2023-04-10T10:10:28Z</time>
      </trkpt>
      <trkpt lat="48.02431" lon="-3.0812">
        <ele>138.6</ele>
        <time>2023-04-10T10:10:30Z</time>
      </trkpt>
      <trkpt lat="48.02431" lon="-3.08114">
        <ele>138.6</ele>
        <time>2023-04-10T10:10:31Z</time>
      </trkpt>
      <trkpt lat="48.0243" lon="-3.08109">
        <ele>138.6</ele>
        <time>2023-04-10T10:10:32Z</time>
      </trkpt>
      <trkpt lat="48.0243" lon="-3.08104">
        <ele>138.6</ele>
        <time>2023-04-10T10:10:33Z</time>
      </trkpt>
      <trkpt lat="48.02429" lon="-3.08099">
        <ele>138.6</ele>
        <time>2023-04-10T10:10:34Z</time>
      </trkpt>
      <trkpt lat="48.02429" lon="-3.08094">
        <ele>138.6</ele>
        <time>2023-04-10T10:10:35Z</time>
      </trkpt>
      <trkpt lat="48.0243" lon="-3.08089">
        <ele>138.6</ele>
        <time>2023-04-10T10:10:36Z</time>
      </trkpt>
      <trkpt lat="48.02432" lon="-3.08086">
        <ele>138.6</ele>
        <time>2023-04-10T10:10:37Z</time>
      </trkpt>
      <trkpt lat="48.02435" lon="-3.08083">
        <ele>138.4</ele>
        <time>2023-04-10T10:10:38Z</time>
      </trkpt>
      <trkpt lat="48.02442" lon="-3.08077">
        <ele>138.4</ele>
        <time>2023-04-10T10:10:40Z</time>
      </trkpt>
      <trkpt lat="48.02445" lon="-3.08074">
        <ele>138.4</ele>
        <time>2023-04-10T10:10:41Z</time>
      </trkpt>
      <trkpt lat="48.02447" lon="-3.08071">
        <ele>138.4</ele>
        <time>2023-04-10T10:10:42Z</time>
      </trkpt>
      <trkpt lat="48.02455" lon="-3.08067">
        <ele>138.4</ele>
        <time>2023-04-10T10:10:44Z</time>
      </trkpt>
      <trkpt lat="48.02457" lon="-3.08064">
        <ele>138.4</ele>
        <time>2023-04-10T10:10:45Z</time>
      </trkpt>
      <trkpt lat="48.02461" lon="-3.08062">
        <ele>138.4</ele>
        <time>2023-04-10T10:10:46Z</time>
      </trkpt>
      <trkpt lat="48.02463" lon="-3.0806">
        <ele>138.4</ele>
        <time>2023-04-10T10:10:47Z</time>
      </trkpt>
      <trkpt lat="48.02466" lon="-3.08057">
        <ele>138.4</ele>
        <time>2023-04-10T10:10:48Z</time>
      </trkpt>
      <trkpt lat="48.02469" lon="-3.08055">
        <ele>138.4</ele>
        <time>2023-04-10T10:10:49Z</time>
      </trkpt>
      <trkpt lat="48.02472" lon="-3.08053">
        <ele>138.4</ele>
        <time>2023-04-10T10:10:50Z</time>
      </trkpt>
      <trkpt lat="48.02475" lon="-3.08052">
        <ele>138.6</ele>
        <time>2023-04-10T10:10:51Z</time>
      </trkpt>
      <trkpt lat="48.02478" lon="-3.08049">
        <ele>138.6</ele>
        <time>2023-04-10T10:10:52Z</time>
      </trkpt>
      <trkpt lat="48.0248" lon="-3.08047">
        <ele>138.8</ele>
        <time>2023-04-10T10:10:53Z</time>
      </trkpt>
      <trkpt lat="48.02486" lon="-3.08041">
        <ele>138.8</ele>
        <time>2023-04-10T10:10:55Z</time>
      </trkpt>
      <trkpt lat="48.02489" lon="-3.08039">
        <ele>139</ele>
        <time>2023-04-10T10:10:56Z</time>
      </trkpt>
      <trkpt lat="48.02493" lon="-3.08036">
        <ele>139</ele>
        <time>2023-04-10T10:10:57Z</time>
      </trkpt>
      <trkpt lat="48.02502" lon="-3.08027">
        <ele>139</ele>
        <time>2023-04-10T10:11:00Z</time>
      </trkpt>
      <trkpt lat="48.02504" lon="-3.08024">
        <ele>139</ele>
        <time>2023-04-10T10:11:01Z</time>
      </trkpt>
      <trkpt lat="48.02506" lon="-3.0802">
        <ele>139</ele>
        <time>2023-04-10T10:11:02Z</time>
      </trkpt>
      <trkpt lat="48.02507" lon="-3.08017">
        <ele>139</ele>
        <time>2023-04-10T10:11:03Z</time>
      </trkpt>
      <trkpt lat="48.02516" lon="-3.08008">
        <ele>139.2</ele>
        <time>2023-04-10T10:11:06Z</time>
      </trkpt>
      <trkpt lat="48.02518" lon="-3.08005">
        <ele>139.4</ele>
        <time>2023-04-10T10:11:07Z</time>
      </trkpt>
      <trkpt lat="48.0252" lon="-3.08003">
        <ele>139.4</ele>
        <time>2023-04-10T10:11:08Z</time>
      </trkpt>
      <trkpt lat="48.02522" lon="-3.08001">
        <ele>139.4</ele>
        <time>2023-04-10T10:11:09Z</time>
      </trkpt>
      <trkpt lat="48.02531" lon="-3.0799">
        <ele>140</ele>
        <time>2023-04-10T10:11:13Z</time>
      </trkpt>
      <trkpt lat="48.02534" lon="-3.07986">
        <ele>140.2</ele>
        <time>2023-04-10T10:11:14Z</time>
      </trkpt>
      <trkpt lat="48.02535" lon="-3.07985">
        <ele>140.4</ele>
        <time>2023-04-10T10:11:15Z</time>
      </trkpt>
      <trkpt lat="48.02538" lon="-3.07983">
        <ele>140.6</ele>
        <time>2023-04-10T10:11:16Z</time>
      </trkpt>
      <trkpt lat="48.0254" lon="-3.07981">
        <ele>140.8</ele>
        <time>2023-04-10T10:11:17Z</time>
      </trkpt>
      <trkpt lat="48.02542" lon="-3.07979">
        <ele>141</ele>
        <time>2023-04-10T10:11:18Z</time>
      </trkpt>
      <trkpt lat="48.02544" lon="-3.07977">
        <ele>141.2</ele>
        <time>2023-04-10T10:11:19Z</time>
      </trkpt>
      <trkpt lat="48.02546" lon="-3.07976">
        <ele>141.4</ele>
        <time>2023-04-10T10:11:20Z</time>
      </trkpt>
      <trkpt lat="48.02548" lon="-3.07975">
        <ele>141.6</ele>
        <time>2023-04-10T10:11:21Z</time>
      </trkpt>
      <trkpt lat="48.02551" lon="-3.07973">
        <ele>141.8</ele>
        <time>2023-04-10T10:11:22Z</time>
      </trkpt>
      <trkpt lat="48.02553" lon="-3.07971">
        <ele>142</ele>
        <time>2023-04-10T10:11:23Z</time>
      </trkpt>
      <trkpt lat="48.02554" lon="-3.07969">
        <ele>142.2</ele>
        <time>2023-04-10T10:11:24Z</time>
      </trkpt>
      <trkpt lat="48.02556" lon="-3.07967">
        <ele>142.4</ele>
        <time>2023-04-10T10:11:25Z</time>
      </trkpt>
      <trkpt lat="48.02558" lon="-3.07965">
        <ele>142.6</ele>
        <time>2023-04-10T10:11:26Z</time>
      </trkpt>
      <trkpt lat="48.0256" lon="-3.07963">
        <ele>142.8</ele>
        <time>2023-04-10T10:11:27Z</time>
      </trkpt>
      <trkpt lat="48.02562" lon="-3.07961">
        <ele>143</ele>
        <time>2023-04-10T10:11:28Z</time>
      </trkpt>
      <trkpt lat="48.02564" lon="-3.07959">
        <ele>143.2</ele>
        <time>2023-04-10T10:11:29Z</time>
      </trkpt>
      <trkpt lat="48.02566" lon="-3.07958">
        <ele>143.2</ele>
        <time>2023-04-10T10:11:30Z</time>
      </trkpt>
      <trkpt lat="48.02567" lon="-3.07956">
        <ele>143.6</ele>
        <time>2023-04-10T10:11:31Z</time>
      </trkpt>
      <trkpt lat="48.02569" lon="-3.07955">
        <ele>143.6</ele>
        <time>2023-04-10T10:11:32Z</time>
      </trkpt>
      <trkpt lat="48.0257" lon="-3.07953">
        <ele>144</ele>
        <time>2023-04-10T10:11:33Z</time>
      </trkpt>
      <trkpt lat="48.02572" lon="-3.07951">
        <ele>144.2</ele>
        <time>2023-04-10T10:11:34Z</time>
      </trkpt>
      <trkpt lat="48.02574" lon="-3.07949">
        <ele>144.2</ele>
        <time>2023-04-10T10:11:35Z</time>
      </trkpt>
      <trkpt lat="48.02575" lon="-3.07948">
        <ele>144.6</ele>
        <time>2023-04-10T10:11:36Z</time>
      </trkpt>
      <trkpt lat="48.02577" lon="-3.07947">
        <ele>144.8</ele>
        <time>2023-04-10T10:11:37Z</time>
      </trkpt>
      <trkpt lat="48.02579" lon="-3.07946">
        <ele>145</ele>
        <time>2023-04-10T10:11:38Z</time>
      </trkpt>
      <trkpt lat="48.02581" lon="-3.07945">
        <ele>145.2</ele>
        <time>2023-04-10T10:11:39Z</time>
      </trkpt>
      <trkpt lat="48.02583" lon="-3.07943">
        <ele>145.4</ele>
        <time>2023-04-10T10:11:40Z</time>
      </trkpt>
      <trkpt lat="48.02585" lon="-3.07942">
        <ele>145.6</ele>
        <time>2023-04-10T10:11:41Z</time>
      </trkpt>
      <trkpt lat="48.02587" lon="-3.07941">
        <ele>146</ele>
        <time>2023-04-10T10:11:42Z</time>
      </trkpt>
      <trkpt lat="48.02589" lon="-3.0794">
        <ele>146.2</ele>
        <time>2023-04-10T10:11:43Z</time>
      </trkpt>
      <trkpt lat="48.02591" lon="-3.07941">
        <ele>146.2</ele>
        <time>2023-04-10T10:11:44Z</time>
      </trkpt>
      <trkpt lat="48.02592" lon="-3.07942">
        <ele>146.6</ele>
        <time>2023-04-10T10:11:45Z</time>
      </trkpt>
      <trkpt lat="48.02593" lon="-3.07943">
        <ele>146.8</ele>
        <time>2023-04-10T10:11:46Z</time>
      </trkpt>
      <trkpt lat="48.02595" lon="-3.07943">
        <ele>147</ele>
        <time>2023-04-10T10:11:47Z</time>
      </trkpt>
      <trkpt lat="48.02597" lon="-3.07942">
        <ele>147.2</ele>
        <time>2023-04-10T10:11:48Z</time>
      </trkpt>
      <trkpt lat="48.02599" lon="-3.07942">
        <ele>147.6</ele>
        <time>2023-04-10T10:11:49Z</time>
      </trkpt>
      <trkpt lat="48.02599" lon="-3.07942">
        <ele>147.8</ele>
        <time>2023-04-10T10:11:50Z</time>
      </trkpt>
      <trkpt lat="48.026" lon="-3.07941">
        <ele>148</ele>
        <time>2023-04-10T10:11:51Z</time>
      </trkpt>
      <trkpt lat="48.02601" lon="-3.07941">
        <ele>148.2</ele>
        <time>2023-04-10T10:11:52Z</time>
      </trkpt>
      <trkpt lat="48.02603" lon="-3.0794">
        <ele>148.2</ele>
        <time>2023-04-10T10:11:53Z</time>
      </trkpt>
      <trkpt lat="48.02605" lon="-3.0794">
        <ele>148.4</ele>
        <time>2023-04-10T10:11:54Z</time>
      </trkpt>
      <trkpt lat="48.02607" lon="-3.0794">
        <ele>148.6</ele>
        <time>2023-04-10T10:11:55Z</time>
      </trkpt>
      <trkpt lat="48.02609" lon="-3.0794">
        <ele>148.8</ele>
        <time>2023-04-10T10:11:56Z</time>
      </trkpt>
      <trkpt lat="48.02611" lon="-3.0794">
        <ele>149</ele>
        <time>2023-04-10T10:11:57Z</time>
      </trkpt>
      <trkpt lat="48.02612" lon="-3.0794">
        <ele>149.4</ele>
        <time>2023-04-10T10:11:58Z</time>
      </trkpt>
      <trkpt lat="48.02614" lon="-3.0794">
        <ele>149.4</ele>
        <time>2023-04-10T10:11:59Z</time>
      </trkpt>
      <trkpt lat="48.02614" lon="-3.0794">
        <ele>149.8</ele>
        <time>2023-04-10T10:12:00Z</time>
      </trkpt>
      <trkpt lat="48.02616" lon="-3.07939">
        <ele>150</ele>
        <time>2023-04-10T10:12:01Z</time>
      </trkpt>
      <trkpt lat="48.02618" lon="-3.07938">
        <ele>150</ele>
        <time>2023-04-10T10:12:02Z</time>
      </trkpt>
      <trkpt lat="48.02619" lon="-3.07937">
        <ele>150.4</ele>
        <time>2023-04-10T10:12:03Z</time>
      </trkpt>
      <trkpt lat="48.02621" lon="-3.07936">
        <ele>150.6</ele>
        <time>2023-04-10T10:12:04Z</time>
      </trkpt>
      <trkpt lat="48.02624" lon="-3.07935">
        <ele>150.8</ele>
        <time>2023-04-10T10:12:05Z</time>
      </trkpt>
      <trkpt lat="48.02626" lon="-3.07934">
        <ele>151</ele>
        <time>2023-04-10T10:12:06Z</time>
      </trkpt>
      <trkpt lat="48.02629" lon="-3.07934">
        <ele>151.2</ele>
        <time>2023-04-10T10:12:07Z</time>
      </trkpt>
      <trkpt lat="48.02631" lon="-3.07933">
        <ele>151.6</ele>
        <time>2023-04-10T10:12:08Z</time>
      </trkpt>
      <trkpt lat="48.02632" lon="-3.07932">
        <ele>151.8</ele>
        <time>2023-04-10T10:12:09Z</time>
      </trkpt>
      <trkpt lat="48.02633" lon="-3.07931">
        <ele>152.2</ele>
        <time>2023-04-10T10:12:10Z</time>
      </trkpt>
      <trkpt lat="48.02633" lon="-3.07931">
        <ele>152.4</ele>
        <time>2023-04-10T10:12:11Z</time>
      </trkpt>
      <trkpt lat="48.02634" lon="-3.0793">
        <ele>152.6</ele>
        <time>2023-04-10T10:12:12Z</time>
      </trkpt>
      <trkpt lat="48.02635" lon="-3.07929">
        <ele>152.8</ele>
        <time>2023-04-10T10:12:13Z</time>
      </trkpt>
      <trkpt lat="48.02636" lon="-3.07927">
        <ele>153</ele>
        <time>2023-04-10T10:12:14Z</time>
      </trkpt>
      <trkpt lat="48.02638" lon="-3.07926">
        <ele>153</ele>
        <time>2023-04-10T10:12:15Z</time>
      </trkpt>
      <trkpt lat="48.02639" lon="-3.07923">
        <ele>153.2</ele>
        <time>2023-04-10T10:12:16Z</time>
      </trkpt>
      <trkpt lat="48.02639" lon="-3.07921">
        <ele>153.4</ele>
        <time>2023-04-10T10:12:17Z</time>
      </trkpt>
      <trkpt lat="48.02641" lon="-3.07919">
        <ele>153.6</ele>
        <time>2023-04-10T10:12:18Z</time>
      </trkpt>
      <trkpt lat="48.02642" lon="-3.07916">
        <ele>154</ele>
        <time>2023-04-10T10:12:19Z</time>
      </trkpt>
      <trkpt lat="48.02642" lon="-3.07913">
        <ele>154.2</ele>
        <time>2023-04-10T10:12:20Z</time>
      </trkpt>
      <trkpt lat="48.02643" lon="-3.0791">
        <ele>154.2</ele>
        <time>2023-04-10T10:12:21Z</time>
      </trkpt>
      <trkpt lat="48.02643" lon="-3.07908">
        <ele>154.4</ele>
        <time>2023-04-10T10:12:22Z</time>
      </trkpt>
      <trkpt lat="48.02644" lon="-3.07905">
        <ele>154.4</ele>
        <time>2023-04-10T10:12:23Z</time>
      </trkpt>
      <trkpt lat="48.02645" lon="-3.07903">
        <ele>154.6</ele>
        <time>2023-04-10T10:12:24Z</time>
      </trkpt>
      <trkpt lat="48.02645" lon="-3.079">
        <ele>154.8</ele>
        <time>2023-04-10T10:12:25Z</time>
      </trkpt>
      <trkpt lat="48.02646" lon="-3.07898">
        <ele>154.8</ele>
        <time>2023-04-10T10:12:26Z</time>
      </trkpt>
      <trkpt lat="48.02647" lon="-3.07895">
        <ele>155</ele>
        <time>2023-04-10T10:12:27Z</time>
      </trkpt>
      <trkpt lat="48.02648" lon="-3.07893">
        <ele>155.2</ele>
        <time>2023-04-10T10:12:28Z</time>
      </trkpt>
      <trkpt lat="48.02649" lon="-3.0789">
        <ele>155.4</ele>
        <time>2023-04-10T10:12:29Z</time>
      </trkpt>
      <trkpt lat="48.0265" lon="-3.07887">
        <ele>155.6</ele>
        <time>2023-04-10T10:12:30Z</time>
      </trkpt>
      <trkpt lat="48.02651" lon="-3.07884">
        <ele>155.8</ele>
        <time>2023-04-10T10:12:31Z</time>
      </trkpt>
      <trkpt lat="48.02652" lon="-3.07881">
        <ele>156</ele>
        <time>2023-04-10T10:12:32Z</time>
      </trkpt>
      <trkpt lat="48.02653" lon="-3.07876">
        <ele>156.2</ele>
        <time>2023-04-10T10:12:33Z</time>
      </trkpt>
      <trkpt lat="48.02654" lon="-3.07872">
        <ele>156.4</ele>
        <time>2023-04-10T10:12:34Z</time>
      </trkpt>
      <trkpt lat="48.02654" lon="-3.07868">
        <ele>156.6</ele>
        <time>2023-04-10T10:12:35Z</time>
      </trkpt>
      <trkpt lat="48.02655" lon="-3.07863">
        <ele>156.6</ele>
        <time>2023-04-10T10:12:36Z</time>
      </trkpt>
      <trkpt lat="48.02657" lon="-3.07859">
        <ele>156.6</ele>
        <time>2023-04-10T10:12:37Z</time>
      </trkpt>
      <trkpt lat="48.02659" lon="-3.07855">
        <ele>156.8</ele>
        <time>2023-04-10T10:12:38Z</time>
      </trkpt>
      <trkpt lat="48.02661" lon="-3.07852">
        <ele>157</ele>
        <time>2023-04-10T10:12:39Z</time>
      </trkpt>
      <trkpt lat="48.02663" lon="-3.07848">
        <ele>157.2</ele>
        <time>2023-04-10T10:12:40Z</time>
      </trkpt>
      <trkpt lat="48.02665" lon="-3.07844">
        <ele>157.4</ele>
        <time>2023-04-10T10:12:41Z</time>
      </trkpt>
      <trkpt lat="48.02666" lon="-3.0784">
        <ele>157.4</ele>
        <time>2023-04-10T10:12:42Z</time>
      </trkpt>
      <trkpt lat="48.02666" lon="-3.07835">
        <ele>157.6</ele>
        <time>2023-04-10T10:12:43Z</time>
      </trkpt>
      <trkpt lat="48.02667" lon="-3.07831">
        <ele>157.8</ele>
        <time>2023-04-10T10:12:44Z</time>
      </trkpt>
      <trkpt lat="48.02668" lon="-3.07828">
        <ele>157.8</ele>
        <time>2023-04-10T10:12:45Z</time>
      </trkpt>
      <trkpt lat="48.02668" lon="-3.07825">
        <ele>158</ele>
        <time>2023-04-10T10:12:46Z</time>
      </trkpt>
      <trkpt lat="48.02668" lon="-3.07821">
        <ele>158</ele>
        <time>2023-04-10T10:12:47Z</time>
      </trkpt>
      <trkpt lat="48.02668" lon="-3.07816">
        <ele>158</ele>
        <time>2023-04-10T10:12:48Z</time>
      </trkpt>
      <trkpt lat="48.02668" lon="-3.07812">
        <ele>158.2</ele>
        <time>2023-04-10T10:12:49Z</time>
      </trkpt>
      <trkpt lat="48.02667" lon="-3.07808">
        <ele>158.2</ele>
        <time>2023-04-10T10:12:50Z</time>
      </trkpt>
      <trkpt lat="48.02667" lon="-3.07804">
        <ele>158.2</ele>
        <time>2023-04-10T10:12:51Z</time>
      </trkpt>
      <trkpt lat="48.02667" lon="-3.078">
        <ele>158.2</ele>
        <time>2023-04-10T10:12:52Z</time>
      </trkpt>
      <trkpt lat="48.02667" lon="-3.07796">
        <ele>158.4</ele>
        <time>2023-04-10T10:12:53Z</time>
      </trkpt>
      <trkpt lat="48.02667" lon="-3.07793">
        <ele>158.4</ele>
        <time>2023-04-10T10:12:54Z</time>
      </trkpt>
      <trkpt lat="48.02668" lon="-3.0779">
        <ele>158.4</ele>
        <time>2023-04-10T10:12:55Z</time>
      </trkpt>
      <trkpt lat="48.02668" lon="-3.07786">
        <ele>158.4</ele>
        <time>2023-04-10T10:12:56Z</time>
      </trkpt>
      <trkpt lat="48.02668" lon="-3.07782">
        <ele>158.4</ele>
        <time>2023-04-10T10:12:57Z</time>
      </trkpt>
      <trkpt lat="48.02669" lon="-3.07778">
        <ele>158.4</ele>
        <time>2023-04-10T10:12:58Z</time>
      </trkpt>
      <trkpt lat="48.02669" lon="-3.07774">
        <ele>158.4</ele>
        <time>2023-04-10T10:12:59Z</time>
      </trkpt>
      <trkpt lat="48.02669" lon="-3.0777">
        <ele>158.4</ele>
        <time>2023-04-10T10:13:00Z</time>
      </trkpt>
      <trkpt lat="48.02669" lon="-3.07765">
        <ele>158.4</ele>
        <time>2023-04-10T10:13:01Z</time>
      </trkpt>
      <trkpt lat="48.02673" lon="-3.07753">
        <ele>158.6</ele>
        <time>2023-04-10T10:13:04Z</time>
      </trkpt>
      <trkpt lat="48.02675" lon="-3.07749">
        <ele>158.6</ele>
        <time>2023-04-10T10:13:05Z</time>
      </trkpt>
      <trkpt lat="48.02676" lon="-3.07746">
        <ele>158.8</ele>
        <time>2023-04-10T10:13:06Z</time>
      </trkpt>
      <trkpt lat="48.02678" lon="-3.07743">
        <ele>158.8</ele>
        <time>2023-04-10T10:13:07Z</time>
      </trkpt>
      <trkpt lat="48.02679" lon="-3.07739">
        <ele>158.8</ele>
        <time>2023-04-10T10:13:08Z</time>
      </trkpt>
      <trkpt lat="48.02679" lon="-3.07736">
        <ele>159</ele>
        <time>2023-04-10T10:13:09Z</time>
      </trkpt>
      <trkpt lat="48.02679" lon="-3.07733">
        <ele>159</ele>
        <time>2023-04-10T10:13:10Z</time>
      </trkpt>
      <trkpt lat="48.0268" lon="-3.0773">
        <ele>159.2</ele>
        <time>2023-04-10T10:13:11Z</time>
      </trkpt>
      <trkpt lat="48.02681" lon="-3.07728">
        <ele>159.4</ele>
        <time>2023-04-10T10:13:12Z</time>
      </trkpt>
      <trkpt lat="48.02683" lon="-3.07724">
        <ele>159.8</ele>
        <time>2023-04-10T10:13:13Z</time>
      </trkpt>
      <trkpt lat="48.02686" lon="-3.0772">
        <ele>160</ele>
        <time>2023-04-10T10:13:14Z</time>
      </trkpt>
      <trkpt lat="48.02696" lon="-3.07703">
        <ele>160.8</ele>
        <time>2023-04-10T10:13:18Z</time>
      </trkpt>
      <trkpt lat="48.02698" lon="-3.07698">
        <ele>161.2</ele>
        <time>2023-04-10T10:13:19Z</time>
      </trkpt>
      <trkpt lat="48.02701" lon="-3.07693">
        <ele>161.4</ele>
        <time>2023-04-10T10:13:20Z</time>
      </trkpt>
      <trkpt lat="48.02704" lon="-3.07688">
        <ele>161.4</ele>
        <time>2023-04-10T10:13:21Z</time>
      </trkpt>
      <trkpt lat="48.02708" lon="-3.07683">
        <ele>161.6</ele>
        <time>2023-04-10T10:13:22Z</time>
      </trkpt>
      <trkpt lat="48.02711" lon="-3.07678">
        <ele>161.8</ele>
        <time>2023-04-10T10:13:23Z</time>
      </trkpt>
      <trkpt lat="48.02713" lon="-3.07672">
        <ele>161.8</ele>
        <time>2023-04-10T10:13:24Z</time>
      </trkpt>
      <trkpt lat="48.02715" lon="-3.07667">
        <ele>161.8</ele>
        <time>2023-04-10T10:13:25Z</time>
      </trkpt>
      <trkpt lat="48.02719" lon="-3.0766">
        <ele>162</ele>
        <time>2023-04-10T10:13:26Z</time>
      </trkpt>
      <trkpt lat="48.02722" lon="-3.07654">
        <ele>162</ele>
        <time>2023-04-10T10:13:27Z</time>
      </trkpt>
      <trkpt lat="48.02726" lon="-3.07646">
        <ele>162</ele>
        <time>2023-04-10T10:13:28Z</time>
      </trkpt>
      <trkpt lat="48.02731" lon="-3.07639">
        <ele>162</ele>
        <time>2023-04-10T10:13:29Z</time>
      </trkpt>
      <trkpt lat="48.02735" lon="-3.0763">
        <ele>162</ele>
        <time>2023-04-10T10:13:30Z</time>
      </trkpt>
      <trkpt lat="48.0274" lon="-3.07621">
        <ele>162</ele>
        <time>2023-04-10T10:13:31Z</time>
      </trkpt>
      <trkpt lat="48.02745" lon="-3.07611">
        <ele>162</ele>
        <time>2023-04-10T10:13:32Z</time>
      </trkpt>
      <trkpt lat="48.0275" lon="-3.07601">
        <ele>161.8</ele>
        <time>2023-04-10T10:13:33Z</time>
      </trkpt>
      <trkpt lat="48.02756" lon="-3.07591">
        <ele>161.6</ele>
        <time>2023-04-10T10:13:34Z</time>
      </trkpt>
      <trkpt lat="48.02762" lon="-3.0758">
        <ele>161.4</ele>
        <time>2023-04-10T10:13:35Z</time>
      </trkpt>
      <trkpt lat="48.02768" lon="-3.07569">
        <ele>161.2</ele>
        <time>2023-04-10T10:13:36Z</time>
      </trkpt>
      <trkpt lat="48.02774" lon="-3.07557">
        <ele>160.8</ele>
        <time>2023-04-10T10:13:37Z</time>
      </trkpt>
      <trkpt lat="48.02786" lon="-3.07533">
        <ele>159.8</ele>
        <time>2023-04-10T10:13:39Z</time>
      </trkpt>
      <trkpt lat="48.02799" lon="-3.07509">
        <ele>158.6</ele>
        <time>2023-04-10T10:13:41Z</time>
      </trkpt>
      <trkpt lat="48.02819" lon="-3.0747">
        <ele>157.2</ele>
        <time>2023-04-10T10:13:44Z</time>
      </trkpt>
      <trkpt lat="48.02831" lon="-3.07448">
        <ele>155.6</ele>
        <time>2023-04-10T10:13:46Z</time>
      </trkpt>
      <trkpt lat="48.02836" lon="-3.07436">
        <ele>154.8</ele>
        <time>2023-04-10T10:13:47Z</time>
      </trkpt>
      <trkpt lat="48.02842" lon="-3.07424">
        <ele>154.2</ele>
        <time>2023-04-10T10:13:48Z</time>
      </trkpt>
      <trkpt lat="48.02853" lon="-3.074">
        <ele>152.6</ele>
        <time>2023-04-10T10:13:50Z</time>
      </trkpt>
      <trkpt lat="48.02867" lon="-3.0737">
        <ele>151.2</ele>
        <time>2023-04-10T10:13:52Z</time>
      </trkpt>
      <trkpt lat="48.0288" lon="-3.07346">
        <ele>150.4</ele>
        <time>2023-04-10T10:13:54Z</time>
      </trkpt>
      <trkpt lat="48.02887" lon="-3.07333">
        <ele>150</ele>
        <time>2023-04-10T10:13:55Z</time>
      </trkpt>
      <trkpt lat="48.02893" lon="-3.0732">
        <ele>149.4</ele>
        <time>2023-04-10T10:13:56Z</time>
      </trkpt>
      <trkpt lat="48.02895" lon="-3.07309">
        <ele>148.2</ele>
        <time>2023-04-10T10:13:57Z</time>
      </trkpt>
      <trkpt lat="48.02895" lon="-3.07298">
        <ele>147</ele>
        <time>2023-04-10T10:13:58Z</time>
      </trkpt>
      <trkpt lat="48.02895" lon="-3.07287">
        <ele>146.2</ele>
        <time>2023-04-10T10:13:59Z</time>
      </trkpt>
      <trkpt lat="48.02898" lon="-3.07278">
        <ele>144.8</ele>
        <time>2023-04-10T10:14:00Z</time>
      </trkpt>
      <trkpt lat="48.02902" lon="-3.07269">
        <ele>143.6</ele>
        <time>2023-04-10T10:14:01Z</time>
      </trkpt>
      <trkpt lat="48.02907" lon="-3.07263">
        <ele>142.4</ele>
        <time>2023-04-10T10:14:02Z</time>
      </trkpt>
      <trkpt lat="48.02912" lon="-3.07257">
        <ele>141</ele>
        <time>2023-04-10T10:14:03Z</time>
      </trkpt>
      <trkpt lat="48.02917" lon="-3.07252">
        <ele>139.8</ele>
        <time>2023-04-10T10:14:04Z</time>
      </trkpt>
      <trkpt lat="48.02922" lon="-3.07245">
        <ele>139.8</ele>
        <time>2023-04-10T10:14:05Z</time>
      </trkpt>
      <trkpt lat="48.02927" lon="-3.07238">
        <ele>139.2</ele>
        <time>2023-04-10T10:14:06Z</time>
      </trkpt>
      <trkpt lat="48.02931" lon="-3.0723">
        <ele>138.4</ele>
        <time>2023-04-10T10:14:07Z</time>
      </trkpt>
      <trkpt lat="48.02935" lon="-3.07221">
        <ele>137.8</ele>
        <time>2023-04-10T10:14:08Z</time>
      </trkpt>
      <trkpt lat="48.02939" lon="-3.07212">
        <ele>137.4</ele>
        <time>2023-04-10T10:14:09Z</time>
      </trkpt>
      <trkpt lat="48.02941" lon="-3.07203">
        <ele>136.8</ele>
        <time>2023-04-10T10:14:10Z</time>
      </trkpt>
      <trkpt lat="48.02942" lon="-3.07194">
        <ele>136.2</ele>
        <time>2023-04-10T10:14:11Z</time>
      </trkpt>
      <trkpt lat="48.02943" lon="-3.07185">
        <ele>135.8</ele>
        <time>2023-04-10T10:14:12Z</time>
      </trkpt>
      <trkpt lat="48.02942" lon="-3.07176">
        <ele>135.8</ele>
        <time>2023-04-10T10:14:13Z</time>
      </trkpt>
      <trkpt lat="48.02942" lon="-3.07168">
        <ele>135.4</ele>
        <time>2023-04-10T10:14:14Z</time>
      </trkpt>
      <trkpt lat="48.02941" lon="-3.07161">
        <ele>135.2</ele>
        <time>2023-04-10T10:14:15Z</time>
      </trkpt>
      <trkpt lat="48.0294" lon="-3.07154">
        <ele>135</ele>
        <time>2023-04-10T10:14:16Z</time>
      </trkpt>
      <trkpt lat="48.02938" lon="-3.07148">
        <ele>135</ele>
        <time>2023-04-10T10:14:17Z</time>
      </trkpt>
      <trkpt lat="48.02934" lon="-3.07141">
        <ele>134.6</ele>
        <time>2023-04-10T10:14:18Z</time>
      </trkpt>
      <trkpt lat="48.02931" lon="-3.07134">
        <ele>134.6</ele>
        <time>2023-04-10T10:14:19Z</time>
      </trkpt>
      <trkpt lat="48.02926" lon="-3.07127">
        <ele>134.4</ele>
        <time>2023-04-10T10:14:20Z</time>
      </trkpt>
      <trkpt lat="48.02922" lon="-3.07121">
        <ele>134.2</ele>
        <time>2023-04-10T10:14:21Z</time>
      </trkpt>
      <trkpt lat="48.02918" lon="-3.07114">
        <ele>134</ele>
        <time>2023-04-10T10:14:22Z</time>
      </trkpt>
      <trkpt lat="48.02913" lon="-3.071">
        <ele>133.6</ele>
        <time>2023-04-10T10:14:24Z</time>
      </trkpt>
      <trkpt lat="48.02913" lon="-3.07092">
        <ele>133.6</ele>
        <time>2023-04-10T10:14:25Z</time>
      </trkpt>
      <trkpt lat="48.02913" lon="-3.07084">
        <ele>133.4</ele>
        <time>2023-04-10T10:14:26Z</time>
      </trkpt>
      <trkpt lat="48.02913" lon="-3.07076">
        <ele>133.4</ele>
        <time>2023-04-10T10:14:27Z</time>
      </trkpt>
      <trkpt lat="48.02913" lon="-3.07067">
        <ele>133.4</ele>
        <time>2023-04-10T10:14:28Z</time>
      </trkpt>
      <trkpt lat="48.02906" lon="-3.0705">
        <ele>133.2</ele>
        <time>2023-04-10T10:14:30Z</time>
      </trkpt>
      <trkpt lat="48.02903" lon="-3.07042">
        <ele>133.2</ele>
        <time>2023-04-10T10:14:31Z</time>
      </trkpt>
      <trkpt lat="48.02901" lon="-3.07033">
        <ele>133.2</ele>
        <time>2023-04-10T10:14:32Z</time>
      </trkpt>
      <trkpt lat="48.02897" lon="-3.07025">
        <ele>133</ele>
        <time>2023-04-10T10:14:33Z</time>
      </trkpt>
      <trkpt lat="48.02894" lon="-3.07018">
        <ele>133</ele>
        <time>2023-04-10T10:14:34Z</time>
      </trkpt>
      <trkpt lat="48.0289" lon="-3.0701">
        <ele>132.8</ele>
        <time>2023-04-10T10:14:35Z</time>
      </trkpt>
      <trkpt lat="48.02887" lon="-3.07005">
        <ele>132.6</ele>
        <time>2023-04-10T10:14:36Z</time>
      </trkpt>
      <trkpt lat="48.02884" lon="-3.07">
        <ele>132.6</ele>
        <time>2023-04-10T10:14:37Z</time>
      </trkpt>
      <trkpt lat="48.02882" lon="-3.06996">
        <ele>132.4</ele>
        <time>2023-04-10T10:14:38Z</time>
      </trkpt>
      <trkpt lat="48.0288" lon="-3.06993">
        <ele>132.4</ele>
        <time>2023-04-10T10:14:39Z</time>
      </trkpt>
      <trkpt lat="48.0288" lon="-3.06988">
        <ele>132.2</ele>
        <time>2023-04-10T10:14:40Z</time>
      </trkpt>
      <trkpt lat="48.02879" lon="-3.06984">
        <ele>132</ele>
        <time>2023-04-10T10:14:41Z</time>
      </trkpt>
      <trkpt lat="48.0288" lon="-3.0698">
        <ele>131.8</ele>
        <time>2023-04-10T10:14:42Z</time>
      </trkpt>
      <trkpt lat="48.02881" lon="-3.06975">
        <ele>131.6</ele>
        <time>2023-04-10T10:14:43Z</time>
      </trkpt>
      <trkpt lat="48.02882" lon="-3.06969">
        <ele>131.4</ele>
        <time>2023-04-10T10:14:44Z</time>
      </trkpt>
      <trkpt lat="48.02883" lon="-3.06964">
        <ele>131.4</ele>
        <time>2023-04-10T10:14:45Z</time>
      </trkpt>
      <trkpt lat="48.02883" lon="-3.0696">
        <ele>131.2</ele>
        <time>2023-04-10T10:14:46Z</time>
      </trkpt>
      <trkpt lat="48.02883" lon="-3.06956">
        <ele>131.2</ele>
        <time>2023-04-10T10:14:47Z</time>
      </trkpt>
      <trkpt lat="48.02884" lon="-3.06952">
        <ele>131.2</ele>
        <time>2023-04-10T10:14:48Z</time>
      </trkpt>
      <trkpt lat="48.02885" lon="-3.06949">
        <ele>131.2</ele>
        <time>2023-04-10T10:14:49Z</time>
      </trkpt>
      <trkpt lat="48.02886" lon="-3.06946">
        <ele>131.2</ele>
        <time>2023-04-10T10:14:50Z</time>
      </trkpt>
      <trkpt lat="48.02887" lon="-3.06943">
        <ele>131</ele>
        <time>2023-04-10T10:14:51Z</time>
      </trkpt>
      <trkpt lat="48.02888" lon="-3.06942">
        <ele>130.6</ele>
        <time>2023-04-10T10:14:52Z</time>
      </trkpt>
      <trkpt lat="48.02889" lon="-3.06939">
        <ele>130.2</ele>
        <time>2023-04-10T10:14:53Z</time>
      </trkpt>
      <trkpt lat="48.0289" lon="-3.06936">
        <ele>130</ele>
        <time>2023-04-10T10:14:54Z</time>
      </trkpt>
      <trkpt lat="48.0289" lon="-3.06935">
        <ele>129.6</ele>
        <time>2023-04-10T10:14:55Z</time>
      </trkpt>
      <trkpt lat="48.0289" lon="-3.06932">
        <ele>128.8</ele>
        <time>2023-04-10T10:15:01Z</time>
      </trkpt>
      <trkpt lat="48.02891" lon="-3.0693">
        <ele>128.6</ele>
        <time>2023-04-10T10:15:02Z</time>
      </trkpt>
      <trkpt lat="48.02891" lon="-3.06928">
        <ele>128.4</ele>
        <time>2023-04-10T10:15:03Z</time>
      </trkpt>
      <trkpt lat="48.02891" lon="-3.06926">
        <ele>128.4</ele>
        <time>2023-04-10T10:15:05Z</time>
      </trkpt>
      <trkpt lat="48.02892" lon="-3.06924">
        <ele>128.4</ele>
        <time>2023-04-10T10:15:06Z</time>
      </trkpt>
      <trkpt lat="48.02894" lon="-3.06921">
        <ele>128.2</ele>
        <time>2023-04-10T10:15:07Z</time>
      </trkpt>
      <trkpt lat="48.02895" lon="-3.06917">
        <ele>128.2</ele>
        <time>2023-04-10T10:15:08Z</time>
      </trkpt>
      <trkpt lat="48.02895" lon="-3.06913">
        <ele>128.2</ele>
        <time>2023-04-10T10:15:09Z</time>
      </trkpt>
      <trkpt lat="48.02895" lon="-3.06905">
        <ele>128.2</ele>
        <time>2023-04-10T10:15:11Z</time>
      </trkpt>
      <trkpt lat="48.02895" lon="-3.069">
        <ele>128.2</ele>
        <time>2023-04-10T10:15:12Z</time>
      </trkpt>
      <trkpt lat="48.02892" lon="-3.06883">
        <ele>128</ele>
        <time>2023-04-10T10:15:15Z</time>
      </trkpt>
      <trkpt lat="48.02893" lon="-3.06866">
        <ele>127.8</ele>
        <time>2023-04-10T10:15:18Z</time>
      </trkpt>
      <trkpt lat="48.02894" lon="-3.06852">
        <ele>127.8</ele>
        <time>2023-04-10T10:15:20Z</time>
      </trkpt>
      <trkpt lat="48.02894" lon="-3.06841">
        <ele>127.8</ele>
        <time>2023-04-10T10:15:22Z</time>
      </trkpt>
      <trkpt lat="48.02893" lon="-3.06835">
        <ele>127.8</ele>
        <time>2023-04-10T10:15:23Z</time>
      </trkpt>
      <trkpt lat="48.02893" lon="-3.0683">
        <ele>127.8</ele>
        <time>2023-04-10T10:15:24Z</time>
      </trkpt>
      <trkpt lat="48.02892" lon="-3.06825">
        <ele>127.8</ele>
        <time>2023-04-10T10:15:25Z</time>
      </trkpt>
      <trkpt lat="48.02891" lon="-3.0682">
        <ele>127.8</ele>
        <time>2023-04-10T10:15:26Z</time>
      </trkpt>
      <trkpt lat="48.02891" lon="-3.06814">
        <ele>127.8</ele>
        <time>2023-04-10T10:15:27Z</time>
      </trkpt>
      <trkpt lat="48.02891" lon="-3.06809">
        <ele>127.8</ele>
        <time>2023-04-10T10:15:28Z</time>
      </trkpt>
      <trkpt lat="48.02891" lon="-3.06803">
        <ele>127.8</ele>
        <time>2023-04-10T10:15:29Z</time>
      </trkpt>
      <trkpt lat="48.02891" lon="-3.06798">
        <ele>127.8</ele>
        <time>2023-04-10T10:15:30Z</time>
      </trkpt>
      <trkpt lat="48.0289" lon="-3.06794">
        <ele>127.8</ele>
        <time>2023-04-10T10:15:31Z</time>
      </trkpt>
      <trkpt lat="48.0289" lon="-3.06791">
        <ele>127.8</ele>
        <time>2023-04-10T10:15:32Z</time>
      </trkpt>
      <trkpt lat="48.0289" lon="-3.06788">
        <ele>127.8</ele>
        <time>2023-04-10T10:15:33Z</time>
      </trkpt>
      <trkpt lat="48.0289" lon="-3.06788">
        <ele>127.8</ele>
        <time>2023-04-10T10:15:34Z</time>
      </trkpt>
      <trkpt lat="48.0289" lon="-3.06786">
        <ele>127.8</ele>
        <time>2023-04-10T10:15:35Z</time>
      </trkpt>
      <trkpt lat="48.02891" lon="-3.06784">
        <ele>127.6</ele>
        <time>2023-04-10T10:15:36Z</time>
      </trkpt>
      <trkpt lat="48.02892" lon="-3.0678">
        <ele>127.8</ele>
        <time>2023-04-10T10:15:37Z</time>
      </trkpt>
      <trkpt lat="48.02892" lon="-3.06777">
        <ele>127.8</ele>
        <time>2023-04-10T10:15:38Z</time>
      </trkpt>
      <trkpt lat="48.02893" lon="-3.06774">
        <ele>127.8</ele>
        <time>2023-04-10T10:15:39Z</time>
      </trkpt>
      <trkpt lat="48.02893" lon="-3.06772">
        <ele>128</ele>
        <time>2023-04-10T10:15:40Z</time>
      </trkpt>
      <trkpt lat="48.02893" lon="-3.0677">
        <ele>128</ele>
        <time>2023-04-10T10:15:41Z</time>
      </trkpt>
      <trkpt lat="48.02893" lon="-3.06768">
        <ele>128.2</ele>
        <time>2023-04-10T10:15:42Z</time>
      </trkpt>
      <trkpt lat="48.02894" lon="-3.06766">
        <ele>128.2</ele>
        <time>2023-04-10T10:15:43Z</time>
      </trkpt>
      <trkpt lat="48.02893" lon="-3.06764">
        <ele>128.4</ele>
        <time>2023-04-10T10:15:44Z</time>
      </trkpt>
      <trkpt lat="48.02892" lon="-3.06762">
        <ele>128.6</ele>
        <time>2023-04-10T10:15:45Z</time>
      </trkpt>
      <trkpt lat="48.0289" lon="-3.06761">
        <ele>128.8</ele>
        <time>2023-04-10T10:15:46Z</time>
      </trkpt>
      <trkpt lat="48.02888" lon="-3.06759">
        <ele>129</ele>
        <time>2023-04-10T10:15:47Z</time>
      </trkpt>
      <trkpt lat="48.02885" lon="-3.06757">
        <ele>129.2</ele>
        <time>2023-04-10T10:15:48Z</time>
      </trkpt>
      <trkpt lat="48.02882" lon="-3.06754">
        <ele>129.4</ele>
        <time>2023-04-10T10:15:49Z</time>
      </trkpt>
      <trkpt lat="48.0288" lon="-3.06751">
        <ele>129.6</ele>
        <time>2023-04-10T10:15:50Z</time>
      </trkpt>
      <trkpt lat="48.02878" lon="-3.06748">
        <ele>130.2</ele>
        <time>2023-04-10T10:15:53Z</time>
      </trkpt>
      <trkpt lat="48.02877" lon="-3.06748">
        <ele>130.4</ele>
        <time>2023-04-10T10:15:54Z</time>
      </trkpt>
      <trkpt lat="48.02876" lon="-3.06746">
        <ele>130.8</ele>
        <time>2023-04-10T10:15:56Z</time>
      </trkpt>
      <trkpt lat="48.02875" lon="-3.06746">
        <ele>131</ele>
        <time>2023-04-10T10:15:58Z</time>
      </trkpt>
      <trkpt lat="48.02874" lon="-3.06746">
        <ele>131.4</ele>
        <time>2023-04-10T10:15:59Z</time>
      </trkpt>
      <trkpt lat="48.02872" lon="-3.06745">
        <ele>131.6</ele>
        <time>2023-04-10T10:16:00Z</time>
      </trkpt>
      <trkpt lat="48.02872" lon="-3.06745">
        <ele>131.8</ele>
        <time>2023-04-10T10:16:01Z</time>
      </trkpt>
      <trkpt lat="48.02871" lon="-3.06745">
        <ele>132</ele>
        <time>2023-04-10T10:16:02Z</time>
      </trkpt>
      <trkpt lat="48.02869" lon="-3.06745">
        <ele>132.2</ele>
        <time>2023-04-10T10:16:03Z</time>
      </trkpt>
      <trkpt lat="48.02866" lon="-3.06745">
        <ele>132.2</ele>
        <time>2023-04-10T10:16:04Z</time>
      </trkpt>
      <trkpt lat="48.02864" lon="-3.06745">
        <ele>132.4</ele>
        <time>2023-04-10T10:16:05Z</time>
      </trkpt>
      <trkpt lat="48.02862" lon="-3.06744">
        <ele>132.6</ele>
        <time>2023-04-10T10:16:06Z</time>
      </trkpt>
      <trkpt lat="48.0286" lon="-3.06744">
        <ele>132.8</ele>
        <time>2023-04-10T10:16:07Z</time>
      </trkpt>
      <trkpt lat="48.02858" lon="-3.06744">
        <ele>133</ele>
        <time>2023-04-10T10:16:08Z</time>
      </trkpt>
      <trkpt lat="48.02856" lon="-3.06743">
        <ele>133.2</ele>
        <time>2023-04-10T10:16:09Z</time>
      </trkpt>
      <trkpt lat="48.02853" lon="-3.06743">
        <ele>133.4</ele>
        <time>2023-04-10T10:16:10Z</time>
      </trkpt>
      <trkpt lat="48.02851" lon="-3.06742">
        <ele>133.6</ele>
        <time>2023-04-10T10:16:11Z</time>
      </trkpt>
      <trkpt lat="48.0285" lon="-3.0674">
        <ele>133.8</ele>
        <time>2023-04-10T10:16:12Z</time>
      </trkpt>
      <trkpt lat="48.02849" lon="-3.0674">
        <ele>133.8</ele>
        <time>2023-04-10T10:16:13Z</time>
      </trkpt>
      <trkpt lat="48.02848" lon="-3.06738">
        <ele>134.2</ele>
        <time>2023-04-10T10:16:14Z</time>
      </trkpt>
      <trkpt lat="48.02846" lon="-3.06738">
        <ele>134.4</ele>
        <time>2023-04-10T10:16:15Z</time>
      </trkpt>
      <trkpt lat="48.02844" lon="-3.06737">
        <ele>134.6</ele>
        <time>2023-04-10T10:16:16Z</time>
      </trkpt>
      <trkpt lat="48.02839" lon="-3.06736">
        <ele>135</ele>
        <time>2023-04-10T10:16:17Z</time>
      </trkpt>
      <trkpt lat="48.02836" lon="-3.06735">
        <ele>135.2</ele>
        <time>2023-04-10T10:16:18Z</time>
      </trkpt>
      <trkpt lat="48.02827" lon="-3.06734">
        <ele>135.2</ele>
        <time>2023-04-10T10:16:19Z</time>
      </trkpt>
      <trkpt lat="48.02823" lon="-3.06734">
        <ele>135.2</ele>
        <time>2023-04-10T10:16:20Z</time>
      </trkpt>
      <trkpt lat="48.02819" lon="-3.06732">
        <ele>135.2</ele>
        <time>2023-04-10T10:16:21Z</time>
      </trkpt>
      <trkpt lat="48.02818" lon="-3.06728">
        <ele>135.4</ele>
        <time>2023-04-10T10:16:22Z</time>
      </trkpt>
      <trkpt lat="48.02818" lon="-3.06726">
        <ele>135.4</ele>
        <time>2023-04-10T10:16:23Z</time>
      </trkpt>
      <trkpt lat="48.0282" lon="-3.06725">
        <ele>135.4</ele>
        <time>2023-04-10T10:16:24Z</time>
      </trkpt>
      <trkpt lat="48.02822" lon="-3.06725">
        <ele>135.6</ele>
        <time>2023-04-10T10:16:25Z</time>
      </trkpt>
      <trkpt lat="48.02823" lon="-3.06725">
        <ele>135.6</ele>
        <time>2023-04-10T10:16:26Z</time>
      </trkpt>
      <trkpt lat="48.02825" lon="-3.06725">
        <ele>135.6</ele>
        <time>2023-04-10T10:16:27Z</time>
      </trkpt>
      <trkpt lat="48.02827" lon="-3.06724">
        <ele>135.8</ele>
        <time>2023-04-10T10:16:28Z</time>
      </trkpt>
      <trkpt lat="48.02829" lon="-3.06724">
        <ele>135.8</ele>
        <time>2023-04-10T10:16:29Z</time>
      </trkpt>
      <trkpt lat="48.02831" lon="-3.06724">
        <ele>135.8</ele>
        <time>2023-04-10T10:16:30Z</time>
      </trkpt>
      <trkpt lat="48.02833" lon="-3.06724">
        <ele>136</ele>
        <time>2023-04-10T10:16:31Z</time>
      </trkpt>
      <trkpt lat="48.02835" lon="-3.06724">
        <ele>136.2</ele>
        <time>2023-04-10T10:16:32Z</time>
      </trkpt>
      <trkpt lat="48.02837" lon="-3.06723">
        <ele>136.4</ele>
        <time>2023-04-10T10:16:33Z</time>
      </trkpt>
      <trkpt lat="48.02838" lon="-3.06721">
        <ele>136.4</ele>
        <time>2023-04-10T10:16:34Z</time>
      </trkpt>
      <trkpt lat="48.0284" lon="-3.06721">
        <ele>136.6</ele>
        <time>2023-04-10T10:16:35Z</time>
      </trkpt>
      <trkpt lat="48.02841" lon="-3.06721">
        <ele>136.8</ele>
        <time>2023-04-10T10:16:36Z</time>
      </trkpt>
      <trkpt lat="48.02843" lon="-3.0672">
        <ele>136.8</ele>
        <time>2023-04-10T10:16:37Z</time>
      </trkpt>
      <trkpt lat="48.02844" lon="-3.0672">
        <ele>137</ele>
        <time>2023-04-10T10:16:38Z</time>
      </trkpt>
      <trkpt lat="48.02845" lon="-3.0672">
        <ele>137.2</ele>
        <time>2023-04-10T10:16:39Z</time>
      </trkpt>
      <trkpt lat="48.02846" lon="-3.06719">
        <ele>137.4</ele>
        <time>2023-04-10T10:16:40Z</time>
      </trkpt>
      <trkpt lat="48.02847" lon="-3.06718">
        <ele>137.4</ele>
        <time>2023-04-10T10:16:41Z</time>
      </trkpt>
      <trkpt lat="48.02848" lon="-3.06717">
        <ele>137.4</ele>
        <time>2023-04-10T10:16:42Z</time>
      </trkpt>
      <trkpt lat="48.02849" lon="-3.06716">
        <ele>137.6</ele>
        <time>2023-04-10T10:16:43Z</time>
      </trkpt>
      <trkpt lat="48.02851" lon="-3.06715">
        <ele>137.6</ele>
        <time>2023-04-10T10:16:44Z</time>
      </trkpt>
      <trkpt lat="48.02852" lon="-3.06715">
        <ele>138</ele>
        <time>2023-04-10T10:16:45Z</time>
      </trkpt>
      <trkpt lat="48.02854" lon="-3.06713">
        <ele>138</ele>
        <time>2023-04-10T10:16:46Z</time>
      </trkpt>
      <trkpt lat="48.02855" lon="-3.06712">
        <ele>138.2</ele>
        <time>2023-04-10T10:16:47Z</time>
      </trkpt>
      <trkpt lat="48.02857" lon="-3.06711">
        <ele>138.4</ele>
        <time>2023-04-10T10:16:48Z</time>
      </trkpt>
      <trkpt lat="48.02859" lon="-3.0671">
        <ele>138.4</ele>
        <time>2023-04-10T10:16:49Z</time>
      </trkpt>
      <trkpt lat="48.02861" lon="-3.06709">
        <ele>138.6</ele>
        <time>2023-04-10T10:16:50Z</time>
      </trkpt>
      <trkpt lat="48.02862" lon="-3.06707">
        <ele>139</ele>
        <time>2023-04-10T10:16:51Z</time>
      </trkpt>
      <trkpt lat="48.02864" lon="-3.06706">
        <ele>139.2</ele>
        <time>2023-04-10T10:16:52Z</time>
      </trkpt>
      <trkpt lat="48.02865" lon="-3.06705">
        <ele>139.4</ele>
        <time>2023-04-10T10:16:53Z</time>
      </trkpt>
      <trkpt lat="48.02868" lon="-3.06704">
        <ele>139.6</ele>
        <time>2023-04-10T10:16:54Z</time>
      </trkpt>
      <trkpt lat="48.02869" lon="-3.06702">
        <ele>139.8</ele>
        <time>2023-04-10T10:16:55Z</time>
      </trkpt>
      <trkpt lat="48.02871" lon="-3.067">
        <ele>140</ele>
        <time>2023-04-10T10:16:56Z</time>
      </trkpt>
      <trkpt lat="48.02872" lon="-3.06698">
        <ele>140</ele>
        <time>2023-04-10T10:16:57Z</time>
      </trkpt>
      <trkpt lat="48.02874" lon="-3.06695">
        <ele>140.4</ele>
        <time>2023-04-10T10:16:58Z</time>
      </trkpt>
      <trkpt lat="48.02877" lon="-3.06693">
        <ele>140.4</ele>
        <time>2023-04-10T10:16:59Z</time>
      </trkpt>
      <trkpt lat="48.02879" lon="-3.0669">
        <ele>140.8</ele>
        <time>2023-04-10T10:17:00Z</time>
      </trkpt>
      <trkpt lat="48.02882" lon="-3.06687">
        <ele>140.8</ele>
        <time>2023-04-10T10:17:01Z</time>
      </trkpt>
      <trkpt lat="48.02885" lon="-3.06684">
        <ele>141</ele>
        <time>2023-04-10T10:17:02Z</time>
      </trkpt>
      <trkpt lat="48.02888" lon="-3.06681">
        <ele>141.2</ele>
        <time>2023-04-10T10:17:03Z</time>
      </trkpt>
      <trkpt lat="48.02889" lon="-3.06678">
        <ele>141.2</ele>
        <time>2023-04-10T10:17:04Z</time>
      </trkpt>
      <trkpt lat="48.0289" lon="-3.06675">
        <ele>141.4</ele>
        <time>2023-04-10T10:17:05Z</time>
      </trkpt>
      <trkpt lat="48.0289" lon="-3.06672">
        <ele>141.6</ele>
        <time>2023-04-10T10:17:06Z</time>
      </trkpt>
      <trkpt lat="48.02891" lon="-3.06667">
        <ele>141.8</ele>
        <time>2023-04-10T10:17:07Z</time>
      </trkpt>
      <trkpt lat="48.02893" lon="-3.06663">
        <ele>141.8</ele>
        <time>2023-04-10T10:17:08Z</time>
      </trkpt>
      <trkpt lat="48.02895" lon="-3.06661">
        <ele>142</ele>
        <time>2023-04-10T10:17:09Z</time>
      </trkpt>
      <trkpt lat="48.02897" lon="-3.06659">
        <ele>142.4</ele>
        <time>2023-04-10T10:17:10Z</time>
      </trkpt>
      <trkpt lat="48.02898" lon="-3.06657">
        <ele>142.4</ele>
        <time>2023-04-10T10:17:11Z</time>
      </trkpt>
      <trkpt lat="48.02898" lon="-3.06656">
        <ele>142.8</ele>
        <time>2023-04-10T10:17:12Z</time>
      </trkpt>
      <trkpt lat="48.02899" lon="-3.06656">
        <ele>143</ele>
        <time>2023-04-10T10:17:13Z</time>
      </trkpt>
      <trkpt lat="48.029" lon="-3.06654">
        <ele>143.4</ele>
        <time>2023-04-10T10:17:14Z</time>
      </trkpt>
      <trkpt lat="48.02902" lon="-3.06653">
        <ele>143.4</ele>
        <time>2023-04-10T10:17:15Z</time>
      </trkpt>
      <trkpt lat="48.02904" lon="-3.06651">
        <ele>143.8</ele>
        <time>2023-04-10T10:17:16Z</time>
      </trkpt>
      <trkpt lat="48.02905" lon="-3.06649">
        <ele>144</ele>
        <time>2023-04-10T10:17:17Z</time>
      </trkpt>
      <trkpt lat="48.02907" lon="-3.06648">
        <ele>144.2</ele>
        <time>2023-04-10T10:17:18Z</time>
      </trkpt>
      <trkpt lat="48.02909" lon="-3.06646">
        <ele>144.4</ele>
        <time>2023-04-10T10:17:19Z</time>
      </trkpt>
      <trkpt lat="48.02912" lon="-3.06644">
        <ele>144.6</ele>
        <time>2023-04-10T10:17:20Z</time>
      </trkpt>
      <trkpt lat="48.02915" lon="-3.06642">
        <ele>144.8</ele>
        <time>2023-04-10T10:17:21Z</time>
      </trkpt>
      <trkpt lat="48.02918" lon="-3.06639">
        <ele>144.8</ele>
        <time>2023-04-10T10:17:22Z</time>
      </trkpt>
      <trkpt lat="48.02922" lon="-3.06637">
        <ele>144.8</ele>
        <time>2023-04-10T10:17:23Z</time>
      </trkpt>
      <trkpt lat="48.02925" lon="-3.06634">
        <ele>144.8</ele>
        <time>2023-04-10T10:17:24Z</time>
      </trkpt>
      <trkpt lat="48.02928" lon="-3.06632">
        <ele>144.8</ele>
        <time>2023-04-10T10:17:25Z</time>
      </trkpt>
      <trkpt lat="48.0293" lon="-3.0663">
        <ele>144.8</ele>
        <time>2023-04-10T10:17:26Z</time>
      </trkpt>
      <trkpt lat="48.02934" lon="-3.06627">
        <ele>145</ele>
        <time>2023-04-10T10:17:27Z</time>
      </trkpt>
      <trkpt lat="48.02937" lon="-3.06625">
        <ele>145</ele>
        <time>2023-04-10T10:17:28Z</time>
      </trkpt>
      <trkpt lat="48.02939" lon="-3.06623">
        <ele>145</ele>
        <time>2023-04-10T10:17:29Z</time>
      </trkpt>
      <trkpt lat="48.02945" lon="-3.06621">
        <ele>145</ele>
        <time>2023-04-10T10:17:30Z</time>
      </trkpt>
      <trkpt lat="48.02949" lon="-3.06619">
        <ele>144.8</ele>
        <time>2023-04-10T10:17:31Z</time>
      </trkpt>
      <trkpt lat="48.02951" lon="-3.06617">
        <ele>144.8</ele>
        <time>2023-04-10T10:17:32Z</time>
      </trkpt>
      <trkpt lat="48.02954" lon="-3.06614">
        <ele>145</ele>
        <time>2023-04-10T10:17:33Z</time>
      </trkpt>
      <trkpt lat="48.02957" lon="-3.06611">
        <ele>145</ele>
        <time>2023-04-10T10:17:34Z</time>
      </trkpt>
      <trkpt lat="48.02958" lon="-3.06609">
        <ele>145</ele>
        <time>2023-04-10T10:17:35Z</time>
      </trkpt>
      <trkpt lat="48.02961" lon="-3.06606">
        <ele>145</ele>
        <time>2023-04-10T10:17:36Z</time>
      </trkpt>
      <trkpt lat="48.02963" lon="-3.06604">
        <ele>145.2</ele>
        <time>2023-04-10T10:17:37Z</time>
      </trkpt>
      <trkpt lat="48.02965" lon="-3.06603">
        <ele>145.2</ele>
        <time>2023-04-10T10:17:38Z</time>
      </trkpt>
      <trkpt lat="48.02968" lon="-3.066">
        <ele>145</ele>
        <time>2023-04-10T10:17:39Z</time>
      </trkpt>
      <trkpt lat="48.02971" lon="-3.06598">
        <ele>145.2</ele>
        <time>2023-04-10T10:17:40Z</time>
      </trkpt>
      <trkpt lat="48.02973" lon="-3.06596">
        <ele>145.2</ele>
        <time>2023-04-10T10:17:41Z</time>
      </trkpt>
      <trkpt lat="48.02974" lon="-3.06594">
        <ele>145.2</ele>
        <time>2023-04-10T10:17:42Z</time>
      </trkpt>
      <trkpt lat="48.02976" lon="-3.06593">
        <ele>145.2</ele>
        <time>2023-04-10T10:17:43Z</time>
      </trkpt>
      <trkpt lat="48.0298" lon="-3.0659">
        <ele>145.6</ele>
        <time>2023-04-10T10:17:45Z</time>
      </trkpt>
      <trkpt lat="48.02995" lon="-3.06575">
        <ele>146.4</ele>
        <time>2023-04-10T10:17:52Z</time>
      </trkpt>
      <trkpt lat="48.02995" lon="-3.06573">
        <ele>146.4</ele>
        <time>2023-04-10T10:17:53Z</time>
      </trkpt>
      <trkpt lat="48.02996" lon="-3.06571">
        <ele>146.6</ele>
        <time>2023-04-10T10:17:54Z</time>
      </trkpt>
      <trkpt lat="48.02998" lon="-3.06568">
        <ele>146.8</ele>
        <time>2023-04-10T10:17:55Z</time>
      </trkpt>
      <trkpt lat="48.03002" lon="-3.06563">
        <ele>147</ele>
        <time>2023-04-10T10:17:56Z</time>
      </trkpt>
      <trkpt lat="48.03007" lon="-3.06553">
        <ele>147.4</ele>
        <time>2023-04-10T10:17:59Z</time>
      </trkpt>
      <trkpt lat="48.03014" lon="-3.06541">
        <ele>147.6</ele>
        <time>2023-04-10T10:18:02Z</time>
      </trkpt>
      <trkpt lat="48.03017" lon="-3.06538">
        <ele>147.8</ele>
        <time>2023-04-10T10:18:03Z</time>
      </trkpt>
      <trkpt lat="48.03018" lon="-3.06535">
        <ele>147.8</ele>
        <time>2023-04-10T10:18:04Z</time>
      </trkpt>
      <trkpt lat="48.03019" lon="-3.06531">
        <ele>147.8</ele>
        <time>2023-04-10T10:18:05Z</time>
      </trkpt>
      <trkpt lat="48.03021" lon="-3.06524">
        <ele>147.8</ele>
        <time>2023-04-10T10:18:06Z</time>
      </trkpt>
      <trkpt lat="48.03022" lon="-3.06521">
        <ele>147.8</ele>
        <time>2023-04-10T10:18:07Z</time>
      </trkpt>
      <trkpt lat="48.03024" lon="-3.06516">
        <ele>147.8</ele>
        <time>2023-04-10T10:18:08Z</time>
      </trkpt>
      <trkpt lat="48.03024" lon="-3.0651">
        <ele>147.8</ele>
        <time>2023-04-10T10:18:09Z</time>
      </trkpt>
      <trkpt lat="48.03025" lon="-3.06507">
        <ele>147.8</ele>
        <time>2023-04-10T10:18:10Z</time>
      </trkpt>
      <trkpt lat="48.03025" lon="-3.06503">
        <ele>147.8</ele>
        <time>2023-04-10T10:18:11Z</time>
      </trkpt>
      <trkpt lat="48.03026" lon="-3.065">
        <ele>148</ele>
        <time>2023-04-10T10:18:12Z</time>
      </trkpt>
      <trkpt lat="48.03027" lon="-3.06497">
        <ele>148</ele>
        <time>2023-04-10T10:18:13Z</time>
      </trkpt>
      <trkpt lat="48.03026" lon="-3.06492">
        <ele>148</ele>
        <time>2023-04-10T10:18:14Z</time>
      </trkpt>
      <trkpt lat="48.03025" lon="-3.06488">
        <ele>148.2</ele>
        <time>2023-04-10T10:18:15Z</time>
      </trkpt>
      <trkpt lat="48.03024" lon="-3.06484">
        <ele>148.2</ele>
        <time>2023-04-10T10:18:16Z</time>
      </trkpt>
      <trkpt lat="48.03021" lon="-3.0648">
        <ele>148.2</ele>
        <time>2023-04-10T10:18:17Z</time>
      </trkpt>
      <trkpt lat="48.03019" lon="-3.06477">
        <ele>148.6</ele>
        <time>2023-04-10T10:18:18Z</time>
      </trkpt>
      <trkpt lat="48.03018" lon="-3.06473">
        <ele>148.8</ele>
        <time>2023-04-10T10:18:19Z</time>
      </trkpt>
      <trkpt lat="48.03017" lon="-3.06469">
        <ele>149</ele>
        <time>2023-04-10T10:18:20Z</time>
      </trkpt>
      <trkpt lat="48.03017" lon="-3.06465">
        <ele>149.2</ele>
        <time>2023-04-10T10:18:21Z</time>
      </trkpt>
      <trkpt lat="48.03015" lon="-3.06462">
        <ele>149.4</ele>
        <time>2023-04-10T10:18:22Z</time>
      </trkpt>
      <trkpt lat="48.03016" lon="-3.0646">
        <ele>149.6</ele>
        <time>2023-04-10T10:18:23Z</time>
      </trkpt>
      <trkpt lat="48.03017" lon="-3.06455">
        <ele>150.2</ele>
        <time>2023-04-10T10:18:25Z</time>
      </trkpt>
      <trkpt lat="48.03017" lon="-3.06453">
        <ele>150.4</ele>
        <time>2023-04-10T10:18:26Z</time>
      </trkpt>
      <trkpt lat="48.03017" lon="-3.0645">
        <ele>150.6</ele>
        <time>2023-04-10T10:18:27Z</time>
      </trkpt>
      <trkpt lat="48.03016" lon="-3.06446">
        <ele>150.8</ele>
        <time>2023-04-10T10:18:28Z</time>
      </trkpt>
      <trkpt lat="48.03016" lon="-3.06443">
        <ele>151</ele>
        <time>2023-04-10T10:18:29Z</time>
      </trkpt>
      <trkpt lat="48.03014" lon="-3.06439">
        <ele>151</ele>
        <time>2023-04-10T10:18:30Z</time>
      </trkpt>
      <trkpt lat="48.03013" lon="-3.06435">
        <ele>151.4</ele>
        <time>2023-04-10T10:18:31Z</time>
      </trkpt>
      <trkpt lat="48.03013" lon="-3.06432">
        <ele>151.4</ele>
        <time>2023-04-10T10:18:32Z</time>
      </trkpt>
      <trkpt lat="48.0301" lon="-3.06429">
        <ele>151.6</ele>
        <time>2023-04-10T10:18:33Z</time>
      </trkpt>
      <trkpt lat="48.03008" lon="-3.06426">
        <ele>151.8</ele>
        <time>2023-04-10T10:18:34Z</time>
      </trkpt>
      <trkpt lat="48.03008" lon="-3.06422">
        <ele>152.2</ele>
        <time>2023-04-10T10:18:35Z</time>
      </trkpt>
      <trkpt lat="48.03006" lon="-3.06419">
        <ele>152.4</ele>
        <time>2023-04-10T10:18:36Z</time>
      </trkpt>
      <trkpt lat="48.03005" lon="-3.06416">
        <ele>152.6</ele>
        <time>2023-04-10T10:18:37Z</time>
      </trkpt>
      <trkpt lat="48.03004" lon="-3.06415">
        <ele>152.8</ele>
        <time>2023-04-10T10:18:38Z</time>
      </trkpt>
      <trkpt lat="48.03004" lon="-3.06413">
        <ele>153.2</ele>
        <time>2023-04-10T10:18:39Z</time>
      </trkpt>
      <trkpt lat="48.03002" lon="-3.06412">
        <ele>153.4</ele>
        <time>2023-04-10T10:18:40Z</time>
      </trkpt>
      <trkpt lat="48.03002" lon="-3.0641">
        <ele>153.6</ele>
        <time>2023-04-10T10:18:41Z</time>
      </trkpt>
      <trkpt lat="48.03002" lon="-3.06408">
        <ele>154</ele>
        <time>2023-04-10T10:18:42Z</time>
      </trkpt>
      <trkpt lat="48.03" lon="-3.06407">
        <ele>154.2</ele>
        <time>2023-04-10T10:18:43Z</time>
      </trkpt>
      <trkpt lat="48.02997" lon="-3.06405">
        <ele>154.4</ele>
        <time>2023-04-10T10:18:44Z</time>
      </trkpt>
      <trkpt lat="48.02993" lon="-3.06403">
        <ele>154.6</ele>
        <time>2023-04-10T10:18:45Z</time>
      </trkpt>
      <trkpt lat="48.02992" lon="-3.064">
        <ele>155</ele>
        <time>2023-04-10T10:18:46Z</time>
      </trkpt>
      <trkpt lat="48.02991" lon="-3.06398">
        <ele>155.2</ele>
        <time>2023-04-10T10:18:47Z</time>
      </trkpt>
      <trkpt lat="48.0299" lon="-3.06396">
        <ele>155.6</ele>
        <time>2023-04-10T10:18:48Z</time>
      </trkpt>
      <trkpt lat="48.02989" lon="-3.06393">
        <ele>155.8</ele>
        <time>2023-04-10T10:18:49Z</time>
      </trkpt>
      <trkpt lat="48.02988" lon="-3.06391">
        <ele>156.2</ele>
        <time>2023-04-10T10:18:50Z</time>
      </trkpt>
      <trkpt lat="48.02988" lon="-3.06389">
        <ele>156.4</ele>
        <time>2023-04-10T10:18:51Z</time>
      </trkpt>
      <trkpt lat="48.02987" lon="-3.06387">
        <ele>156.8</ele>
        <time>2023-04-10T10:18:52Z</time>
      </trkpt>
      <trkpt lat="48.02986" lon="-3.06385">
        <ele>157.4</ele>
        <time>2023-04-10T10:18:53Z</time>
      </trkpt>
      <trkpt lat="48.02985" lon="-3.06382">
        <ele>157.4</ele>
        <time>2023-04-10T10:18:54Z</time>
      </trkpt>
      <trkpt lat="48.02984" lon="-3.0638">
        <ele>157.6</ele>
        <time>2023-04-10T10:18:55Z</time>
      </trkpt>
      <trkpt lat="48.02983" lon="-3.06378">
        <ele>158.2</ele>
        <time>2023-04-10T10:18:56Z</time>
      </trkpt>
      <trkpt lat="48.02982" lon="-3.06376">
        <ele>158.4</ele>
        <time>2023-04-10T10:18:57Z</time>
      </trkpt>
      <trkpt lat="48.02981" lon="-3.06375">
        <ele>158.8</ele>
        <time>2023-04-10T10:18:58Z</time>
      </trkpt>
      <trkpt lat="48.02979" lon="-3.06374">
        <ele>159</ele>
        <time>2023-04-10T10:18:59Z</time>
      </trkpt>
      <trkpt lat="48.02978" lon="-3.06372">
        <ele>159.4</ele>
        <time>2023-04-10T10:19:00Z</time>
      </trkpt>
      <trkpt lat="48.02977" lon="-3.0637">
        <ele>160</ele>
        <time>2023-04-10T10:19:01Z</time>
      </trkpt>
      <trkpt lat="48.02975" lon="-3.06369">
        <ele>160.2</ele>
        <time>2023-04-10T10:19:02Z</time>
      </trkpt>
      <trkpt lat="48.02974" lon="-3.06368">
        <ele>160.6</ele>
        <time>2023-04-10T10:19:03Z</time>
      </trkpt>
      <trkpt lat="48.02972" lon="-3.06366">
        <ele>160.8</ele>
        <time>2023-04-10T10:19:04Z</time>
      </trkpt>
      <trkpt lat="48.02971" lon="-3.06364">
        <ele>161</ele>
        <time>2023-04-10T10:19:05Z</time>
      </trkpt>
      <trkpt lat="48.0297" lon="-3.06363">
        <ele>161.4</ele>
        <time>2023-04-10T10:19:06Z</time>
      </trkpt>
      <trkpt lat="48.02969" lon="-3.06361">
        <ele>161.6</ele>
        <time>2023-04-10T10:19:07Z</time>
      </trkpt>
      <trkpt lat="48.02968" lon="-3.06359">
        <ele>162</ele>
        <time>2023-04-10T10:19:08Z</time>
      </trkpt>
      <trkpt lat="48.02967" lon="-3.06358">
        <ele>162.2</ele>
        <time>2023-04-10T10:19:09Z</time>
      </trkpt>
      <trkpt lat="48.02966" lon="-3.06356">
        <ele>162.4</ele>
        <time>2023-04-10T10:19:10Z</time>
      </trkpt>
      <trkpt lat="48.02965" lon="-3.06355">
        <ele>162.8</ele>
        <time>2023-04-10T10:19:11Z</time>
      </trkpt>
      <trkpt lat="48.02963" lon="-3.06353">
        <ele>163.2</ele>
        <time>2023-04-10T10:19:12Z</time>
      </trkpt>
      <trkpt lat="48.02962" lon="-3.06352">
        <ele>163.6</ele>
        <time>2023-04-10T10:19:13Z</time>
      </trkpt>
      <trkpt lat="48.0296" lon="-3.06351">
        <ele>163.8</ele>
        <time>2023-04-10T10:19:14Z</time>
      </trkpt>
      <trkpt lat="48.02959" lon="-3.0635">
        <ele>164.2</ele>
        <time>2023-04-10T10:19:15Z</time>
      </trkpt>
      <trkpt lat="48.02957" lon="-3.06349">
        <ele>164.2</ele>
        <time>2023-04-10T10:19:16Z</time>
      </trkpt>
      <trkpt lat="48.02956" lon="-3.06349">
        <ele>164.4</ele>
        <time>2023-04-10T10:19:17Z</time>
      </trkpt>
      <trkpt lat="48.02955" lon="-3.06349">
        <ele>164.8</ele>
        <time>2023-04-10T10:19:18Z</time>
      </trkpt>
      <trkpt lat="48.02953" lon="-3.06349">
        <ele>165</ele>
        <time>2023-04-10T10:19:19Z</time>
      </trkpt>
      <trkpt lat="48.02952" lon="-3.06349">
        <ele>165.4</ele>
        <time>2023-04-10T10:19:20Z</time>
      </trkpt>
      <trkpt lat="48.02951" lon="-3.06351">
        <ele>165.6</ele>
        <time>2023-04-10T10:19:21Z</time>
      </trkpt>
      <trkpt lat="48.0295" lon="-3.06352">
        <ele>166</ele>
        <time>2023-04-10T10:19:22Z</time>
      </trkpt>
      <trkpt lat="48.02949" lon="-3.06353">
        <ele>166.4</ele>
        <time>2023-04-10T10:19:23Z</time>
      </trkpt>
      <trkpt lat="48.02947" lon="-3.06354">
        <ele>166.8</ele>
        <time>2023-04-10T10:19:24Z</time>
      </trkpt>
      <trkpt lat="48.02946" lon="-3.06354">
        <ele>167.2</ele>
        <time>2023-04-10T10:19:25Z</time>
      </trkpt>
      <trkpt lat="48.02944" lon="-3.06355">
        <ele>167.6</ele>
        <time>2023-04-10T10:19:26Z</time>
      </trkpt>
      <trkpt lat="48.02943" lon="-3.06356">
        <ele>168</ele>
        <time>2023-04-10T10:19:27Z</time>
      </trkpt>
      <trkpt lat="48.02942" lon="-3.06356">
        <ele>168.2</ele>
        <time>2023-04-10T10:19:28Z</time>
      </trkpt>
      <trkpt lat="48.02941" lon="-3.06357">
        <ele>168.6</ele>
        <time>2023-04-10T10:19:29Z</time>
      </trkpt>
      <trkpt lat="48.02939" lon="-3.06359">
        <ele>168.8</ele>
        <time>2023-04-10T10:19:30Z</time>
      </trkpt>
      <trkpt lat="48.02938" lon="-3.06359">
        <ele>169.4</ele>
        <time>2023-04-10T10:19:31Z</time>
      </trkpt>
      <trkpt lat="48.02936" lon="-3.0636">
        <ele>169.8</ele>
        <time>2023-04-10T10:19:32Z</time>
      </trkpt>
      <trkpt lat="48.02934" lon="-3.06361">
        <ele>170</ele>
        <time>2023-04-10T10:19:33Z</time>
      </trkpt>
      <trkpt lat="48.02933" lon="-3.06361">
        <ele>170.4</ele>
        <time>2023-04-10T10:19:34Z</time>
      </trkpt>
      <trkpt lat="48.02931" lon="-3.06362">
        <ele>170.6</ele>
        <time>2023-04-10T10:19:35Z</time>
      </trkpt>
      <trkpt lat="48.02929" lon="-3.06363">
        <ele>170.8</ele>
        <time>2023-04-10T10:19:36Z</time>
      </trkpt>
      <trkpt lat="48.02928" lon="-3.06363">
        <ele>170.8</ele>
        <time>2023-04-10T10:19:37Z</time>
      </trkpt>
      <trkpt lat="48.02927" lon="-3.06363">
        <ele>171</ele>
        <time>2023-04-10T10:19:38Z</time>
      </trkpt>
      <trkpt lat="48.02926" lon="-3.06364">
        <ele>171.2</ele>
        <time>2023-04-10T10:19:39Z</time>
      </trkpt>
      <trkpt lat="48.02925" lon="-3.06365">
        <ele>171.2</ele>
        <time>2023-04-10T10:19:40Z</time>
      </trkpt>
      <trkpt lat="48.02923" lon="-3.06366">
        <ele>171.4</ele>
        <time>2023-04-10T10:19:41Z</time>
      </trkpt>
      <trkpt lat="48.02922" lon="-3.06368">
        <ele>171.8</ele>
        <time>2023-04-10T10:19:42Z</time>
      </trkpt>
      <trkpt lat="48.02921" lon="-3.06368">
        <ele>172</ele>
        <time>2023-04-10T10:19:43Z</time>
      </trkpt>
      <trkpt lat="48.02921" lon="-3.06369">
        <ele>172</ele>
        <time>2023-04-10T10:19:44Z</time>
      </trkpt>
      <trkpt lat="48.02919" lon="-3.0637">
        <ele>172</ele>
        <time>2023-04-10T10:19:45Z</time>
      </trkpt>
      <trkpt lat="48.02917" lon="-3.0637">
        <ele>172.2</ele>
        <time>2023-04-10T10:19:46Z</time>
      </trkpt>
      <trkpt lat="48.02913" lon="-3.0637">
        <ele>172.2</ele>
        <time>2023-04-10T10:19:47Z</time>
      </trkpt>
      <trkpt lat="48.0291" lon="-3.06368">
        <ele>172.2</ele>
        <time>2023-04-10T10:19:48Z</time>
      </trkpt>
      <trkpt lat="48.02907" lon="-3.06366">
        <ele>172.2</ele>
        <time>2023-04-10T10:19:49Z</time>
      </trkpt>
      <trkpt lat="48.02906" lon="-3.06363">
        <ele>172.2</ele>
        <time>2023-04-10T10:19:50Z</time>
      </trkpt>
      <trkpt lat="48.02903" lon="-3.06359">
        <ele>172.2</ele>
        <time>2023-04-10T10:19:51Z</time>
      </trkpt>
      <trkpt lat="48.02902" lon="-3.06355">
        <ele>172.4</ele>
        <time>2023-04-10T10:19:52Z</time>
      </trkpt>
      <trkpt lat="48.02901" lon="-3.0635">
        <ele>172.4</ele>
        <time>2023-04-10T10:19:53Z</time>
      </trkpt>
      <trkpt lat="48.02899" lon="-3.06345">
        <ele>172.4</ele>
        <time>2023-04-10T10:19:54Z</time>
      </trkpt>
      <trkpt lat="48.02898" lon="-3.0634">
        <ele>172.4</ele>
        <time>2023-04-10T10:19:55Z</time>
      </trkpt>
      <trkpt lat="48.02896" lon="-3.06334">
        <ele>172.4</ele>
        <time>2023-04-10T10:19:56Z</time>
      </trkpt>
      <trkpt lat="48.02892" lon="-3.06327">
        <ele>172.2</ele>
        <time>2023-04-10T10:19:57Z</time>
      </trkpt>
      <trkpt lat="48.02889" lon="-3.06319">
        <ele>172.2</ele>
        <time>2023-04-10T10:19:58Z</time>
      </trkpt>
      <trkpt lat="48.02891" lon="-3.06312">
        <ele>172.2</ele>
        <time>2023-04-10T10:19:59Z</time>
      </trkpt>
      <trkpt lat="48.02892" lon="-3.06305">
        <ele>172.2</ele>
        <time>2023-04-10T10:20:00Z</time>
      </trkpt>
      <trkpt lat="48.02893" lon="-3.06299">
        <ele>172</ele>
        <time>2023-04-10T10:20:01Z</time>
      </trkpt>
      <trkpt lat="48.02892" lon="-3.06293">
        <ele>172</ele>
        <time>2023-04-10T10:20:02Z</time>
      </trkpt>
      <trkpt lat="48.02891" lon="-3.06288">
        <ele>172</ele>
        <time>2023-04-10T10:20:03Z</time>
      </trkpt>
      <trkpt lat="48.02891" lon="-3.06285">
        <ele>172</ele>
        <time>2023-04-10T10:20:04Z</time>
      </trkpt>
      <trkpt lat="48.02887" lon="-3.0628">
        <ele>172</ele>
        <time>2023-04-10T10:20:05Z</time>
      </trkpt>
      <trkpt lat="48.02884" lon="-3.06275">
        <ele>171.8</ele>
        <time>2023-04-10T10:20:06Z</time>
      </trkpt>
      <trkpt lat="48.0288" lon="-3.0627">
        <ele>171.8</ele>
        <time>2023-04-10T10:20:07Z</time>
      </trkpt>
      <trkpt lat="48.02879" lon="-3.06263">
        <ele>171.8</ele>
        <time>2023-04-10T10:20:08Z</time>
      </trkpt>
      <trkpt lat="48.02879" lon="-3.06256">
        <ele>171.8</ele>
        <time>2023-04-10T10:20:09Z</time>
      </trkpt>
      <trkpt lat="48.02878" lon="-3.06248">
        <ele>171.6</ele>
        <time>2023-04-10T10:20:10Z</time>
      </trkpt>
      <trkpt lat="48.02878" lon="-3.0624">
        <ele>171.6</ele>
        <time>2023-04-10T10:20:11Z</time>
      </trkpt>
      <trkpt lat="48.02879" lon="-3.06233">
        <ele>171.4</ele>
        <time>2023-04-10T10:20:12Z</time>
      </trkpt>
      <trkpt lat="48.02881" lon="-3.06218">
        <ele>171.4</ele>
        <time>2023-04-10T10:20:14Z</time>
      </trkpt>
      <trkpt lat="48.02885" lon="-3.06204">
        <ele>170.8</ele>
        <time>2023-04-10T10:20:16Z</time>
      </trkpt>
      <trkpt lat="48.02886" lon="-3.06197">
        <ele>170.4</ele>
        <time>2023-04-10T10:20:17Z</time>
      </trkpt>
      <trkpt lat="48.02888" lon="-3.06182">
        <ele>170</ele>
        <time>2023-04-10T10:20:19Z</time>
      </trkpt>
      <trkpt lat="48.02888" lon="-3.06174">
        <ele>170</ele>
        <time>2023-04-10T10:20:20Z</time>
      </trkpt>
      <trkpt lat="48.02889" lon="-3.06167">
        <ele>170</ele>
        <time>2023-04-10T10:20:21Z</time>
      </trkpt>
      <trkpt lat="48.02891" lon="-3.0616">
        <ele>169.8</ele>
        <time>2023-04-10T10:20:22Z</time>
      </trkpt>
      <trkpt lat="48.02893" lon="-3.06154">
        <ele>169.6</ele>
        <time>2023-04-10T10:20:23Z</time>
      </trkpt>
      <trkpt lat="48.02895" lon="-3.06148">
        <ele>169.6</ele>
        <time>2023-04-10T10:20:24Z</time>
      </trkpt>
      <trkpt lat="48.02896" lon="-3.06143">
        <ele>169.4</ele>
        <time>2023-04-10T10:20:25Z</time>
      </trkpt>
      <trkpt lat="48.02897" lon="-3.06138">
        <ele>169.4</ele>
        <time>2023-04-10T10:20:26Z</time>
      </trkpt>
      <trkpt lat="48.02898" lon="-3.06125">
        <ele>169.2</ele>
        <time>2023-04-10T10:20:28Z</time>
      </trkpt>
      <trkpt lat="48.02899" lon="-3.06107">
        <ele>169.2</ele>
        <time>2023-04-10T10:20:30Z</time>
      </trkpt>
      <trkpt lat="48.029" lon="-3.06084">
        <ele>169.2</ele>
        <time>2023-04-10T10:20:33Z</time>
      </trkpt>
      <trkpt lat="48.02901" lon="-3.06076">
        <ele>169.2</ele>
        <time>2023-04-10T10:20:34Z</time>
      </trkpt>
      <trkpt lat="48.02902" lon="-3.06057">
        <ele>169</ele>
        <time>2023-04-10T10:20:36Z</time>
      </trkpt>
      <trkpt lat="48.02901" lon="-3.06048">
        <ele>169</ele>
        <time>2023-04-10T10:20:37Z</time>
      </trkpt>
      <trkpt lat="48.02902" lon="-3.0604">
        <ele>169</ele>
        <time>2023-04-10T10:20:38Z</time>
      </trkpt>
      <trkpt lat="48.02903" lon="-3.05992">
        <ele>168.8</ele>
        <time>2023-04-10T10:20:43Z</time>
      </trkpt>
      <trkpt lat="48.02904" lon="-3.05985">
        <ele>168.6</ele>
        <time>2023-04-10T10:20:44Z</time>
      </trkpt>
      <trkpt lat="48.02904" lon="-3.05971">
        <ele>168.4</ele>
        <time>2023-04-10T10:20:46Z</time>
      </trkpt>
      <trkpt lat="48.02904" lon="-3.0596">
        <ele>168.4</ele>
        <time>2023-04-10T10:20:47Z</time>
      </trkpt>
      <trkpt lat="48.02902" lon="-3.05934">
        <ele>167.8</ele>
        <time>2023-04-10T10:20:49Z</time>
      </trkpt>
      <trkpt lat="48.02897" lon="-3.05906">
        <ele>167.2</ele>
        <time>2023-04-10T10:20:51Z</time>
      </trkpt>
      <trkpt lat="48.02895" lon="-3.0589">
        <ele>166.8</ele>
        <time>2023-04-10T10:20:52Z</time>
      </trkpt>
      <trkpt lat="48.02895" lon="-3.05877">
        <ele>166.6</ele>
        <time>2023-04-10T10:20:53Z</time>
      </trkpt>
      <trkpt lat="48.02895" lon="-3.05864">
        <ele>166.2</ele>
        <time>2023-04-10T10:20:54Z</time>
      </trkpt>
      <trkpt lat="48.02894" lon="-3.05855">
        <ele>165.8</ele>
        <time>2023-04-10T10:20:55Z</time>
      </trkpt>
      <trkpt lat="48.02893" lon="-3.0585">
        <ele>164.2</ele>
        <time>2023-04-10T10:20:56Z</time>
      </trkpt>
      <trkpt lat="48.02892" lon="-3.05848">
        <ele>163.8</ele>
        <time>2023-04-10T10:20:57Z</time>
      </trkpt>
      <trkpt lat="48.0289" lon="-3.05846">
        <ele>162.8</ele>
        <time>2023-04-10T10:20:58Z</time>
      </trkpt>
      <trkpt lat="48.02887" lon="-3.05844">
        <ele>161.4</ele>
        <time>2023-04-10T10:20:59Z</time>
      </trkpt>
      <trkpt lat="48.02884" lon="-3.05843">
        <ele>160.4</ele>
        <time>2023-04-10T10:21:00Z</time>
      </trkpt>
      <trkpt lat="48.02882" lon="-3.05842">
        <ele>159</ele>
        <time>2023-04-10T10:21:01Z</time>
      </trkpt>
      <trkpt lat="48.02879" lon="-3.05842">
        <ele>158.2</ele>
        <time>2023-04-10T10:21:02Z</time>
      </trkpt>
      <trkpt lat="48.02877" lon="-3.05841">
        <ele>157.6</ele>
        <time>2023-04-10T10:21:03Z</time>
      </trkpt>
      <trkpt lat="48.02876" lon="-3.0584">
        <ele>156.8</ele>
        <time>2023-04-10T10:21:04Z</time>
      </trkpt>
      <trkpt lat="48.02873" lon="-3.0584">
        <ele>156.6</ele>
        <time>2023-04-10T10:21:05Z</time>
      </trkpt>
      <trkpt lat="48.02869" lon="-3.05839">
        <ele>156.4</ele>
        <time>2023-04-10T10:21:06Z</time>
      </trkpt>
      <trkpt lat="48.02869" lon="-3.05839">
        <ele>156.4</ele>
        <time>2023-04-10T10:21:07Z</time>
      </trkpt>
      <trkpt lat="48.02867" lon="-3.05839">
        <ele>156.4</ele>
        <time>2023-04-10T10:21:08Z</time>
      </trkpt>
      <trkpt lat="48.02866" lon="-3.05838">
        <ele>156.4</ele>
        <time>2023-04-10T10:21:09Z</time>
      </trkpt>
      <trkpt lat="48.02865" lon="-3.05837">
        <ele>156.4</ele>
        <time>2023-04-10T10:21:10Z</time>
      </trkpt>
      <trkpt lat="48.02863" lon="-3.05837">
        <ele>156.4</ele>
        <time>2023-04-10T10:21:11Z</time>
      </trkpt>
      <trkpt lat="48.02862" lon="-3.05837">
        <ele>156.4</ele>
        <time>2023-04-10T10:21:12Z</time>
      </trkpt>
      <trkpt lat="48.0286" lon="-3.05836">
        <ele>156.4</ele>
        <time>2023-04-10T10:21:13Z</time>
      </trkpt>
      <trkpt lat="48.02857" lon="-3.05835">
        <ele>156.4</ele>
        <time>2023-04-10T10:21:14Z</time>
      </trkpt>
      <trkpt lat="48.02853" lon="-3.05835">
        <ele>156.4</ele>
        <time>2023-04-10T10:21:15Z</time>
      </trkpt>
      <trkpt lat="48.02851" lon="-3.05834">
        <ele>156.6</ele>
        <time>2023-04-10T10:21:16Z</time>
      </trkpt>
      <trkpt lat="48.02848" lon="-3.05833">
        <ele>156.8</ele>
        <time>2023-04-10T10:21:18Z</time>
      </trkpt>
      <trkpt lat="48.02846" lon="-3.05831">
        <ele>157</ele>
        <time>2023-04-10T10:21:19Z</time>
      </trkpt>
      <trkpt lat="48.02845" lon="-3.0583">
        <ele>157.2</ele>
        <time>2023-04-10T10:21:20Z</time>
      </trkpt>
      <trkpt lat="48.02836" lon="-3.05825">
        <ele>158.2</ele>
        <time>2023-04-10T10:21:24Z</time>
      </trkpt>
      <trkpt lat="48.02834" lon="-3.05824">
        <ele>158.6</ele>
        <time>2023-04-10T10:21:25Z</time>
      </trkpt>
      <trkpt lat="48.02833" lon="-3.05823">
        <ele>159</ele>
        <time>2023-04-10T10:21:26Z</time>
      </trkpt>
      <trkpt lat="48.02829" lon="-3.05819">
        <ele>159.8</ele>
        <time>2023-04-10T10:21:28Z</time>
      </trkpt>
      <trkpt lat="48.02827" lon="-3.05816">
        <ele>160</ele>
        <time>2023-04-10T10:21:29Z</time>
      </trkpt>
      <trkpt lat="48.02826" lon="-3.05815">
        <ele>160.2</ele>
        <time>2023-04-10T10:21:30Z</time>
      </trkpt>
      <trkpt lat="48.02825" lon="-3.05813">
        <ele>160.2</ele>
        <time>2023-04-10T10:21:31Z</time>
      </trkpt>
      <trkpt lat="48.02825" lon="-3.05809">
        <ele>160.6</ele>
        <time>2023-04-10T10:21:32Z</time>
      </trkpt>
      <trkpt lat="48.02826" lon="-3.05806">
        <ele>160.8</ele>
        <time>2023-04-10T10:21:33Z</time>
      </trkpt>
      <trkpt lat="48.02827" lon="-3.05804">
        <ele>161</ele>
        <time>2023-04-10T10:21:34Z</time>
      </trkpt>
      <trkpt lat="48.0283" lon="-3.05801">
        <ele>161.6</ele>
        <time>2023-04-10T10:21:36Z</time>
      </trkpt>
      <trkpt lat="48.02831" lon="-3.05799">
        <ele>161.8</ele>
        <time>2023-04-10T10:21:37Z</time>
      </trkpt>
      <trkpt lat="48.02832" lon="-3.05797">
        <ele>161.8</ele>
        <time>2023-04-10T10:21:38Z</time>
      </trkpt>
      <trkpt lat="48.02829" lon="-3.05794">
        <ele>162.2</ele>
        <time>2023-04-10T10:21:39Z</time>
      </trkpt>
      <trkpt lat="48.02829" lon="-3.05791">
        <ele>162.4</ele>
        <time>2023-04-10T10:21:40Z</time>
      </trkpt>
      <trkpt lat="48.0283" lon="-3.05788">
        <ele>162.8</ele>
        <time>2023-04-10T10:21:41Z</time>
      </trkpt>
      <trkpt lat="48.0283" lon="-3.05786">
        <ele>163</ele>
        <time>2023-04-10T10:21:42Z</time>
      </trkpt>
      <trkpt lat="48.0283" lon="-3.05784">
        <ele>163.2</ele>
        <time>2023-04-10T10:21:43Z</time>
      </trkpt>
      <trkpt lat="48.0283" lon="-3.05782">
        <ele>163.4</ele>
        <time>2023-04-10T10:21:44Z</time>
      </trkpt>
      <trkpt lat="48.02831" lon="-3.05781">
        <ele>163.6</ele>
        <time>2023-04-10T10:21:45Z</time>
      </trkpt>
      <trkpt lat="48.02831" lon="-3.05779">
        <ele>164</ele>
        <time>2023-04-10T10:21:46Z</time>
      </trkpt>
      <trkpt lat="48.02831" lon="-3.05777">
        <ele>164.2</ele>
        <time>2023-04-10T10:21:47Z</time>
      </trkpt>
      <trkpt lat="48.02831" lon="-3.05774">
        <ele>164.4</ele>
        <time>2023-04-10T10:21:48Z</time>
      </trkpt>
      <trkpt lat="48.02831" lon="-3.05772">
        <ele>164.6</ele>
        <time>2023-04-10T10:21:49Z</time>
      </trkpt>
      <trkpt lat="48.02832" lon="-3.0577">
        <ele>164.8</ele>
        <time>2023-04-10T10:21:50Z</time>
      </trkpt>
      <trkpt lat="48.02833" lon="-3.05768">
        <ele>165.2</ele>
        <time>2023-04-10T10:21:51Z</time>
      </trkpt>
      <trkpt lat="48.02833" lon="-3.05765">
        <ele>165.4</ele>
        <time>2023-04-10T10:21:52Z</time>
      </trkpt>
      <trkpt lat="48.02834" lon="-3.05763">
        <ele>165.4</ele>
        <time>2023-04-10T10:21:53Z</time>
      </trkpt>
      <trkpt lat="48.02834" lon="-3.0576">
        <ele>165.4</ele>
        <time>2023-04-10T10:21:54Z</time>
      </trkpt>
      <trkpt lat="48.02835" lon="-3.05757">
        <ele>165.6</ele>
        <time>2023-04-10T10:21:55Z</time>
      </trkpt>
      <trkpt lat="48.02836" lon="-3.05754">
        <ele>165.6</ele>
        <time>2023-04-10T10:21:56Z</time>
      </trkpt>
      <trkpt lat="48.02837" lon="-3.05751">
        <ele>165.8</ele>
        <time>2023-04-10T10:21:57Z</time>
      </trkpt>
      <trkpt lat="48.02838" lon="-3.05749">
        <ele>166</ele>
        <time>2023-04-10T10:21:58Z</time>
      </trkpt>
      <trkpt lat="48.02839" lon="-3.05746">
        <ele>166</ele>
        <time>2023-04-10T10:21:59Z</time>
      </trkpt>
      <trkpt lat="48.02839" lon="-3.05743">
        <ele>166.4</ele>
        <time>2023-04-10T10:22:00Z</time>
      </trkpt>
      <trkpt lat="48.0284" lon="-3.05739">
        <ele>166.6</ele>
        <time>2023-04-10T10:22:01Z</time>
      </trkpt>
      <trkpt lat="48.02842" lon="-3.05736">
        <ele>166.6</ele>
        <time>2023-04-10T10:22:02Z</time>
      </trkpt>
      <trkpt lat="48.02843" lon="-3.05732">
        <ele>166.6</ele>
        <time>2023-04-10T10:22:03Z</time>
      </trkpt>
      <trkpt lat="48.02845" lon="-3.0573">
        <ele>166.8</ele>
        <time>2023-04-10T10:22:04Z</time>
      </trkpt>
      <trkpt lat="48.02847" lon="-3.05727">
        <ele>167</ele>
        <time>2023-04-10T10:22:05Z</time>
      </trkpt>
      <trkpt lat="48.02847" lon="-3.05723">
        <ele>167.2</ele>
        <time>2023-04-10T10:22:06Z</time>
      </trkpt>
      <trkpt lat="48.02846" lon="-3.05716">
        <ele>167.2</ele>
        <time>2023-04-10T10:22:07Z</time>
      </trkpt>
      <trkpt lat="48.02844" lon="-3.05714">
        <ele>167.4</ele>
        <time>2023-04-10T10:22:08Z</time>
      </trkpt>
      <trkpt lat="48.02844" lon="-3.0571">
        <ele>167.4</ele>
        <time>2023-04-10T10:22:09Z</time>
      </trkpt>
      <trkpt lat="48.02845" lon="-3.05706">
        <ele>167.6</ele>
        <time>2023-04-10T10:22:10Z</time>
      </trkpt>
      <trkpt lat="48.02846" lon="-3.05703">
        <ele>167.6</ele>
        <time>2023-04-10T10:22:11Z</time>
      </trkpt>
      <trkpt lat="48.02849" lon="-3.057">
        <ele>167.8</ele>
        <time>2023-04-10T10:22:12Z</time>
      </trkpt>
      <trkpt lat="48.0285" lon="-3.05696">
        <ele>167.8</ele>
        <time>2023-04-10T10:22:13Z</time>
      </trkpt>
      <trkpt lat="48.02851" lon="-3.05691">
        <ele>168</ele>
        <time>2023-04-10T10:22:14Z</time>
      </trkpt>
      <trkpt lat="48.02852" lon="-3.05685">
        <ele>168</ele>
        <time>2023-04-10T10:22:15Z</time>
      </trkpt>
      <trkpt lat="48.02852" lon="-3.0568">
        <ele>168</ele>
        <time>2023-04-10T10:22:16Z</time>
      </trkpt>
      <trkpt lat="48.02852" lon="-3.05674">
        <ele>168</ele>
        <time>2023-04-10T10:22:17Z</time>
      </trkpt>
      <trkpt lat="48.02852" lon="-3.05668">
        <ele>168.2</ele>
        <time>2023-04-10T10:22:18Z</time>
      </trkpt>
      <trkpt lat="48.02853" lon="-3.05663">
        <ele>168.2</ele>
        <time>2023-04-10T10:22:19Z</time>
      </trkpt>
      <trkpt lat="48.02854" lon="-3.05657">
        <ele>168.6</ele>
        <time>2023-04-10T10:22:20Z</time>
      </trkpt>
      <trkpt lat="48.02855" lon="-3.05651">
        <ele>168.6</ele>
        <time>2023-04-10T10:22:21Z</time>
      </trkpt>
      <trkpt lat="48.02856" lon="-3.05645">
        <ele>168.6</ele>
        <time>2023-04-10T10:22:22Z</time>
      </trkpt>
      <trkpt lat="48.02856" lon="-3.05639">
        <ele>168.6</ele>
        <time>2023-04-10T10:22:23Z</time>
      </trkpt>
      <trkpt lat="48.02857" lon="-3.05633">
        <ele>168.6</ele>
        <time>2023-04-10T10:22:24Z</time>
      </trkpt>
      <trkpt lat="48.02857" lon="-3.05626">
        <ele>168.6</ele>
        <time>2023-04-10T10:22:25Z</time>
      </trkpt>
      <trkpt lat="48.02858" lon="-3.05619">
        <ele>168.6</ele>
        <time>2023-04-10T10:22:26Z</time>
      </trkpt>
      <trkpt lat="48.02858" lon="-3.05611">
        <ele>168.6</ele>
        <time>2023-04-10T10:22:27Z</time>
      </trkpt>
      <trkpt lat="48.0286" lon="-3.05595">
        <ele>168.4</ele>
        <time>2023-04-10T10:22:29Z</time>
      </trkpt>
      <trkpt lat="48.0286" lon="-3.0557">
        <ele>168.2</ele>
        <time>2023-04-10T10:22:32Z</time>
      </trkpt>
      <trkpt lat="48.0286" lon="-3.05563">
        <ele>168.2</ele>
        <time>2023-04-10T10:22:33Z</time>
      </trkpt>
      <trkpt lat="48.0286" lon="-3.05547">
        <ele>168</ele>
        <time>2023-04-10T10:22:35Z</time>
      </trkpt>
      <trkpt lat="48.0286" lon="-3.05539">
        <ele>167.6</ele>
        <time>2023-04-10T10:22:36Z</time>
      </trkpt>
      <trkpt lat="48.0286" lon="-3.05532">
        <ele>167.6</ele>
        <time>2023-04-10T10:22:37Z</time>
      </trkpt>
      <trkpt lat="48.0286" lon="-3.05524">
        <ele>167.6</ele>
        <time>2023-04-10T10:22:38Z</time>
      </trkpt>
      <trkpt lat="48.0286" lon="-3.05517">
        <ele>167.6</ele>
        <time>2023-04-10T10:22:39Z</time>
      </trkpt>
      <trkpt lat="48.0286" lon="-3.05511">
        <ele>167.6</ele>
        <time>2023-04-10T10:22:40Z</time>
      </trkpt>
      <trkpt lat="48.0286" lon="-3.05505">
        <ele>167.6</ele>
        <time>2023-04-10T10:22:41Z</time>
      </trkpt>
      <trkpt lat="48.02859" lon="-3.05491">
        <ele>167.6</ele>
        <time>2023-04-10T10:22:43Z</time>
      </trkpt>
      <trkpt lat="48.02859" lon="-3.05484">
        <ele>167.6</ele>
        <time>2023-04-10T10:22:44Z</time>
      </trkpt>
      <trkpt lat="48.02861" lon="-3.0547">
        <ele>167.6</ele>
        <time>2023-04-10T10:22:46Z</time>
      </trkpt>
      <trkpt lat="48.02861" lon="-3.05454">
        <ele>167.6</ele>
        <time>2023-04-10T10:22:48Z</time>
      </trkpt>
      <trkpt lat="48.02867" lon="-3.05402">
        <ele>167.8</ele>
        <time>2023-04-10T10:22:54Z</time>
      </trkpt>
      <trkpt lat="48.02868" lon="-3.05383">
        <ele>167.8</ele>
        <time>2023-04-10T10:22:56Z</time>
      </trkpt>
      <trkpt lat="48.02868" lon="-3.05374">
        <ele>167.8</ele>
        <time>2023-04-10T10:22:57Z</time>
      </trkpt>
      <trkpt lat="48.02868" lon="-3.05364">
        <ele>167.6</ele>
        <time>2023-04-10T10:22:58Z</time>
      </trkpt>
      <trkpt lat="48.02868" lon="-3.05355">
        <ele>167.6</ele>
        <time>2023-04-10T10:22:59Z</time>
      </trkpt>
      <trkpt lat="48.02867" lon="-3.05346">
        <ele>167.6</ele>
        <time>2023-04-10T10:23:00Z</time>
      </trkpt>
      <trkpt lat="48.02867" lon="-3.05338">
        <ele>167.6</ele>
        <time>2023-04-10T10:23:01Z</time>
      </trkpt>
      <trkpt lat="48.02868" lon="-3.0533">
        <ele>167.4</ele>
        <time>2023-04-10T10:23:02Z</time>
      </trkpt>
      <trkpt lat="48.02869" lon="-3.05323">
        <ele>167.4</ele>
        <time>2023-04-10T10:23:03Z</time>
      </trkpt>
      <trkpt lat="48.02871" lon="-3.05316">
        <ele>167.4</ele>
        <time>2023-04-10T10:23:04Z</time>
      </trkpt>
      <trkpt lat="48.02873" lon="-3.05309">
        <ele>167.4</ele>
        <time>2023-04-10T10:23:05Z</time>
      </trkpt>
      <trkpt lat="48.02874" lon="-3.05301">
        <ele>167.4</ele>
        <time>2023-04-10T10:23:06Z</time>
      </trkpt>
      <trkpt lat="48.02875" lon="-3.05295">
        <ele>167.4</ele>
        <time>2023-04-10T10:23:07Z</time>
      </trkpt>
      <trkpt lat="48.02876" lon="-3.05289">
        <ele>167.4</ele>
        <time>2023-04-10T10:23:08Z</time>
      </trkpt>
      <trkpt lat="48.02877" lon="-3.05283">
        <ele>167.4</ele>
        <time>2023-04-10T10:23:09Z</time>
      </trkpt>
      <trkpt lat="48.02878" lon="-3.05277">
        <ele>167.4</ele>
        <time>2023-04-10T10:23:10Z</time>
      </trkpt>
      <trkpt lat="48.02879" lon="-3.05271">
        <ele>167.6</ele>
        <time>2023-04-10T10:23:11Z</time>
      </trkpt>
      <trkpt lat="48.02879" lon="-3.05265">
        <ele>167.6</ele>
        <time>2023-04-10T10:23:12Z</time>
      </trkpt>
      <trkpt lat="48.0288" lon="-3.0526">
        <ele>167.8</ele>
        <time>2023-04-10T10:23:13Z</time>
      </trkpt>
      <trkpt lat="48.02881" lon="-3.05253">
        <ele>168.4</ele>
        <time>2023-04-10T10:23:14Z</time>
      </trkpt>
      <trkpt lat="48.02882" lon="-3.05247">
        <ele>168.6</ele>
        <time>2023-04-10T10:23:15Z</time>
      </trkpt>
      <trkpt lat="48.02883" lon="-3.05241">
        <ele>169.2</ele>
        <time>2023-04-10T10:23:16Z</time>
      </trkpt>
      <trkpt lat="48.02887" lon="-3.05224">
        <ele>169.8</ele>
        <time>2023-04-10T10:23:19Z</time>
      </trkpt>
      <trkpt lat="48.02889" lon="-3.05218">
        <ele>170.2</ele>
        <time>2023-04-10T10:23:20Z</time>
      </trkpt>
      <trkpt lat="48.0289" lon="-3.05212">
        <ele>170.2</ele>
        <time>2023-04-10T10:23:21Z</time>
      </trkpt>
      <trkpt lat="48.02891" lon="-3.05206">
        <ele>170.8</ele>
        <time>2023-04-10T10:23:22Z</time>
      </trkpt>
      <trkpt lat="48.02891" lon="-3.052">
        <ele>170.8</ele>
        <time>2023-04-10T10:23:23Z</time>
      </trkpt>
      <trkpt lat="48.02891" lon="-3.05195">
        <ele>171</ele>
        <time>2023-04-10T10:23:24Z</time>
      </trkpt>
      <trkpt lat="48.02892" lon="-3.05189">
        <ele>171.2</ele>
        <time>2023-04-10T10:23:25Z</time>
      </trkpt>
      <trkpt lat="48.02893" lon="-3.05183">
        <ele>171.4</ele>
        <time>2023-04-10T10:23:26Z</time>
      </trkpt>
      <trkpt lat="48.02895" lon="-3.05178">
        <ele>171.6</ele>
        <time>2023-04-10T10:23:27Z</time>
      </trkpt>
      <trkpt lat="48.02898" lon="-3.05174">
        <ele>171.6</ele>
        <time>2023-04-10T10:23:28Z</time>
      </trkpt>
      <trkpt lat="48.02902" lon="-3.05173">
        <ele>171.8</ele>
        <time>2023-04-10T10:23:29Z</time>
      </trkpt>
      <trkpt lat="48.02905" lon="-3.05173">
        <ele>171.8</ele>
        <time>2023-04-10T10:23:30Z</time>
      </trkpt>
      <trkpt lat="48.02909" lon="-3.05175">
        <ele>172</ele>
        <time>2023-04-10T10:23:31Z</time>
      </trkpt>
      <trkpt lat="48.02913" lon="-3.05177">
        <ele>172</ele>
        <time>2023-04-10T10:23:32Z</time>
      </trkpt>
      <trkpt lat="48.02917" lon="-3.05178">
        <ele>172</ele>
        <time>2023-04-10T10:23:33Z</time>
      </trkpt>
      <trkpt lat="48.02921" lon="-3.05179">
        <ele>172</ele>
        <time>2023-04-10T10:23:34Z</time>
      </trkpt>
      <trkpt lat="48.02925" lon="-3.0518">
        <ele>172</ele>
        <time>2023-04-10T10:23:35Z</time>
      </trkpt>
      <trkpt lat="48.0293" lon="-3.05181">
        <ele>172</ele>
        <time>2023-04-10T10:23:36Z</time>
      </trkpt>
      <trkpt lat="48.02934" lon="-3.05182">
        <ele>172.2</ele>
        <time>2023-04-10T10:23:37Z</time>
      </trkpt>
      <trkpt lat="48.02939" lon="-3.05182">
        <ele>172.2</ele>
        <time>2023-04-10T10:23:38Z</time>
      </trkpt>
      <trkpt lat="48.02943" lon="-3.05184">
        <ele>172.4</ele>
        <time>2023-04-10T10:23:39Z</time>
      </trkpt>
      <trkpt lat="48.02947" lon="-3.05184">
        <ele>172.6</ele>
        <time>2023-04-10T10:23:40Z</time>
      </trkpt>
      <trkpt lat="48.02952" lon="-3.05185">
        <ele>172.8</ele>
        <time>2023-04-10T10:23:41Z</time>
      </trkpt>
      <trkpt lat="48.02956" lon="-3.05186">
        <ele>173</ele>
        <time>2023-04-10T10:23:42Z</time>
      </trkpt>
      <trkpt lat="48.02961" lon="-3.05188">
        <ele>173.2</ele>
        <time>2023-04-10T10:23:43Z</time>
      </trkpt>
      <trkpt lat="48.02966" lon="-3.05189">
        <ele>173.6</ele>
        <time>2023-04-10T10:23:44Z</time>
      </trkpt>
      <trkpt lat="48.0297" lon="-3.0519">
        <ele>173.6</ele>
        <time>2023-04-10T10:23:45Z</time>
      </trkpt>
      <trkpt lat="48.02975" lon="-3.05191">
        <ele>173.8</ele>
        <time>2023-04-10T10:23:46Z</time>
      </trkpt>
      <trkpt lat="48.0298" lon="-3.05192">
        <ele>174</ele>
        <time>2023-04-10T10:23:47Z</time>
      </trkpt>
      <trkpt lat="48.02985" lon="-3.05193">
        <ele>174</ele>
        <time>2023-04-10T10:23:48Z</time>
      </trkpt>
      <trkpt lat="48.0299" lon="-3.05194">
        <ele>174.2</ele>
        <time>2023-04-10T10:23:49Z</time>
      </trkpt>
      <trkpt lat="48.02995" lon="-3.05195">
        <ele>174.4</ele>
        <time>2023-04-10T10:23:50Z</time>
      </trkpt>
      <trkpt lat="48.03" lon="-3.05196">
        <ele>174.4</ele>
        <time>2023-04-10T10:23:51Z</time>
      </trkpt>
      <trkpt lat="48.03005" lon="-3.05196">
        <ele>174.4</ele>
        <time>2023-04-10T10:23:52Z</time>
      </trkpt>
      <trkpt lat="48.0301" lon="-3.05196">
        <ele>174.6</ele>
        <time>2023-04-10T10:23:53Z</time>
      </trkpt>
      <trkpt lat="48.03016" lon="-3.05196">
        <ele>174.8</ele>
        <time>2023-04-10T10:23:54Z</time>
      </trkpt>
      <trkpt lat="48.03021" lon="-3.05195">
        <ele>174.8</ele>
        <time>2023-04-10T10:23:55Z</time>
      </trkpt>
      <trkpt lat="48.03026" lon="-3.05194">
        <ele>175</ele>
        <time>2023-04-10T10:23:56Z</time>
      </trkpt>
      <trkpt lat="48.03031" lon="-3.05193">
        <ele>175</ele>
        <time>2023-04-10T10:23:57Z</time>
      </trkpt>
      <trkpt lat="48.03036" lon="-3.05191">
        <ele>175.2</ele>
        <time>2023-04-10T10:23:58Z</time>
      </trkpt>
      <trkpt lat="48.03041" lon="-3.05189">
        <ele>175.2</ele>
        <time>2023-04-10T10:23:59Z</time>
      </trkpt>
      <trkpt lat="48.03046" lon="-3.05187">
        <ele>175.2</ele>
        <time>2023-04-10T10:24:00Z</time>
      </trkpt>
      <trkpt lat="48.03051" lon="-3.05185">
        <ele>175.4</ele>
        <time>2023-04-10T10:24:01Z</time>
      </trkpt>
      <trkpt lat="48.03056" lon="-3.05183">
        <ele>175.4</ele>
        <time>2023-04-10T10:24:02Z</time>
      </trkpt>
      <trkpt lat="48.0306" lon="-3.05181">
        <ele>175.4</ele>
        <time>2023-04-10T10:24:03Z</time>
      </trkpt>
      <trkpt lat="48.03065" lon="-3.05179">
        <ele>175.6</ele>
        <time>2023-04-10T10:24:04Z</time>
      </trkpt>
      <trkpt lat="48.0307" lon="-3.05178">
        <ele>175.8</ele>
        <time>2023-04-10T10:24:05Z</time>
      </trkpt>
      <trkpt lat="48.03075" lon="-3.05177">
        <ele>176</ele>
        <time>2023-04-10T10:24:06Z</time>
      </trkpt>
      <trkpt lat="48.0308" lon="-3.05176">
        <ele>176</ele>
        <time>2023-04-10T10:24:07Z</time>
      </trkpt>
      <trkpt lat="48.03085" lon="-3.05176">
        <ele>176</ele>
        <time>2023-04-10T10:24:08Z</time>
      </trkpt>
      <trkpt lat="48.03091" lon="-3.05176">
        <ele>176.2</ele>
        <time>2023-04-10T10:24:09Z</time>
      </trkpt>
      <trkpt lat="48.03096" lon="-3.05177">
        <ele>176.2</ele>
        <time>2023-04-10T10:24:10Z</time>
      </trkpt>
      <trkpt lat="48.03101" lon="-3.05179">
        <ele>176.4</ele>
        <time>2023-04-10T10:24:11Z</time>
      </trkpt>
      <trkpt lat="48.03106" lon="-3.05181">
        <ele>176.6</ele>
        <time>2023-04-10T10:24:12Z</time>
      </trkpt>
      <trkpt lat="48.03111" lon="-3.05183">
        <ele>176.6</ele>
        <time>2023-04-10T10:24:13Z</time>
      </trkpt>
      <trkpt lat="48.03115" lon="-3.05185">
        <ele>176.8</ele>
        <time>2023-04-10T10:24:14Z</time>
      </trkpt>
      <trkpt lat="48.0312" lon="-3.05187">
        <ele>177</ele>
        <time>2023-04-10T10:24:15Z</time>
      </trkpt>
      <trkpt lat="48.03125" lon="-3.05189">
        <ele>177.2</ele>
        <time>2023-04-10T10:24:16Z</time>
      </trkpt>
      <trkpt lat="48.0313" lon="-3.05192">
        <ele>177.4</ele>
        <time>2023-04-10T10:24:17Z</time>
      </trkpt>
      <trkpt lat="48.03134" lon="-3.05195">
        <ele>177.6</ele>
        <time>2023-04-10T10:24:18Z</time>
      </trkpt>
      <trkpt lat="48.03139" lon="-3.05197">
        <ele>177.8</ele>
        <time>2023-04-10T10:24:19Z</time>
      </trkpt>
      <trkpt lat="48.03143" lon="-3.05199">
        <ele>177.8</ele>
        <time>2023-04-10T10:24:20Z</time>
      </trkpt>
      <trkpt lat="48.03148" lon="-3.05202">
        <ele>178</ele>
        <time>2023-04-10T10:24:21Z</time>
      </trkpt>
      <trkpt lat="48.03153" lon="-3.05205">
        <ele>178.2</ele>
        <time>2023-04-10T10:24:22Z</time>
      </trkpt>
      <trkpt lat="48.03157" lon="-3.05207">
        <ele>178.4</ele>
        <time>2023-04-10T10:24:23Z</time>
      </trkpt>
      <trkpt lat="48.03162" lon="-3.05209">
        <ele>178.4</ele>
        <time>2023-04-10T10:24:24Z</time>
      </trkpt>
      <trkpt lat="48.03166" lon="-3.05211">
        <ele>178.8</ele>
        <time>2023-04-10T10:24:25Z</time>
      </trkpt>
      <trkpt lat="48.03171" lon="-3.05214">
        <ele>179</ele>
        <time>2023-04-10T10:24:26Z</time>
      </trkpt>
      <trkpt lat="48.03175" lon="-3.05216">
        <ele>179.2</ele>
        <time>2023-04-10T10:24:27Z</time>
      </trkpt>
      <trkpt lat="48.0318" lon="-3.05218">
        <ele>179.4</ele>
        <time>2023-04-10T10:24:28Z</time>
      </trkpt>
      <trkpt lat="48.03184" lon="-3.05219">
        <ele>179.4</ele>
        <time>2023-04-10T10:24:29Z</time>
      </trkpt>
      <trkpt lat="48.03189" lon="-3.0522">
        <ele>179.6</ele>
        <time>2023-04-10T10:24:30Z</time>
      </trkpt>
      <trkpt lat="48.03194" lon="-3.05221">
        <ele>179.8</ele>
        <time>2023-04-10T10:24:31Z</time>
      </trkpt>
      <trkpt lat="48.03199" lon="-3.05222">
        <ele>179.8</ele>
        <time>2023-04-10T10:24:32Z</time>
      </trkpt>
      <trkpt lat="48.03204" lon="-3.05222">
        <ele>180</ele>
        <time>2023-04-10T10:24:33Z</time>
      </trkpt>
      <trkpt lat="48.03209" lon="-3.05222">
        <ele>180</ele>
        <time>2023-04-10T10:24:34Z</time>
      </trkpt>
      <trkpt lat="48.03214" lon="-3.05221">
        <ele>180</ele>
        <time>2023-04-10T10:24:35Z</time>
      </trkpt>
      <trkpt lat="48.03219" lon="-3.0522">
        <ele>180</ele>
        <time>2023-04-10T10:24:36Z</time>
      </trkpt>
      <trkpt lat="48.03224" lon="-3.0522">
        <ele>180</ele>
        <time>2023-04-10T10:24:37Z</time>
      </trkpt>
      <trkpt lat="48.03229" lon="-3.05219">
        <ele>180</ele>
        <time>2023-04-10T10:24:38Z</time>
      </trkpt>
      <trkpt lat="48.03233" lon="-3.05219">
        <ele>180</ele>
        <time>2023-04-10T10:24:39Z</time>
      </trkpt>
      <trkpt lat="48.03238" lon="-3.05219">
        <ele>180</ele>
        <time>2023-04-10T10:24:40Z</time>
      </trkpt>
      <trkpt lat="48.03242" lon="-3.05219">
        <ele>180</ele>
        <time>2023-04-10T10:24:41Z</time>
      </trkpt>
      <trkpt lat="48.03247" lon="-3.05218">
        <ele>179.8</ele>
        <time>2023-04-10T10:24:42Z</time>
      </trkpt>
      <trkpt lat="48.03251" lon="-3.05218">
        <ele>179.8</ele>
        <time>2023-04-10T10:24:43Z</time>
      </trkpt>
      <trkpt lat="48.03255" lon="-3.05215">
        <ele>179.6</ele>
        <time>2023-04-10T10:24:44Z</time>
      </trkpt>
      <trkpt lat="48.03257" lon="-3.05211">
        <ele>179.6</ele>
        <time>2023-04-10T10:24:45Z</time>
      </trkpt>
      <trkpt lat="48.03258" lon="-3.05205">
        <ele>179.6</ele>
        <time>2023-04-10T10:24:46Z</time>
      </trkpt>
      <trkpt lat="48.03256" lon="-3.052">
        <ele>179.4</ele>
        <time>2023-04-10T10:24:47Z</time>
      </trkpt>
      <trkpt lat="48.03254" lon="-3.05195">
        <ele>179.4</ele>
        <time>2023-04-10T10:24:48Z</time>
      </trkpt>
      <trkpt lat="48.03252" lon="-3.05191">
        <ele>179.4</ele>
        <time>2023-04-10T10:24:49Z</time>
      </trkpt>
      <trkpt lat="48.0325" lon="-3.05185">
        <ele>179.4</ele>
        <time>2023-04-10T10:24:50Z</time>
      </trkpt>
      <trkpt lat="48.03241" lon="-3.0515">
        <ele>179.4</ele>
        <time>2023-04-10T10:24:56Z</time>
      </trkpt>
      <trkpt lat="48.03228" lon="-3.05094">
        <ele>179.4</ele>
        <time>2023-04-10T10:25:04Z</time>
      </trkpt>
      <trkpt lat="48.03227" lon="-3.05087">
        <ele>179.4</ele>
        <time>2023-04-10T10:25:05Z</time>
      </trkpt>
      <trkpt lat="48.03228" lon="-3.05071">
        <ele>179.4</ele>
        <time>2023-04-10T10:25:07Z</time>
      </trkpt>
      <trkpt lat="48.03229" lon="-3.05064">
        <ele>179.4</ele>
        <time>2023-04-10T10:25:08Z</time>
      </trkpt>
      <trkpt lat="48.03229" lon="-3.05055">
        <ele>179.4</ele>
        <time>2023-04-10T10:25:09Z</time>
      </trkpt>
      <trkpt lat="48.0323" lon="-3.05025">
        <ele>179.2</ele>
        <time>2023-04-10T10:25:12Z</time>
      </trkpt>
      <trkpt lat="48.03228" lon="-3.04976">
        <ele>179</ele>
        <time>2023-04-10T10:25:16Z</time>
      </trkpt>
      <trkpt lat="48.03226" lon="-3.04963">
        <ele>178.8</ele>
        <time>2023-04-10T10:25:17Z</time>
      </trkpt>
      <trkpt lat="48.03224" lon="-3.04949">
        <ele>178.8</ele>
        <time>2023-04-10T10:25:18Z</time>
      </trkpt>
      <trkpt lat="48.03222" lon="-3.04939">
        <ele>178.4</ele>
        <time>2023-04-10T10:25:19Z</time>
      </trkpt>
      <trkpt lat="48.03219" lon="-3.04928">
        <ele>177.6</ele>
        <time>2023-04-10T10:25:20Z</time>
      </trkpt>
      <trkpt lat="48.03214" lon="-3.04919">
        <ele>176.8</ele>
        <time>2023-04-10T10:25:21Z</time>
      </trkpt>
      <trkpt lat="48.03209" lon="-3.04911">
        <ele>176.2</ele>
        <time>2023-04-10T10:25:22Z</time>
      </trkpt>
      <trkpt lat="48.03204" lon="-3.04903">
        <ele>175.6</ele>
        <time>2023-04-10T10:25:23Z</time>
      </trkpt>
      <trkpt lat="48.03201" lon="-3.04896">
        <ele>174.8</ele>
        <time>2023-04-10T10:25:24Z</time>
      </trkpt>
      <trkpt lat="48.03198" lon="-3.04889">
        <ele>174.2</ele>
        <time>2023-04-10T10:25:25Z</time>
      </trkpt>
      <trkpt lat="48.03196" lon="-3.04882">
        <ele>173.8</ele>
        <time>2023-04-10T10:25:26Z</time>
      </trkpt>
      <trkpt lat="48.03194" lon="-3.04876">
        <ele>173.4</ele>
        <time>2023-04-10T10:25:27Z</time>
      </trkpt>
      <trkpt lat="48.03191" lon="-3.04872">
        <ele>173.2</ele>
        <time>2023-04-10T10:25:28Z</time>
      </trkpt>
      <trkpt lat="48.03188" lon="-3.04867">
        <ele>173.2</ele>
        <time>2023-04-10T10:25:29Z</time>
      </trkpt>
      <trkpt lat="48.03185" lon="-3.04861">
        <ele>173.2</ele>
        <time>2023-04-10T10:25:30Z</time>
      </trkpt>
      <trkpt lat="48.03183" lon="-3.04856">
        <ele>173.2</ele>
        <time>2023-04-10T10:25:31Z</time>
      </trkpt>
      <trkpt lat="48.03182" lon="-3.04851">
        <ele>173.2</ele>
        <time>2023-04-10T10:25:32Z</time>
      </trkpt>
      <trkpt lat="48.03168" lon="-3.04827">
        <ele>173</ele>
        <time>2023-04-10T10:25:37Z</time>
      </trkpt>
      <trkpt lat="48.03165" lon="-3.04822">
        <ele>173</ele>
        <time>2023-04-10T10:25:38Z</time>
      </trkpt>
      <trkpt lat="48.0316" lon="-3.0481">
        <ele>173</ele>
        <time>2023-04-10T10:25:40Z</time>
      </trkpt>
      <trkpt lat="48.03155" lon="-3.04798">
        <ele>173.2</ele>
        <time>2023-04-10T10:25:42Z</time>
      </trkpt>
      <trkpt lat="48.03137" lon="-3.04764">
        <ele>173.6</ele>
        <time>2023-04-10T10:25:47Z</time>
      </trkpt>
      <trkpt lat="48.03134" lon="-3.04757">
        <ele>173.6</ele>
        <time>2023-04-10T10:25:48Z</time>
      </trkpt>
      <trkpt lat="48.03134" lon="-3.04751">
        <ele>173.6</ele>
        <time>2023-04-10T10:25:49Z</time>
      </trkpt>
      <trkpt lat="48.03132" lon="-3.04745">
        <ele>173.6</ele>
        <time>2023-04-10T10:25:50Z</time>
      </trkpt>
      <trkpt lat="48.03131" lon="-3.04741">
        <ele>173.6</ele>
        <time>2023-04-10T10:25:51Z</time>
      </trkpt>
      <trkpt lat="48.03129" lon="-3.04736">
        <ele>173.6</ele>
        <time>2023-04-10T10:25:52Z</time>
      </trkpt>
      <trkpt lat="48.03126" lon="-3.04723">
        <ele>173.4</ele>
        <time>2023-04-10T10:25:54Z</time>
      </trkpt>
      <trkpt lat="48.03124" lon="-3.04719">
        <ele>173.4</ele>
        <time>2023-04-10T10:25:55Z</time>
      </trkpt>
      <trkpt lat="48.03123" lon="-3.04714">
        <ele>173.4</ele>
        <time>2023-04-10T10:25:56Z</time>
      </trkpt>
      <trkpt lat="48.03123" lon="-3.0471">
        <ele>173.4</ele>
        <time>2023-04-10T10:25:57Z</time>
      </trkpt>
      <trkpt lat="48.03124" lon="-3.04706">
        <ele>173.4</ele>
        <time>2023-04-10T10:25:58Z</time>
      </trkpt>
      <trkpt lat="48.03124" lon="-3.04702">
        <ele>173.4</ele>
        <time>2023-04-10T10:25:59Z</time>
      </trkpt>
      <trkpt lat="48.03123" lon="-3.047">
        <ele>173.4</ele>
        <time>2023-04-10T10:26:00Z</time>
      </trkpt>
      <trkpt lat="48.03122" lon="-3.04698">
        <ele>173.4</ele>
        <time>2023-04-10T10:26:01Z</time>
      </trkpt>
      <trkpt lat="48.03116" lon="-3.04698">
        <ele>173.4</ele>
        <time>2023-04-10T10:26:03Z</time>
      </trkpt>
      <trkpt lat="48.03108" lon="-3.04697">
        <ele>173.4</ele>
        <time>2023-04-10T10:26:05Z</time>
      </trkpt>
      <trkpt lat="48.03094" lon="-3.04693">
        <ele>173.2</ele>
        <time>2023-04-10T10:26:08Z</time>
      </trkpt>
      <trkpt lat="48.03083" lon="-3.04691">
        <ele>173.2</ele>
        <time>2023-04-10T10:26:10Z</time>
      </trkpt>
      <trkpt lat="48.03074" lon="-3.04684">
        <ele>173</ele>
        <time>2023-04-10T10:26:12Z</time>
      </trkpt>
      <trkpt lat="48.03074" lon="-3.04679">
        <ele>173</ele>
        <time>2023-04-10T10:26:13Z</time>
      </trkpt>
      <trkpt lat="48.03077" lon="-3.04673">
        <ele>172.8</ele>
        <time>2023-04-10T10:26:14Z</time>
      </trkpt>
      <trkpt lat="48.03079" lon="-3.04668">
        <ele>172.6</ele>
        <time>2023-04-10T10:26:15Z</time>
      </trkpt>
      <trkpt lat="48.03081" lon="-3.04665">
        <ele>172.2</ele>
        <time>2023-04-10T10:26:16Z</time>
      </trkpt>
      <trkpt lat="48.03085" lon="-3.0466">
        <ele>171.8</ele>
        <time>2023-04-10T10:26:17Z</time>
      </trkpt>
      <trkpt lat="48.03087" lon="-3.04656">
        <ele>171.6</ele>
        <time>2023-04-10T10:26:18Z</time>
      </trkpt>
      <trkpt lat="48.03089" lon="-3.04652">
        <ele>171.6</ele>
        <time>2023-04-10T10:26:19Z</time>
      </trkpt>
      <trkpt lat="48.03089" lon="-3.04648">
        <ele>171.4</ele>
        <time>2023-04-10T10:26:20Z</time>
      </trkpt>
      <trkpt lat="48.03087" lon="-3.04643">
        <ele>171.4</ele>
        <time>2023-04-10T10:26:21Z</time>
      </trkpt>
      <trkpt lat="48.03082" lon="-3.04636">
        <ele>171.4</ele>
        <time>2023-04-10T10:26:23Z</time>
      </trkpt>
      <trkpt lat="48.03071" lon="-3.04625">
        <ele>171.2</ele>
        <time>2023-04-10T10:26:26Z</time>
      </trkpt>
      <trkpt lat="48.03065" lon="-3.0462">
        <ele>171.2</ele>
        <time>2023-04-10T10:26:27Z</time>
      </trkpt>
      <trkpt lat="48.03047" lon="-3.04603">
        <ele>171</ele>
        <time>2023-04-10T10:26:30Z</time>
      </trkpt>
      <trkpt lat="48.03039" lon="-3.04595">
        <ele>171</ele>
        <time>2023-04-10T10:26:31Z</time>
      </trkpt>
      <trkpt lat="48.03034" lon="-3.04589">
        <ele>171</ele>
        <time>2023-04-10T10:26:32Z</time>
      </trkpt>
      <trkpt lat="48.03031" lon="-3.04584">
        <ele>171</ele>
        <time>2023-04-10T10:26:33Z</time>
      </trkpt>
      <trkpt lat="48.0303" lon="-3.0458">
        <ele>171</ele>
        <time>2023-04-10T10:26:34Z</time>
      </trkpt>
      <trkpt lat="48.03028" lon="-3.04578">
        <ele>170.6</ele>
        <time>2023-04-10T10:26:35Z</time>
      </trkpt>
      <trkpt lat="48.03027" lon="-3.04576">
        <ele>170.4</ele>
        <time>2023-04-10T10:26:36Z</time>
      </trkpt>
      <trkpt lat="48.03026" lon="-3.04575">
        <ele>170.4</ele>
        <time>2023-04-10T10:26:37Z</time>
      </trkpt>
      <trkpt lat="48.03025" lon="-3.04573">
        <ele>170.4</ele>
        <time>2023-04-10T10:26:38Z</time>
      </trkpt>
      <trkpt lat="48.03023" lon="-3.04572">
        <ele>170.4</ele>
        <time>2023-04-10T10:26:39Z</time>
      </trkpt>
      <trkpt lat="48.03022" lon="-3.04571">
        <ele>170.4</ele>
        <time>2023-04-10T10:26:40Z</time>
      </trkpt>
      <trkpt lat="48.0302" lon="-3.0457">
        <ele>170.4</ele>
        <time>2023-04-10T10:26:41Z</time>
      </trkpt>
      <trkpt lat="48.03018" lon="-3.0457">
        <ele>170.4</ele>
        <time>2023-04-10T10:26:42Z</time>
      </trkpt>
      <trkpt lat="48.03016" lon="-3.0457">
        <ele>170.4</ele>
        <time>2023-04-10T10:26:43Z</time>
      </trkpt>
      <trkpt lat="48.03013" lon="-3.0457">
        <ele>170.4</ele>
        <time>2023-04-10T10:26:44Z</time>
      </trkpt>
      <trkpt lat="48.03011" lon="-3.0457">
        <ele>170.4</ele>
        <time>2023-04-10T10:26:45Z</time>
      </trkpt>
      <trkpt lat="48.03004" lon="-3.0457">
        <ele>171</ele>
        <time>2023-04-10T10:26:48Z</time>
      </trkpt>
      <trkpt lat="48.03" lon="-3.04566">
        <ele>171.6</ele>
        <time>2023-04-10T10:26:50Z</time>
      </trkpt>
      <trkpt lat="48.03" lon="-3.04563">
        <ele>172</ele>
        <time>2023-04-10T10:26:51Z</time>
      </trkpt>
      <trkpt lat="48.02999" lon="-3.04556">
        <ele>172.6</ele>
        <time>2023-04-10T10:26:53Z</time>
      </trkpt>
      <trkpt lat="48.03" lon="-3.04549">
        <ele>172.8</ele>
        <time>2023-04-10T10:26:55Z</time>
      </trkpt>
      <trkpt lat="48.03001" lon="-3.04546">
        <ele>173</ele>
        <time>2023-04-10T10:26:56Z</time>
      </trkpt>
      <trkpt lat="48.03001" lon="-3.04544">
        <ele>173.2</ele>
        <time>2023-04-10T10:26:57Z</time>
      </trkpt>
      <trkpt lat="48.02998" lon="-3.04541">
        <ele>173.4</ele>
        <time>2023-04-10T10:26:58Z</time>
      </trkpt>
      <trkpt lat="48.02996" lon="-3.04539">
        <ele>173.6</ele>
        <time>2023-04-10T10:26:59Z</time>
      </trkpt>
      <trkpt lat="48.02993" lon="-3.04537">
        <ele>174</ele>
        <time>2023-04-10T10:27:00Z</time>
      </trkpt>
      <trkpt lat="48.02991" lon="-3.04535">
        <ele>174.2</ele>
        <time>2023-04-10T10:27:01Z</time>
      </trkpt>
      <trkpt lat="48.0299" lon="-3.04533">
        <ele>174.2</ele>
        <time>2023-04-10T10:27:02Z</time>
      </trkpt>
      <trkpt lat="48.02987" lon="-3.04531">
        <ele>174.4</ele>
        <time>2023-04-10T10:27:03Z</time>
      </trkpt>
      <trkpt lat="48.02985" lon="-3.04529">
        <ele>174.4</ele>
        <time>2023-04-10T10:27:04Z</time>
      </trkpt>
      <trkpt lat="48.02982" lon="-3.04527">
        <ele>174.4</ele>
        <time>2023-04-10T10:27:05Z</time>
      </trkpt>
      <trkpt lat="48.02981" lon="-3.04526">
        <ele>174.6</ele>
        <time>2023-04-10T10:27:06Z</time>
      </trkpt>
      <trkpt lat="48.02979" lon="-3.04524">
        <ele>174.8</ele>
        <time>2023-04-10T10:27:07Z</time>
      </trkpt>
      <trkpt lat="48.02975" lon="-3.04523">
        <ele>175</ele>
        <time>2023-04-10T10:27:08Z</time>
      </trkpt>
      <trkpt lat="48.02972" lon="-3.0452">
        <ele>175.2</ele>
        <time>2023-04-10T10:27:09Z</time>
      </trkpt>
      <trkpt lat="48.02969" lon="-3.04517">
        <ele>175.4</ele>
        <time>2023-04-10T10:27:10Z</time>
      </trkpt>
      <trkpt lat="48.02966" lon="-3.04514">
        <ele>175.6</ele>
        <time>2023-04-10T10:27:11Z</time>
      </trkpt>
      <trkpt lat="48.02964" lon="-3.04511">
        <ele>175.8</ele>
        <time>2023-04-10T10:27:12Z</time>
      </trkpt>
      <trkpt lat="48.02962" lon="-3.0451">
        <ele>176</ele>
        <time>2023-04-10T10:27:13Z</time>
      </trkpt>
      <trkpt lat="48.02956" lon="-3.04508">
        <ele>176.2</ele>
        <time>2023-04-10T10:27:14Z</time>
      </trkpt>
      <trkpt lat="48.02953" lon="-3.04506">
        <ele>176.4</ele>
        <time>2023-04-10T10:27:15Z</time>
      </trkpt>
      <trkpt lat="48.02951" lon="-3.04505">
        <ele>176.4</ele>
        <time>2023-04-10T10:27:16Z</time>
      </trkpt>
      <trkpt lat="48.02949" lon="-3.04505">
        <ele>176.6</ele>
        <time>2023-04-10T10:27:17Z</time>
      </trkpt>
      <trkpt lat="48.02946" lon="-3.04505">
        <ele>176.6</ele>
        <time>2023-04-10T10:27:18Z</time>
      </trkpt>
      <trkpt lat="48.02942" lon="-3.04504">
        <ele>176.8</ele>
        <time>2023-04-10T10:27:19Z</time>
      </trkpt>
      <trkpt lat="48.02939" lon="-3.04503">
        <ele>176.8</ele>
        <time>2023-04-10T10:27:20Z</time>
      </trkpt>
      <trkpt lat="48.02936" lon="-3.04502">
        <ele>177</ele>
        <time>2023-04-10T10:27:21Z</time>
      </trkpt>
      <trkpt lat="48.02934" lon="-3.04499">
        <ele>177</ele>
        <time>2023-04-10T10:27:22Z</time>
      </trkpt>
      <trkpt lat="48.02932" lon="-3.04495">
        <ele>177</ele>
        <time>2023-04-10T10:27:23Z</time>
      </trkpt>
      <trkpt lat="48.02931" lon="-3.0449">
        <ele>177.2</ele>
        <time>2023-04-10T10:27:24Z</time>
      </trkpt>
      <trkpt lat="48.0293" lon="-3.04486">
        <ele>177.2</ele>
        <time>2023-04-10T10:27:25Z</time>
      </trkpt>
      <trkpt lat="48.02929" lon="-3.0448">
        <ele>177.4</ele>
        <time>2023-04-10T10:27:26Z</time>
      </trkpt>
      <trkpt lat="48.02928" lon="-3.04476">
        <ele>177.4</ele>
        <time>2023-04-10T10:27:27Z</time>
      </trkpt>
      <trkpt lat="48.02925" lon="-3.04472">
        <ele>177.4</ele>
        <time>2023-04-10T10:27:28Z</time>
      </trkpt>
      <trkpt lat="48.02923" lon="-3.04468">
        <ele>177.6</ele>
        <time>2023-04-10T10:27:29Z</time>
      </trkpt>
      <trkpt lat="48.0292" lon="-3.04464">
        <ele>177.6</ele>
        <time>2023-04-10T10:27:30Z</time>
      </trkpt>
      <trkpt lat="48.02918" lon="-3.04458">
        <ele>177.6</ele>
        <time>2023-04-10T10:27:31Z</time>
      </trkpt>
      <trkpt lat="48.02916" lon="-3.04453">
        <ele>177.6</ele>
        <time>2023-04-10T10:27:32Z</time>
      </trkpt>
      <trkpt lat="48.02915" lon="-3.04448">
        <ele>177.6</ele>
        <time>2023-04-10T10:27:33Z</time>
      </trkpt>
      <trkpt lat="48.02914" lon="-3.04442">
        <ele>177.8</ele>
        <time>2023-04-10T10:27:34Z</time>
      </trkpt>
      <trkpt lat="48.02913" lon="-3.04436">
        <ele>177.8</ele>
        <time>2023-04-10T10:27:35Z</time>
      </trkpt>
      <trkpt lat="48.02912" lon="-3.04429">
        <ele>177.8</ele>
        <time>2023-04-10T10:27:36Z</time>
      </trkpt>
      <trkpt lat="48.02912" lon="-3.04422">
        <ele>177.8</ele>
        <time>2023-04-10T10:27:37Z</time>
      </trkpt>
      <trkpt lat="48.02912" lon="-3.04415">
        <ele>177.8</ele>
        <time>2023-04-10T10:27:38Z</time>
      </trkpt>
      <trkpt lat="48.02911" lon="-3.04384">
        <ele>177.8</ele>
        <time>2023-04-10T10:27:42Z</time>
      </trkpt>
      <trkpt lat="48.02912" lon="-3.04377">
        <ele>177.6</ele>
        <time>2023-04-10T10:27:43Z</time>
      </trkpt>
      <trkpt lat="48.02912" lon="-3.04371">
        <ele>177.6</ele>
        <time>2023-04-10T10:27:44Z</time>
      </trkpt>
      <trkpt lat="48.02914" lon="-3.04357">
        <ele>177.6</ele>
        <time>2023-04-10T10:27:46Z</time>
      </trkpt>
      <trkpt lat="48.02916" lon="-3.0435">
        <ele>177.6</ele>
        <time>2023-04-10T10:27:47Z</time>
      </trkpt>
      <trkpt lat="48.02918" lon="-3.04339">
        <ele>177.4</ele>
        <time>2023-04-10T10:27:49Z</time>
      </trkpt>
      <trkpt lat="48.02921" lon="-3.04328">
        <ele>177.2</ele>
        <time>2023-04-10T10:27:51Z</time>
      </trkpt>
      <trkpt lat="48.02922" lon="-3.04323">
        <ele>177.2</ele>
        <time>2023-04-10T10:27:52Z</time>
      </trkpt>
      <trkpt lat="48.02923" lon="-3.04318">
        <ele>176.8</ele>
        <time>2023-04-10T10:27:53Z</time>
      </trkpt>
      <trkpt lat="48.02923" lon="-3.04317">
        <ele>176.6</ele>
        <time>2023-04-10T10:27:54Z</time>
      </trkpt>
      <trkpt lat="48.02923" lon="-3.04316">
        <ele>176.6</ele>
        <time>2023-04-10T10:27:55Z</time>
      </trkpt>
      <trkpt lat="48.02917" lon="-3.04312">
        <ele>175.4</ele>
        <time>2023-04-10T10:28:00Z</time>
      </trkpt>
      <trkpt lat="48.02916" lon="-3.0431">
        <ele>175.2</ele>
        <time>2023-04-10T10:28:01Z</time>
      </trkpt>
      <trkpt lat="48.02917" lon="-3.04308">
        <ele>175</ele>
        <time>2023-04-10T10:28:02Z</time>
      </trkpt>
      <trkpt lat="48.02919" lon="-3.04302">
        <ele>174.6</ele>
        <time>2023-04-10T10:28:05Z</time>
      </trkpt>
      <trkpt lat="48.02923" lon="-3.04283">
        <ele>174.4</ele>
        <time>2023-04-10T10:28:09Z</time>
      </trkpt>
      <trkpt lat="48.02926" lon="-3.04271">
        <ele>174</ele>
        <time>2023-04-10T10:28:11Z</time>
      </trkpt>
      <trkpt lat="48.0293" lon="-3.04259">
        <ele>173.8</ele>
        <time>2023-04-10T10:28:13Z</time>
      </trkpt>
      <trkpt lat="48.02932" lon="-3.04254">
        <ele>173.8</ele>
        <time>2023-04-10T10:28:14Z</time>
      </trkpt>
      <trkpt lat="48.02935" lon="-3.0425">
        <ele>173.8</ele>
        <time>2023-04-10T10:28:15Z</time>
      </trkpt>
      <trkpt lat="48.02938" lon="-3.04247">
        <ele>173.6</ele>
        <time>2023-04-10T10:28:16Z</time>
      </trkpt>
      <trkpt lat="48.0294" lon="-3.04243">
        <ele>173.6</ele>
        <time>2023-04-10T10:28:17Z</time>
      </trkpt>
      <trkpt lat="48.02941" lon="-3.04239">
        <ele>173.6</ele>
        <time>2023-04-10T10:28:18Z</time>
      </trkpt>
      <trkpt lat="48.02943" lon="-3.04234">
        <ele>173.6</ele>
        <time>2023-04-10T10:28:19Z</time>
      </trkpt>
      <trkpt lat="48.02944" lon="-3.04229">
        <ele>173.6</ele>
        <time>2023-04-10T10:28:20Z</time>
      </trkpt>
      <trkpt lat="48.02945" lon="-3.04224">
        <ele>173.6</ele>
        <time>2023-04-10T10:28:21Z</time>
      </trkpt>
      <trkpt lat="48.02948" lon="-3.04207">
        <ele>173.6</ele>
        <time>2023-04-10T10:28:24Z</time>
      </trkpt>
      <trkpt lat="48.02951" lon="-3.04196">
        <ele>173.8</ele>
        <time>2023-04-10T10:28:26Z</time>
      </trkpt>
      <trkpt lat="48.02958" lon="-3.04176">
        <ele>174.4</ele>
        <time>2023-04-10T10:28:30Z</time>
      </trkpt>
      <trkpt lat="48.02962" lon="-3.04166">
        <ele>175</ele>
        <time>2023-04-10T10:28:32Z</time>
      </trkpt>
      <trkpt lat="48.02967" lon="-3.04154">
        <ele>175.4</ele>
        <time>2023-04-10T10:28:34Z</time>
      </trkpt>
      <trkpt lat="48.02972" lon="-3.04143">
        <ele>175.6</ele>
        <time>2023-04-10T10:28:36Z</time>
      </trkpt>
      <trkpt lat="48.02978" lon="-3.04132">
        <ele>176</ele>
        <time>2023-04-10T10:28:38Z</time>
      </trkpt>
      <trkpt lat="48.02984" lon="-3.04114">
        <ele>176.6</ele>
        <time>2023-04-10T10:28:41Z</time>
      </trkpt>
      <trkpt lat="48.02989" lon="-3.04103">
        <ele>176.8</ele>
        <time>2023-04-10T10:28:43Z</time>
      </trkpt>
      <trkpt lat="48.02991" lon="-3.04097">
        <ele>177</ele>
        <time>2023-04-10T10:28:44Z</time>
      </trkpt>
      <trkpt lat="48.02991" lon="-3.04092">
        <ele>177</ele>
        <time>2023-04-10T10:28:45Z</time>
      </trkpt>
      <trkpt lat="48.02986" lon="-3.04087">
        <ele>177</ele>
        <time>2023-04-10T10:28:46Z</time>
      </trkpt>
      <trkpt lat="48.0298" lon="-3.04083">
        <ele>177</ele>
        <time>2023-04-10T10:28:47Z</time>
      </trkpt>
      <trkpt lat="48.02977" lon="-3.04079">
        <ele>177</ele>
        <time>2023-04-10T10:28:48Z</time>
      </trkpt>
      <trkpt lat="48.02973" lon="-3.04075">
        <ele>177</ele>
        <time>2023-04-10T10:28:49Z</time>
      </trkpt>
      <trkpt lat="48.02968" lon="-3.04071">
        <ele>177</ele>
        <time>2023-04-10T10:28:50Z</time>
      </trkpt>
      <trkpt lat="48.02965" lon="-3.04067">
        <ele>177</ele>
        <time>2023-04-10T10:28:51Z</time>
      </trkpt>
      <trkpt lat="48.0296" lon="-3.04061">
        <ele>177</ele>
        <time>2023-04-10T10:28:52Z</time>
      </trkpt>
      <trkpt lat="48.02956" lon="-3.04056">
        <ele>177</ele>
        <time>2023-04-10T10:28:53Z</time>
      </trkpt>
      <trkpt lat="48.02953" lon="-3.04053">
        <ele>177</ele>
        <time>2023-04-10T10:28:54Z</time>
      </trkpt>
      <trkpt lat="48.02948" lon="-3.04047">
        <ele>176.8</ele>
        <time>2023-04-10T10:28:55Z</time>
      </trkpt>
      <trkpt lat="48.02929" lon="-3.04023">
        <ele>176.2</ele>
        <time>2023-04-10T10:28:59Z</time>
      </trkpt>
      <trkpt lat="48.02905" lon="-3.03996">
        <ele>175.4</ele>
        <time>2023-04-10T10:29:03Z</time>
      </trkpt>
      <trkpt lat="48.02889" lon="-3.0398">
        <ele>175</ele>
        <time>2023-04-10T10:29:05Z</time>
      </trkpt>
      <trkpt lat="48.02865" lon="-3.03957">
        <ele>173.8</ele>
        <time>2023-04-10T10:29:08Z</time>
      </trkpt>
      <trkpt lat="48.02848" lon="-3.0394">
        <ele>172.6</ele>
        <time>2023-04-10T10:29:10Z</time>
      </trkpt>
      <trkpt lat="48.0284" lon="-3.03931">
        <ele>171.8</ele>
        <time>2023-04-10T10:29:11Z</time>
      </trkpt>
      <trkpt lat="48.02831" lon="-3.03922">
        <ele>171</ele>
        <time>2023-04-10T10:29:12Z</time>
      </trkpt>
      <trkpt lat="48.02823" lon="-3.03914">
        <ele>170</ele>
        <time>2023-04-10T10:29:13Z</time>
      </trkpt>
      <trkpt lat="48.02815" lon="-3.03905">
        <ele>169.4</ele>
        <time>2023-04-10T10:29:14Z</time>
      </trkpt>
      <trkpt lat="48.02809" lon="-3.03898">
        <ele>168.2</ele>
        <time>2023-04-10T10:29:15Z</time>
      </trkpt>
      <trkpt lat="48.02801" lon="-3.0389">
        <ele>167.6</ele>
        <time>2023-04-10T10:29:16Z</time>
      </trkpt>
      <trkpt lat="48.02794" lon="-3.03885">
        <ele>167.2</ele>
        <time>2023-04-10T10:29:17Z</time>
      </trkpt>
      <trkpt lat="48.02787" lon="-3.03879">
        <ele>166.6</ele>
        <time>2023-04-10T10:29:18Z</time>
      </trkpt>
      <trkpt lat="48.02782" lon="-3.03875">
        <ele>165.8</ele>
        <time>2023-04-10T10:29:19Z</time>
      </trkpt>
      <trkpt lat="48.02777" lon="-3.03873">
        <ele>165.8</ele>
        <time>2023-04-10T10:29:20Z</time>
      </trkpt>
      <trkpt lat="48.02772" lon="-3.03869">
        <ele>165.2</ele>
        <time>2023-04-10T10:29:21Z</time>
      </trkpt>
      <trkpt lat="48.02767" lon="-3.03865">
        <ele>164.6</ele>
        <time>2023-04-10T10:29:22Z</time>
      </trkpt>
      <trkpt lat="48.02762" lon="-3.03862">
        <ele>164.4</ele>
        <time>2023-04-10T10:29:23Z</time>
      </trkpt>
      <trkpt lat="48.02759" lon="-3.0386">
        <ele>163.8</ele>
        <time>2023-04-10T10:29:24Z</time>
      </trkpt>
      <trkpt lat="48.02754" lon="-3.03858">
        <ele>163.6</ele>
        <time>2023-04-10T10:29:25Z</time>
      </trkpt>
      <trkpt lat="48.0275" lon="-3.03855">
        <ele>163.6</ele>
        <time>2023-04-10T10:29:26Z</time>
      </trkpt>
      <trkpt lat="48.02747" lon="-3.03852">
        <ele>163.4</ele>
        <time>2023-04-10T10:29:27Z</time>
      </trkpt>
      <trkpt lat="48.02744" lon="-3.0385">
        <ele>163.4</ele>
        <time>2023-04-10T10:29:28Z</time>
      </trkpt>
      <trkpt lat="48.02741" lon="-3.03847">
        <ele>163.4</ele>
        <time>2023-04-10T10:29:29Z</time>
      </trkpt>
      <trkpt lat="48.02738" lon="-3.03845">
        <ele>163.4</ele>
        <time>2023-04-10T10:29:30Z</time>
      </trkpt>
      <trkpt lat="48.02735" lon="-3.03843">
        <ele>163.4</ele>
        <time>2023-04-10T10:29:31Z</time>
      </trkpt>
      <trkpt lat="48.02732" lon="-3.0384">
        <ele>163.4</ele>
        <time>2023-04-10T10:29:32Z</time>
      </trkpt>
      <trkpt lat="48.02729" lon="-3.03837">
        <ele>163.4</ele>
        <time>2023-04-10T10:29:33Z</time>
      </trkpt>
      <trkpt lat="48.02726" lon="-3.03834">
        <ele>163.6</ele>
        <time>2023-04-10T10:29:34Z</time>
      </trkpt>
      <trkpt lat="48.02723" lon="-3.03832">
        <ele>163.6</ele>
        <time>2023-04-10T10:29:35Z</time>
      </trkpt>
      <trkpt lat="48.02721" lon="-3.0383">
        <ele>164</ele>
        <time>2023-04-10T10:29:36Z</time>
      </trkpt>
      <trkpt lat="48.02718" lon="-3.03828">
        <ele>164.2</ele>
        <time>2023-04-10T10:29:37Z</time>
      </trkpt>
      <trkpt lat="48.02715" lon="-3.03826">
        <ele>164.4</ele>
        <time>2023-04-10T10:29:38Z</time>
      </trkpt>
      <trkpt lat="48.02711" lon="-3.03824">
        <ele>164.8</ele>
        <time>2023-04-10T10:29:39Z</time>
      </trkpt>
      <trkpt lat="48.0269" lon="-3.03812">
        <ele>166.2</ele>
        <time>2023-04-10T10:29:45Z</time>
      </trkpt>
      <trkpt lat="48.02687" lon="-3.0381">
        <ele>166.4</ele>
        <time>2023-04-10T10:29:46Z</time>
      </trkpt>
      <trkpt lat="48.02679" lon="-3.03805">
        <ele>167</ele>
        <time>2023-04-10T10:29:48Z</time>
      </trkpt>
      <trkpt lat="48.02676" lon="-3.03804">
        <ele>167.2</ele>
        <time>2023-04-10T10:29:49Z</time>
      </trkpt>
      <trkpt lat="48.02665" lon="-3.03795">
        <ele>167.8</ele>
        <time>2023-04-10T10:29:52Z</time>
      </trkpt>
      <trkpt lat="48.02662" lon="-3.03793">
        <ele>168.2</ele>
        <time>2023-04-10T10:29:53Z</time>
      </trkpt>
      <trkpt lat="48.02655" lon="-3.03789">
        <ele>168.6</ele>
        <time>2023-04-10T10:29:55Z</time>
      </trkpt>
      <trkpt lat="48.02651" lon="-3.03787">
        <ele>169</ele>
        <time>2023-04-10T10:29:56Z</time>
      </trkpt>
      <trkpt lat="48.02647" lon="-3.03786">
        <ele>169.2</ele>
        <time>2023-04-10T10:29:57Z</time>
      </trkpt>
      <trkpt lat="48.02643" lon="-3.03784">
        <ele>169.4</ele>
        <time>2023-04-10T10:29:58Z</time>
      </trkpt>
      <trkpt lat="48.02639" lon="-3.03782">
        <ele>169.6</ele>
        <time>2023-04-10T10:29:59Z</time>
      </trkpt>
      <trkpt lat="48.02636" lon="-3.0378">
        <ele>169.6</ele>
        <time>2023-04-10T10:30:00Z</time>
      </trkpt>
      <trkpt lat="48.02632" lon="-3.03778">
        <ele>169.8</ele>
        <time>2023-04-10T10:30:01Z</time>
      </trkpt>
      <trkpt lat="48.02628" lon="-3.03776">
        <ele>169.8</ele>
        <time>2023-04-10T10:30:02Z</time>
      </trkpt>
      <trkpt lat="48.02625" lon="-3.03773">
        <ele>170.2</ele>
        <time>2023-04-10T10:30:03Z</time>
      </trkpt>
      <trkpt lat="48.02621" lon="-3.03771">
        <ele>170.2</ele>
        <time>2023-04-10T10:30:04Z</time>
      </trkpt>
      <trkpt lat="48.02617" lon="-3.03768">
        <ele>170.2</ele>
        <time>2023-04-10T10:30:05Z</time>
      </trkpt>
      <trkpt lat="48.02614" lon="-3.03766">
        <ele>170.4</ele>
        <time>2023-04-10T10:30:06Z</time>
      </trkpt>
      <trkpt lat="48.0261" lon="-3.03764">
        <ele>170.6</ele>
        <time>2023-04-10T10:30:07Z</time>
      </trkpt>
      <trkpt lat="48.02606" lon="-3.03761">
        <ele>170.8</ele>
        <time>2023-04-10T10:30:08Z</time>
      </trkpt>
      <trkpt lat="48.02602" lon="-3.03759">
        <ele>170.8</ele>
        <time>2023-04-10T10:30:09Z</time>
      </trkpt>
      <trkpt lat="48.02599" lon="-3.03757">
        <ele>171</ele>
        <time>2023-04-10T10:30:10Z</time>
      </trkpt>
      <trkpt lat="48.02594" lon="-3.03754">
        <ele>171.4</ele>
        <time>2023-04-10T10:30:11Z</time>
      </trkpt>
      <trkpt lat="48.02591" lon="-3.03752">
        <ele>171.6</ele>
        <time>2023-04-10T10:30:12Z</time>
      </trkpt>
      <trkpt lat="48.02587" lon="-3.0375">
        <ele>171.8</ele>
        <time>2023-04-10T10:30:13Z</time>
      </trkpt>
      <trkpt lat="48.02584" lon="-3.03748">
        <ele>172</ele>
        <time>2023-04-10T10:30:14Z</time>
      </trkpt>
      <trkpt lat="48.0258" lon="-3.03745">
        <ele>172</ele>
        <time>2023-04-10T10:30:15Z</time>
      </trkpt>
      <trkpt lat="48.02577" lon="-3.03743">
        <ele>172.2</ele>
        <time>2023-04-10T10:30:16Z</time>
      </trkpt>
      <trkpt lat="48.02573" lon="-3.0374">
        <ele>172.2</ele>
        <time>2023-04-10T10:30:17Z</time>
      </trkpt>
      <trkpt lat="48.0257" lon="-3.03737">
        <ele>172.4</ele>
        <time>2023-04-10T10:30:18Z</time>
      </trkpt>
      <trkpt lat="48.02566" lon="-3.03735">
        <ele>172.6</ele>
        <time>2023-04-10T10:30:19Z</time>
      </trkpt>
      <trkpt lat="48.02563" lon="-3.03732">
        <ele>172.6</ele>
        <time>2023-04-10T10:30:20Z</time>
      </trkpt>
      <trkpt lat="48.02559" lon="-3.0373">
        <ele>172.8</ele>
        <time>2023-04-10T10:30:21Z</time>
      </trkpt>
      <trkpt lat="48.02556" lon="-3.03728">
        <ele>172.8</ele>
        <time>2023-04-10T10:30:22Z</time>
      </trkpt>
      <trkpt lat="48.02553" lon="-3.03725">
        <ele>172.8</ele>
        <time>2023-04-10T10:30:23Z</time>
      </trkpt>
      <trkpt lat="48.0255" lon="-3.03722">
        <ele>173</ele>
        <time>2023-04-10T10:30:24Z</time>
      </trkpt>
      <trkpt lat="48.02547" lon="-3.03719">
        <ele>173.2</ele>
        <time>2023-04-10T10:30:25Z</time>
      </trkpt>
      <trkpt lat="48.02545" lon="-3.03717">
        <ele>173.2</ele>
        <time>2023-04-10T10:30:26Z</time>
      </trkpt>
      <trkpt lat="48.02542" lon="-3.03716">
        <ele>173.2</ele>
        <time>2023-04-10T10:30:27Z</time>
      </trkpt>
      <trkpt lat="48.0254" lon="-3.03714">
        <ele>173.4</ele>
        <time>2023-04-10T10:30:28Z</time>
      </trkpt>
      <trkpt lat="48.02537" lon="-3.03712">
        <ele>173.4</ele>
        <time>2023-04-10T10:30:29Z</time>
      </trkpt>
      <trkpt lat="48.02534" lon="-3.0371">
        <ele>173.4</ele>
        <time>2023-04-10T10:30:30Z</time>
      </trkpt>
      <trkpt lat="48.02531" lon="-3.03709">
        <ele>173.6</ele>
        <time>2023-04-10T10:30:31Z</time>
      </trkpt>
      <trkpt lat="48.02528" lon="-3.03707">
        <ele>173.6</ele>
        <time>2023-04-10T10:30:32Z</time>
      </trkpt>
      <trkpt lat="48.02526" lon="-3.03705">
        <ele>173.8</ele>
        <time>2023-04-10T10:30:33Z</time>
      </trkpt>
      <trkpt lat="48.02522" lon="-3.03703">
        <ele>174</ele>
        <time>2023-04-10T10:30:34Z</time>
      </trkpt>
      <trkpt lat="48.02519" lon="-3.03701">
        <ele>174</ele>
        <time>2023-04-10T10:30:35Z</time>
      </trkpt>
      <trkpt lat="48.02515" lon="-3.037">
        <ele>174.2</ele>
        <time>2023-04-10T10:30:36Z</time>
      </trkpt>
      <trkpt lat="48.02512" lon="-3.03698">
        <ele>174.4</ele>
        <time>2023-04-10T10:30:37Z</time>
      </trkpt>
      <trkpt lat="48.02507" lon="-3.03696">
        <ele>174.4</ele>
        <time>2023-04-10T10:30:38Z</time>
      </trkpt>
      <trkpt lat="48.02504" lon="-3.03694">
        <ele>174.6</ele>
        <time>2023-04-10T10:30:39Z</time>
      </trkpt>
      <trkpt lat="48.025" lon="-3.03691">
        <ele>174.6</ele>
        <time>2023-04-10T10:30:40Z</time>
      </trkpt>
      <trkpt lat="48.02496" lon="-3.03689">
        <ele>174.8</ele>
        <time>2023-04-10T10:30:41Z</time>
      </trkpt>
      <trkpt lat="48.02492" lon="-3.03687">
        <ele>174.8</ele>
        <time>2023-04-10T10:30:42Z</time>
      </trkpt>
      <trkpt lat="48.02488" lon="-3.03684">
        <ele>175.2</ele>
        <time>2023-04-10T10:30:43Z</time>
      </trkpt>
      <trkpt lat="48.02484" lon="-3.03682">
        <ele>175.6</ele>
        <time>2023-04-10T10:30:44Z</time>
      </trkpt>
      <trkpt lat="48.0248" lon="-3.0368">
        <ele>175.8</ele>
        <time>2023-04-10T10:30:45Z</time>
      </trkpt>
      <trkpt lat="48.02475" lon="-3.03678">
        <ele>176</ele>
        <time>2023-04-10T10:30:46Z</time>
      </trkpt>
      <trkpt lat="48.02471" lon="-3.03673">
        <ele>176.2</ele>
        <time>2023-04-10T10:30:47Z</time>
      </trkpt>
      <trkpt lat="48.0247" lon="-3.03668">
        <ele>176.2</ele>
        <time>2023-04-10T10:30:48Z</time>
      </trkpt>
      <trkpt lat="48.02469" lon="-3.03662">
        <ele>176.2</ele>
        <time>2023-04-10T10:30:49Z</time>
      </trkpt>
      <trkpt lat="48.0247" lon="-3.03658">
        <ele>176.2</ele>
        <time>2023-04-10T10:30:50Z</time>
      </trkpt>
      <trkpt lat="48.02473" lon="-3.03653">
        <ele>176.6</ele>
        <time>2023-04-10T10:30:51Z</time>
      </trkpt>
      <trkpt lat="48.02476" lon="-3.03648">
        <ele>176.4</ele>
        <time>2023-04-10T10:30:52Z</time>
      </trkpt>
      <trkpt lat="48.02478" lon="-3.03643">
        <ele>176.4</ele>
        <time>2023-04-10T10:30:53Z</time>
      </trkpt>
      <trkpt lat="48.02481" lon="-3.03638">
        <ele>176.8</ele>
        <time>2023-04-10T10:30:54Z</time>
      </trkpt>
      <trkpt lat="48.02483" lon="-3.03634">
        <ele>176.6</ele>
        <time>2023-04-10T10:30:55Z</time>
      </trkpt>
      <trkpt lat="48.02486" lon="-3.0363">
        <ele>176.6</ele>
        <time>2023-04-10T10:30:56Z</time>
      </trkpt>
      <trkpt lat="48.02491" lon="-3.03624">
        <ele>176.6</ele>
        <time>2023-04-10T10:30:57Z</time>
      </trkpt>
      <trkpt lat="48.02493" lon="-3.03621">
        <ele>176.8</ele>
        <time>2023-04-10T10:30:58Z</time>
      </trkpt>
      <trkpt lat="48.02497" lon="-3.03616">
        <ele>176.8</ele>
        <time>2023-04-10T10:30:59Z</time>
      </trkpt>
      <trkpt lat="48.025" lon="-3.03613">
        <ele>177</ele>
        <time>2023-04-10T10:31:00Z</time>
      </trkpt>
      <trkpt lat="48.02502" lon="-3.03608">
        <ele>177.2</ele>
        <time>2023-04-10T10:31:01Z</time>
      </trkpt>
      <trkpt lat="48.02505" lon="-3.03603">
        <ele>177.4</ele>
        <time>2023-04-10T10:31:02Z</time>
      </trkpt>
      <trkpt lat="48.02508" lon="-3.03599">
        <ele>177.6</ele>
        <time>2023-04-10T10:31:03Z</time>
      </trkpt>
      <trkpt lat="48.02511" lon="-3.03594">
        <ele>177.6</ele>
        <time>2023-04-10T10:31:04Z</time>
      </trkpt>
      <trkpt lat="48.02515" lon="-3.0359">
        <ele>177.8</ele>
        <time>2023-04-10T10:31:05Z</time>
      </trkpt>
      <trkpt lat="48.02518" lon="-3.03586">
        <ele>178</ele>
        <time>2023-04-10T10:31:06Z</time>
      </trkpt>
      <trkpt lat="48.02522" lon="-3.03582">
        <ele>178.2</ele>
        <time>2023-04-10T10:31:07Z</time>
      </trkpt>
      <trkpt lat="48.02526" lon="-3.03578">
        <ele>178.2</ele>
        <time>2023-04-10T10:31:08Z</time>
      </trkpt>
      <trkpt lat="48.0253" lon="-3.03575">
        <ele>178.4</ele>
        <time>2023-04-10T10:31:09Z</time>
      </trkpt>
      <trkpt lat="48.02535" lon="-3.03573">
        <ele>178.6</ele>
        <time>2023-04-10T10:31:10Z</time>
      </trkpt>
      <trkpt lat="48.02539" lon="-3.0357">
        <ele>178.6</ele>
        <time>2023-04-10T10:31:11Z</time>
      </trkpt>
      <trkpt lat="48.02544" lon="-3.03568">
        <ele>178.6</ele>
        <time>2023-04-10T10:31:12Z</time>
      </trkpt>
      <trkpt lat="48.02548" lon="-3.03566">
        <ele>178.6</ele>
        <time>2023-04-10T10:31:13Z</time>
      </trkpt>
      <trkpt lat="48.02552" lon="-3.03564">
        <ele>178.6</ele>
        <time>2023-04-10T10:31:14Z</time>
      </trkpt>
      <trkpt lat="48.02556" lon="-3.03561">
        <ele>178.6</ele>
        <time>2023-04-10T10:31:15Z</time>
      </trkpt>
      <trkpt lat="48.0256" lon="-3.03559">
        <ele>178.6</ele>
        <time>2023-04-10T10:31:16Z</time>
      </trkpt>
      <trkpt lat="48.02564" lon="-3.03556">
        <ele>178.6</ele>
        <time>2023-04-10T10:31:17Z</time>
      </trkpt>
      <trkpt lat="48.02568" lon="-3.03552">
        <ele>178.6</ele>
        <time>2023-04-10T10:31:18Z</time>
      </trkpt>
      <trkpt lat="48.02572" lon="-3.03547">
        <ele>178.6</ele>
        <time>2023-04-10T10:31:19Z</time>
      </trkpt>
      <trkpt lat="48.02577" lon="-3.03541">
        <ele>178.6</ele>
        <time>2023-04-10T10:31:20Z</time>
      </trkpt>
      <trkpt lat="48.0258" lon="-3.03535">
        <ele>178.6</ele>
        <time>2023-04-10T10:31:21Z</time>
      </trkpt>
      <trkpt lat="48.0259" lon="-3.03512">
        <ele>178.2</ele>
        <time>2023-04-10T10:31:24Z</time>
      </trkpt>
      <trkpt lat="48.02599" lon="-3.03495">
        <ele>177.8</ele>
        <time>2023-04-10T10:31:26Z</time>
      </trkpt>
      <trkpt lat="48.02611" lon="-3.03478">
        <ele>177.4</ele>
        <time>2023-04-10T10:31:28Z</time>
      </trkpt>
      <trkpt lat="48.02618" lon="-3.03471">
        <ele>177.2</ele>
        <time>2023-04-10T10:31:29Z</time>
      </trkpt>
      <trkpt lat="48.02625" lon="-3.03465">
        <ele>176.6</ele>
        <time>2023-04-10T10:31:30Z</time>
      </trkpt>
      <trkpt lat="48.02633" lon="-3.03462">
        <ele>176.2</ele>
        <time>2023-04-10T10:31:31Z</time>
      </trkpt>
      <trkpt lat="48.02642" lon="-3.03462">
        <ele>175.8</ele>
        <time>2023-04-10T10:31:32Z</time>
      </trkpt>
      <trkpt lat="48.02649" lon="-3.03462">
        <ele>175.4</ele>
        <time>2023-04-10T10:31:33Z</time>
      </trkpt>
      <trkpt lat="48.02659" lon="-3.0346">
        <ele>175</ele>
        <time>2023-04-10T10:31:34Z</time>
      </trkpt>
      <trkpt lat="48.02668" lon="-3.03458">
        <ele>175</ele>
        <time>2023-04-10T10:31:35Z</time>
      </trkpt>
      <trkpt lat="48.02677" lon="-3.03455">
        <ele>174.4</ele>
        <time>2023-04-10T10:31:36Z</time>
      </trkpt>
      <trkpt lat="48.02685" lon="-3.03451">
        <ele>173.6</ele>
        <time>2023-04-10T10:31:37Z</time>
      </trkpt>
      <trkpt lat="48.02691" lon="-3.03449">
        <ele>172.6</ele>
        <time>2023-04-10T10:31:38Z</time>
      </trkpt>
      <trkpt lat="48.02698" lon="-3.03446">
        <ele>171.8</ele>
        <time>2023-04-10T10:31:39Z</time>
      </trkpt>
      <trkpt lat="48.02705" lon="-3.03442">
        <ele>170.8</ele>
        <time>2023-04-10T10:31:40Z</time>
      </trkpt>
      <trkpt lat="48.02712" lon="-3.03438">
        <ele>170</ele>
        <time>2023-04-10T10:31:41Z</time>
      </trkpt>
      <trkpt lat="48.02719" lon="-3.03433">
        <ele>169</ele>
        <time>2023-04-10T10:31:42Z</time>
      </trkpt>
      <trkpt lat="48.02723" lon="-3.0343">
        <ele>168.2</ele>
        <time>2023-04-10T10:31:43Z</time>
      </trkpt>
      <trkpt lat="48.02729" lon="-3.03423">
        <ele>167.8</ele>
        <time>2023-04-10T10:31:44Z</time>
      </trkpt>
      <trkpt lat="48.02734" lon="-3.03417">
        <ele>167.4</ele>
        <time>2023-04-10T10:31:45Z</time>
      </trkpt>
      <trkpt lat="48.02738" lon="-3.0341">
        <ele>167.2</ele>
        <time>2023-04-10T10:31:46Z</time>
      </trkpt>
      <trkpt lat="48.02741" lon="-3.03404">
        <ele>167.2</ele>
        <time>2023-04-10T10:31:47Z</time>
      </trkpt>
      <trkpt lat="48.02744" lon="-3.03398">
        <ele>167</ele>
        <time>2023-04-10T10:31:48Z</time>
      </trkpt>
      <trkpt lat="48.02746" lon="-3.03393">
        <ele>167</ele>
        <time>2023-04-10T10:31:49Z</time>
      </trkpt>
      <trkpt lat="48.02749" lon="-3.03387">
        <ele>167</ele>
        <time>2023-04-10T10:31:50Z</time>
      </trkpt>
      <trkpt lat="48.02752" lon="-3.03382">
        <ele>167</ele>
        <time>2023-04-10T10:31:51Z</time>
      </trkpt>
      <trkpt lat="48.02755" lon="-3.03376">
        <ele>167</ele>
        <time>2023-04-10T10:31:52Z</time>
      </trkpt>
      <trkpt lat="48.02757" lon="-3.03371">
        <ele>167</ele>
        <time>2023-04-10T10:31:53Z</time>
      </trkpt>
      <trkpt lat="48.0276" lon="-3.03366">
        <ele>167</ele>
        <time>2023-04-10T10:31:54Z</time>
      </trkpt>
      <trkpt lat="48.02762" lon="-3.03361">
        <ele>167</ele>
        <time>2023-04-10T10:31:55Z</time>
      </trkpt>
      <trkpt lat="48.02767" lon="-3.03351">
        <ele>167</ele>
        <time>2023-04-10T10:31:57Z</time>
      </trkpt>
      <trkpt lat="48.02769" lon="-3.03346">
        <ele>167.2</ele>
        <time>2023-04-10T10:31:58Z</time>
      </trkpt>
      <trkpt lat="48.02777" lon="-3.0333">
        <ele>167.6</ele>
        <time>2023-04-10T10:32:01Z</time>
      </trkpt>
      <trkpt lat="48.02787" lon="-3.03313">
        <ele>168.6</ele>
        <time>2023-04-10T10:32:04Z</time>
      </trkpt>
      <trkpt lat="48.02797" lon="-3.03296">
        <ele>169.2</ele>
        <time>2023-04-10T10:32:07Z</time>
      </trkpt>
      <trkpt lat="48.028" lon="-3.03291">
        <ele>169.4</ele>
        <time>2023-04-10T10:32:08Z</time>
      </trkpt>
      <trkpt lat="48.02806" lon="-3.03281">
        <ele>169.6</ele>
        <time>2023-04-10T10:32:10Z</time>
      </trkpt>
      <trkpt lat="48.02809" lon="-3.03271">
        <ele>170</ele>
        <time>2023-04-10T10:32:12Z</time>
      </trkpt>
      <trkpt lat="48.02818" lon="-3.03255">
        <ele>170.4</ele>
        <time>2023-04-10T10:32:15Z</time>
      </trkpt>
      <trkpt lat="48.02821" lon="-3.0325">
        <ele>170.6</ele>
        <time>2023-04-10T10:32:16Z</time>
      </trkpt>
      <trkpt lat="48.02824" lon="-3.03246">
        <ele>170.8</ele>
        <time>2023-04-10T10:32:17Z</time>
      </trkpt>
      <trkpt lat="48.02827" lon="-3.03241">
        <ele>170.8</ele>
        <time>2023-04-10T10:32:18Z</time>
      </trkpt>
      <trkpt lat="48.0283" lon="-3.03237">
        <ele>170.8</ele>
        <time>2023-04-10T10:32:19Z</time>
      </trkpt>
      <trkpt lat="48.02835" lon="-3.03229">
        <ele>171</ele>
        <time>2023-04-10T10:32:21Z</time>
      </trkpt>
      <trkpt lat="48.02846" lon="-3.03216">
        <ele>171</ele>
        <time>2023-04-10T10:32:24Z</time>
      </trkpt>
      <trkpt lat="48.02851" lon="-3.03211">
        <ele>171</ele>
        <time>2023-04-10T10:32:25Z</time>
      </trkpt>
      <trkpt lat="48.02854" lon="-3.03207">
        <ele>171.2</ele>
        <time>2023-04-10T10:32:26Z</time>
      </trkpt>
      <trkpt lat="48.02858" lon="-3.03202">
        <ele>171.2</ele>
        <time>2023-04-10T10:32:27Z</time>
      </trkpt>
      <trkpt lat="48.02862" lon="-3.03198">
        <ele>171.4</ele>
        <time>2023-04-10T10:32:28Z</time>
      </trkpt>
      <trkpt lat="48.02866" lon="-3.03195">
        <ele>171.4</ele>
        <time>2023-04-10T10:32:29Z</time>
      </trkpt>
      <trkpt lat="48.02871" lon="-3.03192">
        <ele>171.4</ele>
        <time>2023-04-10T10:32:30Z</time>
      </trkpt>
      <trkpt lat="48.02884" lon="-3.03182">
        <ele>171.8</ele>
        <time>2023-04-10T10:32:33Z</time>
      </trkpt>
      <trkpt lat="48.02895" lon="-3.03171">
        <ele>172.2</ele>
        <time>2023-04-10T10:32:37Z</time>
      </trkpt>
      <trkpt lat="48.02897" lon="-3.03168">
        <ele>172.2</ele>
        <time>2023-04-10T10:32:38Z</time>
      </trkpt>
      <trkpt lat="48.02904" lon="-3.03162">
        <ele>172.4</ele>
        <time>2023-04-10T10:32:39Z</time>
      </trkpt>
      <trkpt lat="48.02914" lon="-3.03151">
        <ele>172.8</ele>
        <time>2023-04-10T10:32:42Z</time>
      </trkpt>
      <trkpt lat="48.02917" lon="-3.03148">
        <ele>172.8</ele>
        <time>2023-04-10T10:32:43Z</time>
      </trkpt>
      <trkpt lat="48.0292" lon="-3.03144">
        <ele>173</ele>
        <time>2023-04-10T10:32:44Z</time>
      </trkpt>
      <trkpt lat="48.02935" lon="-3.03132">
        <ele>173</ele>
        <time>2023-04-10T10:32:48Z</time>
      </trkpt>
      <trkpt lat="48.02954" lon="-3.03115">
        <ele>173.2</ele>
        <time>2023-04-10T10:32:52Z</time>
      </trkpt>
      <trkpt lat="48.02958" lon="-3.03112">
        <ele>173.2</ele>
        <time>2023-04-10T10:32:53Z</time>
      </trkpt>
      <trkpt lat="48.02961" lon="-3.03108">
        <ele>173.2</ele>
        <time>2023-04-10T10:32:54Z</time>
      </trkpt>
      <trkpt lat="48.02968" lon="-3.031">
        <ele>173.4</ele>
        <time>2023-04-10T10:32:56Z</time>
      </trkpt>
      <trkpt lat="48.02979" lon="-3.03085">
        <ele>173.4</ele>
        <time>2023-04-10T10:32:59Z</time>
      </trkpt>
      <trkpt lat="48.02986" lon="-3.03079">
        <ele>173.4</ele>
        <time>2023-04-10T10:33:00Z</time>
      </trkpt>
      <trkpt lat="48.03008" lon="-3.03042">
        <ele>173.4</ele>
        <time>2023-04-10T10:33:06Z</time>
      </trkpt>
      <trkpt lat="48.03017" lon="-3.03032">
        <ele>173.2</ele>
        <time>2023-04-10T10:33:08Z</time>
      </trkpt>
      <trkpt lat="48.03026" lon="-3.03022">
        <ele>173.2</ele>
        <time>2023-04-10T10:33:10Z</time>
      </trkpt>
      <trkpt lat="48.03031" lon="-3.03018">
        <ele>173</ele>
        <time>2023-04-10T10:33:11Z</time>
      </trkpt>
      <trkpt lat="48.03036" lon="-3.03013">
        <ele>173</ele>
        <time>2023-04-10T10:33:12Z</time>
      </trkpt>
      <trkpt lat="48.03039" lon="-3.03009">
        <ele>172.8</ele>
        <time>2023-04-10T10:33:13Z</time>
      </trkpt>
      <trkpt lat="48.03046" lon="-3.03003">
        <ele>172.8</ele>
        <time>2023-04-10T10:33:15Z</time>
      </trkpt>
      <trkpt lat="48.0305" lon="-3.03">
        <ele>172.8</ele>
        <time>2023-04-10T10:33:16Z</time>
      </trkpt>
      <trkpt lat="48.03055" lon="-3.02998">
        <ele>172.6</ele>
        <time>2023-04-10T10:33:17Z</time>
      </trkpt>
      <trkpt lat="48.03073" lon="-3.02993">
        <ele>172.4</ele>
        <time>2023-04-10T10:33:21Z</time>
      </trkpt>
      <trkpt lat="48.03077" lon="-3.02993">
        <ele>172.4</ele>
        <time>2023-04-10T10:33:22Z</time>
      </trkpt>
      <trkpt lat="48.03091" lon="-3.0299">
        <ele>172.2</ele>
        <time>2023-04-10T10:33:25Z</time>
      </trkpt>
      <trkpt lat="48.03096" lon="-3.0299">
        <ele>172</ele>
        <time>2023-04-10T10:33:26Z</time>
      </trkpt>
      <trkpt lat="48.03109" lon="-3.02987">
        <ele>172</ele>
        <time>2023-04-10T10:33:29Z</time>
      </trkpt>
      <trkpt lat="48.03119" lon="-3.02984">
        <ele>172</ele>
        <time>2023-04-10T10:33:31Z</time>
      </trkpt>
      <trkpt lat="48.03122" lon="-3.02984">
        <ele>171.8</ele>
        <time>2023-04-10T10:33:32Z</time>
      </trkpt>
      <trkpt lat="48.03125" lon="-3.02982">
        <ele>171.8</ele>
        <time>2023-04-10T10:33:33Z</time>
      </trkpt>
      <trkpt lat="48.03128" lon="-3.02981">
        <ele>171.6</ele>
        <time>2023-04-10T10:33:34Z</time>
      </trkpt>
      <trkpt lat="48.0313" lon="-3.02979">
        <ele>171.4</ele>
        <time>2023-04-10T10:33:35Z</time>
      </trkpt>
      <trkpt lat="48.03134" lon="-3.02979">
        <ele>171.2</ele>
        <time>2023-04-10T10:33:36Z</time>
      </trkpt>
      <trkpt lat="48.03138" lon="-3.02978">
        <ele>171.2</ele>
        <time>2023-04-10T10:33:37Z</time>
      </trkpt>
      <trkpt lat="48.03143" lon="-3.0298">
        <ele>171.2</ele>
        <time>2023-04-10T10:33:38Z</time>
      </trkpt>
      <trkpt lat="48.03147" lon="-3.02983">
        <ele>171.2</ele>
        <time>2023-04-10T10:33:39Z</time>
      </trkpt>
      <trkpt lat="48.03151" lon="-3.02986">
        <ele>171.2</ele>
        <time>2023-04-10T10:33:40Z</time>
      </trkpt>
      <trkpt lat="48.03155" lon="-3.0299">
        <ele>171.2</ele>
        <time>2023-04-10T10:33:41Z</time>
      </trkpt>
      <trkpt lat="48.03159" lon="-3.02995">
        <ele>171.2</ele>
        <time>2023-04-10T10:33:42Z</time>
      </trkpt>
      <trkpt lat="48.03172" lon="-3.03009">
        <ele>171.2</ele>
        <time>2023-04-10T10:33:45Z</time>
      </trkpt>
      <trkpt lat="48.03175" lon="-3.03013">
        <ele>171.2</ele>
        <time>2023-04-10T10:33:46Z</time>
      </trkpt>
      <trkpt lat="48.03179" lon="-3.03017">
        <ele>171.2</ele>
        <time>2023-04-10T10:33:47Z</time>
      </trkpt>
      <trkpt lat="48.03183" lon="-3.03021">
        <ele>171.6</ele>
        <time>2023-04-10T10:33:48Z</time>
      </trkpt>
      <trkpt lat="48.03187" lon="-3.03025">
        <ele>171.8</ele>
        <time>2023-04-10T10:33:49Z</time>
      </trkpt>
      <trkpt lat="48.0319" lon="-3.0303">
        <ele>172.2</ele>
        <time>2023-04-10T10:33:50Z</time>
      </trkpt>
      <trkpt lat="48.03193" lon="-3.03034">
        <ele>172.4</ele>
        <time>2023-04-10T10:33:51Z</time>
      </trkpt>
      <trkpt lat="48.03197" lon="-3.03037">
        <ele>172.4</ele>
        <time>2023-04-10T10:33:52Z</time>
      </trkpt>
      <trkpt lat="48.03201" lon="-3.03039">
        <ele>172.4</ele>
        <time>2023-04-10T10:33:53Z</time>
      </trkpt>
      <trkpt lat="48.03206" lon="-3.03038">
        <ele>172.6</ele>
        <time>2023-04-10T10:33:54Z</time>
      </trkpt>
      <trkpt lat="48.0321" lon="-3.03034">
        <ele>172.6</ele>
        <time>2023-04-10T10:33:55Z</time>
      </trkpt>
      <trkpt lat="48.03215" lon="-3.03021">
        <ele>172.8</ele>
        <time>2023-04-10T10:33:57Z</time>
      </trkpt>
      <trkpt lat="48.03217" lon="-3.03015">
        <ele>173</ele>
        <time>2023-04-10T10:33:58Z</time>
      </trkpt>
      <trkpt lat="48.03221" lon="-3.03007">
        <ele>173.2</ele>
        <time>2023-04-10T10:33:59Z</time>
      </trkpt>
      <trkpt lat="48.03229" lon="-3.02983">
        <ele>173.4</ele>
        <time>2023-04-10T10:34:02Z</time>
      </trkpt>
      <trkpt lat="48.03252" lon="-3.02928">
        <ele>173.8</ele>
        <time>2023-04-10T10:34:08Z</time>
      </trkpt>
      <trkpt lat="48.03278" lon="-3.02859">
        <ele>172.4</ele>
        <time>2023-04-10T10:34:15Z</time>
      </trkpt>
      <trkpt lat="48.03282" lon="-3.02848">
        <ele>172.2</ele>
        <time>2023-04-10T10:34:16Z</time>
      </trkpt>
      <trkpt lat="48.03295" lon="-3.02814">
        <ele>171.6</ele>
        <time>2023-04-10T10:34:19Z</time>
      </trkpt>
      <trkpt lat="48.03304" lon="-3.0279">
        <ele>171</ele>
        <time>2023-04-10T10:34:21Z</time>
      </trkpt>
      <trkpt lat="48.03309" lon="-3.02777">
        <ele>170.4</ele>
        <time>2023-04-10T10:34:22Z</time>
      </trkpt>
      <trkpt lat="48.03318" lon="-3.02752">
        <ele>169.4</ele>
        <time>2023-04-10T10:34:24Z</time>
      </trkpt>
      <trkpt lat="48.03335" lon="-3.02712">
        <ele>168.4</ele>
        <time>2023-04-10T10:34:27Z</time>
      </trkpt>
      <trkpt lat="48.03344" lon="-3.02682">
        <ele>166.6</ele>
        <time>2023-04-10T10:34:29Z</time>
      </trkpt>
      <trkpt lat="48.03347" lon="-3.02667">
        <ele>166.2</ele>
        <time>2023-04-10T10:34:30Z</time>
      </trkpt>
      <trkpt lat="48.0335" lon="-3.0265">
        <ele>165.4</ele>
        <time>2023-04-10T10:34:31Z</time>
      </trkpt>
      <trkpt lat="48.03353" lon="-3.02635">
        <ele>164</ele>
        <time>2023-04-10T10:34:32Z</time>
      </trkpt>
      <trkpt lat="48.03354" lon="-3.02622">
        <ele>163.2</ele>
        <time>2023-04-10T10:34:33Z</time>
      </trkpt>
      <trkpt lat="48.03356" lon="-3.02607">
        <ele>161.8</ele>
        <time>2023-04-10T10:34:34Z</time>
      </trkpt>
      <trkpt lat="48.03359" lon="-3.02592">
        <ele>160.8</ele>
        <time>2023-04-10T10:34:35Z</time>
      </trkpt>
      <trkpt lat="48.0336" lon="-3.02575">
        <ele>160</ele>
        <time>2023-04-10T10:34:36Z</time>
      </trkpt>
      <trkpt lat="48.0336" lon="-3.02564">
        <ele>159.6</ele>
        <time>2023-04-10T10:34:37Z</time>
      </trkpt>
      <trkpt lat="48.03361" lon="-3.02548">
        <ele>159.6</ele>
        <time>2023-04-10T10:34:38Z</time>
      </trkpt>
      <trkpt lat="48.03361" lon="-3.02537">
        <ele>159</ele>
        <time>2023-04-10T10:34:39Z</time>
      </trkpt>
      <trkpt lat="48.0336" lon="-3.02528">
        <ele>158.4</ele>
        <time>2023-04-10T10:34:40Z</time>
      </trkpt>
      <trkpt lat="48.03359" lon="-3.02517">
        <ele>158</ele>
        <time>2023-04-10T10:34:41Z</time>
      </trkpt>
      <trkpt lat="48.03358" lon="-3.02507">
        <ele>158</ele>
        <time>2023-04-10T10:34:42Z</time>
      </trkpt>
      <trkpt lat="48.03358" lon="-3.02499">
        <ele>157.4</ele>
        <time>2023-04-10T10:34:43Z</time>
      </trkpt>
      <trkpt lat="48.03357" lon="-3.02491">
        <ele>157.2</ele>
        <time>2023-04-10T10:34:44Z</time>
      </trkpt>
      <trkpt lat="48.03356" lon="-3.02484">
        <ele>157.2</ele>
        <time>2023-04-10T10:34:45Z</time>
      </trkpt>
      <trkpt lat="48.03355" lon="-3.02478">
        <ele>157</ele>
        <time>2023-04-10T10:34:46Z</time>
      </trkpt>
      <trkpt lat="48.03354" lon="-3.02473">
        <ele>157</ele>
        <time>2023-04-10T10:34:47Z</time>
      </trkpt>
      <trkpt lat="48.03353" lon="-3.02467">
        <ele>157</ele>
        <time>2023-04-10T10:34:48Z</time>
      </trkpt>
      <trkpt lat="48.03352" lon="-3.02462">
        <ele>157</ele>
        <time>2023-04-10T10:34:49Z</time>
      </trkpt>
      <trkpt lat="48.03351" lon="-3.02457">
        <ele>157</ele>
        <time>2023-04-10T10:34:50Z</time>
      </trkpt>
      <trkpt lat="48.0335" lon="-3.02452">
        <ele>157</ele>
        <time>2023-04-10T10:34:51Z</time>
      </trkpt>
      <trkpt lat="48.03348" lon="-3.02443">
        <ele>157</ele>
        <time>2023-04-10T10:34:53Z</time>
      </trkpt>
      <trkpt lat="48.03346" lon="-3.02437">
        <ele>157</ele>
        <time>2023-04-10T10:34:54Z</time>
      </trkpt>
      <trkpt lat="48.03337" lon="-3.02416">
        <ele>157.6</ele>
        <time>2023-04-10T10:34:58Z</time>
      </trkpt>
      <trkpt lat="48.03335" lon="-3.02408">
        <ele>158</ele>
        <time>2023-04-10T10:34:59Z</time>
      </trkpt>
      <trkpt lat="48.03331" lon="-3.02388">
        <ele>158.6</ele>
        <time>2023-04-10T10:35:02Z</time>
      </trkpt>
      <trkpt lat="48.0333" lon="-3.02382">
        <ele>159</ele>
        <time>2023-04-10T10:35:03Z</time>
      </trkpt>
      <trkpt lat="48.03329" lon="-3.02375">
        <ele>159</ele>
        <time>2023-04-10T10:35:04Z</time>
      </trkpt>
      <trkpt lat="48.03329" lon="-3.02369">
        <ele>159.2</ele>
        <time>2023-04-10T10:35:05Z</time>
      </trkpt>
      <trkpt lat="48.03329" lon="-3.02362">
        <ele>159.4</ele>
        <time>2023-04-10T10:35:06Z</time>
      </trkpt>
      <trkpt lat="48.03329" lon="-3.02355">
        <ele>159.4</ele>
        <time>2023-04-10T10:35:07Z</time>
      </trkpt>
      <trkpt lat="48.03329" lon="-3.02349">
        <ele>159.6</ele>
        <time>2023-04-10T10:35:08Z</time>
      </trkpt>
      <trkpt lat="48.03329" lon="-3.02343">
        <ele>159.6</ele>
        <time>2023-04-10T10:35:09Z</time>
      </trkpt>
      <trkpt lat="48.0333" lon="-3.02337">
        <ele>159.6</ele>
        <time>2023-04-10T10:35:10Z</time>
      </trkpt>
      <trkpt lat="48.0333" lon="-3.02331">
        <ele>159.8</ele>
        <time>2023-04-10T10:35:11Z</time>
      </trkpt>
      <trkpt lat="48.03331" lon="-3.02326">
        <ele>160</ele>
        <time>2023-04-10T10:35:12Z</time>
      </trkpt>
      <trkpt lat="48.03332" lon="-3.02322">
        <ele>160.2</ele>
        <time>2023-04-10T10:35:13Z</time>
      </trkpt>
      <trkpt lat="48.03334" lon="-3.02318">
        <ele>160.4</ele>
        <time>2023-04-10T10:35:14Z</time>
      </trkpt>
      <trkpt lat="48.03335" lon="-3.02314">
        <ele>160.8</ele>
        <time>2023-04-10T10:35:15Z</time>
      </trkpt>
      <trkpt lat="48.03337" lon="-3.0231">
        <ele>161</ele>
        <time>2023-04-10T10:35:16Z</time>
      </trkpt>
      <trkpt lat="48.03338" lon="-3.02305">
        <ele>161.2</ele>
        <time>2023-04-10T10:35:17Z</time>
      </trkpt>
      <trkpt lat="48.03339" lon="-3.02301">
        <ele>161.2</ele>
        <time>2023-04-10T10:35:18Z</time>
      </trkpt>
      <trkpt lat="48.0334" lon="-3.02298">
        <ele>161.4</ele>
        <time>2023-04-10T10:35:19Z</time>
      </trkpt>
      <trkpt lat="48.03341" lon="-3.02294">
        <ele>161.6</ele>
        <time>2023-04-10T10:35:20Z</time>
      </trkpt>
      <trkpt lat="48.03343" lon="-3.0229">
        <ele>161.8</ele>
        <time>2023-04-10T10:35:21Z</time>
      </trkpt>
      <trkpt lat="48.03344" lon="-3.02285">
        <ele>161.8</ele>
        <time>2023-04-10T10:35:22Z</time>
      </trkpt>
      <trkpt lat="48.03345" lon="-3.02281">
        <ele>162</ele>
        <time>2023-04-10T10:35:23Z</time>
      </trkpt>
      <trkpt lat="48.03345" lon="-3.02277">
        <ele>162.2</ele>
        <time>2023-04-10T10:35:24Z</time>
      </trkpt>
      <trkpt lat="48.03346" lon="-3.02273">
        <ele>162.6</ele>
        <time>2023-04-10T10:35:25Z</time>
      </trkpt>
      <trkpt lat="48.03347" lon="-3.02269">
        <ele>162.8</ele>
        <time>2023-04-10T10:35:26Z</time>
      </trkpt>
      <trkpt lat="48.03348" lon="-3.02265">
        <ele>163</ele>
        <time>2023-04-10T10:35:27Z</time>
      </trkpt>
      <trkpt lat="48.03349" lon="-3.02261">
        <ele>163.4</ele>
        <time>2023-04-10T10:35:28Z</time>
      </trkpt>
      <trkpt lat="48.0335" lon="-3.02257">
        <ele>163.6</ele>
        <time>2023-04-10T10:35:29Z</time>
      </trkpt>
      <trkpt lat="48.03351" lon="-3.02253">
        <ele>164</ele>
        <time>2023-04-10T10:35:30Z</time>
      </trkpt>
      <trkpt lat="48.03352" lon="-3.02249">
        <ele>164.2</ele>
        <time>2023-04-10T10:35:31Z</time>
      </trkpt>
      <trkpt lat="48.03353" lon="-3.02245">
        <ele>164.4</ele>
        <time>2023-04-10T10:35:32Z</time>
      </trkpt>
      <trkpt lat="48.03354" lon="-3.0224">
        <ele>164.6</ele>
        <time>2023-04-10T10:35:33Z</time>
      </trkpt>
      <trkpt lat="48.03355" lon="-3.02236">
        <ele>164.8</ele>
        <time>2023-04-10T10:35:34Z</time>
      </trkpt>
      <trkpt lat="48.03356" lon="-3.02232">
        <ele>164.8</ele>
        <time>2023-04-10T10:35:35Z</time>
      </trkpt>
      <trkpt lat="48.03357" lon="-3.02228">
        <ele>165.2</ele>
        <time>2023-04-10T10:35:36Z</time>
      </trkpt>
      <trkpt lat="48.03358" lon="-3.02225">
        <ele>165.6</ele>
        <time>2023-04-10T10:35:37Z</time>
      </trkpt>
      <trkpt lat="48.03359" lon="-3.02221">
        <ele>166</ele>
        <time>2023-04-10T10:35:38Z</time>
      </trkpt>
      <trkpt lat="48.03361" lon="-3.02217">
        <ele>166.2</ele>
        <time>2023-04-10T10:35:39Z</time>
      </trkpt>
      <trkpt lat="48.03362" lon="-3.02213">
        <ele>166.4</ele>
        <time>2023-04-10T10:35:40Z</time>
      </trkpt>
      <trkpt lat="48.03363" lon="-3.0221">
        <ele>166.6</ele>
        <time>2023-04-10T10:35:41Z</time>
      </trkpt>
      <trkpt lat="48.03365" lon="-3.02206">
        <ele>166.8</ele>
        <time>2023-04-10T10:35:42Z</time>
      </trkpt>
      <trkpt lat="48.03366" lon="-3.02202">
        <ele>167.2</ele>
        <time>2023-04-10T10:35:43Z</time>
      </trkpt>
      <trkpt lat="48.03367" lon="-3.02199">
        <ele>167.2</ele>
        <time>2023-04-10T10:35:44Z</time>
      </trkpt>
      <trkpt lat="48.03368" lon="-3.02196">
        <ele>167.6</ele>
        <time>2023-04-10T10:35:45Z</time>
      </trkpt>
      <trkpt lat="48.03369" lon="-3.02193">
        <ele>167.8</ele>
        <time>2023-04-10T10:35:46Z</time>
      </trkpt>
      <trkpt lat="48.03371" lon="-3.0219">
        <ele>168</ele>
        <time>2023-04-10T10:35:47Z</time>
      </trkpt>
      <trkpt lat="48.03372" lon="-3.02187">
        <ele>168.2</ele>
        <time>2023-04-10T10:35:48Z</time>
      </trkpt>
      <trkpt lat="48.03374" lon="-3.02184">
        <ele>168.4</ele>
        <time>2023-04-10T10:35:49Z</time>
      </trkpt>
      <trkpt lat="48.03376" lon="-3.0218">
        <ele>168.6</ele>
        <time>2023-04-10T10:35:50Z</time>
      </trkpt>
      <trkpt lat="48.03378" lon="-3.02177">
        <ele>168.8</ele>
        <time>2023-04-10T10:35:51Z</time>
      </trkpt>
      <trkpt lat="48.0338" lon="-3.02173">
        <ele>169</ele>
        <time>2023-04-10T10:35:52Z</time>
      </trkpt>
      <trkpt lat="48.03381" lon="-3.0217">
        <ele>169</ele>
        <time>2023-04-10T10:35:53Z</time>
      </trkpt>
      <trkpt lat="48.03383" lon="-3.02167">
        <ele>169.2</ele>
        <time>2023-04-10T10:35:54Z</time>
      </trkpt>
      <trkpt lat="48.03385" lon="-3.02163">
        <ele>169.6</ele>
        <time>2023-04-10T10:35:55Z</time>
      </trkpt>
      <trkpt lat="48.03387" lon="-3.0216">
        <ele>169.8</ele>
        <time>2023-04-10T10:35:56Z</time>
      </trkpt>
      <trkpt lat="48.03388" lon="-3.02157">
        <ele>170</ele>
        <time>2023-04-10T10:35:57Z</time>
      </trkpt>
      <trkpt lat="48.03389" lon="-3.02153">
        <ele>170.2</ele>
        <time>2023-04-10T10:35:58Z</time>
      </trkpt>
      <trkpt lat="48.03389" lon="-3.0215">
        <ele>170.4</ele>
        <time>2023-04-10T10:35:59Z</time>
      </trkpt>
      <trkpt lat="48.03389" lon="-3.02147">
        <ele>170.6</ele>
        <time>2023-04-10T10:36:00Z</time>
      </trkpt>
      <trkpt lat="48.03389" lon="-3.02143">
        <ele>170.6</ele>
        <time>2023-04-10T10:36:01Z</time>
      </trkpt>
      <trkpt lat="48.03389" lon="-3.02139">
        <ele>170.8</ele>
        <time>2023-04-10T10:36:02Z</time>
      </trkpt>
      <trkpt lat="48.03388" lon="-3.02135">
        <ele>171</ele>
        <time>2023-04-10T10:36:03Z</time>
      </trkpt>
      <trkpt lat="48.03387" lon="-3.02131">
        <ele>171.4</ele>
        <time>2023-04-10T10:36:04Z</time>
      </trkpt>
      <trkpt lat="48.03387" lon="-3.02127">
        <ele>171.6</ele>
        <time>2023-04-10T10:36:05Z</time>
      </trkpt>
      <trkpt lat="48.03387" lon="-3.02124">
        <ele>171.6</ele>
        <time>2023-04-10T10:36:06Z</time>
      </trkpt>
      <trkpt lat="48.03388" lon="-3.0212">
        <ele>171.8</ele>
        <time>2023-04-10T10:36:07Z</time>
      </trkpt>
      <trkpt lat="48.0339" lon="-3.02117">
        <ele>172.2</ele>
        <time>2023-04-10T10:36:08Z</time>
      </trkpt>
      <trkpt lat="48.03391" lon="-3.02114">
        <ele>172.4</ele>
        <time>2023-04-10T10:36:09Z</time>
      </trkpt>
      <trkpt lat="48.03393" lon="-3.02111">
        <ele>172.8</ele>
        <time>2023-04-10T10:36:10Z</time>
      </trkpt>
      <trkpt lat="48.03395" lon="-3.0211">
        <ele>173</ele>
        <time>2023-04-10T10:36:11Z</time>
      </trkpt>
      <trkpt lat="48.03397" lon="-3.02108">
        <ele>173.4</ele>
        <time>2023-04-10T10:36:12Z</time>
      </trkpt>
      <trkpt lat="48.034" lon="-3.02105">
        <ele>173.6</ele>
        <time>2023-04-10T10:36:13Z</time>
      </trkpt>
      <trkpt lat="48.03403" lon="-3.02104">
        <ele>173.8</ele>
        <time>2023-04-10T10:36:14Z</time>
      </trkpt>
      <trkpt lat="48.03405" lon="-3.02103">
        <ele>174</ele>
        <time>2023-04-10T10:36:15Z</time>
      </trkpt>
      <trkpt lat="48.03407" lon="-3.02102">
        <ele>174.2</ele>
        <time>2023-04-10T10:36:16Z</time>
      </trkpt>
      <trkpt lat="48.03409" lon="-3.02101">
        <ele>174.2</ele>
        <time>2023-04-10T10:36:17Z</time>
      </trkpt>
      <trkpt lat="48.03412" lon="-3.02101">
        <ele>174.4</ele>
        <time>2023-04-10T10:36:18Z</time>
      </trkpt>
      <trkpt lat="48.03415" lon="-3.02102">
        <ele>174.4</ele>
        <time>2023-04-10T10:36:19Z</time>
      </trkpt>
      <trkpt lat="48.03418" lon="-3.02102">
        <ele>174.6</ele>
        <time>2023-04-10T10:36:20Z</time>
      </trkpt>
      <trkpt lat="48.03421" lon="-3.02103">
        <ele>174.8</ele>
        <time>2023-04-10T10:36:21Z</time>
      </trkpt>
      <trkpt lat="48.03424" lon="-3.02104">
        <ele>175</ele>
        <time>2023-04-10T10:36:22Z</time>
      </trkpt>
      <trkpt lat="48.03427" lon="-3.02106">
        <ele>175.2</ele>
        <time>2023-04-10T10:36:23Z</time>
      </trkpt>
      <trkpt lat="48.03429" lon="-3.02107">
        <ele>175.4</ele>
        <time>2023-04-10T10:36:24Z</time>
      </trkpt>
      <trkpt lat="48.03431" lon="-3.02108">
        <ele>175.6</ele>
        <time>2023-04-10T10:36:25Z</time>
      </trkpt>
      <trkpt lat="48.03434" lon="-3.0211">
        <ele>175.8</ele>
        <time>2023-04-10T10:36:26Z</time>
      </trkpt>
      <trkpt lat="48.03436" lon="-3.02113">
        <ele>176</ele>
        <time>2023-04-10T10:36:27Z</time>
      </trkpt>
      <trkpt lat="48.0344" lon="-3.02114">
        <ele>176</ele>
        <time>2023-04-10T10:36:28Z</time>
      </trkpt>
      <trkpt lat="48.03443" lon="-3.02115">
        <ele>176</ele>
        <time>2023-04-10T10:36:29Z</time>
      </trkpt>
      <trkpt lat="48.03445" lon="-3.02117">
        <ele>176.4</ele>
        <time>2023-04-10T10:36:30Z</time>
      </trkpt>
      <trkpt lat="48.03447" lon="-3.02118">
        <ele>176.6</ele>
        <time>2023-04-10T10:36:31Z</time>
      </trkpt>
      <trkpt lat="48.0345" lon="-3.0212">
        <ele>176.6</ele>
        <time>2023-04-10T10:36:32Z</time>
      </trkpt>
      <trkpt lat="48.03453" lon="-3.02122">
        <ele>176.8</ele>
        <time>2023-04-10T10:36:33Z</time>
      </trkpt>
      <trkpt lat="48.03456" lon="-3.02123">
        <ele>177</ele>
        <time>2023-04-10T10:36:34Z</time>
      </trkpt>
      <trkpt lat="48.03458" lon="-3.02124">
        <ele>177</ele>
        <time>2023-04-10T10:36:35Z</time>
      </trkpt>
      <trkpt lat="48.0346" lon="-3.02125">
        <ele>177.2</ele>
        <time>2023-04-10T10:36:36Z</time>
      </trkpt>
      <trkpt lat="48.03463" lon="-3.02126">
        <ele>177.4</ele>
        <time>2023-04-10T10:36:37Z</time>
      </trkpt>
      <trkpt lat="48.03466" lon="-3.02126">
        <ele>177.6</ele>
        <time>2023-04-10T10:36:38Z</time>
      </trkpt>
      <trkpt lat="48.03469" lon="-3.02127">
        <ele>177.8</ele>
        <time>2023-04-10T10:36:39Z</time>
      </trkpt>
      <trkpt lat="48.03472" lon="-3.02128">
        <ele>178</ele>
        <time>2023-04-10T10:36:40Z</time>
      </trkpt>
      <trkpt lat="48.03476" lon="-3.0213">
        <ele>178.2</ele>
        <time>2023-04-10T10:36:41Z</time>
      </trkpt>
      <trkpt lat="48.03479" lon="-3.02131">
        <ele>178.2</ele>
        <time>2023-04-10T10:36:42Z</time>
      </trkpt>
      <trkpt lat="48.03482" lon="-3.02131">
        <ele>178.6</ele>
        <time>2023-04-10T10:36:43Z</time>
      </trkpt>
      <trkpt lat="48.03483" lon="-3.02131">
        <ele>178.6</ele>
        <time>2023-04-10T10:36:44Z</time>
      </trkpt>
      <trkpt lat="48.03486" lon="-3.02132">
        <ele>178.8</ele>
        <time>2023-04-10T10:36:45Z</time>
      </trkpt>
      <trkpt lat="48.03489" lon="-3.02132">
        <ele>178.8</ele>
        <time>2023-04-10T10:36:46Z</time>
      </trkpt>
      <trkpt lat="48.03492" lon="-3.02133">
        <ele>179</ele>
        <time>2023-04-10T10:36:47Z</time>
      </trkpt>
      <trkpt lat="48.03493" lon="-3.02134">
        <ele>179.2</ele>
        <time>2023-04-10T10:36:48Z</time>
      </trkpt>
      <trkpt lat="48.03496" lon="-3.02134">
        <ele>179.4</ele>
        <time>2023-04-10T10:36:49Z</time>
      </trkpt>
      <trkpt lat="48.03498" lon="-3.02135">
        <ele>179.4</ele>
        <time>2023-04-10T10:36:50Z</time>
      </trkpt>
      <trkpt lat="48.035" lon="-3.02137">
        <ele>179.6</ele>
        <time>2023-04-10T10:36:51Z</time>
      </trkpt>
      <trkpt lat="48.03503" lon="-3.0214">
        <ele>179.8</ele>
        <time>2023-04-10T10:36:52Z</time>
      </trkpt>
      <trkpt lat="48.03505" lon="-3.02142">
        <ele>179.8</ele>
        <time>2023-04-10T10:36:53Z</time>
      </trkpt>
      <trkpt lat="48.03507" lon="-3.02143">
        <ele>180</ele>
        <time>2023-04-10T10:36:54Z</time>
      </trkpt>
      <trkpt lat="48.0351" lon="-3.02145">
        <ele>180</ele>
        <time>2023-04-10T10:36:55Z</time>
      </trkpt>
      <trkpt lat="48.03513" lon="-3.02147">
        <ele>180</ele>
        <time>2023-04-10T10:36:56Z</time>
      </trkpt>
      <trkpt lat="48.03515" lon="-3.02149">
        <ele>180.2</ele>
        <time>2023-04-10T10:36:57Z</time>
      </trkpt>
      <trkpt lat="48.03518" lon="-3.02151">
        <ele>180.4</ele>
        <time>2023-04-10T10:36:58Z</time>
      </trkpt>
      <trkpt lat="48.0352" lon="-3.02152">
        <ele>180.4</ele>
        <time>2023-04-10T10:36:59Z</time>
      </trkpt>
      <trkpt lat="48.03523" lon="-3.02154">
        <ele>180.4</ele>
        <time>2023-04-10T10:37:00Z</time>
      </trkpt>
      <trkpt lat="48.03525" lon="-3.02155">
        <ele>180.4</ele>
        <time>2023-04-10T10:37:01Z</time>
      </trkpt>
      <trkpt lat="48.03528" lon="-3.02156">
        <ele>180.8</ele>
        <time>2023-04-10T10:37:02Z</time>
      </trkpt>
      <trkpt lat="48.0353" lon="-3.02156">
        <ele>181</ele>
        <time>2023-04-10T10:37:03Z</time>
      </trkpt>
      <trkpt lat="48.03531" lon="-3.02154">
        <ele>181</ele>
        <time>2023-04-10T10:37:04Z</time>
      </trkpt>
      <trkpt lat="48.03532" lon="-3.0215">
        <ele>181.2</ele>
        <time>2023-04-10T10:37:05Z</time>
      </trkpt>
      <trkpt lat="48.03532" lon="-3.02146">
        <ele>181.2</ele>
        <time>2023-04-10T10:37:06Z</time>
      </trkpt>
      <trkpt lat="48.03531" lon="-3.0214">
        <ele>181.2</ele>
        <time>2023-04-10T10:37:07Z</time>
      </trkpt>
      <trkpt lat="48.03531" lon="-3.02135">
        <ele>181.4</ele>
        <time>2023-04-10T10:37:08Z</time>
      </trkpt>
      <trkpt lat="48.03531" lon="-3.0213">
        <ele>181.4</ele>
        <time>2023-04-10T10:37:09Z</time>
      </trkpt>
      <trkpt lat="48.03531" lon="-3.02124">
        <ele>181.4</ele>
        <time>2023-04-10T10:37:10Z</time>
      </trkpt>
      <trkpt lat="48.03531" lon="-3.02118">
        <ele>181.4</ele>
        <time>2023-04-10T10:37:11Z</time>
      </trkpt>
      <trkpt lat="48.03531" lon="-3.02111">
        <ele>181.4</ele>
        <time>2023-04-10T10:37:12Z</time>
      </trkpt>
      <trkpt lat="48.03532" lon="-3.02104">
        <ele>181.6</ele>
        <time>2023-04-10T10:37:13Z</time>
      </trkpt>
      <trkpt lat="48.03533" lon="-3.02097">
        <ele>181.6</ele>
        <time>2023-04-10T10:37:14Z</time>
      </trkpt>
      <trkpt lat="48.03534" lon="-3.0209">
        <ele>181.6</ele>
        <time>2023-04-10T10:37:15Z</time>
      </trkpt>
      <trkpt lat="48.03535" lon="-3.02083">
        <ele>181.6</ele>
        <time>2023-04-10T10:37:16Z</time>
      </trkpt>
      <trkpt lat="48.03536" lon="-3.02075">
        <ele>181.8</ele>
        <time>2023-04-10T10:37:17Z</time>
      </trkpt>
      <trkpt lat="48.03537" lon="-3.02059">
        <ele>181.8</ele>
        <time>2023-04-10T10:37:19Z</time>
      </trkpt>
      <trkpt lat="48.03537" lon="-3.02051">
        <ele>181.8</ele>
        <time>2023-04-10T10:37:20Z</time>
      </trkpt>
      <trkpt lat="48.03534" lon="-3.02016">
        <ele>181.6</ele>
        <time>2023-04-10T10:37:24Z</time>
      </trkpt>
      <trkpt lat="48.03533" lon="-3.02008">
        <ele>181.6</ele>
        <time>2023-04-10T10:37:25Z</time>
      </trkpt>
      <trkpt lat="48.03528" lon="-3.01974">
        <ele>181.6</ele>
        <time>2023-04-10T10:37:29Z</time>
      </trkpt>
      <trkpt lat="48.03521" lon="-3.01914">
        <ele>181</ele>
        <time>2023-04-10T10:37:36Z</time>
      </trkpt>
      <trkpt lat="48.03519" lon="-3.01896">
        <ele>180.8</ele>
        <time>2023-04-10T10:37:38Z</time>
      </trkpt>
      <trkpt lat="48.03518" lon="-3.01889">
        <ele>180.6</ele>
        <time>2023-04-10T10:37:39Z</time>
      </trkpt>
      <trkpt lat="48.03517" lon="-3.01882">
        <ele>180.4</ele>
        <time>2023-04-10T10:37:40Z</time>
      </trkpt>
      <trkpt lat="48.03517" lon="-3.01878">
        <ele>180.2</ele>
        <time>2023-04-10T10:37:41Z</time>
      </trkpt>
      <trkpt lat="48.03517" lon="-3.01873">
        <ele>180</ele>
        <time>2023-04-10T10:37:42Z</time>
      </trkpt>
      <trkpt lat="48.03519" lon="-3.01869">
        <ele>179.8</ele>
        <time>2023-04-10T10:37:43Z</time>
      </trkpt>
      <trkpt lat="48.03522" lon="-3.01866">
        <ele>179.8</ele>
        <time>2023-04-10T10:37:44Z</time>
      </trkpt>
      <trkpt lat="48.03525" lon="-3.01864">
        <ele>179.6</ele>
        <time>2023-04-10T10:37:45Z</time>
      </trkpt>
      <trkpt lat="48.0353" lon="-3.01863">
        <ele>179.4</ele>
        <time>2023-04-10T10:37:46Z</time>
      </trkpt>
      <trkpt lat="48.03535" lon="-3.01862">
        <ele>179.4</ele>
        <time>2023-04-10T10:37:47Z</time>
      </trkpt>
      <trkpt lat="48.03541" lon="-3.0186">
        <ele>179.2</ele>
        <time>2023-04-10T10:37:48Z</time>
      </trkpt>
      <trkpt lat="48.03582" lon="-3.01853">
        <ele>179.2</ele>
        <time>2023-04-10T10:37:55Z</time>
      </trkpt>
      <trkpt lat="48.03622" lon="-3.01844">
        <ele>179.4</ele>
        <time>2023-04-10T10:38:01Z</time>
      </trkpt>
      <trkpt lat="48.03628" lon="-3.01842">
        <ele>179.4</ele>
        <time>2023-04-10T10:38:02Z</time>
      </trkpt>
      <trkpt lat="48.03635" lon="-3.01841">
        <ele>179.4</ele>
        <time>2023-04-10T10:38:03Z</time>
      </trkpt>
      <trkpt lat="48.03641" lon="-3.01839">
        <ele>179.4</ele>
        <time>2023-04-10T10:38:04Z</time>
      </trkpt>
      <trkpt lat="48.03647" lon="-3.01838">
        <ele>179.6</ele>
        <time>2023-04-10T10:38:05Z</time>
      </trkpt>
      <trkpt lat="48.03694" lon="-3.01823">
        <ele>179.6</ele>
        <time>2023-04-10T10:38:12Z</time>
      </trkpt>
      <trkpt lat="48.037" lon="-3.0182">
        <ele>179.6</ele>
        <time>2023-04-10T10:38:13Z</time>
      </trkpt>
      <trkpt lat="48.03707" lon="-3.01817">
        <ele>179.8</ele>
        <time>2023-04-10T10:38:14Z</time>
      </trkpt>
      <trkpt lat="48.03713" lon="-3.01814">
        <ele>179.8</ele>
        <time>2023-04-10T10:38:15Z</time>
      </trkpt>
      <trkpt lat="48.03719" lon="-3.01812">
        <ele>179.8</ele>
        <time>2023-04-10T10:38:16Z</time>
      </trkpt>
      <trkpt lat="48.03725" lon="-3.01809">
        <ele>179.8</ele>
        <time>2023-04-10T10:38:17Z</time>
      </trkpt>
      <trkpt lat="48.03731" lon="-3.01806">
        <ele>179.8</ele>
        <time>2023-04-10T10:38:18Z</time>
      </trkpt>
      <trkpt lat="48.03737" lon="-3.01804">
        <ele>179.8</ele>
        <time>2023-04-10T10:38:19Z</time>
      </trkpt>
      <trkpt lat="48.03742" lon="-3.01801">
        <ele>179.8</ele>
        <time>2023-04-10T10:38:20Z</time>
      </trkpt>
      <trkpt lat="48.03748" lon="-3.01798">
        <ele>180</ele>
        <time>2023-04-10T10:38:21Z</time>
      </trkpt>
      <trkpt lat="48.03754" lon="-3.01796">
        <ele>180</ele>
        <time>2023-04-10T10:38:22Z</time>
      </trkpt>
      <trkpt lat="48.03759" lon="-3.01793">
        <ele>180</ele>
        <time>2023-04-10T10:38:23Z</time>
      </trkpt>
      <trkpt lat="48.03793" lon="-3.01775">
        <ele>180.6</ele>
        <time>2023-04-10T10:38:29Z</time>
      </trkpt>
      <trkpt lat="48.0384" lon="-3.01752">
        <ele>181.2</ele>
        <time>2023-04-10T10:38:37Z</time>
      </trkpt>
      <trkpt lat="48.03852" lon="-3.01746">
        <ele>181.4</ele>
        <time>2023-04-10T10:38:39Z</time>
      </trkpt>
      <trkpt lat="48.03903" lon="-3.0172">
        <ele>181.6</ele>
        <time>2023-04-10T10:38:47Z</time>
      </trkpt>
      <trkpt lat="48.03956" lon="-3.0169">
        <ele>181.6</ele>
        <time>2023-04-10T10:38:55Z</time>
      </trkpt>
      <trkpt lat="48.03999" lon="-3.01649">
        <ele>181.2</ele>
        <time>2023-04-10T10:39:02Z</time>
      </trkpt>
      <trkpt lat="48.04024" lon="-3.01625">
        <ele>180.6</ele>
        <time>2023-04-10T10:39:06Z</time>
      </trkpt>
      <trkpt lat="48.04037" lon="-3.01613">
        <ele>180.2</ele>
        <time>2023-04-10T10:39:08Z</time>
      </trkpt>
      <trkpt lat="48.04044" lon="-3.01606">
        <ele>180.2</ele>
        <time>2023-04-10T10:39:09Z</time>
      </trkpt>
      <trkpt lat="48.0405" lon="-3.016">
        <ele>179.8</ele>
        <time>2023-04-10T10:39:10Z</time>
      </trkpt>
      <trkpt lat="48.04056" lon="-3.01594">
        <ele>179.8</ele>
        <time>2023-04-10T10:39:11Z</time>
      </trkpt>
      <trkpt lat="48.04062" lon="-3.01587">
        <ele>179.6</ele>
        <time>2023-04-10T10:39:12Z</time>
      </trkpt>
      <trkpt lat="48.04068" lon="-3.01581">
        <ele>179.6</ele>
        <time>2023-04-10T10:39:13Z</time>
      </trkpt>
      <trkpt lat="48.04074" lon="-3.01575">
        <ele>179.6</ele>
        <time>2023-04-10T10:39:14Z</time>
      </trkpt>
      <trkpt lat="48.04086" lon="-3.01562">
        <ele>179</ele>
        <time>2023-04-10T10:39:16Z</time>
      </trkpt>
      <trkpt lat="48.04092" lon="-3.01556">
        <ele>179</ele>
        <time>2023-04-10T10:39:17Z</time>
      </trkpt>
      <trkpt lat="48.04098" lon="-3.01549">
        <ele>179</ele>
        <time>2023-04-10T10:39:18Z</time>
      </trkpt>
      <trkpt lat="48.04121" lon="-3.01525">
        <ele>178.2</ele>
        <time>2023-04-10T10:39:22Z</time>
      </trkpt>
      <trkpt lat="48.04133" lon="-3.01513">
        <ele>178</ele>
        <time>2023-04-10T10:39:24Z</time>
      </trkpt>
      <trkpt lat="48.04139" lon="-3.01507">
        <ele>178</ele>
        <time>2023-04-10T10:39:25Z</time>
      </trkpt>
      <trkpt lat="48.04146" lon="-3.01502">
        <ele>178</ele>
        <time>2023-04-10T10:39:26Z</time>
      </trkpt>
      <trkpt lat="48.04158" lon="-3.01489">
        <ele>177.6</ele>
        <time>2023-04-10T10:39:28Z</time>
      </trkpt>
      <trkpt lat="48.04163" lon="-3.01481">
        <ele>177.6</ele>
        <time>2023-04-10T10:39:29Z</time>
      </trkpt>
      <trkpt lat="48.04168" lon="-3.01471">
        <ele>177.6</ele>
        <time>2023-04-10T10:39:30Z</time>
      </trkpt>
      <trkpt lat="48.04172" lon="-3.01461">
        <ele>177.4</ele>
        <time>2023-04-10T10:39:31Z</time>
      </trkpt>
      <trkpt lat="48.04175" lon="-3.0145">
        <ele>177.4</ele>
        <time>2023-04-10T10:39:32Z</time>
      </trkpt>
      <trkpt lat="48.04177" lon="-3.01439">
        <ele>177</ele>
        <time>2023-04-10T10:39:33Z</time>
      </trkpt>
      <trkpt lat="48.04187" lon="-3.01391">
        <ele>176.4</ele>
        <time>2023-04-10T10:39:37Z</time>
      </trkpt>
      <trkpt lat="48.04193" lon="-3.01364">
        <ele>176.2</ele>
        <time>2023-04-10T10:39:39Z</time>
      </trkpt>
      <trkpt lat="48.04199" lon="-3.01336">
        <ele>175.8</ele>
        <time>2023-04-10T10:39:41Z</time>
      </trkpt>
      <trkpt lat="48.04202" lon="-3.01322">
        <ele>175.4</ele>
        <time>2023-04-10T10:39:42Z</time>
      </trkpt>
      <trkpt lat="48.04204" lon="-3.01308">
        <ele>175</ele>
        <time>2023-04-10T10:39:43Z</time>
      </trkpt>
      <trkpt lat="48.04205" lon="-3.01293">
        <ele>174.4</ele>
        <time>2023-04-10T10:39:44Z</time>
      </trkpt>
      <trkpt lat="48.04206" lon="-3.01232">
        <ele>173.2</ele>
        <time>2023-04-10T10:39:48Z</time>
      </trkpt>
      <trkpt lat="48.04206" lon="-3.01202">
        <ele>171.2</ele>
        <time>2023-04-10T10:39:50Z</time>
      </trkpt>
      <trkpt lat="48.04205" lon="-3.01187">
        <ele>170</ele>
        <time>2023-04-10T10:39:51Z</time>
      </trkpt>
      <trkpt lat="48.04204" lon="-3.01171">
        <ele>168.8</ele>
        <time>2023-04-10T10:39:52Z</time>
      </trkpt>
      <trkpt lat="48.04203" lon="-3.01156">
        <ele>168.2</ele>
        <time>2023-04-10T10:39:53Z</time>
      </trkpt>
      <trkpt lat="48.04202" lon="-3.01141">
        <ele>167.6</ele>
        <time>2023-04-10T10:39:54Z</time>
      </trkpt>
      <trkpt lat="48.04201" lon="-3.01127">
        <ele>166.4</ele>
        <time>2023-04-10T10:39:55Z</time>
      </trkpt>
      <trkpt lat="48.04199" lon="-3.01113">
        <ele>165.4</ele>
        <time>2023-04-10T10:39:56Z</time>
      </trkpt>
      <trkpt lat="48.04198" lon="-3.01101">
        <ele>164.4</ele>
        <time>2023-04-10T10:39:57Z</time>
      </trkpt>
      <trkpt lat="48.04196" lon="-3.01091">
        <ele>163.8</ele>
        <time>2023-04-10T10:39:58Z</time>
      </trkpt>
      <trkpt lat="48.04191" lon="-3.01083">
        <ele>163.2</ele>
        <time>2023-04-10T10:39:59Z</time>
      </trkpt>
      <trkpt lat="48.04186" lon="-3.01078">
        <ele>162.8</ele>
        <time>2023-04-10T10:40:00Z</time>
      </trkpt>
      <trkpt lat="48.04179" lon="-3.01074">
        <ele>162</ele>
        <time>2023-04-10T10:40:01Z</time>
      </trkpt>
      <trkpt lat="48.04162" lon="-3.01069">
        <ele>160.2</ele>
        <time>2023-04-10T10:40:03Z</time>
      </trkpt>
      <trkpt lat="48.04153" lon="-3.01068">
        <ele>159.6</ele>
        <time>2023-04-10T10:40:04Z</time>
      </trkpt>
      <trkpt lat="48.04145" lon="-3.01066">
        <ele>159.2</ele>
        <time>2023-04-10T10:40:05Z</time>
      </trkpt>
      <trkpt lat="48.0414" lon="-3.01061">
        <ele>158.8</ele>
        <time>2023-04-10T10:40:06Z</time>
      </trkpt>
      <trkpt lat="48.04136" lon="-3.01054">
        <ele>158.4</ele>
        <time>2023-04-10T10:40:07Z</time>
      </trkpt>
      <trkpt lat="48.04133" lon="-3.01044">
        <ele>157.6</ele>
        <time>2023-04-10T10:40:08Z</time>
      </trkpt>
      <trkpt lat="48.0413" lon="-3.01036">
        <ele>157.6</ele>
        <time>2023-04-10T10:40:09Z</time>
      </trkpt>
      <trkpt lat="48.04125" lon="-3.01015">
        <ele>155.6</ele>
        <time>2023-04-10T10:40:11Z</time>
      </trkpt>
      <trkpt lat="48.04123" lon="-3.01006">
        <ele>154.6</ele>
        <time>2023-04-10T10:40:12Z</time>
      </trkpt>
      <trkpt lat="48.04123" lon="-3.00997">
        <ele>153.2</ele>
        <time>2023-04-10T10:40:13Z</time>
      </trkpt>
      <trkpt lat="48.04127" lon="-3.00989">
        <ele>151.8</ele>
        <time>2023-04-10T10:40:14Z</time>
      </trkpt>
      <trkpt lat="48.0413" lon="-3.00982">
        <ele>150.2</ele>
        <time>2023-04-10T10:40:15Z</time>
      </trkpt>
      <trkpt lat="48.04134" lon="-3.00975">
        <ele>149.2</ele>
        <time>2023-04-10T10:40:16Z</time>
      </trkpt>
      <trkpt lat="48.04138" lon="-3.00967">
        <ele>148.4</ele>
        <time>2023-04-10T10:40:17Z</time>
      </trkpt>
      <trkpt lat="48.04141" lon="-3.00961">
        <ele>147.2</ele>
        <time>2023-04-10T10:40:18Z</time>
      </trkpt>
      <trkpt lat="48.04145" lon="-3.00954">
        <ele>146.2</ele>
        <time>2023-04-10T10:40:19Z</time>
      </trkpt>
      <trkpt lat="48.04151" lon="-3.00947">
        <ele>145.8</ele>
        <time>2023-04-10T10:40:20Z</time>
      </trkpt>
      <trkpt lat="48.04164" lon="-3.00935">
        <ele>144.6</ele>
        <time>2023-04-10T10:40:22Z</time>
      </trkpt>
      <trkpt lat="48.04172" lon="-3.0093">
        <ele>144.2</ele>
        <time>2023-04-10T10:40:23Z</time>
      </trkpt>
      <trkpt lat="48.04189" lon="-3.00917">
        <ele>143.6</ele>
        <time>2023-04-10T10:40:25Z</time>
      </trkpt>
      <trkpt lat="48.04206" lon="-3.00904">
        <ele>143.2</ele>
        <time>2023-04-10T10:40:27Z</time>
      </trkpt>
      <trkpt lat="48.04221" lon="-3.00889">
        <ele>142</ele>
        <time>2023-04-10T10:40:29Z</time>
      </trkpt>
      <trkpt lat="48.04229" lon="-3.00881">
        <ele>141.6</ele>
        <time>2023-04-10T10:40:30Z</time>
      </trkpt>
      <trkpt lat="48.04236" lon="-3.00874">
        <ele>141.6</ele>
        <time>2023-04-10T10:40:31Z</time>
      </trkpt>
      <trkpt lat="48.04243" lon="-3.00867">
        <ele>140.8</ele>
        <time>2023-04-10T10:40:32Z</time>
      </trkpt>
      <trkpt lat="48.0425" lon="-3.00859">
        <ele>140.2</ele>
        <time>2023-04-10T10:40:33Z</time>
      </trkpt>
      <trkpt lat="48.04254" lon="-3.00851">
        <ele>139.8</ele>
        <time>2023-04-10T10:40:34Z</time>
      </trkpt>
      <trkpt lat="48.04255" lon="-3.00843">
        <ele>139.2</ele>
        <time>2023-04-10T10:40:35Z</time>
      </trkpt>
      <trkpt lat="48.04251" lon="-3.00834">
        <ele>138.6</ele>
        <time>2023-04-10T10:40:36Z</time>
      </trkpt>
      <trkpt lat="48.04247" lon="-3.00827">
        <ele>138.4</ele>
        <time>2023-04-10T10:40:37Z</time>
      </trkpt>
      <trkpt lat="48.04243" lon="-3.0082">
        <ele>138.2</ele>
        <time>2023-04-10T10:40:38Z</time>
      </trkpt>
      <trkpt lat="48.04239" lon="-3.00813">
        <ele>138.2</ele>
        <time>2023-04-10T10:40:39Z</time>
      </trkpt>
      <trkpt lat="48.04235" lon="-3.00806">
        <ele>138</ele>
        <time>2023-04-10T10:40:40Z</time>
      </trkpt>
      <trkpt lat="48.04227" lon="-3.0079">
        <ele>137.8</ele>
        <time>2023-04-10T10:40:42Z</time>
      </trkpt>
      <trkpt lat="48.04224" lon="-3.00783">
        <ele>137.8</ele>
        <time>2023-04-10T10:40:43Z</time>
      </trkpt>
      <trkpt lat="48.04221" lon="-3.00777">
        <ele>137.8</ele>
        <time>2023-04-10T10:40:44Z</time>
      </trkpt>
      <trkpt lat="48.04219" lon="-3.00771">
        <ele>137.6</ele>
        <time>2023-04-10T10:40:45Z</time>
      </trkpt>
      <trkpt lat="48.04218" lon="-3.00767">
        <ele>137.4</ele>
        <time>2023-04-10T10:40:46Z</time>
      </trkpt>
      <trkpt lat="48.04218" lon="-3.00763">
        <ele>137.2</ele>
        <time>2023-04-10T10:40:47Z</time>
      </trkpt>
      <trkpt lat="48.04219" lon="-3.00759">
        <ele>136.8</ele>
        <time>2023-04-10T10:40:48Z</time>
      </trkpt>
      <trkpt lat="48.0422" lon="-3.00754">
        <ele>136.6</ele>
        <time>2023-04-10T10:40:49Z</time>
      </trkpt>
      <trkpt lat="48.04222" lon="-3.00748">
        <ele>136.4</ele>
        <time>2023-04-10T10:40:50Z</time>
      </trkpt>
      <trkpt lat="48.04225" lon="-3.00743">
        <ele>136.4</ele>
        <time>2023-04-10T10:40:51Z</time>
      </trkpt>
      <trkpt lat="48.04229" lon="-3.00737">
        <ele>136.2</ele>
        <time>2023-04-10T10:40:52Z</time>
      </trkpt>
      <trkpt lat="48.04246" lon="-3.00712">
        <ele>136.2</ele>
        <time>2023-04-10T10:40:56Z</time>
      </trkpt>
      <trkpt lat="48.0425" lon="-3.00706">
        <ele>136.2</ele>
        <time>2023-04-10T10:40:57Z</time>
      </trkpt>
      <trkpt lat="48.04254" lon="-3.007">
        <ele>136.2</ele>
        <time>2023-04-10T10:40:58Z</time>
      </trkpt>
      <trkpt lat="48.04258" lon="-3.00694">
        <ele>136.2</ele>
        <time>2023-04-10T10:40:59Z</time>
      </trkpt>
      <trkpt lat="48.04262" lon="-3.00689">
        <ele>136.2</ele>
        <time>2023-04-10T10:41:00Z</time>
      </trkpt>
      <trkpt lat="48.04267" lon="-3.00683">
        <ele>136.2</ele>
        <time>2023-04-10T10:41:01Z</time>
      </trkpt>
      <trkpt lat="48.04272" lon="-3.00675">
        <ele>136.2</ele>
        <time>2023-04-10T10:41:02Z</time>
      </trkpt>
      <trkpt lat="48.04276" lon="-3.00668">
        <ele>136.2</ele>
        <time>2023-04-10T10:41:03Z</time>
      </trkpt>
      <trkpt lat="48.0428" lon="-3.00663">
        <ele>136.4</ele>
        <time>2023-04-10T10:41:04Z</time>
      </trkpt>
      <trkpt lat="48.04284" lon="-3.00657">
        <ele>136.6</ele>
        <time>2023-04-10T10:41:05Z</time>
      </trkpt>
      <trkpt lat="48.04288" lon="-3.0065">
        <ele>136.8</ele>
        <time>2023-04-10T10:41:06Z</time>
      </trkpt>
      <trkpt lat="48.04291" lon="-3.00643">
        <ele>137</ele>
        <time>2023-04-10T10:41:07Z</time>
      </trkpt>
      <trkpt lat="48.0429" lon="-3.00637">
        <ele>137.2</ele>
        <time>2023-04-10T10:41:08Z</time>
      </trkpt>
      <trkpt lat="48.04288" lon="-3.00632">
        <ele>137.4</ele>
        <time>2023-04-10T10:41:09Z</time>
      </trkpt>
      <trkpt lat="48.04286" lon="-3.00627">
        <ele>137.6</ele>
        <time>2023-04-10T10:41:10Z</time>
      </trkpt>
      <trkpt lat="48.04285" lon="-3.00623">
        <ele>137.8</ele>
        <time>2023-04-10T10:41:11Z</time>
      </trkpt>
      <trkpt lat="48.04283" lon="-3.0062">
        <ele>138</ele>
        <time>2023-04-10T10:41:12Z</time>
      </trkpt>
      <trkpt lat="48.04282" lon="-3.00618">
        <ele>138.2</ele>
        <time>2023-04-10T10:41:13Z</time>
      </trkpt>
      <trkpt lat="48.0428" lon="-3.00616">
        <ele>138.6</ele>
        <time>2023-04-10T10:41:14Z</time>
      </trkpt>
      <trkpt lat="48.04278" lon="-3.00615">
        <ele>138.8</ele>
        <time>2023-04-10T10:41:15Z</time>
      </trkpt>
      <trkpt lat="48.04276" lon="-3.00614">
        <ele>139</ele>
        <time>2023-04-10T10:41:16Z</time>
      </trkpt>
      <trkpt lat="48.04274" lon="-3.00613">
        <ele>139</ele>
        <time>2023-04-10T10:41:17Z</time>
      </trkpt>
      <trkpt lat="48.04271" lon="-3.00612">
        <ele>139.4</ele>
        <time>2023-04-10T10:41:18Z</time>
      </trkpt>
      <trkpt lat="48.04269" lon="-3.00612">
        <ele>139.8</ele>
        <time>2023-04-10T10:41:19Z</time>
      </trkpt>
      <trkpt lat="48.04267" lon="-3.00612">
        <ele>140.2</ele>
        <time>2023-04-10T10:41:20Z</time>
      </trkpt>
      <trkpt lat="48.04265" lon="-3.00612">
        <ele>140.8</ele>
        <time>2023-04-10T10:41:21Z</time>
      </trkpt>
      <trkpt lat="48.04263" lon="-3.00612">
        <ele>141.4</ele>
        <time>2023-04-10T10:41:22Z</time>
      </trkpt>
      <trkpt lat="48.0426" lon="-3.00612">
        <ele>141.8</ele>
        <time>2023-04-10T10:41:23Z</time>
      </trkpt>
      <trkpt lat="48.04258" lon="-3.00612">
        <ele>142</ele>
        <time>2023-04-10T10:41:24Z</time>
      </trkpt>
      <trkpt lat="48.04256" lon="-3.00611">
        <ele>142.4</ele>
        <time>2023-04-10T10:41:25Z</time>
      </trkpt>
      <trkpt lat="48.04254" lon="-3.00611">
        <ele>143</ele>
        <time>2023-04-10T10:41:26Z</time>
      </trkpt>
      <trkpt lat="48.04252" lon="-3.00611">
        <ele>143.6</ele>
        <time>2023-04-10T10:41:27Z</time>
      </trkpt>
      <trkpt lat="48.04249" lon="-3.00611">
        <ele>143.8</ele>
        <time>2023-04-10T10:41:28Z</time>
      </trkpt>
      <trkpt lat="48.04247" lon="-3.0061">
        <ele>144</ele>
        <time>2023-04-10T10:41:29Z</time>
      </trkpt>
      <trkpt lat="48.04245" lon="-3.0061">
        <ele>144.2</ele>
        <time>2023-04-10T10:41:30Z</time>
      </trkpt>
      <trkpt lat="48.04243" lon="-3.0061">
        <ele>144.4</ele>
        <time>2023-04-10T10:41:31Z</time>
      </trkpt>
      <trkpt lat="48.04241" lon="-3.00609">
        <ele>144.6</ele>
        <time>2023-04-10T10:41:32Z</time>
      </trkpt>
      <trkpt lat="48.04239" lon="-3.00609">
        <ele>144.8</ele>
        <time>2023-04-10T10:41:33Z</time>
      </trkpt>
      <trkpt lat="48.04236" lon="-3.00609">
        <ele>144.8</ele>
        <time>2023-04-10T10:41:34Z</time>
      </trkpt>
      <trkpt lat="48.04234" lon="-3.00608">
        <ele>145.2</ele>
        <time>2023-04-10T10:41:35Z</time>
      </trkpt>
      <trkpt lat="48.04232" lon="-3.00607">
        <ele>145.4</ele>
        <time>2023-04-10T10:41:36Z</time>
      </trkpt>
      <trkpt lat="48.0423" lon="-3.00606">
        <ele>145.6</ele>
        <time>2023-04-10T10:41:37Z</time>
      </trkpt>
      <trkpt lat="48.04228" lon="-3.00605">
        <ele>146</ele>
        <time>2023-04-10T10:41:38Z</time>
      </trkpt>
      <trkpt lat="48.04225" lon="-3.00604">
        <ele>146</ele>
        <time>2023-04-10T10:41:39Z</time>
      </trkpt>
      <trkpt lat="48.04223" lon="-3.00603">
        <ele>146.2</ele>
        <time>2023-04-10T10:41:40Z</time>
      </trkpt>
      <trkpt lat="48.0422" lon="-3.00602">
        <ele>146.4</ele>
        <time>2023-04-10T10:41:41Z</time>
      </trkpt>
      <trkpt lat="48.04218" lon="-3.00601">
        <ele>146.4</ele>
        <time>2023-04-10T10:41:42Z</time>
      </trkpt>
      <trkpt lat="48.04216" lon="-3.006">
        <ele>146.6</ele>
        <time>2023-04-10T10:41:43Z</time>
      </trkpt>
      <trkpt lat="48.04214" lon="-3.00599">
        <ele>146.6</ele>
        <time>2023-04-10T10:41:44Z</time>
      </trkpt>
      <trkpt lat="48.04212" lon="-3.00598">
        <ele>146.8</ele>
        <time>2023-04-10T10:41:45Z</time>
      </trkpt>
      <trkpt lat="48.0421" lon="-3.00597">
        <ele>147</ele>
        <time>2023-04-10T10:41:46Z</time>
      </trkpt>
      <trkpt lat="48.04208" lon="-3.00595">
        <ele>147.2</ele>
        <time>2023-04-10T10:41:47Z</time>
      </trkpt>
      <trkpt lat="48.04206" lon="-3.00593">
        <ele>147.4</ele>
        <time>2023-04-10T10:41:48Z</time>
      </trkpt>
      <trkpt lat="48.04204" lon="-3.00591">
        <ele>147.6</ele>
        <time>2023-04-10T10:41:49Z</time>
      </trkpt>
      <trkpt lat="48.04202" lon="-3.0059">
        <ele>148</ele>
        <time>2023-04-10T10:41:50Z</time>
      </trkpt>
      <trkpt lat="48.042" lon="-3.00588">
        <ele>148.2</ele>
        <time>2023-04-10T10:41:51Z</time>
      </trkpt>
      <trkpt lat="48.04197" lon="-3.00587">
        <ele>148.4</ele>
        <time>2023-04-10T10:41:52Z</time>
      </trkpt>
      <trkpt lat="48.04195" lon="-3.00585">
        <ele>148.4</ele>
        <time>2023-04-10T10:41:53Z</time>
      </trkpt>
      <trkpt lat="48.04193" lon="-3.00583">
        <ele>148.6</ele>
        <time>2023-04-10T10:41:54Z</time>
      </trkpt>
      <trkpt lat="48.04191" lon="-3.00581">
        <ele>148.8</ele>
        <time>2023-04-10T10:41:55Z</time>
      </trkpt>
      <trkpt lat="48.04189" lon="-3.0058">
        <ele>149</ele>
        <time>2023-04-10T10:41:56Z</time>
      </trkpt>
      <trkpt lat="48.04187" lon="-3.00578">
        <ele>149.2</ele>
        <time>2023-04-10T10:41:57Z</time>
      </trkpt>
      <trkpt lat="48.04186" lon="-3.00575">
        <ele>149.4</ele>
        <time>2023-04-10T10:41:58Z</time>
      </trkpt>
      <trkpt lat="48.04184" lon="-3.00573">
        <ele>149.6</ele>
        <time>2023-04-10T10:41:59Z</time>
      </trkpt>
      <trkpt lat="48.04182" lon="-3.00571">
        <ele>149.6</ele>
        <time>2023-04-10T10:42:00Z</time>
      </trkpt>
      <trkpt lat="48.0418" lon="-3.00568">
        <ele>149.8</ele>
        <time>2023-04-10T10:42:01Z</time>
      </trkpt>
      <trkpt lat="48.04178" lon="-3.00566">
        <ele>150</ele>
        <time>2023-04-10T10:42:02Z</time>
      </trkpt>
      <trkpt lat="48.04176" lon="-3.00563">
        <ele>150.2</ele>
        <time>2023-04-10T10:42:03Z</time>
      </trkpt>
      <trkpt lat="48.04175" lon="-3.00561">
        <ele>150.4</ele>
        <time>2023-04-10T10:42:04Z</time>
      </trkpt>
      <trkpt lat="48.04173" lon="-3.00559">
        <ele>150.8</ele>
        <time>2023-04-10T10:42:05Z</time>
      </trkpt>
      <trkpt lat="48.04171" lon="-3.00556">
        <ele>151</ele>
        <time>2023-04-10T10:42:06Z</time>
      </trkpt>
      <trkpt lat="48.04169" lon="-3.00554">
        <ele>151.2</ele>
        <time>2023-04-10T10:42:07Z</time>
      </trkpt>
      <trkpt lat="48.04167" lon="-3.00551">
        <ele>151.4</ele>
        <time>2023-04-10T10:42:08Z</time>
      </trkpt>
      <trkpt lat="48.04165" lon="-3.00549">
        <ele>151.8</ele>
        <time>2023-04-10T10:42:09Z</time>
      </trkpt>
      <trkpt lat="48.04163" lon="-3.00546">
        <ele>152</ele>
        <time>2023-04-10T10:42:10Z</time>
      </trkpt>
      <trkpt lat="48.04161" lon="-3.00544">
        <ele>152</ele>
        <time>2023-04-10T10:42:11Z</time>
      </trkpt>
      <trkpt lat="48.04159" lon="-3.00541">
        <ele>152.2</ele>
        <time>2023-04-10T10:42:12Z</time>
      </trkpt>
      <trkpt lat="48.04157" lon="-3.00538">
        <ele>152.4</ele>
        <time>2023-04-10T10:42:13Z</time>
      </trkpt>
      <trkpt lat="48.04155" lon="-3.00535">
        <ele>152.6</ele>
        <time>2023-04-10T10:42:14Z</time>
      </trkpt>
      <trkpt lat="48.04153" lon="-3.00532">
        <ele>152.8</ele>
        <time>2023-04-10T10:42:15Z</time>
      </trkpt>
      <trkpt lat="48.04151" lon="-3.00529">
        <ele>152.8</ele>
        <time>2023-04-10T10:42:16Z</time>
      </trkpt>
      <trkpt lat="48.04148" lon="-3.00525">
        <ele>153</ele>
        <time>2023-04-10T10:42:17Z</time>
      </trkpt>
      <trkpt lat="48.04146" lon="-3.00522">
        <ele>153.2</ele>
        <time>2023-04-10T10:42:18Z</time>
      </trkpt>
      <trkpt lat="48.04144" lon="-3.00518">
        <ele>153.2</ele>
        <time>2023-04-10T10:42:19Z</time>
      </trkpt>
      <trkpt lat="48.04142" lon="-3.00514">
        <ele>153.4</ele>
        <time>2023-04-10T10:42:20Z</time>
      </trkpt>
      <trkpt lat="48.04139" lon="-3.0051">
        <ele>153.6</ele>
        <time>2023-04-10T10:42:21Z</time>
      </trkpt>
      <trkpt lat="48.04136" lon="-3.00506">
        <ele>153.6</ele>
        <time>2023-04-10T10:42:22Z</time>
      </trkpt>
      <trkpt lat="48.04134" lon="-3.00502">
        <ele>153.6</ele>
        <time>2023-04-10T10:42:23Z</time>
      </trkpt>
      <trkpt lat="48.04131" lon="-3.00498">
        <ele>153.6</ele>
        <time>2023-04-10T10:42:24Z</time>
      </trkpt>
      <trkpt lat="48.04128" lon="-3.00494">
        <ele>153.8</ele>
        <time>2023-04-10T10:42:25Z</time>
      </trkpt>
      <trkpt lat="48.04125" lon="-3.0049">
        <ele>154</ele>
        <time>2023-04-10T10:42:26Z</time>
      </trkpt>
      <trkpt lat="48.04123" lon="-3.00486">
        <ele>154.2</ele>
        <time>2023-04-10T10:42:27Z</time>
      </trkpt>
      <trkpt lat="48.0412" lon="-3.00482">
        <ele>154.2</ele>
        <time>2023-04-10T10:42:28Z</time>
      </trkpt>
      <trkpt lat="48.04117" lon="-3.00478">
        <ele>154.2</ele>
        <time>2023-04-10T10:42:29Z</time>
      </trkpt>
      <trkpt lat="48.04114" lon="-3.00474">
        <ele>154.2</ele>
        <time>2023-04-10T10:42:30Z</time>
      </trkpt>
      <trkpt lat="48.04111" lon="-3.0047">
        <ele>154.4</ele>
        <time>2023-04-10T10:42:31Z</time>
      </trkpt>
      <trkpt lat="48.04108" lon="-3.00465">
        <ele>154.4</ele>
        <time>2023-04-10T10:42:32Z</time>
      </trkpt>
      <trkpt lat="48.04106" lon="-3.0046">
        <ele>154.4</ele>
        <time>2023-04-10T10:42:33Z</time>
      </trkpt>
      <trkpt lat="48.04103" lon="-3.00456">
        <ele>154.4</ele>
        <time>2023-04-10T10:42:34Z</time>
      </trkpt>
      <trkpt lat="48.041" lon="-3.00451">
        <ele>154.4</ele>
        <time>2023-04-10T10:42:35Z</time>
      </trkpt>
      <trkpt lat="48.04098" lon="-3.00445">
        <ele>154.6</ele>
        <time>2023-04-10T10:42:36Z</time>
      </trkpt>
      <trkpt lat="48.04095" lon="-3.00441">
        <ele>154.6</ele>
        <time>2023-04-10T10:42:37Z</time>
      </trkpt>
      <trkpt lat="48.04093" lon="-3.00435">
        <ele>154.6</ele>
        <time>2023-04-10T10:42:38Z</time>
      </trkpt>
      <trkpt lat="48.04091" lon="-3.0043">
        <ele>154.8</ele>
        <time>2023-04-10T10:42:39Z</time>
      </trkpt>
      <trkpt lat="48.04089" lon="-3.00424">
        <ele>154.8</ele>
        <time>2023-04-10T10:42:40Z</time>
      </trkpt>
      <trkpt lat="48.04087" lon="-3.00418">
        <ele>154.8</ele>
        <time>2023-04-10T10:42:41Z</time>
      </trkpt>
      <trkpt lat="48.04086" lon="-3.00411">
        <ele>154.8</ele>
        <time>2023-04-10T10:42:42Z</time>
      </trkpt>
      <trkpt lat="48.04084" lon="-3.00399">
        <ele>154.8</ele>
        <time>2023-04-10T10:42:44Z</time>
      </trkpt>
      <trkpt lat="48.04083" lon="-3.00392">
        <ele>154.8</ele>
        <time>2023-04-10T10:42:45Z</time>
      </trkpt>
      <trkpt lat="48.04082" lon="-3.00386">
        <ele>154.8</ele>
        <time>2023-04-10T10:42:46Z</time>
      </trkpt>
      <trkpt lat="48.04082" lon="-3.00367">
        <ele>155</ele>
        <time>2023-04-10T10:42:49Z</time>
      </trkpt>
      <trkpt lat="48.04084" lon="-3.0034">
        <ele>155.4</ele>
        <time>2023-04-10T10:42:53Z</time>
      </trkpt>
      <trkpt lat="48.04088" lon="-3.0032">
        <ele>156.4</ele>
        <time>2023-04-10T10:42:56Z</time>
      </trkpt>
      <trkpt lat="48.0409" lon="-3.00313">
        <ele>156.6</ele>
        <time>2023-04-10T10:42:57Z</time>
      </trkpt>
      <trkpt lat="48.04101" lon="-3.00279">
        <ele>157.6</ele>
        <time>2023-04-10T10:43:02Z</time>
      </trkpt>
      <trkpt lat="48.04104" lon="-3.00272">
        <ele>157.8</ele>
        <time>2023-04-10T10:43:03Z</time>
      </trkpt>
      <trkpt lat="48.04107" lon="-3.00265">
        <ele>157.8</ele>
        <time>2023-04-10T10:43:04Z</time>
      </trkpt>
      <trkpt lat="48.0411" lon="-3.00258">
        <ele>158</ele>
        <time>2023-04-10T10:43:05Z</time>
      </trkpt>
      <trkpt lat="48.04113" lon="-3.00251">
        <ele>158.2</ele>
        <time>2023-04-10T10:43:06Z</time>
      </trkpt>
      <trkpt lat="48.04115" lon="-3.00244">
        <ele>158.2</ele>
        <time>2023-04-10T10:43:07Z</time>
      </trkpt>
      <trkpt lat="48.04118" lon="-3.00237">
        <ele>158.2</ele>
        <time>2023-04-10T10:43:08Z</time>
      </trkpt>
      <trkpt lat="48.0412" lon="-3.00231">
        <ele>158.4</ele>
        <time>2023-04-10T10:43:09Z</time>
      </trkpt>
      <trkpt lat="48.04123" lon="-3.00224">
        <ele>158.6</ele>
        <time>2023-04-10T10:43:10Z</time>
      </trkpt>
      <trkpt lat="48.04126" lon="-3.00217">
        <ele>158.6</ele>
        <time>2023-04-10T10:43:11Z</time>
      </trkpt>
      <trkpt lat="48.0413" lon="-3.00211">
        <ele>158.6</ele>
        <time>2023-04-10T10:43:12Z</time>
      </trkpt>
      <trkpt lat="48.04132" lon="-3.00204">
        <ele>158.8</ele>
        <time>2023-04-10T10:43:13Z</time>
      </trkpt>
      <trkpt lat="48.04135" lon="-3.00197">
        <ele>158.8</ele>
        <time>2023-04-10T10:43:14Z</time>
      </trkpt>
      <trkpt lat="48.04139" lon="-3.0019">
        <ele>158.8</ele>
        <time>2023-04-10T10:43:15Z</time>
      </trkpt>
      <trkpt lat="48.04142" lon="-3.00183">
        <ele>158.8</ele>
        <time>2023-04-10T10:43:16Z</time>
      </trkpt>
      <trkpt lat="48.04145" lon="-3.00175">
        <ele>158.8</ele>
        <time>2023-04-10T10:43:17Z</time>
      </trkpt>
      <trkpt lat="48.04148" lon="-3.00166">
        <ele>158.8</ele>
        <time>2023-04-10T10:43:18Z</time>
      </trkpt>
      <trkpt lat="48.04152" lon="-3.00158">
        <ele>158.8</ele>
        <time>2023-04-10T10:43:19Z</time>
      </trkpt>
      <trkpt lat="48.04155" lon="-3.00149">
        <ele>158.8</ele>
        <time>2023-04-10T10:43:20Z</time>
      </trkpt>
      <trkpt lat="48.04159" lon="-3.00139">
        <ele>158.8</ele>
        <time>2023-04-10T10:43:21Z</time>
      </trkpt>
      <trkpt lat="48.04163" lon="-3.00129">
        <ele>158.8</ele>
        <time>2023-04-10T10:43:22Z</time>
      </trkpt>
      <trkpt lat="48.04173" lon="-3.00107">
        <ele>158.6</ele>
        <time>2023-04-10T10:43:24Z</time>
      </trkpt>
      <trkpt lat="48.04184" lon="-3.00084">
        <ele>158.4</ele>
        <time>2023-04-10T10:43:26Z</time>
      </trkpt>
      <trkpt lat="48.0419" lon="-3.00071">
        <ele>158.2</ele>
        <time>2023-04-10T10:43:27Z</time>
      </trkpt>
      <trkpt lat="48.04197" lon="-3.00059">
        <ele>157.8</ele>
        <time>2023-04-10T10:43:28Z</time>
      </trkpt>
      <trkpt lat="48.0423" lon="-3.00004">
        <ele>156.6</ele>
        <time>2023-04-10T10:43:32Z</time>
      </trkpt>
      <trkpt lat="48.04247" lon="-2.99975">
        <ele>155.2</ele>
        <time>2023-04-10T10:43:34Z</time>
      </trkpt>
      <trkpt lat="48.04255" lon="-2.9996">
        <ele>154.2</ele>
        <time>2023-04-10T10:43:35Z</time>
      </trkpt>
      <trkpt lat="48.04264" lon="-2.99946">
        <ele>153.2</ele>
        <time>2023-04-10T10:43:36Z</time>
      </trkpt>
      <trkpt lat="48.04271" lon="-2.99932">
        <ele>152.2</ele>
        <time>2023-04-10T10:43:37Z</time>
      </trkpt>
      <trkpt lat="48.04277" lon="-2.99916">
        <ele>151.4</ele>
        <time>2023-04-10T10:43:38Z</time>
      </trkpt>
      <trkpt lat="48.04282" lon="-2.99899">
        <ele>150.4</ele>
        <time>2023-04-10T10:43:39Z</time>
      </trkpt>
      <trkpt lat="48.04285" lon="-2.99881">
        <ele>149.4</ele>
        <time>2023-04-10T10:43:40Z</time>
      </trkpt>
      <trkpt lat="48.04288" lon="-2.99861">
        <ele>148.6</ele>
        <time>2023-04-10T10:43:41Z</time>
      </trkpt>
      <trkpt lat="48.04289" lon="-2.99845">
        <ele>147.4</ele>
        <time>2023-04-10T10:43:42Z</time>
      </trkpt>
      <trkpt lat="48.04291" lon="-2.99821">
        <ele>146.2</ele>
        <time>2023-04-10T10:43:43Z</time>
      </trkpt>
      <trkpt lat="48.04293" lon="-2.99801">
        <ele>145.4</ele>
        <time>2023-04-10T10:43:44Z</time>
      </trkpt>
      <trkpt lat="48.04294" lon="-2.99783">
        <ele>144.4</ele>
        <time>2023-04-10T10:43:45Z</time>
      </trkpt>
      <trkpt lat="48.04295" lon="-2.99766">
        <ele>143.2</ele>
        <time>2023-04-10T10:43:46Z</time>
      </trkpt>
      <trkpt lat="48.04295" lon="-2.99751">
        <ele>142.2</ele>
        <time>2023-04-10T10:43:47Z</time>
      </trkpt>
      <trkpt lat="48.04296" lon="-2.99736">
        <ele>141.4</ele>
        <time>2023-04-10T10:43:48Z</time>
      </trkpt>
      <trkpt lat="48.04296" lon="-2.99722">
        <ele>140.4</ele>
        <time>2023-04-10T10:43:49Z</time>
      </trkpt>
      <trkpt lat="48.04296" lon="-2.99708">
        <ele>138.4</ele>
        <time>2023-04-10T10:43:50Z</time>
      </trkpt>
      <trkpt lat="48.04296" lon="-2.99695">
        <ele>138.4</ele>
        <time>2023-04-10T10:43:51Z</time>
      </trkpt>
      <trkpt lat="48.04295" lon="-2.99682">
        <ele>136.8</ele>
        <time>2023-04-10T10:43:52Z</time>
      </trkpt>
      <trkpt lat="48.04294" lon="-2.99671">
        <ele>135.4</ele>
        <time>2023-04-10T10:43:53Z</time>
      </trkpt>
      <trkpt lat="48.04292" lon="-2.9966">
        <ele>133.6</ele>
        <time>2023-04-10T10:43:54Z</time>
      </trkpt>
      <trkpt lat="48.04289" lon="-2.9965">
        <ele>132.2</ele>
        <time>2023-04-10T10:43:55Z</time>
      </trkpt>
      <trkpt lat="48.04286" lon="-2.9964">
        <ele>131.2</ele>
        <time>2023-04-10T10:43:56Z</time>
      </trkpt>
      <trkpt lat="48.04276" lon="-2.99621">
        <ele>129.4</ele>
        <time>2023-04-10T10:43:58Z</time>
      </trkpt>
      <trkpt lat="48.04272" lon="-2.9961">
        <ele>128.8</ele>
        <time>2023-04-10T10:43:59Z</time>
      </trkpt>
      <trkpt lat="48.04269" lon="-2.99598">
        <ele>128.2</ele>
        <time>2023-04-10T10:44:00Z</time>
      </trkpt>
      <trkpt lat="48.04266" lon="-2.99574">
        <ele>126.4</ele>
        <time>2023-04-10T10:44:02Z</time>
      </trkpt>
      <trkpt lat="48.04265" lon="-2.99561">
        <ele>125.6</ele>
        <time>2023-04-10T10:44:03Z</time>
      </trkpt>
      <trkpt lat="48.04265" lon="-2.99547">
        <ele>125</ele>
        <time>2023-04-10T10:44:04Z</time>
      </trkpt>
      <trkpt lat="48.04268" lon="-2.9952">
        <ele>123.6</ele>
        <time>2023-04-10T10:44:06Z</time>
      </trkpt>
      <trkpt lat="48.04271" lon="-2.99506">
        <ele>123.2</ele>
        <time>2023-04-10T10:44:07Z</time>
      </trkpt>
      <trkpt lat="48.04273" lon="-2.99492">
        <ele>122.6</ele>
        <time>2023-04-10T10:44:08Z</time>
      </trkpt>
      <trkpt lat="48.04278" lon="-2.99463">
        <ele>121.6</ele>
        <time>2023-04-10T10:44:10Z</time>
      </trkpt>
      <trkpt lat="48.04285" lon="-2.99434">
        <ele>120.6</ele>
        <time>2023-04-10T10:44:12Z</time>
      </trkpt>
      <trkpt lat="48.04288" lon="-2.9942">
        <ele>120.6</ele>
        <time>2023-04-10T10:44:13Z</time>
      </trkpt>
      <trkpt lat="48.04291" lon="-2.99406">
        <ele>120.2</ele>
        <time>2023-04-10T10:44:14Z</time>
      </trkpt>
      <trkpt lat="48.04297" lon="-2.99377">
        <ele>119</ele>
        <time>2023-04-10T10:44:16Z</time>
      </trkpt>
      <trkpt lat="48.043" lon="-2.99363">
        <ele>118.4</ele>
        <time>2023-04-10T10:44:17Z</time>
      </trkpt>
      <trkpt lat="48.04301" lon="-2.99349">
        <ele>117.8</ele>
        <time>2023-04-10T10:44:18Z</time>
      </trkpt>
      <trkpt lat="48.04303" lon="-2.99335">
        <ele>117.4</ele>
        <time>2023-04-10T10:44:19Z</time>
      </trkpt>
      <trkpt lat="48.04304" lon="-2.99321">
        <ele>117.2</ele>
        <time>2023-04-10T10:44:20Z</time>
      </trkpt>
      <trkpt lat="48.04305" lon="-2.99308">
        <ele>116.8</ele>
        <time>2023-04-10T10:44:21Z</time>
      </trkpt>
      <trkpt lat="48.04306" lon="-2.99294">
        <ele>116.2</ele>
        <time>2023-04-10T10:44:22Z</time>
      </trkpt>
      <trkpt lat="48.04307" lon="-2.99281">
        <ele>115.6</ele>
        <time>2023-04-10T10:44:23Z</time>
      </trkpt>
      <trkpt lat="48.04308" lon="-2.99268">
        <ele>115</ele>
        <time>2023-04-10T10:44:24Z</time>
      </trkpt>
      <trkpt lat="48.04309" lon="-2.99255">
        <ele>114.8</ele>
        <time>2023-04-10T10:44:25Z</time>
      </trkpt>
      <trkpt lat="48.04309" lon="-2.99242">
        <ele>114.2</ele>
        <time>2023-04-10T10:44:26Z</time>
      </trkpt>
      <trkpt lat="48.04309" lon="-2.99229">
        <ele>114</ele>
        <time>2023-04-10T10:44:27Z</time>
      </trkpt>
      <trkpt lat="48.04308" lon="-2.99216">
        <ele>113.8</ele>
        <time>2023-04-10T10:44:28Z</time>
      </trkpt>
      <trkpt lat="48.04308" lon="-2.99204">
        <ele>113.6</ele>
        <time>2023-04-10T10:44:29Z</time>
      </trkpt>
      <trkpt lat="48.04308" lon="-2.99192">
        <ele>113.4</ele>
        <time>2023-04-10T10:44:30Z</time>
      </trkpt>
      <trkpt lat="48.04308" lon="-2.99179">
        <ele>113.2</ele>
        <time>2023-04-10T10:44:31Z</time>
      </trkpt>
      <trkpt lat="48.04309" lon="-2.99167">
        <ele>113</ele>
        <time>2023-04-10T10:44:32Z</time>
      </trkpt>
      <trkpt lat="48.0431" lon="-2.99156">
        <ele>112.4</ele>
        <time>2023-04-10T10:44:33Z</time>
      </trkpt>
      <trkpt lat="48.04312" lon="-2.99145">
        <ele>112.2</ele>
        <time>2023-04-10T10:44:34Z</time>
      </trkpt>
      <trkpt lat="48.0433" lon="-2.99089">
        <ele>111.4</ele>
        <time>2023-04-10T10:44:39Z</time>
      </trkpt>
      <trkpt lat="48.04334" lon="-2.99077">
        <ele>111</ele>
        <time>2023-04-10T10:44:40Z</time>
      </trkpt>
      <trkpt lat="48.04349" lon="-2.99026">
        <ele>110.2</ele>
        <time>2023-04-10T10:44:44Z</time>
      </trkpt>
      <trkpt lat="48.04352" lon="-2.99012">
        <ele>110</ele>
        <time>2023-04-10T10:44:45Z</time>
      </trkpt>
      <trkpt lat="48.04354" lon="-2.98999">
        <ele>110</ele>
        <time>2023-04-10T10:44:46Z</time>
      </trkpt>
      <trkpt lat="48.04356" lon="-2.98972">
        <ele>109.6</ele>
        <time>2023-04-10T10:44:48Z</time>
      </trkpt>
      <trkpt lat="48.04356" lon="-2.98958">
        <ele>109.4</ele>
        <time>2023-04-10T10:44:49Z</time>
      </trkpt>
      <trkpt lat="48.04357" lon="-2.98944">
        <ele>109.2</ele>
        <time>2023-04-10T10:44:50Z</time>
      </trkpt>
      <trkpt lat="48.04357" lon="-2.98931">
        <ele>109</ele>
        <time>2023-04-10T10:44:51Z</time>
      </trkpt>
      <trkpt lat="48.0436" lon="-2.98875">
        <ele>107.8</ele>
        <time>2023-04-10T10:44:55Z</time>
      </trkpt>
      <trkpt lat="48.0436" lon="-2.98862">
        <ele>107.6</ele>
        <time>2023-04-10T10:44:56Z</time>
      </trkpt>
      <trkpt lat="48.0436" lon="-2.98848">
        <ele>107.4</ele>
        <time>2023-04-10T10:44:57Z</time>
      </trkpt>
      <trkpt lat="48.04361" lon="-2.98821">
        <ele>107.2</ele>
        <time>2023-04-10T10:44:59Z</time>
      </trkpt>
      <trkpt lat="48.04362" lon="-2.98807">
        <ele>106.8</ele>
        <time>2023-04-10T10:45:00Z</time>
      </trkpt>
      <trkpt lat="48.04362" lon="-2.98779">
        <ele>106.2</ele>
        <time>2023-04-10T10:45:02Z</time>
      </trkpt>
      <trkpt lat="48.0436" lon="-2.98766">
        <ele>105.6</ele>
        <time>2023-04-10T10:45:03Z</time>
      </trkpt>
      <trkpt lat="48.04357" lon="-2.98754">
        <ele>104.8</ele>
        <time>2023-04-10T10:45:04Z</time>
      </trkpt>
      <trkpt lat="48.04353" lon="-2.98743">
        <ele>104.4</ele>
        <time>2023-04-10T10:45:05Z</time>
      </trkpt>
      <trkpt lat="48.04347" lon="-2.98732">
        <ele>104.2</ele>
        <time>2023-04-10T10:45:06Z</time>
      </trkpt>
      <trkpt lat="48.0434" lon="-2.98724">
        <ele>104</ele>
        <time>2023-04-10T10:45:07Z</time>
      </trkpt>
      <trkpt lat="48.04334" lon="-2.98716">
        <ele>103.6</ele>
        <time>2023-04-10T10:45:08Z</time>
      </trkpt>
      <trkpt lat="48.04327" lon="-2.98711">
        <ele>103.2</ele>
        <time>2023-04-10T10:45:09Z</time>
      </trkpt>
      <trkpt lat="48.0432" lon="-2.98708">
        <ele>102.8</ele>
        <time>2023-04-10T10:45:10Z</time>
      </trkpt>
      <trkpt lat="48.04313" lon="-2.98705">
        <ele>102.6</ele>
        <time>2023-04-10T10:45:11Z</time>
      </trkpt>
      <trkpt lat="48.04306" lon="-2.98703">
        <ele>102.4</ele>
        <time>2023-04-10T10:45:12Z</time>
      </trkpt>
      <trkpt lat="48.04299" lon="-2.98701">
        <ele>102.4</ele>
        <time>2023-04-10T10:45:13Z</time>
      </trkpt>
      <trkpt lat="48.04292" lon="-2.98699">
        <ele>102.2</ele>
        <time>2023-04-10T10:45:14Z</time>
      </trkpt>
      <trkpt lat="48.04285" lon="-2.98697">
        <ele>102.2</ele>
        <time>2023-04-10T10:45:15Z</time>
      </trkpt>
      <trkpt lat="48.04279" lon="-2.98694">
        <ele>102.4</ele>
        <time>2023-04-10T10:45:16Z</time>
      </trkpt>
      <trkpt lat="48.04275" lon="-2.9869">
        <ele>102</ele>
        <time>2023-04-10T10:45:17Z</time>
      </trkpt>
      <trkpt lat="48.04271" lon="-2.98684">
        <ele>101.8</ele>
        <time>2023-04-10T10:45:18Z</time>
      </trkpt>
      <trkpt lat="48.04271" lon="-2.98675">
        <ele>101.8</ele>
        <time>2023-04-10T10:45:19Z</time>
      </trkpt>
      <trkpt lat="48.04273" lon="-2.98666">
        <ele>101.8</ele>
        <time>2023-04-10T10:45:20Z</time>
      </trkpt>
      <trkpt lat="48.04276" lon="-2.98658">
        <ele>101.6</ele>
        <time>2023-04-10T10:45:21Z</time>
      </trkpt>
      <trkpt lat="48.04287" lon="-2.98642">
        <ele>101.2</ele>
        <time>2023-04-10T10:45:23Z</time>
      </trkpt>
      <trkpt lat="48.04293" lon="-2.98635">
        <ele>101.2</ele>
        <time>2023-04-10T10:45:24Z</time>
      </trkpt>
      <trkpt lat="48.04316" lon="-2.98606">
        <ele>100.2</ele>
        <time>2023-04-10T10:45:28Z</time>
      </trkpt>
      <trkpt lat="48.04328" lon="-2.98591">
        <ele>99.2</ele>
        <time>2023-04-10T10:45:30Z</time>
      </trkpt>
      <trkpt lat="48.04333" lon="-2.98582">
        <ele>98.6</ele>
        <time>2023-04-10T10:45:31Z</time>
      </trkpt>
      <trkpt lat="48.04337" lon="-2.98572">
        <ele>98.2</ele>
        <time>2023-04-10T10:45:32Z</time>
      </trkpt>
      <trkpt lat="48.04339" lon="-2.9856">
        <ele>97.8</ele>
        <time>2023-04-10T10:45:33Z</time>
      </trkpt>
      <trkpt lat="48.0434" lon="-2.98547">
        <ele>97.4</ele>
        <time>2023-04-10T10:45:34Z</time>
      </trkpt>
      <trkpt lat="48.04342" lon="-2.98534">
        <ele>97</ele>
        <time>2023-04-10T10:45:35Z</time>
      </trkpt>
      <trkpt lat="48.04346" lon="-2.9851">
        <ele>96.6</ele>
        <time>2023-04-10T10:45:37Z</time>
      </trkpt>
      <trkpt lat="48.04348" lon="-2.98498">
        <ele>96.6</ele>
        <time>2023-04-10T10:45:38Z</time>
      </trkpt>
      <trkpt lat="48.0435" lon="-2.98487">
        <ele>96.4</ele>
        <time>2023-04-10T10:45:39Z</time>
      </trkpt>
      <trkpt lat="48.04352" lon="-2.98477">
        <ele>96</ele>
        <time>2023-04-10T10:45:40Z</time>
      </trkpt>
      <trkpt lat="48.04355" lon="-2.98468">
        <ele>95.4</ele>
        <time>2023-04-10T10:45:41Z</time>
      </trkpt>
      <trkpt lat="48.04359" lon="-2.98462">
        <ele>95.4</ele>
        <time>2023-04-10T10:45:42Z</time>
      </trkpt>
      <trkpt lat="48.04364" lon="-2.98457">
        <ele>95</ele>
        <time>2023-04-10T10:45:43Z</time>
      </trkpt>
      <trkpt lat="48.0437" lon="-2.98452">
        <ele>94.8</ele>
        <time>2023-04-10T10:45:44Z</time>
      </trkpt>
      <trkpt lat="48.04377" lon="-2.98447">
        <ele>94.4</ele>
        <time>2023-04-10T10:45:45Z</time>
      </trkpt>
      <trkpt lat="48.04384" lon="-2.98441">
        <ele>93.8</ele>
        <time>2023-04-10T10:45:46Z</time>
      </trkpt>
      <trkpt lat="48.04391" lon="-2.98434">
        <ele>93.2</ele>
        <time>2023-04-10T10:45:47Z</time>
      </trkpt>
      <trkpt lat="48.04397" lon="-2.98428">
        <ele>92.8</ele>
        <time>2023-04-10T10:45:48Z</time>
      </trkpt>
      <trkpt lat="48.04416" lon="-2.98408">
        <ele>91.6</ele>
        <time>2023-04-10T10:45:51Z</time>
      </trkpt>
      <trkpt lat="48.04421" lon="-2.98401">
        <ele>91.2</ele>
        <time>2023-04-10T10:45:52Z</time>
      </trkpt>
      <trkpt lat="48.04425" lon="-2.98393">
        <ele>90.8</ele>
        <time>2023-04-10T10:45:53Z</time>
      </trkpt>
      <trkpt lat="48.04426" lon="-2.98383">
        <ele>90.6</ele>
        <time>2023-04-10T10:45:54Z</time>
      </trkpt>
      <trkpt lat="48.04426" lon="-2.98373">
        <ele>90.2</ele>
        <time>2023-04-10T10:45:55Z</time>
      </trkpt>
      <trkpt lat="48.04426" lon="-2.98364">
        <ele>89.8</ele>
        <time>2023-04-10T10:45:56Z</time>
      </trkpt>
      <trkpt lat="48.04425" lon="-2.98354">
        <ele>89.4</ele>
        <time>2023-04-10T10:45:57Z</time>
      </trkpt>
      <trkpt lat="48.04425" lon="-2.98344">
        <ele>88.8</ele>
        <time>2023-04-10T10:45:58Z</time>
      </trkpt>
      <trkpt lat="48.04426" lon="-2.98334">
        <ele>88.2</ele>
        <time>2023-04-10T10:45:59Z</time>
      </trkpt>
      <trkpt lat="48.0443" lon="-2.98313">
        <ele>87.2</ele>
        <time>2023-04-10T10:46:01Z</time>
      </trkpt>
      <trkpt lat="48.04434" lon="-2.98284">
        <ele>86</ele>
        <time>2023-04-10T10:46:04Z</time>
      </trkpt>
      <trkpt lat="48.04435" lon="-2.98274">
        <ele>86</ele>
        <time>2023-04-10T10:46:05Z</time>
      </trkpt>
      <trkpt lat="48.04436" lon="-2.98243">
        <ele>85.6</ele>
        <time>2023-04-10T10:46:08Z</time>
      </trkpt>
      <trkpt lat="48.04437" lon="-2.98222">
        <ele>85.6</ele>
        <time>2023-04-10T10:46:10Z</time>
      </trkpt>
      <trkpt lat="48.04437" lon="-2.98211">
        <ele>85.4</ele>
        <time>2023-04-10T10:46:11Z</time>
      </trkpt>
      <trkpt lat="48.04442" lon="-2.98165">
        <ele>85.2</ele>
        <time>2023-04-10T10:46:15Z</time>
      </trkpt>
      <trkpt lat="48.04445" lon="-2.98154">
        <ele>85.2</ele>
        <time>2023-04-10T10:46:16Z</time>
      </trkpt>
      <trkpt lat="48.04449" lon="-2.98131">
        <ele>85</ele>
        <time>2023-04-10T10:46:18Z</time>
      </trkpt>
      <trkpt lat="48.04457" lon="-2.98097">
        <ele>84.8</ele>
        <time>2023-04-10T10:46:21Z</time>
      </trkpt>
      <trkpt lat="48.0446" lon="-2.98085">
        <ele>84.6</ele>
        <time>2023-04-10T10:46:22Z</time>
      </trkpt>
      <trkpt lat="48.0447" lon="-2.98053">
        <ele>84</ele>
        <time>2023-04-10T10:46:25Z</time>
      </trkpt>
      <trkpt lat="48.04484" lon="-2.98022">
        <ele>83.6</ele>
        <time>2023-04-10T10:46:28Z</time>
      </trkpt>
      <trkpt lat="48.04496" lon="-2.98003">
        <ele>83.2</ele>
        <time>2023-04-10T10:46:30Z</time>
      </trkpt>
      <trkpt lat="48.045" lon="-2.97992">
        <ele>83.2</ele>
        <time>2023-04-10T10:46:31Z</time>
      </trkpt>
      <trkpt lat="48.04503" lon="-2.97981">
        <ele>83.2</ele>
        <time>2023-04-10T10:46:32Z</time>
      </trkpt>
      <trkpt lat="48.04506" lon="-2.9797">
        <ele>83</ele>
        <time>2023-04-10T10:46:33Z</time>
      </trkpt>
      <trkpt lat="48.0451" lon="-2.97958">
        <ele>83</ele>
        <time>2023-04-10T10:46:34Z</time>
      </trkpt>
      <trkpt lat="48.04513" lon="-2.97948">
        <ele>83</ele>
        <time>2023-04-10T10:46:35Z</time>
      </trkpt>
      <trkpt lat="48.04514" lon="-2.97937">
        <ele>82.8</ele>
        <time>2023-04-10T10:46:36Z</time>
      </trkpt>
      <trkpt lat="48.04518" lon="-2.97914">
        <ele>82</ele>
        <time>2023-04-10T10:46:38Z</time>
      </trkpt>
      <trkpt lat="48.0452" lon="-2.97903">
        <ele>81.6</ele>
        <time>2023-04-10T10:46:39Z</time>
      </trkpt>
      <trkpt lat="48.04522" lon="-2.97891">
        <ele>81.4</ele>
        <time>2023-04-10T10:46:40Z</time>
      </trkpt>
      <trkpt lat="48.04524" lon="-2.97868">
        <ele>80.8</ele>
        <time>2023-04-10T10:46:42Z</time>
      </trkpt>
      <trkpt lat="48.04524" lon="-2.97857">
        <ele>80.6</ele>
        <time>2023-04-10T10:46:43Z</time>
      </trkpt>
      <trkpt lat="48.04524" lon="-2.97846">
        <ele>80.4</ele>
        <time>2023-04-10T10:46:44Z</time>
      </trkpt>
      <trkpt lat="48.04524" lon="-2.97836">
        <ele>80.2</ele>
        <time>2023-04-10T10:46:45Z</time>
      </trkpt>
      <trkpt lat="48.04522" lon="-2.97825">
        <ele>80.2</ele>
        <time>2023-04-10T10:46:46Z</time>
      </trkpt>
      <trkpt lat="48.04519" lon="-2.97803">
        <ele>80</ele>
        <time>2023-04-10T10:46:48Z</time>
      </trkpt>
      <trkpt lat="48.04513" lon="-2.97781">
        <ele>80</ele>
        <time>2023-04-10T10:46:50Z</time>
      </trkpt>
      <trkpt lat="48.04508" lon="-2.97771">
        <ele>79.8</ele>
        <time>2023-04-10T10:46:51Z</time>
      </trkpt>
      <trkpt lat="48.04505" lon="-2.97762">
        <ele>79.6</ele>
        <time>2023-04-10T10:46:52Z</time>
      </trkpt>
      <trkpt lat="48.045" lon="-2.97752">
        <ele>79.6</ele>
        <time>2023-04-10T10:46:53Z</time>
      </trkpt>
      <trkpt lat="48.04496" lon="-2.97744">
        <ele>79.6</ele>
        <time>2023-04-10T10:46:54Z</time>
      </trkpt>
      <trkpt lat="48.04492" lon="-2.97735">
        <ele>79.4</ele>
        <time>2023-04-10T10:46:55Z</time>
      </trkpt>
      <trkpt lat="48.04489" lon="-2.97726">
        <ele>79.4</ele>
        <time>2023-04-10T10:46:56Z</time>
      </trkpt>
      <trkpt lat="48.04487" lon="-2.97717">
        <ele>79.2</ele>
        <time>2023-04-10T10:46:57Z</time>
      </trkpt>
      <trkpt lat="48.04483" lon="-2.97696">
        <ele>78.6</ele>
        <time>2023-04-10T10:46:59Z</time>
      </trkpt>
      <trkpt lat="48.04481" lon="-2.97675">
        <ele>78.2</ele>
        <time>2023-04-10T10:47:01Z</time>
      </trkpt>
      <trkpt lat="48.04479" lon="-2.97663">
        <ele>78</ele>
        <time>2023-04-10T10:47:02Z</time>
      </trkpt>
      <trkpt lat="48.04473" lon="-2.97619">
        <ele>77</ele>
        <time>2023-04-10T10:47:06Z</time>
      </trkpt>
      <trkpt lat="48.04473" lon="-2.97609">
        <ele>76.8</ele>
        <time>2023-04-10T10:47:07Z</time>
      </trkpt>
      <trkpt lat="48.04472" lon="-2.97598">
        <ele>76.8</ele>
        <time>2023-04-10T10:47:08Z</time>
      </trkpt>
      <trkpt lat="48.04472" lon="-2.97587">
        <ele>76.8</ele>
        <time>2023-04-10T10:47:09Z</time>
      </trkpt>
      <trkpt lat="48.04472" lon="-2.97577">
        <ele>76.6</ele>
        <time>2023-04-10T10:47:10Z</time>
      </trkpt>
      <trkpt lat="48.04473" lon="-2.97568">
        <ele>76.6</ele>
        <time>2023-04-10T10:47:11Z</time>
      </trkpt>
      <trkpt lat="48.04473" lon="-2.97558">
        <ele>76.4</ele>
        <time>2023-04-10T10:47:12Z</time>
      </trkpt>
      <trkpt lat="48.04474" lon="-2.97547">
        <ele>76.4</ele>
        <time>2023-04-10T10:47:13Z</time>
      </trkpt>
      <trkpt lat="48.04476" lon="-2.97536">
        <ele>76.4</ele>
        <time>2023-04-10T10:47:14Z</time>
      </trkpt>
      <trkpt lat="48.04478" lon="-2.97525">
        <ele>76.2</ele>
        <time>2023-04-10T10:47:15Z</time>
      </trkpt>
      <trkpt lat="48.04478" lon="-2.97516">
        <ele>75.8</ele>
        <time>2023-04-10T10:47:16Z</time>
      </trkpt>
      <trkpt lat="48.04478" lon="-2.9751">
        <ele>75.6</ele>
        <time>2023-04-10T10:47:17Z</time>
      </trkpt>
      <trkpt lat="48.04481" lon="-2.97505">
        <ele>75.6</ele>
        <time>2023-04-10T10:47:18Z</time>
      </trkpt>
      <trkpt lat="48.04486" lon="-2.97501">
        <ele>75.4</ele>
        <time>2023-04-10T10:47:19Z</time>
      </trkpt>
      <trkpt lat="48.04493" lon="-2.97499">
        <ele>75.2</ele>
        <time>2023-04-10T10:47:20Z</time>
      </trkpt>
      <trkpt lat="48.04499" lon="-2.97495">
        <ele>75</ele>
        <time>2023-04-10T10:47:21Z</time>
      </trkpt>
      <trkpt lat="48.04504" lon="-2.97493">
        <ele>75</ele>
        <time>2023-04-10T10:47:22Z</time>
      </trkpt>
      <trkpt lat="48.04509" lon="-2.97491">
        <ele>75</ele>
        <time>2023-04-10T10:47:23Z</time>
      </trkpt>
      <trkpt lat="48.04514" lon="-2.9749">
        <ele>75</ele>
        <time>2023-04-10T10:47:24Z</time>
      </trkpt>
      <trkpt lat="48.04518" lon="-2.97488">
        <ele>75</ele>
        <time>2023-04-10T10:47:25Z</time>
      </trkpt>
      <trkpt lat="48.04522" lon="-2.97486">
        <ele>75</ele>
        <time>2023-04-10T10:47:26Z</time>
      </trkpt>
      <trkpt lat="48.04525" lon="-2.97484">
        <ele>75</ele>
        <time>2023-04-10T10:47:27Z</time>
      </trkpt>
      <trkpt lat="48.04528" lon="-2.97482">
        <ele>75</ele>
        <time>2023-04-10T10:47:28Z</time>
      </trkpt>
      <trkpt lat="48.04531" lon="-2.9748">
        <ele>75</ele>
        <time>2023-04-10T10:47:29Z</time>
      </trkpt>
      <trkpt lat="48.04534" lon="-2.97478">
        <ele>74.8</ele>
        <time>2023-04-10T10:47:30Z</time>
      </trkpt>
      <trkpt lat="48.04536" lon="-2.97476">
        <ele>75.2</ele>
        <time>2023-04-10T10:47:31Z</time>
      </trkpt>
      <trkpt lat="48.04539" lon="-2.97475">
        <ele>75.4</ele>
        <time>2023-04-10T10:47:32Z</time>
      </trkpt>
      <trkpt lat="48.0454" lon="-2.97475">
        <ele>75.6</ele>
        <time>2023-04-10T10:47:33Z</time>
      </trkpt>
      <trkpt lat="48.04542" lon="-2.97474">
        <ele>75.8</ele>
        <time>2023-04-10T10:47:34Z</time>
      </trkpt>
      <trkpt lat="48.04544" lon="-2.97474">
        <ele>75.8</ele>
        <time>2023-04-10T10:47:35Z</time>
      </trkpt>
      <trkpt lat="48.04547" lon="-2.97473">
        <ele>76.2</ele>
        <time>2023-04-10T10:47:36Z</time>
      </trkpt>
      <trkpt lat="48.04553" lon="-2.97471">
        <ele>76.8</ele>
        <time>2023-04-10T10:47:38Z</time>
      </trkpt>
      <trkpt lat="48.04562" lon="-2.97467">
        <ele>77.8</ele>
        <time>2023-04-10T10:47:42Z</time>
      </trkpt>
      <trkpt lat="48.04569" lon="-2.97464">
        <ele>78.6</ele>
        <time>2023-04-10T10:47:45Z</time>
      </trkpt>
      <trkpt lat="48.0457" lon="-2.97463">
        <ele>79</ele>
        <time>2023-04-10T10:47:46Z</time>
      </trkpt>
      <trkpt lat="48.04573" lon="-2.97462">
        <ele>79.2</ele>
        <time>2023-04-10T10:47:47Z</time>
      </trkpt>
      <trkpt lat="48.04575" lon="-2.97461">
        <ele>79.6</ele>
        <time>2023-04-10T10:47:48Z</time>
      </trkpt>
      <trkpt lat="48.04578" lon="-2.97459">
        <ele>79.8</ele>
        <time>2023-04-10T10:47:49Z</time>
      </trkpt>
      <trkpt lat="48.04581" lon="-2.97458">
        <ele>80.2</ele>
        <time>2023-04-10T10:47:50Z</time>
      </trkpt>
      <trkpt lat="48.04583" lon="-2.97457">
        <ele>80.4</ele>
        <time>2023-04-10T10:47:51Z</time>
      </trkpt>
      <trkpt lat="48.04586" lon="-2.97455">
        <ele>80.8</ele>
        <time>2023-04-10T10:47:52Z</time>
      </trkpt>
      <trkpt lat="48.04588" lon="-2.97454">
        <ele>81.4</ele>
        <time>2023-04-10T10:47:53Z</time>
      </trkpt>
      <trkpt lat="48.04591" lon="-2.97453">
        <ele>81.4</ele>
        <time>2023-04-10T10:47:54Z</time>
      </trkpt>
      <trkpt lat="48.04593" lon="-2.97452">
        <ele>81.6</ele>
        <time>2023-04-10T10:47:55Z</time>
      </trkpt>
      <trkpt lat="48.04596" lon="-2.97451">
        <ele>82.2</ele>
        <time>2023-04-10T10:47:56Z</time>
      </trkpt>
      <trkpt lat="48.046" lon="-2.9745">
        <ele>82.2</ele>
        <time>2023-04-10T10:47:57Z</time>
      </trkpt>
      <trkpt lat="48.04603" lon="-2.97449">
        <ele>82.2</ele>
        <time>2023-04-10T10:47:58Z</time>
      </trkpt>
      <trkpt lat="48.04606" lon="-2.97448">
        <ele>82.6</ele>
        <time>2023-04-10T10:47:59Z</time>
      </trkpt>
      <trkpt lat="48.04609" lon="-2.97446">
        <ele>82.8</ele>
        <time>2023-04-10T10:48:00Z</time>
      </trkpt>
      <trkpt lat="48.04613" lon="-2.97444">
        <ele>83.2</ele>
        <time>2023-04-10T10:48:01Z</time>
      </trkpt>
      <trkpt lat="48.04616" lon="-2.97442">
        <ele>83.4</ele>
        <time>2023-04-10T10:48:02Z</time>
      </trkpt>
      <trkpt lat="48.04619" lon="-2.97441">
        <ele>83.6</ele>
        <time>2023-04-10T10:48:03Z</time>
      </trkpt>
      <trkpt lat="48.04622" lon="-2.9744">
        <ele>84</ele>
        <time>2023-04-10T10:48:04Z</time>
      </trkpt>
      <trkpt lat="48.04625" lon="-2.97439">
        <ele>84.2</ele>
        <time>2023-04-10T10:48:05Z</time>
      </trkpt>
      <trkpt lat="48.04627" lon="-2.97439">
        <ele>84.4</ele>
        <time>2023-04-10T10:48:06Z</time>
      </trkpt>
      <trkpt lat="48.0463" lon="-2.97438">
        <ele>84.6</ele>
        <time>2023-04-10T10:48:07Z</time>
      </trkpt>
      <trkpt lat="48.04633" lon="-2.97437">
        <ele>84.8</ele>
        <time>2023-04-10T10:48:08Z</time>
      </trkpt>
      <trkpt lat="48.04638" lon="-2.97435">
        <ele>85</ele>
        <time>2023-04-10T10:48:09Z</time>
      </trkpt>
      <trkpt lat="48.04641" lon="-2.97434">
        <ele>85.2</ele>
        <time>2023-04-10T10:48:10Z</time>
      </trkpt>
      <trkpt lat="48.04643" lon="-2.97432">
        <ele>85.4</ele>
        <time>2023-04-10T10:48:11Z</time>
      </trkpt>
      <trkpt lat="48.04644" lon="-2.97431">
        <ele>85.6</ele>
        <time>2023-04-10T10:48:12Z</time>
      </trkpt>
      <trkpt lat="48.04647" lon="-2.9743">
        <ele>85.8</ele>
        <time>2023-04-10T10:48:13Z</time>
      </trkpt>
      <trkpt lat="48.0465" lon="-2.97428">
        <ele>85.8</ele>
        <time>2023-04-10T10:48:14Z</time>
      </trkpt>
      <trkpt lat="48.04651" lon="-2.97428">
        <ele>86</ele>
        <time>2023-04-10T10:48:15Z</time>
      </trkpt>
      <trkpt lat="48.04652" lon="-2.97428">
        <ele>86.2</ele>
        <time>2023-04-10T10:48:16Z</time>
      </trkpt>
      <trkpt lat="48.04654" lon="-2.97427">
        <ele>86.4</ele>
        <time>2023-04-10T10:48:17Z</time>
      </trkpt>
      <trkpt lat="48.04656" lon="-2.97426">
        <ele>86.6</ele>
        <time>2023-04-10T10:48:18Z</time>
      </trkpt>
      <trkpt lat="48.04659" lon="-2.97424">
        <ele>86.8</ele>
        <time>2023-04-10T10:48:19Z</time>
      </trkpt>
      <trkpt lat="48.04662" lon="-2.97421">
        <ele>86.8</ele>
        <time>2023-04-10T10:48:20Z</time>
      </trkpt>
      <trkpt lat="48.04665" lon="-2.97418">
        <ele>87</ele>
        <time>2023-04-10T10:48:21Z</time>
      </trkpt>
      <trkpt lat="48.04668" lon="-2.97415">
        <ele>87</ele>
        <time>2023-04-10T10:48:22Z</time>
      </trkpt>
      <trkpt lat="48.0467" lon="-2.97411">
        <ele>87</ele>
        <time>2023-04-10T10:48:23Z</time>
      </trkpt>
      <trkpt lat="48.04671" lon="-2.97407">
        <ele>87.2</ele>
        <time>2023-04-10T10:48:24Z</time>
      </trkpt>
      <trkpt lat="48.04672" lon="-2.97402">
        <ele>87.4</ele>
        <time>2023-04-10T10:48:25Z</time>
      </trkpt>
      <trkpt lat="48.04673" lon="-2.97397">
        <ele>87.6</ele>
        <time>2023-04-10T10:48:26Z</time>
      </trkpt>
      <trkpt lat="48.04673" lon="-2.97391">
        <ele>87.8</ele>
        <time>2023-04-10T10:48:27Z</time>
      </trkpt>
      <trkpt lat="48.04673" lon="-2.97385">
        <ele>88</ele>
        <time>2023-04-10T10:48:28Z</time>
      </trkpt>
      <trkpt lat="48.04673" lon="-2.9738">
        <ele>88.2</ele>
        <time>2023-04-10T10:48:29Z</time>
      </trkpt>
      <trkpt lat="48.04673" lon="-2.97374">
        <ele>88.4</ele>
        <time>2023-04-10T10:48:30Z</time>
      </trkpt>
      <trkpt lat="48.04673" lon="-2.97368">
        <ele>88.4</ele>
        <time>2023-04-10T10:48:31Z</time>
      </trkpt>
      <trkpt lat="48.04673" lon="-2.97361">
        <ele>88.8</ele>
        <time>2023-04-10T10:48:32Z</time>
      </trkpt>
      <trkpt lat="48.04671" lon="-2.97356">
        <ele>89</ele>
        <time>2023-04-10T10:48:33Z</time>
      </trkpt>
      <trkpt lat="48.04668" lon="-2.97352">
        <ele>89.2</ele>
        <time>2023-04-10T10:48:34Z</time>
      </trkpt>
      <trkpt lat="48.04666" lon="-2.97347">
        <ele>89.2</ele>
        <time>2023-04-10T10:48:35Z</time>
      </trkpt>
      <trkpt lat="48.04663" lon="-2.97341">
        <ele>89.2</ele>
        <time>2023-04-10T10:48:36Z</time>
      </trkpt>
      <trkpt lat="48.0466" lon="-2.97336">
        <ele>89.2</ele>
        <time>2023-04-10T10:48:37Z</time>
      </trkpt>
      <trkpt lat="48.04657" lon="-2.97331">
        <ele>89.4</ele>
        <time>2023-04-10T10:48:38Z</time>
      </trkpt>
      <trkpt lat="48.04653" lon="-2.97325">
        <ele>89.4</ele>
        <time>2023-04-10T10:48:39Z</time>
      </trkpt>
      <trkpt lat="48.04651" lon="-2.97319">
        <ele>89.4</ele>
        <time>2023-04-10T10:48:40Z</time>
      </trkpt>
      <trkpt lat="48.0465" lon="-2.97312">
        <ele>89.4</ele>
        <time>2023-04-10T10:48:41Z</time>
      </trkpt>
      <trkpt lat="48.04651" lon="-2.97304">
        <ele>89.4</ele>
        <time>2023-04-10T10:48:42Z</time>
      </trkpt>
      <trkpt lat="48.04653" lon="-2.97297">
        <ele>89.4</ele>
        <time>2023-04-10T10:48:43Z</time>
      </trkpt>
      <trkpt lat="48.04656" lon="-2.9729">
        <ele>89.4</ele>
        <time>2023-04-10T10:48:44Z</time>
      </trkpt>
      <trkpt lat="48.0466" lon="-2.97284">
        <ele>89.4</ele>
        <time>2023-04-10T10:48:45Z</time>
      </trkpt>
      <trkpt lat="48.04664" lon="-2.97277">
        <ele>89.4</ele>
        <time>2023-04-10T10:48:46Z</time>
      </trkpt>
      <trkpt lat="48.04668" lon="-2.9727">
        <ele>89.2</ele>
        <time>2023-04-10T10:48:47Z</time>
      </trkpt>
      <trkpt lat="48.04672" lon="-2.97264">
        <ele>89.2</ele>
        <time>2023-04-10T10:48:48Z</time>
      </trkpt>
      <trkpt lat="48.04676" lon="-2.97257">
        <ele>89.2</ele>
        <time>2023-04-10T10:48:49Z</time>
      </trkpt>
      <trkpt lat="48.04683" lon="-2.97244">
        <ele>89</ele>
        <time>2023-04-10T10:48:51Z</time>
      </trkpt>
      <trkpt lat="48.04686" lon="-2.97237">
        <ele>89</ele>
        <time>2023-04-10T10:48:52Z</time>
      </trkpt>
      <trkpt lat="48.0469" lon="-2.9723">
        <ele>89</ele>
        <time>2023-04-10T10:48:53Z</time>
      </trkpt>
      <trkpt lat="48.04707" lon="-2.97192">
        <ele>88.4</ele>
        <time>2023-04-10T10:48:58Z</time>
      </trkpt>
      <trkpt lat="48.0471" lon="-2.97183">
        <ele>88.4</ele>
        <time>2023-04-10T10:48:59Z</time>
      </trkpt>
      <trkpt lat="48.04711" lon="-2.97173">
        <ele>88.4</ele>
        <time>2023-04-10T10:49:00Z</time>
      </trkpt>
      <trkpt lat="48.04713" lon="-2.97142">
        <ele>88.2</ele>
        <time>2023-04-10T10:49:03Z</time>
      </trkpt>
      <trkpt lat="48.04712" lon="-2.97131">
        <ele>88.2</ele>
        <time>2023-04-10T10:49:04Z</time>
      </trkpt>
      <trkpt lat="48.04708" lon="-2.97096">
        <ele>87.8</ele>
        <time>2023-04-10T10:49:07Z</time>
      </trkpt>
      <trkpt lat="48.047" lon="-2.97048">
        <ele>86.8</ele>
        <time>2023-04-10T10:49:11Z</time>
      </trkpt>
      <trkpt lat="48.04698" lon="-2.97035">
        <ele>86.2</ele>
        <time>2023-04-10T10:49:12Z</time>
      </trkpt>
      <trkpt lat="48.04696" lon="-2.97022">
        <ele>85.8</ele>
        <time>2023-04-10T10:49:13Z</time>
      </trkpt>
      <trkpt lat="48.04694" lon="-2.97008">
        <ele>85.4</ele>
        <time>2023-04-10T10:49:14Z</time>
      </trkpt>
      <trkpt lat="48.04692" lon="-2.96995">
        <ele>85.2</ele>
        <time>2023-04-10T10:49:15Z</time>
      </trkpt>
      <trkpt lat="48.04692" lon="-2.96981">
        <ele>84.8</ele>
        <time>2023-04-10T10:49:16Z</time>
      </trkpt>
      <trkpt lat="48.0469" lon="-2.96968">
        <ele>84.4</ele>
        <time>2023-04-10T10:49:17Z</time>
      </trkpt>
      <trkpt lat="48.04689" lon="-2.96956">
        <ele>84.2</ele>
        <time>2023-04-10T10:49:18Z</time>
      </trkpt>
      <trkpt lat="48.04689" lon="-2.96945">
        <ele>83.6</ele>
        <time>2023-04-10T10:49:19Z</time>
      </trkpt>
      <trkpt lat="48.04691" lon="-2.96936">
        <ele>83</ele>
        <time>2023-04-10T10:49:20Z</time>
      </trkpt>
      <trkpt lat="48.04695" lon="-2.96929">
        <ele>82.6</ele>
        <time>2023-04-10T10:49:21Z</time>
      </trkpt>
      <trkpt lat="48.047" lon="-2.96925">
        <ele>81.6</ele>
        <time>2023-04-10T10:49:22Z</time>
      </trkpt>
      <trkpt lat="48.04706" lon="-2.96922">
        <ele>81</ele>
        <time>2023-04-10T10:49:23Z</time>
      </trkpt>
      <trkpt lat="48.04713" lon="-2.9692">
        <ele>80.8</ele>
        <time>2023-04-10T10:49:24Z</time>
      </trkpt>
      <trkpt lat="48.04719" lon="-2.96919">
        <ele>80.2</ele>
        <time>2023-04-10T10:49:25Z</time>
      </trkpt>
      <trkpt lat="48.04726" lon="-2.96917">
        <ele>79.4</ele>
        <time>2023-04-10T10:49:26Z</time>
      </trkpt>
      <trkpt lat="48.04733" lon="-2.96915">
        <ele>78.8</ele>
        <time>2023-04-10T10:49:27Z</time>
      </trkpt>
      <trkpt lat="48.0474" lon="-2.96912">
        <ele>78.8</ele>
        <time>2023-04-10T10:49:28Z</time>
      </trkpt>
      <trkpt lat="48.04775" lon="-2.96899">
        <ele>78.2</ele>
        <time>2023-04-10T10:49:34Z</time>
      </trkpt>
      <trkpt lat="48.04784" lon="-2.96896">
        <ele>78.4</ele>
        <time>2023-04-10T10:49:35Z</time>
      </trkpt>
      <trkpt lat="48.04804" lon="-2.96888">
        <ele>78.2</ele>
        <time>2023-04-10T10:49:38Z</time>
      </trkpt>
      <trkpt lat="48.04811" lon="-2.96885">
        <ele>78.2</ele>
        <time>2023-04-10T10:49:39Z</time>
      </trkpt>
      <trkpt lat="48.04816" lon="-2.96883">
        <ele>78.4</ele>
        <time>2023-04-10T10:49:40Z</time>
      </trkpt>
      <trkpt lat="48.04822" lon="-2.96881">
        <ele>78.4</ele>
        <time>2023-04-10T10:49:41Z</time>
      </trkpt>
      <trkpt lat="48.04827" lon="-2.96881">
        <ele>78.4</ele>
        <time>2023-04-10T10:49:42Z</time>
      </trkpt>
      <trkpt lat="48.04831" lon="-2.96879">
        <ele>78.4</ele>
        <time>2023-04-10T10:49:43Z</time>
      </trkpt>
      <trkpt lat="48.04836" lon="-2.96876">
        <ele>78.4</ele>
        <time>2023-04-10T10:49:44Z</time>
      </trkpt>
      <trkpt lat="48.04846" lon="-2.96867">
        <ele>78.4</ele>
        <time>2023-04-10T10:49:46Z</time>
      </trkpt>
      <trkpt lat="48.04858" lon="-2.96858">
        <ele>78.4</ele>
        <time>2023-04-10T10:49:48Z</time>
      </trkpt>
      <trkpt lat="48.04871" lon="-2.96851">
        <ele>78.4</ele>
        <time>2023-04-10T10:49:50Z</time>
      </trkpt>
      <trkpt lat="48.04905" lon="-2.96838">
        <ele>78.2</ele>
        <time>2023-04-10T10:49:55Z</time>
      </trkpt>
      <trkpt lat="48.04911" lon="-2.96835">
        <ele>78.2</ele>
        <time>2023-04-10T10:49:56Z</time>
      </trkpt>
      <trkpt lat="48.04918" lon="-2.96832">
        <ele>78</ele>
        <time>2023-04-10T10:49:57Z</time>
      </trkpt>
      <trkpt lat="48.04923" lon="-2.96831">
        <ele>77.8</ele>
        <time>2023-04-10T10:49:58Z</time>
      </trkpt>
      <trkpt lat="48.04929" lon="-2.96833">
        <ele>77.6</ele>
        <time>2023-04-10T10:49:59Z</time>
      </trkpt>
      <trkpt lat="48.04933" lon="-2.96835">
        <ele>77.6</ele>
        <time>2023-04-10T10:50:00Z</time>
      </trkpt>
      <trkpt lat="48.04938" lon="-2.96838">
        <ele>77.4</ele>
        <time>2023-04-10T10:50:01Z</time>
      </trkpt>
      <trkpt lat="48.04943" lon="-2.96842">
        <ele>77.2</ele>
        <time>2023-04-10T10:50:02Z</time>
      </trkpt>
      <trkpt lat="48.04947" lon="-2.96844">
        <ele>77</ele>
        <time>2023-04-10T10:50:03Z</time>
      </trkpt>
      <trkpt lat="48.04953" lon="-2.96847">
        <ele>77</ele>
        <time>2023-04-10T10:50:04Z</time>
      </trkpt>
      <trkpt lat="48.0497" lon="-2.96852">
        <ele>76.8</ele>
        <time>2023-04-10T10:50:08Z</time>
      </trkpt>
      <trkpt lat="48.04975" lon="-2.96852">
        <ele>76.8</ele>
        <time>2023-04-10T10:50:09Z</time>
      </trkpt>
      <trkpt lat="48.04978" lon="-2.96852">
        <ele>76.8</ele>
        <time>2023-04-10T10:50:10Z</time>
      </trkpt>
      <trkpt lat="48.05" lon="-2.96852">
        <ele>76.8</ele>
        <time>2023-04-10T10:50:15Z</time>
      </trkpt>
      <trkpt lat="48.05021" lon="-2.96855">
        <ele>77.2</ele>
        <time>2023-04-10T10:50:19Z</time>
      </trkpt>
      <trkpt lat="48.05029" lon="-2.96857">
        <ele>77.2</ele>
        <time>2023-04-10T10:50:20Z</time>
      </trkpt>
      <trkpt lat="48.05034" lon="-2.9686">
        <ele>77.2</ele>
        <time>2023-04-10T10:50:21Z</time>
      </trkpt>
      <trkpt lat="48.05039" lon="-2.96863">
        <ele>77.4</ele>
        <time>2023-04-10T10:50:22Z</time>
      </trkpt>
      <trkpt lat="48.05044" lon="-2.96867">
        <ele>77.4</ele>
        <time>2023-04-10T10:50:23Z</time>
      </trkpt>
      <trkpt lat="48.05049" lon="-2.9687">
        <ele>77.6</ele>
        <time>2023-04-10T10:50:24Z</time>
      </trkpt>
      <trkpt lat="48.05066" lon="-2.96881">
        <ele>77.8</ele>
        <time>2023-04-10T10:50:27Z</time>
      </trkpt>
      <trkpt lat="48.05075" lon="-2.96893">
        <ele>77.8</ele>
        <time>2023-04-10T10:50:29Z</time>
      </trkpt>
      <trkpt lat="48.05078" lon="-2.96899">
        <ele>77.8</ele>
        <time>2023-04-10T10:50:30Z</time>
      </trkpt>
      <trkpt lat="48.0508" lon="-2.96906">
        <ele>77.8</ele>
        <time>2023-04-10T10:50:31Z</time>
      </trkpt>
      <trkpt lat="48.05082" lon="-2.96913">
        <ele>77.8</ele>
        <time>2023-04-10T10:50:32Z</time>
      </trkpt>
      <trkpt lat="48.05086" lon="-2.96927">
        <ele>77.8</ele>
        <time>2023-04-10T10:50:34Z</time>
      </trkpt>
      <trkpt lat="48.05089" lon="-2.96943">
        <ele>77.8</ele>
        <time>2023-04-10T10:50:36Z</time>
      </trkpt>
      <trkpt lat="48.05091" lon="-2.96951">
        <ele>77.8</ele>
        <time>2023-04-10T10:50:37Z</time>
      </trkpt>
      <trkpt lat="48.05095" lon="-2.96966">
        <ele>77.8</ele>
        <time>2023-04-10T10:50:39Z</time>
      </trkpt>
      <trkpt lat="48.05096" lon="-2.96974">
        <ele>77.8</ele>
        <time>2023-04-10T10:50:40Z</time>
      </trkpt>
      <trkpt lat="48.05097" lon="-2.96982">
        <ele>77.8</ele>
        <time>2023-04-10T10:50:41Z</time>
      </trkpt>
      <trkpt lat="48.05096" lon="-2.96989">
        <ele>77.8</ele>
        <time>2023-04-10T10:50:42Z</time>
      </trkpt>
      <trkpt lat="48.05095" lon="-2.96995">
        <ele>77.6</ele>
        <time>2023-04-10T10:50:43Z</time>
      </trkpt>
      <trkpt lat="48.05094" lon="-2.97002">
        <ele>77.6</ele>
        <time>2023-04-10T10:50:44Z</time>
      </trkpt>
      <trkpt lat="48.05092" lon="-2.97008">
        <ele>77.2</ele>
        <time>2023-04-10T10:50:45Z</time>
      </trkpt>
      <trkpt lat="48.05095" lon="-2.97019">
        <ele>76.6</ele>
        <time>2023-04-10T10:50:47Z</time>
      </trkpt>
      <trkpt lat="48.05097" lon="-2.97027">
        <ele>76.4</ele>
        <time>2023-04-10T10:50:48Z</time>
      </trkpt>
      <trkpt lat="48.05099" lon="-2.97036">
        <ele>76.4</ele>
        <time>2023-04-10T10:50:49Z</time>
      </trkpt>
      <trkpt lat="48.05101" lon="-2.97045">
        <ele>76.2</ele>
        <time>2023-04-10T10:50:50Z</time>
      </trkpt>
      <trkpt lat="48.05103" lon="-2.97062">
        <ele>76</ele>
        <time>2023-04-10T10:50:52Z</time>
      </trkpt>
      <trkpt lat="48.05104" lon="-2.9707">
        <ele>76</ele>
        <time>2023-04-10T10:50:53Z</time>
      </trkpt>
      <trkpt lat="48.05106" lon="-2.97078">
        <ele>76</ele>
        <time>2023-04-10T10:50:54Z</time>
      </trkpt>
      <trkpt lat="48.05107" lon="-2.97086">
        <ele>75.8</ele>
        <time>2023-04-10T10:50:55Z</time>
      </trkpt>
      <trkpt lat="48.05109" lon="-2.97093">
        <ele>75.6</ele>
        <time>2023-04-10T10:50:56Z</time>
      </trkpt>
      <trkpt lat="48.05111" lon="-2.971">
        <ele>75.4</ele>
        <time>2023-04-10T10:50:57Z</time>
      </trkpt>
      <trkpt lat="48.05113" lon="-2.97104">
        <ele>75.4</ele>
        <time>2023-04-10T10:50:58Z</time>
      </trkpt>
      <trkpt lat="48.05116" lon="-2.97103">
        <ele>74.8</ele>
        <time>2023-04-10T10:50:59Z</time>
      </trkpt>
      <trkpt lat="48.05126" lon="-2.97085">
        <ele>74</ele>
        <time>2023-04-10T10:51:02Z</time>
      </trkpt>
      <trkpt lat="48.05128" lon="-2.97077">
        <ele>73.8</ele>
        <time>2023-04-10T10:51:03Z</time>
      </trkpt>
      <trkpt lat="48.0513" lon="-2.97069">
        <ele>73.6</ele>
        <time>2023-04-10T10:51:04Z</time>
      </trkpt>
      <trkpt lat="48.05133" lon="-2.97061">
        <ele>73.4</ele>
        <time>2023-04-10T10:51:05Z</time>
      </trkpt>
      <trkpt lat="48.05138" lon="-2.97055">
        <ele>73</ele>
        <time>2023-04-10T10:51:06Z</time>
      </trkpt>
      <trkpt lat="48.05143" lon="-2.97051">
        <ele>72.6</ele>
        <time>2023-04-10T10:51:07Z</time>
      </trkpt>
      <trkpt lat="48.05158" lon="-2.9705">
        <ele>72</ele>
        <time>2023-04-10T10:51:09Z</time>
      </trkpt>
      <trkpt lat="48.05166" lon="-2.97052">
        <ele>72</ele>
        <time>2023-04-10T10:51:10Z</time>
      </trkpt>
      <trkpt lat="48.05173" lon="-2.97054">
        <ele>71.6</ele>
        <time>2023-04-10T10:51:11Z</time>
      </trkpt>
      <trkpt lat="48.05182" lon="-2.97055">
        <ele>71.4</ele>
        <time>2023-04-10T10:51:12Z</time>
      </trkpt>
      <trkpt lat="48.05208" lon="-2.97059">
        <ele>70.8</ele>
        <time>2023-04-10T10:51:15Z</time>
      </trkpt>
      <trkpt lat="48.05226" lon="-2.97062">
        <ele>70.2</ele>
        <time>2023-04-10T10:51:17Z</time>
      </trkpt>
      <trkpt lat="48.05235" lon="-2.97064">
        <ele>69.8</ele>
        <time>2023-04-10T10:51:18Z</time>
      </trkpt>
      <trkpt lat="48.05244" lon="-2.97065">
        <ele>69.2</ele>
        <time>2023-04-10T10:51:19Z</time>
      </trkpt>
      <trkpt lat="48.05253" lon="-2.97067">
        <ele>68.6</ele>
        <time>2023-04-10T10:51:20Z</time>
      </trkpt>
      <trkpt lat="48.05261" lon="-2.97068">
        <ele>68.6</ele>
        <time>2023-04-10T10:51:21Z</time>
      </trkpt>
      <trkpt lat="48.05269" lon="-2.97069">
        <ele>68</ele>
        <time>2023-04-10T10:51:22Z</time>
      </trkpt>
      <trkpt lat="48.05276" lon="-2.97069">
        <ele>67.2</ele>
        <time>2023-04-10T10:51:23Z</time>
      </trkpt>
      <trkpt lat="48.05283" lon="-2.97068">
        <ele>66.4</ele>
        <time>2023-04-10T10:51:24Z</time>
      </trkpt>
      <trkpt lat="48.0529" lon="-2.97067">
        <ele>66</ele>
        <time>2023-04-10T10:51:25Z</time>
      </trkpt>
      <trkpt lat="48.05297" lon="-2.97065">
        <ele>65.8</ele>
        <time>2023-04-10T10:51:26Z</time>
      </trkpt>
      <trkpt lat="48.05304" lon="-2.97065">
        <ele>65.6</ele>
        <time>2023-04-10T10:51:27Z</time>
      </trkpt>
      <trkpt lat="48.05309" lon="-2.97065">
        <ele>65.6</ele>
        <time>2023-04-10T10:51:28Z</time>
      </trkpt>
      <trkpt lat="48.05316" lon="-2.97064">
        <ele>65.6</ele>
        <time>2023-04-10T10:51:29Z</time>
      </trkpt>
      <trkpt lat="48.05323" lon="-2.97063">
        <ele>65.6</ele>
        <time>2023-04-10T10:51:30Z</time>
      </trkpt>
      <trkpt lat="48.05329" lon="-2.97058">
        <ele>65.6</ele>
        <time>2023-04-10T10:51:31Z</time>
      </trkpt>
      <trkpt lat="48.05332" lon="-2.9705">
        <ele>65.6</ele>
        <time>2023-04-10T10:51:32Z</time>
      </trkpt>
      <trkpt lat="48.05334" lon="-2.97041">
        <ele>65.6</ele>
        <time>2023-04-10T10:51:33Z</time>
      </trkpt>
      <trkpt lat="48.05334" lon="-2.97031">
        <ele>65.6</ele>
        <time>2023-04-10T10:51:34Z</time>
      </trkpt>
      <trkpt lat="48.05335" lon="-2.9702">
        <ele>65.6</ele>
        <time>2023-04-10T10:51:35Z</time>
      </trkpt>
      <trkpt lat="48.05336" lon="-2.97011">
        <ele>65.8</ele>
        <time>2023-04-10T10:51:36Z</time>
      </trkpt>
      <trkpt lat="48.05336" lon="-2.96982">
        <ele>67</ele>
        <time>2023-04-10T10:51:39Z</time>
      </trkpt>
      <trkpt lat="48.05338" lon="-2.96923">
        <ele>67.8</ele>
        <time>2023-04-10T10:51:45Z</time>
      </trkpt>
      <trkpt lat="48.05339" lon="-2.96883">
        <ele>67.8</ele>
        <time>2023-04-10T10:51:49Z</time>
      </trkpt>
      <trkpt lat="48.05338" lon="-2.96873">
        <ele>67.8</ele>
        <time>2023-04-10T10:51:50Z</time>
      </trkpt>
      <trkpt lat="48.05338" lon="-2.96864">
        <ele>67.8</ele>
        <time>2023-04-10T10:51:51Z</time>
      </trkpt>
      <trkpt lat="48.05338" lon="-2.96854">
        <ele>67.8</ele>
        <time>2023-04-10T10:51:52Z</time>
      </trkpt>
      <trkpt lat="48.05338" lon="-2.96845">
        <ele>67.8</ele>
        <time>2023-04-10T10:51:53Z</time>
      </trkpt>
      <trkpt lat="48.05338" lon="-2.96836">
        <ele>67.8</ele>
        <time>2023-04-10T10:51:54Z</time>
      </trkpt>
      <trkpt lat="48.05339" lon="-2.96827">
        <ele>67.8</ele>
        <time>2023-04-10T10:51:55Z</time>
      </trkpt>
      <trkpt lat="48.05342" lon="-2.9681">
        <ele>67.6</ele>
        <time>2023-04-10T10:51:57Z</time>
      </trkpt>
      <trkpt lat="48.05345" lon="-2.96806">
        <ele>67.6</ele>
        <time>2023-04-10T10:51:58Z</time>
      </trkpt>
      <trkpt lat="48.05348" lon="-2.96804">
        <ele>67.4</ele>
        <time>2023-04-10T10:51:59Z</time>
      </trkpt>
      <trkpt lat="48.05351" lon="-2.96805">
        <ele>67.2</ele>
        <time>2023-04-10T10:52:00Z</time>
      </trkpt>
      <trkpt lat="48.05354" lon="-2.96806">
        <ele>67</ele>
        <time>2023-04-10T10:52:01Z</time>
      </trkpt>
      <trkpt lat="48.05358" lon="-2.96807">
        <ele>66.8</ele>
        <time>2023-04-10T10:52:02Z</time>
      </trkpt>
      <trkpt lat="48.05361" lon="-2.96808">
        <ele>66.8</ele>
        <time>2023-04-10T10:52:03Z</time>
      </trkpt>
      <trkpt lat="48.05364" lon="-2.96809">
        <ele>66.8</ele>
        <time>2023-04-10T10:52:04Z</time>
      </trkpt>
      <trkpt lat="48.05383" lon="-2.96816">
        <ele>66.6</ele>
        <time>2023-04-10T10:52:09Z</time>
      </trkpt>
      <trkpt lat="48.05388" lon="-2.96817">
        <ele>66.6</ele>
        <time>2023-04-10T10:52:10Z</time>
      </trkpt>
      <trkpt lat="48.05396" lon="-2.96819">
        <ele>66.6</ele>
        <time>2023-04-10T10:52:12Z</time>
      </trkpt>
      <trkpt lat="48.054" lon="-2.96819">
        <ele>66.6</ele>
        <time>2023-04-10T10:52:13Z</time>
      </trkpt>
      <trkpt lat="48.05404" lon="-2.96819">
        <ele>66.8</ele>
        <time>2023-04-10T10:52:14Z</time>
      </trkpt>
      <trkpt lat="48.05407" lon="-2.96818">
        <ele>66.8</ele>
        <time>2023-04-10T10:52:15Z</time>
      </trkpt>
      <trkpt lat="48.05411" lon="-2.96816">
        <ele>66.8</ele>
        <time>2023-04-10T10:52:16Z</time>
      </trkpt>
      <trkpt lat="48.05414" lon="-2.96813">
        <ele>66.8</ele>
        <time>2023-04-10T10:52:17Z</time>
      </trkpt>
      <trkpt lat="48.05416" lon="-2.9681">
        <ele>66.8</ele>
        <time>2023-04-10T10:52:18Z</time>
      </trkpt>
      <trkpt lat="48.05418" lon="-2.96808">
        <ele>67</ele>
        <time>2023-04-10T10:52:19Z</time>
      </trkpt>
      <trkpt lat="48.0542" lon="-2.96808">
        <ele>67</ele>
        <time>2023-04-10T10:52:20Z</time>
      </trkpt>
      <trkpt lat="48.05422" lon="-2.96809">
        <ele>67</ele>
        <time>2023-04-10T10:52:21Z</time>
      </trkpt>
      <trkpt lat="48.05425" lon="-2.96812">
        <ele>67</ele>
        <time>2023-04-10T10:52:22Z</time>
      </trkpt>
      <trkpt lat="48.05427" lon="-2.96814">
        <ele>67</ele>
        <time>2023-04-10T10:52:23Z</time>
      </trkpt>
      <trkpt lat="48.05429" lon="-2.96818">
        <ele>67</ele>
        <time>2023-04-10T10:52:24Z</time>
      </trkpt>
      <trkpt lat="48.05432" lon="-2.96821">
        <ele>67</ele>
        <time>2023-04-10T10:52:25Z</time>
      </trkpt>
      <trkpt lat="48.05434" lon="-2.96825">
        <ele>67</ele>
        <time>2023-04-10T10:52:26Z</time>
      </trkpt>
      <trkpt lat="48.05437" lon="-2.96828">
        <ele>67.2</ele>
        <time>2023-04-10T10:52:27Z</time>
      </trkpt>
      <trkpt lat="48.0544" lon="-2.96829">
        <ele>67.2</ele>
        <time>2023-04-10T10:52:28Z</time>
      </trkpt>
      <trkpt lat="48.05442" lon="-2.9683">
        <ele>67.2</ele>
        <time>2023-04-10T10:52:29Z</time>
      </trkpt>
      <trkpt lat="48.05445" lon="-2.96831">
        <ele>67.2</ele>
        <time>2023-04-10T10:52:30Z</time>
      </trkpt>
      <trkpt lat="48.0545" lon="-2.96837">
        <ele>67.2</ele>
        <time>2023-04-10T10:52:32Z</time>
      </trkpt>
      <trkpt lat="48.05451" lon="-2.96841">
        <ele>67.2</ele>
        <time>2023-04-10T10:52:33Z</time>
      </trkpt>
      <trkpt lat="48.05453" lon="-2.96845">
        <ele>67.2</ele>
        <time>2023-04-10T10:52:34Z</time>
      </trkpt>
      <trkpt lat="48.05456" lon="-2.96849">
        <ele>67.2</ele>
        <time>2023-04-10T10:52:35Z</time>
      </trkpt>
      <trkpt lat="48.05465" lon="-2.96865">
        <ele>67.2</ele>
        <time>2023-04-10T10:52:38Z</time>
      </trkpt>
      <trkpt lat="48.05473" lon="-2.96876">
        <ele>67.2</ele>
        <time>2023-04-10T10:52:40Z</time>
      </trkpt>
      <trkpt lat="48.05484" lon="-2.96896">
        <ele>67.2</ele>
        <time>2023-04-10T10:52:43Z</time>
      </trkpt>
      <trkpt lat="48.05488" lon="-2.96903">
        <ele>67.2</ele>
        <time>2023-04-10T10:52:44Z</time>
      </trkpt>
      <trkpt lat="48.05497" lon="-2.96914">
        <ele>67</ele>
        <time>2023-04-10T10:52:46Z</time>
      </trkpt>
      <trkpt lat="48.05502" lon="-2.96918">
        <ele>67</ele>
        <time>2023-04-10T10:52:47Z</time>
      </trkpt>
      <trkpt lat="48.05509" lon="-2.96919">
        <ele>67</ele>
        <time>2023-04-10T10:52:48Z</time>
      </trkpt>
      <trkpt lat="48.05516" lon="-2.9692">
        <ele>67</ele>
        <time>2023-04-10T10:52:49Z</time>
      </trkpt>
      <trkpt lat="48.05524" lon="-2.9692">
        <ele>67</ele>
        <time>2023-04-10T10:52:50Z</time>
      </trkpt>
      <trkpt lat="48.05532" lon="-2.96919">
        <ele>67</ele>
        <time>2023-04-10T10:52:51Z</time>
      </trkpt>
      <trkpt lat="48.05566" lon="-2.96913">
        <ele>66.6</ele>
        <time>2023-04-10T10:52:55Z</time>
      </trkpt>
      <trkpt lat="48.05593" lon="-2.96911">
        <ele>66.2</ele>
        <time>2023-04-10T10:52:58Z</time>
      </trkpt>
      <trkpt lat="48.05612" lon="-2.96907">
        <ele>66</ele>
        <time>2023-04-10T10:53:00Z</time>
      </trkpt>
      <trkpt lat="48.05621" lon="-2.96906">
        <ele>65.6</ele>
        <time>2023-04-10T10:53:01Z</time>
      </trkpt>
      <trkpt lat="48.0563" lon="-2.96905">
        <ele>65.2</ele>
        <time>2023-04-10T10:53:02Z</time>
      </trkpt>
      <trkpt lat="48.05638" lon="-2.96904">
        <ele>64.4</ele>
        <time>2023-04-10T10:53:03Z</time>
      </trkpt>
      <trkpt lat="48.05647" lon="-2.96903">
        <ele>63.8</ele>
        <time>2023-04-10T10:53:04Z</time>
      </trkpt>
      <trkpt lat="48.05656" lon="-2.96904">
        <ele>63.4</ele>
        <time>2023-04-10T10:53:05Z</time>
      </trkpt>
      <trkpt lat="48.05664" lon="-2.96906">
        <ele>63</ele>
        <time>2023-04-10T10:53:06Z</time>
      </trkpt>
      <trkpt lat="48.05673" lon="-2.96909">
        <ele>62.8</ele>
        <time>2023-04-10T10:53:07Z</time>
      </trkpt>
      <trkpt lat="48.05689" lon="-2.96917">
        <ele>62.4</ele>
        <time>2023-04-10T10:53:09Z</time>
      </trkpt>
      <trkpt lat="48.05698" lon="-2.96921">
        <ele>62</ele>
        <time>2023-04-10T10:53:10Z</time>
      </trkpt>
      <trkpt lat="48.05706" lon="-2.96924">
        <ele>61.8</ele>
        <time>2023-04-10T10:53:11Z</time>
      </trkpt>
      <trkpt lat="48.05713" lon="-2.96928">
        <ele>61.6</ele>
        <time>2023-04-10T10:53:12Z</time>
      </trkpt>
      <trkpt lat="48.05721" lon="-2.96931">
        <ele>61.6</ele>
        <time>2023-04-10T10:53:13Z</time>
      </trkpt>
      <trkpt lat="48.05729" lon="-2.96932">
        <ele>61.4</ele>
        <time>2023-04-10T10:53:14Z</time>
      </trkpt>
      <trkpt lat="48.05737" lon="-2.96932">
        <ele>61.4</ele>
        <time>2023-04-10T10:53:15Z</time>
      </trkpt>
      <trkpt lat="48.05745" lon="-2.96931">
        <ele>61.4</ele>
        <time>2023-04-10T10:53:16Z</time>
      </trkpt>
      <trkpt lat="48.05752" lon="-2.96928">
        <ele>61.2</ele>
        <time>2023-04-10T10:53:17Z</time>
      </trkpt>
      <trkpt lat="48.0576" lon="-2.96925">
        <ele>61.2</ele>
        <time>2023-04-10T10:53:18Z</time>
      </trkpt>
      <trkpt lat="48.05783" lon="-2.96916">
        <ele>61.2</ele>
        <time>2023-04-10T10:53:21Z</time>
      </trkpt>
      <trkpt lat="48.05808" lon="-2.96914">
        <ele>61.2</ele>
        <time>2023-04-10T10:53:24Z</time>
      </trkpt>
      <trkpt lat="48.05817" lon="-2.96915">
        <ele>61.2</ele>
        <time>2023-04-10T10:53:25Z</time>
      </trkpt>
      <trkpt lat="48.05825" lon="-2.96916">
        <ele>61.2</ele>
        <time>2023-04-10T10:53:26Z</time>
      </trkpt>
      <trkpt lat="48.05833" lon="-2.96919">
        <ele>61.2</ele>
        <time>2023-04-10T10:53:27Z</time>
      </trkpt>
      <trkpt lat="48.0584" lon="-2.96922">
        <ele>61.2</ele>
        <time>2023-04-10T10:53:28Z</time>
      </trkpt>
      <trkpt lat="48.05847" lon="-2.96926">
        <ele>61.2</ele>
        <time>2023-04-10T10:53:29Z</time>
      </trkpt>
      <trkpt lat="48.05854" lon="-2.9693">
        <ele>61.4</ele>
        <time>2023-04-10T10:53:30Z</time>
      </trkpt>
      <trkpt lat="48.0586" lon="-2.96933">
        <ele>61.4</ele>
        <time>2023-04-10T10:53:31Z</time>
      </trkpt>
      <trkpt lat="48.05866" lon="-2.96937">
        <ele>61.4</ele>
        <time>2023-04-10T10:53:32Z</time>
      </trkpt>
      <trkpt lat="48.05878" lon="-2.96945">
        <ele>61.6</ele>
        <time>2023-04-10T10:53:34Z</time>
      </trkpt>
      <trkpt lat="48.05883" lon="-2.96948">
        <ele>61.6</ele>
        <time>2023-04-10T10:53:35Z</time>
      </trkpt>
      <trkpt lat="48.0589" lon="-2.9695">
        <ele>61.6</ele>
        <time>2023-04-10T10:53:36Z</time>
      </trkpt>
      <trkpt lat="48.05902" lon="-2.96952">
        <ele>61.6</ele>
        <time>2023-04-10T10:53:38Z</time>
      </trkpt>
      <trkpt lat="48.05915" lon="-2.96948">
        <ele>61.8</ele>
        <time>2023-04-10T10:53:40Z</time>
      </trkpt>
      <trkpt lat="48.05928" lon="-2.96943">
        <ele>61.8</ele>
        <time>2023-04-10T10:53:42Z</time>
      </trkpt>
      <trkpt lat="48.05935" lon="-2.96941">
        <ele>61.8</ele>
        <time>2023-04-10T10:53:43Z</time>
      </trkpt>
      <trkpt lat="48.05941" lon="-2.96939">
        <ele>61.8</ele>
        <time>2023-04-10T10:53:44Z</time>
      </trkpt>
      <trkpt lat="48.05947" lon="-2.96937">
        <ele>62</ele>
        <time>2023-04-10T10:53:45Z</time>
      </trkpt>
      <trkpt lat="48.05953" lon="-2.96935">
        <ele>62</ele>
        <time>2023-04-10T10:53:46Z</time>
      </trkpt>
      <trkpt lat="48.05957" lon="-2.96932">
        <ele>61.8</ele>
        <time>2023-04-10T10:53:47Z</time>
      </trkpt>
      <trkpt lat="48.05959" lon="-2.96928">
        <ele>61.8</ele>
        <time>2023-04-10T10:53:48Z</time>
      </trkpt>
      <trkpt lat="48.05959" lon="-2.96923">
        <ele>61.8</ele>
        <time>2023-04-10T10:53:49Z</time>
      </trkpt>
      <trkpt lat="48.05957" lon="-2.96918">
        <ele>61.8</ele>
        <time>2023-04-10T10:53:50Z</time>
      </trkpt>
      <trkpt lat="48.05955" lon="-2.96912">
        <ele>61.8</ele>
        <time>2023-04-10T10:53:51Z</time>
      </trkpt>
      <trkpt lat="48.05952" lon="-2.96905">
        <ele>61.8</ele>
        <time>2023-04-10T10:53:52Z</time>
      </trkpt>
      <trkpt lat="48.05949" lon="-2.96898">
        <ele>61.8</ele>
        <time>2023-04-10T10:53:53Z</time>
      </trkpt>
      <trkpt lat="48.05945" lon="-2.9689">
        <ele>61.6</ele>
        <time>2023-04-10T10:53:54Z</time>
      </trkpt>
      <trkpt lat="48.05941" lon="-2.96881">
        <ele>61.6</ele>
        <time>2023-04-10T10:53:55Z</time>
      </trkpt>
      <trkpt lat="48.05923" lon="-2.96837">
        <ele>60.6</ele>
        <time>2023-04-10T10:54:00Z</time>
      </trkpt>
      <trkpt lat="48.05918" lon="-2.96832">
        <ele>60.2</ele>
        <time>2023-04-10T10:54:01Z</time>
      </trkpt>
      <trkpt lat="48.05914" lon="-2.9683">
        <ele>59.8</ele>
        <time>2023-04-10T10:54:02Z</time>
      </trkpt>
      <trkpt lat="48.05912" lon="-2.9683">
        <ele>59.6</ele>
        <time>2023-04-10T10:54:03Z</time>
      </trkpt>
      <trkpt lat="48.05911" lon="-2.96833">
        <ele>59.2</ele>
        <time>2023-04-10T10:54:04Z</time>
      </trkpt>
      <trkpt lat="48.05912" lon="-2.96836">
        <ele>59</ele>
        <time>2023-04-10T10:54:05Z</time>
      </trkpt>
      <trkpt lat="48.05914" lon="-2.9684">
        <ele>58.8</ele>
        <time>2023-04-10T10:54:06Z</time>
      </trkpt>
      <trkpt lat="48.0592" lon="-2.96851">
        <ele>58.2</ele>
        <time>2023-04-10T10:54:08Z</time>
      </trkpt>
      <trkpt lat="48.05922" lon="-2.96858">
        <ele>58</ele>
        <time>2023-04-10T10:54:09Z</time>
      </trkpt>
      <trkpt lat="48.0594" lon="-2.96902">
        <ele>57.6</ele>
        <time>2023-04-10T10:54:15Z</time>
      </trkpt>
      <trkpt lat="48.0595" lon="-2.96926">
        <ele>57.4</ele>
        <time>2023-04-10T10:54:18Z</time>
      </trkpt>
      <trkpt lat="48.05957" lon="-2.96939">
        <ele>57.4</ele>
        <time>2023-04-10T10:54:20Z</time>
      </trkpt>
      <trkpt lat="48.05974" lon="-2.96966">
        <ele>57.4</ele>
        <time>2023-04-10T10:54:24Z</time>
      </trkpt>
      <trkpt lat="48.0598" lon="-2.96971">
        <ele>57.4</ele>
        <time>2023-04-10T10:54:25Z</time>
      </trkpt>
      <trkpt lat="48.05995" lon="-2.96986">
        <ele>57.4</ele>
        <time>2023-04-10T10:54:28Z</time>
      </trkpt>
      <trkpt lat="48.06007" lon="-2.96994">
        <ele>57.4</ele>
        <time>2023-04-10T10:54:30Z</time>
      </trkpt>
      <trkpt lat="48.06053" lon="-2.97013">
        <ele>57.4</ele>
        <time>2023-04-10T10:54:37Z</time>
      </trkpt>
      <trkpt lat="48.0606" lon="-2.97014">
        <ele>57.4</ele>
        <time>2023-04-10T10:54:38Z</time>
      </trkpt>
      <trkpt lat="48.06065" lon="-2.97015">
        <ele>57.4</ele>
        <time>2023-04-10T10:54:39Z</time>
      </trkpt>
      <trkpt lat="48.06069" lon="-2.97016">
        <ele>57.4</ele>
        <time>2023-04-10T10:54:40Z</time>
      </trkpt>
      <trkpt lat="48.06074" lon="-2.97018">
        <ele>57.4</ele>
        <time>2023-04-10T10:54:41Z</time>
      </trkpt>
      <trkpt lat="48.06078" lon="-2.97019">
        <ele>57.4</ele>
        <time>2023-04-10T10:54:42Z</time>
      </trkpt>
      <trkpt lat="48.06083" lon="-2.97019">
        <ele>57.4</ele>
        <time>2023-04-10T10:54:43Z</time>
      </trkpt>
      <trkpt lat="48.06089" lon="-2.97019">
        <ele>57.4</ele>
        <time>2023-04-10T10:54:44Z</time>
      </trkpt>
      <trkpt lat="48.06123" lon="-2.97014">
        <ele>57.4</ele>
        <time>2023-04-10T10:54:50Z</time>
      </trkpt>
      <trkpt lat="48.06129" lon="-2.97013">
        <ele>57.4</ele>
        <time>2023-04-10T10:54:51Z</time>
      </trkpt>
      <trkpt lat="48.06134" lon="-2.97012">
        <ele>57.4</ele>
        <time>2023-04-10T10:54:52Z</time>
      </trkpt>
      <trkpt lat="48.0614" lon="-2.97011">
        <ele>57.4</ele>
        <time>2023-04-10T10:54:53Z</time>
      </trkpt>
      <trkpt lat="48.06145" lon="-2.9701">
        <ele>57.4</ele>
        <time>2023-04-10T10:54:54Z</time>
      </trkpt>
      <trkpt lat="48.0615" lon="-2.97008">
        <ele>57.4</ele>
        <time>2023-04-10T10:54:55Z</time>
      </trkpt>
      <trkpt lat="48.06155" lon="-2.97006">
        <ele>57.4</ele>
        <time>2023-04-10T10:54:56Z</time>
      </trkpt>
      <trkpt lat="48.06159" lon="-2.97004">
        <ele>57.4</ele>
        <time>2023-04-10T10:54:57Z</time>
      </trkpt>
      <trkpt lat="48.0618" lon="-2.96997">
        <ele>57.4</ele>
        <time>2023-04-10T10:55:01Z</time>
      </trkpt>
      <trkpt lat="48.06198" lon="-2.96991">
        <ele>57.4</ele>
        <time>2023-04-10T10:55:04Z</time>
      </trkpt>
      <trkpt lat="48.06229" lon="-2.9698">
        <ele>57.6</ele>
        <time>2023-04-10T10:55:09Z</time>
      </trkpt>
      <trkpt lat="48.06235" lon="-2.96978">
        <ele>57.6</ele>
        <time>2023-04-10T10:55:10Z</time>
      </trkpt>
      <trkpt lat="48.06241" lon="-2.96976">
        <ele>57.6</ele>
        <time>2023-04-10T10:55:11Z</time>
      </trkpt>
      <trkpt lat="48.06246" lon="-2.96974">
        <ele>57.6</ele>
        <time>2023-04-10T10:55:12Z</time>
      </trkpt>
      <trkpt lat="48.06251" lon="-2.96972">
        <ele>57.6</ele>
        <time>2023-04-10T10:55:13Z</time>
      </trkpt>
      <trkpt lat="48.06256" lon="-2.96971">
        <ele>57.6</ele>
        <time>2023-04-10T10:55:14Z</time>
      </trkpt>
      <trkpt lat="48.06261" lon="-2.96969">
        <ele>57.6</ele>
        <time>2023-04-10T10:55:15Z</time>
      </trkpt>
      <trkpt lat="48.06266" lon="-2.96968">
        <ele>57.6</ele>
        <time>2023-04-10T10:55:16Z</time>
      </trkpt>
      <trkpt lat="48.06271" lon="-2.96967">
        <ele>57.6</ele>
        <time>2023-04-10T10:55:17Z</time>
      </trkpt>
      <trkpt lat="48.06275" lon="-2.96965">
        <ele>57.6</ele>
        <time>2023-04-10T10:55:18Z</time>
      </trkpt>
      <trkpt lat="48.06278" lon="-2.96964">
        <ele>57.6</ele>
        <time>2023-04-10T10:55:19Z</time>
      </trkpt>
      <trkpt lat="48.06282" lon="-2.96961">
        <ele>57.6</ele>
        <time>2023-04-10T10:55:20Z</time>
      </trkpt>
      <trkpt lat="48.06284" lon="-2.96958">
        <ele>57.6</ele>
        <time>2023-04-10T10:55:21Z</time>
      </trkpt>
      <trkpt lat="48.06284" lon="-2.96956">
        <ele>57.6</ele>
        <time>2023-04-10T10:55:22Z</time>
      </trkpt>
      <trkpt lat="48.06285" lon="-2.96953">
        <ele>57.6</ele>
        <time>2023-04-10T10:55:23Z</time>
      </trkpt>
      <trkpt lat="48.06286" lon="-2.96948">
        <ele>57.6</ele>
        <time>2023-04-10T10:55:24Z</time>
      </trkpt>
      <trkpt lat="48.06286" lon="-2.96942">
        <ele>57.6</ele>
        <time>2023-04-10T10:55:25Z</time>
      </trkpt>
      <trkpt lat="48.06285" lon="-2.96935">
        <ele>57.6</ele>
        <time>2023-04-10T10:55:26Z</time>
      </trkpt>
      <trkpt lat="48.06284" lon="-2.96927">
        <ele>57.6</ele>
        <time>2023-04-10T10:55:27Z</time>
      </trkpt>
      <trkpt lat="48.06282" lon="-2.96919">
        <ele>57.6</ele>
        <time>2023-04-10T10:55:28Z</time>
      </trkpt>
      <trkpt lat="48.0628" lon="-2.9691">
        <ele>57.6</ele>
        <time>2023-04-10T10:55:29Z</time>
      </trkpt>
      <trkpt lat="48.06273" lon="-2.96866">
        <ele>57.6</ele>
        <time>2023-04-10T10:55:34Z</time>
      </trkpt>
      <trkpt lat="48.06264" lon="-2.96802">
        <ele>58.4</ele>
        <time>2023-04-10T10:55:41Z</time>
      </trkpt>
      <trkpt lat="48.06261" lon="-2.96784">
        <ele>58.8</ele>
        <time>2023-04-10T10:55:43Z</time>
      </trkpt>
      <trkpt lat="48.0626" lon="-2.96775">
        <ele>58.8</ele>
        <time>2023-04-10T10:55:44Z</time>
      </trkpt>
      <trkpt lat="48.06257" lon="-2.96757">
        <ele>58.8</ele>
        <time>2023-04-10T10:55:46Z</time>
      </trkpt>
      <trkpt lat="48.06256" lon="-2.96748">
        <ele>58.8</ele>
        <time>2023-04-10T10:55:47Z</time>
      </trkpt>
      <trkpt lat="48.06253" lon="-2.9674">
        <ele>59</ele>
        <time>2023-04-10T10:55:48Z</time>
      </trkpt>
      <trkpt lat="48.06253" lon="-2.96732">
        <ele>59</ele>
        <time>2023-04-10T10:55:49Z</time>
      </trkpt>
      <trkpt lat="48.06252" lon="-2.96725">
        <ele>59</ele>
        <time>2023-04-10T10:55:50Z</time>
      </trkpt>
      <trkpt lat="48.06251" lon="-2.96718">
        <ele>59</ele>
        <time>2023-04-10T10:55:51Z</time>
      </trkpt>
      <trkpt lat="48.0625" lon="-2.96711">
        <ele>59.2</ele>
        <time>2023-04-10T10:55:52Z</time>
      </trkpt>
      <trkpt lat="48.06249" lon="-2.96705">
        <ele>59.2</ele>
        <time>2023-04-10T10:55:53Z</time>
      </trkpt>
      <trkpt lat="48.06247" lon="-2.96701">
        <ele>59.2</ele>
        <time>2023-04-10T10:55:54Z</time>
      </trkpt>
      <trkpt lat="48.06244" lon="-2.96698">
        <ele>59.4</ele>
        <time>2023-04-10T10:55:55Z</time>
      </trkpt>
      <trkpt lat="48.06236" lon="-2.96698">
        <ele>59.4</ele>
        <time>2023-04-10T10:55:57Z</time>
      </trkpt>
      <trkpt lat="48.06227" lon="-2.96702">
        <ele>59.6</ele>
        <time>2023-04-10T10:55:59Z</time>
      </trkpt>
      <trkpt lat="48.06222" lon="-2.96704">
        <ele>59.6</ele>
        <time>2023-04-10T10:56:00Z</time>
      </trkpt>
      <trkpt lat="48.06211" lon="-2.96701">
        <ele>59.8</ele>
        <time>2023-04-10T10:56:02Z</time>
      </trkpt>
      <trkpt lat="48.06208" lon="-2.96697">
        <ele>60</ele>
        <time>2023-04-10T10:56:03Z</time>
      </trkpt>
      <trkpt lat="48.06204" lon="-2.96684">
        <ele>60</ele>
        <time>2023-04-10T10:56:05Z</time>
      </trkpt>
      <trkpt lat="48.06202" lon="-2.96676">
        <ele>60</ele>
        <time>2023-04-10T10:56:06Z</time>
      </trkpt>
      <trkpt lat="48.06201" lon="-2.96669">
        <ele>60</ele>
        <time>2023-04-10T10:56:07Z</time>
      </trkpt>
      <trkpt lat="48.062" lon="-2.96663">
        <ele>60</ele>
        <time>2023-04-10T10:56:08Z</time>
      </trkpt>
      <trkpt lat="48.06199" lon="-2.96656">
        <ele>60</ele>
        <time>2023-04-10T10:56:09Z</time>
      </trkpt>
      <trkpt lat="48.06199" lon="-2.96649">
        <ele>60</ele>
        <time>2023-04-10T10:56:10Z</time>
      </trkpt>
      <trkpt lat="48.06198" lon="-2.96641">
        <ele>60</ele>
        <time>2023-04-10T10:56:11Z</time>
      </trkpt>
      <trkpt lat="48.06196" lon="-2.96634">
        <ele>60</ele>
        <time>2023-04-10T10:56:12Z</time>
      </trkpt>
      <trkpt lat="48.06191" lon="-2.96622">
        <ele>60.2</ele>
        <time>2023-04-10T10:56:14Z</time>
      </trkpt>
      <trkpt lat="48.0619" lon="-2.96616">
        <ele>60.2</ele>
        <time>2023-04-10T10:56:15Z</time>
      </trkpt>
    </trkseg>
  </trk>
</gpx>